<?xml version='1.0' encoding='UTF-8'?><gpx version="1.1" creator="JPX - https://github.com/jenetics/jpx" xmlns="http://www.topografix.com/GPX/1/1"><trk><trkseg><trkpt lat="45.0104583" lon="9.2748183"><ele>293.8333333333333</ele><time>2026-04-11T07:34:57.036Z</time></trkpt><trkpt lat="45.0104267" lon="9.2747183"><ele>293.6666666666667</ele><time>2026-04-11T07:35:00.038Z</time></trkpt><trkpt lat="45.0103917" lon="9.27463"><ele>293.5</ele><time>2026-04-11T07:35:02.037Z</time></trkpt><trkpt lat="45.0103467" lon="9.2745217"><ele>293.33333333333337</ele><time>2026-04-11T07:35:04.036Z</time></trkpt><trkpt lat="45.0103033" lon="9.2744083"><ele>293.1666666666667</ele><time>2026-04-11T07:35:06.035Z</time></trkpt><trkpt lat="45.010285" lon="9.2743183"><ele>293.0</ele><time>2026-04-11T07:35:08.035Z</time></trkpt><trkpt lat="45.010255" lon="9.2742017"><ele>293.0</ele><time>2026-04-11T07:35:11.037Z</time></trkpt><trkpt lat="45.0102317" lon="9.2741083"><ele>293.0</ele><time>2026-04-11T07:35:13.036Z</time></trkpt><trkpt lat="45.0101967" lon="9.27403"><ele>293.0</ele><time>2026-04-11T07:35:14.034Z</time></trkpt><trkpt lat="45.01014" lon="9.2739117"><ele>293.0</ele><time>2026-04-11T07:35:15.039Z</time></trkpt><trkpt lat="45.0100767" lon="9.2737867"><ele>293.0</ele><time>2026-04-11T07:35:16.038Z</time></trkpt><trkpt lat="45.01001" lon="9.2736617"><ele>290.4</ele><time>2026-04-11T07:35:17.036Z</time></trkpt><trkpt lat="45.0099517" lon="9.273545"><ele>287.8</ele><time>2026-04-11T07:35:18.036Z</time></trkpt><trkpt lat="45.0098967" lon="9.2734383"><ele>285.2</ele><time>2026-04-11T07:35:19.041Z</time></trkpt><trkpt lat="45.0098467" lon="9.27335"><ele>282.6</ele><time>2026-04-11T07:35:20.042Z</time></trkpt><trkpt lat="45.0098033" lon="9.2732733"><ele>280.0</ele><time>2026-04-11T07:35:21.039Z</time></trkpt><trkpt lat="45.0097383" lon="9.2731517"><ele>279.0</ele><time>2026-04-11T07:35:23.038Z</time></trkpt><trkpt lat="45.0097033" lon="9.2730717"><ele>278.0</ele><time>2026-04-11T07:35:24.04Z</time></trkpt><trkpt lat="45.0096533" lon="9.2729583"><ele>277.0</ele><time>2026-04-11T07:35:25.038Z</time></trkpt><trkpt lat="45.00959" lon="9.2728167"><ele>276.0</ele><time>2026-04-11T07:35:26.036Z</time></trkpt><trkpt lat="45.0095133" lon="9.272665"><ele>275.0</ele><time>2026-04-11T07:35:27.038Z</time></trkpt><trkpt lat="45.0094283" lon="9.2725117"><ele>275.0</ele><time>2026-04-11T07:35:28.039Z</time></trkpt><trkpt lat="45.0093383" lon="9.27236"><ele>275.0</ele><time>2026-04-11T07:35:29.039Z</time></trkpt><trkpt lat="45.00925" lon="9.27221"><ele>275.0</ele><time>2026-04-11T07:35:30.04Z</time></trkpt><trkpt lat="45.009165" lon="9.272055"><ele>275.0</ele><time>2026-04-11T07:35:31.037Z</time></trkpt><trkpt lat="45.0090867" lon="9.2718917"><ele>272.5</ele><time>2026-04-11T07:35:32.036Z</time></trkpt><trkpt lat="45.0090133" lon="9.2717133"><ele>270.0</ele><time>2026-04-11T07:35:33.04Z</time></trkpt><trkpt lat="45.0089367" lon="9.2715367"><ele>267.5</ele><time>2026-04-11T07:35:34.038Z</time></trkpt><trkpt lat="45.0088583" lon="9.2713633"><ele>265.0</ele><time>2026-04-11T07:35:35.037Z</time></trkpt><trkpt lat="45.00878" lon="9.2711917"><ele>263.25</ele><time>2026-04-11T07:35:36.037Z</time></trkpt><trkpt lat="45.0086983" lon="9.2710183"><ele>261.5</ele><time>2026-04-11T07:35:37.039Z</time></trkpt><trkpt lat="45.0086183" lon="9.2708467"><ele>259.75</ele><time>2026-04-11T07:35:38.034Z</time></trkpt><trkpt lat="45.0085383" lon="9.2706783"><ele>258.0</ele><time>2026-04-11T07:35:39.039Z</time></trkpt><trkpt lat="45.00846" lon="9.27051"><ele>256.6666666666667</ele><time>2026-04-11T07:35:40.037Z</time></trkpt><trkpt lat="45.0083783" lon="9.2703367"><ele>255.33333333333334</ele><time>2026-04-11T07:35:41.037Z</time></trkpt><trkpt lat="45.0082933" lon="9.2701533"><ele>254.0</ele><time>2026-04-11T07:35:42.036Z</time></trkpt><trkpt lat="45.00821" lon="9.26997"><ele>253.5</ele><time>2026-04-11T07:35:43.037Z</time></trkpt><trkpt lat="45.00813" lon="9.26979"><ele>253.0</ele><time>2026-04-11T07:35:44.039Z</time></trkpt><trkpt lat="45.008055" lon="9.269615"><ele>252.5</ele><time>2026-04-11T07:35:45.037Z</time></trkpt><trkpt lat="45.0079817" lon="9.2694433"><ele>252.0</ele><time>2026-04-11T07:35:46.035Z</time></trkpt><trkpt lat="45.007905" lon="9.2692683"><ele>250.75</ele><time>2026-04-11T07:35:47.037Z</time></trkpt><trkpt lat="45.0078267" lon="9.2690917"><ele>249.5</ele><time>2026-04-11T07:35:48.039Z</time></trkpt><trkpt lat="45.0077467" lon="9.268915"><ele>248.25</ele><time>2026-04-11T07:35:49.039Z</time></trkpt><trkpt lat="45.0076617" lon="9.2687367"><ele>247.0</ele><time>2026-04-11T07:35:50.042Z</time></trkpt><trkpt lat="45.0075717" lon="9.2685633"><ele>243.0</ele><time>2026-04-11T07:35:51.04Z</time></trkpt><trkpt lat="45.00748" lon="9.268395"><ele>239.0</ele><time>2026-04-11T07:35:52.032Z</time></trkpt><trkpt lat="45.00739" lon="9.268235"><ele>235.0</ele><time>2026-04-11T07:35:53.037Z</time></trkpt><trkpt lat="45.0073033" lon="9.26808"><ele>231.0</ele><time>2026-04-11T07:35:54.036Z</time></trkpt><trkpt lat="45.0072233" lon="9.2679333"><ele>230.25</ele><time>2026-04-11T07:35:55.039Z</time></trkpt><trkpt lat="45.0071467" lon="9.2677917"><ele>229.5</ele><time>2026-04-11T07:35:56.039Z</time></trkpt><trkpt lat="45.0070717" lon="9.2676517"><ele>228.75</ele><time>2026-04-11T07:35:57.039Z</time></trkpt><trkpt lat="45.0069967" lon="9.267515"><ele>228.0</ele><time>2026-04-11T07:35:58.038Z</time></trkpt><trkpt lat="45.0069233" lon="9.2673867"><ele>227.60000000000002</ele><time>2026-04-11T07:35:59.038Z</time></trkpt><trkpt lat="45.00685" lon="9.2672667"><ele>227.20000000000002</ele><time>2026-04-11T07:36:00.034Z</time></trkpt><trkpt lat="45.0067783" lon="9.26716"><ele>226.8</ele><time>2026-04-11T07:36:01.036Z</time></trkpt><trkpt lat="45.0067133" lon="9.2670683"><ele>226.4</ele><time>2026-04-11T07:36:02.041Z</time></trkpt><trkpt lat="45.0066583" lon="9.2669867"><ele>226.0</ele><time>2026-04-11T07:36:03.038Z</time></trkpt><trkpt lat="45.0066117" lon="9.2669117"><ele>224.49999999999997</ele><time>2026-04-11T07:36:04.038Z</time></trkpt><trkpt lat="45.0065717" lon="9.2668317"><ele>223.0</ele><time>2026-04-11T07:36:05.033Z</time></trkpt><trkpt lat="45.0065367" lon="9.266735"><ele>221.5</ele><time>2026-04-11T07:36:06.029Z</time></trkpt><trkpt lat="45.0064917" lon="9.2666367"><ele>220.0</ele><time>2026-04-11T07:36:07.031Z</time></trkpt><trkpt lat="45.0064383" lon="9.266545"><ele>218.49999999999997</ele><time>2026-04-11T07:36:08.032Z</time></trkpt><trkpt lat="45.00637" lon="9.266465"><ele>217.0</ele><time>2026-04-11T07:36:09.036Z</time></trkpt><trkpt lat="45.0063" lon="9.26639"><ele>215.6</ele><time>2026-04-11T07:36:10.031Z</time></trkpt><trkpt lat="45.0062333" lon="9.26633"><ele>214.2</ele><time>2026-04-11T07:36:11.034Z</time></trkpt><trkpt lat="45.0061483" lon="9.26626"><ele>212.8</ele><time>2026-04-11T07:36:12.038Z</time></trkpt><trkpt lat="45.0060567" lon="9.2661617"><ele>211.4</ele><time>2026-04-11T07:36:13.038Z</time></trkpt><trkpt lat="45.0059633" lon="9.2660633"><ele>210.0</ele><time>2026-04-11T07:36:14.037Z</time></trkpt><trkpt lat="45.005875" lon="9.26597"><ele>207.5</ele><time>2026-04-11T07:36:15.03Z</time></trkpt><trkpt lat="45.0057867" lon="9.2658717"><ele>205.0</ele><time>2026-04-11T07:36:16.033Z</time></trkpt><trkpt lat="45.0056967" lon="9.2657767"><ele>202.5</ele><time>2026-04-11T07:36:17.033Z</time></trkpt><trkpt lat="45.0056067" lon="9.265685"><ele>200.0</ele><time>2026-04-11T07:36:18.037Z</time></trkpt><trkpt lat="45.0055117" lon="9.2655933"><ele>198.5</ele><time>2026-04-11T07:36:19.039Z</time></trkpt><trkpt lat="45.00541" lon="9.2655167"><ele>197.0</ele><time>2026-04-11T07:36:20.038Z</time></trkpt><trkpt lat="45.0053083" lon="9.2654333"><ele>195.5</ele><time>2026-04-11T07:36:21.04Z</time></trkpt><trkpt lat="45.005205" lon="9.265345"><ele>194.0</ele><time>2026-04-11T07:36:22.03Z</time></trkpt><trkpt lat="45.0051017" lon="9.2652667"><ele>191.75</ele><time>2026-04-11T07:36:23.031Z</time></trkpt><trkpt lat="45.004995" lon="9.265195"><ele>189.5</ele><time>2026-04-11T07:36:24.031Z</time></trkpt><trkpt lat="45.0048817" lon="9.2651317"><ele>187.25</ele><time>2026-04-11T07:36:25.029Z</time></trkpt><trkpt lat="45.0047717" lon="9.2650683"><ele>185.0</ele><time>2026-04-11T07:36:26.029Z</time></trkpt><trkpt lat="45.00467" lon="9.2650067"><ele>185.0</ele><time>2026-04-11T07:36:27.029Z</time></trkpt><trkpt lat="45.0045633" lon="9.2649467"><ele>185.0</ele><time>2026-04-11T07:36:28.032Z</time></trkpt><trkpt lat="45.0044583" lon="9.2648817"><ele>185.0</ele><time>2026-04-11T07:36:29.031Z</time></trkpt><trkpt lat="45.0043567" lon="9.2648167"><ele>185.0</ele><time>2026-04-11T07:36:30.03Z</time></trkpt><trkpt lat="45.0042533" lon="9.2647517"><ele>180.75</ele><time>2026-04-11T07:36:31.032Z</time></trkpt><trkpt lat="45.00414" lon="9.264685"><ele>176.5</ele><time>2026-04-11T07:36:32.03Z</time></trkpt><trkpt lat="45.0040233" lon="9.26462"><ele>172.25</ele><time>2026-04-11T07:36:33.03Z</time></trkpt><trkpt lat="45.0039083" lon="9.2645583"><ele>168.0</ele><time>2026-04-11T07:36:34.029Z</time></trkpt><trkpt lat="45.0037967" lon="9.2644917"><ele>168.0</ele><time>2026-04-11T07:36:35.03Z</time></trkpt><trkpt lat="45.0036917" lon="9.26442"><ele>168.0</ele><time>2026-04-11T07:36:36.04Z</time></trkpt><trkpt lat="45.00359" lon="9.2643383"><ele>168.0</ele><time>2026-04-11T07:36:37.039Z</time></trkpt><trkpt lat="45.0034933" lon="9.2642633"><ele>168.0</ele><time>2026-04-11T07:36:38.039Z</time></trkpt><trkpt lat="45.0034017" lon="9.26418"><ele>167.4</ele><time>2026-04-11T07:36:39.041Z</time></trkpt><trkpt lat="45.0033133" lon="9.264085"><ele>166.8</ele><time>2026-04-11T07:36:40.03Z</time></trkpt><trkpt lat="45.003235" lon="9.2639817"><ele>166.2</ele><time>2026-04-11T07:36:41.042Z</time></trkpt><trkpt lat="45.0031583" lon="9.2638617"><ele>165.6</ele><time>2026-04-11T07:36:42.035Z</time></trkpt><trkpt lat="45.0030883" lon="9.2637317"><ele>165.0</ele><time>2026-04-11T07:36:43.03Z</time></trkpt><trkpt lat="45.00302" lon="9.2635967"><ele>163.6</ele><time>2026-04-11T07:36:44.03Z</time></trkpt><trkpt lat="45.00296" lon="9.263465"><ele>162.2</ele><time>2026-04-11T07:36:45.032Z</time></trkpt><trkpt lat="45.002915" lon="9.2633317"><ele>160.8</ele><time>2026-04-11T07:36:46.03Z</time></trkpt><trkpt lat="45.0028933" lon="9.2631867"><ele>159.4</ele><time>2026-04-11T07:36:47.029Z</time></trkpt><trkpt lat="45.0028667" lon="9.2630317"><ele>158.0</ele><time>2026-04-11T07:36:48.034Z</time></trkpt><trkpt lat="45.0028317" lon="9.262875"><ele>156.25</ele><time>2026-04-11T07:36:49.037Z</time></trkpt><trkpt lat="45.0027983" lon="9.26272"><ele>154.5</ele><time>2026-04-11T07:36:50.033Z</time></trkpt><trkpt lat="45.0027683" lon="9.2625683"><ele>152.75</ele><time>2026-04-11T07:36:51.03Z</time></trkpt><trkpt lat="45.00274" lon="9.2624"><ele>151.0</ele><time>2026-04-11T07:36:52.029Z</time></trkpt><trkpt lat="45.0027167" lon="9.26224"><ele>150.2</ele><time>2026-04-11T07:36:53.033Z</time></trkpt><trkpt lat="45.0027083" lon="9.2620833"><ele>149.39999999999998</ele><time>2026-04-11T07:36:54.036Z</time></trkpt><trkpt lat="45.002705" lon="9.2619333"><ele>148.6</ele><time>2026-04-11T07:36:55.029Z</time></trkpt><trkpt lat="45.0027067" lon="9.2618083"><ele>147.79999999999998</ele><time>2026-04-11T07:36:56.028Z</time></trkpt><trkpt lat="45.0027" lon="9.2617133"><ele>147.0</ele><time>2026-04-11T07:36:57.037Z</time></trkpt><trkpt lat="45.0026483" lon="9.2616317"><ele>147.75</ele><time>2026-04-11T07:36:59.035Z</time></trkpt><trkpt lat="45.0024867" lon="9.2616233"><ele>148.5</ele><time>2026-04-11T07:37:01.029Z</time></trkpt><trkpt lat="45.0023767" lon="9.26164"><ele>149.25</ele><time>2026-04-11T07:37:02.032Z</time></trkpt><trkpt lat="45.002265" lon="9.261675"><ele>150.0</ele><time>2026-04-11T07:37:03.03Z</time></trkpt><trkpt lat="45.0021783" lon="9.261725"><ele>150.0</ele><time>2026-04-11T07:37:04.029Z</time></trkpt><trkpt lat="45.0021133" lon="9.2617783"><ele>150.0</ele><time>2026-04-11T07:37:05.03Z</time></trkpt><trkpt lat="45.0020067" lon="9.2617967"><ele>150.0</ele><time>2026-04-11T07:37:07.045Z</time></trkpt><trkpt lat="45.00193" lon="9.261725"><ele>150.0</ele><time>2026-04-11T07:37:09.043Z</time></trkpt><trkpt lat="45.0018333" lon="9.2616833"><ele>150.0</ele><time>2026-04-11T07:37:11.029Z</time></trkpt><trkpt lat="45.00172" lon="9.2616583"><ele>151.2</ele><time>2026-04-11T07:37:13.031Z</time></trkpt><trkpt lat="45.0016333" lon="9.2616217"><ele>152.4</ele><time>2026-04-11T07:37:15.03Z</time></trkpt><trkpt lat="45.00157" lon="9.261635"><ele>153.6</ele><time>2026-04-11T07:37:16.031Z</time></trkpt><trkpt lat="45.0014833" lon="9.261685"><ele>154.8</ele><time>2026-04-11T07:37:17.032Z</time></trkpt><trkpt lat="45.001385" lon="9.2617533"><ele>156.0</ele><time>2026-04-11T07:37:18.041Z</time></trkpt><trkpt lat="45.0012883" lon="9.2618233"><ele>156.0</ele><time>2026-04-11T07:37:19.043Z</time></trkpt><trkpt lat="45.001185" lon="9.2619"><ele>156.0</ele><time>2026-04-11T07:37:20.04Z</time></trkpt><trkpt lat="45.00108" lon="9.2619817"><ele>156.0</ele><time>2026-04-11T07:37:21.041Z</time></trkpt><trkpt lat="45.00097" lon="9.2620583"><ele>156.0</ele><time>2026-04-11T07:37:22.038Z</time></trkpt><trkpt lat="45.000855" lon="9.262135"><ele>156.0</ele><time>2026-04-11T07:37:23.043Z</time></trkpt><trkpt lat="45.0007283" lon="9.2622117"><ele>156.0</ele><time>2026-04-11T07:37:24.038Z</time></trkpt><trkpt lat="45.0006067" lon="9.262265"><ele>156.0</ele><time>2026-04-11T07:37:25.043Z</time></trkpt><trkpt lat="45.0004817" lon="9.2623133"><ele>156.0</ele><time>2026-04-11T07:37:26.041Z</time></trkpt><trkpt lat="45.0003467" lon="9.26236"><ele>156.0</ele><time>2026-04-11T07:37:27.041Z</time></trkpt><trkpt lat="45.0002117" lon="9.2623883"><ele>156.0</ele><time>2026-04-11T07:37:28.04Z</time></trkpt><trkpt lat="45.00007" lon="9.2623983"><ele>156.0</ele><time>2026-04-11T07:37:29.041Z</time></trkpt><trkpt lat="44.9999283" lon="9.2623883"><ele>156.0</ele><time>2026-04-11T07:37:30.036Z</time></trkpt><trkpt lat="44.9997817" lon="9.26238"><ele>156.0</ele><time>2026-04-11T07:37:31.039Z</time></trkpt><trkpt lat="44.9996317" lon="9.262375"><ele>156.0</ele><time>2026-04-11T07:37:32.04Z</time></trkpt><trkpt lat="44.9994783" lon="9.2623667"><ele>156.0</ele><time>2026-04-11T07:37:33.04Z</time></trkpt><trkpt lat="44.9993233" lon="9.2623633"><ele>156.33333333333334</ele><time>2026-04-11T07:37:34.041Z</time></trkpt><trkpt lat="44.999165" lon="9.26236"><ele>156.66666666666669</ele><time>2026-04-11T07:37:35.03Z</time></trkpt><trkpt lat="44.9990017" lon="9.2623533"><ele>157.0</ele><time>2026-04-11T07:37:36.039Z</time></trkpt><trkpt lat="44.9988417" lon="9.2623483"><ele>157.0</ele><time>2026-04-11T07:37:37.037Z</time></trkpt><trkpt lat="44.9986867" lon="9.2623483"><ele>157.0</ele><time>2026-04-11T07:37:38.038Z</time></trkpt><trkpt lat="44.998535" lon="9.2623483"><ele>157.0</ele><time>2026-04-11T07:37:39.039Z</time></trkpt><trkpt lat="44.9983833" lon="9.2623467"><ele>157.25</ele><time>2026-04-11T07:37:40.042Z</time></trkpt><trkpt lat="44.9982333" lon="9.2623467"><ele>157.5</ele><time>2026-04-11T07:37:41.042Z</time></trkpt><trkpt lat="44.9980867" lon="9.2623433"><ele>157.75</ele><time>2026-04-11T07:37:42.03Z</time></trkpt><trkpt lat="44.9979417" lon="9.262345"><ele>158.0</ele><time>2026-04-11T07:37:43.04Z</time></trkpt><trkpt lat="44.9977983" lon="9.2623733"><ele>158.0</ele><time>2026-04-11T07:37:44.039Z</time></trkpt><trkpt lat="44.9976583" lon="9.2624283"><ele>158.0</ele><time>2026-04-11T07:37:45.042Z</time></trkpt><trkpt lat="44.9975283" lon="9.2625067"><ele>158.0</ele><time>2026-04-11T07:37:46.037Z</time></trkpt><trkpt lat="44.9974067" lon="9.2626083"><ele>158.0</ele><time>2026-04-11T07:37:47.041Z</time></trkpt><trkpt lat="44.997295" lon="9.2627483"><ele>158.0</ele><time>2026-04-11T07:37:48.039Z</time></trkpt><trkpt lat="44.9971883" lon="9.262895"><ele>158.0</ele><time>2026-04-11T07:37:49.039Z</time></trkpt><trkpt lat="44.9970783" lon="9.263025"><ele>158.0</ele><time>2026-04-11T07:37:50.043Z</time></trkpt><trkpt lat="44.99696" lon="9.263115"><ele>158.0</ele><time>2026-04-11T07:37:51.043Z</time></trkpt><trkpt lat="44.9968367" lon="9.2631583"><ele>158.0</ele><time>2026-04-11T07:37:52.042Z</time></trkpt><trkpt lat="44.9967033" lon="9.2631667"><ele>158.0</ele><time>2026-04-11T07:37:53.039Z</time></trkpt><trkpt lat="44.9965617" lon="9.26315"><ele>158.0</ele><time>2026-04-11T07:37:54.041Z</time></trkpt><trkpt lat="44.9964183" lon="9.2630933"><ele>158.0</ele><time>2026-04-11T07:37:55.039Z</time></trkpt><trkpt lat="44.99627" lon="9.2630533"><ele>163.66666666666666</ele><time>2026-04-11T07:37:56.041Z</time></trkpt><trkpt lat="44.9961267" lon="9.263005"><ele>169.33333333333334</ele><time>2026-04-11T07:37:57.044Z</time></trkpt><trkpt lat="44.995975" lon="9.2629733"><ele>175.0</ele><time>2026-04-11T07:37:58.039Z</time></trkpt><trkpt lat="44.9958233" lon="9.2629317"><ele>175.0</ele><time>2026-04-11T07:37:59.037Z</time></trkpt><trkpt lat="44.995675" lon="9.262875"><ele>175.0</ele><time>2026-04-11T07:38:00.031Z</time></trkpt><trkpt lat="44.9955333" lon="9.2627983"><ele>175.0</ele><time>2026-04-11T07:38:01.039Z</time></trkpt><trkpt lat="44.9953983" lon="9.2627017"><ele>175.0</ele><time>2026-04-11T07:38:02.037Z</time></trkpt><trkpt lat="44.9952767" lon="9.2625817"><ele>175.0</ele><time>2026-04-11T07:38:03.04Z</time></trkpt><trkpt lat="44.995155" lon="9.26245"><ele>175.0</ele><time>2026-04-11T07:38:04.037Z</time></trkpt><trkpt lat="44.9950367" lon="9.2623133"><ele>175.0</ele><time>2026-04-11T07:38:05.034Z</time></trkpt><trkpt lat="44.9949167" lon="9.2621733"><ele>175.0</ele><time>2026-04-11T07:38:06.039Z</time></trkpt><trkpt lat="44.9947983" lon="9.262025"><ele>175.0</ele><time>2026-04-11T07:38:07.04Z</time></trkpt><trkpt lat="44.9946817" lon="9.26187"><ele>175.0</ele><time>2026-04-11T07:38:08.037Z</time></trkpt><trkpt lat="44.9945633" lon="9.2617167"><ele>175.0</ele><time>2026-04-11T07:38:09.043Z</time></trkpt><trkpt lat="44.9944483" lon="9.2615717"><ele>175.0</ele><time>2026-04-11T07:38:10.039Z</time></trkpt><trkpt lat="44.9943333" lon="9.2614233"><ele>175.25</ele><time>2026-04-11T07:38:11.037Z</time></trkpt><trkpt lat="44.9942233" lon="9.2612767"><ele>175.5</ele><time>2026-04-11T07:38:12.042Z</time></trkpt><trkpt lat="44.994125" lon="9.26112"><ele>175.75</ele><time>2026-04-11T07:38:13.04Z</time></trkpt><trkpt lat="44.9940483" lon="9.2609517"><ele>176.0</ele><time>2026-04-11T07:38:14.039Z</time></trkpt><trkpt lat="44.99398" lon="9.2607683"><ele>178.5</ele><time>2026-04-11T07:38:15.033Z</time></trkpt><trkpt lat="44.9939067" lon="9.2605883"><ele>181.0</ele><time>2026-04-11T07:38:16.039Z</time></trkpt><trkpt lat="44.993815" lon="9.26043"><ele>183.5</ele><time>2026-04-11T07:38:17.039Z</time></trkpt><trkpt lat="44.9936967" lon="9.260305"><ele>186.0</ele><time>2026-04-11T07:38:18.034Z</time></trkpt><trkpt lat="44.9935583" lon="9.2602217"><ele>186.0</ele><time>2026-04-11T07:38:19.038Z</time></trkpt><trkpt lat="44.99341" lon="9.26017"><ele>186.0</ele><time>2026-04-11T07:38:20.038Z</time></trkpt><trkpt lat="44.993255" lon="9.2601383"><ele>186.0</ele><time>2026-04-11T07:38:21.038Z</time></trkpt><trkpt lat="44.9931" lon="9.2601083"><ele>184.33333333333334</ele><time>2026-04-11T07:38:22.04Z</time></trkpt><trkpt lat="44.9929467" lon="9.260065"><ele>182.66666666666669</ele><time>2026-04-11T07:38:23.038Z</time></trkpt><trkpt lat="44.992795" lon="9.260005"><ele>181.0</ele><time>2026-04-11T07:38:24.039Z</time></trkpt><trkpt lat="44.992645" lon="9.2599267"><ele>180.66666666666669</ele><time>2026-04-11T07:38:25.037Z</time></trkpt><trkpt lat="44.9924967" lon="9.2598417"><ele>180.33333333333334</ele><time>2026-04-11T07:38:26.038Z</time></trkpt><trkpt lat="44.9923483" lon="9.2597583"><ele>180.0</ele><time>2026-04-11T07:38:27.037Z</time></trkpt><trkpt lat="44.9922" lon="9.259685"><ele>185.66666666666669</ele><time>2026-04-11T07:38:28.039Z</time></trkpt><trkpt lat="44.9920467" lon="9.25962"><ele>191.33333333333334</ele><time>2026-04-11T07:38:29.038Z</time></trkpt><trkpt lat="44.991895" lon="9.259555"><ele>197.0</ele><time>2026-04-11T07:38:30.04Z</time></trkpt><trkpt lat="44.99174" lon="9.2595083"><ele>193.33333333333334</ele><time>2026-04-11T07:38:31.039Z</time></trkpt><trkpt lat="44.9915867" lon="9.2594717"><ele>189.66666666666669</ele><time>2026-04-11T07:38:32.042Z</time></trkpt><trkpt lat="44.9914383" lon="9.2594467"><ele>186.0</ele><time>2026-04-11T07:38:33.043Z</time></trkpt><trkpt lat="44.9912917" lon="9.2594267"><ele>186.0</ele><time>2026-04-11T07:38:34.042Z</time></trkpt><trkpt lat="44.9911483" lon="9.2594033"><ele>186.0</ele><time>2026-04-11T07:38:35.038Z</time></trkpt><trkpt lat="44.9910117" lon="9.2593467"><ele>186.0</ele><time>2026-04-11T07:38:36.041Z</time></trkpt><trkpt lat="44.9908717" lon="9.2592667"><ele>186.0</ele><time>2026-04-11T07:38:37.04Z</time></trkpt><trkpt lat="44.99075" lon="9.2591333"><ele>185.5</ele><time>2026-04-11T07:38:38.038Z</time></trkpt><trkpt lat="44.9906367" lon="9.2589883"><ele>185.0</ele><time>2026-04-11T07:38:39.038Z</time></trkpt><trkpt lat="44.9905233" lon="9.258855"><ele>184.5</ele><time>2026-04-11T07:38:40.038Z</time></trkpt><trkpt lat="44.99041" lon="9.258725"><ele>184.0</ele><time>2026-04-11T07:38:41.041Z</time></trkpt><trkpt lat="44.9902983" lon="9.258585"><ele>184.0</ele><time>2026-04-11T07:38:42.039Z</time></trkpt><trkpt lat="44.9901817" lon="9.25844"><ele>184.0</ele><time>2026-04-11T07:38:43.038Z</time></trkpt><trkpt lat="44.99005" lon="9.25832"><ele>184.0</ele><time>2026-04-11T07:38:44.041Z</time></trkpt><trkpt lat="44.9899083" lon="9.2582267"><ele>184.0</ele><time>2026-04-11T07:38:45.038Z</time></trkpt><trkpt lat="44.989755" lon="9.2581567"><ele>184.0</ele><time>2026-04-11T07:38:46.039Z</time></trkpt><trkpt lat="44.9895983" lon="9.258095"><ele>184.0</ele><time>2026-04-11T07:38:47.039Z</time></trkpt><trkpt lat="44.9894417" lon="9.2580383"><ele>184.0</ele><time>2026-04-11T07:38:48.038Z</time></trkpt><trkpt lat="44.98929" lon="9.2579733"><ele>184.0</ele><time>2026-04-11T07:38:49.04Z</time></trkpt><trkpt lat="44.9891417" lon="9.2578983"><ele>184.0</ele><time>2026-04-11T07:38:50.039Z</time></trkpt><trkpt lat="44.9889983" lon="9.257805"><ele>183.0</ele><time>2026-04-11T07:38:51.038Z</time></trkpt><trkpt lat="44.9888583" lon="9.2576917"><ele>182.0</ele><time>2026-04-11T07:38:52.035Z</time></trkpt><trkpt lat="44.988725" lon="9.2575617"><ele>181.0</ele><time>2026-04-11T07:38:53.039Z</time></trkpt><trkpt lat="44.9886033" lon="9.2574133"><ele>181.33333333333334</ele><time>2026-04-11T07:38:54.033Z</time></trkpt><trkpt lat="44.9884833" lon="9.2572567"><ele>181.66666666666666</ele><time>2026-04-11T07:38:55.037Z</time></trkpt><trkpt lat="44.9883617" lon="9.257085"><ele>182.0</ele><time>2026-04-11T07:38:56.038Z</time></trkpt><trkpt lat="44.98824" lon="9.2569117"><ele>182.0</ele><time>2026-04-11T07:38:57.037Z</time></trkpt><trkpt lat="44.98812" lon="9.2567467"><ele>182.0</ele><time>2026-04-11T07:38:58.04Z</time></trkpt><trkpt lat="44.988" lon="9.2565817"><ele>182.0</ele><time>2026-04-11T07:38:59.041Z</time></trkpt><trkpt lat="44.987885" lon="9.256425"><ele>183.5</ele><time>2026-04-11T07:39:00.04Z</time></trkpt><trkpt lat="44.9877817" lon="9.25627"><ele>185.0</ele><time>2026-04-11T07:39:01.034Z</time></trkpt><trkpt lat="44.9876917" lon="9.2561083"><ele>186.5</ele><time>2026-04-11T07:39:02.034Z</time></trkpt><trkpt lat="44.9876133" lon="9.25593"><ele>188.0</ele><time>2026-04-11T07:39:03.038Z</time></trkpt><trkpt lat="44.987545" lon="9.2557367"><ele>188.0</ele><time>2026-04-11T07:39:04.032Z</time></trkpt><trkpt lat="44.9874783" lon="9.255545"><ele>188.0</ele><time>2026-04-11T07:39:05.035Z</time></trkpt><trkpt lat="44.987395" lon="9.25537"><ele>188.0</ele><time>2026-04-11T07:39:06.038Z</time></trkpt><trkpt lat="44.98729" lon="9.25522"><ele>188.0</ele><time>2026-04-11T07:39:07.042Z</time></trkpt><trkpt lat="44.9871683" lon="9.255085"><ele>188.0</ele><time>2026-04-11T07:39:08.041Z</time></trkpt><trkpt lat="44.9870417" lon="9.2549617"><ele>188.0</ele><time>2026-04-11T07:39:09.041Z</time></trkpt><trkpt lat="44.9869117" lon="9.2548433"><ele>188.0</ele><time>2026-04-11T07:39:10.04Z</time></trkpt><trkpt lat="44.98678" lon="9.2547283"><ele>188.0</ele><time>2026-04-11T07:39:11.043Z</time></trkpt><trkpt lat="44.9866483" lon="9.254615"><ele>188.0</ele><time>2026-04-11T07:39:12.04Z</time></trkpt><trkpt lat="44.9865167" lon="9.2545017"><ele>188.0</ele><time>2026-04-11T07:39:13.04Z</time></trkpt><trkpt lat="44.9863917" lon="9.2543783"><ele>188.0</ele><time>2026-04-11T07:39:14.038Z</time></trkpt><trkpt lat="44.9862717" lon="9.2542333"><ele>188.0</ele><time>2026-04-11T07:39:15.034Z</time></trkpt><trkpt lat="44.9861633" lon="9.2540683"><ele>189.33333333333331</ele><time>2026-04-11T07:39:16.041Z</time></trkpt><trkpt lat="44.9860783" lon="9.2538867"><ele>190.66666666666666</ele><time>2026-04-11T07:39:17.039Z</time></trkpt><trkpt lat="44.9860167" lon="9.2536933"><ele>192.0</ele><time>2026-04-11T07:39:18.039Z</time></trkpt><trkpt lat="44.985975" lon="9.253485"><ele>192.0</ele><time>2026-04-11T07:39:19.037Z</time></trkpt><trkpt lat="44.9859517" lon="9.2532683"><ele>192.0</ele><time>2026-04-11T07:39:20.04Z</time></trkpt><trkpt lat="44.9859383" lon="9.2530517"><ele>192.0</ele><time>2026-04-11T07:39:21.039Z</time></trkpt><trkpt lat="44.9859217" lon="9.2528367"><ele>192.33333333333331</ele><time>2026-04-11T07:39:22.038Z</time></trkpt><trkpt lat="44.9858967" lon="9.2526217"><ele>192.66666666666666</ele><time>2026-04-11T07:39:23.042Z</time></trkpt><trkpt lat="44.9858567" lon="9.252415"><ele>193.0</ele><time>2026-04-11T07:39:24.041Z</time></trkpt><trkpt lat="44.985795" lon="9.2522217"><ele>193.0</ele><time>2026-04-11T07:39:25.036Z</time></trkpt><trkpt lat="44.985715" lon="9.2520417"><ele>193.0</ele><time>2026-04-11T07:39:26.04Z</time></trkpt><trkpt lat="44.9856217" lon="9.2518733"><ele>193.0</ele><time>2026-04-11T07:39:27.041Z</time></trkpt><trkpt lat="44.98553" lon="9.251705"><ele>193.0</ele><time>2026-04-11T07:39:28.04Z</time></trkpt><trkpt lat="44.98544" lon="9.2515317"><ele>193.0</ele><time>2026-04-11T07:39:29.039Z</time></trkpt><trkpt lat="44.98535" lon="9.251355"><ele>193.0</ele><time>2026-04-11T07:39:30.04Z</time></trkpt><trkpt lat="44.9852583" lon="9.25118"><ele>192.33333333333331</ele><time>2026-04-11T07:39:31.041Z</time></trkpt><trkpt lat="44.985165" lon="9.2510017"><ele>191.66666666666666</ele><time>2026-04-11T07:39:32.042Z</time></trkpt><trkpt lat="44.98507" lon="9.2508233"><ele>191.0</ele><time>2026-04-11T07:39:33.034Z</time></trkpt><trkpt lat="44.9849733" lon="9.2506467"><ele>192.66666666666666</ele><time>2026-04-11T07:39:34.043Z</time></trkpt><trkpt lat="44.98488" lon="9.2504717"><ele>194.33333333333331</ele><time>2026-04-11T07:39:35.039Z</time></trkpt><trkpt lat="44.984785" lon="9.2502933"><ele>196.0</ele><time>2026-04-11T07:39:36.043Z</time></trkpt><trkpt lat="44.98469" lon="9.2501183"><ele>196.0</ele><time>2026-04-11T07:39:37.039Z</time></trkpt><trkpt lat="44.984595" lon="9.2499383"><ele>196.0</ele><time>2026-04-11T07:39:38.04Z</time></trkpt><trkpt lat="44.9845017" lon="9.2497567"><ele>196.0</ele><time>2026-04-11T07:39:39.042Z</time></trkpt><trkpt lat="44.984415" lon="9.2495667"><ele>199.0</ele><time>2026-04-11T07:39:40.041Z</time></trkpt><trkpt lat="44.9843317" lon="9.2493733"><ele>202.0</ele><time>2026-04-11T07:39:41.042Z</time></trkpt><trkpt lat="44.9842533" lon="9.2491733"><ele>205.0</ele><time>2026-04-11T07:39:42.037Z</time></trkpt><trkpt lat="44.98418" lon="9.24897"><ele>201.66666666666666</ele><time>2026-04-11T07:39:43.042Z</time></trkpt><trkpt lat="44.9841" lon="9.2487767"><ele>198.33333333333331</ele><time>2026-04-11T07:39:44.036Z</time></trkpt><trkpt lat="44.98401" lon="9.248605"><ele>195.0</ele><time>2026-04-11T07:39:45.038Z</time></trkpt><trkpt lat="44.9838983" lon="9.2484533"><ele>195.0</ele><time>2026-04-11T07:39:46.033Z</time></trkpt><trkpt lat="44.983775" lon="9.2483233"><ele>195.0</ele><time>2026-04-11T07:39:47.04Z</time></trkpt><trkpt lat="44.98364" lon="9.2482067"><ele>195.0</ele><time>2026-04-11T07:39:48.038Z</time></trkpt><trkpt lat="44.9835017" lon="9.2481"><ele>195.33333333333331</ele><time>2026-04-11T07:39:49.041Z</time></trkpt><trkpt lat="44.9833633" lon="9.2479967"><ele>195.66666666666666</ele><time>2026-04-11T07:39:50.038Z</time></trkpt><trkpt lat="44.9832233" lon="9.2478917"><ele>196.0</ele><time>2026-04-11T07:39:51.035Z</time></trkpt><trkpt lat="44.9830833" lon="9.2477883"><ele>195.33333333333331</ele><time>2026-04-11T07:39:52.044Z</time></trkpt><trkpt lat="44.982945" lon="9.247685"><ele>194.66666666666669</ele><time>2026-04-11T07:39:53.042Z</time></trkpt><trkpt lat="44.9828067" lon="9.247585"><ele>194.0</ele><time>2026-04-11T07:39:54.034Z</time></trkpt><trkpt lat="44.9826667" lon="9.247485"><ele>194.0</ele><time>2026-04-11T07:39:55.039Z</time></trkpt><trkpt lat="44.9825267" lon="9.2473817"><ele>194.0</ele><time>2026-04-11T07:39:56.042Z</time></trkpt><trkpt lat="44.9823867" lon="9.2472783"><ele>194.0</ele><time>2026-04-11T07:39:57.035Z</time></trkpt><trkpt lat="44.9822483" lon="9.24718"><ele>196.75</ele><time>2026-04-11T07:39:58.041Z</time></trkpt><trkpt lat="44.9821033" lon="9.2470933"><ele>199.5</ele><time>2026-04-11T07:39:59.043Z</time></trkpt><trkpt lat="44.98196" lon="9.2470283"><ele>202.25</ele><time>2026-04-11T07:40:00.038Z</time></trkpt><trkpt lat="44.9818217" lon="9.2469867"><ele>205.0</ele><time>2026-04-11T07:40:01.038Z</time></trkpt><trkpt lat="44.98169" lon="9.246965"><ele>205.2</ele><time>2026-04-11T07:40:02.041Z</time></trkpt><trkpt lat="44.9815733" lon="9.2469617"><ele>205.4</ele><time>2026-04-11T07:40:03.041Z</time></trkpt><trkpt lat="44.98148" lon="9.2469633"><ele>205.60000000000002</ele><time>2026-04-11T07:40:04.033Z</time></trkpt><trkpt lat="44.9814083" lon="9.2469533"><ele>205.8</ele><time>2026-04-11T07:40:05.039Z</time></trkpt><trkpt lat="44.9813233" lon="9.24687"><ele>206.0</ele><time>2026-04-11T07:40:07.039Z</time></trkpt><trkpt lat="44.9813233" lon="9.2467117"><ele>206.00000000000003</ele><time>2026-04-11T07:40:09.042Z</time></trkpt><trkpt lat="44.9813517" lon="9.2466183"><ele>206.0</ele><time>2026-04-11T07:40:10.03Z</time></trkpt><trkpt lat="44.98138" lon="9.2465267"><ele>206.0</ele><time>2026-04-11T07:40:11.031Z</time></trkpt><trkpt lat="44.981415" lon="9.24644"><ele>206.0</ele><time>2026-04-11T07:40:12.032Z</time></trkpt><trkpt lat="44.9813783" lon="9.2462933"><ele>206.00000000000003</ele><time>2026-04-11T07:40:14.032Z</time></trkpt><trkpt lat="44.9813233" lon="9.24624"><ele>206.0</ele><time>2026-04-11T07:40:15.033Z</time></trkpt><trkpt lat="44.981245" lon="9.2461933"><ele>210.8</ele><time>2026-04-11T07:40:16.034Z</time></trkpt><trkpt lat="44.9811633" lon="9.246145"><ele>215.60000000000002</ele><time>2026-04-11T07:40:17.036Z</time></trkpt><trkpt lat="44.98108" lon="9.2460983"><ele>220.4</ele><time>2026-04-11T07:40:18.031Z</time></trkpt><trkpt lat="44.98102" lon="9.2460383"><ele>225.2</ele><time>2026-04-11T07:40:19.038Z</time></trkpt><trkpt lat="44.9809417" lon="9.2459233"><ele>230.0</ele><time>2026-04-11T07:40:21.033Z</time></trkpt><trkpt lat="44.9808517" lon="9.2458617"><ele>228.0</ele><time>2026-04-11T07:40:23.037Z</time></trkpt><trkpt lat="44.9807533" lon="9.2458033"><ele>226.0</ele><time>2026-04-11T07:40:25.031Z</time></trkpt><trkpt lat="44.9807567" lon="9.2456917"><ele>224.0</ele><time>2026-04-11T07:40:27.03Z</time></trkpt><trkpt lat="44.9808433" lon="9.2455567"><ele>222.0</ele><time>2026-04-11T07:40:29.03Z</time></trkpt><trkpt lat="44.980895" lon="9.2454717"><ele>220.0</ele><time>2026-04-11T07:40:30.03Z</time></trkpt><trkpt lat="44.9809583" lon="9.2453767"><ele>226.8</ele><time>2026-04-11T07:40:31.03Z</time></trkpt><trkpt lat="44.9810267" lon="9.2452983"><ele>233.6</ele><time>2026-04-11T07:40:32.029Z</time></trkpt><trkpt lat="44.98112" lon="9.2452433"><ele>240.39999999999998</ele><time>2026-04-11T07:40:33.03Z</time></trkpt><trkpt lat="44.9812317" lon="9.2451717"><ele>247.2</ele><time>2026-04-11T07:40:34.029Z</time></trkpt><trkpt lat="44.9813383" lon="9.2450933"><ele>254.0</ele><time>2026-04-11T07:40:35.029Z</time></trkpt><trkpt lat="44.981455" lon="9.24502"><ele>254.0</ele><time>2026-04-11T07:40:36.03Z</time></trkpt><trkpt lat="44.9815567" lon="9.24495"><ele>253.99999999999997</ele><time>2026-04-11T07:40:37.029Z</time></trkpt><trkpt lat="44.9816583" lon="9.24488"><ele>253.99999999999997</ele><time>2026-04-11T07:40:38.032Z</time></trkpt><trkpt lat="44.98176" lon="9.24481"><ele>254.0</ele><time>2026-04-11T07:40:39.03Z</time></trkpt><trkpt lat="44.9818483" lon="9.2447533"><ele>254.0</ele><time>2026-04-11T07:40:40.031Z</time></trkpt><trkpt lat="44.9819183" lon="9.244675"><ele>255.85714285714286</ele><time>2026-04-11T07:40:41.03Z</time></trkpt><trkpt lat="44.9819567" lon="9.2446017"><ele>257.7142857142857</ele><time>2026-04-11T07:40:42.031Z</time></trkpt><trkpt lat="44.9819817" lon="9.2445167"><ele>259.57142857142856</ele><time>2026-04-11T07:40:43.035Z</time></trkpt><trkpt lat="44.981975" lon="9.2444183"><ele>261.42857142857144</ele><time>2026-04-11T07:40:44.034Z</time></trkpt><trkpt lat="44.98196" lon="9.2443133"><ele>263.2857142857143</ele><time>2026-04-11T07:40:45.034Z</time></trkpt><trkpt lat="44.9819333" lon="9.244205"><ele>265.14285714285717</ele><time>2026-04-11T07:40:46.032Z</time></trkpt><trkpt lat="44.9818967" lon="9.2440883"><ele>267.0</ele><time>2026-04-11T07:40:47.031Z</time></trkpt><trkpt lat="44.981845" lon="9.2439717"><ele>268.2</ele><time>2026-04-11T07:40:48.03Z</time></trkpt><trkpt lat="44.9817917" lon="9.24385"><ele>269.4</ele><time>2026-04-11T07:40:49.031Z</time></trkpt><trkpt lat="44.9817433" lon="9.24372"><ele>270.6</ele><time>2026-04-11T07:40:50.03Z</time></trkpt><trkpt lat="44.9816917" lon="9.243575"><ele>271.8</ele><time>2026-04-11T07:40:51.036Z</time></trkpt><trkpt lat="44.981645" lon="9.24342"><ele>273.0</ele><time>2026-04-11T07:40:52.031Z</time></trkpt><trkpt lat="44.9816133" lon="9.243255"><ele>278.0</ele><time>2026-04-11T07:40:53.032Z</time></trkpt><trkpt lat="44.981595" lon="9.2430883"><ele>283.0</ele><time>2026-04-11T07:40:54.042Z</time></trkpt><trkpt lat="44.9815717" lon="9.2429167"><ele>288.0</ele><time>2026-04-11T07:40:55.042Z</time></trkpt><trkpt lat="44.98156" lon="9.242755"><ele>293.0</ele><time>2026-04-11T07:40:56.038Z</time></trkpt><trkpt lat="44.98154" lon="9.2426233"><ele>293.0</ele><time>2026-04-11T07:40:57.032Z</time></trkpt><trkpt lat="44.9814967" lon="9.2425117"><ele>293.0</ele><time>2026-04-11T07:40:58.031Z</time></trkpt><trkpt lat="44.9814533" lon="9.24241"><ele>293.0</ele><time>2026-04-11T07:40:59.032Z</time></trkpt><trkpt lat="44.9814067" lon="9.242305"><ele>293.0</ele><time>2026-04-11T07:41:00.033Z</time></trkpt><trkpt lat="44.9813633" lon="9.242195"><ele>293.0</ele><time>2026-04-11T07:41:01.03Z</time></trkpt><trkpt lat="44.9813283" lon="9.242075"><ele>293.0</ele><time>2026-04-11T07:41:02.029Z</time></trkpt><trkpt lat="44.98129" lon="9.241935"><ele>293.5</ele><time>2026-04-11T07:41:03.034Z</time></trkpt><trkpt lat="44.9812483" lon="9.241775"><ele>294.0</ele><time>2026-04-11T07:41:04.03Z</time></trkpt><trkpt lat="44.981205" lon="9.2415983"><ele>294.5</ele><time>2026-04-11T07:41:05.029Z</time></trkpt><trkpt lat="44.98116" lon="9.24142"><ele>295.0</ele><time>2026-04-11T07:41:06.034Z</time></trkpt><trkpt lat="44.9811083" lon="9.24123"><ele>293.0</ele><time>2026-04-11T07:41:07.034Z</time></trkpt><trkpt lat="44.9810533" lon="9.241045"><ele>291.0</ele><time>2026-04-11T07:41:08.03Z</time></trkpt><trkpt lat="44.9809883" lon="9.2408617"><ele>289.0</ele><time>2026-04-11T07:41:09.032Z</time></trkpt><trkpt lat="44.9809267" lon="9.2406783"><ele>287.0</ele><time>2026-04-11T07:41:10.03Z</time></trkpt><trkpt lat="44.9808583" lon="9.2404967"><ele>292.0</ele><time>2026-04-11T07:41:11.029Z</time></trkpt><trkpt lat="44.98077" lon="9.2403367"><ele>297.0</ele><time>2026-04-11T07:41:12.031Z</time></trkpt><trkpt lat="44.9806667" lon="9.2401833"><ele>302.0</ele><time>2026-04-11T07:41:13.032Z</time></trkpt><trkpt lat="44.9805683" lon="9.2400333"><ele>307.0</ele><time>2026-04-11T07:41:14.03Z</time></trkpt><trkpt lat="44.9804717" lon="9.2398833"><ele>307.5</ele><time>2026-04-11T07:41:15.034Z</time></trkpt><trkpt lat="44.9803633" lon="9.2397433"><ele>308.0</ele><time>2026-04-11T07:41:16.038Z</time></trkpt><trkpt lat="44.9802483" lon="9.2396217"><ele>308.5</ele><time>2026-04-11T07:41:17.037Z</time></trkpt><trkpt lat="44.9801333" lon="9.2395033"><ele>309.0</ele><time>2026-04-11T07:41:18.033Z</time></trkpt><trkpt lat="44.9800283" lon="9.2393783"><ele>315.5</ele><time>2026-04-11T07:41:19.038Z</time></trkpt><trkpt lat="44.9799333" lon="9.2392333"><ele>322.0</ele><time>2026-04-11T07:41:20.032Z</time></trkpt><trkpt lat="44.979845" lon="9.2390733"><ele>328.5</ele><time>2026-04-11T07:41:21.04Z</time></trkpt><trkpt lat="44.9797667" lon="9.238905"><ele>335.0</ele><time>2026-04-11T07:41:22.04Z</time></trkpt><trkpt lat="44.979685" lon="9.238735"><ele>335.25</ele><time>2026-04-11T07:41:23.041Z</time></trkpt><trkpt lat="44.979605" lon="9.2385617"><ele>335.5</ele><time>2026-04-11T07:41:24.038Z</time></trkpt><trkpt lat="44.979545" lon="9.2383867"><ele>335.75</ele><time>2026-04-11T07:41:25.031Z</time></trkpt><trkpt lat="44.9795" lon="9.23824"><ele>336.0</ele><time>2026-04-11T07:41:26.03Z</time></trkpt><trkpt lat="44.9794583" lon="9.2380917"><ele>336.0</ele><time>2026-04-11T07:41:27.032Z</time></trkpt><trkpt lat="44.9794017" lon="9.237945"><ele>336.0</ele><time>2026-04-11T07:41:28.031Z</time></trkpt><trkpt lat="44.9793267" lon="9.2378133"><ele>336.0</ele><time>2026-04-11T07:41:29.03Z</time></trkpt><trkpt lat="44.979215" lon="9.237685"><ele>336.0</ele><time>2026-04-11T07:41:30.03Z</time></trkpt><trkpt lat="44.979095" lon="9.23756"><ele>336.25</ele><time>2026-04-11T07:41:31.03Z</time></trkpt><trkpt lat="44.97898" lon="9.2374383"><ele>336.5</ele><time>2026-04-11T07:41:32.038Z</time></trkpt><trkpt lat="44.9788633" lon="9.2373183"><ele>336.75</ele><time>2026-04-11T07:41:33.041Z</time></trkpt><trkpt lat="44.9787533" lon="9.2371933"><ele>337.0</ele><time>2026-04-11T07:41:34.043Z</time></trkpt><trkpt lat="44.97866" lon="9.2370617"><ele>337.0</ele><time>2026-04-11T07:41:35.041Z</time></trkpt><trkpt lat="44.978595" lon="9.2369267"><ele>337.0</ele><time>2026-04-11T07:41:36.041Z</time></trkpt><trkpt lat="44.978545" lon="9.2367967"><ele>337.0</ele><time>2026-04-11T07:41:37.038Z</time></trkpt><trkpt lat="44.9784833" lon="9.23666"><ele>337.0</ele><time>2026-04-11T07:41:38.039Z</time></trkpt><trkpt lat="44.9784" lon="9.2365367"><ele>339.75</ele><time>2026-04-11T07:41:39.038Z</time></trkpt><trkpt lat="44.9783" lon="9.2364233"><ele>342.5</ele><time>2026-04-11T07:41:40.041Z</time></trkpt><trkpt lat="44.9781783" lon="9.2363233"><ele>345.25</ele><time>2026-04-11T07:41:41.042Z</time></trkpt><trkpt lat="44.9780533" lon="9.2362333"><ele>348.0</ele><time>2026-04-11T07:41:42.038Z</time></trkpt><trkpt lat="44.9779267" lon="9.2361483"><ele>348.0</ele><time>2026-04-11T07:41:43.037Z</time></trkpt><trkpt lat="44.9778033" lon="9.2360583"><ele>348.0</ele><time>2026-04-11T07:41:44.035Z</time></trkpt><trkpt lat="44.977685" lon="9.2359667"><ele>348.0</ele><time>2026-04-11T07:41:45.04Z</time></trkpt><trkpt lat="44.9775683" lon="9.2358633"><ele>348.0</ele><time>2026-04-11T07:41:46.039Z</time></trkpt><trkpt lat="44.9774517" lon="9.2357467"><ele>347.25</ele><time>2026-04-11T07:41:47.041Z</time></trkpt><trkpt lat="44.977335" lon="9.2356183"><ele>346.5</ele><time>2026-04-11T07:41:48.042Z</time></trkpt><trkpt lat="44.9772233" lon="9.235485"><ele>345.75</ele><time>2026-04-11T07:41:49.041Z</time></trkpt><trkpt lat="44.9771167" lon="9.2353483"><ele>345.0</ele><time>2026-04-11T07:41:50.041Z</time></trkpt><trkpt lat="44.9770117" lon="9.2352033"><ele>345.0</ele><time>2026-04-11T07:41:51.045Z</time></trkpt><trkpt lat="44.97691" lon="9.2350483"><ele>345.0</ele><time>2026-04-11T07:41:52.04Z</time></trkpt><trkpt lat="44.9768117" lon="9.2348833"><ele>345.0</ele><time>2026-04-11T07:41:53.039Z</time></trkpt><trkpt lat="44.9767183" lon="9.23472"><ele>346.5</ele><time>2026-04-11T07:41:54.039Z</time></trkpt><trkpt lat="44.9766283" lon="9.23455"><ele>348.0</ele><time>2026-04-11T07:41:55.033Z</time></trkpt><trkpt lat="44.9765383" lon="9.2343833"><ele>349.5</ele><time>2026-04-11T07:41:56.038Z</time></trkpt><trkpt lat="44.9764467" lon="9.2342167"><ele>351.0</ele><time>2026-04-11T07:41:57.04Z</time></trkpt><trkpt lat="44.976355" lon="9.2340533"><ele>349.5</ele><time>2026-04-11T07:41:58.037Z</time></trkpt><trkpt lat="44.97626" lon="9.233895"><ele>348.0</ele><time>2026-04-11T07:41:59.032Z</time></trkpt><trkpt lat="44.9761583" lon="9.2337533"><ele>346.5</ele><time>2026-04-11T07:42:00.045Z</time></trkpt><trkpt lat="44.976045" lon="9.2336467"><ele>345.0</ele><time>2026-04-11T07:42:01.041Z</time></trkpt><trkpt lat="44.9759267" lon="9.23358"><ele>348.5</ele><time>2026-04-11T07:42:02.039Z</time></trkpt><trkpt lat="44.9758133" lon="9.2335217"><ele>352.0</ele><time>2026-04-11T07:42:03.042Z</time></trkpt><trkpt lat="44.97571" lon="9.2334417"><ele>355.5</ele><time>2026-04-11T07:42:04.037Z</time></trkpt><trkpt lat="44.9756267" lon="9.233325"><ele>359.0</ele><time>2026-04-11T07:42:05.038Z</time></trkpt><trkpt lat="44.97555" lon="9.23319"><ele>358.5</ele><time>2026-04-11T07:42:06.038Z</time></trkpt><trkpt lat="44.9754683" lon="9.2330617"><ele>358.0</ele><time>2026-04-11T07:42:07.039Z</time></trkpt><trkpt lat="44.9753733" lon="9.232945"><ele>357.5</ele><time>2026-04-11T07:42:08.04Z</time></trkpt><trkpt lat="44.9752783" lon="9.23282"><ele>357.0</ele><time>2026-04-11T07:42:09.04Z</time></trkpt><trkpt lat="44.9751783" lon="9.232685"><ele>357.0</ele><time>2026-04-11T07:42:10.04Z</time></trkpt><trkpt lat="44.975075" lon="9.2325533"><ele>357.0</ele><time>2026-04-11T07:42:11.034Z</time></trkpt><trkpt lat="44.974965" lon="9.2324483"><ele>357.0</ele><time>2026-04-11T07:42:12.038Z</time></trkpt><trkpt lat="44.9748517" lon="9.2323867"><ele>357.0</ele><time>2026-04-11T07:42:13.036Z</time></trkpt><trkpt lat="44.974735" lon="9.23235"><ele>361.0</ele><time>2026-04-11T07:42:14.04Z</time></trkpt><trkpt lat="44.97462" lon="9.2323167"><ele>365.0</ele><time>2026-04-11T07:42:15.04Z</time></trkpt><trkpt lat="44.9745117" lon="9.2322617"><ele>369.0</ele><time>2026-04-11T07:42:16.042Z</time></trkpt><trkpt lat="44.9744083" lon="9.2321833"><ele>373.0</ele><time>2026-04-11T07:42:17.041Z</time></trkpt><trkpt lat="44.9743183" lon="9.2320683"><ele>373.75</ele><time>2026-04-11T07:42:18.043Z</time></trkpt><trkpt lat="44.9742433" lon="9.23193"><ele>374.5</ele><time>2026-04-11T07:42:19.043Z</time></trkpt><trkpt lat="44.9741733" lon="9.2317783"><ele>375.25</ele><time>2026-04-11T07:42:20.041Z</time></trkpt><trkpt lat="44.974105" lon="9.2316283"><ele>376.0</ele><time>2026-04-11T07:42:21.043Z</time></trkpt><trkpt lat="44.9740383" lon="9.2314767"><ele>379.4</ele><time>2026-04-11T07:42:22.042Z</time></trkpt><trkpt lat="44.97398" lon="9.231345"><ele>382.8</ele><time>2026-04-11T07:42:23.031Z</time></trkpt><trkpt lat="44.97393" lon="9.2312167"><ele>386.2</ele><time>2026-04-11T07:42:24.039Z</time></trkpt><trkpt lat="44.97388" lon="9.2311"><ele>389.59999999999997</ele><time>2026-04-11T07:42:25.04Z</time></trkpt><trkpt lat="44.97382" lon="9.2309967"><ele>393.0</ele><time>2026-04-11T07:42:26.04Z</time></trkpt><trkpt lat="44.973745" lon="9.2309033"><ele>393.0</ele><time>2026-04-11T07:42:27.042Z</time></trkpt><trkpt lat="44.9736633" lon="9.230805"><ele>393.0</ele><time>2026-04-11T07:42:28.042Z</time></trkpt><trkpt lat="44.9735717" lon="9.230705"><ele>393.0</ele><time>2026-04-11T07:42:29.04Z</time></trkpt><trkpt lat="44.97348" lon="9.2306183"><ele>393.0</ele><time>2026-04-11T07:42:30.042Z</time></trkpt><trkpt lat="44.9734" lon="9.2305333"><ele>393.0</ele><time>2026-04-11T07:42:31.045Z</time></trkpt><trkpt lat="44.9733333" lon="9.2304383"><ele>395.0</ele><time>2026-04-11T07:42:32.042Z</time></trkpt><trkpt lat="44.9732883" lon="9.230325"><ele>397.0</ele><time>2026-04-11T07:42:33.04Z</time></trkpt><trkpt lat="44.9732583" lon="9.2301883"><ele>399.0</ele><time>2026-04-11T07:42:34.038Z</time></trkpt><trkpt lat="44.9732367" lon="9.2300317"><ele>401.0</ele><time>2026-04-11T07:42:35.038Z</time></trkpt><trkpt lat="44.9732117" lon="9.2298583"><ele>403.0</ele><time>2026-04-11T07:42:36.042Z</time></trkpt><trkpt lat="44.9731783" lon="9.229685"><ele>403.0</ele><time>2026-04-11T07:42:37.04Z</time></trkpt><trkpt lat="44.9731317" lon="9.2295133"><ele>403.0</ele><time>2026-04-11T07:42:38.041Z</time></trkpt><trkpt lat="44.97309" lon="9.2293467"><ele>403.0</ele><time>2026-04-11T07:42:39.039Z</time></trkpt><trkpt lat="44.97305" lon="9.2291783"><ele>403.0</ele><time>2026-04-11T07:42:40.042Z</time></trkpt><trkpt lat="44.9730083" lon="9.229015"><ele>402.79999999999995</ele><time>2026-04-11T07:42:41.037Z</time></trkpt><trkpt lat="44.9729583" lon="9.22887"><ele>402.6</ele><time>2026-04-11T07:42:42.04Z</time></trkpt><trkpt lat="44.9728933" lon="9.2287417"><ele>402.4</ele><time>2026-04-11T07:42:43.042Z</time></trkpt><trkpt lat="44.9728183" lon="9.228635"><ele>402.20000000000005</ele><time>2026-04-11T07:42:44.039Z</time></trkpt><trkpt lat="44.972735" lon="9.228545"><ele>402.0</ele><time>2026-04-11T07:42:45.039Z</time></trkpt><trkpt lat="44.9726517" lon="9.228465"><ele>402.0</ele><time>2026-04-11T07:42:46.041Z</time></trkpt><trkpt lat="44.97257" lon="9.2284"><ele>402.0</ele><time>2026-04-11T07:42:47.033Z</time></trkpt><trkpt lat="44.972495" lon="9.22835"><ele>402.0</ele><time>2026-04-11T07:42:48.038Z</time></trkpt><trkpt lat="44.97243" lon="9.2283"><ele>402.0</ele><time>2026-04-11T07:42:49.04Z</time></trkpt><trkpt lat="44.9723767" lon="9.22825"><ele>402.0</ele><time>2026-04-11T07:42:50.04Z</time></trkpt><trkpt lat="44.9723217" lon="9.228155"><ele>402.0</ele><time>2026-04-11T07:42:52.04Z</time></trkpt><trkpt lat="44.97234" lon="9.2280117"><ele>405.8</ele><time>2026-04-11T07:42:54.039Z</time></trkpt><trkpt lat="44.9723967" lon="9.2278533"><ele>409.6</ele><time>2026-04-11T07:42:56.039Z</time></trkpt><trkpt lat="44.97242" lon="9.2276983"><ele>413.40000000000003</ele><time>2026-04-11T07:42:58.033Z</time></trkpt><trkpt lat="44.9723417" lon="9.2276"><ele>417.20000000000005</ele><time>2026-04-11T07:43:00.039Z</time></trkpt><trkpt lat="44.9722733" lon="9.2275567"><ele>421.0</ele><time>2026-04-11T07:43:01.038Z</time></trkpt><trkpt lat="44.97219" lon="9.2275117"><ele>421.0</ele><time>2026-04-11T07:43:02.038Z</time></trkpt><trkpt lat="44.97209" lon="9.2274767"><ele>421.0</ele><time>2026-04-11T07:43:03.039Z</time></trkpt><trkpt lat="44.9719883" lon="9.2274483"><ele>421.0</ele><time>2026-04-11T07:43:04.041Z</time></trkpt><trkpt lat="44.9718767" lon="9.22745"><ele>421.0</ele><time>2026-04-11T07:43:05.042Z</time></trkpt><trkpt lat="44.9717783" lon="9.2274667"><ele>421.0</ele><time>2026-04-11T07:43:06.038Z</time></trkpt><trkpt lat="44.9716883" lon="9.227505"><ele>422.20000000000005</ele><time>2026-04-11T07:43:07.039Z</time></trkpt><trkpt lat="44.9716033" lon="9.2275667"><ele>423.40000000000003</ele><time>2026-04-11T07:43:08.037Z</time></trkpt><trkpt lat="44.971525" lon="9.2276383"><ele>424.6</ele><time>2026-04-11T07:43:09.038Z</time></trkpt><trkpt lat="44.9714417" lon="9.227715"><ele>425.8</ele><time>2026-04-11T07:43:10.039Z</time></trkpt><trkpt lat="44.9713617" lon="9.2278033"><ele>427.0</ele><time>2026-04-11T07:43:11.04Z</time></trkpt><trkpt lat="44.97128" lon="9.22791"><ele>427.0</ele><time>2026-04-11T07:43:12.037Z</time></trkpt><trkpt lat="44.9712067" lon="9.228015"><ele>427.00000000000006</ele><time>2026-04-11T07:43:13.038Z</time></trkpt><trkpt lat="44.9711467" lon="9.2280883"><ele>427.00000000000006</ele><time>2026-04-11T07:43:14.038Z</time></trkpt><trkpt lat="44.9711017" lon="9.2281533"><ele>427.0</ele><time>2026-04-11T07:43:15.039Z</time></trkpt><trkpt lat="44.9710217" lon="9.2282733"><ele>427.0</ele><time>2026-04-11T07:43:17.039Z</time></trkpt><trkpt lat="44.97092" lon="9.2283017"><ele>427.42857142857144</ele><time>2026-04-11T07:43:19.04Z</time></trkpt><trkpt lat="44.9708533" lon="9.22828"><ele>427.8571428571429</ele><time>2026-04-11T07:43:20.039Z</time></trkpt><trkpt lat="44.97079" lon="9.2282617"><ele>428.2857142857143</ele><time>2026-04-11T07:43:21.032Z</time></trkpt><trkpt lat="44.970725" lon="9.2282367"><ele>428.7142857142857</ele><time>2026-04-11T07:43:22.041Z</time></trkpt><trkpt lat="44.9706583" lon="9.2282017"><ele>429.14285714285717</ele><time>2026-04-11T07:43:23.039Z</time></trkpt><trkpt lat="44.9705817" lon="9.22816"><ele>429.57142857142856</ele><time>2026-04-11T07:43:24.039Z</time></trkpt><trkpt lat="44.9705017" lon="9.228115"><ele>430.0</ele><time>2026-04-11T07:43:25.038Z</time></trkpt><trkpt lat="44.9704267" lon="9.2280717"><ele>430.00000000000006</ele><time>2026-04-11T07:43:26.042Z</time></trkpt><trkpt lat="44.97035" lon="9.2280267"><ele>430.0</ele><time>2026-04-11T07:43:27.039Z</time></trkpt><trkpt lat="44.9702683" lon="9.22799"><ele>430.0</ele><time>2026-04-11T07:43:28.038Z</time></trkpt><trkpt lat="44.9701833" lon="9.2279683"><ele>430.0</ele><time>2026-04-11T07:43:29.043Z</time></trkpt><trkpt lat="44.9700967" lon="9.2279483"><ele>430.00000000000006</ele><time>2026-04-11T07:43:30.038Z</time></trkpt><trkpt lat="44.9700017" lon="9.2279267"><ele>430.0</ele><time>2026-04-11T07:43:31.035Z</time></trkpt><trkpt lat="44.969905" lon="9.2278933"><ele>430.00000000000006</ele><time>2026-04-11T07:43:32.042Z</time></trkpt><trkpt lat="44.969815" lon="9.2278533"><ele>430.0</ele><time>2026-04-11T07:43:33.038Z</time></trkpt><trkpt lat="44.9697383" lon="9.2278233"><ele>430.0</ele><time>2026-04-11T07:43:34.037Z</time></trkpt><trkpt lat="44.9696683" lon="9.227815"><ele>430.0</ele><time>2026-04-11T07:43:35.038Z</time></trkpt><trkpt lat="44.9696" lon="9.2278517"><ele>430.00000000000006</ele><time>2026-04-11T07:43:36.035Z</time></trkpt><trkpt lat="44.969525" lon="9.2279117"><ele>430.0</ele><time>2026-04-11T07:43:37.041Z</time></trkpt><trkpt lat="44.969425" lon="9.2279917"><ele>430.0</ele><time>2026-04-11T07:43:38.035Z</time></trkpt><trkpt lat="44.9693033" lon="9.2280583"><ele>430.0</ele><time>2026-04-11T07:43:39.041Z</time></trkpt><trkpt lat="44.9691717" lon="9.2281267"><ele>430.0</ele><time>2026-04-11T07:43:40.033Z</time></trkpt><trkpt lat="44.9690317" lon="9.2282017"><ele>430.0</ele><time>2026-04-11T07:43:41.038Z</time></trkpt><trkpt lat="44.9688917" lon="9.228275"><ele>427.75</ele><time>2026-04-11T07:43:42.039Z</time></trkpt><trkpt lat="44.96875" lon="9.2283483"><ele>425.5</ele><time>2026-04-11T07:43:43.038Z</time></trkpt><trkpt lat="44.96861" lon="9.2284183"><ele>423.25</ele><time>2026-04-11T07:43:44.042Z</time></trkpt><trkpt lat="44.96848" lon="9.22848"><ele>421.0</ele><time>2026-04-11T07:43:45.038Z</time></trkpt><trkpt lat="44.968355" lon="9.228535"><ele>420.75</ele><time>2026-04-11T07:43:46.041Z</time></trkpt><trkpt lat="44.9682317" lon="9.22859"><ele>420.5</ele><time>2026-04-11T07:43:47.042Z</time></trkpt><trkpt lat="44.9681233" lon="9.2286333"><ele>420.25</ele><time>2026-04-11T07:43:48.039Z</time></trkpt><trkpt lat="44.9680183" lon="9.2286783"><ele>420.0</ele><time>2026-04-11T07:43:49.038Z</time></trkpt><trkpt lat="44.9679083" lon="9.2287283"><ele>420.0</ele><time>2026-04-11T07:43:50.038Z</time></trkpt><trkpt lat="44.967795" lon="9.22878"><ele>420.0</ele><time>2026-04-11T07:43:51.044Z</time></trkpt><trkpt lat="44.9676767" lon="9.228825"><ele>420.0</ele><time>2026-04-11T07:43:52.04Z</time></trkpt><trkpt lat="44.96756" lon="9.2288667"><ele>420.0</ele><time>2026-04-11T07:43:53.042Z</time></trkpt><trkpt lat="44.9674483" lon="9.2289017"><ele>420.75</ele><time>2026-04-11T07:43:54.038Z</time></trkpt><trkpt lat="44.967335" lon="9.2289267"><ele>421.5</ele><time>2026-04-11T07:43:55.038Z</time></trkpt><trkpt lat="44.96721" lon="9.228945"><ele>422.25</ele><time>2026-04-11T07:43:56.042Z</time></trkpt><trkpt lat="44.9670717" lon="9.2289733"><ele>423.0</ele><time>2026-04-11T07:43:57.043Z</time></trkpt><trkpt lat="44.96693" lon="9.2290133"><ele>423.5</ele><time>2026-04-11T07:43:58.042Z</time></trkpt><trkpt lat="44.9667917" lon="9.22906"><ele>424.0</ele><time>2026-04-11T07:43:59.042Z</time></trkpt><trkpt lat="44.96665" lon="9.2291167"><ele>424.5</ele><time>2026-04-11T07:44:00.044Z</time></trkpt><trkpt lat="44.9665017" lon="9.2291833"><ele>425.0</ele><time>2026-04-11T07:44:01.033Z</time></trkpt><trkpt lat="44.96635" lon="9.22925"><ele>427.3333333333333</ele><time>2026-04-11T07:44:02.041Z</time></trkpt><trkpt lat="44.9661933" lon="9.2293017"><ele>429.66666666666663</ele><time>2026-04-11T07:44:03.043Z</time></trkpt><trkpt lat="44.966035" lon="9.229335"><ele>432.0</ele><time>2026-04-11T07:44:04.041Z</time></trkpt><trkpt lat="44.965875" lon="9.2293683"><ele>433.66666666666663</ele><time>2026-04-11T07:44:05.041Z</time></trkpt><trkpt lat="44.9657183" lon="9.2294183"><ele>435.3333333333333</ele><time>2026-04-11T07:44:06.041Z</time></trkpt><trkpt lat="44.9655583" lon="9.2294833"><ele>437.0</ele><time>2026-04-11T07:44:07.043Z</time></trkpt><trkpt lat="44.965405" lon="9.229555"><ele>437.0</ele><time>2026-04-11T07:44:08.044Z</time></trkpt><trkpt lat="44.9652617" lon="9.2296283"><ele>437.0</ele><time>2026-04-11T07:44:09.042Z</time></trkpt><trkpt lat="44.96513" lon="9.229695"><ele>437.0</ele><time>2026-04-11T07:44:10.037Z</time></trkpt><trkpt lat="44.9650083" lon="9.22975"><ele>437.0</ele><time>2026-04-11T07:44:11.038Z</time></trkpt><trkpt lat="44.9648883" lon="9.2297933"><ele>439.25</ele><time>2026-04-11T07:44:12.041Z</time></trkpt><trkpt lat="44.9647683" lon="9.2298183"><ele>441.5</ele><time>2026-04-11T07:44:13.043Z</time></trkpt><trkpt lat="44.9646483" lon="9.2298233"><ele>443.75</ele><time>2026-04-11T07:44:14.041Z</time></trkpt><trkpt lat="44.9645367" lon="9.2298283"><ele>446.0</ele><time>2026-04-11T07:44:15.044Z</time></trkpt><trkpt lat="44.9644333" lon="9.22985"><ele>446.0</ele><time>2026-04-11T07:44:16.038Z</time></trkpt><trkpt lat="44.9643333" lon="9.2298933"><ele>446.0</ele><time>2026-04-11T07:44:17.04Z</time></trkpt><trkpt lat="44.9642383" lon="9.22995"><ele>446.0</ele><time>2026-04-11T07:44:18.039Z</time></trkpt><trkpt lat="44.9641367" lon="9.2300367"><ele>446.0</ele><time>2026-04-11T07:44:19.043Z</time></trkpt><trkpt lat="44.96403" lon="9.2301467"><ele>446.0</ele><time>2026-04-11T07:44:20.042Z</time></trkpt><trkpt lat="44.963915" lon="9.23027"><ele>446.0</ele><time>2026-04-11T07:44:21.043Z</time></trkpt><trkpt lat="44.9638" lon="9.2303817"><ele>446.0</ele><time>2026-04-11T07:44:22.039Z</time></trkpt><trkpt lat="44.96369" lon="9.230475"><ele>446.0</ele><time>2026-04-11T07:44:23.04Z</time></trkpt><trkpt lat="44.96359" lon="9.23055"><ele>445.99999999999994</ele><time>2026-04-11T07:44:24.039Z</time></trkpt><trkpt lat="44.9635033" lon="9.2306067"><ele>446.0</ele><time>2026-04-11T07:44:25.04Z</time></trkpt><trkpt lat="44.9634283" lon="9.2306467"><ele>446.0</ele><time>2026-04-11T07:44:26.041Z</time></trkpt><trkpt lat="44.9633617" lon="9.230675"><ele>446.0</ele><time>2026-04-11T07:44:27.04Z</time></trkpt><trkpt lat="44.9632983" lon="9.2306833"><ele>445.99999999999994</ele><time>2026-04-11T07:44:28.042Z</time></trkpt><trkpt lat="44.9632333" lon="9.2306567"><ele>446.0</ele><time>2026-04-11T07:44:29.032Z</time></trkpt><trkpt lat="44.9631633" lon="9.2305933"><ele>445.0</ele><time>2026-04-11T07:44:30.036Z</time></trkpt><trkpt lat="44.963075" lon="9.2305133"><ele>444.0</ele><time>2026-04-11T07:44:31.04Z</time></trkpt><trkpt lat="44.9629617" lon="9.2304217"><ele>443.0</ele><time>2026-04-11T07:44:32.038Z</time></trkpt><trkpt lat="44.9628383" lon="9.2303383"><ele>442.0</ele><time>2026-04-11T07:44:33.043Z</time></trkpt><trkpt lat="44.9627133" lon="9.2302717"><ele>442.0</ele><time>2026-04-11T07:44:34.041Z</time></trkpt><trkpt lat="44.96259" lon="9.2302033"><ele>442.0</ele><time>2026-04-11T07:44:35.038Z</time></trkpt><trkpt lat="44.9624767" lon="9.23012"><ele>442.0</ele><time>2026-04-11T07:44:36.039Z</time></trkpt><trkpt lat="44.962375" lon="9.23003"><ele>442.0</ele><time>2026-04-11T07:44:37.036Z</time></trkpt><trkpt lat="44.96228" lon="9.2299317"><ele>441.0</ele><time>2026-04-11T07:44:38.039Z</time></trkpt><trkpt lat="44.9621867" lon="9.229825"><ele>440.0</ele><time>2026-04-11T07:44:39.042Z</time></trkpt><trkpt lat="44.9620883" lon="9.2297267"><ele>439.0</ele><time>2026-04-11T07:44:40.037Z</time></trkpt><trkpt lat="44.9619883" lon="9.22965"><ele>438.0</ele><time>2026-04-11T07:44:41.042Z</time></trkpt><trkpt lat="44.9618883" lon="9.22958"><ele>436.0</ele><time>2026-04-11T07:44:42.035Z</time></trkpt><trkpt lat="44.9617883" lon="9.2295233"><ele>433.99999999999994</ele><time>2026-04-11T07:44:43.037Z</time></trkpt><trkpt lat="44.96169" lon="9.229475"><ele>431.99999999999994</ele><time>2026-04-11T07:44:44.037Z</time></trkpt><trkpt lat="44.9615967" lon="9.2294333"><ele>430.0</ele><time>2026-04-11T07:44:45.039Z</time></trkpt><trkpt lat="44.9615017" lon="9.2293917"><ele>428.0</ele><time>2026-04-11T07:44:46.042Z</time></trkpt><trkpt lat="44.9614117" lon="9.2293483"><ele>427.99999999999994</ele><time>2026-04-11T07:44:47.041Z</time></trkpt><trkpt lat="44.9613333" lon="9.22931"><ele>428.0</ele><time>2026-04-11T07:44:48.039Z</time></trkpt><trkpt lat="44.9612617" lon="9.2292683"><ele>428.0</ele><time>2026-04-11T07:44:49.038Z</time></trkpt><trkpt lat="44.9611867" lon="9.22921"><ele>428.0</ele><time>2026-04-11T07:44:50.04Z</time></trkpt><trkpt lat="44.9611183" lon="9.229135"><ele>427.99999999999994</ele><time>2026-04-11T07:44:51.037Z</time></trkpt><trkpt lat="44.961055" lon="9.22905"><ele>428.0</ele><time>2026-04-11T07:44:52.039Z</time></trkpt><trkpt lat="44.9609967" lon="9.22896"><ele>425.4</ele><time>2026-04-11T07:44:53.041Z</time></trkpt><trkpt lat="44.9609383" lon="9.2288633"><ele>422.79999999999995</ele><time>2026-04-11T07:44:54.042Z</time></trkpt><trkpt lat="44.96088" lon="9.2287617"><ele>420.2</ele><time>2026-04-11T07:44:55.037Z</time></trkpt><trkpt lat="44.96082" lon="9.2286567"><ele>417.6</ele><time>2026-04-11T07:44:56.039Z</time></trkpt><trkpt lat="44.960765" lon="9.228555"><ele>415.0</ele><time>2026-04-11T07:44:57.04Z</time></trkpt><trkpt lat="44.9607133" lon="9.2284583"><ele>414.33333333333337</ele><time>2026-04-11T07:44:58.038Z</time></trkpt><trkpt lat="44.96066" lon="9.228365"><ele>413.6666666666667</ele><time>2026-04-11T07:44:59.038Z</time></trkpt><trkpt lat="44.9605933" lon="9.2282867"><ele>413.0</ele><time>2026-04-11T07:45:00.038Z</time></trkpt><trkpt lat="44.960525" lon="9.2282083"><ele>412.33333333333337</ele><time>2026-04-11T07:45:01.038Z</time></trkpt><trkpt lat="44.9604567" lon="9.2281383"><ele>411.6666666666667</ele><time>2026-04-11T07:45:02.039Z</time></trkpt><trkpt lat="44.960385" lon="9.228095"><ele>411.0</ele><time>2026-04-11T07:45:03.038Z</time></trkpt><trkpt lat="44.9603033" lon="9.22807"><ele>408.8</ele><time>2026-04-11T07:45:04.034Z</time></trkpt><trkpt lat="44.9602117" lon="9.22805"><ele>406.6</ele><time>2026-04-11T07:45:05.039Z</time></trkpt><trkpt lat="44.9601083" lon="9.2280333"><ele>404.4</ele><time>2026-04-11T07:45:06.037Z</time></trkpt><trkpt lat="44.9599967" lon="9.2280117"><ele>402.2</ele><time>2026-04-11T07:45:07.039Z</time></trkpt><trkpt lat="44.9598917" lon="9.2279883"><ele>400.0</ele><time>2026-04-11T07:45:08.039Z</time></trkpt><trkpt lat="44.9597917" lon="9.2279633"><ele>397.0</ele><time>2026-04-11T07:45:09.041Z</time></trkpt><trkpt lat="44.9597017" lon="9.22793"><ele>394.0</ele><time>2026-04-11T07:45:10.038Z</time></trkpt><trkpt lat="44.9596167" lon="9.227885"><ele>391.0</ele><time>2026-04-11T07:45:11.038Z</time></trkpt><trkpt lat="44.959535" lon="9.2278217"><ele>388.0</ele><time>2026-04-11T07:45:12.038Z</time></trkpt><trkpt lat="44.9594533" lon="9.227755"><ele>385.0</ele><time>2026-04-11T07:45:13.037Z</time></trkpt><trkpt lat="44.9593717" lon="9.2277083"><ele>385.00000000000006</ele><time>2026-04-11T07:45:14.038Z</time></trkpt><trkpt lat="44.959285" lon="9.2276833"><ele>385.0</ele><time>2026-04-11T07:45:15.037Z</time></trkpt><trkpt lat="44.9591967" lon="9.2276733"><ele>385.0</ele><time>2026-04-11T07:45:16.034Z</time></trkpt><trkpt lat="44.959115" lon="9.2276567"><ele>385.0</ele><time>2026-04-11T07:45:17.033Z</time></trkpt><trkpt lat="44.959035" lon="9.2276383"><ele>385.00000000000006</ele><time>2026-04-11T07:45:18.038Z</time></trkpt><trkpt lat="44.9589617" lon="9.2276233"><ele>385.0</ele><time>2026-04-11T07:45:19.032Z</time></trkpt><trkpt lat="44.95889" lon="9.2276033"><ele>380.8</ele><time>2026-04-11T07:45:21.041Z</time></trkpt><trkpt lat="44.9588117" lon="9.2276133"><ele>376.6</ele><time>2026-04-11T07:45:24.039Z</time></trkpt><trkpt lat="44.9587033" lon="9.227495"><ele>372.4</ele><time>2026-04-11T07:45:26.036Z</time></trkpt><trkpt lat="44.9586383" lon="9.2274317"><ele>368.2</ele><time>2026-04-11T07:45:27.041Z</time></trkpt><trkpt lat="44.9585617" lon="9.227365"><ele>364.0</ele><time>2026-04-11T07:45:28.043Z</time></trkpt><trkpt lat="44.958475" lon="9.2272867"><ele>361.6</ele><time>2026-04-11T07:45:29.036Z</time></trkpt><trkpt lat="44.95838" lon="9.2272117"><ele>359.2</ele><time>2026-04-11T07:45:30.038Z</time></trkpt><trkpt lat="44.95829" lon="9.2271417"><ele>356.8</ele><time>2026-04-11T07:45:31.039Z</time></trkpt><trkpt lat="44.9582" lon="9.2270783"><ele>354.40000000000003</ele><time>2026-04-11T07:45:32.037Z</time></trkpt><trkpt lat="44.9581083" lon="9.2270167"><ele>352.0</ele><time>2026-04-11T07:45:33.038Z</time></trkpt><trkpt lat="44.958015" lon="9.22696"><ele>350.8</ele><time>2026-04-11T07:45:34.042Z</time></trkpt><trkpt lat="44.9579217" lon="9.226915"><ele>349.6</ele><time>2026-04-11T07:45:35.037Z</time></trkpt><trkpt lat="44.9578283" lon="9.2268767"><ele>348.40000000000003</ele><time>2026-04-11T07:45:36.038Z</time></trkpt><trkpt lat="44.95774" lon="9.22684"><ele>347.20000000000005</ele><time>2026-04-11T07:45:37.038Z</time></trkpt><trkpt lat="44.9576617" lon="9.2267967"><ele>346.0</ele><time>2026-04-11T07:45:38.033Z</time></trkpt><trkpt lat="44.9575817" lon="9.2267333"><ele>344.8</ele><time>2026-04-11T07:45:39.04Z</time></trkpt><trkpt lat="44.9575033" lon="9.2266383"><ele>343.6</ele><time>2026-04-11T07:45:40.035Z</time></trkpt><trkpt lat="44.9574267" lon="9.2265333"><ele>342.4</ele><time>2026-04-11T07:45:41.038Z</time></trkpt><trkpt lat="44.9573533" lon="9.22644"><ele>341.2</ele><time>2026-04-11T07:45:42.041Z</time></trkpt><trkpt lat="44.9572783" lon="9.2263417"><ele>340.0</ele><time>2026-04-11T07:45:43.039Z</time></trkpt><trkpt lat="44.957195" lon="9.226235"><ele>338.4</ele><time>2026-04-11T07:45:44.041Z</time></trkpt><trkpt lat="44.9571117" lon="9.2261267"><ele>336.8</ele><time>2026-04-11T07:45:45.033Z</time></trkpt><trkpt lat="44.9570283" lon="9.2260233"><ele>335.20000000000005</ele><time>2026-04-11T07:45:46.038Z</time></trkpt><trkpt lat="44.95695" lon="9.2259383"><ele>333.6</ele><time>2026-04-11T07:45:47.038Z</time></trkpt><trkpt lat="44.9568767" lon="9.2258683"><ele>332.0</ele><time>2026-04-11T07:45:48.037Z</time></trkpt><trkpt lat="44.9567983" lon="9.2258133"><ele>332.0</ele><time>2026-04-11T07:45:49.039Z</time></trkpt><trkpt lat="44.9567167" lon="9.2257717"><ele>332.0</ele><time>2026-04-11T07:45:50.038Z</time></trkpt><trkpt lat="44.9566333" lon="9.2257333"><ele>332.0</ele><time>2026-04-11T07:45:51.038Z</time></trkpt><trkpt lat="44.956535" lon="9.2256883"><ele>332.0</ele><time>2026-04-11T07:45:52.04Z</time></trkpt><trkpt lat="44.9564083" lon="9.2256233"><ele>332.0</ele><time>2026-04-11T07:45:53.038Z</time></trkpt><trkpt lat="44.95628" lon="9.225555"><ele>327.0</ele><time>2026-04-11T07:45:54.038Z</time></trkpt><trkpt lat="44.95615" lon="9.22548"><ele>322.0</ele><time>2026-04-11T07:45:55.038Z</time></trkpt><trkpt lat="44.9560233" lon="9.22541"><ele>317.0</ele><time>2026-04-11T07:45:56.039Z</time></trkpt><trkpt lat="44.9559033" lon="9.2253467"><ele>312.0</ele><time>2026-04-11T07:45:57.039Z</time></trkpt><trkpt lat="44.9557867" lon="9.225295"><ele>311.6</ele><time>2026-04-11T07:45:58.038Z</time></trkpt><trkpt lat="44.9556783" lon="9.22525"><ele>311.2</ele><time>2026-04-11T07:45:59.042Z</time></trkpt><trkpt lat="44.955575" lon="9.2252083"><ele>310.8</ele><time>2026-04-11T07:46:00.038Z</time></trkpt><trkpt lat="44.955485" lon="9.22518"><ele>310.4</ele><time>2026-04-11T07:46:01.041Z</time></trkpt><trkpt lat="44.9554" lon="9.22517"><ele>310.0</ele><time>2026-04-11T07:46:02.041Z</time></trkpt><trkpt lat="44.95532" lon="9.22519"><ele>310.0</ele><time>2026-04-11T07:46:03.04Z</time></trkpt><trkpt lat="44.9552417" lon="9.225245"><ele>310.0</ele><time>2026-04-11T07:46:04.034Z</time></trkpt><trkpt lat="44.9551683" lon="9.2253033"><ele>310.0</ele><time>2026-04-11T07:46:05.039Z</time></trkpt><trkpt lat="44.9550933" lon="9.2253633"><ele>310.0</ele><time>2026-04-11T07:46:06.035Z</time></trkpt><trkpt lat="44.955015" lon="9.22541"><ele>310.0</ele><time>2026-04-11T07:46:07.039Z</time></trkpt><trkpt lat="44.954935" lon="9.22543"><ele>310.0</ele><time>2026-04-11T07:46:08.033Z</time></trkpt><trkpt lat="44.954845" lon="9.2254483"><ele>309.16666666666663</ele><time>2026-04-11T07:46:09.038Z</time></trkpt><trkpt lat="44.95475" lon="9.2254567"><ele>308.3333333333333</ele><time>2026-04-11T07:46:10.039Z</time></trkpt><trkpt lat="44.9546533" lon="9.2254617"><ele>307.5</ele><time>2026-04-11T07:46:11.033Z</time></trkpt><trkpt lat="44.9545667" lon="9.2254317"><ele>306.6666666666667</ele><time>2026-04-11T07:46:12.038Z</time></trkpt><trkpt lat="44.95449" lon="9.225375"><ele>305.83333333333337</ele><time>2026-04-11T07:46:13.039Z</time></trkpt><trkpt lat="44.9544333" lon="9.225295"><ele>305.0</ele><time>2026-04-11T07:46:14.038Z</time></trkpt><trkpt lat="44.9544017" lon="9.225195"><ele>305.0</ele><time>2026-04-11T07:46:15.041Z</time></trkpt><trkpt lat="44.9544017" lon="9.2250683"><ele>305.0</ele><time>2026-04-11T07:46:16.033Z</time></trkpt><trkpt lat="44.9544183" lon="9.2249367"><ele>305.0</ele><time>2026-04-11T07:46:17.037Z</time></trkpt><trkpt lat="44.954445" lon="9.2247983"><ele>305.0</ele><time>2026-04-11T07:46:18.034Z</time></trkpt><trkpt lat="44.9544617" lon="9.2246617"><ele>305.0</ele><time>2026-04-11T07:46:19.042Z</time></trkpt><trkpt lat="44.9544867" lon="9.2245367"><ele>302.8</ele><time>2026-04-11T07:46:20.039Z</time></trkpt><trkpt lat="44.954525" lon="9.2244333"><ele>300.6</ele><time>2026-04-11T07:46:21.041Z</time></trkpt><trkpt lat="44.954565" lon="9.2243333"><ele>298.4</ele><time>2026-04-11T07:46:22.038Z</time></trkpt><trkpt lat="44.9546283" lon="9.2242533"><ele>296.2</ele><time>2026-04-11T07:46:23.038Z</time></trkpt><trkpt lat="44.9547167" lon="9.2241833"><ele>294.0</ele><time>2026-04-11T07:46:24.039Z</time></trkpt><trkpt lat="44.9548217" lon="9.22411"><ele>294.0</ele><time>2026-04-11T07:46:25.038Z</time></trkpt><trkpt lat="44.9549117" lon="9.2240383"><ele>294.0</ele><time>2026-04-11T07:46:26.039Z</time></trkpt><trkpt lat="44.9549867" lon="9.2239533"><ele>294.0</ele><time>2026-04-11T07:46:27.041Z</time></trkpt><trkpt lat="44.9550533" lon="9.2238483"><ele>294.0</ele><time>2026-04-11T07:46:28.033Z</time></trkpt><trkpt lat="44.9550883" lon="9.22372"><ele>294.0</ele><time>2026-04-11T07:46:29.039Z</time></trkpt><trkpt lat="44.9551067" lon="9.2235783"><ele>293.8333333333333</ele><time>2026-04-11T07:46:30.041Z</time></trkpt><trkpt lat="44.95512" lon="9.2234367"><ele>293.6666666666667</ele><time>2026-04-11T07:46:31.037Z</time></trkpt><trkpt lat="44.955135" lon="9.2233133"><ele>293.5</ele><time>2026-04-11T07:46:32.036Z</time></trkpt><trkpt lat="44.95514" lon="9.2232017"><ele>293.33333333333337</ele><time>2026-04-11T07:46:33.038Z</time></trkpt><trkpt lat="44.95513" lon="9.2231"><ele>293.1666666666667</ele><time>2026-04-11T07:46:34.04Z</time></trkpt><trkpt lat="44.95509" lon="9.2230033"><ele>293.0</ele><time>2026-04-11T07:46:35.04Z</time></trkpt><trkpt lat="44.955015" lon="9.22292"><ele>289.8</ele><time>2026-04-11T07:46:36.041Z</time></trkpt><trkpt lat="44.95493" lon="9.2228367"><ele>286.6</ele><time>2026-04-11T07:46:37.042Z</time></trkpt><trkpt lat="44.9548467" lon="9.2227533"><ele>283.4</ele><time>2026-04-11T07:46:38.043Z</time></trkpt><trkpt lat="44.95476" lon="9.2226867"><ele>280.2</ele><time>2026-04-11T07:46:39.042Z</time></trkpt><trkpt lat="44.954675" lon="9.222645"><ele>277.0</ele><time>2026-04-11T07:46:40.04Z</time></trkpt><trkpt lat="44.9545967" lon="9.222625"><ele>277.0</ele><time>2026-04-11T07:46:41.041Z</time></trkpt><trkpt lat="44.954525" lon="9.22263"><ele>277.0</ele><time>2026-04-11T07:46:42.041Z</time></trkpt><trkpt lat="44.95446" lon="9.2226667"><ele>277.0</ele><time>2026-04-11T07:46:43.038Z</time></trkpt><trkpt lat="44.95439" lon="9.22273"><ele>277.0</ele><time>2026-04-11T07:46:44.04Z</time></trkpt><trkpt lat="44.9543133" lon="9.222825"><ele>277.0</ele><time>2026-04-11T07:46:45.04Z</time></trkpt><trkpt lat="44.954245" lon="9.2229317"><ele>277.0</ele><time>2026-04-11T07:46:46.041Z</time></trkpt><trkpt lat="44.9541917" lon="9.2230333"><ele>276.2</ele><time>2026-04-11T07:46:47.039Z</time></trkpt><trkpt lat="44.9541467" lon="9.2231467"><ele>275.4</ele><time>2026-04-11T07:46:48.038Z</time></trkpt><trkpt lat="44.95411" lon="9.2232817"><ele>274.6</ele><time>2026-04-11T07:46:49.042Z</time></trkpt><trkpt lat="44.9540733" lon="9.223425"><ele>273.8</ele><time>2026-04-11T07:46:50.039Z</time></trkpt><trkpt lat="44.95404" lon="9.2235483"><ele>273.0</ele><time>2026-04-11T07:46:51.042Z</time></trkpt><trkpt lat="44.9540083" lon="9.2236567"><ele>273.0</ele><time>2026-04-11T07:46:52.043Z</time></trkpt><trkpt lat="44.9539817" lon="9.2237517"><ele>273.0</ele><time>2026-04-11T07:46:53.041Z</time></trkpt><trkpt lat="44.953915" lon="9.223855"><ele>273.0</ele><time>2026-04-11T07:46:55.04Z</time></trkpt><trkpt lat="44.9538383" lon="9.22384"><ele>273.0</ele><time>2026-04-11T07:46:56.038Z</time></trkpt><trkpt lat="44.953755" lon="9.2238"><ele>273.0</ele><time>2026-04-11T07:46:57.037Z</time></trkpt><trkpt lat="44.9536617" lon="9.2237417"><ele>273.0</ele><time>2026-04-11T07:46:58.034Z</time></trkpt><trkpt lat="44.9535567" lon="9.2236833"><ele>273.0</ele><time>2026-04-11T07:46:59.038Z</time></trkpt><trkpt lat="44.9534517" lon="9.2236283"><ele>273.0</ele><time>2026-04-11T07:47:00.038Z</time></trkpt><trkpt lat="44.9533433" lon="9.2235733"><ele>273.0</ele><time>2026-04-11T07:47:01.04Z</time></trkpt><trkpt lat="44.9532267" lon="9.2235167"><ele>273.0</ele><time>2026-04-11T07:47:02.037Z</time></trkpt><trkpt lat="44.9531117" lon="9.2234533"><ele>269.4</ele><time>2026-04-11T07:47:03.04Z</time></trkpt><trkpt lat="44.9530033" lon="9.2233967"><ele>265.8</ele><time>2026-04-11T07:47:04.031Z</time></trkpt><trkpt lat="44.9528983" lon="9.22334"><ele>262.2</ele><time>2026-04-11T07:47:05.031Z</time></trkpt><trkpt lat="44.952805" lon="9.2232917"><ele>258.6</ele><time>2026-04-11T07:47:06.037Z</time></trkpt><trkpt lat="44.952715" lon="9.223245"><ele>255.0</ele><time>2026-04-11T07:47:07.04Z</time></trkpt><trkpt lat="44.9526383" lon="9.223205"><ele>255.0</ele><time>2026-04-11T07:47:08.039Z</time></trkpt><trkpt lat="44.9525633" lon="9.2231617"><ele>255.0</ele><time>2026-04-11T07:47:09.04Z</time></trkpt><trkpt lat="44.9524883" lon="9.22311"><ele>255.0</ele><time>2026-04-11T07:47:10.04Z</time></trkpt><trkpt lat="44.9524117" lon="9.22306"><ele>255.0</ele><time>2026-04-11T07:47:11.032Z</time></trkpt><trkpt lat="44.952335" lon="9.22303"><ele>255.0</ele><time>2026-04-11T07:47:12.039Z</time></trkpt><trkpt lat="44.952255" lon="9.2230333"><ele>255.0</ele><time>2026-04-11T07:47:13.041Z</time></trkpt><trkpt lat="44.95217" lon="9.2230867"><ele>250.5</ele><time>2026-04-11T07:47:14.032Z</time></trkpt><trkpt lat="44.9520717" lon="9.2231767"><ele>246.0</ele><time>2026-04-11T07:47:15.042Z</time></trkpt><trkpt lat="44.95197" lon="9.2232667"><ele>241.5</ele><time>2026-04-11T07:47:16.038Z</time></trkpt><trkpt lat="44.9518667" lon="9.2233483"><ele>237.0</ele><time>2026-04-11T07:47:17.041Z</time></trkpt><trkpt lat="44.95177" lon="9.223415"><ele>235.6</ele><time>2026-04-11T07:47:18.039Z</time></trkpt><trkpt lat="44.9516767" lon="9.22348"><ele>234.2</ele><time>2026-04-11T07:47:19.034Z</time></trkpt><trkpt lat="44.95159" lon="9.2235383"><ele>232.8</ele><time>2026-04-11T07:47:20.041Z</time></trkpt><trkpt lat="44.95151" lon="9.2235817"><ele>231.4</ele><time>2026-04-11T07:47:21.041Z</time></trkpt><trkpt lat="44.9514333" lon="9.223605"><ele>230.0</ele><time>2026-04-11T07:47:22.038Z</time></trkpt><trkpt lat="44.9513317" lon="9.2235067"><ele>230.0</ele><time>2026-04-11T07:47:24.043Z</time></trkpt><trkpt lat="44.9513" lon="9.22342"><ele>230.0</ele><time>2026-04-11T07:47:25.037Z</time></trkpt><trkpt lat="44.95131" lon="9.223275"><ele>230.0</ele><time>2026-04-11T07:47:26.038Z</time></trkpt><trkpt lat="44.951325" lon="9.2231417"><ele>230.0</ele><time>2026-04-11T07:47:27.043Z</time></trkpt><trkpt lat="44.9513933" lon="9.22297"><ele>230.0</ele><time>2026-04-11T07:47:28.04Z</time></trkpt><trkpt lat="44.951465" lon="9.2227983"><ele>229.5</ele><time>2026-04-11T07:47:29.039Z</time></trkpt><trkpt lat="44.951535" lon="9.2226083"><ele>229.0</ele><time>2026-04-11T07:47:30.041Z</time></trkpt><trkpt lat="44.9515833" lon="9.2224317"><ele>228.5</ele><time>2026-04-11T07:47:31.042Z</time></trkpt><trkpt lat="44.9516233" lon="9.2222533"><ele>228.0</ele><time>2026-04-11T07:47:32.039Z</time></trkpt><trkpt lat="44.95166" lon="9.2220833"><ele>228.75</ele><time>2026-04-11T07:47:33.04Z</time></trkpt><trkpt lat="44.95171" lon="9.2219233"><ele>229.5</ele><time>2026-04-11T07:47:34.038Z</time></trkpt><trkpt lat="44.9517667" lon="9.2217733"><ele>230.25</ele><time>2026-04-11T07:47:35.037Z</time></trkpt><trkpt lat="44.9518183" lon="9.2216233"><ele>231.0</ele><time>2026-04-11T07:47:36.035Z</time></trkpt><trkpt lat="44.9518533" lon="9.221485"><ele>230.83333333333334</ele><time>2026-04-11T07:47:37.04Z</time></trkpt><trkpt lat="44.9518583" lon="9.22137"><ele>230.66666666666669</ele><time>2026-04-11T07:47:38.036Z</time></trkpt><trkpt lat="44.9518367" lon="9.2212733"><ele>230.5</ele><time>2026-04-11T07:47:39.039Z</time></trkpt><trkpt lat="44.9517867" lon="9.221205"><ele>230.33333333333334</ele><time>2026-04-11T07:47:40.039Z</time></trkpt><trkpt lat="44.9517117" lon="9.22115"><ele>230.16666666666669</ele><time>2026-04-11T07:47:41.042Z</time></trkpt><trkpt lat="44.9516117" lon="9.2210917"><ele>230.0</ele><time>2026-04-11T07:47:42.034Z</time></trkpt><trkpt lat="44.9515067" lon="9.2210217"><ele>230.0</ele><time>2026-04-11T07:47:43.037Z</time></trkpt><trkpt lat="44.9513983" lon="9.220945"><ele>230.0</ele><time>2026-04-11T07:47:44.037Z</time></trkpt><trkpt lat="44.95128" lon="9.220905"><ele>230.0</ele><time>2026-04-11T07:47:45.036Z</time></trkpt><trkpt lat="44.951165" lon="9.2209117"><ele>230.0</ele><time>2026-04-11T07:47:46.038Z</time></trkpt><trkpt lat="44.9510483" lon="9.2209533"><ele>230.0</ele><time>2026-04-11T07:47:47.037Z</time></trkpt><trkpt lat="44.9509267" lon="9.2210033"><ele>230.0</ele><time>2026-04-11T07:47:48.032Z</time></trkpt><trkpt lat="44.9507933" lon="9.2210417"><ele>230.0</ele><time>2026-04-11T07:47:49.04Z</time></trkpt><trkpt lat="44.9506567" lon="9.2210733"><ele>230.0</ele><time>2026-04-11T07:47:50.037Z</time></trkpt><trkpt lat="44.9505117" lon="9.22109"><ele>233.66666666666669</ele><time>2026-04-11T07:47:51.033Z</time></trkpt><trkpt lat="44.9503633" lon="9.2211"><ele>237.33333333333331</ele><time>2026-04-11T07:47:52.039Z</time></trkpt><trkpt lat="44.95021" lon="9.2211"><ele>241.0</ele><time>2026-04-11T07:47:53.04Z</time></trkpt><trkpt lat="44.9500567" lon="9.2210867"><ele>244.0</ele><time>2026-04-11T07:47:54.04Z</time></trkpt><trkpt lat="44.9499067" lon="9.2210733"><ele>247.0</ele><time>2026-04-11T07:47:55.038Z</time></trkpt><trkpt lat="44.9497667" lon="9.221065"><ele>250.0</ele><time>2026-04-11T07:47:56.037Z</time></trkpt><trkpt lat="44.9496383" lon="9.221085"><ele>253.0</ele><time>2026-04-11T07:47:57.038Z</time></trkpt><trkpt lat="44.94953" lon="9.2211417"><ele>253.0</ele><time>2026-04-11T07:47:58.04Z</time></trkpt><trkpt lat="44.94945" lon="9.221235"><ele>253.0</ele><time>2026-04-11T07:47:59.039Z</time></trkpt><trkpt lat="44.949385" lon="9.2213267"><ele>253.0</ele><time>2026-04-11T07:48:00.04Z</time></trkpt><trkpt lat="44.9493167" lon="9.2213967"><ele>253.0</ele><time>2026-04-11T07:48:01.035Z</time></trkpt><trkpt lat="44.94923" lon="9.2214"><ele>253.0</ele><time>2026-04-11T07:48:02.039Z</time></trkpt><trkpt lat="44.9491383" lon="9.2213683"><ele>255.4</ele><time>2026-04-11T07:48:03.039Z</time></trkpt><trkpt lat="44.949045" lon="9.22132"><ele>257.8</ele><time>2026-04-11T07:48:04.032Z</time></trkpt><trkpt lat="44.948945" lon="9.221255"><ele>260.2</ele><time>2026-04-11T07:48:05.037Z</time></trkpt><trkpt lat="44.9488517" lon="9.22118"><ele>262.6</ele><time>2026-04-11T07:48:06.038Z</time></trkpt><trkpt lat="44.9487633" lon="9.2210883"><ele>265.0</ele><time>2026-04-11T07:48:07.039Z</time></trkpt><trkpt lat="44.948675" lon="9.220985"><ele>265.0</ele><time>2026-04-11T07:48:08.038Z</time></trkpt><trkpt lat="44.9485933" lon="9.2208783"><ele>265.0</ele><time>2026-04-11T07:48:09.038Z</time></trkpt><trkpt lat="44.9485183" lon="9.2207783"><ele>265.0</ele><time>2026-04-11T07:48:10.039Z</time></trkpt><trkpt lat="44.9484417" lon="9.2206833"><ele>265.0</ele><time>2026-04-11T07:48:11.04Z</time></trkpt><trkpt lat="44.948365" lon="9.2205817"><ele>265.0</ele><time>2026-04-11T07:48:12.04Z</time></trkpt><trkpt lat="44.9482917" lon="9.2204767"><ele>269.4</ele><time>2026-04-11T07:48:13.042Z</time></trkpt><trkpt lat="44.9482183" lon="9.2203717"><ele>273.8</ele><time>2026-04-11T07:48:14.041Z</time></trkpt><trkpt lat="44.9481383" lon="9.2202683"><ele>278.2</ele><time>2026-04-11T07:48:15.033Z</time></trkpt><trkpt lat="44.9480483" lon="9.2201683"><ele>282.6</ele><time>2026-04-11T07:48:16.042Z</time></trkpt><trkpt lat="44.9479617" lon="9.22008"><ele>287.0</ele><time>2026-04-11T07:48:17.039Z</time></trkpt><trkpt lat="44.94787" lon="9.2199983"><ele>287.0</ele><time>2026-04-11T07:48:18.04Z</time></trkpt><trkpt lat="44.94778" lon="9.2199183"><ele>287.0</ele><time>2026-04-11T07:48:19.045Z</time></trkpt><trkpt lat="44.9476967" lon="9.2198417"><ele>287.0</ele><time>2026-04-11T07:48:20.041Z</time></trkpt><trkpt lat="44.94762" lon="9.2197717"><ele>287.0</ele><time>2026-04-11T07:48:21.04Z</time></trkpt><trkpt lat="44.9475583" lon="9.219715"><ele>287.0</ele><time>2026-04-11T07:48:22.04Z</time></trkpt><trkpt lat="44.947485" lon="9.219645"><ele>289.8</ele><time>2026-04-11T07:48:24.04Z</time></trkpt><trkpt lat="44.9474583" lon="9.2195133"><ele>292.6</ele><time>2026-04-11T07:48:27.041Z</time></trkpt><trkpt lat="44.947465" lon="9.2193817"><ele>295.40000000000003</ele><time>2026-04-11T07:48:29.038Z</time></trkpt><trkpt lat="44.9474933" lon="9.21924"><ele>298.2</ele><time>2026-04-11T07:48:31.038Z</time></trkpt><trkpt lat="44.9475483" lon="9.2191"><ele>301.0</ele><time>2026-04-11T07:48:33.041Z</time></trkpt><trkpt lat="44.9476533" lon="9.219005"><ele>303.42857142857144</ele><time>2026-04-11T07:48:35.04Z</time></trkpt><trkpt lat="44.947715" lon="9.2189633"><ele>305.8571428571429</ele><time>2026-04-11T07:48:36.039Z</time></trkpt><trkpt lat="44.9477783" lon="9.2189133"><ele>308.2857142857143</ele><time>2026-04-11T07:48:37.04Z</time></trkpt><trkpt lat="44.9478367" lon="9.218855"><ele>310.7142857142857</ele><time>2026-04-11T07:48:38.038Z</time></trkpt><trkpt lat="44.9478967" lon="9.2187833"><ele>313.14285714285717</ele><time>2026-04-11T07:48:39.04Z</time></trkpt><trkpt lat="44.947955" lon="9.21871"><ele>315.57142857142856</ele><time>2026-04-11T07:48:40.042Z</time></trkpt><trkpt lat="44.9480083" lon="9.218625"><ele>318.0</ele><time>2026-04-11T07:48:41.038Z</time></trkpt><trkpt lat="44.9480583" lon="9.2185333"><ele>318.0</ele><time>2026-04-11T07:48:42.038Z</time></trkpt><trkpt lat="44.9481033" lon="9.218435"><ele>318.0</ele><time>2026-04-11T07:48:43.033Z</time></trkpt><trkpt lat="44.948135" lon="9.2183283"><ele>318.0</ele><time>2026-04-11T07:48:44.043Z</time></trkpt><trkpt lat="44.9481617" lon="9.2182233"><ele>318.0</ele><time>2026-04-11T07:48:45.042Z</time></trkpt><trkpt lat="44.9481867" lon="9.218115"><ele>318.0</ele><time>2026-04-11T07:48:46.038Z</time></trkpt><trkpt lat="44.9482133" lon="9.2179983"><ele>318.0</ele><time>2026-04-11T07:48:47.036Z</time></trkpt><trkpt lat="44.9482433" lon="9.217875"><ele>320.0</ele><time>2026-04-11T07:48:48.039Z</time></trkpt><trkpt lat="44.9482667" lon="9.2177533"><ele>322.0</ele><time>2026-04-11T07:48:49.04Z</time></trkpt><trkpt lat="44.94828" lon="9.2176483"><ele>324.0</ele><time>2026-04-11T07:48:50.04Z</time></trkpt><trkpt lat="44.948275" lon="9.2175533"><ele>326.0</ele><time>2026-04-11T07:48:51.039Z</time></trkpt><trkpt lat="44.9482183" lon="9.2174083"><ele>328.0</ele><time>2026-04-11T07:48:53.041Z</time></trkpt><trkpt lat="44.9481567" lon="9.2173733"><ele>330.0</ele><time>2026-04-11T07:48:54.041Z</time></trkpt><trkpt lat="44.9480717" lon="9.217345"><ele>329.5</ele><time>2026-04-11T07:48:55.041Z</time></trkpt><trkpt lat="44.9479733" lon="9.21731"><ele>329.0</ele><time>2026-04-11T07:48:56.042Z</time></trkpt><trkpt lat="44.9478617" lon="9.217265"><ele>328.5</ele><time>2026-04-11T07:48:57.041Z</time></trkpt><trkpt lat="44.94774" lon="9.217205"><ele>328.0</ele><time>2026-04-11T07:48:58.035Z</time></trkpt><trkpt lat="44.9476233" lon="9.2171233"><ele>331.5</ele><time>2026-04-11T07:48:59.039Z</time></trkpt><trkpt lat="44.947515" lon="9.21703"><ele>335.0</ele><time>2026-04-11T07:49:00.042Z</time></trkpt><trkpt lat="44.9474133" lon="9.2169383"><ele>338.5</ele><time>2026-04-11T07:49:01.042Z</time></trkpt><trkpt lat="44.9473183" lon="9.216845"><ele>342.0</ele><time>2026-04-11T07:49:02.036Z</time></trkpt><trkpt lat="44.9472217" lon="9.21675"><ele>342.0</ele><time>2026-04-11T07:49:03.043Z</time></trkpt><trkpt lat="44.9471317" lon="9.2166617"><ele>342.0</ele><time>2026-04-11T07:49:04.038Z</time></trkpt><trkpt lat="44.9470483" lon="9.21658"><ele>342.0</ele><time>2026-04-11T07:49:05.04Z</time></trkpt><trkpt lat="44.9469767" lon="9.2165233"><ele>342.0</ele><time>2026-04-11T07:49:06.043Z</time></trkpt><trkpt lat="44.9469083" lon="9.2164867"><ele>342.0</ele><time>2026-04-11T07:49:07.041Z</time></trkpt><trkpt lat="44.94684" lon="9.2164733"><ele>342.0</ele><time>2026-04-11T07:49:08.043Z</time></trkpt><trkpt lat="44.9467633" lon="9.2164733"><ele>343.40000000000003</ele><time>2026-04-11T07:49:09.04Z</time></trkpt><trkpt lat="44.9466833" lon="9.2164783"><ele>344.8</ele><time>2026-04-11T07:49:10.043Z</time></trkpt><trkpt lat="44.946595" lon="9.2164917"><ele>346.2</ele><time>2026-04-11T07:49:11.039Z</time></trkpt><trkpt lat="44.9464967" lon="9.2165167"><ele>347.6</ele><time>2026-04-11T07:49:12.042Z</time></trkpt><trkpt lat="44.94639" lon="9.2165467"><ele>349.0</ele><time>2026-04-11T07:49:13.042Z</time></trkpt><trkpt lat="44.9462817" lon="9.21658"><ele>349.0</ele><time>2026-04-11T07:49:14.041Z</time></trkpt><trkpt lat="44.9461733" lon="9.21661"><ele>349.0</ele><time>2026-04-11T07:49:15.039Z</time></trkpt><trkpt lat="44.9460583" lon="9.2166517"><ele>349.0</ele><time>2026-04-11T07:49:16.039Z</time></trkpt><trkpt lat="44.9459383" lon="9.21671"><ele>349.0</ele><time>2026-04-11T07:49:17.039Z</time></trkpt><trkpt lat="44.9458267" lon="9.216795"><ele>351.4</ele><time>2026-04-11T07:49:18.04Z</time></trkpt><trkpt lat="44.9457317" lon="9.2168933"><ele>353.79999999999995</ele><time>2026-04-11T07:49:19.038Z</time></trkpt><trkpt lat="44.9456417" lon="9.2169833"><ele>356.20000000000005</ele><time>2026-04-11T07:49:20.04Z</time></trkpt><trkpt lat="44.9455517" lon="9.2170617"><ele>358.6</ele><time>2026-04-11T07:49:21.036Z</time></trkpt><trkpt lat="44.94546" lon="9.2171383"><ele>361.0</ele><time>2026-04-11T07:49:22.039Z</time></trkpt><trkpt lat="44.9453633" lon="9.2172283"><ele>359.6</ele><time>2026-04-11T07:49:23.04Z</time></trkpt><trkpt lat="44.9452733" lon="9.2173333"><ele>358.20000000000005</ele><time>2026-04-11T07:49:24.038Z</time></trkpt><trkpt lat="44.9451967" lon="9.2174433"><ele>356.79999999999995</ele><time>2026-04-11T07:49:25.041Z</time></trkpt><trkpt lat="44.945125" lon="9.2175517"><ele>355.4</ele><time>2026-04-11T07:49:26.037Z</time></trkpt><trkpt lat="44.94506" lon="9.2176417"><ele>354.0</ele><time>2026-04-11T07:49:27.03Z</time></trkpt><trkpt lat="44.9450017" lon="9.2177333"><ele>357.5</ele><time>2026-04-11T07:49:28.032Z</time></trkpt><trkpt lat="44.9448833" lon="9.2177133"><ele>361.0</ele><time>2026-04-11T07:49:30.038Z</time></trkpt><trkpt lat="44.944785" lon="9.2176483"><ele>364.5</ele><time>2026-04-11T07:49:31.043Z</time></trkpt><trkpt lat="44.9446833" lon="9.2175767"><ele>368.0</ele><time>2026-04-11T07:49:32.031Z</time></trkpt><trkpt lat="44.9445867" lon="9.2175033"><ele>368.0</ele><time>2026-04-11T07:49:33.038Z</time></trkpt><trkpt lat="44.94449" lon="9.21743"><ele>368.0</ele><time>2026-04-11T07:49:34.038Z</time></trkpt><trkpt lat="44.9443883" lon="9.2173617"><ele>368.0</ele><time>2026-04-11T07:49:35.032Z</time></trkpt><trkpt lat="44.9442833" lon="9.21732"><ele>368.0</ele><time>2026-04-11T07:49:36.039Z</time></trkpt><trkpt lat="44.9441983" lon="9.21733"><ele>368.0</ele><time>2026-04-11T07:49:37.037Z</time></trkpt><trkpt lat="44.9441267" lon="9.2173717"><ele>367.5</ele><time>2026-04-11T07:49:38.038Z</time></trkpt><trkpt lat="44.9440533" lon="9.2174083"><ele>367.0</ele><time>2026-04-11T07:49:39.042Z</time></trkpt><trkpt lat="44.9439767" lon="9.2174217"><ele>366.5</ele><time>2026-04-11T07:49:40.037Z</time></trkpt><trkpt lat="44.9438933" lon="9.2174083"><ele>366.0</ele><time>2026-04-11T07:49:41.038Z</time></trkpt><trkpt lat="44.94381" lon="9.2173733"><ele>365.5</ele><time>2026-04-11T07:49:42.038Z</time></trkpt><trkpt lat="44.9437183" lon="9.217325"><ele>365.0</ele><time>2026-04-11T07:49:43.039Z</time></trkpt><trkpt lat="44.9436383" lon="9.2172667"><ele>367.1666666666667</ele><time>2026-04-11T07:49:44.038Z</time></trkpt><trkpt lat="44.9435783" lon="9.21719"><ele>369.33333333333337</ele><time>2026-04-11T07:49:45.038Z</time></trkpt><trkpt lat="44.94354" lon="9.2170883"><ele>371.5</ele><time>2026-04-11T07:49:46.039Z</time></trkpt><trkpt lat="44.9435067" lon="9.2169967"><ele>373.6666666666667</ele><time>2026-04-11T07:49:47.04Z</time></trkpt><trkpt lat="44.9434633" lon="9.216915"><ele>375.8333333333333</ele><time>2026-04-11T07:49:48.037Z</time></trkpt><trkpt lat="44.9434117" lon="9.2168417"><ele>378.0</ele><time>2026-04-11T07:49:49.042Z</time></trkpt><trkpt lat="44.9433433" lon="9.2167933"><ele>378.0</ele><time>2026-04-11T07:49:50.044Z</time></trkpt><trkpt lat="44.9432633" lon="9.216765"><ele>378.0</ele><time>2026-04-11T07:49:51.043Z</time></trkpt><trkpt lat="44.9431883" lon="9.21677"><ele>378.0</ele><time>2026-04-11T07:49:52.04Z</time></trkpt><trkpt lat="44.9431283" lon="9.2168217"><ele>378.0</ele><time>2026-04-11T07:49:53.042Z</time></trkpt><trkpt lat="44.9430733" lon="9.216915"><ele>378.0</ele><time>2026-04-11T07:49:54.037Z</time></trkpt><trkpt lat="44.9430133" lon="9.216995"><ele>378.0</ele><time>2026-04-11T07:49:55.037Z</time></trkpt><trkpt lat="44.9429483" lon="9.2170583"><ele>378.0</ele><time>2026-04-11T07:49:56.043Z</time></trkpt><trkpt lat="44.9428733" lon="9.2171017"><ele>378.0</ele><time>2026-04-11T07:49:57.042Z</time></trkpt><trkpt lat="44.9427883" lon="9.21712"><ele>378.0</ele><time>2026-04-11T07:49:58.038Z</time></trkpt><trkpt lat="44.94269" lon="9.2171267"><ele>378.0</ele><time>2026-04-11T07:49:59.032Z</time></trkpt><trkpt lat="44.9426067" lon="9.21715"><ele>378.0</ele><time>2026-04-11T07:50:00.037Z</time></trkpt><trkpt lat="44.94253" lon="9.21718"><ele>378.0</ele><time>2026-04-11T07:50:01.039Z</time></trkpt><trkpt lat="44.9424567" lon="9.2171967"><ele>379.2</ele><time>2026-04-11T07:50:02.038Z</time></trkpt><trkpt lat="44.942365" lon="9.2171967"><ele>380.4</ele><time>2026-04-11T07:50:03.038Z</time></trkpt><trkpt lat="44.9422517" lon="9.217195"><ele>381.59999999999997</ele><time>2026-04-11T07:50:04.04Z</time></trkpt><trkpt lat="44.942125" lon="9.2172067"><ele>382.79999999999995</ele><time>2026-04-11T07:50:05.039Z</time></trkpt><trkpt lat="44.9420183" lon="9.2172217"><ele>384.0</ele><time>2026-04-11T07:50:06.041Z</time></trkpt><trkpt lat="44.9419217" lon="9.2172217"><ele>384.0</ele><time>2026-04-11T07:50:07.038Z</time></trkpt><trkpt lat="44.9418467" lon="9.2171967"><ele>384.0</ele><time>2026-04-11T07:50:08.042Z</time></trkpt><trkpt lat="44.9417783" lon="9.2171083"><ele>384.0</ele><time>2026-04-11T07:50:09.039Z</time></trkpt><trkpt lat="44.9417017" lon="9.2169983"><ele>384.0</ele><time>2026-04-11T07:50:10.038Z</time></trkpt><trkpt lat="44.9416133" lon="9.2168883"><ele>384.0</ele><time>2026-04-11T07:50:11.037Z</time></trkpt><trkpt lat="44.94151" lon="9.216805"><ele>383.0</ele><time>2026-04-11T07:50:12.038Z</time></trkpt><trkpt lat="44.94141" lon="9.2167367"><ele>382.0</ele><time>2026-04-11T07:50:13.042Z</time></trkpt><trkpt lat="44.9413267" lon="9.21667"><ele>381.0</ele><time>2026-04-11T07:50:14.039Z</time></trkpt><trkpt lat="44.9412517" lon="9.2165933"><ele>380.0</ele><time>2026-04-11T07:50:15.042Z</time></trkpt><trkpt lat="44.941185" lon="9.2165033"><ele>379.0</ele><time>2026-04-11T07:50:16.036Z</time></trkpt><trkpt lat="44.9411283" lon="9.2164"><ele>381.79999999999995</ele><time>2026-04-11T07:50:17.034Z</time></trkpt><trkpt lat="44.9410783" lon="9.2162717"><ele>384.59999999999997</ele><time>2026-04-11T07:50:18.038Z</time></trkpt><trkpt lat="44.9410233" lon="9.2161433"><ele>387.4</ele><time>2026-04-11T07:50:19.04Z</time></trkpt><trkpt lat="44.9409433" lon="9.21604"><ele>390.2</ele><time>2026-04-11T07:50:20.041Z</time></trkpt><trkpt lat="44.9408583" lon="9.2159433"><ele>393.0</ele><time>2026-04-11T07:50:21.035Z</time></trkpt><trkpt lat="44.9407783" lon="9.215845"><ele>393.0</ele><time>2026-04-11T07:50:22.04Z</time></trkpt><trkpt lat="44.9407083" lon="9.21575"><ele>393.0</ele><time>2026-04-11T07:50:23.039Z</time></trkpt><trkpt lat="44.9406433" lon="9.215685"><ele>393.0</ele><time>2026-04-11T07:50:24.039Z</time></trkpt><trkpt lat="44.9405767" lon="9.2156733"><ele>393.0</ele><time>2026-04-11T07:50:25.04Z</time></trkpt><trkpt lat="44.9404983" lon="9.2156983"><ele>393.0</ele><time>2026-04-11T07:50:26.033Z</time></trkpt><trkpt lat="44.94041" lon="9.2157433"><ele>393.0</ele><time>2026-04-11T07:50:27.04Z</time></trkpt><trkpt lat="44.9403183" lon="9.2157917"><ele>393.0</ele><time>2026-04-11T07:50:28.039Z</time></trkpt><trkpt lat="44.9402383" lon="9.2158367"><ele>393.0</ele><time>2026-04-11T07:50:29.038Z</time></trkpt><trkpt lat="44.94017" lon="9.2158783"><ele>393.0</ele><time>2026-04-11T07:50:30.039Z</time></trkpt><trkpt lat="44.940085" lon="9.2158967"><ele>393.0</ele><time>2026-04-11T07:50:32.04Z</time></trkpt><trkpt lat="44.9400317" lon="9.215745"><ele>393.0</ele><time>2026-04-11T07:50:34.037Z</time></trkpt><trkpt lat="44.9400083" lon="9.2156183"><ele>399.5</ele><time>2026-04-11T07:50:35.038Z</time></trkpt><trkpt lat="44.9399767" lon="9.2154483"><ele>406.0</ele><time>2026-04-11T07:50:36.038Z</time></trkpt><trkpt lat="44.9399433" lon="9.21528"><ele>412.5</ele><time>2026-04-11T07:50:37.042Z</time></trkpt><trkpt lat="44.939905" lon="9.21511"><ele>419.0</ele><time>2026-04-11T07:50:38.042Z</time></trkpt><trkpt lat="44.939865" lon="9.2149367"><ele>423.25</ele><time>2026-04-11T07:50:39.038Z</time></trkpt><trkpt lat="44.9398117" lon="9.21475"><ele>427.5</ele><time>2026-04-11T07:50:40.041Z</time></trkpt><trkpt lat="44.93976" lon="9.2145483"><ele>431.75</ele><time>2026-04-11T07:50:41.044Z</time></trkpt><trkpt lat="44.939705" lon="9.214345"><ele>436.0</ele><time>2026-04-11T07:50:42.04Z</time></trkpt><trkpt lat="44.9396567" lon="9.2141467"><ele>441.0</ele><time>2026-04-11T07:50:43.041Z</time></trkpt><trkpt lat="44.9396083" lon="9.2139483"><ele>446.0</ele><time>2026-04-11T07:50:44.042Z</time></trkpt><trkpt lat="44.9395583" lon="9.2137467"><ele>451.0</ele><time>2026-04-11T07:50:45.041Z</time></trkpt><trkpt lat="44.9395067" lon="9.213535"><ele>451.0</ele><time>2026-04-11T07:50:46.04Z</time></trkpt><trkpt lat="44.9394567" lon="9.2133283"><ele>451.0</ele><time>2026-04-11T07:50:47.041Z</time></trkpt><trkpt lat="44.9394117" lon="9.213145"><ele>451.0</ele><time>2026-04-11T07:50:48.041Z</time></trkpt><trkpt lat="44.9393733" lon="9.2129967"><ele>451.0</ele><time>2026-04-11T07:50:49.041Z</time></trkpt><trkpt lat="44.939345" lon="9.212885"><ele>452.83333333333337</ele><time>2026-04-11T07:50:50.039Z</time></trkpt><trkpt lat="44.9393067" lon="9.212745"><ele>454.6666666666667</ele><time>2026-04-11T07:50:52.042Z</time></trkpt><trkpt lat="44.9392467" lon="9.21268"><ele>456.5</ele><time>2026-04-11T07:50:54.041Z</time></trkpt><trkpt lat="44.9391717" lon="9.2127133"><ele>458.33333333333337</ele><time>2026-04-11T07:50:55.033Z</time></trkpt><trkpt lat="44.9391017" lon="9.212735"><ele>460.1666666666667</ele><time>2026-04-11T07:50:56.041Z</time></trkpt><trkpt lat="44.9390267" lon="9.21275"><ele>462.0</ele><time>2026-04-11T07:50:57.043Z</time></trkpt><trkpt lat="44.9389517" lon="9.212755"><ele>462.1666666666667</ele><time>2026-04-11T07:50:58.041Z</time></trkpt><trkpt lat="44.9388783" lon="9.2127483"><ele>462.33333333333337</ele><time>2026-04-11T07:50:59.04Z</time></trkpt><trkpt lat="44.9388117" lon="9.21274"><ele>462.5</ele><time>2026-04-11T07:51:00.037Z</time></trkpt><trkpt lat="44.9387067" lon="9.2127583"><ele>462.6666666666667</ele><time>2026-04-11T07:51:02.04Z</time></trkpt><trkpt lat="44.9386317" lon="9.2127717"><ele>462.83333333333337</ele><time>2026-04-11T07:51:05.038Z</time></trkpt><trkpt lat="44.9385383" lon="9.2128867"><ele>463.0</ele><time>2026-04-11T07:51:55.039Z</time></trkpt><trkpt lat="44.938475" lon="9.212945"><ele>463.00000000000006</ele><time>2026-04-11T07:51:56.037Z</time></trkpt><trkpt lat="44.9384117" lon="9.21301"><ele>463.0</ele><time>2026-04-11T07:51:57.042Z</time></trkpt><trkpt lat="44.93835" lon="9.21308"><ele>463.0</ele><time>2026-04-11T07:51:58.039Z</time></trkpt><trkpt lat="44.9382933" lon="9.2131617"><ele>463.0</ele><time>2026-04-11T07:51:59.041Z</time></trkpt><trkpt lat="44.9382367" lon="9.2132567"><ele>463.00000000000006</ele><time>2026-04-11T07:52:00.04Z</time></trkpt><trkpt lat="44.938175" lon="9.213355"><ele>463.0</ele><time>2026-04-11T07:52:01.042Z</time></trkpt><trkpt lat="44.9381083" lon="9.21344"><ele>461.83333333333337</ele><time>2026-04-11T07:52:02.044Z</time></trkpt><trkpt lat="44.93804" lon="9.2135017"><ele>460.6666666666667</ele><time>2026-04-11T07:52:03.039Z</time></trkpt><trkpt lat="44.9379667" lon="9.2135383"><ele>459.5</ele><time>2026-04-11T07:52:04.043Z</time></trkpt><trkpt lat="44.93789" lon="9.2135633"><ele>458.33333333333337</ele><time>2026-04-11T07:52:05.036Z</time></trkpt><trkpt lat="44.9378167" lon="9.2135983"><ele>457.1666666666667</ele><time>2026-04-11T07:52:06.04Z</time></trkpt><trkpt lat="44.9377567" lon="9.2136517"><ele>456.0</ele><time>2026-04-11T07:52:07.043Z</time></trkpt><trkpt lat="44.9377083" lon="9.213715"><ele>456.0</ele><time>2026-04-11T07:52:08.039Z</time></trkpt><trkpt lat="44.9376567" lon="9.2137917"><ele>456.0</ele><time>2026-04-11T07:52:09.042Z</time></trkpt><trkpt lat="44.9375933" lon="9.2138683"><ele>456.0</ele><time>2026-04-11T07:52:10.041Z</time></trkpt><trkpt lat="44.9375267" lon="9.21395"><ele>456.0</ele><time>2026-04-11T07:52:11.033Z</time></trkpt><trkpt lat="44.9374633" lon="9.2140167"><ele>456.0</ele><time>2026-04-11T07:52:12.038Z</time></trkpt><trkpt lat="44.9374" lon="9.2140667"><ele>456.0</ele><time>2026-04-11T07:52:13.039Z</time></trkpt><trkpt lat="44.937335" lon="9.21411"><ele>455.8333333333333</ele><time>2026-04-11T07:52:14.039Z</time></trkpt><trkpt lat="44.9372717" lon="9.2141583"><ele>455.66666666666663</ele><time>2026-04-11T07:52:15.039Z</time></trkpt><trkpt lat="44.9372067" lon="9.2142117"><ele>455.5</ele><time>2026-04-11T07:52:16.042Z</time></trkpt><trkpt lat="44.937135" lon="9.21427"><ele>455.3333333333333</ele><time>2026-04-11T07:52:17.039Z</time></trkpt><trkpt lat="44.9370617" lon="9.21433"><ele>455.16666666666663</ele><time>2026-04-11T07:52:18.041Z</time></trkpt><trkpt lat="44.9369933" lon="9.214395"><ele>455.0</ele><time>2026-04-11T07:52:19.038Z</time></trkpt><trkpt lat="44.9369267" lon="9.214465"><ele>454.99999999999994</ele><time>2026-04-11T07:52:20.041Z</time></trkpt><trkpt lat="44.9368567" lon="9.2145317"><ele>455.0</ele><time>2026-04-11T07:52:21.044Z</time></trkpt><trkpt lat="44.9367883" lon="9.214595"><ele>455.0</ele><time>2026-04-11T07:52:22.042Z</time></trkpt><trkpt lat="44.9367233" lon="9.2146633"><ele>455.0</ele><time>2026-04-11T07:52:23.038Z</time></trkpt><trkpt lat="44.9366667" lon="9.2147383"><ele>454.99999999999994</ele><time>2026-04-11T07:52:24.041Z</time></trkpt><trkpt lat="44.936615" lon="9.2148167"><ele>455.0</ele><time>2026-04-11T07:52:25.045Z</time></trkpt><trkpt lat="44.9365683" lon="9.2149"><ele>455.3333333333333</ele><time>2026-04-11T07:52:26.038Z</time></trkpt><trkpt lat="44.9365283" lon="9.2149833"><ele>455.66666666666663</ele><time>2026-04-11T07:52:27.038Z</time></trkpt><trkpt lat="44.93649" lon="9.2150583"><ele>456.0</ele><time>2026-04-11T07:52:28.042Z</time></trkpt><trkpt lat="44.9364367" lon="9.2151717"><ele>456.33333333333337</ele><time>2026-04-11T07:52:30.039Z</time></trkpt><trkpt lat="44.9363833" lon="9.2152733"><ele>456.6666666666667</ele><time>2026-04-11T07:52:32.042Z</time></trkpt><trkpt lat="44.9363533" lon="9.2153767"><ele>457.0</ele><time>2026-04-11T07:52:34.031Z</time></trkpt><trkpt lat="44.936335" lon="9.2155417"><ele>456.83333333333337</ele><time>2026-04-11T07:52:36.036Z</time></trkpt><trkpt lat="44.9363167" lon="9.215665"><ele>456.6666666666667</ele><time>2026-04-11T07:52:37.036Z</time></trkpt><trkpt lat="44.936285" lon="9.21576"><ele>456.5</ele><time>2026-04-11T07:52:38.038Z</time></trkpt><trkpt lat="44.936195" lon="9.2158683"><ele>456.33333333333337</ele><time>2026-04-11T07:52:40.044Z</time></trkpt><trkpt lat="44.936125" lon="9.2159167"><ele>456.1666666666667</ele><time>2026-04-11T07:52:41.038Z</time></trkpt><trkpt lat="44.93605" lon="9.2159733"><ele>456.0</ele><time>2026-04-11T07:52:42.037Z</time></trkpt><trkpt lat="44.935975" lon="9.21603"><ele>456.0</ele><time>2026-04-11T07:52:43.042Z</time></trkpt><trkpt lat="44.9359" lon="9.2160817"><ele>456.0</ele><time>2026-04-11T07:52:44.042Z</time></trkpt><trkpt lat="44.9358217" lon="9.2161183"><ele>456.0</ele><time>2026-04-11T07:52:45.044Z</time></trkpt><trkpt lat="44.9357433" lon="9.21614"><ele>456.0</ele><time>2026-04-11T07:52:46.039Z</time></trkpt><trkpt lat="44.9356683" lon="9.2161467"><ele>456.0</ele><time>2026-04-11T07:52:47.039Z</time></trkpt><trkpt lat="44.9355917" lon="9.216125"><ele>456.0</ele><time>2026-04-11T07:52:48.038Z</time></trkpt><trkpt lat="44.9355267" lon="9.2161067"><ele>456.75</ele><time>2026-04-11T07:52:49.036Z</time></trkpt><trkpt lat="44.9354117" lon="9.2161317"><ele>457.5</ele><time>2026-04-11T07:52:51.04Z</time></trkpt><trkpt lat="44.935325" lon="9.2163467"><ele>458.25</ele><time>2026-04-11T07:52:53.038Z</time></trkpt><trkpt lat="44.9352733" lon="9.2164783"><ele>459.0</ele><time>2026-04-11T07:52:54.041Z</time></trkpt><trkpt lat="44.9352083" lon="9.216595"><ele>459.75</ele><time>2026-04-11T07:52:55.042Z</time></trkpt><trkpt lat="44.935135" lon="9.2166933"><ele>460.5</ele><time>2026-04-11T07:52:56.033Z</time></trkpt><trkpt lat="44.935045" lon="9.2167833"><ele>461.25</ele><time>2026-04-11T07:52:57.045Z</time></trkpt><trkpt lat="44.9349333" lon="9.2168717"><ele>462.0</ele><time>2026-04-11T07:52:58.039Z</time></trkpt><trkpt lat="44.934815" lon="9.21697"><ele>462.0</ele><time>2026-04-11T07:52:59.04Z</time></trkpt><trkpt lat="44.934705" lon="9.21707"><ele>462.0</ele><time>2026-04-11T07:53:00.038Z</time></trkpt><trkpt lat="44.9346067" lon="9.2171617"><ele>462.0</ele><time>2026-04-11T07:53:01.038Z</time></trkpt><trkpt lat="44.9345117" lon="9.21723"><ele>462.0</ele><time>2026-04-11T07:53:02.03Z</time></trkpt><trkpt lat="44.9344083" lon="9.2172683"><ele>462.0</ele><time>2026-04-11T07:53:03.034Z</time></trkpt><trkpt lat="44.9343017" lon="9.21728"><ele>462.00000000000006</ele><time>2026-04-11T07:53:04.037Z</time></trkpt><trkpt lat="44.9341933" lon="9.217285"><ele>462.00000000000006</ele><time>2026-04-11T07:53:05.039Z</time></trkpt><trkpt lat="44.934085" lon="9.2172917"><ele>462.0</ele><time>2026-04-11T07:53:06.039Z</time></trkpt><trkpt lat="44.9339833" lon="9.2173117"><ele>462.0</ele><time>2026-04-11T07:53:07.04Z</time></trkpt><trkpt lat="44.9338983" lon="9.2173267"><ele>462.5</ele><time>2026-04-11T07:53:08.036Z</time></trkpt><trkpt lat="44.933815" lon="9.2173333"><ele>463.0</ele><time>2026-04-11T07:53:09.039Z</time></trkpt><trkpt lat="44.9337367" lon="9.217355"><ele>463.5</ele><time>2026-04-11T07:53:10.038Z</time></trkpt><trkpt lat="44.9336617" lon="9.2174017"><ele>464.0</ele><time>2026-04-11T07:53:11.039Z</time></trkpt><trkpt lat="44.93358" lon="9.2174433"><ele>464.5</ele><time>2026-04-11T07:53:12.041Z</time></trkpt><trkpt lat="44.9334917" lon="9.2174717"><ele>465.0</ele><time>2026-04-11T07:53:13.034Z</time></trkpt><trkpt lat="44.9333917" lon="9.2174917"><ele>466.75</ele><time>2026-04-11T07:53:14.035Z</time></trkpt><trkpt lat="44.9332683" lon="9.2175"><ele>468.5</ele><time>2026-04-11T07:53:15.033Z</time></trkpt><trkpt lat="44.9331333" lon="9.2174917"><ele>470.25</ele><time>2026-04-11T07:53:16.041Z</time></trkpt><trkpt lat="44.9330033" lon="9.21746"><ele>472.0</ele><time>2026-04-11T07:53:17.04Z</time></trkpt><trkpt lat="44.9328867" lon="9.217415"><ele>472.00000000000006</ele><time>2026-04-11T07:53:18.04Z</time></trkpt><trkpt lat="44.9327867" lon="9.2173867"><ele>472.0</ele><time>2026-04-11T07:53:19.041Z</time></trkpt><trkpt lat="44.932705" lon="9.21739"><ele>472.0</ele><time>2026-04-11T07:53:20.037Z</time></trkpt><trkpt lat="44.932645" lon="9.2174433"><ele>472.0</ele><time>2026-04-11T07:53:21.036Z</time></trkpt><trkpt lat="44.9326017" lon="9.2175283"><ele>472.00000000000006</ele><time>2026-04-11T07:53:22.04Z</time></trkpt><trkpt lat="44.9325817" lon="9.217635"><ele>472.0</ele><time>2026-04-11T07:53:23.037Z</time></trkpt><trkpt lat="44.9325767" lon="9.2177567"><ele>472.0</ele><time>2026-04-11T07:53:24.038Z</time></trkpt><trkpt lat="44.9325817" lon="9.2178983"><ele>472.00000000000006</ele><time>2026-04-11T07:53:25.041Z</time></trkpt><trkpt lat="44.9325767" lon="9.21806"><ele>472.00000000000006</ele><time>2026-04-11T07:53:26.038Z</time></trkpt><trkpt lat="44.932575" lon="9.2182183"><ele>472.0</ele><time>2026-04-11T07:53:27.034Z</time></trkpt><trkpt lat="44.9325683" lon="9.2183517"><ele>472.0</ele><time>2026-04-11T07:53:28.038Z</time></trkpt><trkpt lat="44.93254" lon="9.218435"><ele>475.40000000000003</ele><time>2026-04-11T07:53:29.038Z</time></trkpt><trkpt lat="44.9324767" lon="9.2185033"><ele>478.80000000000007</ele><time>2026-04-11T07:53:31.041Z</time></trkpt><trkpt lat="44.9324233" lon="9.2184233"><ele>482.2</ele><time>2026-04-11T07:53:33.04Z</time></trkpt><trkpt lat="44.932395" lon="9.2182733"><ele>485.6</ele><time>2026-04-11T07:53:34.04Z</time></trkpt><trkpt lat="44.9323567" lon="9.2180983"><ele>489.0</ele><time>2026-04-11T07:53:35.038Z</time></trkpt><trkpt lat="44.932325" lon="9.21793"><ele>489.25</ele><time>2026-04-11T07:53:36.036Z</time></trkpt><trkpt lat="44.932305" lon="9.217745"><ele>489.5</ele><time>2026-04-11T07:53:37.038Z</time></trkpt><trkpt lat="44.9322817" lon="9.2175633"><ele>489.75</ele><time>2026-04-11T07:53:38.037Z</time></trkpt><trkpt lat="44.93225" lon="9.2173917"><ele>490.0</ele><time>2026-04-11T07:53:39.04Z</time></trkpt><trkpt lat="44.932195" lon="9.21725"><ele>487.25</ele><time>2026-04-11T07:53:40.04Z</time></trkpt><trkpt lat="44.9321133" lon="9.2171083"><ele>484.5</ele><time>2026-04-11T07:53:41.04Z</time></trkpt><trkpt lat="44.9320233" lon="9.2169717"><ele>481.75</ele><time>2026-04-11T07:53:42.037Z</time></trkpt><trkpt lat="44.9319317" lon="9.21685"><ele>479.0</ele><time>2026-04-11T07:53:43.041Z</time></trkpt><trkpt lat="44.9318333" lon="9.2167583"><ele>479.0</ele><time>2026-04-11T07:53:44.034Z</time></trkpt><trkpt lat="44.93173" lon="9.2166983"><ele>479.0</ele><time>2026-04-11T07:53:45.04Z</time></trkpt><trkpt lat="44.9316383" lon="9.21664"><ele>479.0</ele><time>2026-04-11T07:53:46.038Z</time></trkpt><trkpt lat="44.9315517" lon="9.216555"><ele>479.0</ele><time>2026-04-11T07:53:47.038Z</time></trkpt><trkpt lat="44.931465" lon="9.21646"><ele>479.0</ele><time>2026-04-11T07:53:48.041Z</time></trkpt><trkpt lat="44.9313767" lon="9.2163733"><ele>481.4</ele><time>2026-04-11T07:53:49.041Z</time></trkpt><trkpt lat="44.9312817" lon="9.2163317"><ele>483.79999999999995</ele><time>2026-04-11T07:53:50.039Z</time></trkpt><trkpt lat="44.93118" lon="9.2163333"><ele>486.20000000000005</ele><time>2026-04-11T07:53:51.042Z</time></trkpt><trkpt lat="44.9310833" lon="9.2163683"><ele>488.6</ele><time>2026-04-11T07:53:52.039Z</time></trkpt><trkpt lat="44.930985" lon="9.2164467"><ele>491.0</ele><time>2026-04-11T07:53:53.038Z</time></trkpt><trkpt lat="44.9308767" lon="9.2165533"><ele>493.75</ele><time>2026-04-11T07:53:54.039Z</time></trkpt><trkpt lat="44.9307567" lon="9.2166667"><ele>496.5</ele><time>2026-04-11T07:53:55.044Z</time></trkpt><trkpt lat="44.9306433" lon="9.2167717"><ele>499.25</ele><time>2026-04-11T07:53:56.042Z</time></trkpt><trkpt lat="44.9305367" lon="9.2168683"><ele>502.0</ele><time>2026-04-11T07:53:57.041Z</time></trkpt><trkpt lat="44.9304233" lon="9.2169383"><ele>502.0</ele><time>2026-04-11T07:53:58.039Z</time></trkpt><trkpt lat="44.930305" lon="9.2169917"><ele>502.0</ele><time>2026-04-11T07:53:59.042Z</time></trkpt><trkpt lat="44.930175" lon="9.2170383"><ele>502.0</ele><time>2026-04-11T07:54:00.034Z</time></trkpt><trkpt lat="44.93005" lon="9.217095"><ele>502.0</ele><time>2026-04-11T07:54:01.042Z</time></trkpt><trkpt lat="44.9299483" lon="9.21717"><ele>502.0</ele><time>2026-04-11T07:54:02.032Z</time></trkpt><trkpt lat="44.92986" lon="9.21725"><ele>502.00000000000006</ele><time>2026-04-11T07:54:03.041Z</time></trkpt><trkpt lat="44.9297783" lon="9.2172917"><ele>502.00000000000006</ele><time>2026-04-11T07:54:04.043Z</time></trkpt><trkpt lat="44.9297" lon="9.2172933"><ele>502.0</ele><time>2026-04-11T07:54:05.04Z</time></trkpt><trkpt lat="44.929615" lon="9.2172533"><ele>502.0</ele><time>2026-04-11T07:54:06.041Z</time></trkpt><trkpt lat="44.9295133" lon="9.2171833"><ele>502.0</ele><time>2026-04-11T07:54:07.043Z</time></trkpt><trkpt lat="44.9293933" lon="9.2171267"><ele>502.0</ele><time>2026-04-11T07:54:08.043Z</time></trkpt><trkpt lat="44.9292683" lon="9.217085"><ele>502.0</ele><time>2026-04-11T07:54:09.039Z</time></trkpt><trkpt lat="44.9291267" lon="9.2170983"><ele>502.0</ele><time>2026-04-11T07:54:10.042Z</time></trkpt><trkpt lat="44.92898" lon="9.2171483"><ele>504.33333333333337</ele><time>2026-04-11T07:54:11.04Z</time></trkpt><trkpt lat="44.9288267" lon="9.2172117"><ele>506.66666666666663</ele><time>2026-04-11T07:54:12.041Z</time></trkpt><trkpt lat="44.9286683" lon="9.2172833"><ele>509.0</ele><time>2026-04-11T07:54:13.038Z</time></trkpt><trkpt lat="44.9285" lon="9.2173717"><ele>515.0</ele><time>2026-04-11T07:54:14.039Z</time></trkpt><trkpt lat="44.9283317" lon="9.21747"><ele>521.0</ele><time>2026-04-11T07:54:15.042Z</time></trkpt><trkpt lat="44.9281783" lon="9.2175667"><ele>527.0</ele><time>2026-04-11T07:54:16.038Z</time></trkpt><trkpt lat="44.9280433" lon="9.21766"><ele>527.0</ele><time>2026-04-11T07:54:17.038Z</time></trkpt><trkpt lat="44.9279283" lon="9.2177383"><ele>527.0</ele><time>2026-04-11T07:54:18.04Z</time></trkpt><trkpt lat="44.9278117" lon="9.2177983"><ele>527.0</ele><time>2026-04-11T07:54:19.037Z</time></trkpt><trkpt lat="44.9276917" lon="9.21783"><ele>527.0</ele><time>2026-04-11T07:54:20.041Z</time></trkpt><trkpt lat="44.9275667" lon="9.2178517"><ele>529.2</ele><time>2026-04-11T07:54:21.039Z</time></trkpt><trkpt lat="44.9274317" lon="9.21787"><ele>531.4000000000001</ele><time>2026-04-11T07:54:22.04Z</time></trkpt><trkpt lat="44.9273033" lon="9.21789"><ele>533.5999999999999</ele><time>2026-04-11T07:54:23.042Z</time></trkpt><trkpt lat="44.927205" lon="9.2178933"><ele>535.8</ele><time>2026-04-11T07:54:24.042Z</time></trkpt><trkpt lat="44.9271233" lon="9.2178683"><ele>538.0</ele><time>2026-04-11T07:54:25.038Z</time></trkpt><trkpt lat="44.9270517" lon="9.2178283"><ele>538.0</ele><time>2026-04-11T07:54:26.039Z</time></trkpt><trkpt lat="44.9269617" lon="9.2177217"><ele>538.0</ele><time>2026-04-11T07:54:27.031Z</time></trkpt><trkpt lat="44.926865" lon="9.2175967"><ele>538.0</ele><time>2026-04-11T07:54:28.041Z</time></trkpt><trkpt lat="44.9267517" lon="9.217455"><ele>538.0</ele><time>2026-04-11T07:54:29.042Z</time></trkpt><trkpt lat="44.9266333" lon="9.2173083"><ele>535.75</ele><time>2026-04-11T07:54:30.041Z</time></trkpt><trkpt lat="44.9265117" lon="9.2171733"><ele>533.5</ele><time>2026-04-11T07:54:31.043Z</time></trkpt><trkpt lat="44.9263883" lon="9.2170683"><ele>531.25</ele><time>2026-04-11T07:54:32.039Z</time></trkpt><trkpt lat="44.92627" lon="9.2169717"><ele>529.0</ele><time>2026-04-11T07:54:33.04Z</time></trkpt><trkpt lat="44.9261567" lon="9.21687"><ele>529.0</ele><time>2026-04-11T07:54:34.041Z</time></trkpt><trkpt lat="44.9260517" lon="9.216765"><ele>529.0</ele><time>2026-04-11T07:54:35.042Z</time></trkpt><trkpt lat="44.925955" lon="9.2166467"><ele>529.0</ele><time>2026-04-11T07:54:36.04Z</time></trkpt><trkpt lat="44.925875" lon="9.2165083"><ele>529.0</ele><time>2026-04-11T07:54:37.044Z</time></trkpt><trkpt lat="44.92581" lon="9.2163617"><ele>529.0</ele><time>2026-04-11T07:54:38.038Z</time></trkpt><trkpt lat="44.92575" lon="9.21624"><ele>529.0</ele><time>2026-04-11T07:54:39.04Z</time></trkpt><trkpt lat="44.925685" lon="9.2161617"><ele>529.0</ele><time>2026-04-11T07:54:40.04Z</time></trkpt><trkpt lat="44.92561" lon="9.2161117"><ele>529.0</ele><time>2026-04-11T07:54:41.038Z</time></trkpt><trkpt lat="44.9255" lon="9.2161033"><ele>529.0</ele><time>2026-04-11T07:54:42.041Z</time></trkpt><trkpt lat="44.9253817" lon="9.216115"><ele>529.0</ele><time>2026-04-11T07:54:43.04Z</time></trkpt><trkpt lat="44.9252517" lon="9.2161267"><ele>529.0</ele><time>2026-04-11T07:54:44.034Z</time></trkpt><trkpt lat="44.92512" lon="9.2161333"><ele>529.0</ele><time>2026-04-11T07:54:45.039Z</time></trkpt><trkpt lat="44.92498" lon="9.216135"><ele>529.0</ele><time>2026-04-11T07:54:46.036Z</time></trkpt><trkpt lat="44.924845" lon="9.2161267"><ele>527.5</ele><time>2026-04-11T07:54:47.039Z</time></trkpt><trkpt lat="44.924705" lon="9.2161"><ele>526.0</ele><time>2026-04-11T07:54:48.038Z</time></trkpt><trkpt lat="44.9245617" lon="9.21607"><ele>524.5</ele><time>2026-04-11T07:54:49.045Z</time></trkpt><trkpt lat="44.9244133" lon="9.21604"><ele>523.0</ele><time>2026-04-11T07:54:50.035Z</time></trkpt><trkpt lat="44.9242633" lon="9.2160183"><ele>520.5</ele><time>2026-04-11T07:54:51.038Z</time></trkpt><trkpt lat="44.9241117" lon="9.216"><ele>518.0</ele><time>2026-04-11T07:54:52.037Z</time></trkpt><trkpt lat="44.9239683" lon="9.2159933"><ele>515.5</ele><time>2026-04-11T07:54:53.033Z</time></trkpt><trkpt lat="44.923825" lon="9.2159933"><ele>513.0</ele><time>2026-04-11T07:54:54.039Z</time></trkpt><trkpt lat="44.9236783" lon="9.2160033"><ele>513.0</ele><time>2026-04-11T07:54:55.039Z</time></trkpt><trkpt lat="44.9235333" lon="9.216025"><ele>513.0</ele><time>2026-04-11T07:54:56.041Z</time></trkpt><trkpt lat="44.92339" lon="9.2160533"><ele>513.0</ele><time>2026-04-11T07:54:57.035Z</time></trkpt><trkpt lat="44.9232467" lon="9.2160817"><ele>513.0</ele><time>2026-04-11T07:54:58.038Z</time></trkpt><trkpt lat="44.9231017" lon="9.216105"><ele>510.5</ele><time>2026-04-11T07:54:59.041Z</time></trkpt><trkpt lat="44.92296" lon="9.2161183"><ele>508.0</ele><time>2026-04-11T07:55:00.038Z</time></trkpt><trkpt lat="44.92282" lon="9.216125"><ele>505.5</ele><time>2026-04-11T07:55:01.042Z</time></trkpt><trkpt lat="44.922685" lon="9.2161217"><ele>503.0</ele><time>2026-04-11T07:55:02.041Z</time></trkpt><trkpt lat="44.9225483" lon="9.216095"><ele>501.75</ele><time>2026-04-11T07:55:03.041Z</time></trkpt><trkpt lat="44.9224117" lon="9.2160533"><ele>500.5</ele><time>2026-04-11T07:55:04.04Z</time></trkpt><trkpt lat="44.92227" lon="9.2160033"><ele>499.25</ele><time>2026-04-11T07:55:05.036Z</time></trkpt><trkpt lat="44.92212" lon="9.2159517"><ele>498.0</ele><time>2026-04-11T07:55:06.038Z</time></trkpt><trkpt lat="44.921975" lon="9.2159183"><ele>498.0</ele><time>2026-04-11T07:55:07.034Z</time></trkpt><trkpt lat="44.9218317" lon="9.215895"><ele>498.0</ele><time>2026-04-11T07:55:08.041Z</time></trkpt><trkpt lat="44.9216933" lon="9.215885"><ele>498.0</ele><time>2026-04-11T07:55:09.037Z</time></trkpt><trkpt lat="44.9215567" lon="9.21589"><ele>498.0</ele><time>2026-04-11T07:55:10.044Z</time></trkpt><trkpt lat="44.9214383" lon="9.2159033"><ele>499.5</ele><time>2026-04-11T07:55:11.038Z</time></trkpt><trkpt lat="44.921325" lon="9.215905"><ele>501.0</ele><time>2026-04-11T07:55:12.04Z</time></trkpt><trkpt lat="44.9212183" lon="9.21588"><ele>502.5</ele><time>2026-04-11T07:55:13.044Z</time></trkpt><trkpt lat="44.9211133" lon="9.2158133"><ele>504.0</ele><time>2026-04-11T07:55:14.037Z</time></trkpt><trkpt lat="44.921" lon="9.2157433"><ele>503.75</ele><time>2026-04-11T07:55:15.041Z</time></trkpt><trkpt lat="44.9208633" lon="9.2156817"><ele>503.5</ele><time>2026-04-11T07:55:16.038Z</time></trkpt><trkpt lat="44.9207233" lon="9.2156317"><ele>503.25</ele><time>2026-04-11T07:55:17.038Z</time></trkpt><trkpt lat="44.920585" lon="9.215575"><ele>503.0</ele><time>2026-04-11T07:55:18.038Z</time></trkpt><trkpt lat="44.92046" lon="9.215515"><ele>503.0</ele><time>2026-04-11T07:55:19.039Z</time></trkpt><trkpt lat="44.92035" lon="9.2154433"><ele>503.0</ele><time>2026-04-11T07:55:20.036Z</time></trkpt><trkpt lat="44.920255" lon="9.2153533"><ele>503.0</ele><time>2026-04-11T07:55:21.04Z</time></trkpt><trkpt lat="44.9201633" lon="9.2152517"><ele>503.0</ele><time>2026-04-11T07:55:22.038Z</time></trkpt><trkpt lat="44.9200833" lon="9.21512"><ele>505.0</ele><time>2026-04-11T07:55:23.039Z</time></trkpt><trkpt lat="44.9200083" lon="9.2149733"><ele>507.0</ele><time>2026-04-11T07:55:24.04Z</time></trkpt><trkpt lat="44.919935" lon="9.2148317"><ele>509.0</ele><time>2026-04-11T07:55:25.039Z</time></trkpt><trkpt lat="44.9198633" lon="9.2147"><ele>511.0</ele><time>2026-04-11T07:55:26.041Z</time></trkpt><trkpt lat="44.91978" lon="9.2145667"><ele>511.0</ele><time>2026-04-11T07:55:27.035Z</time></trkpt><trkpt lat="44.9196967" lon="9.2144367"><ele>511.0</ele><time>2026-04-11T07:55:28.042Z</time></trkpt><trkpt lat="44.9196083" lon="9.214315"><ele>511.0</ele><time>2026-04-11T07:55:29.04Z</time></trkpt><trkpt lat="44.9195083" lon="9.214185"><ele>511.0</ele><time>2026-04-11T07:55:30.038Z</time></trkpt><trkpt lat="44.9193967" lon="9.2140667"><ele>510.0</ele><time>2026-04-11T07:55:31.04Z</time></trkpt><trkpt lat="44.91928" lon="9.21398"><ele>509.0</ele><time>2026-04-11T07:55:32.04Z</time></trkpt><trkpt lat="44.9191617" lon="9.2139467"><ele>508.0</ele><time>2026-04-11T07:55:33.041Z</time></trkpt><trkpt lat="44.91905" lon="9.2139667"><ele>507.0</ele><time>2026-04-11T07:55:34.042Z</time></trkpt><trkpt lat="44.9189367" lon="9.2140083"><ele>509.5</ele><time>2026-04-11T07:55:35.043Z</time></trkpt><trkpt lat="44.9188183" lon="9.2140367"><ele>512.0</ele><time>2026-04-11T07:55:36.034Z</time></trkpt><trkpt lat="44.9187033" lon="9.21406"><ele>514.5</ele><time>2026-04-11T07:55:37.039Z</time></trkpt><trkpt lat="44.918585" lon="9.2140583"><ele>517.0</ele><time>2026-04-11T07:55:38.039Z</time></trkpt><trkpt lat="44.9184617" lon="9.21403"><ele>518.5</ele><time>2026-04-11T07:55:39.042Z</time></trkpt><trkpt lat="44.9183233" lon="9.214"><ele>520.0</ele><time>2026-04-11T07:55:40.041Z</time></trkpt><trkpt lat="44.918175" lon="9.2139917"><ele>521.5</ele><time>2026-04-11T07:55:41.037Z</time></trkpt><trkpt lat="44.91802" lon="9.2140017"><ele>523.0</ele><time>2026-04-11T07:55:42.033Z</time></trkpt><trkpt lat="44.9178733" lon="9.2140167"><ele>523.0</ele><time>2026-04-11T07:55:43.039Z</time></trkpt><trkpt lat="44.9177283" lon="9.2140333"><ele>523.0</ele><time>2026-04-11T07:55:44.04Z</time></trkpt><trkpt lat="44.917585" lon="9.21404"><ele>523.0</ele><time>2026-04-11T07:55:45.038Z</time></trkpt><trkpt lat="44.917445" lon="9.2140383"><ele>523.0</ele><time>2026-04-11T07:55:46.042Z</time></trkpt><trkpt lat="44.9173117" lon="9.2140283"><ele>524.25</ele><time>2026-04-11T07:55:47.042Z</time></trkpt><trkpt lat="44.9171783" lon="9.214035"><ele>525.5</ele><time>2026-04-11T07:55:48.044Z</time></trkpt><trkpt lat="44.9170433" lon="9.2140717"><ele>526.75</ele><time>2026-04-11T07:55:49.042Z</time></trkpt><trkpt lat="44.9169133" lon="9.2141233"><ele>528.0</ele><time>2026-04-11T07:55:50.042Z</time></trkpt><trkpt lat="44.91679" lon="9.2141833"><ele>529.8</ele><time>2026-04-11T07:55:51.039Z</time></trkpt><trkpt lat="44.91667" lon="9.21423"><ele>531.5999999999999</ele><time>2026-04-11T07:55:52.036Z</time></trkpt><trkpt lat="44.91656" lon="9.2142633"><ele>533.4000000000001</ele><time>2026-04-11T07:55:53.039Z</time></trkpt><trkpt lat="44.9164717" lon="9.2142633"><ele>535.2</ele><time>2026-04-11T07:55:54.036Z</time></trkpt><trkpt lat="44.9163967" lon="9.214225"><ele>537.0</ele><time>2026-04-11T07:55:55.041Z</time></trkpt><trkpt lat="44.9163367" lon="9.2141617"><ele>537.0</ele><time>2026-04-11T07:55:56.042Z</time></trkpt><trkpt lat="44.916295" lon="9.214045"><ele>537.0</ele><time>2026-04-11T07:55:57.043Z</time></trkpt><trkpt lat="44.91628" lon="9.2138733"><ele>537.0</ele><time>2026-04-11T07:55:58.041Z</time></trkpt><trkpt lat="44.9162533" lon="9.21372"><ele>537.0</ele><time>2026-04-11T07:55:59.042Z</time></trkpt><trkpt lat="44.9162117" lon="9.2135717"><ele>537.0</ele><time>2026-04-11T07:56:00.041Z</time></trkpt><trkpt lat="44.9161483" lon="9.2134433"><ele>538.5</ele><time>2026-04-11T07:56:01.039Z</time></trkpt><trkpt lat="44.91606" lon="9.213325"><ele>540.0</ele><time>2026-04-11T07:56:02.042Z</time></trkpt><trkpt lat="44.915955" lon="9.2132283"><ele>541.5</ele><time>2026-04-11T07:56:03.04Z</time></trkpt><trkpt lat="44.9158433" lon="9.2131483"><ele>543.0</ele><time>2026-04-11T07:56:04.041Z</time></trkpt><trkpt lat="44.91574" lon="9.2130817"><ele>544.0</ele><time>2026-04-11T07:56:05.038Z</time></trkpt><trkpt lat="44.9156567" lon="9.21302"><ele>545.0</ele><time>2026-04-11T07:56:06.041Z</time></trkpt><trkpt lat="44.915585" lon="9.212975"><ele>546.0</ele><time>2026-04-11T07:56:07.039Z</time></trkpt><trkpt lat="44.91551" lon="9.2129733"><ele>547.0</ele><time>2026-04-11T07:56:08.04Z</time></trkpt><trkpt lat="44.9154333" lon="9.2129967"><ele>548.0</ele><time>2026-04-11T07:56:09.04Z</time></trkpt><trkpt lat="44.9153217" lon="9.2129883"><ele>549.0</ele><time>2026-04-11T07:56:10.04Z</time></trkpt><trkpt lat="44.9151933" lon="9.2129783"><ele>546.5</ele><time>2026-04-11T07:56:11.039Z</time></trkpt><trkpt lat="44.9150583" lon="9.212975"><ele>544.0</ele><time>2026-04-11T07:56:12.039Z</time></trkpt><trkpt lat="44.9149133" lon="9.2129717"><ele>541.5</ele><time>2026-04-11T07:56:13.039Z</time></trkpt><trkpt lat="44.9147717" lon="9.2129483"><ele>539.0</ele><time>2026-04-11T07:56:14.043Z</time></trkpt><trkpt lat="44.9146367" lon="9.2129083"><ele>539.0</ele><time>2026-04-11T07:56:15.038Z</time></trkpt><trkpt lat="44.9145083" lon="9.2128683"><ele>539.0</ele><time>2026-04-11T07:56:16.039Z</time></trkpt><trkpt lat="44.91437" lon="9.212855"><ele>539.0</ele><time>2026-04-11T07:56:17.042Z</time></trkpt><trkpt lat="44.9142283" lon="9.212875"><ele>539.0</ele><time>2026-04-11T07:56:18.042Z</time></trkpt><trkpt lat="44.914095" lon="9.2129183"><ele>535.0</ele><time>2026-04-11T07:56:19.033Z</time></trkpt><trkpt lat="44.913965" lon="9.2129717"><ele>531.0</ele><time>2026-04-11T07:56:20.037Z</time></trkpt><trkpt lat="44.91384" lon="9.2130383"><ele>527.0</ele><time>2026-04-11T07:56:21.04Z</time></trkpt><trkpt lat="44.913725" lon="9.2131267"><ele>523.0</ele><time>2026-04-11T07:56:22.043Z</time></trkpt><trkpt lat="44.9136233" lon="9.2132383"><ele>522.25</ele><time>2026-04-11T07:56:23.041Z</time></trkpt><trkpt lat="44.913535" lon="9.213365"><ele>521.5</ele><time>2026-04-11T07:56:24.039Z</time></trkpt><trkpt lat="44.913455" lon="9.2134867"><ele>520.75</ele><time>2026-04-11T07:56:25.034Z</time></trkpt><trkpt lat="44.9133717" lon="9.2135983"><ele>520.0</ele><time>2026-04-11T07:56:26.039Z</time></trkpt><trkpt lat="44.9132933" lon="9.2137083"><ele>519.75</ele><time>2026-04-11T07:56:27.041Z</time></trkpt><trkpt lat="44.913215" lon="9.2138267"><ele>519.5</ele><time>2026-04-11T07:56:28.038Z</time></trkpt><trkpt lat="44.9131367" lon="9.2139583"><ele>519.25</ele><time>2026-04-11T07:56:29.04Z</time></trkpt><trkpt lat="44.9130567" lon="9.2140933"><ele>519.0</ele><time>2026-04-11T07:56:30.039Z</time></trkpt><trkpt lat="44.9129767" lon="9.2142217"><ele>519.0</ele><time>2026-04-11T07:56:31.037Z</time></trkpt><trkpt lat="44.9128917" lon="9.21435"><ele>519.0</ele><time>2026-04-11T07:56:32.039Z</time></trkpt><trkpt lat="44.91281" lon="9.2144717"><ele>519.0</ele><time>2026-04-11T07:56:33.039Z</time></trkpt><trkpt lat="44.9127283" lon="9.2145883"><ele>519.0</ele><time>2026-04-11T07:56:34.043Z</time></trkpt><trkpt lat="44.91265" lon="9.2147017"><ele>519.0</ele><time>2026-04-11T07:56:35.042Z</time></trkpt><trkpt lat="44.9125733" lon="9.2148133"><ele>519.0</ele><time>2026-04-11T07:56:36.038Z</time></trkpt><trkpt lat="44.9125" lon="9.2149267"><ele>519.0</ele><time>2026-04-11T07:56:37.042Z</time></trkpt><trkpt lat="44.9124283" lon="9.21503"><ele>519.0</ele><time>2026-04-11T07:56:38.043Z</time></trkpt><trkpt lat="44.9123617" lon="9.215125"><ele>519.0</ele><time>2026-04-11T07:56:39.039Z</time></trkpt><trkpt lat="44.912295" lon="9.2152017"><ele>518.0</ele><time>2026-04-11T07:56:40.042Z</time></trkpt><trkpt lat="44.9122233" lon="9.2152533"><ele>517.0</ele><time>2026-04-11T07:56:41.038Z</time></trkpt><trkpt lat="44.9121433" lon="9.2152817"><ele>516.0</ele><time>2026-04-11T07:56:42.038Z</time></trkpt><trkpt lat="44.9120383" lon="9.2152717"><ele>515.0</ele><time>2026-04-11T07:56:43.04Z</time></trkpt><trkpt lat="44.9118983" lon="9.21522"><ele>514.0</ele><time>2026-04-11T07:56:44.036Z</time></trkpt><trkpt lat="44.91175" lon="9.215175"><ele>512.0</ele><time>2026-04-11T07:56:45.044Z</time></trkpt><trkpt lat="44.9115967" lon="9.21514"><ele>510.0</ele><time>2026-04-11T07:56:46.032Z</time></trkpt><trkpt lat="44.9114467" lon="9.2151"><ele>508.0</ele><time>2026-04-11T07:56:47.04Z</time></trkpt><trkpt lat="44.9113" lon="9.215065"><ele>508.0</ele><time>2026-04-11T07:56:48.042Z</time></trkpt><trkpt lat="44.9111533" lon="9.21504"><ele>508.0</ele><time>2026-04-11T07:56:49.041Z</time></trkpt><trkpt lat="44.911005" lon="9.2150417"><ele>508.0</ele><time>2026-04-11T07:56:50.039Z</time></trkpt><trkpt lat="44.9108583" lon="9.21507"><ele>508.0</ele><time>2026-04-11T07:56:51.039Z</time></trkpt><trkpt lat="44.9107167" lon="9.2151183"><ele>507.0</ele><time>2026-04-11T07:56:52.039Z</time></trkpt><trkpt lat="44.9105867" lon="9.21518"><ele>506.0</ele><time>2026-04-11T07:56:53.039Z</time></trkpt><trkpt lat="44.9104567" lon="9.2152467"><ele>505.0</ele><time>2026-04-11T07:56:54.041Z</time></trkpt><trkpt lat="44.9103167" lon="9.215315"><ele>504.0</ele><time>2026-04-11T07:56:55.041Z</time></trkpt><trkpt lat="44.910175" lon="9.2153867"><ele>505.0</ele><time>2026-04-11T07:56:56.039Z</time></trkpt><trkpt lat="44.9100333" lon="9.2154683"><ele>506.0</ele><time>2026-04-11T07:56:57.041Z</time></trkpt><trkpt lat="44.909895" lon="9.21556"><ele>507.0</ele><time>2026-04-11T07:56:58.035Z</time></trkpt><trkpt lat="44.9097617" lon="9.2156583"><ele>505.25</ele><time>2026-04-11T07:56:59.039Z</time></trkpt><trkpt lat="44.9096333" lon="9.215755"><ele>503.5</ele><time>2026-04-11T07:57:00.036Z</time></trkpt><trkpt lat="44.90951" lon="9.2158367"><ele>501.75</ele><time>2026-04-11T07:57:01.039Z</time></trkpt><trkpt lat="44.9093833" lon="9.2159067"><ele>500.0</ele><time>2026-04-11T07:57:02.042Z</time></trkpt><trkpt lat="44.9092533" lon="9.2159567"><ele>500.0</ele><time>2026-04-11T07:57:03.042Z</time></trkpt><trkpt lat="44.9091217" lon="9.21598"><ele>500.0</ele><time>2026-04-11T07:57:04.037Z</time></trkpt><trkpt lat="44.908985" lon="9.215985"><ele>500.0</ele><time>2026-04-11T07:57:05.036Z</time></trkpt><trkpt lat="44.9088567" lon="9.2159783"><ele>500.0</ele><time>2026-04-11T07:57:06.037Z</time></trkpt><trkpt lat="44.908725" lon="9.2159733"><ele>500.0</ele><time>2026-04-11T07:57:07.039Z</time></trkpt><trkpt lat="44.908595" lon="9.215985"><ele>500.0</ele><time>2026-04-11T07:57:08.04Z</time></trkpt><trkpt lat="44.9084667" lon="9.21602"><ele>500.0</ele><time>2026-04-11T07:57:09.036Z</time></trkpt><trkpt lat="44.908355" lon="9.216095"><ele>500.0</ele><time>2026-04-11T07:57:10.039Z</time></trkpt><trkpt lat="44.9082517" lon="9.2162067"><ele>499.0</ele><time>2026-04-11T07:57:11.04Z</time></trkpt><trkpt lat="44.9081617" lon="9.2163283"><ele>498.0</ele><time>2026-04-11T07:57:12.041Z</time></trkpt><trkpt lat="44.9080733" lon="9.2164467"><ele>497.0</ele><time>2026-04-11T07:57:13.037Z</time></trkpt><trkpt lat="44.9080017" lon="9.2165483"><ele>496.0</ele><time>2026-04-11T07:57:14.04Z</time></trkpt><trkpt lat="44.9079517" lon="9.2166333"><ele>495.0</ele><time>2026-04-11T07:57:15.038Z</time></trkpt><trkpt lat="44.9079133" lon="9.21673"><ele>494.75</ele><time>2026-04-11T07:57:17.034Z</time></trkpt><trkpt lat="44.9078967" lon="9.21692"><ele>494.5</ele><time>2026-04-11T07:57:24.034Z</time></trkpt><trkpt lat="44.90789" lon="9.21706"><ele>494.25</ele><time>2026-04-11T07:57:25.039Z</time></trkpt><trkpt lat="44.9078833" lon="9.2172267"><ele>494.0</ele><time>2026-04-11T07:57:26.038Z</time></trkpt><trkpt lat="44.9078683" lon="9.21741"><ele>493.75</ele><time>2026-04-11T07:57:27.037Z</time></trkpt><trkpt lat="44.9078467" lon="9.2176033"><ele>493.5</ele><time>2026-04-11T07:57:28.042Z</time></trkpt><trkpt lat="44.90782" lon="9.217795"><ele>493.25</ele><time>2026-04-11T07:57:29.04Z</time></trkpt><trkpt lat="44.907785" lon="9.217975"><ele>493.0</ele><time>2026-04-11T07:57:30.04Z</time></trkpt><trkpt lat="44.9077383" lon="9.2181367"><ele>493.75</ele><time>2026-04-11T07:57:31.041Z</time></trkpt><trkpt lat="44.9076667" lon="9.2182783"><ele>494.5</ele><time>2026-04-11T07:57:32.041Z</time></trkpt><trkpt lat="44.9075717" lon="9.2183933"><ele>495.25</ele><time>2026-04-11T07:57:33.04Z</time></trkpt><trkpt lat="44.90746" lon="9.2184867"><ele>496.0</ele><time>2026-04-11T07:57:34.037Z</time></trkpt><trkpt lat="44.9073317" lon="9.2185633"><ele>496.0</ele><time>2026-04-11T07:57:35.04Z</time></trkpt><trkpt lat="44.9072017" lon="9.2186383"><ele>496.0</ele><time>2026-04-11T07:57:36.038Z</time></trkpt><trkpt lat="44.9070783" lon="9.2187167"><ele>496.0</ele><time>2026-04-11T07:57:37.039Z</time></trkpt><trkpt lat="44.906965" lon="9.2188"><ele>496.0</ele><time>2026-04-11T07:57:38.038Z</time></trkpt><trkpt lat="44.9068617" lon="9.2188867"><ele>495.0</ele><time>2026-04-11T07:57:39.033Z</time></trkpt><trkpt lat="44.90677" lon="9.2189883"><ele>494.0</ele><time>2026-04-11T07:57:40.038Z</time></trkpt><trkpt lat="44.9066883" lon="9.2191133"><ele>493.0</ele><time>2026-04-11T07:57:41.041Z</time></trkpt><trkpt lat="44.9066117" lon="9.219255"><ele>492.0</ele><time>2026-04-11T07:57:42.034Z</time></trkpt><trkpt lat="44.9065433" lon="9.2194167"><ele>492.0</ele><time>2026-04-11T07:57:43.039Z</time></trkpt><trkpt lat="44.9064867" lon="9.219605"><ele>492.0</ele><time>2026-04-11T07:57:44.039Z</time></trkpt><trkpt lat="44.906445" lon="9.21982"><ele>492.0</ele><time>2026-04-11T07:57:45.037Z</time></trkpt><trkpt lat="44.9064133" lon="9.2200617"><ele>491.66666666666663</ele><time>2026-04-11T07:57:46.039Z</time></trkpt><trkpt lat="44.9063867" lon="9.220305"><ele>491.3333333333333</ele><time>2026-04-11T07:57:47.033Z</time></trkpt><trkpt lat="44.9063667" lon="9.2205233"><ele>491.0</ele><time>2026-04-11T07:57:48.042Z</time></trkpt><trkpt lat="44.9063483" lon="9.2207183"><ele>491.0</ele><time>2026-04-11T07:57:49.036Z</time></trkpt><trkpt lat="44.906325" lon="9.2209117"><ele>491.0</ele><time>2026-04-11T07:57:50.04Z</time></trkpt><trkpt lat="44.906285" lon="9.2211083"><ele>491.0</ele><time>2026-04-11T07:57:51.038Z</time></trkpt><trkpt lat="44.906215" lon="9.2212967"><ele>491.0</ele><time>2026-04-11T07:57:52.035Z</time></trkpt><trkpt lat="44.9061383" lon="9.22148"><ele>490.75</ele><time>2026-04-11T07:57:53.037Z</time></trkpt><trkpt lat="44.9060667" lon="9.2216583"><ele>490.5</ele><time>2026-04-11T07:57:54.041Z</time></trkpt><trkpt lat="44.9059967" lon="9.22182"><ele>490.25</ele><time>2026-04-11T07:57:55.031Z</time></trkpt><trkpt lat="44.9059183" lon="9.22197"><ele>490.0</ele><time>2026-04-11T07:57:56.035Z</time></trkpt><trkpt lat="44.9058167" lon="9.222095"><ele>493.0</ele><time>2026-04-11T07:57:57.04Z</time></trkpt><trkpt lat="44.9056967" lon="9.222185"><ele>496.0</ele><time>2026-04-11T07:57:58.041Z</time></trkpt><trkpt lat="44.9055567" lon="9.2222883"><ele>499.0</ele><time>2026-04-11T07:57:59.039Z</time></trkpt><trkpt lat="44.9054183" lon="9.22241"><ele>499.0</ele><time>2026-04-11T07:58:00.041Z</time></trkpt><trkpt lat="44.905285" lon="9.2225633"><ele>499.0</ele><time>2026-04-11T07:58:01.038Z</time></trkpt><trkpt lat="44.9051667" lon="9.2227233"><ele>499.0</ele><time>2026-04-11T07:58:02.039Z</time></trkpt><trkpt lat="44.9050667" lon="9.2228917"><ele>502.75</ele><time>2026-04-11T07:58:03.04Z</time></trkpt><trkpt lat="44.90499" lon="9.2230933"><ele>506.5</ele><time>2026-04-11T07:58:04.041Z</time></trkpt><trkpt lat="44.9049333" lon="9.2232817"><ele>510.25</ele><time>2026-04-11T07:58:05.042Z</time></trkpt><trkpt lat="44.9048733" lon="9.2234467"><ele>514.0</ele><time>2026-04-11T07:58:06.04Z</time></trkpt><trkpt lat="44.9048" lon="9.223575"><ele>514.0</ele><time>2026-04-11T07:58:07.041Z</time></trkpt><trkpt lat="44.9046933" lon="9.22366"><ele>514.0</ele><time>2026-04-11T07:58:08.032Z</time></trkpt><trkpt lat="44.9045633" lon="9.2237333"><ele>514.0</ele><time>2026-04-11T07:58:09.038Z</time></trkpt><trkpt lat="44.9044217" lon="9.2238067"><ele>514.0</ele><time>2026-04-11T07:58:10.037Z</time></trkpt><trkpt lat="44.9042733" lon="9.223875"><ele>515.25</ele><time>2026-04-11T07:58:11.04Z</time></trkpt><trkpt lat="44.9041317" lon="9.2239217"><ele>516.5</ele><time>2026-04-11T07:58:12.038Z</time></trkpt><trkpt lat="44.904" lon="9.2239533"><ele>517.75</ele><time>2026-04-11T07:58:13.038Z</time></trkpt><trkpt lat="44.9038767" lon="9.224015"><ele>519.0</ele><time>2026-04-11T07:58:14.039Z</time></trkpt><trkpt lat="44.90377" lon="9.22411"><ele>519.0</ele><time>2026-04-11T07:58:15.04Z</time></trkpt><trkpt lat="44.9036717" lon="9.2242367"><ele>519.0</ele><time>2026-04-11T07:58:16.037Z</time></trkpt><trkpt lat="44.9035783" lon="9.2243917"><ele>519.0</ele><time>2026-04-11T07:58:17.146Z</time></trkpt><trkpt lat="44.9034217" lon="9.224755"><ele>519.75</ele><time>2026-04-11T07:58:19.037Z</time></trkpt><trkpt lat="44.903345" lon="9.2249317"><ele>520.5</ele><time>2026-04-11T07:58:20.038Z</time></trkpt><trkpt lat="44.9032667" lon="9.2251067"><ele>521.25</ele><time>2026-04-11T07:58:21.041Z</time></trkpt><trkpt lat="44.90318" lon="9.225265"><ele>522.0</ele><time>2026-04-11T07:58:22.039Z</time></trkpt><trkpt lat="44.9030867" lon="9.225415"><ele>522.0</ele><time>2026-04-11T07:58:23.038Z</time></trkpt><trkpt lat="44.9029883" lon="9.2255583"><ele>522.0</ele><time>2026-04-11T07:58:24.041Z</time></trkpt><trkpt lat="44.902895" lon="9.2256983"><ele>522.0</ele><time>2026-04-11T07:58:25.038Z</time></trkpt><trkpt lat="44.9028183" lon="9.2258417"><ele>522.0</ele><time>2026-04-11T07:58:26.039Z</time></trkpt><trkpt lat="44.9027583" lon="9.22601"><ele>523.25</ele><time>2026-04-11T07:58:27.04Z</time></trkpt><trkpt lat="44.9027167" lon="9.2262067"><ele>524.5</ele><time>2026-04-11T07:58:28.037Z</time></trkpt><trkpt lat="44.902685" lon="9.226405"><ele>525.75</ele><time>2026-04-11T07:58:29.037Z</time></trkpt><trkpt lat="44.9026533" lon="9.2266133"><ele>527.0</ele><time>2026-04-11T07:58:30.037Z</time></trkpt><trkpt lat="44.902615" lon="9.2268283"><ele>526.0</ele><time>2026-04-11T07:58:31.037Z</time></trkpt><trkpt lat="44.9025667" lon="9.2270417"><ele>525.0</ele><time>2026-04-11T07:58:32.036Z</time></trkpt><trkpt lat="44.9025083" lon="9.2272367"><ele>524.0</ele><time>2026-04-11T07:58:33.032Z</time></trkpt><trkpt lat="44.90244" lon="9.2274167"><ele>524.0</ele><time>2026-04-11T07:58:34.037Z</time></trkpt><trkpt lat="44.902365" lon="9.2275933"><ele>524.0</ele><time>2026-04-11T07:58:35.037Z</time></trkpt><trkpt lat="44.90228" lon="9.2277633"><ele>524.0</ele><time>2026-04-11T07:58:36.039Z</time></trkpt><trkpt lat="44.9021833" lon="9.2279083"><ele>524.0</ele><time>2026-04-11T07:58:37.034Z</time></trkpt><trkpt lat="44.9020817" lon="9.228035"><ele>523.0</ele><time>2026-04-11T07:58:38.035Z</time></trkpt><trkpt lat="44.9019783" lon="9.22815"><ele>522.0</ele><time>2026-04-11T07:58:39.037Z</time></trkpt><trkpt lat="44.9018783" lon="9.228265"><ele>521.0</ele><time>2026-04-11T07:58:40.034Z</time></trkpt><trkpt lat="44.901775" lon="9.2283733"><ele>520.0</ele><time>2026-04-11T07:58:41.037Z</time></trkpt><trkpt lat="44.90167" lon="9.228465"><ele>520.0</ele><time>2026-04-11T07:58:42.038Z</time></trkpt><trkpt lat="44.9015467" lon="9.2285233"><ele>520.0</ele><time>2026-04-11T07:58:43.04Z</time></trkpt><trkpt lat="44.9014183" lon="9.22854"><ele>520.0</ele><time>2026-04-11T07:58:44.037Z</time></trkpt><trkpt lat="44.9012733" lon="9.22855"><ele>520.0</ele><time>2026-04-11T07:58:45.041Z</time></trkpt><trkpt lat="44.901125" lon="9.2285683"><ele>520.0</ele><time>2026-04-11T07:58:46.041Z</time></trkpt><trkpt lat="44.9009683" lon="9.2286033"><ele>520.0</ele><time>2026-04-11T07:58:47.038Z</time></trkpt><trkpt lat="44.9008067" lon="9.2286533"><ele>520.0</ele><time>2026-04-11T07:58:48.041Z</time></trkpt><trkpt lat="44.9006333" lon="9.2287167"><ele>516.6666666666667</ele><time>2026-04-11T07:58:49.04Z</time></trkpt><trkpt lat="44.9004567" lon="9.2287883"><ele>513.3333333333334</ele><time>2026-04-11T07:58:50.039Z</time></trkpt><trkpt lat="44.90028" lon="9.2288683"><ele>510.0</ele><time>2026-04-11T07:58:51.038Z</time></trkpt><trkpt lat="44.9001017" lon="9.2289433"><ele>511.33333333333337</ele><time>2026-04-11T07:58:52.037Z</time></trkpt><trkpt lat="44.899935" lon="9.229015"><ele>512.6666666666667</ele><time>2026-04-11T07:58:53.04Z</time></trkpt><trkpt lat="44.8997767" lon="9.22908"><ele>514.0</ele><time>2026-04-11T07:58:54.034Z</time></trkpt><trkpt lat="44.899625" lon="9.2291467"><ele>514.0</ele><time>2026-04-11T07:58:55.042Z</time></trkpt><trkpt lat="44.89948" lon="9.2292183"><ele>514.0</ele><time>2026-04-11T07:58:56.04Z</time></trkpt><trkpt lat="44.8993217" lon="9.2292867"><ele>514.0</ele><time>2026-04-11T07:58:57.039Z</time></trkpt><trkpt lat="44.8991717" lon="9.229345"><ele>514.75</ele><time>2026-04-11T07:58:58.038Z</time></trkpt><trkpt lat="44.89903" lon="9.2293817"><ele>515.5</ele><time>2026-04-11T07:58:59.037Z</time></trkpt><trkpt lat="44.898905" lon="9.229395"><ele>516.25</ele><time>2026-04-11T07:59:00.038Z</time></trkpt><trkpt lat="44.8987933" lon="9.2293883"><ele>517.0</ele><time>2026-04-11T07:59:01.039Z</time></trkpt><trkpt lat="44.8987017" lon="9.2293533"><ele>517.0</ele><time>2026-04-11T07:59:02.035Z</time></trkpt><trkpt lat="44.898625" lon="9.22929"><ele>517.0</ele><time>2026-04-11T07:59:03.041Z</time></trkpt><trkpt lat="44.89855" lon="9.2292333"><ele>517.0</ele><time>2026-04-11T07:59:04.037Z</time></trkpt><trkpt lat="44.898475" lon="9.2292033"><ele>517.0</ele><time>2026-04-11T07:59:05.037Z</time></trkpt><trkpt lat="44.8983933" lon="9.2292367"><ele>517.0</ele><time>2026-04-11T07:59:06.031Z</time></trkpt><trkpt lat="44.8983167" lon="9.2293267"><ele>517.0</ele><time>2026-04-11T07:59:07.04Z</time></trkpt><trkpt lat="44.8982583" lon="9.2294767"><ele>516.25</ele><time>2026-04-11T07:59:08.039Z</time></trkpt><trkpt lat="44.8982133" lon="9.22966"><ele>515.5</ele><time>2026-04-11T07:59:09.039Z</time></trkpt><trkpt lat="44.89818" lon="9.2298583"><ele>514.75</ele><time>2026-04-11T07:59:10.04Z</time></trkpt><trkpt lat="44.8981467" lon="9.2300533"><ele>514.0</ele><time>2026-04-11T07:59:11.038Z</time></trkpt><trkpt lat="44.8981117" lon="9.23024"><ele>516.25</ele><time>2026-04-11T07:59:12.039Z</time></trkpt><trkpt lat="44.8980617" lon="9.2304183"><ele>518.5</ele><time>2026-04-11T07:59:13.038Z</time></trkpt><trkpt lat="44.8979933" lon="9.2305983"><ele>520.75</ele><time>2026-04-11T07:59:14.04Z</time></trkpt><trkpt lat="44.8979067" lon="9.2307667"><ele>523.0</ele><time>2026-04-11T07:59:15.034Z</time></trkpt><trkpt lat="44.8978067" lon="9.2309017"><ele>522.0</ele><time>2026-04-11T07:59:16.036Z</time></trkpt><trkpt lat="44.8976883" lon="9.2309933"><ele>521.0</ele><time>2026-04-11T07:59:17.031Z</time></trkpt><trkpt lat="44.89756" lon="9.2310433"><ele>520.0</ele><time>2026-04-11T07:59:18.038Z</time></trkpt><trkpt lat="44.8974267" lon="9.2310817"><ele>519.0</ele><time>2026-04-11T07:59:19.034Z</time></trkpt><trkpt lat="44.8972917" lon="9.2311367"><ele>519.0</ele><time>2026-04-11T07:59:20.039Z</time></trkpt><trkpt lat="44.89715" lon="9.2312117"><ele>519.0</ele><time>2026-04-11T07:59:21.039Z</time></trkpt><trkpt lat="44.897015" lon="9.2313017"><ele>519.0</ele><time>2026-04-11T07:59:22.042Z</time></trkpt><trkpt lat="44.8968967" lon="9.2314017"><ele>519.0</ele><time>2026-04-11T07:59:23.039Z</time></trkpt><trkpt lat="44.8967967" lon="9.2315083"><ele>519.8</ele><time>2026-04-11T07:59:24.04Z</time></trkpt><trkpt lat="44.8967133" lon="9.2316217"><ele>520.5999999999999</ele><time>2026-04-11T07:59:25.038Z</time></trkpt><trkpt lat="44.8966567" lon="9.2317317"><ele>521.4</ele><time>2026-04-11T07:59:26.041Z</time></trkpt><trkpt lat="44.8966117" lon="9.2318183"><ele>522.1999999999999</ele><time>2026-04-11T07:59:27.035Z</time></trkpt><trkpt lat="44.8965317" lon="9.2318583"><ele>523.0</ele><time>2026-04-11T07:59:29.038Z</time></trkpt><trkpt lat="44.8964917" lon="9.2317483"><ele>523.0</ele><time>2026-04-11T07:59:31.035Z</time></trkpt><trkpt lat="44.89647" lon="9.2316467"><ele>523.0</ele><time>2026-04-11T07:59:32.036Z</time></trkpt><trkpt lat="44.8964467" lon="9.2315433"><ele>523.0</ele><time>2026-04-11T07:59:33.037Z</time></trkpt><trkpt lat="44.8964117" lon="9.23144"><ele>523.0</ele><time>2026-04-11T07:59:34.037Z</time></trkpt><trkpt lat="44.89637" lon="9.23133"><ele>523.0</ele><time>2026-04-11T07:59:35.039Z</time></trkpt><trkpt lat="44.8963233" lon="9.2312183"><ele>523.0</ele><time>2026-04-11T07:59:36.037Z</time></trkpt><trkpt lat="44.896265" lon="9.23112"><ele>522.4</ele><time>2026-04-11T07:59:37.038Z</time></trkpt><trkpt lat="44.89619" lon="9.231065"><ele>521.8</ele><time>2026-04-11T07:59:38.033Z</time></trkpt><trkpt lat="44.89611" lon="9.2310383"><ele>521.2</ele><time>2026-04-11T07:59:39.04Z</time></trkpt><trkpt lat="44.8960233" lon="9.231045"><ele>520.6</ele><time>2026-04-11T07:59:40.038Z</time></trkpt><trkpt lat="44.8959283" lon="9.2310733"><ele>520.0</ele><time>2026-04-11T07:59:41.041Z</time></trkpt><trkpt lat="44.89583" lon="9.2311017"><ele>521.6</ele><time>2026-04-11T07:59:42.038Z</time></trkpt><trkpt lat="44.8957267" lon="9.2311317"><ele>523.2</ele><time>2026-04-11T07:59:43.045Z</time></trkpt><trkpt lat="44.8956233" lon="9.231165"><ele>524.8</ele><time>2026-04-11T07:59:44.038Z</time></trkpt><trkpt lat="44.8955233" lon="9.2312"><ele>526.4</ele><time>2026-04-11T07:59:45.04Z</time></trkpt><trkpt lat="44.89544" lon="9.2312383"><ele>528.0</ele><time>2026-04-11T07:59:46.041Z</time></trkpt><trkpt lat="44.8953617" lon="9.231275"><ele>528.0</ele><time>2026-04-11T07:59:47.038Z</time></trkpt><trkpt lat="44.8952783" lon="9.2312983"><ele>528.0</ele><time>2026-04-11T07:59:48.04Z</time></trkpt><trkpt lat="44.89519" lon="9.2313083"><ele>528.0</ele><time>2026-04-11T07:59:49.043Z</time></trkpt><trkpt lat="44.895105" lon="9.2313117"><ele>528.0</ele><time>2026-04-11T07:59:50.034Z</time></trkpt><trkpt lat="44.8950167" lon="9.2313117"><ele>528.0</ele><time>2026-04-11T07:59:51.044Z</time></trkpt><trkpt lat="44.8949383" lon="9.2313167"><ele>528.0</ele><time>2026-04-11T07:59:52.042Z</time></trkpt><trkpt lat="44.8948717" lon="9.231335"><ele>529.8333333333334</ele><time>2026-04-11T07:59:53.039Z</time></trkpt><trkpt lat="44.894805" lon="9.2313883"><ele>531.6666666666666</ele><time>2026-04-11T07:59:54.04Z</time></trkpt><trkpt lat="44.8947317" lon="9.23148"><ele>533.5</ele><time>2026-04-11T07:59:55.034Z</time></trkpt><trkpt lat="44.8946567" lon="9.23157"><ele>535.3333333333333</ele><time>2026-04-11T07:59:56.038Z</time></trkpt><trkpt lat="44.894585" lon="9.2316483"><ele>537.1666666666666</ele><time>2026-04-11T07:59:57.039Z</time></trkpt><trkpt lat="44.8945217" lon="9.2317167"><ele>539.0</ele><time>2026-04-11T07:59:58.039Z</time></trkpt><trkpt lat="44.89447" lon="9.2318"><ele>539.0</ele><time>2026-04-11T07:59:59.04Z</time></trkpt><trkpt lat="44.8944267" lon="9.23191"><ele>539.0</ele><time>2026-04-11T08:00:00.036Z</time></trkpt><trkpt lat="44.894375" lon="9.2320233"><ele>539.0</ele><time>2026-04-11T08:00:01.041Z</time></trkpt><trkpt lat="44.8943217" lon="9.2321317"><ele>539.0</ele><time>2026-04-11T08:00:02.038Z</time></trkpt><trkpt lat="44.8942617" lon="9.2322317"><ele>539.0</ele><time>2026-04-11T08:00:03.041Z</time></trkpt><trkpt lat="44.8942" lon="9.23231"><ele>543.0</ele><time>2026-04-11T08:00:04.039Z</time></trkpt><trkpt lat="44.8941367" lon="9.2323633"><ele>547.0</ele><time>2026-04-11T08:00:05.037Z</time></trkpt><trkpt lat="44.8940617" lon="9.2323817"><ele>551.0</ele><time>2026-04-11T08:00:06.038Z</time></trkpt><trkpt lat="44.893965" lon="9.2323717"><ele>555.0</ele><time>2026-04-11T08:00:07.04Z</time></trkpt><trkpt lat="44.89384" lon="9.2323333"><ele>559.0</ele><time>2026-04-11T08:00:08.04Z</time></trkpt><trkpt lat="44.8937183" lon="9.23232"><ele>556.75</ele><time>2026-04-11T08:00:09.034Z</time></trkpt><trkpt lat="44.8936" lon="9.2322983"><ele>554.5</ele><time>2026-04-11T08:00:10.039Z</time></trkpt><trkpt lat="44.89348" lon="9.2322767"><ele>552.25</ele><time>2026-04-11T08:00:11.037Z</time></trkpt><trkpt lat="44.893365" lon="9.23227"><ele>550.0</ele><time>2026-04-11T08:00:12.036Z</time></trkpt><trkpt lat="44.8932567" lon="9.2322667"><ele>550.0</ele><time>2026-04-11T08:00:13.043Z</time></trkpt><trkpt lat="44.893155" lon="9.232265"><ele>550.0</ele><time>2026-04-11T08:00:14.041Z</time></trkpt><trkpt lat="44.8930567" lon="9.2322567"><ele>550.0</ele><time>2026-04-11T08:00:15.04Z</time></trkpt><trkpt lat="44.89296" lon="9.23225"><ele>550.0</ele><time>2026-04-11T08:00:16.037Z</time></trkpt><trkpt lat="44.8928583" lon="9.2322367"><ele>550.0</ele><time>2026-04-11T08:00:17.038Z</time></trkpt><trkpt lat="44.89276" lon="9.2322133"><ele>550.0</ele><time>2026-04-11T08:00:18.037Z</time></trkpt><trkpt lat="44.892655" lon="9.232185"><ele>550.0</ele><time>2026-04-11T08:00:19.04Z</time></trkpt><trkpt lat="44.8925533" lon="9.2321533"><ele>550.0</ele><time>2026-04-11T08:00:20.041Z</time></trkpt><trkpt lat="44.8924683" lon="9.232115"><ele>550.0</ele><time>2026-04-11T08:00:21.041Z</time></trkpt><trkpt lat="44.8923933" lon="9.23209"><ele>550.0</ele><time>2026-04-11T08:00:22.038Z</time></trkpt><trkpt lat="44.8923283" lon="9.2320717"><ele>550.0</ele><time>2026-04-11T08:00:23.037Z</time></trkpt><trkpt lat="44.8922583" lon="9.2320633"><ele>550.2</ele><time>2026-04-11T08:00:24.04Z</time></trkpt><trkpt lat="44.8921733" lon="9.2320633"><ele>550.4</ele><time>2026-04-11T08:00:25.037Z</time></trkpt><trkpt lat="44.8920783" lon="9.2320683"><ele>550.6</ele><time>2026-04-11T08:00:26.036Z</time></trkpt><trkpt lat="44.8919783" lon="9.23208"><ele>550.8</ele><time>2026-04-11T08:00:27.033Z</time></trkpt><trkpt lat="44.891885" lon="9.2320983"><ele>551.0</ele><time>2026-04-11T08:00:28.042Z</time></trkpt><trkpt lat="44.8917967" lon="9.23214"><ele>549.2</ele><time>2026-04-11T08:00:29.038Z</time></trkpt><trkpt lat="44.8917133" lon="9.2321967"><ele>547.4000000000001</ele><time>2026-04-11T08:00:30.039Z</time></trkpt><trkpt lat="44.8916333" lon="9.2322617"><ele>545.6</ele><time>2026-04-11T08:00:31.041Z</time></trkpt><trkpt lat="44.8915467" lon="9.2323267"><ele>543.8000000000001</ele><time>2026-04-11T08:00:32.039Z</time></trkpt><trkpt lat="44.89146" lon="9.2323867"><ele>542.0</ele><time>2026-04-11T08:00:33.038Z</time></trkpt><trkpt lat="44.8913783" lon="9.2324433"><ele>542.0</ele><time>2026-04-11T08:00:34.038Z</time></trkpt><trkpt lat="44.891305" lon="9.2324883"><ele>542.0</ele><time>2026-04-11T08:00:35.04Z</time></trkpt><trkpt lat="44.8912383" lon="9.232535"><ele>542.0</ele><time>2026-04-11T08:00:36.043Z</time></trkpt><trkpt lat="44.891175" lon="9.2325717"><ele>542.0</ele><time>2026-04-11T08:00:37.036Z</time></trkpt><trkpt lat="44.8911183" lon="9.23262"><ele>542.0</ele><time>2026-04-11T08:00:38.04Z</time></trkpt><trkpt lat="44.8910417" lon="9.23272"><ele>542.0</ele><time>2026-04-11T08:00:40.042Z</time></trkpt><trkpt lat="44.8910133" lon="9.2328417"><ele>542.0</ele><time>2026-04-11T08:00:42.039Z</time></trkpt><trkpt lat="44.8909467" lon="9.2329467"><ele>542.0</ele><time>2026-04-11T08:00:44.04Z</time></trkpt><trkpt lat="44.890845" lon="9.2330517"><ele>542.0</ele><time>2026-04-11T08:00:46.042Z</time></trkpt><trkpt lat="44.8907883" lon="9.2331033"><ele>542.0</ele><time>2026-04-11T08:00:47.039Z</time></trkpt><trkpt lat="44.8907317" lon="9.2331617"><ele>542.0</ele><time>2026-04-11T08:00:48.041Z</time></trkpt><trkpt lat="44.890665" lon="9.2332317"><ele>542.0</ele><time>2026-04-11T08:00:49.039Z</time></trkpt><trkpt lat="44.89058" lon="9.2333117"><ele>536.5</ele><time>2026-04-11T08:00:50.043Z</time></trkpt><trkpt lat="44.89047" lon="9.2334033"><ele>531.0</ele><time>2026-04-11T08:00:51.042Z</time></trkpt><trkpt lat="44.890355" lon="9.233505"><ele>525.5</ele><time>2026-04-11T08:00:52.038Z</time></trkpt><trkpt lat="44.8902417" lon="9.2335967"><ele>520.0</ele><time>2026-04-11T08:00:53.041Z</time></trkpt><trkpt lat="44.8901333" lon="9.2336517"><ele>519.6</ele><time>2026-04-11T08:00:54.043Z</time></trkpt><trkpt lat="44.890025" lon="9.2336583"><ele>519.2</ele><time>2026-04-11T08:00:55.042Z</time></trkpt><trkpt lat="44.8899383" lon="9.2336517"><ele>518.8</ele><time>2026-04-11T08:00:56.039Z</time></trkpt><trkpt lat="44.889865" lon="9.2336467"><ele>518.4</ele><time>2026-04-11T08:00:57.041Z</time></trkpt><trkpt lat="44.8897967" lon="9.2336733"><ele>518.0</ele><time>2026-04-11T08:00:59.034Z</time></trkpt><trkpt lat="44.8897483" lon="9.2338717"><ele>517.4</ele><time>2026-04-11T08:01:42.038Z</time></trkpt><trkpt lat="44.8897017" lon="9.2339967"><ele>516.8</ele><time>2026-04-11T08:01:43.039Z</time></trkpt><trkpt lat="44.8896483" lon="9.23413"><ele>516.2</ele><time>2026-04-11T08:01:44.038Z</time></trkpt><trkpt lat="44.8896017" lon="9.23426"><ele>515.6</ele><time>2026-04-11T08:01:45.041Z</time></trkpt><trkpt lat="44.88957" lon="9.2343783"><ele>515.0</ele><time>2026-04-11T08:01:46.036Z</time></trkpt><trkpt lat="44.88956" lon="9.234495"><ele>515.0</ele><time>2026-04-11T08:01:47.037Z</time></trkpt><trkpt lat="44.8895533" lon="9.2346117"><ele>515.0</ele><time>2026-04-11T08:01:48.04Z</time></trkpt><trkpt lat="44.889545" lon="9.2347367"><ele>515.0</ele><time>2026-04-11T08:01:49.04Z</time></trkpt><trkpt lat="44.8895267" lon="9.2348583"><ele>515.0</ele><time>2026-04-11T08:01:50.039Z</time></trkpt><trkpt lat="44.889505" lon="9.23499"><ele>515.0</ele><time>2026-04-11T08:01:51.039Z</time></trkpt><trkpt lat="44.88949" lon="9.2351283"><ele>513.4</ele><time>2026-04-11T08:01:52.038Z</time></trkpt><trkpt lat="44.8894867" lon="9.2352833"><ele>511.8</ele><time>2026-04-11T08:01:53.037Z</time></trkpt><trkpt lat="44.88948" lon="9.2354433"><ele>510.20000000000005</ele><time>2026-04-11T08:01:54.041Z</time></trkpt><trkpt lat="44.8894733" lon="9.2355933"><ele>508.6</ele><time>2026-04-11T08:01:55.039Z</time></trkpt><trkpt lat="44.8894717" lon="9.235725"><ele>507.0</ele><time>2026-04-11T08:01:56.039Z</time></trkpt><trkpt lat="44.889475" lon="9.2358317"><ele>506.3333333333333</ele><time>2026-04-11T08:01:57.038Z</time></trkpt><trkpt lat="44.8894983" lon="9.23592"><ele>505.66666666666663</ele><time>2026-04-11T08:01:58.037Z</time></trkpt><trkpt lat="44.889545" lon="9.235995"><ele>505.0</ele><time>2026-04-11T08:01:59.038Z</time></trkpt><trkpt lat="44.889615" lon="9.23607"><ele>504.3333333333333</ele><time>2026-04-11T08:02:00.042Z</time></trkpt><trkpt lat="44.889685" lon="9.236155"><ele>503.66666666666663</ele><time>2026-04-11T08:02:01.045Z</time></trkpt><trkpt lat="44.8897433" lon="9.2362617"><ele>503.0</ele><time>2026-04-11T08:02:02.037Z</time></trkpt><trkpt lat="44.889785" lon="9.23638"><ele>503.59999999999997</ele><time>2026-04-11T08:02:03.039Z</time></trkpt><trkpt lat="44.889825" lon="9.2364983"><ele>504.19999999999993</ele><time>2026-04-11T08:02:04.041Z</time></trkpt><trkpt lat="44.8898717" lon="9.23661"><ele>504.8</ele><time>2026-04-11T08:02:05.035Z</time></trkpt><trkpt lat="44.8899367" lon="9.2367333"><ele>505.4</ele><time>2026-04-11T08:02:06.042Z</time></trkpt><trkpt lat="44.8900067" lon="9.23686"><ele>506.0</ele><time>2026-04-11T08:02:07.034Z</time></trkpt><trkpt lat="44.8900833" lon="9.2369783"><ele>505.20000000000005</ele><time>2026-04-11T08:02:08.041Z</time></trkpt><trkpt lat="44.8901667" lon="9.2370867"><ele>504.40000000000003</ele><time>2026-04-11T08:02:09.041Z</time></trkpt><trkpt lat="44.8902717" lon="9.2371683"><ele>503.6</ele><time>2026-04-11T08:02:10.042Z</time></trkpt><trkpt lat="44.8903683" lon="9.237245"><ele>502.8</ele><time>2026-04-11T08:02:11.039Z</time></trkpt><trkpt lat="44.8904433" lon="9.237325"><ele>502.0</ele><time>2026-04-11T08:02:12.032Z</time></trkpt><trkpt lat="44.8905033" lon="9.2374117"><ele>505.20000000000005</ele><time>2026-04-11T08:02:13.03Z</time></trkpt><trkpt lat="44.890545" lon="9.2375117"><ele>508.40000000000003</ele><time>2026-04-11T08:02:14.035Z</time></trkpt><trkpt lat="44.890595" lon="9.237615"><ele>511.59999999999997</ele><time>2026-04-11T08:02:15.032Z</time></trkpt><trkpt lat="44.8906567" lon="9.2377317"><ele>514.8</ele><time>2026-04-11T08:02:16.03Z</time></trkpt><trkpt lat="44.8907033" lon="9.2378583"><ele>518.0</ele><time>2026-04-11T08:02:17.03Z</time></trkpt><trkpt lat="44.8907" lon="9.2379683"><ele>518.0</ele><time>2026-04-11T08:02:18.03Z</time></trkpt><trkpt lat="44.89064" lon="9.2381017"><ele>518.0</ele><time>2026-04-11T08:02:19.031Z</time></trkpt><trkpt lat="44.8905433" lon="9.2382133"><ele>518.0</ele><time>2026-04-11T08:02:20.03Z</time></trkpt><trkpt lat="44.89049" lon="9.23833"><ele>518.0</ele><time>2026-04-11T08:02:21.03Z</time></trkpt><trkpt lat="44.89045" lon="9.2384667"><ele>518.0</ele><time>2026-04-11T08:02:22.032Z</time></trkpt><trkpt lat="44.8904217" lon="9.2386117"><ele>519.0</ele><time>2026-04-11T08:02:23.033Z</time></trkpt><trkpt lat="44.890405" lon="9.2387817"><ele>520.0</ele><time>2026-04-11T08:02:24.03Z</time></trkpt><trkpt lat="44.89041" lon="9.2389633"><ele>521.0</ele><time>2026-04-11T08:02:25.035Z</time></trkpt><trkpt lat="44.89041" lon="9.239145"><ele>522.0</ele><time>2026-04-11T08:02:26.031Z</time></trkpt><trkpt lat="44.8904" lon="9.2393333"><ele>522.0</ele><time>2026-04-11T08:02:27.032Z</time></trkpt><trkpt lat="44.8903517" lon="9.2395117"><ele>522.0</ele><time>2026-04-11T08:02:28.028Z</time></trkpt><trkpt lat="44.8902817" lon="9.239685"><ele>522.0</ele><time>2026-04-11T08:02:29.036Z</time></trkpt><trkpt lat="44.89019" lon="9.23983"><ele>522.0</ele><time>2026-04-11T08:02:30.037Z</time></trkpt><trkpt lat="44.8900917" lon="9.23997"><ele>522.0</ele><time>2026-04-11T08:02:31.032Z</time></trkpt><trkpt lat="44.89001" lon="9.24011"><ele>522.0</ele><time>2026-04-11T08:02:32.029Z</time></trkpt><trkpt lat="44.8899683" lon="9.24024"><ele>522.0</ele><time>2026-04-11T08:02:33.037Z</time></trkpt><trkpt lat="44.88995" lon="9.2403817"><ele>522.0</ele><time>2026-04-11T08:02:34.04Z</time></trkpt><trkpt lat="44.8899567" lon="9.2405267"><ele>522.0</ele><time>2026-04-11T08:02:35.041Z</time></trkpt><trkpt lat="44.88999" lon="9.2406883"><ele>522.0</ele><time>2026-04-11T08:02:36.04Z</time></trkpt><trkpt lat="44.8900367" lon="9.2408767"><ele>522.0</ele><time>2026-04-11T08:02:37.032Z</time></trkpt><trkpt lat="44.89007" lon="9.24105"><ele>522.0</ele><time>2026-04-11T08:02:38.041Z</time></trkpt><trkpt lat="44.8900883" lon="9.2412"><ele>522.0</ele><time>2026-04-11T08:02:39.041Z</time></trkpt><trkpt lat="44.89012" lon="9.2413317"><ele>521.6</ele><time>2026-04-11T08:02:40.039Z</time></trkpt><trkpt lat="44.8901483" lon="9.2414683"><ele>521.2</ele><time>2026-04-11T08:02:41.04Z</time></trkpt><trkpt lat="44.8901667" lon="9.2416183"><ele>520.8</ele><time>2026-04-11T08:02:42.04Z</time></trkpt><trkpt lat="44.8901517" lon="9.2417633"><ele>520.4</ele><time>2026-04-11T08:02:43.038Z</time></trkpt><trkpt lat="44.89012" lon="9.2419133"><ele>520.0</ele><time>2026-04-11T08:02:44.039Z</time></trkpt><trkpt lat="44.8900717" lon="9.2420583"><ele>520.0</ele><time>2026-04-11T08:02:45.043Z</time></trkpt><trkpt lat="44.8900283" lon="9.2422133"><ele>520.0</ele><time>2026-04-11T08:02:46.037Z</time></trkpt><trkpt lat="44.8900083" lon="9.2423683"><ele>520.0</ele><time>2026-04-11T08:02:47.037Z</time></trkpt><trkpt lat="44.8899933" lon="9.242515"><ele>520.0</ele><time>2026-04-11T08:02:48.04Z</time></trkpt><trkpt lat="44.8899533" lon="9.2426567"><ele>520.0</ele><time>2026-04-11T08:02:49.038Z</time></trkpt><trkpt lat="44.8899133" lon="9.2427867"><ele>520.2</ele><time>2026-04-11T08:02:50.034Z</time></trkpt><trkpt lat="44.889865" lon="9.2429283"><ele>520.4</ele><time>2026-04-11T08:02:51.042Z</time></trkpt><trkpt lat="44.889835" lon="9.2430667"><ele>520.6</ele><time>2026-04-11T08:02:52.037Z</time></trkpt><trkpt lat="44.8898133" lon="9.2431817"><ele>520.8</ele><time>2026-04-11T08:02:53.04Z</time></trkpt><trkpt lat="44.8897933" lon="9.2432733"><ele>521.0</ele><time>2026-04-11T08:02:54.037Z</time></trkpt><trkpt lat="44.8897267" lon="9.2434167"><ele>520.6</ele><time>2026-04-11T08:02:56.038Z</time></trkpt><trkpt lat="44.8896433" lon="9.2435283"><ele>520.2</ele><time>2026-04-11T08:02:58.037Z</time></trkpt><trkpt lat="44.8895817" lon="9.243655"><ele>519.8</ele><time>2026-04-11T08:03:00.033Z</time></trkpt><trkpt lat="44.88951" lon="9.2437233"><ele>519.4</ele><time>2026-04-11T08:03:02.039Z</time></trkpt><trkpt lat="44.88945" lon="9.2436533"><ele>519.0</ele><time>2026-04-11T08:03:05.039Z</time></trkpt><trkpt lat="44.8894683" lon="9.2435083"><ele>519.0</ele><time>2026-04-11T08:03:07.041Z</time></trkpt><trkpt lat="44.8894733" lon="9.24341"><ele>519.0</ele><time>2026-04-11T08:03:08.039Z</time></trkpt><trkpt lat="44.889455" lon="9.2433167"><ele>519.0</ele><time>2026-04-11T08:03:09.04Z</time></trkpt><trkpt lat="44.8894333" lon="9.2432283"><ele>519.0</ele><time>2026-04-11T08:03:10.038Z</time></trkpt><trkpt lat="44.889405" lon="9.2431217"><ele>519.0</ele><time>2026-04-11T08:03:11.038Z</time></trkpt><trkpt lat="44.8893667" lon="9.2430217"><ele>519.0</ele><time>2026-04-11T08:03:12.036Z</time></trkpt><trkpt lat="44.8893233" lon="9.2429083"><ele>519.3333333333334</ele><time>2026-04-11T08:03:13.037Z</time></trkpt><trkpt lat="44.8892717" lon="9.242815"><ele>519.6666666666666</ele><time>2026-04-11T08:03:14.038Z</time></trkpt><trkpt lat="44.889215" lon="9.2427433"><ele>520.0</ele><time>2026-04-11T08:03:15.03Z</time></trkpt><trkpt lat="44.8891417" lon="9.2426967"><ele>520.3333333333333</ele><time>2026-04-11T08:03:16.042Z</time></trkpt><trkpt lat="44.8890633" lon="9.2426617"><ele>520.6666666666666</ele><time>2026-04-11T08:03:17.038Z</time></trkpt><trkpt lat="44.8889867" lon="9.24264"><ele>521.0</ele><time>2026-04-11T08:03:18.039Z</time></trkpt><trkpt lat="44.8889017" lon="9.2426233"><ele>515.6</ele><time>2026-04-11T08:03:19.034Z</time></trkpt><trkpt lat="44.8888083" lon="9.2426133"><ele>510.20000000000005</ele><time>2026-04-11T08:03:20.038Z</time></trkpt><trkpt lat="44.8887" lon="9.2426"><ele>504.79999999999995</ele><time>2026-04-11T08:03:21.038Z</time></trkpt><trkpt lat="44.8885867" lon="9.2425883"><ele>499.4</ele><time>2026-04-11T08:03:22.037Z</time></trkpt><trkpt lat="44.8884717" lon="9.2425833"><ele>494.0</ele><time>2026-04-11T08:03:23.038Z</time></trkpt><trkpt lat="44.888355" lon="9.2425817"><ele>489.0</ele><time>2026-04-11T08:03:24.039Z</time></trkpt><trkpt lat="44.8882433" lon="9.24258"><ele>484.0</ele><time>2026-04-11T08:03:25.039Z</time></trkpt><trkpt lat="44.8881417" lon="9.2425667"><ele>479.0</ele><time>2026-04-11T08:03:26.044Z</time></trkpt><trkpt lat="44.8880467" lon="9.24253"><ele>474.0</ele><time>2026-04-11T08:03:27.034Z</time></trkpt><trkpt lat="44.8879633" lon="9.24248"><ele>469.0</ele><time>2026-04-11T08:03:28.039Z</time></trkpt><trkpt lat="44.8878767" lon="9.24243"><ele>469.0</ele><time>2026-04-11T08:03:29.036Z</time></trkpt><trkpt lat="44.8877883" lon="9.2423883"><ele>469.0</ele><time>2026-04-11T08:03:30.038Z</time></trkpt><trkpt lat="44.8876883" lon="9.2423633"><ele>469.0</ele><time>2026-04-11T08:03:31.039Z</time></trkpt><trkpt lat="44.8875883" lon="9.2423467"><ele>469.0</ele><time>2026-04-11T08:03:32.041Z</time></trkpt><trkpt lat="44.8874917" lon="9.2423467"><ele>469.0</ele><time>2026-04-11T08:03:33.039Z</time></trkpt><trkpt lat="44.8874133" lon="9.2423717"><ele>467.00000000000006</ele><time>2026-04-11T08:03:34.037Z</time></trkpt><trkpt lat="44.8873467" lon="9.2424133"><ele>465.0</ele><time>2026-04-11T08:03:35.033Z</time></trkpt><trkpt lat="44.88727" lon="9.2424567"><ele>463.0</ele><time>2026-04-11T08:03:36.036Z</time></trkpt><trkpt lat="44.88718" lon="9.24249"><ele>461.0</ele><time>2026-04-11T08:03:37.033Z</time></trkpt><trkpt lat="44.8870817" lon="9.2425167"><ele>459.00000000000006</ele><time>2026-04-11T08:03:38.035Z</time></trkpt><trkpt lat="44.887" lon="9.2425483"><ele>457.0</ele><time>2026-04-11T08:03:39.035Z</time></trkpt><trkpt lat="44.88693" lon="9.2425883"><ele>457.0</ele><time>2026-04-11T08:03:40.039Z</time></trkpt><trkpt lat="44.8868767" lon="9.2426433"><ele>457.00000000000006</ele><time>2026-04-11T08:03:41.038Z</time></trkpt><trkpt lat="44.88683" lon="9.2428083"><ele>457.00000000000006</ele><time>2026-04-11T08:03:43.037Z</time></trkpt><trkpt lat="44.88683" lon="9.2429383"><ele>457.0</ele><time>2026-04-11T08:03:44.038Z</time></trkpt><trkpt lat="44.8868167" lon="9.2430683"><ele>457.0</ele><time>2026-04-11T08:03:45.04Z</time></trkpt><trkpt lat="44.88679" lon="9.243195"><ele>457.50000000000006</ele><time>2026-04-11T08:03:46.04Z</time></trkpt><trkpt lat="44.8867617" lon="9.24331"><ele>458.0</ele><time>2026-04-11T08:03:47.039Z</time></trkpt><trkpt lat="44.8867317" lon="9.2434183"><ele>458.5</ele><time>2026-04-11T08:03:48.042Z</time></trkpt><trkpt lat="44.8867067" lon="9.2435317"><ele>459.0</ele><time>2026-04-11T08:03:49.034Z</time></trkpt><trkpt lat="44.8866933" lon="9.243655"><ele>459.50000000000006</ele><time>2026-04-11T08:03:50.037Z</time></trkpt><trkpt lat="44.886675" lon="9.24378"><ele>460.0</ele><time>2026-04-11T08:03:51.04Z</time></trkpt><trkpt lat="44.8866583" lon="9.2439033"><ele>455.4</ele><time>2026-04-11T08:03:52.038Z</time></trkpt><trkpt lat="44.8866283" lon="9.2440417"><ele>450.8</ele><time>2026-04-11T08:03:53.036Z</time></trkpt><trkpt lat="44.8865983" lon="9.2441817"><ele>446.20000000000005</ele><time>2026-04-11T08:03:54.035Z</time></trkpt><trkpt lat="44.8865633" lon="9.24432"><ele>441.6</ele><time>2026-04-11T08:03:55.041Z</time></trkpt><trkpt lat="44.8865333" lon="9.2444483"><ele>437.0</ele><time>2026-04-11T08:03:56.04Z</time></trkpt><trkpt lat="44.8865083" lon="9.244565"><ele>437.0</ele><time>2026-04-11T08:03:57.038Z</time></trkpt><trkpt lat="44.8864767" lon="9.2446583"><ele>437.00000000000006</ele><time>2026-04-11T08:03:58.038Z</time></trkpt><trkpt lat="44.8863867" lon="9.2447883"><ele>437.00000000000006</ele><time>2026-04-11T08:04:00.04Z</time></trkpt><trkpt lat="44.8863183" lon="9.2448483"><ele>437.0</ele><time>2026-04-11T08:04:01.039Z</time></trkpt><trkpt lat="44.8862467" lon="9.244915"><ele>437.0</ele><time>2026-04-11T08:04:02.041Z</time></trkpt><trkpt lat="44.8861717" lon="9.2449817"><ele>437.16666666666663</ele><time>2026-04-11T08:04:03.036Z</time></trkpt><trkpt lat="44.8861017" lon="9.2450367"><ele>437.3333333333333</ele><time>2026-04-11T08:04:04.04Z</time></trkpt><trkpt lat="44.8860433" lon="9.2450867"><ele>437.5</ele><time>2026-04-11T08:04:05.036Z</time></trkpt><trkpt lat="44.8859633" lon="9.2452067"><ele>437.66666666666663</ele><time>2026-04-11T08:04:07.037Z</time></trkpt><trkpt lat="44.885925" lon="9.2452783"><ele>437.8333333333333</ele><time>2026-04-11T08:04:08.041Z</time></trkpt><trkpt lat="44.8858333" lon="9.2453867"><ele>438.0</ele><time>2026-04-11T08:04:10.039Z</time></trkpt><trkpt lat="44.88575" lon="9.245435"><ele>437.59999999999997</ele><time>2026-04-11T08:04:12.04Z</time></trkpt><trkpt lat="44.8856717" lon="9.245505"><ele>437.19999999999993</ele><time>2026-04-11T08:04:14.042Z</time></trkpt><trkpt lat="44.8855767" lon="9.2456117"><ele>436.8</ele><time>2026-04-11T08:04:16.044Z</time></trkpt><trkpt lat="44.8855033" lon="9.2456717"><ele>436.4</ele><time>2026-04-11T08:04:18.043Z</time></trkpt><trkpt lat="44.8854417" lon="9.2457333"><ele>436.0</ele><time>2026-04-11T08:04:20.042Z</time></trkpt><trkpt lat="44.8853467" lon="9.2457867"><ele>435.6666666666667</ele><time>2026-04-11T08:04:22.038Z</time></trkpt><trkpt lat="44.885275" lon="9.2458067"><ele>435.33333333333337</ele><time>2026-04-11T08:04:23.039Z</time></trkpt><trkpt lat="44.8852117" lon="9.2458183"><ele>435.0</ele><time>2026-04-11T08:04:24.04Z</time></trkpt><trkpt lat="44.8851033" lon="9.2458333"><ele>434.66666666666663</ele><time>2026-04-11T08:04:26.039Z</time></trkpt><trkpt lat="44.8850167" lon="9.2458783"><ele>434.3333333333333</ele><time>2026-04-11T08:04:28.037Z</time></trkpt><trkpt lat="44.884925" lon="9.245955"><ele>434.0</ele><time>2026-04-11T08:04:30.04Z</time></trkpt><trkpt lat="44.8848683" lon="9.246025"><ele>434.2</ele><time>2026-04-11T08:04:31.04Z</time></trkpt><trkpt lat="44.884815" lon="9.2461017"><ele>434.4</ele><time>2026-04-11T08:04:32.041Z</time></trkpt><trkpt lat="44.8847667" lon="9.246205"><ele>434.6</ele><time>2026-04-11T08:04:33.039Z</time></trkpt><trkpt lat="44.8847333" lon="9.246305"><ele>434.8</ele><time>2026-04-11T08:04:34.041Z</time></trkpt><trkpt lat="44.8846533" lon="9.246455"><ele>435.0</ele><time>2026-04-11T08:04:36.042Z</time></trkpt><trkpt lat="44.8845917" lon="9.246515"><ele>435.0</ele><time>2026-04-11T08:04:37.041Z</time></trkpt><trkpt lat="44.8845233" lon="9.2465717"><ele>435.0</ele><time>2026-04-11T08:04:38.039Z</time></trkpt><trkpt lat="44.88446" lon="9.2466483"><ele>435.0</ele><time>2026-04-11T08:04:39.032Z</time></trkpt><trkpt lat="44.8843967" lon="9.24672"><ele>435.0</ele><time>2026-04-11T08:04:40.04Z</time></trkpt><trkpt lat="44.8843217" lon="9.2467883"><ele>435.0</ele><time>2026-04-11T08:04:41.038Z</time></trkpt><trkpt lat="44.8842533" lon="9.246855"><ele>435.0</ele><time>2026-04-11T08:04:42.039Z</time></trkpt><trkpt lat="44.8841917" lon="9.2469067"><ele>433.75</ele><time>2026-04-11T08:04:43.041Z</time></trkpt><trkpt lat="44.8840933" lon="9.2469983"><ele>432.5</ele><time>2026-04-11T08:04:45.038Z</time></trkpt><trkpt lat="44.88401" lon="9.2471317"><ele>431.25</ele><time>2026-04-11T08:04:47.038Z</time></trkpt><trkpt lat="44.88392" lon="9.2472483"><ele>430.0</ele><time>2026-04-11T08:04:49.04Z</time></trkpt><trkpt lat="44.8838133" lon="9.2473167"><ele>429.6</ele><time>2026-04-11T08:04:51.04Z</time></trkpt><trkpt lat="44.8837083" lon="9.2473067"><ele>429.2</ele><time>2026-04-11T08:04:53.042Z</time></trkpt><trkpt lat="44.8836433" lon="9.2473"><ele>428.79999999999995</ele><time>2026-04-11T08:04:54.041Z</time></trkpt><trkpt lat="44.88357" lon="9.2473083"><ele>428.4</ele><time>2026-04-11T08:04:55.042Z</time></trkpt><trkpt lat="44.883505" lon="9.24733"><ele>428.0</ele><time>2026-04-11T08:04:56.03Z</time></trkpt><trkpt lat="44.88337" lon="9.2473817"><ele>426.59999999999997</ele><time>2026-04-11T08:04:58.039Z</time></trkpt><trkpt lat="44.883305" lon="9.2474317"><ele>425.19999999999993</ele><time>2026-04-11T08:04:59.039Z</time></trkpt><trkpt lat="44.883225" lon="9.247525"><ele>423.8</ele><time>2026-04-11T08:05:01.033Z</time></trkpt><trkpt lat="44.883145" lon="9.2475367"><ele>422.4</ele><time>2026-04-11T08:05:03.042Z</time></trkpt><trkpt lat="44.883085" lon="9.2474683"><ele>421.0</ele><time>2026-04-11T08:05:05.041Z</time></trkpt><trkpt lat="44.8830067" lon="9.2473433"><ele>423.1666666666667</ele><time>2026-04-11T08:05:07.036Z</time></trkpt><trkpt lat="44.88296" lon="9.24728"><ele>425.33333333333337</ele><time>2026-04-11T08:05:08.037Z</time></trkpt><trkpt lat="44.8828733" lon="9.2471917"><ele>427.5</ele><time>2026-04-11T08:05:10.032Z</time></trkpt><trkpt lat="44.882805" lon="9.2470867"><ele>429.66666666666663</ele><time>2026-04-11T08:05:12.038Z</time></trkpt><trkpt lat="44.8827833" lon="9.246995"><ele>431.8333333333333</ele><time>2026-04-11T08:05:13.036Z</time></trkpt><trkpt lat="44.882775" lon="9.2468967"><ele>434.0</ele><time>2026-04-11T08:05:14.037Z</time></trkpt><trkpt lat="44.8827883" lon="9.2467767"><ele>434.0</ele><time>2026-04-11T08:05:15.032Z</time></trkpt><trkpt lat="44.88283" lon="9.2466517"><ele>434.0</ele><time>2026-04-11T08:05:16.037Z</time></trkpt><trkpt lat="44.8828533" lon="9.2465467"><ele>434.0</ele><time>2026-04-11T08:05:17.036Z</time></trkpt><trkpt lat="44.8828617" lon="9.2463933"><ele>434.0</ele><time>2026-04-11T08:05:19.039Z</time></trkpt><trkpt lat="44.8828433" lon="9.2462867"><ele>434.0</ele><time>2026-04-11T08:05:21.042Z</time></trkpt><trkpt lat="44.8828167" lon="9.2461433"><ele>436.1428571428571</ele><time>2026-04-11T08:05:23.039Z</time></trkpt><trkpt lat="44.8827917" lon="9.24606"><ele>438.2857142857143</ele><time>2026-04-11T08:05:24.039Z</time></trkpt><trkpt lat="44.8827667" lon="9.24596"><ele>440.42857142857144</ele><time>2026-04-11T08:05:26.036Z</time></trkpt><trkpt lat="44.88275" lon="9.2458683"><ele>442.57142857142856</ele><time>2026-04-11T08:05:28.039Z</time></trkpt><trkpt lat="44.8827767" lon="9.245765"><ele>444.71428571428567</ele><time>2026-04-11T08:05:30.036Z</time></trkpt><trkpt lat="44.8827767" lon="9.2456483"><ele>446.85714285714283</ele><time>2026-04-11T08:05:32.037Z</time></trkpt><trkpt lat="44.8827233" lon="9.2455867"><ele>449.0</ele><time>2026-04-11T08:05:35.036Z</time></trkpt><trkpt lat="44.882675" lon="9.2456467"><ele>448.99999999999994</ele><time>2026-04-11T08:05:37.038Z</time></trkpt><trkpt lat="44.88263" lon="9.2457233"><ele>449.0</ele><time>2026-04-11T08:05:39.039Z</time></trkpt><trkpt lat="44.882555" lon="9.2458683"><ele>449.0</ele><time>2026-04-11T08:05:41.038Z</time></trkpt><trkpt lat="44.8825133" lon="9.2459633"><ele>449.0</ele><time>2026-04-11T08:05:42.035Z</time></trkpt><trkpt lat="44.8824783" lon="9.24606"><ele>448.99999999999994</ele><time>2026-04-11T08:05:43.032Z</time></trkpt><trkpt lat="44.8824483" lon="9.24617"><ele>449.0</ele><time>2026-04-11T08:05:44.038Z</time></trkpt><trkpt lat="44.8824267" lon="9.24627"><ele>449.49999999999994</ele><time>2026-04-11T08:05:45.039Z</time></trkpt><trkpt lat="44.882405" lon="9.2463633"><ele>450.0</ele><time>2026-04-11T08:05:46.038Z</time></trkpt><trkpt lat="44.88233" lon="9.24642"><ele>450.5</ele><time>2026-04-11T08:05:48.03Z</time></trkpt><trkpt lat="44.8823067" lon="9.2463083"><ele>451.0</ele><time>2026-04-11T08:05:50.037Z</time></trkpt><trkpt lat="44.882275" lon="9.2461467"><ele>451.49999999999994</ele><time>2026-04-11T08:05:52.04Z</time></trkpt><trkpt lat="44.8822333" lon="9.24604"><ele>452.0</ele><time>2026-04-11T08:05:53.036Z</time></trkpt><trkpt lat="44.8821917" lon="9.24594"><ele>452.0</ele><time>2026-04-11T08:05:54.042Z</time></trkpt><trkpt lat="44.8821483" lon="9.245835"><ele>452.00000000000006</ele><time>2026-04-11T08:05:55.04Z</time></trkpt><trkpt lat="44.8821083" lon="9.245705"><ele>452.00000000000006</ele><time>2026-04-11T08:05:56.034Z</time></trkpt><trkpt lat="44.882075" lon="9.24556"><ele>452.0</ele><time>2026-04-11T08:05:57.038Z</time></trkpt><trkpt lat="44.882045" lon="9.2454233"><ele>452.0</ele><time>2026-04-11T08:05:58.038Z</time></trkpt><trkpt lat="44.8820183" lon="9.2453083"><ele>451.99999999999994</ele><time>2026-04-11T08:05:59.039Z</time></trkpt><trkpt lat="44.8819883" lon="9.2452117"><ele>452.0</ele><time>2026-04-11T08:06:00.039Z</time></trkpt><trkpt lat="44.881915" lon="9.245115"><ele>452.0</ele><time>2026-04-11T08:06:02.036Z</time></trkpt><trkpt lat="44.881875" lon="9.2451983"><ele>452.0</ele><time>2026-04-11T08:06:04.038Z</time></trkpt><trkpt lat="44.8818883" lon="9.2453533"><ele>451.99999999999994</ele><time>2026-04-11T08:06:06.038Z</time></trkpt><trkpt lat="44.8818967" lon="9.2454583"><ele>452.0</ele><time>2026-04-11T08:06:07.045Z</time></trkpt><trkpt lat="44.8818983" lon="9.2455717"><ele>451.99999999999994</ele><time>2026-04-11T08:06:08.04Z</time></trkpt><trkpt lat="44.8818933" lon="9.2456833"><ele>452.0</ele><time>2026-04-11T08:06:09.041Z</time></trkpt><trkpt lat="44.88188" lon="9.2457967"><ele>452.0</ele><time>2026-04-11T08:06:10.038Z</time></trkpt><trkpt lat="44.88184" lon="9.2458933"><ele>452.0</ele><time>2026-04-11T08:06:11.039Z</time></trkpt><trkpt lat="44.881795" lon="9.245995"><ele>451.99999999999994</ele><time>2026-04-11T08:06:12.038Z</time></trkpt><trkpt lat="44.881755" lon="9.2460767"><ele>452.0</ele><time>2026-04-11T08:06:13.041Z</time></trkpt><trkpt lat="44.8816933" lon="9.2461417"><ele>457.6</ele><time>2026-04-11T08:06:14.039Z</time></trkpt><trkpt lat="44.8816367" lon="9.2461917"><ele>463.20000000000005</ele><time>2026-04-11T08:06:15.03Z</time></trkpt><trkpt lat="44.8815417" lon="9.24628"><ele>468.8</ele><time>2026-04-11T08:06:17.033Z</time></trkpt><trkpt lat="44.8814667" lon="9.2463283"><ele>474.4</ele><time>2026-04-11T08:06:19.039Z</time></trkpt><trkpt lat="44.8813717" lon="9.2464283"><ele>480.0</ele><time>2026-04-11T08:06:21.041Z</time></trkpt><trkpt lat="44.8813233" lon="9.2465"><ele>480.0</ele><time>2026-04-11T08:06:22.042Z</time></trkpt><trkpt lat="44.8812833" lon="9.24659"><ele>480.0</ele><time>2026-04-11T08:06:23.04Z</time></trkpt><trkpt lat="44.88126" lon="9.24668"><ele>480.0</ele><time>2026-04-11T08:06:24.039Z</time></trkpt><trkpt lat="44.8812367" lon="9.2467717"><ele>480.0</ele><time>2026-04-11T08:06:25.037Z</time></trkpt><trkpt lat="44.88123" lon="9.2468783"><ele>480.0</ele><time>2026-04-11T08:06:26.031Z</time></trkpt><trkpt lat="44.8812417" lon="9.247015"><ele>480.0</ele><time>2026-04-11T08:06:27.04Z</time></trkpt><trkpt lat="44.881255" lon="9.247165"><ele>479.75</ele><time>2026-04-11T08:06:28.037Z</time></trkpt><trkpt lat="44.88125" lon="9.2473167"><ele>479.5</ele><time>2026-04-11T08:06:29.039Z</time></trkpt><trkpt lat="44.8812333" lon="9.2474817"><ele>479.25</ele><time>2026-04-11T08:06:30.035Z</time></trkpt><trkpt lat="44.8811983" lon="9.2476467"><ele>479.0</ele><time>2026-04-11T08:06:31.043Z</time></trkpt><trkpt lat="44.8811483" lon="9.2478"><ele>479.0</ele><time>2026-04-11T08:06:32.041Z</time></trkpt><trkpt lat="44.881095" lon="9.2479383"><ele>479.0</ele><time>2026-04-11T08:06:33.042Z</time></trkpt><trkpt lat="44.88104" lon="9.24804"><ele>479.0</ele><time>2026-04-11T08:06:34.04Z</time></trkpt><trkpt lat="44.880975" lon="9.2481283"><ele>479.0</ele><time>2026-04-11T08:06:35.033Z</time></trkpt><trkpt lat="44.8809" lon="9.2482117"><ele>479.0</ele><time>2026-04-11T08:06:36.038Z</time></trkpt><trkpt lat="44.8808133" lon="9.2483167"><ele>480.4</ele><time>2026-04-11T08:06:37.036Z</time></trkpt><trkpt lat="44.8807233" lon="9.2484217"><ele>481.79999999999995</ele><time>2026-04-11T08:06:38.039Z</time></trkpt><trkpt lat="44.8806517" lon="9.2485233"><ele>483.20000000000005</ele><time>2026-04-11T08:06:39.039Z</time></trkpt><trkpt lat="44.88059" lon="9.2486383"><ele>484.6</ele><time>2026-04-11T08:06:40.04Z</time></trkpt><trkpt lat="44.8805433" lon="9.2487683"><ele>486.0</ele><time>2026-04-11T08:06:41.04Z</time></trkpt><trkpt lat="44.8805117" lon="9.2489083"><ele>485.4</ele><time>2026-04-11T08:06:42.041Z</time></trkpt><trkpt lat="44.8804933" lon="9.24906"><ele>484.8</ele><time>2026-04-11T08:06:43.041Z</time></trkpt><trkpt lat="44.880485" lon="9.2491983"><ele>484.19999999999993</ele><time>2026-04-11T08:06:44.04Z</time></trkpt><trkpt lat="44.8804683" lon="9.24935"><ele>483.59999999999997</ele><time>2026-04-11T08:06:45.039Z</time></trkpt><trkpt lat="44.8804417" lon="9.2495067"><ele>483.0</ele><time>2026-04-11T08:06:46.039Z</time></trkpt><trkpt lat="44.8804283" lon="9.2496617"><ele>483.0</ele><time>2026-04-11T08:06:47.039Z</time></trkpt><trkpt lat="44.88042" lon="9.24979"><ele>483.0</ele><time>2026-04-11T08:06:48.039Z</time></trkpt><trkpt lat="44.8804" lon="9.2499233"><ele>483.0</ele><time>2026-04-11T08:06:49.04Z</time></trkpt><trkpt lat="44.8803767" lon="9.2500383"><ele>483.0</ele><time>2026-04-11T08:06:50.039Z</time></trkpt><trkpt lat="44.8803467" lon="9.25015"><ele>483.0</ele><time>2026-04-11T08:06:51.041Z</time></trkpt><trkpt lat="44.8803133" lon="9.2502633"><ele>483.0</ele><time>2026-04-11T08:06:52.038Z</time></trkpt><trkpt lat="44.88028" lon="9.2503933"><ele>482.2</ele><time>2026-04-11T08:06:53.038Z</time></trkpt><trkpt lat="44.8802733" lon="9.2505383"><ele>481.4</ele><time>2026-04-11T08:06:54.039Z</time></trkpt><trkpt lat="44.88028" lon="9.25069"><ele>480.59999999999997</ele><time>2026-04-11T08:06:55.039Z</time></trkpt><trkpt lat="44.8802817" lon="9.25083"><ele>479.79999999999995</ele><time>2026-04-11T08:06:56.04Z</time></trkpt><trkpt lat="44.8802683" lon="9.2509617"><ele>479.0</ele><time>2026-04-11T08:06:57.039Z</time></trkpt><trkpt lat="44.880235" lon="9.2510933"><ele>477.79999999999995</ele><time>2026-04-11T08:06:58.039Z</time></trkpt><trkpt lat="44.8801967" lon="9.251225"><ele>476.59999999999997</ele><time>2026-04-11T08:06:59.042Z</time></trkpt><trkpt lat="44.8801517" lon="9.2513583"><ele>475.4</ele><time>2026-04-11T08:07:00.038Z</time></trkpt><trkpt lat="44.8800933" lon="9.2514633"><ele>474.2</ele><time>2026-04-11T08:07:01.04Z</time></trkpt><trkpt lat="44.8800117" lon="9.2515583"><ele>473.0</ele><time>2026-04-11T08:07:02.038Z</time></trkpt><trkpt lat="44.8799167" lon="9.2516517"><ele>475.79999999999995</ele><time>2026-04-11T08:07:03.04Z</time></trkpt><trkpt lat="44.879825" lon="9.2517167"><ele>478.59999999999997</ele><time>2026-04-11T08:07:04.038Z</time></trkpt><trkpt lat="44.879745" lon="9.2517867"><ele>481.40000000000003</ele><time>2026-04-11T08:07:05.042Z</time></trkpt><trkpt lat="44.879685" lon="9.2518733"><ele>484.20000000000005</ele><time>2026-04-11T08:07:06.039Z</time></trkpt><trkpt lat="44.87963" lon="9.25197"><ele>487.0</ele><time>2026-04-11T08:07:07.041Z</time></trkpt><trkpt lat="44.8795983" lon="9.2520783"><ele>487.0</ele><time>2026-04-11T08:07:08.034Z</time></trkpt><trkpt lat="44.8795833" lon="9.2522133"><ele>487.00000000000006</ele><time>2026-04-11T08:07:09.04Z</time></trkpt><trkpt lat="44.8795817" lon="9.25235"><ele>487.00000000000006</ele><time>2026-04-11T08:07:10.04Z</time></trkpt><trkpt lat="44.8795917" lon="9.2524867"><ele>487.0</ele><time>2026-04-11T08:07:11.037Z</time></trkpt><trkpt lat="44.8796" lon="9.2526067"><ele>487.0</ele><time>2026-04-11T08:07:12.04Z</time></trkpt><trkpt lat="44.8795983" lon="9.2527133"><ele>486.1666666666667</ele><time>2026-04-11T08:07:13.038Z</time></trkpt><trkpt lat="44.8795833" lon="9.2528133"><ele>485.33333333333337</ele><time>2026-04-11T08:07:14.039Z</time></trkpt><trkpt lat="44.8795517" lon="9.2529067"><ele>484.5</ele><time>2026-04-11T08:07:15.04Z</time></trkpt><trkpt lat="44.8795133" lon="9.2530033"><ele>483.66666666666663</ele><time>2026-04-11T08:07:16.038Z</time></trkpt><trkpt lat="44.87947" lon="9.2531133"><ele>482.8333333333333</ele><time>2026-04-11T08:07:17.038Z</time></trkpt><trkpt lat="44.8794183" lon="9.2532317"><ele>482.0</ele><time>2026-04-11T08:07:18.041Z</time></trkpt><trkpt lat="44.8793617" lon="9.25334"><ele>482.66666666666663</ele><time>2026-04-11T08:07:19.038Z</time></trkpt><trkpt lat="44.8793067" lon="9.2534283"><ele>483.3333333333333</ele><time>2026-04-11T08:07:20.031Z</time></trkpt><trkpt lat="44.8792533" lon="9.2535033"><ele>484.0</ele><time>2026-04-11T08:07:21.04Z</time></trkpt><trkpt lat="44.8791367" lon="9.2535517"><ele>484.66666666666663</ele><time>2026-04-11T08:07:23.036Z</time></trkpt><trkpt lat="44.8790633" lon="9.2535233"><ele>485.3333333333333</ele><time>2026-04-11T08:07:24.037Z</time></trkpt><trkpt lat="44.8789983" lon="9.2534867"><ele>486.0</ele><time>2026-04-11T08:07:25.038Z</time></trkpt><trkpt lat="44.8789383" lon="9.2534383"><ele>486.0</ele><time>2026-04-11T08:07:26.037Z</time></trkpt><trkpt lat="44.87888" lon="9.2533667"><ele>486.0</ele><time>2026-04-11T08:07:27.033Z</time></trkpt><trkpt lat="44.8788317" lon="9.2532833"><ele>486.0</ele><time>2026-04-11T08:07:28.037Z</time></trkpt><trkpt lat="44.8787833" lon="9.2531933"><ele>486.0</ele><time>2026-04-11T08:07:29.038Z</time></trkpt><trkpt lat="44.8787367" lon="9.2531017"><ele>486.0</ele><time>2026-04-11T08:07:30.039Z</time></trkpt><trkpt lat="44.8786933" lon="9.2530167"><ele>486.0</ele><time>2026-04-11T08:07:31.042Z</time></trkpt><trkpt lat="44.8786433" lon="9.2529367"><ele>485.20000000000005</ele><time>2026-04-11T08:07:32.036Z</time></trkpt><trkpt lat="44.8785767" lon="9.2528467"><ele>484.40000000000003</ele><time>2026-04-11T08:07:33.039Z</time></trkpt><trkpt lat="44.8784967" lon="9.2527533"><ele>483.6</ele><time>2026-04-11T08:07:34.031Z</time></trkpt><trkpt lat="44.8784217" lon="9.2526633"><ele>482.8</ele><time>2026-04-11T08:07:35.035Z</time></trkpt><trkpt lat="44.8783533" lon="9.2525833"><ele>482.0</ele><time>2026-04-11T08:07:36.039Z</time></trkpt><trkpt lat="44.8782933" lon="9.2525167"><ele>479.49999999999994</ele><time>2026-04-11T08:07:37.04Z</time></trkpt><trkpt lat="44.8782267" lon="9.25248"><ele>477.0</ele><time>2026-04-11T08:07:38.035Z</time></trkpt><trkpt lat="44.8781467" lon="9.2524317"><ele>474.5</ele><time>2026-04-11T08:07:39.036Z</time></trkpt><trkpt lat="44.8780717" lon="9.2523783"><ele>472.0</ele><time>2026-04-11T08:07:40.038Z</time></trkpt><trkpt lat="44.8779983" lon="9.2523033"><ele>469.49999999999994</ele><time>2026-04-11T08:07:41.038Z</time></trkpt><trkpt lat="44.87793" lon="9.2522183"><ele>467.0</ele><time>2026-04-11T08:07:42.038Z</time></trkpt><trkpt lat="44.8778567" lon="9.2521617"><ele>466.3333333333333</ele><time>2026-04-11T08:07:43.042Z</time></trkpt><trkpt lat="44.8777867" lon="9.2521267"><ele>465.66666666666663</ele><time>2026-04-11T08:07:44.042Z</time></trkpt><trkpt lat="44.8777083" lon="9.252105"><ele>465.0</ele><time>2026-04-11T08:07:45.041Z</time></trkpt><trkpt lat="44.8776283" lon="9.2520833"><ele>464.33333333333337</ele><time>2026-04-11T08:07:46.043Z</time></trkpt><trkpt lat="44.877535" lon="9.252065"><ele>463.6666666666667</ele><time>2026-04-11T08:07:47.039Z</time></trkpt><trkpt lat="44.877445" lon="9.2520333"><ele>463.0</ele><time>2026-04-11T08:07:48.038Z</time></trkpt><trkpt lat="44.87736" lon="9.251985"><ele>461.2</ele><time>2026-04-11T08:07:49.037Z</time></trkpt><trkpt lat="44.8772817" lon="9.25193"><ele>459.4</ele><time>2026-04-11T08:07:50.039Z</time></trkpt><trkpt lat="44.8772017" lon="9.251855"><ele>457.59999999999997</ele><time>2026-04-11T08:07:51.041Z</time></trkpt><trkpt lat="44.8771117" lon="9.251795"><ele>455.79999999999995</ele><time>2026-04-11T08:07:52.041Z</time></trkpt><trkpt lat="44.8770217" lon="9.2517583"><ele>454.0</ele><time>2026-04-11T08:07:53.039Z</time></trkpt><trkpt lat="44.8769367" lon="9.2517483"><ele>454.00000000000006</ele><time>2026-04-11T08:07:54.039Z</time></trkpt><trkpt lat="44.876865" lon="9.251765"><ele>454.0</ele><time>2026-04-11T08:07:55.041Z</time></trkpt><trkpt lat="44.8767967" lon="9.25178"><ele>454.0</ele><time>2026-04-11T08:07:56.038Z</time></trkpt><trkpt lat="44.87673" lon="9.251795"><ele>454.0</ele><time>2026-04-11T08:07:57.039Z</time></trkpt><trkpt lat="44.876655" lon="9.2517967"><ele>454.00000000000006</ele><time>2026-04-11T08:07:58.039Z</time></trkpt><trkpt lat="44.8765717" lon="9.251795"><ele>454.0</ele><time>2026-04-11T08:07:59.039Z</time></trkpt><trkpt lat="44.8764833" lon="9.251805"><ele>451.2</ele><time>2026-04-11T08:08:00.04Z</time></trkpt><trkpt lat="44.8763933" lon="9.25181"><ele>448.4</ele><time>2026-04-11T08:08:01.039Z</time></trkpt><trkpt lat="44.8763" lon="9.251795"><ele>445.6</ele><time>2026-04-11T08:08:02.039Z</time></trkpt><trkpt lat="44.8762033" lon="9.2517683"><ele>442.8</ele><time>2026-04-11T08:08:03.039Z</time></trkpt><trkpt lat="44.8761033" lon="9.2517233"><ele>440.0</ele><time>2026-04-11T08:08:04.042Z</time></trkpt><trkpt lat="44.8759983" lon="9.2517067"><ele>437.8</ele><time>2026-04-11T08:08:05.033Z</time></trkpt><trkpt lat="44.8759033" lon="9.251715"><ele>435.6</ele><time>2026-04-11T08:08:06.038Z</time></trkpt><trkpt lat="44.8757983" lon="9.25172"><ele>433.4</ele><time>2026-04-11T08:08:07.033Z</time></trkpt><trkpt lat="44.8756933" lon="9.2517117"><ele>431.2</ele><time>2026-04-11T08:08:08.034Z</time></trkpt><trkpt lat="44.8755867" lon="9.25171"><ele>429.0</ele><time>2026-04-11T08:08:09.041Z</time></trkpt><trkpt lat="44.8754883" lon="9.251705"><ele>429.0</ele><time>2026-04-11T08:08:10.035Z</time></trkpt><trkpt lat="44.8754033" lon="9.2516867"><ele>429.0</ele><time>2026-04-11T08:08:11.037Z</time></trkpt><trkpt lat="44.8753417" lon="9.2516617"><ele>429.0</ele><time>2026-04-11T08:08:12.038Z</time></trkpt><trkpt lat="44.8752633" lon="9.2516383"><ele>429.0</ele><time>2026-04-11T08:08:14.039Z</time></trkpt><trkpt lat="44.8752117" lon="9.2517317"><ele>429.0</ele><time>2026-04-11T08:08:31.033Z</time></trkpt><trkpt lat="44.8751933" lon="9.2518167"><ele>429.0</ele><time>2026-04-11T08:08:32.041Z</time></trkpt><trkpt lat="44.87518" lon="9.2519483"><ele>429.0</ele><time>2026-04-11T08:08:33.041Z</time></trkpt><trkpt lat="44.87517" lon="9.2521317"><ele>429.0</ele><time>2026-04-11T08:08:34.031Z</time></trkpt><trkpt lat="44.8751467" lon="9.2523167"><ele>429.0</ele><time>2026-04-11T08:08:35.039Z</time></trkpt><trkpt lat="44.8751067" lon="9.2525033"><ele>429.0</ele><time>2026-04-11T08:08:36.042Z</time></trkpt><trkpt lat="44.8750467" lon="9.25269"><ele>428.75</ele><time>2026-04-11T08:08:37.039Z</time></trkpt><trkpt lat="44.874985" lon="9.2528717"><ele>428.5</ele><time>2026-04-11T08:08:38.031Z</time></trkpt><trkpt lat="44.8749217" lon="9.2530467"><ele>428.25</ele><time>2026-04-11T08:08:39.037Z</time></trkpt><trkpt lat="44.8748483" lon="9.2532083"><ele>428.0</ele><time>2026-04-11T08:08:40.032Z</time></trkpt><trkpt lat="44.8747533" lon="9.2533383"><ele>428.0</ele><time>2026-04-11T08:08:41.038Z</time></trkpt><trkpt lat="44.8746433" lon="9.2534233"><ele>428.0</ele><time>2026-04-11T08:08:42.041Z</time></trkpt><trkpt lat="44.8745317" lon="9.2534883"><ele>428.0</ele><time>2026-04-11T08:08:43.036Z</time></trkpt><trkpt lat="44.87442" lon="9.253545"><ele>428.0</ele><time>2026-04-11T08:08:44.034Z</time></trkpt><trkpt lat="44.874305" lon="9.2536183"><ele>427.25</ele><time>2026-04-11T08:08:45.041Z</time></trkpt><trkpt lat="44.8742017" lon="9.2536983"><ele>426.5</ele><time>2026-04-11T08:08:46.039Z</time></trkpt><trkpt lat="44.8741117" lon="9.2538067"><ele>425.75</ele><time>2026-04-11T08:08:47.041Z</time></trkpt><trkpt lat="44.8740417" lon="9.25393"><ele>425.0</ele><time>2026-04-11T08:08:48.037Z</time></trkpt><trkpt lat="44.8739883" lon="9.2540533"><ele>423.8</ele><time>2026-04-11T08:08:49.041Z</time></trkpt><trkpt lat="44.8739317" lon="9.2541483"><ele>422.6</ele><time>2026-04-11T08:08:50.038Z</time></trkpt><trkpt lat="44.87386" lon="9.2542"><ele>421.4</ele><time>2026-04-11T08:08:51.039Z</time></trkpt><trkpt lat="44.8737733" lon="9.2542167"><ele>420.2</ele><time>2026-04-11T08:08:52.041Z</time></trkpt><trkpt lat="44.8736683" lon="9.2541783"><ele>419.0</ele><time>2026-04-11T08:08:53.039Z</time></trkpt><trkpt lat="44.8735617" lon="9.2541033"><ele>419.0</ele><time>2026-04-11T08:08:54.037Z</time></trkpt><trkpt lat="44.873455" lon="9.253995"><ele>419.0</ele><time>2026-04-11T08:08:55.038Z</time></trkpt><trkpt lat="44.8733467" lon="9.253875"><ele>419.0</ele><time>2026-04-11T08:08:56.04Z</time></trkpt><trkpt lat="44.873235" lon="9.2537467"><ele>419.0</ele><time>2026-04-11T08:08:57.037Z</time></trkpt><trkpt lat="44.8731167" lon="9.2536083"><ele>421.3333333333333</ele><time>2026-04-11T08:08:58.034Z</time></trkpt><trkpt lat="44.8729917" lon="9.253465"><ele>423.66666666666663</ele><time>2026-04-11T08:08:59.038Z</time></trkpt><trkpt lat="44.872865" lon="9.2533183"><ele>426.0</ele><time>2026-04-11T08:09:00.038Z</time></trkpt><trkpt lat="44.8727467" lon="9.25318"><ele>427.0</ele><time>2026-04-11T08:09:01.04Z</time></trkpt><trkpt lat="44.8726483" lon="9.2530433"><ele>428.0</ele><time>2026-04-11T08:09:02.035Z</time></trkpt><trkpt lat="44.872555" lon="9.25293"><ele>429.0</ele><time>2026-04-11T08:09:03.042Z</time></trkpt><trkpt lat="44.8724417" lon="9.252835"><ele>430.0</ele><time>2026-04-11T08:09:04.042Z</time></trkpt><trkpt lat="44.872315" lon="9.25275"><ele>430.0</ele><time>2026-04-11T08:09:05.04Z</time></trkpt><trkpt lat="44.87217" lon="9.25267"><ele>430.0</ele><time>2026-04-11T08:09:06.04Z</time></trkpt><trkpt lat="44.8720217" lon="9.2525933"><ele>430.0</ele><time>2026-04-11T08:09:07.043Z</time></trkpt><trkpt lat="44.87188" lon="9.2525067"><ele>429.0</ele><time>2026-04-11T08:09:08.042Z</time></trkpt><trkpt lat="44.8717333" lon="9.25243"><ele>428.0</ele><time>2026-04-11T08:09:09.044Z</time></trkpt><trkpt lat="44.87158" lon="9.2523567"><ele>427.0</ele><time>2026-04-11T08:09:10.034Z</time></trkpt><trkpt lat="44.8714217" lon="9.2522917"><ele>428.6666666666667</ele><time>2026-04-11T08:09:11.039Z</time></trkpt><trkpt lat="44.8712567" lon="9.2522383"><ele>430.33333333333337</ele><time>2026-04-11T08:09:12.041Z</time></trkpt><trkpt lat="44.8710967" lon="9.252195"><ele>432.0</ele><time>2026-04-11T08:09:13.041Z</time></trkpt><trkpt lat="44.8709383" lon="9.2521583"><ele>432.0</ele><time>2026-04-11T08:09:14.036Z</time></trkpt><trkpt lat="44.8707733" lon="9.2521233"><ele>432.0</ele><time>2026-04-11T08:09:15.035Z</time></trkpt><trkpt lat="44.870595" lon="9.2520883"><ele>432.0</ele><time>2026-04-11T08:09:16.043Z</time></trkpt><trkpt lat="44.8704133" lon="9.2520667"><ele>432.0</ele><time>2026-04-11T08:09:17.041Z</time></trkpt><trkpt lat="44.870235" lon="9.2520583"><ele>432.0</ele><time>2026-04-11T08:09:18.04Z</time></trkpt><trkpt lat="44.87006" lon="9.2520533"><ele>432.0</ele><time>2026-04-11T08:09:19.038Z</time></trkpt><trkpt lat="44.8698833" lon="9.2520467"><ele>432.66666666666663</ele><time>2026-04-11T08:09:20.039Z</time></trkpt><trkpt lat="44.8697083" lon="9.252045"><ele>433.3333333333333</ele><time>2026-04-11T08:09:21.041Z</time></trkpt><trkpt lat="44.8695267" lon="9.2520383"><ele>434.0</ele><time>2026-04-11T08:09:22.038Z</time></trkpt><trkpt lat="44.8693433" lon="9.2520333"><ele>434.66666666666663</ele><time>2026-04-11T08:09:23.041Z</time></trkpt><trkpt lat="44.8691683" lon="9.2520267"><ele>435.33333333333337</ele><time>2026-04-11T08:09:24.037Z</time></trkpt><trkpt lat="44.8689983" lon="9.2520217"><ele>436.0</ele><time>2026-04-11T08:09:25.041Z</time></trkpt><trkpt lat="44.8688283" lon="9.252015"><ele>436.0</ele><time>2026-04-11T08:09:26.038Z</time></trkpt><trkpt lat="44.8686533" lon="9.2520033"><ele>436.0</ele><time>2026-04-11T08:09:27.037Z</time></trkpt><trkpt lat="44.8684817" lon="9.2519883"><ele>436.0</ele><time>2026-04-11T08:09:28.039Z</time></trkpt><trkpt lat="44.868315" lon="9.251965"><ele>437.0</ele><time>2026-04-11T08:09:29.039Z</time></trkpt><trkpt lat="44.86815" lon="9.2519317"><ele>438.0</ele><time>2026-04-11T08:09:30.038Z</time></trkpt><trkpt lat="44.8679833" lon="9.2518767"><ele>439.0</ele><time>2026-04-11T08:09:31.04Z</time></trkpt><trkpt lat="44.86782" lon="9.2518017"><ele>439.0</ele><time>2026-04-11T08:09:32.038Z</time></trkpt><trkpt lat="44.8676517" lon="9.2517083"><ele>439.0</ele><time>2026-04-11T08:09:33.04Z</time></trkpt><trkpt lat="44.867485" lon="9.25161"><ele>439.0</ele><time>2026-04-11T08:09:34.039Z</time></trkpt><trkpt lat="44.86731" lon="9.2515183"><ele>440.6666666666667</ele><time>2026-04-11T08:09:35.044Z</time></trkpt><trkpt lat="44.8671383" lon="9.2514267"><ele>442.33333333333337</ele><time>2026-04-11T08:09:36.038Z</time></trkpt><trkpt lat="44.8669617" lon="9.2513433"><ele>444.0</ele><time>2026-04-11T08:09:37.037Z</time></trkpt><trkpt lat="44.8667833" lon="9.2512633"><ele>443.66666666666663</ele><time>2026-04-11T08:09:38.041Z</time></trkpt><trkpt lat="44.8666017" lon="9.251185"><ele>443.3333333333333</ele><time>2026-04-11T08:09:39.039Z</time></trkpt><trkpt lat="44.866425" lon="9.2511117"><ele>443.0</ele><time>2026-04-11T08:09:40.04Z</time></trkpt><trkpt lat="44.8662533" lon="9.25105"><ele>443.0</ele><time>2026-04-11T08:09:41.039Z</time></trkpt><trkpt lat="44.866085" lon="9.2509983"><ele>443.0</ele><time>2026-04-11T08:09:42.039Z</time></trkpt><trkpt lat="44.8659183" lon="9.2509467"><ele>443.0</ele><time>2026-04-11T08:09:43.042Z</time></trkpt><trkpt lat="44.8657517" lon="9.2509"><ele>444.3333333333333</ele><time>2026-04-11T08:09:44.043Z</time></trkpt><trkpt lat="44.8655817" lon="9.2508467"><ele>445.66666666666663</ele><time>2026-04-11T08:09:45.038Z</time></trkpt><trkpt lat="44.8654217" lon="9.2508"><ele>447.0</ele><time>2026-04-11T08:09:46.033Z</time></trkpt><trkpt lat="44.8652667" lon="9.2507517"><ele>447.0</ele><time>2026-04-11T08:09:47.034Z</time></trkpt><trkpt lat="44.8651217" lon="9.2507033"><ele>447.0</ele><time>2026-04-11T08:09:48.041Z</time></trkpt><trkpt lat="44.8649883" lon="9.2506633"><ele>447.0</ele><time>2026-04-11T08:09:49.039Z</time></trkpt><trkpt lat="44.8648633" lon="9.2506383"><ele>447.0</ele><time>2026-04-11T08:09:50.04Z</time></trkpt><trkpt lat="44.864745" lon="9.25061"><ele>447.20000000000005</ele><time>2026-04-11T08:09:51.035Z</time></trkpt><trkpt lat="44.8646383" lon="9.2505683"><ele>447.40000000000003</ele><time>2026-04-11T08:09:52.039Z</time></trkpt><trkpt lat="44.8645433" lon="9.25054"><ele>447.59999999999997</ele><time>2026-04-11T08:09:53.039Z</time></trkpt><trkpt lat="44.864465" lon="9.25054"><ele>447.79999999999995</ele><time>2026-04-11T08:09:54.035Z</time></trkpt><trkpt lat="44.8643883" lon="9.2505683"><ele>448.0</ele><time>2026-04-11T08:09:55.038Z</time></trkpt><trkpt lat="44.8643083" lon="9.2506333"><ele>448.59999999999997</ele><time>2026-04-11T08:09:56.039Z</time></trkpt><trkpt lat="44.86422" lon="9.2506983"><ele>449.19999999999993</ele><time>2026-04-11T08:09:57.039Z</time></trkpt><trkpt lat="44.86412" lon="9.2507183"><ele>449.8</ele><time>2026-04-11T08:09:58.038Z</time></trkpt><trkpt lat="44.8640183" lon="9.2507017"><ele>450.4</ele><time>2026-04-11T08:09:59.038Z</time></trkpt><trkpt lat="44.8639133" lon="9.2506767"><ele>451.0</ele><time>2026-04-11T08:10:00.04Z</time></trkpt><trkpt lat="44.8638083" lon="9.250675"><ele>451.0</ele><time>2026-04-11T08:10:01.042Z</time></trkpt><trkpt lat="44.8637117" lon="9.2507133"><ele>451.0</ele><time>2026-04-11T08:10:02.039Z</time></trkpt><trkpt lat="44.8636233" lon="9.2508067"><ele>451.0</ele><time>2026-04-11T08:10:03.042Z</time></trkpt><trkpt lat="44.8635483" lon="9.2509433"><ele>451.0</ele><time>2026-04-11T08:10:04.033Z</time></trkpt><trkpt lat="44.86348" lon="9.2511017"><ele>453.0</ele><time>2026-04-11T08:10:05.043Z</time></trkpt><trkpt lat="44.86341" lon="9.2512783"><ele>455.0</ele><time>2026-04-11T08:10:06.038Z</time></trkpt><trkpt lat="44.8633367" lon="9.2514683"><ele>457.0</ele><time>2026-04-11T08:10:07.04Z</time></trkpt><trkpt lat="44.8632683" lon="9.2516683"><ele>459.0</ele><time>2026-04-11T08:10:08.038Z</time></trkpt><trkpt lat="44.8632" lon="9.25188"><ele>461.0</ele><time>2026-04-11T08:10:09.043Z</time></trkpt><trkpt lat="44.8631317" lon="9.2520867"><ele>463.0</ele><time>2026-04-11T08:10:10.041Z</time></trkpt><trkpt lat="44.863065" lon="9.2522767"><ele>464.5</ele><time>2026-04-11T08:10:11.035Z</time></trkpt><trkpt lat="44.863" lon="9.25245"><ele>466.0</ele><time>2026-04-11T08:10:12.039Z</time></trkpt><trkpt lat="44.8629267" lon="9.2526067"><ele>467.5</ele><time>2026-04-11T08:10:13.035Z</time></trkpt><trkpt lat="44.8628417" lon="9.2527467"><ele>469.0</ele><time>2026-04-11T08:10:14.039Z</time></trkpt><trkpt lat="44.862745" lon="9.252855"><ele>469.0</ele><time>2026-04-11T08:10:15.044Z</time></trkpt><trkpt lat="44.8626333" lon="9.2529467"><ele>469.0</ele><time>2026-04-11T08:10:16.035Z</time></trkpt><trkpt lat="44.8625083" lon="9.25304"><ele>469.0</ele><time>2026-04-11T08:10:17.042Z</time></trkpt><trkpt lat="44.8623817" lon="9.2531433"><ele>469.0</ele><time>2026-04-11T08:10:18.035Z</time></trkpt><trkpt lat="44.8622567" lon="9.253265"><ele>472.0</ele><time>2026-04-11T08:10:19.037Z</time></trkpt><trkpt lat="44.8621333" lon="9.253395"><ele>475.0</ele><time>2026-04-11T08:10:20.037Z</time></trkpt><trkpt lat="44.8620183" lon="9.25352"><ele>478.0</ele><time>2026-04-11T08:10:21.041Z</time></trkpt><trkpt lat="44.86191" lon="9.253635"><ele>481.0</ele><time>2026-04-11T08:10:22.037Z</time></trkpt><trkpt lat="44.8618117" lon="9.2537367"><ele>482.25</ele><time>2026-04-11T08:10:23.04Z</time></trkpt><trkpt lat="44.861715" lon="9.253825"><ele>483.5</ele><time>2026-04-11T08:10:24.039Z</time></trkpt><trkpt lat="44.861605" lon="9.253895"><ele>484.75</ele><time>2026-04-11T08:10:25.04Z</time></trkpt><trkpt lat="44.86148" lon="9.2539333"><ele>486.0</ele><time>2026-04-11T08:10:26.039Z</time></trkpt><trkpt lat="44.861345" lon="9.2539533"><ele>488.25</ele><time>2026-04-11T08:10:27.036Z</time></trkpt><trkpt lat="44.86121" lon="9.2539683"><ele>490.5</ele><time>2026-04-11T08:10:28.038Z</time></trkpt><trkpt lat="44.8610833" lon="9.2539767"><ele>492.75</ele><time>2026-04-11T08:10:29.04Z</time></trkpt><trkpt lat="44.8609617" lon="9.2539817"><ele>495.0</ele><time>2026-04-11T08:10:30.038Z</time></trkpt><trkpt lat="44.860845" lon="9.253995"><ele>496.6666666666667</ele><time>2026-04-11T08:10:31.042Z</time></trkpt><trkpt lat="44.8607383" lon="9.2540233"><ele>498.33333333333337</ele><time>2026-04-11T08:10:32.041Z</time></trkpt><trkpt lat="44.8606517" lon="9.2540517"><ele>500.0</ele><time>2026-04-11T08:10:33.041Z</time></trkpt><trkpt lat="44.8605883" lon="9.2540733"><ele>501.6666666666667</ele><time>2026-04-11T08:10:34.041Z</time></trkpt><trkpt lat="44.8605017" lon="9.2541483"><ele>503.33333333333337</ele><time>2026-04-11T08:10:41.037Z</time></trkpt><trkpt lat="44.86044" lon="9.2542133"><ele>505.0</ele><time>2026-04-11T08:10:43.042Z</time></trkpt><trkpt lat="44.8603583" lon="9.254285"><ele>505.0</ele><time>2026-04-11T08:10:45.041Z</time></trkpt><trkpt lat="44.8602617" lon="9.2543517"><ele>505.0</ele><time>2026-04-11T08:10:47.039Z</time></trkpt><trkpt lat="44.860175" lon="9.254435"><ele>505.0</ele><time>2026-04-11T08:10:49.042Z</time></trkpt><trkpt lat="44.8600833" lon="9.2545117"><ele>505.0</ele><time>2026-04-11T08:10:51.039Z</time></trkpt><trkpt lat="44.8599817" lon="9.2545933"><ele>505.0</ele><time>2026-04-11T08:10:53.042Z</time></trkpt><trkpt lat="44.859865" lon="9.2546733"><ele>505.8</ele><time>2026-04-11T08:10:55.042Z</time></trkpt><trkpt lat="44.8597917" lon="9.2547217"><ele>506.6</ele><time>2026-04-11T08:10:56.035Z</time></trkpt><trkpt lat="44.8597033" lon="9.2547817"><ele>507.4</ele><time>2026-04-11T08:10:57.041Z</time></trkpt><trkpt lat="44.8595983" lon="9.2548483"><ele>508.2</ele><time>2026-04-11T08:10:58.039Z</time></trkpt><trkpt lat="44.85948" lon="9.2549067"><ele>509.0</ele><time>2026-04-11T08:10:59.037Z</time></trkpt><trkpt lat="44.8593467" lon="9.2549517"><ele>511.0</ele><time>2026-04-11T08:11:00.038Z</time></trkpt><trkpt lat="44.8592" lon="9.2549833"><ele>513.0</ele><time>2026-04-11T08:11:01.037Z</time></trkpt><trkpt lat="44.8590517" lon="9.2550117"><ele>515.0</ele><time>2026-04-11T08:11:02.041Z</time></trkpt><trkpt lat="44.858915" lon="9.2550417"><ele>517.0</ele><time>2026-04-11T08:11:03.038Z</time></trkpt><trkpt lat="44.8587983" lon="9.2550767"><ele>517.0</ele><time>2026-04-11T08:11:04.038Z</time></trkpt><trkpt lat="44.8587067" lon="9.2551233"><ele>517.0</ele><time>2026-04-11T08:11:05.038Z</time></trkpt><trkpt lat="44.8586317" lon="9.2551967"><ele>517.0</ele><time>2026-04-11T08:11:06.038Z</time></trkpt><trkpt lat="44.8585717" lon="9.2553033"><ele>517.0</ele><time>2026-04-11T08:11:07.041Z</time></trkpt><trkpt lat="44.8585283" lon="9.255455"><ele>517.0</ele><time>2026-04-11T08:11:08.041Z</time></trkpt><trkpt lat="44.85849" lon="9.255625"><ele>519.0</ele><time>2026-04-11T08:11:09.039Z</time></trkpt><trkpt lat="44.8584533" lon="9.2558067"><ele>521.0</ele><time>2026-04-11T08:11:10.04Z</time></trkpt><trkpt lat="44.8584183" lon="9.2559817"><ele>523.0</ele><time>2026-04-11T08:11:11.041Z</time></trkpt><trkpt lat="44.8583867" lon="9.2561417"><ele>525.0</ele><time>2026-04-11T08:11:12.037Z</time></trkpt><trkpt lat="44.858355" lon="9.2562917"><ele>525.6666666666666</ele><time>2026-04-11T08:11:13.039Z</time></trkpt><trkpt lat="44.8583333" lon="9.2564167"><ele>526.3333333333334</ele><time>2026-04-11T08:11:14.039Z</time></trkpt><trkpt lat="44.8583183" lon="9.256505"><ele>527.0</ele><time>2026-04-11T08:11:15.038Z</time></trkpt><trkpt lat="44.8582817" lon="9.2566083"><ele>527.6666666666667</ele><time>2026-04-11T08:11:18.041Z</time></trkpt><trkpt lat="44.8581983" lon="9.2565783"><ele>528.3333333333334</ele><time>2026-04-11T08:11:20.035Z</time></trkpt><trkpt lat="44.85814" lon="9.2565017"><ele>529.0</ele><time>2026-04-11T08:11:21.033Z</time></trkpt><trkpt lat="44.8580767" lon="9.2563833"><ele>529.0</ele><time>2026-04-11T08:11:22.03Z</time></trkpt><trkpt lat="44.8580017" lon="9.2562433"><ele>529.0</ele><time>2026-04-11T08:11:23.033Z</time></trkpt><trkpt lat="44.8579217" lon="9.256105"><ele>529.0</ele><time>2026-04-11T08:11:24.038Z</time></trkpt><trkpt lat="44.8578367" lon="9.25599"><ele>529.0</ele><time>2026-04-11T08:11:25.042Z</time></trkpt><trkpt lat="44.85774" lon="9.2559"><ele>529.0</ele><time>2026-04-11T08:11:26.033Z</time></trkpt><trkpt lat="44.8576367" lon="9.2558467"><ele>529.0</ele><time>2026-04-11T08:11:27.035Z</time></trkpt><trkpt lat="44.8575133" lon="9.2558283"><ele>529.0</ele><time>2026-04-11T08:11:28.037Z</time></trkpt><trkpt lat="44.8573767" lon="9.25584"><ele>529.0</ele><time>2026-04-11T08:11:29.039Z</time></trkpt><trkpt lat="44.857235" lon="9.2558767"><ele>529.0</ele><time>2026-04-11T08:11:30.041Z</time></trkpt><trkpt lat="44.8571017" lon="9.2559283"><ele>529.0</ele><time>2026-04-11T08:11:31.041Z</time></trkpt><trkpt lat="44.8569817" lon="9.2559783"><ele>529.0</ele><time>2026-04-11T08:11:32.039Z</time></trkpt><trkpt lat="44.8568733" lon="9.256025"><ele>529.0</ele><time>2026-04-11T08:11:33.039Z</time></trkpt><trkpt lat="44.85678" lon="9.256065"><ele>529.0</ele><time>2026-04-11T08:11:34.041Z</time></trkpt><trkpt lat="44.8567" lon="9.2561017"><ele>529.0</ele><time>2026-04-11T08:11:35.038Z</time></trkpt><trkpt lat="44.8566383" lon="9.2561517"><ele>529.0</ele><time>2026-04-11T08:11:36.043Z</time></trkpt><trkpt lat="44.8565883" lon="9.2562167"><ele>529.0</ele><time>2026-04-11T08:11:37.04Z</time></trkpt><trkpt lat="44.85656" lon="9.25631"><ele>529.0</ele><time>2026-04-11T08:11:38.038Z</time></trkpt><trkpt lat="44.856555" lon="9.2564333"><ele>529.0</ele><time>2026-04-11T08:11:39.04Z</time></trkpt><trkpt lat="44.8565667" lon="9.25658"><ele>530.8</ele><time>2026-04-11T08:11:40.039Z</time></trkpt><trkpt lat="44.8565733" lon="9.2567267"><ele>532.5999999999999</ele><time>2026-04-11T08:11:41.041Z</time></trkpt><trkpt lat="44.8565833" lon="9.256875"><ele>534.4</ele><time>2026-04-11T08:11:42.038Z</time></trkpt><trkpt lat="44.8565917" lon="9.257015"><ele>536.1999999999999</ele><time>2026-04-11T08:11:43.041Z</time></trkpt><trkpt lat="44.856595" lon="9.2571517"><ele>538.0</ele><time>2026-04-11T08:11:44.039Z</time></trkpt><trkpt lat="44.8566017" lon="9.2572817"><ele>539.4</ele><time>2026-04-11T08:11:45.045Z</time></trkpt><trkpt lat="44.856605" lon="9.25739"><ele>540.8</ele><time>2026-04-11T08:11:46.037Z</time></trkpt><trkpt lat="44.85656" lon="9.2575317"><ele>542.2</ele><time>2026-04-11T08:11:48.041Z</time></trkpt><trkpt lat="44.8564283" lon="9.2575533"><ele>543.6</ele><time>2026-04-11T08:11:50.04Z</time></trkpt><trkpt lat="44.8563383" lon="9.2575483"><ele>545.0</ele><time>2026-04-11T08:11:51.042Z</time></trkpt><trkpt lat="44.8562667" lon="9.2574983"><ele>545.0</ele><time>2026-04-11T08:11:52.041Z</time></trkpt><trkpt lat="44.8562067" lon="9.2574233"><ele>545.0</ele><time>2026-04-11T08:11:53.042Z</time></trkpt><trkpt lat="44.8561317" lon="9.2573317"><ele>545.0</ele><time>2026-04-11T08:11:54.035Z</time></trkpt><trkpt lat="44.8560367" lon="9.2572567"><ele>545.0</ele><time>2026-04-11T08:11:55.041Z</time></trkpt><trkpt lat="44.8559317" lon="9.2572117"><ele>545.0</ele><time>2026-04-11T08:11:56.04Z</time></trkpt><trkpt lat="44.8558217" lon="9.2571733"><ele>543.75</ele><time>2026-04-11T08:11:57.043Z</time></trkpt><trkpt lat="44.8557083" lon="9.2571333"><ele>542.5</ele><time>2026-04-11T08:11:58.038Z</time></trkpt><trkpt lat="44.8555917" lon="9.2570917"><ele>541.25</ele><time>2026-04-11T08:11:59.038Z</time></trkpt><trkpt lat="44.8554767" lon="9.2570417"><ele>540.0</ele><time>2026-04-11T08:12:00.038Z</time></trkpt><trkpt lat="44.8553717" lon="9.2569817"><ele>540.0</ele><time>2026-04-11T08:12:01.037Z</time></trkpt><trkpt lat="44.8552717" lon="9.2568983"><ele>540.0</ele><time>2026-04-11T08:12:02.037Z</time></trkpt><trkpt lat="44.8551817" lon="9.2568083"><ele>540.0</ele><time>2026-04-11T08:12:03.038Z</time></trkpt><trkpt lat="44.8550933" lon="9.2567367"><ele>540.0</ele><time>2026-04-11T08:12:04.037Z</time></trkpt><trkpt lat="44.855" lon="9.2566867"><ele>540.0</ele><time>2026-04-11T08:12:05.039Z</time></trkpt><trkpt lat="44.8549" lon="9.2566533"><ele>541.2</ele><time>2026-04-11T08:12:06.038Z</time></trkpt><trkpt lat="44.8548" lon="9.25665"><ele>542.4</ele><time>2026-04-11T08:12:07.039Z</time></trkpt><trkpt lat="44.8547017" lon="9.2566967"><ele>543.6</ele><time>2026-04-11T08:12:08.04Z</time></trkpt><trkpt lat="44.854615" lon="9.2567633"><ele>544.8</ele><time>2026-04-11T08:12:09.042Z</time></trkpt><trkpt lat="44.8545283" lon="9.2568683"><ele>546.0</ele><time>2026-04-11T08:12:10.039Z</time></trkpt><trkpt lat="44.8544317" lon="9.2569817"><ele>546.0</ele><time>2026-04-11T08:12:11.041Z</time></trkpt><trkpt lat="44.8543283" lon="9.2570833"><ele>546.0</ele><time>2026-04-11T08:12:12.041Z</time></trkpt><trkpt lat="44.8542267" lon="9.257185"><ele>546.0</ele><time>2026-04-11T08:12:13.042Z</time></trkpt><trkpt lat="44.8541417" lon="9.2572883"><ele>546.0</ele><time>2026-04-11T08:12:14.041Z</time></trkpt><trkpt lat="44.85407" lon="9.2574133"><ele>548.0</ele><time>2026-04-11T08:12:15.039Z</time></trkpt><trkpt lat="44.85401" lon="9.257555"><ele>550.0</ele><time>2026-04-11T08:12:16.04Z</time></trkpt><trkpt lat="44.853945" lon="9.2577167"><ele>552.0</ele><time>2026-04-11T08:12:17.04Z</time></trkpt><trkpt lat="44.8538717" lon="9.2578817"><ele>554.0</ele><time>2026-04-11T08:12:18.039Z</time></trkpt><trkpt lat="44.853805" lon="9.258035"><ele>555.5</ele><time>2026-04-11T08:12:19.042Z</time></trkpt><trkpt lat="44.85375" lon="9.258175"><ele>557.0</ele><time>2026-04-11T08:12:20.041Z</time></trkpt><trkpt lat="44.8536967" lon="9.25828"><ele>558.5</ele><time>2026-04-11T08:12:21.042Z</time></trkpt><trkpt lat="44.8536417" lon="9.2583533"><ele>560.0</ele><time>2026-04-11T08:12:22.041Z</time></trkpt><trkpt lat="44.8535733" lon="9.2584183"><ele>561.5</ele><time>2026-04-11T08:12:23.043Z</time></trkpt><trkpt lat="44.8535067" lon="9.25843"><ele>563.0</ele><time>2026-04-11T08:12:24.039Z</time></trkpt><trkpt lat="44.8534217" lon="9.2584183"><ele>563.6666666666666</ele><time>2026-04-11T08:12:25.038Z</time></trkpt><trkpt lat="44.85333" lon="9.258425"><ele>564.3333333333333</ele><time>2026-04-11T08:12:26.036Z</time></trkpt><trkpt lat="44.8532383" lon="9.2584317"><ele>565.0</ele><time>2026-04-11T08:12:27.037Z</time></trkpt><trkpt lat="44.8531533" lon="9.2584417"><ele>565.6666666666666</ele><time>2026-04-11T08:12:28.039Z</time></trkpt><trkpt lat="44.85307" lon="9.2584317"><ele>566.3333333333334</ele><time>2026-04-11T08:12:29.037Z</time></trkpt><trkpt lat="44.8529883" lon="9.2584117"><ele>567.0</ele><time>2026-04-11T08:12:30.039Z</time></trkpt><trkpt lat="44.8529067" lon="9.258395"><ele>567.0</ele><time>2026-04-11T08:12:31.038Z</time></trkpt><trkpt lat="44.85282" lon="9.2583883"><ele>567.0</ele><time>2026-04-11T08:12:32.037Z</time></trkpt><trkpt lat="44.852715" lon="9.2583817"><ele>567.0</ele><time>2026-04-11T08:12:33.04Z</time></trkpt><trkpt lat="44.8526117" lon="9.2583633"><ele>567.0</ele><time>2026-04-11T08:12:34.037Z</time></trkpt><trkpt lat="44.852505" lon="9.2583617"><ele>567.0</ele><time>2026-04-11T08:12:35.038Z</time></trkpt><trkpt lat="44.8524017" lon="9.2583667"><ele>569.8000000000001</ele><time>2026-04-11T08:12:36.035Z</time></trkpt><trkpt lat="44.8522967" lon="9.2583933"><ele>572.6</ele><time>2026-04-11T08:12:37.039Z</time></trkpt><trkpt lat="44.8522133" lon="9.2584267"><ele>575.4000000000001</ele><time>2026-04-11T08:12:38.039Z</time></trkpt><trkpt lat="44.8521367" lon="9.2584767"><ele>578.2</ele><time>2026-04-11T08:12:39.041Z</time></trkpt><trkpt lat="44.8520667" lon="9.2585483"><ele>581.0</ele><time>2026-04-11T08:12:40.038Z</time></trkpt><trkpt lat="44.8520017" lon="9.2586383"><ele>581.0</ele><time>2026-04-11T08:12:41.039Z</time></trkpt><trkpt lat="44.8519567" lon="9.2587417"><ele>581.0</ele><time>2026-04-11T08:12:42.041Z</time></trkpt><trkpt lat="44.8519267" lon="9.2588667"><ele>581.0</ele><time>2026-04-11T08:12:43.04Z</time></trkpt><trkpt lat="44.85192" lon="9.2589883"><ele>581.0</ele><time>2026-04-11T08:12:44.038Z</time></trkpt><trkpt lat="44.85193" lon="9.2591167"><ele>581.0</ele><time>2026-04-11T08:12:45.04Z</time></trkpt><trkpt lat="44.8519267" lon="9.25924"><ele>581.0</ele><time>2026-04-11T08:12:46.039Z</time></trkpt><trkpt lat="44.8519267" lon="9.259365"><ele>581.6</ele><time>2026-04-11T08:12:47.04Z</time></trkpt><trkpt lat="44.8519183" lon="9.2594967"><ele>582.2</ele><time>2026-04-11T08:12:48.04Z</time></trkpt><trkpt lat="44.8519067" lon="9.2596267"><ele>582.8</ele><time>2026-04-11T08:12:49.04Z</time></trkpt><trkpt lat="44.85189" lon="9.25975"><ele>583.4</ele><time>2026-04-11T08:12:50.041Z</time></trkpt><trkpt lat="44.851875" lon="9.259875"><ele>584.0</ele><time>2026-04-11T08:12:51.044Z</time></trkpt><trkpt lat="44.8518617" lon="9.260005"><ele>584.8333333333333</ele><time>2026-04-11T08:12:52.042Z</time></trkpt><trkpt lat="44.8518517" lon="9.260135"><ele>585.6666666666666</ele><time>2026-04-11T08:12:53.039Z</time></trkpt><trkpt lat="44.8518433" lon="9.2602667"><ele>586.5</ele><time>2026-04-11T08:12:54.042Z</time></trkpt><trkpt lat="44.8518417" lon="9.2603783"><ele>587.3333333333334</ele><time>2026-04-11T08:12:55.04Z</time></trkpt><trkpt lat="44.8518317" lon="9.260475"><ele>588.1666666666667</ele><time>2026-04-11T08:12:56.032Z</time></trkpt><trkpt lat="44.851805" lon="9.2605667"><ele>589.0</ele><time>2026-04-11T08:12:57.04Z</time></trkpt><trkpt lat="44.8517683" lon="9.2606533"><ele>592.3333333333334</ele><time>2026-04-11T08:12:58.036Z</time></trkpt><trkpt lat="44.8517383" lon="9.2607433"><ele>595.6666666666667</ele><time>2026-04-11T08:12:59.037Z</time></trkpt><trkpt lat="44.85172" lon="9.2608533"><ele>599.0</ele><time>2026-04-11T08:13:00.04Z</time></trkpt><trkpt lat="44.8517083" lon="9.26098"><ele>602.3333333333334</ele><time>2026-04-11T08:13:01.039Z</time></trkpt><trkpt lat="44.851695" lon="9.2611017"><ele>605.6666666666666</ele><time>2026-04-11T08:13:02.039Z</time></trkpt><trkpt lat="44.8516783" lon="9.2612267"><ele>609.0</ele><time>2026-04-11T08:13:03.039Z</time></trkpt><trkpt lat="44.851655" lon="9.2613417"><ele>610.6666666666666</ele><time>2026-04-11T08:13:04.033Z</time></trkpt><trkpt lat="44.8516317" lon="9.2614583"><ele>612.3333333333334</ele><time>2026-04-11T08:13:05.038Z</time></trkpt><trkpt lat="44.8516217" lon="9.2615783"><ele>614.0</ele><time>2026-04-11T08:13:06.04Z</time></trkpt><trkpt lat="44.8516167" lon="9.2617067"><ele>615.6666666666667</ele><time>2026-04-11T08:13:07.039Z</time></trkpt><trkpt lat="44.851615" lon="9.2618283"><ele>617.3333333333334</ele><time>2026-04-11T08:13:08.039Z</time></trkpt><trkpt lat="44.8516117" lon="9.2619367"><ele>619.0</ele><time>2026-04-11T08:13:09.038Z</time></trkpt><trkpt lat="44.8515967" lon="9.2620383"><ele>619.0</ele><time>2026-04-11T08:13:10.034Z</time></trkpt><trkpt lat="44.8515267" lon="9.2621933"><ele>619.0</ele><time>2026-04-11T08:13:12.04Z</time></trkpt><trkpt lat="44.8514817" lon="9.26227"><ele>619.0</ele><time>2026-04-11T08:13:13.038Z</time></trkpt><trkpt lat="44.8514333" lon="9.26236"><ele>619.0</ele><time>2026-04-11T08:13:14.04Z</time></trkpt><trkpt lat="44.85139" lon="9.26246"><ele>619.0</ele><time>2026-04-11T08:13:15.041Z</time></trkpt><trkpt lat="44.85134" lon="9.2625633"><ele>620.3333333333334</ele><time>2026-04-11T08:13:16.041Z</time></trkpt><trkpt lat="44.8512883" lon="9.262645"><ele>621.6666666666667</ele><time>2026-04-11T08:13:17.038Z</time></trkpt><trkpt lat="44.85123" lon="9.2626967"><ele>623.0</ele><time>2026-04-11T08:13:18.035Z</time></trkpt><trkpt lat="44.8511633" lon="9.2627467"><ele>624.3333333333334</ele><time>2026-04-11T08:13:19.042Z</time></trkpt><trkpt lat="44.8511" lon="9.26281"><ele>625.6666666666666</ele><time>2026-04-11T08:13:20.04Z</time></trkpt><trkpt lat="44.851035" lon="9.2628817"><ele>627.0</ele><time>2026-04-11T08:13:21.042Z</time></trkpt><trkpt lat="44.850965" lon="9.262955"><ele>628.2</ele><time>2026-04-11T08:13:22.043Z</time></trkpt><trkpt lat="44.8508883" lon="9.263025"><ele>629.4000000000001</ele><time>2026-04-11T08:13:23.039Z</time></trkpt><trkpt lat="44.8508067" lon="9.2630783"><ele>630.5999999999999</ele><time>2026-04-11T08:13:24.042Z</time></trkpt><trkpt lat="44.850725" lon="9.2631367"><ele>631.8</ele><time>2026-04-11T08:13:25.042Z</time></trkpt><trkpt lat="44.8506433" lon="9.2631883"><ele>633.0</ele><time>2026-04-11T08:13:26.039Z</time></trkpt><trkpt lat="44.850555" lon="9.263225"><ele>634.6666666666666</ele><time>2026-04-11T08:13:27.037Z</time></trkpt><trkpt lat="44.850475" lon="9.2632267"><ele>636.3333333333334</ele><time>2026-04-11T08:13:28.038Z</time></trkpt><trkpt lat="44.850395" lon="9.2632217"><ele>638.0</ele><time>2026-04-11T08:13:29.038Z</time></trkpt><trkpt lat="44.8503117" lon="9.2632167"><ele>639.6666666666667</ele><time>2026-04-11T08:13:30.035Z</time></trkpt><trkpt lat="44.85023" lon="9.2632233"><ele>641.3333333333334</ele><time>2026-04-11T08:13:31.038Z</time></trkpt><trkpt lat="44.85014" lon="9.2632483"><ele>643.0</ele><time>2026-04-11T08:13:32.039Z</time></trkpt><trkpt lat="44.8500483" lon="9.2632883"><ele>645.0</ele><time>2026-04-11T08:13:33.04Z</time></trkpt><trkpt lat="44.8499617" lon="9.2633167"><ele>647.0</ele><time>2026-04-11T08:13:34.041Z</time></trkpt><trkpt lat="44.84987" lon="9.2633583"><ele>649.0</ele><time>2026-04-11T08:13:35.038Z</time></trkpt><trkpt lat="44.8497883" lon="9.2633833"><ele>651.0</ele><time>2026-04-11T08:13:36.041Z</time></trkpt><trkpt lat="44.8497233" lon="9.26341"><ele>653.0</ele><time>2026-04-11T08:13:37.041Z</time></trkpt><trkpt lat="44.8496583" lon="9.26345"><ele>655.0</ele><time>2026-04-11T08:13:38.037Z</time></trkpt><trkpt lat="44.8495733" lon="9.2635317"><ele>655.0</ele><time>2026-04-11T08:13:40.04Z</time></trkpt><trkpt lat="44.8495317" lon="9.2636033"><ele>655.0</ele><time>2026-04-11T08:13:42.038Z</time></trkpt><trkpt lat="44.849545" lon="9.2637"><ele>655.0</ele><time>2026-04-11T08:13:56.035Z</time></trkpt><trkpt lat="44.8494967" lon="9.2638483"><ele>655.0</ele><time>2026-04-11T08:13:58.039Z</time></trkpt><trkpt lat="44.8494617" lon="9.2639567"><ele>655.0</ele><time>2026-04-11T08:13:59.034Z</time></trkpt><trkpt lat="44.849435" lon="9.264065"><ele>655.0</ele><time>2026-04-11T08:14:00.038Z</time></trkpt><trkpt lat="44.84942" lon="9.2641783"><ele>655.5</ele><time>2026-04-11T08:14:01.038Z</time></trkpt><trkpt lat="44.84941" lon="9.26429"><ele>656.0</ele><time>2026-04-11T08:14:02.034Z</time></trkpt><trkpt lat="44.849385" lon="9.2644183"><ele>656.5</ele><time>2026-04-11T08:14:03.032Z</time></trkpt><trkpt lat="44.849365" lon="9.2645383"><ele>657.0</ele><time>2026-04-11T08:14:04.039Z</time></trkpt><trkpt lat="44.8493483" lon="9.2646583"><ele>657.5</ele><time>2026-04-11T08:14:05.038Z</time></trkpt><trkpt lat="44.8493433" lon="9.2647717"><ele>658.0</ele><time>2026-04-11T08:14:06.041Z</time></trkpt><trkpt lat="44.8493517" lon="9.2648917"><ele>659.3333333333334</ele><time>2026-04-11T08:14:07.042Z</time></trkpt><trkpt lat="44.8493767" lon="9.2650217"><ele>660.6666666666667</ele><time>2026-04-11T08:14:08.039Z</time></trkpt><trkpt lat="44.8493933" lon="9.26514"><ele>662.0</ele><time>2026-04-11T08:14:09.041Z</time></trkpt><trkpt lat="44.84942" lon="9.2652633"><ele>663.3333333333334</ele><time>2026-04-11T08:14:10.038Z</time></trkpt><trkpt lat="44.849415" lon="9.26537"><ele>664.6666666666666</ele><time>2026-04-11T08:14:11.041Z</time></trkpt><trkpt lat="44.8494117" lon="9.265465"><ele>666.0</ele><time>2026-04-11T08:14:12.038Z</time></trkpt><trkpt lat="44.8494383" lon="9.2656217"><ele>669.8</ele><time>2026-04-11T08:14:14.036Z</time></trkpt><trkpt lat="44.849515" lon="9.2657"><ele>673.5999999999999</ele><time>2026-04-11T08:14:16.038Z</time></trkpt><trkpt lat="44.8495867" lon="9.2657833"><ele>677.4</ele><time>2026-04-11T08:14:18.041Z</time></trkpt><trkpt lat="44.849635" lon="9.2658983"><ele>681.2</ele><time>2026-04-11T08:14:20.038Z</time></trkpt><trkpt lat="44.8496933" lon="9.2660383"><ele>685.0</ele><time>2026-04-11T08:14:22.038Z</time></trkpt><trkpt lat="44.849745" lon="9.26618"><ele>685.0</ele><time>2026-04-11T08:14:24.04Z</time></trkpt><trkpt lat="44.8497617" lon="9.2662933"><ele>685.0</ele><time>2026-04-11T08:14:26.033Z</time></trkpt><trkpt lat="44.8496883" lon="9.266405"><ele>685.0</ele><time>2026-04-11T08:14:28.035Z</time></trkpt><trkpt lat="44.8496217" lon="9.2664567"><ele>685.0</ele><time>2026-04-11T08:14:29.136Z</time></trkpt><trkpt lat="44.8495617" lon="9.266505"><ele>685.0</ele><time>2026-04-11T08:14:30.037Z</time></trkpt><trkpt lat="44.8494617" lon="9.2665667"><ele>685.0</ele><time>2026-04-11T08:14:32.038Z</time></trkpt><trkpt lat="44.849395" lon="9.2666367"><ele>688.2</ele><time>2026-04-11T08:14:34.034Z</time></trkpt><trkpt lat="44.84933" lon="9.26672"><ele>691.4</ele><time>2026-04-11T08:14:36.035Z</time></trkpt><trkpt lat="44.8492333" lon="9.266805"><ele>694.5999999999999</ele><time>2026-04-11T08:14:38.036Z</time></trkpt><trkpt lat="44.84915" lon="9.2668933"><ele>697.8</ele><time>2026-04-11T08:14:40.117Z</time></trkpt><trkpt lat="44.8490433" lon="9.2670017"><ele>701.0</ele><time>2026-04-11T08:14:42.042Z</time></trkpt><trkpt lat="44.8489833" lon="9.267075"><ele>704.1999999999999</ele><time>2026-04-11T08:14:43.041Z</time></trkpt><trkpt lat="44.848925" lon="9.2671417"><ele>707.4</ele><time>2026-04-11T08:14:44.04Z</time></trkpt><trkpt lat="44.8488667" lon="9.2671817"><ele>710.6</ele><time>2026-04-11T08:14:45.042Z</time></trkpt><trkpt lat="44.84871" lon="9.267175"><ele>713.8</ele><time>2026-04-11T08:14:47.043Z</time></trkpt><trkpt lat="44.8486017" lon="9.2671267"><ele>717.0</ele><time>2026-04-11T08:14:48.04Z</time></trkpt><trkpt lat="44.8485067" lon="9.267055"><ele>719.1666666666666</ele><time>2026-04-11T08:14:49.042Z</time></trkpt><trkpt lat="44.8484333" lon="9.266975"><ele>721.3333333333334</ele><time>2026-04-11T08:14:50.041Z</time></trkpt><trkpt lat="44.84838" lon="9.2668733"><ele>723.5</ele><time>2026-04-11T08:14:51.04Z</time></trkpt><trkpt lat="44.8483433" lon="9.2667567"><ele>725.6666666666667</ele><time>2026-04-11T08:14:52.038Z</time></trkpt><trkpt lat="44.8483117" lon="9.26665"><ele>727.8333333333334</ele><time>2026-04-11T08:14:53.039Z</time></trkpt><trkpt lat="44.8482683" lon="9.266535"><ele>730.0</ele><time>2026-04-11T08:14:54.04Z</time></trkpt><trkpt lat="44.84822" lon="9.2664317"><ele>730.0</ele><time>2026-04-11T08:14:55.039Z</time></trkpt><trkpt lat="44.8481683" lon="9.2663283"><ele>730.0</ele><time>2026-04-11T08:14:56.038Z</time></trkpt><trkpt lat="44.8481183" lon="9.266205"><ele>730.0</ele><time>2026-04-11T08:14:57.038Z</time></trkpt><trkpt lat="44.8480733" lon="9.2660683"><ele>730.0</ele><time>2026-04-11T08:14:58.04Z</time></trkpt><trkpt lat="44.848035" lon="9.265915"><ele>730.0</ele><time>2026-04-11T08:14:59.032Z</time></trkpt><trkpt lat="44.84798" lon="9.2657617"><ele>729.2</ele><time>2026-04-11T08:15:00.041Z</time></trkpt><trkpt lat="44.84793" lon="9.2655983"><ele>728.4</ele><time>2026-04-11T08:15:01.042Z</time></trkpt><trkpt lat="44.8478817" lon="9.2654483"><ele>727.5999999999999</ele><time>2026-04-11T08:15:02.038Z</time></trkpt><trkpt lat="44.8478367" lon="9.265325"><ele>726.8</ele><time>2026-04-11T08:15:03.037Z</time></trkpt><trkpt lat="44.8477967" lon="9.265235"><ele>726.0</ele><time>2026-04-11T08:15:04.038Z</time></trkpt><trkpt lat="44.8477533" lon="9.26517"><ele>726.0</ele><time>2026-04-11T08:15:05.041Z</time></trkpt><trkpt lat="44.8476967" lon="9.2651283"><ele>726.0</ele><time>2026-04-11T08:15:06.042Z</time></trkpt><trkpt lat="44.8475833" lon="9.26508"><ele>726.0</ele><time>2026-04-11T08:15:08.035Z</time></trkpt><trkpt lat="44.8475183" lon="9.26507"><ele>726.0</ele><time>2026-04-11T08:15:09.043Z</time></trkpt><trkpt lat="44.847455" lon="9.2650717"><ele>726.0</ele><time>2026-04-11T08:15:10.038Z</time></trkpt><trkpt lat="44.8473717" lon="9.2650333"><ele>726.0</ele><time>2026-04-11T08:15:12.038Z</time></trkpt><trkpt lat="44.8473117" lon="9.2648833"><ele>730.5999999999999</ele><time>2026-04-11T08:15:14.039Z</time></trkpt><trkpt lat="44.8472833" lon="9.2648017"><ele>735.2</ele><time>2026-04-11T08:15:15.032Z</time></trkpt><trkpt lat="44.8472533" lon="9.2646567"><ele>739.8</ele><time>2026-04-11T08:15:17.039Z</time></trkpt><trkpt lat="44.847225" lon="9.2645033"><ele>744.4000000000001</ele><time>2026-04-11T08:15:19.04Z</time></trkpt><trkpt lat="44.8471717" lon="9.2643967"><ele>749.0</ele><time>2026-04-11T08:15:21.04Z</time></trkpt><trkpt lat="44.847095" lon="9.2643333"><ele>749.0</ele><time>2026-04-11T08:15:23.034Z</time></trkpt><trkpt lat="44.8470117" lon="9.2643167"><ele>749.0</ele><time>2026-04-11T08:15:26.038Z</time></trkpt><trkpt lat="44.8469617" lon="9.2643783"><ele>749.0</ele><time>2026-04-11T08:15:28.039Z</time></trkpt><trkpt lat="44.84693" lon="9.2644667"><ele>749.0</ele><time>2026-04-11T08:15:30.037Z</time></trkpt><trkpt lat="44.8468917" lon="9.264585"><ele>749.0</ele><time>2026-04-11T08:15:32.038Z</time></trkpt><trkpt lat="44.8468667" lon="9.2647217"><ele>749.0</ele><time>2026-04-11T08:15:34.038Z</time></trkpt><trkpt lat="44.8468567" lon="9.2648433"><ele>749.1666666666666</ele><time>2026-04-11T08:15:36.04Z</time></trkpt><trkpt lat="44.8468267" lon="9.2649467"><ele>749.3333333333333</ele><time>2026-04-11T08:15:39.04Z</time></trkpt><trkpt lat="44.8468" lon="9.265055"><ele>749.5</ele><time>2026-04-11T08:15:41.037Z</time></trkpt><trkpt lat="44.846775" lon="9.26514"><ele>749.6666666666666</ele><time>2026-04-11T08:15:43.035Z</time></trkpt><trkpt lat="44.8467083" lon="9.2651633"><ele>749.8333333333334</ele><time>2026-04-11T08:15:46.035Z</time></trkpt><trkpt lat="44.846645" lon="9.2651183"><ele>750.0</ele><time>2026-04-11T08:15:48.037Z</time></trkpt><trkpt lat="44.8465467" lon="9.26508"><ele>745.2</ele><time>2026-04-11T08:15:50.038Z</time></trkpt><trkpt lat="44.8464483" lon="9.265075"><ele>740.4</ele><time>2026-04-11T08:15:52.041Z</time></trkpt><trkpt lat="44.8463533" lon="9.2650683"><ele>735.5999999999999</ele><time>2026-04-11T08:15:54.039Z</time></trkpt><trkpt lat="44.8462567" lon="9.26506"><ele>730.8</ele><time>2026-04-11T08:15:56.039Z</time></trkpt><trkpt lat="44.8461617" lon="9.2651017"><ele>726.0</ele><time>2026-04-11T08:15:58.041Z</time></trkpt><trkpt lat="44.84606" lon="9.2651633"><ele>726.0</ele><time>2026-04-11T08:16:00.042Z</time></trkpt><trkpt lat="44.846" lon="9.265205"><ele>726.0</ele><time>2026-04-11T08:16:01.037Z</time></trkpt><trkpt lat="44.8459433" lon="9.2652533"><ele>726.0</ele><time>2026-04-11T08:16:02.042Z</time></trkpt><trkpt lat="44.8458867" lon="9.2653083"><ele>726.0</ele><time>2026-04-11T08:16:03.044Z</time></trkpt><trkpt lat="44.8458" lon="9.265425"><ele>726.0</ele><time>2026-04-11T08:16:05.037Z</time></trkpt><trkpt lat="44.8457" lon="9.2654817"><ele>726.0</ele><time>2026-04-11T08:16:07.044Z</time></trkpt><trkpt lat="44.8455967" lon="9.2655183"><ele>721.8</ele><time>2026-04-11T08:16:09.037Z</time></trkpt><trkpt lat="44.8455017" lon="9.2655767"><ele>717.5999999999999</ele><time>2026-04-11T08:16:11.039Z</time></trkpt><trkpt lat="44.84538" lon="9.2656167"><ele>713.4</ele><time>2026-04-11T08:16:13.04Z</time></trkpt><trkpt lat="44.84531" lon="9.2656433"><ele>709.2</ele><time>2026-04-11T08:16:14.04Z</time></trkpt><trkpt lat="44.8451867" lon="9.2656717"><ele>705.0</ele><time>2026-04-11T08:16:16.039Z</time></trkpt><trkpt lat="44.8450883" lon="9.2657383"><ele>702.5</ele><time>2026-04-11T08:16:18.038Z</time></trkpt><trkpt lat="44.8449717" lon="9.2658067"><ele>700.0</ele><time>2026-04-11T08:16:20.038Z</time></trkpt><trkpt lat="44.8449083" lon="9.2658183"><ele>697.5</ele><time>2026-04-11T08:16:21.038Z</time></trkpt><trkpt lat="44.8448317" lon="9.2658183"><ele>695.0</ele><time>2026-04-11T08:16:22.038Z</time></trkpt><trkpt lat="44.8447617" lon="9.265805"><ele>692.5</ele><time>2026-04-11T08:16:23.038Z</time></trkpt><trkpt lat="44.844685" lon="9.265805"><ele>690.0</ele><time>2026-04-11T08:16:24.032Z</time></trkpt><trkpt lat="44.8446083" lon="9.265805"><ele>690.0</ele><time>2026-04-11T08:16:25.039Z</time></trkpt><trkpt lat="44.8445117" lon="9.265815"><ele>690.0</ele><time>2026-04-11T08:16:26.033Z</time></trkpt><trkpt lat="44.8444217" lon="9.2658267"><ele>690.0</ele><time>2026-04-11T08:16:27.032Z</time></trkpt><trkpt lat="44.8443183" lon="9.2658433"><ele>690.0</ele><time>2026-04-11T08:16:28.042Z</time></trkpt><trkpt lat="44.844215" lon="9.2658583"><ele>690.0</ele><time>2026-04-11T08:16:29.039Z</time></trkpt><trkpt lat="44.8441117" lon="9.2658617"><ele>687.8</ele><time>2026-04-11T08:16:30.04Z</time></trkpt><trkpt lat="44.8440067" lon="9.2658783"><ele>685.6</ele><time>2026-04-11T08:16:31.034Z</time></trkpt><trkpt lat="44.8439017" lon="9.2658983"><ele>683.4000000000001</ele><time>2026-04-11T08:16:32.039Z</time></trkpt><trkpt lat="44.8438033" lon="9.2659267"><ele>681.2</ele><time>2026-04-11T08:16:33.043Z</time></trkpt><trkpt lat="44.8437083" lon="9.2659533"><ele>679.0</ele><time>2026-04-11T08:16:34.038Z</time></trkpt><trkpt lat="44.8436167" lon="9.2659717"><ele>679.0</ele><time>2026-04-11T08:16:35.042Z</time></trkpt><trkpt lat="44.8435167" lon="9.2659717"><ele>679.0</ele><time>2026-04-11T08:16:36.043Z</time></trkpt><trkpt lat="44.8434117" lon="9.2659717"><ele>679.0</ele><time>2026-04-11T08:16:37.042Z</time></trkpt><trkpt lat="44.8433283" lon="9.2659667"><ele>679.0</ele><time>2026-04-11T08:16:38.04Z</time></trkpt><trkpt lat="44.843235" lon="9.2659017"><ele>679.0</ele><time>2026-04-11T08:16:40.039Z</time></trkpt><trkpt lat="44.8431833" lon="9.2657983"><ele>678.1666666666667</ele><time>2026-04-11T08:16:42.037Z</time></trkpt><trkpt lat="44.8430767" lon="9.265755"><ele>677.3333333333334</ele><time>2026-04-11T08:16:44.038Z</time></trkpt><trkpt lat="44.8430133" lon="9.26574"><ele>676.5</ele><time>2026-04-11T08:16:45.04Z</time></trkpt><trkpt lat="44.8429417" lon="9.2657117"><ele>675.6666666666666</ele><time>2026-04-11T08:16:46.037Z</time></trkpt><trkpt lat="44.8428833" lon="9.2656617"><ele>674.8333333333333</ele><time>2026-04-11T08:16:47.039Z</time></trkpt><trkpt lat="44.8427783" lon="9.2656083"><ele>674.0</ele><time>2026-04-11T08:16:49.039Z</time></trkpt><trkpt lat="44.8426783" lon="9.2656667"><ele>674.0</ele><time>2026-04-11T08:16:51.04Z</time></trkpt><trkpt lat="44.84258" lon="9.265725"><ele>674.0</ele><time>2026-04-11T08:16:53.04Z</time></trkpt><trkpt lat="44.8424983" lon="9.265705"><ele>674.0</ele><time>2026-04-11T08:16:55.044Z</time></trkpt><trkpt lat="44.8424433" lon="9.2656617"><ele>674.0</ele><time>2026-04-11T08:16:56.039Z</time></trkpt><trkpt lat="44.8423733" lon="9.26562"><ele>674.0</ele><time>2026-04-11T08:16:57.038Z</time></trkpt><trkpt lat="44.8422917" lon="9.2655867"><ele>674.0</ele><time>2026-04-11T08:16:58.038Z</time></trkpt><trkpt lat="44.8422133" lon="9.26556"><ele>674.0</ele><time>2026-04-11T08:16:59.041Z</time></trkpt><trkpt lat="44.8421417" lon="9.2655383"><ele>674.0</ele><time>2026-04-11T08:17:00.034Z</time></trkpt><trkpt lat="44.8420683" lon="9.2655167"><ele>674.0</ele><time>2026-04-11T08:17:01.039Z</time></trkpt><trkpt lat="44.8419983" lon="9.2655133"><ele>674.0</ele><time>2026-04-11T08:17:02.037Z</time></trkpt><trkpt lat="44.8419183" lon="9.2655183"><ele>674.0</ele><time>2026-04-11T08:17:03.035Z</time></trkpt><trkpt lat="44.8418317" lon="9.2655217"><ele>674.0</ele><time>2026-04-11T08:17:04.041Z</time></trkpt><trkpt lat="44.8417367" lon="9.2655367"><ele>675.8333333333333</ele><time>2026-04-11T08:17:05.039Z</time></trkpt><trkpt lat="44.84164" lon="9.2655533"><ele>677.6666666666666</ele><time>2026-04-11T08:17:06.04Z</time></trkpt><trkpt lat="44.8415533" lon="9.26557"><ele>679.5</ele><time>2026-04-11T08:17:07.042Z</time></trkpt><trkpt lat="44.8414717" lon="9.2655867"><ele>681.3333333333334</ele><time>2026-04-11T08:17:08.044Z</time></trkpt><trkpt lat="44.841395" lon="9.2656067"><ele>683.1666666666667</ele><time>2026-04-11T08:17:09.039Z</time></trkpt><trkpt lat="44.8413217" lon="9.2656183"><ele>685.0</ele><time>2026-04-11T08:17:10.039Z</time></trkpt><trkpt lat="44.8412133" lon="9.2656633"><ele>687.0</ele><time>2026-04-11T08:17:12.031Z</time></trkpt><trkpt lat="44.8411383" lon="9.2657383"><ele>689.0</ele><time>2026-04-11T08:17:14.04Z</time></trkpt><trkpt lat="44.841165" lon="9.265865"><ele>691.0</ele><time>2026-04-11T08:17:16.039Z</time></trkpt><trkpt lat="44.8411667" lon="9.2659617"><ele>693.0</ele><time>2026-04-11T08:17:17.041Z</time></trkpt><trkpt lat="44.84116" lon="9.2660933"><ele>695.0</ele><time>2026-04-11T08:17:18.042Z</time></trkpt><trkpt lat="44.841145" lon="9.2662583"><ele>695.0</ele><time>2026-04-11T08:17:19.038Z</time></trkpt><trkpt lat="44.8411383" lon="9.26643"><ele>695.0</ele><time>2026-04-11T08:17:20.041Z</time></trkpt><trkpt lat="44.8411417" lon="9.2666133"><ele>695.0</ele><time>2026-04-11T08:17:21.045Z</time></trkpt><trkpt lat="44.8411433" lon="9.2667833"><ele>695.0</ele><time>2026-04-11T08:17:22.04Z</time></trkpt><trkpt lat="44.84115" lon="9.2669283"><ele>696.4</ele><time>2026-04-11T08:17:23.041Z</time></trkpt><trkpt lat="44.841145" lon="9.2670633"><ele>697.8</ele><time>2026-04-11T08:17:24.04Z</time></trkpt><trkpt lat="44.841115" lon="9.2672017"><ele>699.2</ele><time>2026-04-11T08:17:25.037Z</time></trkpt><trkpt lat="44.8410733" lon="9.2673483"><ele>700.6</ele><time>2026-04-11T08:17:26.038Z</time></trkpt><trkpt lat="44.8410417" lon="9.2674933"><ele>702.0</ele><time>2026-04-11T08:17:27.034Z</time></trkpt><trkpt lat="44.8410167" lon="9.267635"><ele>702.8</ele><time>2026-04-11T08:17:28.039Z</time></trkpt><trkpt lat="44.8409967" lon="9.2677717"><ele>703.6</ele><time>2026-04-11T08:17:29.042Z</time></trkpt><trkpt lat="44.840985" lon="9.26792"><ele>704.4</ele><time>2026-04-11T08:17:30.039Z</time></trkpt><trkpt lat="44.8409817" lon="9.2680633"><ele>705.1999999999999</ele><time>2026-04-11T08:17:31.036Z</time></trkpt><trkpt lat="44.8409767" lon="9.268195"><ele>706.0</ele><time>2026-04-11T08:17:32.039Z</time></trkpt><trkpt lat="44.840965" lon="9.268315"><ele>709.8</ele><time>2026-04-11T08:17:33.042Z</time></trkpt><trkpt lat="44.8409383" lon="9.2684367"><ele>713.5999999999999</ele><time>2026-04-11T08:17:34.039Z</time></trkpt><trkpt lat="44.8409217" lon="9.26856"><ele>717.4</ele><time>2026-04-11T08:17:35.04Z</time></trkpt><trkpt lat="44.8408717" lon="9.2686867"><ele>721.2</ele><time>2026-04-11T08:17:36.039Z</time></trkpt><trkpt lat="44.8408083" lon="9.2688133"><ele>725.0</ele><time>2026-04-11T08:17:37.042Z</time></trkpt><trkpt lat="44.84077" lon="9.2689433"><ele>725.0</ele><time>2026-04-11T08:17:38.039Z</time></trkpt><trkpt lat="44.8407333" lon="9.269095"><ele>725.0</ele><time>2026-04-11T08:17:39.037Z</time></trkpt><trkpt lat="44.8406983" lon="9.2692383"><ele>725.0</ele><time>2026-04-11T08:17:40.039Z</time></trkpt><trkpt lat="44.8406467" lon="9.26937"><ele>725.0</ele><time>2026-04-11T08:17:41.039Z</time></trkpt><trkpt lat="44.8405733" lon="9.2695083"><ele>725.0</ele><time>2026-04-11T08:17:42.037Z</time></trkpt><trkpt lat="44.8404883" lon="9.2696517"><ele>725.0</ele><time>2026-04-11T08:17:43.039Z</time></trkpt><trkpt lat="44.840405" lon="9.269785"><ele>725.0</ele><time>2026-04-11T08:17:44.039Z</time></trkpt><trkpt lat="44.8403133" lon="9.2699117"><ele>725.0</ele><time>2026-04-11T08:17:45.038Z</time></trkpt><trkpt lat="44.8402267" lon="9.2700083"><ele>724.75</ele><time>2026-04-11T08:17:46.037Z</time></trkpt><trkpt lat="44.8401383" lon="9.27009"><ele>724.5</ele><time>2026-04-11T08:17:47.039Z</time></trkpt><trkpt lat="44.8400483" lon="9.2701567"><ele>724.25</ele><time>2026-04-11T08:17:48.144Z</time></trkpt><trkpt lat="44.8398917" lon="9.270285"><ele>724.0</ele><time>2026-04-11T08:17:50.041Z</time></trkpt><trkpt lat="44.8398133" lon="9.2703483"><ele>727.0</ele><time>2026-04-11T08:17:51.036Z</time></trkpt><trkpt lat="44.839735" lon="9.270405"><ele>730.0</ele><time>2026-04-11T08:17:52.043Z</time></trkpt><trkpt lat="44.8396583" lon="9.2704683"><ele>733.0</ele><time>2026-04-11T08:17:53.042Z</time></trkpt><trkpt lat="44.8395783" lon="9.27055"><ele>736.0</ele><time>2026-04-11T08:17:54.038Z</time></trkpt><trkpt lat="44.8395017" lon="9.2706267"><ele>739.0</ele><time>2026-04-11T08:17:55.038Z</time></trkpt><trkpt lat="44.8394233" lon="9.270715"><ele>739.0</ele><time>2026-04-11T08:17:56.034Z</time></trkpt><trkpt lat="44.8393483" lon="9.2708233"><ele>739.0</ele><time>2026-04-11T08:17:57.038Z</time></trkpt><trkpt lat="44.8392967" lon="9.2709533"><ele>739.0</ele><time>2026-04-11T08:17:58.039Z</time></trkpt><trkpt lat="44.8392517" lon="9.27108"><ele>739.0</ele><time>2026-04-11T08:17:59.034Z</time></trkpt><trkpt lat="44.8392283" lon="9.2711983"><ele>739.0</ele><time>2026-04-11T08:18:00.04Z</time></trkpt><trkpt lat="44.8392117" lon="9.27131"><ele>743.3333333333334</ele><time>2026-04-11T08:18:01.043Z</time></trkpt><trkpt lat="44.8391833" lon="9.2714067"><ele>747.6666666666667</ele><time>2026-04-11T08:18:02.033Z</time></trkpt><trkpt lat="44.83916" lon="9.271495"><ele>752.0</ele><time>2026-04-11T08:18:03.039Z</time></trkpt><trkpt lat="44.8390933" lon="9.2716267"><ele>756.3333333333334</ele><time>2026-04-11T08:18:05.034Z</time></trkpt><trkpt lat="44.8390333" lon="9.27168"><ele>760.6666666666666</ele><time>2026-04-11T08:18:06.042Z</time></trkpt><trkpt lat="44.83895" lon="9.2717233"><ele>765.0</ele><time>2026-04-11T08:18:07.038Z</time></trkpt><trkpt lat="44.83888" lon="9.2717483"><ele>765.0</ele><time>2026-04-11T08:18:08.039Z</time></trkpt><trkpt lat="44.8387983" lon="9.2717217"><ele>765.0</ele><time>2026-04-11T08:18:09.035Z</time></trkpt><trkpt lat="44.83872" lon="9.2716967"><ele>765.0</ele><time>2026-04-11T08:18:10.04Z</time></trkpt><trkpt lat="44.8386483" lon="9.2716967"><ele>765.0</ele><time>2026-04-11T08:18:11.042Z</time></trkpt><trkpt lat="44.8385833" lon="9.271705"><ele>765.0</ele><time>2026-04-11T08:18:12.039Z</time></trkpt><trkpt lat="44.838515" lon="9.27175"><ele>765.0</ele><time>2026-04-11T08:18:13.042Z</time></trkpt><trkpt lat="44.8384483" lon="9.2718367"><ele>768.8</ele><time>2026-04-11T08:18:14.041Z</time></trkpt><trkpt lat="44.838375" lon="9.2719567"><ele>772.6</ele><time>2026-04-11T08:18:15.041Z</time></trkpt><trkpt lat="44.8383017" lon="9.2720717"><ele>776.4000000000001</ele><time>2026-04-11T08:18:16.04Z</time></trkpt><trkpt lat="44.8382283" lon="9.2721633"><ele>780.2</ele><time>2026-04-11T08:18:17.041Z</time></trkpt><trkpt lat="44.8381483" lon="9.2722233"><ele>784.0</ele><time>2026-04-11T08:18:18.036Z</time></trkpt><trkpt lat="44.838075" lon="9.2722567"><ele>784.0</ele><time>2026-04-11T08:18:19.041Z</time></trkpt><trkpt lat="44.8379933" lon="9.2722567"><ele>784.0</ele><time>2026-04-11T08:18:20.041Z</time></trkpt><trkpt lat="44.8379117" lon="9.272225"><ele>784.0</ele><time>2026-04-11T08:18:21.038Z</time></trkpt><trkpt lat="44.83784" lon="9.2721967"><ele>784.0</ele><time>2026-04-11T08:18:22.038Z</time></trkpt><trkpt lat="44.837725" lon="9.2721883"><ele>784.0</ele><time>2026-04-11T08:18:24.041Z</time></trkpt><trkpt lat="44.8376817" lon="9.2723217"><ele>782.8333333333333</ele><time>2026-04-11T08:18:26.036Z</time></trkpt><trkpt lat="44.83767" lon="9.27245"><ele>781.6666666666666</ele><time>2026-04-11T08:18:27.039Z</time></trkpt><trkpt lat="44.8376867" lon="9.27256"><ele>780.5</ele><time>2026-04-11T08:18:28.038Z</time></trkpt><trkpt lat="44.8377" lon="9.272655"><ele>779.3333333333333</ele><time>2026-04-11T08:18:29.036Z</time></trkpt><trkpt lat="44.8377467" lon="9.27276"><ele>778.1666666666666</ele><time>2026-04-11T08:18:30.039Z</time></trkpt><trkpt lat="44.8377717" lon="9.2728467"><ele>777.0</ele><time>2026-04-11T08:18:31.039Z</time></trkpt><trkpt lat="44.8377917" lon="9.2730117"><ele>777.2</ele><time>2026-04-11T08:18:33.038Z</time></trkpt><trkpt lat="44.8377483" lon="9.27315"><ele>777.4000000000001</ele><time>2026-04-11T08:18:35.038Z</time></trkpt><trkpt lat="44.8376883" lon="9.2732117"><ele>777.5999999999999</ele><time>2026-04-11T08:18:36.037Z</time></trkpt><trkpt lat="44.837625" lon="9.2732883"><ele>777.8</ele><time>2026-04-11T08:18:37.038Z</time></trkpt><trkpt lat="44.8375617" lon="9.2734017"><ele>778.0</ele><time>2026-04-11T08:18:38.037Z</time></trkpt><trkpt lat="44.8374833" lon="9.2735267"><ele>782.2</ele><time>2026-04-11T08:18:39.042Z</time></trkpt><trkpt lat="44.8374033" lon="9.2736567"><ele>786.4</ele><time>2026-04-11T08:18:40.037Z</time></trkpt><trkpt lat="44.8373283" lon="9.2737717"><ele>790.6</ele><time>2026-04-11T08:18:41.039Z</time></trkpt><trkpt lat="44.8372633" lon="9.2738783"><ele>794.8000000000001</ele><time>2026-04-11T08:18:42.037Z</time></trkpt><trkpt lat="44.8372233" lon="9.2739617"><ele>799.0</ele><time>2026-04-11T08:18:43.037Z</time></trkpt><trkpt lat="44.8371933" lon="9.2740467"><ele>799.0</ele><time>2026-04-11T08:18:44.037Z</time></trkpt><trkpt lat="44.8371683" lon="9.2741333"><ele>799.0</ele><time>2026-04-11T08:18:45.037Z</time></trkpt><trkpt lat="44.83714" lon="9.2742267"><ele>799.0</ele><time>2026-04-11T08:18:46.038Z</time></trkpt><trkpt lat="44.837085" lon="9.2743367"><ele>799.0</ele><time>2026-04-11T08:18:47.037Z</time></trkpt><trkpt lat="44.8370033" lon="9.2744867"><ele>799.0</ele><time>2026-04-11T08:18:48.039Z</time></trkpt><trkpt lat="44.8369217" lon="9.274635"><ele>797.4000000000001</ele><time>2026-04-11T08:18:49.041Z</time></trkpt><trkpt lat="44.8368567" lon="9.274775"><ele>795.8</ele><time>2026-04-11T08:18:50.036Z</time></trkpt><trkpt lat="44.8368117" lon="9.2749"><ele>794.2</ele><time>2026-04-11T08:18:51.039Z</time></trkpt><trkpt lat="44.83678" lon="9.2750117"><ele>792.5999999999999</ele><time>2026-04-11T08:18:52.034Z</time></trkpt><trkpt lat="44.836755" lon="9.275125"><ele>791.0</ele><time>2026-04-11T08:18:53.037Z</time></trkpt><trkpt lat="44.8367233" lon="9.2752317"><ele>794.5000000000001</ele><time>2026-04-11T08:18:54.034Z</time></trkpt><trkpt lat="44.8366867" lon="9.27531"><ele>798.0</ele><time>2026-04-11T08:18:55.036Z</time></trkpt><trkpt lat="44.8366333" lon="9.2753683"><ele>801.5</ele><time>2026-04-11T08:18:56.041Z</time></trkpt><trkpt lat="44.8365433" lon="9.2754267"><ele>805.0</ele><time>2026-04-11T08:18:57.042Z</time></trkpt><trkpt lat="44.8364867" lon="9.2754983"><ele>808.5000000000001</ele><time>2026-04-11T08:18:58.037Z</time></trkpt><trkpt lat="44.8364333" lon="9.2755783"><ele>812.0</ele><time>2026-04-11T08:18:59.038Z</time></trkpt><trkpt lat="44.8363883" lon="9.2756533"><ele>812.0</ele><time>2026-04-11T08:19:00.038Z</time></trkpt><trkpt lat="44.836345" lon="9.2757217"><ele>812.0</ele><time>2026-04-11T08:19:01.039Z</time></trkpt><trkpt lat="44.8362883" lon="9.2757917"><ele>812.0</ele><time>2026-04-11T08:19:02.041Z</time></trkpt><trkpt lat="44.836225" lon="9.275855"><ele>812.0</ele><time>2026-04-11T08:19:03.039Z</time></trkpt><trkpt lat="44.83615" lon="9.2758767"><ele>812.0</ele><time>2026-04-11T08:19:04.039Z</time></trkpt><trkpt lat="44.836075" lon="9.2758633"><ele>812.0</ele><time>2026-04-11T08:19:05.042Z</time></trkpt><trkpt lat="44.836005" lon="9.2758167"><ele>812.0</ele><time>2026-04-11T08:19:06.042Z</time></trkpt><trkpt lat="44.83595" lon="9.27576"><ele>815.8333333333334</ele><time>2026-04-11T08:19:07.042Z</time></trkpt><trkpt lat="44.83592" lon="9.2756083"><ele>819.6666666666667</ele><time>2026-04-11T08:19:09.042Z</time></trkpt><trkpt lat="44.8359167" lon="9.2755167"><ele>823.5</ele><time>2026-04-11T08:19:10.042Z</time></trkpt><trkpt lat="44.83589" lon="9.27543"><ele>827.3333333333333</ele><time>2026-04-11T08:19:11.039Z</time></trkpt><trkpt lat="44.8358483" lon="9.27536"><ele>831.1666666666666</ele><time>2026-04-11T08:19:12.044Z</time></trkpt><trkpt lat="44.835785" lon="9.2753233"><ele>835.0</ele><time>2026-04-11T08:19:13.037Z</time></trkpt><trkpt lat="44.8356717" lon="9.27532"><ele>835.6666666666666</ele><time>2026-04-11T08:19:15.039Z</time></trkpt><trkpt lat="44.8355433" lon="9.2753367"><ele>836.3333333333333</ele><time>2026-04-11T08:19:17.037Z</time></trkpt><trkpt lat="44.8354733" lon="9.2753567"><ele>837.0</ele><time>2026-04-11T08:19:18.036Z</time></trkpt><trkpt lat="44.8353983" lon="9.2753717"><ele>837.6666666666667</ele><time>2026-04-11T08:19:19.04Z</time></trkpt><trkpt lat="44.8353267" lon="9.2753583"><ele>838.3333333333334</ele><time>2026-04-11T08:19:20.036Z</time></trkpt><trkpt lat="44.83526" lon="9.2753633"><ele>839.0</ele><time>2026-04-11T08:19:21.038Z</time></trkpt><trkpt lat="44.8351533" lon="9.2754533"><ele>842.4000000000001</ele><time>2026-04-11T08:19:23.038Z</time></trkpt><trkpt lat="44.835055" lon="9.2755133"><ele>845.8</ele><time>2026-04-11T08:19:25.038Z</time></trkpt><trkpt lat="44.8349367" lon="9.2755483"><ele>849.1999999999999</ele><time>2026-04-11T08:19:27.034Z</time></trkpt><trkpt lat="44.83487" lon="9.275565"><ele>852.5999999999999</ele><time>2026-04-11T08:19:28.04Z</time></trkpt><trkpt lat="44.8347917" lon="9.27559"><ele>856.0</ele><time>2026-04-11T08:19:29.042Z</time></trkpt><trkpt lat="44.8346867" lon="9.2756217"><ele>855.9999999999999</ele><time>2026-04-11T08:19:30.041Z</time></trkpt><trkpt lat="44.834595" lon="9.2756433"><ele>856.0</ele><time>2026-04-11T08:19:31.042Z</time></trkpt><trkpt lat="44.8345117" lon="9.2756683"><ele>856.0</ele><time>2026-04-11T08:19:32.035Z</time></trkpt><trkpt lat="44.8344433" lon="9.2757083"><ele>856.0</ele><time>2026-04-11T08:19:33.045Z</time></trkpt><trkpt lat="44.8343883" lon="9.2757767"><ele>855.9999999999999</ele><time>2026-04-11T08:19:34.038Z</time></trkpt><trkpt lat="44.834335" lon="9.275855"><ele>856.0</ele><time>2026-04-11T08:19:35.039Z</time></trkpt><trkpt lat="44.8342867" lon="9.2759183"><ele>859.3333333333333</ele><time>2026-04-11T08:19:36.04Z</time></trkpt><trkpt lat="44.83418" lon="9.27596"><ele>862.6666666666666</ele><time>2026-04-11T08:19:38.04Z</time></trkpt><trkpt lat="44.8341167" lon="9.275955"><ele>866.0</ele><time>2026-04-11T08:19:39.038Z</time></trkpt><trkpt lat="44.8340533" lon="9.2759733"><ele>869.3333333333333</ele><time>2026-04-11T08:19:40.039Z</time></trkpt><trkpt lat="44.8339883" lon="9.2760167"><ele>872.6666666666666</ele><time>2026-04-11T08:19:41.037Z</time></trkpt><trkpt lat="44.8339233" lon="9.276065"><ele>876.0</ele><time>2026-04-11T08:19:42.035Z</time></trkpt><trkpt lat="44.833855" lon="9.2761017"><ele>876.0</ele><time>2026-04-11T08:19:43.041Z</time></trkpt><trkpt lat="44.8337617" lon="9.276115"><ele>876.0</ele><time>2026-04-11T08:19:44.033Z</time></trkpt><trkpt lat="44.833675" lon="9.27614"><ele>876.0</ele><time>2026-04-11T08:19:45.039Z</time></trkpt><trkpt lat="44.8335967" lon="9.276175"><ele>876.0</ele><time>2026-04-11T08:19:46.036Z</time></trkpt><trkpt lat="44.83352" lon="9.27621"><ele>876.0</ele><time>2026-04-11T08:19:47.037Z</time></trkpt><trkpt lat="44.8334433" lon="9.2762433"><ele>876.0</ele><time>2026-04-11T08:19:48.039Z</time></trkpt><trkpt lat="44.8333733" lon="9.2762483"><ele>880.3333333333334</ele><time>2026-04-11T08:19:49.033Z</time></trkpt><trkpt lat="44.833315" lon="9.2761883"><ele>884.6666666666667</ele><time>2026-04-11T08:19:50.036Z</time></trkpt><trkpt lat="44.8332617" lon="9.2761233"><ele>889.0</ele><time>2026-04-11T08:19:51.043Z</time></trkpt><trkpt lat="44.8332067" lon="9.276055"><ele>893.3333333333334</ele><time>2026-04-11T08:19:52.038Z</time></trkpt><trkpt lat="44.8331533" lon="9.2759983"><ele>897.6666666666667</ele><time>2026-04-11T08:19:53.038Z</time></trkpt><trkpt lat="44.8330517" lon="9.2759583"><ele>902.0</ele><time>2026-04-11T08:19:55.037Z</time></trkpt><trkpt lat="44.8329533" lon="9.2759267"><ele>902.0000000000001</ele><time>2026-04-11T08:19:57.041Z</time></trkpt><trkpt lat="44.8328383" lon="9.2758983"><ele>902.0</ele><time>2026-04-11T08:19:59.039Z</time></trkpt><trkpt lat="44.83277" lon="9.2759217"><ele>902.0</ele><time>2026-04-11T08:20:00.039Z</time></trkpt><trkpt lat="44.8326933" lon="9.2759633"><ele>902.0</ele><time>2026-04-11T08:20:01.039Z</time></trkpt><trkpt lat="44.8326333" lon="9.276025"><ele>902.0000000000001</ele><time>2026-04-11T08:20:02.038Z</time></trkpt><trkpt lat="44.8325767" lon="9.2760767"><ele>902.0</ele><time>2026-04-11T08:20:03.039Z</time></trkpt><trkpt lat="44.832515" lon="9.27615"><ele>907.5</ele><time>2026-04-11T08:20:04.04Z</time></trkpt><trkpt lat="44.83242" lon="9.27623"><ele>913.0</ele><time>2026-04-11T08:20:06.038Z</time></trkpt><trkpt lat="44.8323467" lon="9.2763117"><ele>918.5</ele><time>2026-04-11T08:20:08.035Z</time></trkpt><trkpt lat="44.83228" lon="9.2764733"><ele>924.0</ele><time>2026-04-11T08:20:10.039Z</time></trkpt><trkpt lat="44.8322133" lon="9.2766267"><ele>924.0</ele><time>2026-04-11T08:20:12.04Z</time></trkpt><trkpt lat="44.83217" lon="9.2767167"><ele>924.0</ele><time>2026-04-11T08:20:13.037Z</time></trkpt><trkpt lat="44.8321117" lon="9.2768183"><ele>924.0</ele><time>2026-04-11T08:20:14.039Z</time></trkpt><trkpt lat="44.8320467" lon="9.276905"><ele>924.0</ele><time>2026-04-11T08:20:15.041Z</time></trkpt><trkpt lat="44.831975" lon="9.2769833"><ele>924.0</ele><time>2026-04-11T08:20:16.04Z</time></trkpt><trkpt lat="44.8318883" lon="9.277045"><ele>924.0</ele><time>2026-04-11T08:20:17.038Z</time></trkpt><trkpt lat="44.8318183" lon="9.277105"><ele>927.6666666666666</ele><time>2026-04-11T08:20:18.042Z</time></trkpt><trkpt lat="44.831765" lon="9.2771633"><ele>931.3333333333333</ele><time>2026-04-11T08:20:19.042Z</time></trkpt><trkpt lat="44.8316717" lon="9.2772783"><ele>935.0</ele><time>2026-04-11T08:20:21.038Z</time></trkpt><trkpt lat="44.8316167" lon="9.277345"><ele>938.6666666666666</ele><time>2026-04-11T08:20:22.037Z</time></trkpt><trkpt lat="44.831565" lon="9.2774183"><ele>942.3333333333333</ele><time>2026-04-11T08:20:23.036Z</time></trkpt><trkpt lat="44.831525" lon="9.2774883"><ele>946.0</ele><time>2026-04-11T08:20:24.042Z</time></trkpt><trkpt lat="44.8314917" lon="9.2775683"><ele>945.9999999999999</ele><time>2026-04-11T08:20:25.039Z</time></trkpt><trkpt lat="44.8314533" lon="9.2776767"><ele>946.0</ele><time>2026-04-11T08:20:26.036Z</time></trkpt><trkpt lat="44.8314117" lon="9.2777917"><ele>946.0</ele><time>2026-04-11T08:20:27.04Z</time></trkpt><trkpt lat="44.8313683" lon="9.2778917"><ele>946.0</ele><time>2026-04-11T08:20:28.038Z</time></trkpt><trkpt lat="44.8313317" lon="9.2779917"><ele>945.9999999999999</ele><time>2026-04-11T08:20:29.039Z</time></trkpt><trkpt lat="44.8312783" lon="9.2780667"><ele>946.0</ele><time>2026-04-11T08:20:30.037Z</time></trkpt><trkpt lat="44.8312183" lon="9.278145"><ele>945.8333333333333</ele><time>2026-04-11T08:20:31.037Z</time></trkpt><trkpt lat="44.8311433" lon="9.278225"><ele>945.6666666666666</ele><time>2026-04-11T08:20:32.039Z</time></trkpt><trkpt lat="44.8310583" lon="9.278295"><ele>945.5</ele><time>2026-04-11T08:20:33.041Z</time></trkpt><trkpt lat="44.830995" lon="9.278355"><ele>945.3333333333333</ele><time>2026-04-11T08:20:34.037Z</time></trkpt><trkpt lat="44.8309383" lon="9.2784283"><ele>945.1666666666666</ele><time>2026-04-11T08:20:35.031Z</time></trkpt><trkpt lat="44.8309" lon="9.278525"><ele>945.0</ele><time>2026-04-11T08:20:36.04Z</time></trkpt><trkpt lat="44.8308667" lon="9.2786317"><ele>947.6666666666666</ele><time>2026-04-11T08:20:37.037Z</time></trkpt><trkpt lat="44.8308367" lon="9.2787583"><ele>950.3333333333333</ele><time>2026-04-11T08:20:38.037Z</time></trkpt><trkpt lat="44.8307967" lon="9.2788617"><ele>953.0</ele><time>2026-04-11T08:20:39.038Z</time></trkpt><trkpt lat="44.83074" lon="9.2789567"><ele>955.6666666666666</ele><time>2026-04-11T08:20:40.038Z</time></trkpt><trkpt lat="44.83068" lon="9.2790333"><ele>958.3333333333333</ele><time>2026-04-11T08:20:41.039Z</time></trkpt><trkpt lat="44.8306133" lon="9.279075"><ele>961.0</ele><time>2026-04-11T08:20:42.041Z</time></trkpt><trkpt lat="44.8305267" lon="9.2790983"><ele>961.3333333333333</ele><time>2026-04-11T08:20:43.039Z</time></trkpt><trkpt lat="44.83044" lon="9.2791217"><ele>961.6666666666666</ele><time>2026-04-11T08:20:44.037Z</time></trkpt><trkpt lat="44.83036" lon="9.27916"><ele>962.0</ele><time>2026-04-11T08:20:45.041Z</time></trkpt><trkpt lat="44.830275" lon="9.2792233"><ele>962.3333333333333</ele><time>2026-04-11T08:20:46.039Z</time></trkpt><trkpt lat="44.830195" lon="9.2792767"><ele>962.6666666666666</ele><time>2026-04-11T08:20:47.038Z</time></trkpt><trkpt lat="44.8301133" lon="9.2793083"><ele>963.0</ele><time>2026-04-11T08:20:48.042Z</time></trkpt><trkpt lat="44.830045" lon="9.27932"><ele>965.0</ele><time>2026-04-11T08:20:49.038Z</time></trkpt><trkpt lat="44.8300133" lon="9.2791633"><ele>967.0</ele><time>2026-04-11T08:20:51.041Z</time></trkpt><trkpt lat="44.83003" lon="9.279065"><ele>969.0</ele><time>2026-04-11T08:20:52.04Z</time></trkpt><trkpt lat="44.8300333" lon="9.278975"><ele>971.0</ele><time>2026-04-11T08:20:53.038Z</time></trkpt><trkpt lat="44.829975" lon="9.2788767"><ele>973.0</ele><time>2026-04-11T08:20:55.036Z</time></trkpt><trkpt lat="44.8298483" lon="9.278945"><ele>973.0</ele><time>2026-04-11T08:20:57.042Z</time></trkpt><trkpt lat="44.829775" lon="9.2789767"><ele>973.0</ele><time>2026-04-11T08:20:58.037Z</time></trkpt><trkpt lat="44.829665" lon="9.2790283"><ele>973.0</ele><time>2026-04-11T08:20:59.037Z</time></trkpt><trkpt lat="44.8295917" lon="9.2790283"><ele>973.0</ele><time>2026-04-11T08:21:00.037Z</time></trkpt><trkpt lat="44.8295233" lon="9.2789467"><ele>973.0</ele><time>2026-04-11T08:21:02.038Z</time></trkpt><trkpt lat="44.8295083" lon="9.278755"><ele>974.3333333333333</ele><time>2026-04-11T08:21:04.038Z</time></trkpt><trkpt lat="44.8295033" lon="9.27865"><ele>975.6666666666666</ele><time>2026-04-11T08:21:05.038Z</time></trkpt><trkpt lat="44.82949" lon="9.2785567"><ele>977.0</ele><time>2026-04-11T08:21:06.036Z</time></trkpt><trkpt lat="44.82943" lon="9.2784267"><ele>978.3333333333333</ele><time>2026-04-11T08:21:08.034Z</time></trkpt><trkpt lat="44.8293967" lon="9.2783467"><ele>979.6666666666666</ele><time>2026-04-11T08:21:09.039Z</time></trkpt><trkpt lat="44.829345" lon="9.278205"><ele>981.0</ele><time>2026-04-11T08:21:11.038Z</time></trkpt><trkpt lat="44.8293517" lon="9.27809"><ele>982.1999999999999</ele><time>2026-04-11T08:21:25.035Z</time></trkpt><trkpt lat="44.8293717" lon="9.2779183"><ele>983.3999999999999</ele><time>2026-04-11T08:21:27.031Z</time></trkpt><trkpt lat="44.829385" lon="9.27783"><ele>984.6</ele><time>2026-04-11T08:21:28.038Z</time></trkpt><trkpt lat="44.829385" lon="9.2776817"><ele>985.8</ele><time>2026-04-11T08:21:30.033Z</time></trkpt><trkpt lat="44.82939" lon="9.277555"><ele>987.0</ele><time>2026-04-11T08:21:32.036Z</time></trkpt><trkpt lat="44.8294133" lon="9.27743"><ele>987.0</ele><time>2026-04-11T08:21:34.034Z</time></trkpt><trkpt lat="44.8293883" lon="9.2773133"><ele>987.0</ele><time>2026-04-11T08:21:36.035Z</time></trkpt><trkpt lat="44.8293183" lon="9.277215"><ele>987.0</ele><time>2026-04-11T08:21:38.037Z</time></trkpt><trkpt lat="44.8292083" lon="9.27711"><ele>987.0</ele><time>2026-04-11T08:21:40.037Z</time></trkpt><trkpt lat="44.829165" lon="9.27703"><ele>987.0</ele><time>2026-04-11T08:21:41.034Z</time></trkpt><trkpt lat="44.829105" lon="9.27696"><ele>990.0</ele><time>2026-04-11T08:21:42.034Z</time></trkpt><trkpt lat="44.8290667" lon="9.2768783"><ele>993.0</ele><time>2026-04-11T08:21:43.035Z</time></trkpt><trkpt lat="44.8290267" lon="9.2766867"><ele>996.0</ele><time>2026-04-11T08:21:45.039Z</time></trkpt><trkpt lat="44.8290167" lon="9.276585"><ele>999.0</ele><time>2026-04-11T08:21:46.038Z</time></trkpt><trkpt lat="44.8290633" lon="9.2764667"><ele>1002.0</ele><time>2026-04-11T08:21:47.042Z</time></trkpt><trkpt lat="44.8291167" lon="9.2763333"><ele>1002.0</ele><time>2026-04-11T08:21:48.04Z</time></trkpt><trkpt lat="44.8291683" lon="9.276195"><ele>1002.0</ele><time>2026-04-11T08:21:49.038Z</time></trkpt><trkpt lat="44.82921" lon="9.2760683"><ele>1002.0</ele><time>2026-04-11T08:21:50.039Z</time></trkpt><trkpt lat="44.82925" lon="9.2759517"><ele>1002.0</ele><time>2026-04-11T08:21:51.041Z</time></trkpt><trkpt lat="44.8292617" lon="9.275845"><ele>1002.0</ele><time>2026-04-11T08:21:52.041Z</time></trkpt><trkpt lat="44.82926" lon="9.2757483"><ele>1002.0</ele><time>2026-04-11T08:21:53.041Z</time></trkpt><trkpt lat="44.829195" lon="9.2755333"><ele>1001.2</ele><time>2026-04-11T08:21:55.041Z</time></trkpt><trkpt lat="44.8291317" lon="9.2753783"><ele>1000.4000000000001</ele><time>2026-04-11T08:21:56.04Z</time></trkpt><trkpt lat="44.8290667" lon="9.27526"><ele>999.5999999999999</ele><time>2026-04-11T08:21:57.041Z</time></trkpt><trkpt lat="44.8290167" lon="9.27517"><ele>998.8</ele><time>2026-04-11T08:21:58.039Z</time></trkpt><trkpt lat="44.82895" lon="9.2750833"><ele>998.0</ele><time>2026-04-11T08:21:59.039Z</time></trkpt><trkpt lat="44.8288983" lon="9.2750083"><ele>998.0</ele><time>2026-04-11T08:22:00.038Z</time></trkpt><trkpt lat="44.8288567" lon="9.27493"><ele>998.0</ele><time>2026-04-11T08:22:01.038Z</time></trkpt><trkpt lat="44.8288333" lon="9.2748183"><ele>998.0</ele><time>2026-04-11T08:22:02.036Z</time></trkpt><trkpt lat="44.8288317" lon="9.2746867"><ele>998.0</ele><time>2026-04-11T08:22:03.041Z</time></trkpt><trkpt lat="44.8288533" lon="9.274545"><ele>998.0</ele><time>2026-04-11T08:22:04.039Z</time></trkpt><trkpt lat="44.8288983" lon="9.2744117"><ele>997.2</ele><time>2026-04-11T08:22:05.039Z</time></trkpt><trkpt lat="44.8289383" lon="9.2742783"><ele>996.4</ele><time>2026-04-11T08:22:06.038Z</time></trkpt><trkpt lat="44.8289717" lon="9.274155"><ele>995.6000000000001</ele><time>2026-04-11T08:22:07.038Z</time></trkpt><trkpt lat="44.8289917" lon="9.2740183"><ele>994.8000000000001</ele><time>2026-04-11T08:22:08.038Z</time></trkpt><trkpt lat="44.8289917" lon="9.2738817"><ele>994.0</ele><time>2026-04-11T08:22:09.041Z</time></trkpt><trkpt lat="44.8289833" lon="9.2737533"><ele>994.0</ele><time>2026-04-11T08:22:10.041Z</time></trkpt><trkpt lat="44.8289617" lon="9.2736133"><ele>994.0000000000001</ele><time>2026-04-11T08:22:11.041Z</time></trkpt><trkpt lat="44.828945" lon="9.27347"><ele>994.0000000000001</ele><time>2026-04-11T08:22:12.038Z</time></trkpt><trkpt lat="44.8289483" lon="9.273315"><ele>994.0</ele><time>2026-04-11T08:22:13.039Z</time></trkpt><trkpt lat="44.828965" lon="9.273145"><ele>994.0</ele><time>2026-04-11T08:22:14.033Z</time></trkpt><trkpt lat="44.8289833" lon="9.2729767"><ele>994.0</ele><time>2026-04-11T08:22:15.036Z</time></trkpt><trkpt lat="44.829005" lon="9.272795"><ele>994.0</ele><time>2026-04-11T08:22:16.039Z</time></trkpt><trkpt lat="44.82902" lon="9.272605"><ele>994.0</ele><time>2026-04-11T08:22:17.039Z</time></trkpt><trkpt lat="44.8290317" lon="9.2724233"><ele>994.0</ele><time>2026-04-11T08:22:18.037Z</time></trkpt><trkpt lat="44.8290383" lon="9.272245"><ele>995.0</ele><time>2026-04-11T08:22:19.04Z</time></trkpt><trkpt lat="44.82905" lon="9.2720883"><ele>996.0000000000001</ele><time>2026-04-11T08:22:20.041Z</time></trkpt><trkpt lat="44.82907" lon="9.2719583"><ele>997.0000000000001</ele><time>2026-04-11T08:22:21.042Z</time></trkpt><trkpt lat="44.8291067" lon="9.2718267"><ele>998.0</ele><time>2026-04-11T08:22:22.038Z</time></trkpt><trkpt lat="44.829155" lon="9.2716967"><ele>999.0</ele><time>2026-04-11T08:22:23.04Z</time></trkpt><trkpt lat="44.8292017" lon="9.2715717"><ele>999.0</ele><time>2026-04-11T08:22:24.041Z</time></trkpt><trkpt lat="44.82923" lon="9.27146"><ele>999.0000000000001</ele><time>2026-04-11T08:22:25.043Z</time></trkpt><trkpt lat="44.8292467" lon="9.2713433"><ele>999.0000000000001</ele><time>2026-04-11T08:22:26.041Z</time></trkpt><trkpt lat="44.8292617" lon="9.2712383"><ele>999.0</ele><time>2026-04-11T08:22:27.041Z</time></trkpt><trkpt lat="44.8291767" lon="9.2712133"><ele>999.0</ele><time>2026-04-11T08:22:30.04Z</time></trkpt><trkpt lat="44.8290167" lon="9.2713333"><ele>999.0</ele><time>2026-04-11T08:22:32.037Z</time></trkpt><trkpt lat="44.828905" lon="9.271405"><ele>999.0</ele><time>2026-04-11T08:22:33.043Z</time></trkpt><trkpt lat="44.8287983" lon="9.2714967"><ele>999.0</ele><time>2026-04-11T08:22:34.035Z</time></trkpt><trkpt lat="44.8286883" lon="9.2716117"><ele>999.0</ele><time>2026-04-11T08:22:35.033Z</time></trkpt><trkpt lat="44.8285883" lon="9.271725"><ele>999.0</ele><time>2026-04-11T08:22:36.038Z</time></trkpt><trkpt lat="44.8284783" lon="9.27183"><ele>999.0000000000001</ele><time>2026-04-11T08:22:37.04Z</time></trkpt><trkpt lat="44.8283667" lon="9.27192"><ele>999.0000000000001</ele><time>2026-04-11T08:22:38.042Z</time></trkpt><trkpt lat="44.8282867" lon="9.272"><ele>999.0</ele><time>2026-04-11T08:22:39.04Z</time></trkpt><trkpt lat="44.828235" lon="9.2720867"><ele>999.0</ele><time>2026-04-11T08:22:40.039Z</time></trkpt><trkpt lat="44.8281933" lon="9.2721867"><ele>1003.75</ele><time>2026-04-11T08:22:41.032Z</time></trkpt><trkpt lat="44.828155" lon="9.27229"><ele>1008.5</ele><time>2026-04-11T08:22:42.03Z</time></trkpt><trkpt lat="44.828125" lon="9.2724083"><ele>1013.25</ele><time>2026-04-11T08:22:43.031Z</time></trkpt><trkpt lat="44.8280683" lon="9.27256"><ele>1018.0</ele><time>2026-04-11T08:22:44.034Z</time></trkpt><trkpt lat="44.8279917" lon="9.2728033"><ele>1018.0</ele><time>2026-04-11T08:22:45.033Z</time></trkpt><trkpt lat="44.8279167" lon="9.273"><ele>1018.0</ele><time>2026-04-11T08:22:46.034Z</time></trkpt><trkpt lat="44.8278217" lon="9.2732033"><ele>1018.0</ele><time>2026-04-11T08:22:47.032Z</time></trkpt><trkpt lat="44.8277383" lon="9.2733883"><ele>1017.5</ele><time>2026-04-11T08:22:48.031Z</time></trkpt><trkpt lat="44.8276683" lon="9.27356"><ele>1017.0</ele><time>2026-04-11T08:22:49.03Z</time></trkpt><trkpt lat="44.8275967" lon="9.2737033"><ele>1016.5</ele><time>2026-04-11T08:22:50.032Z</time></trkpt><trkpt lat="44.8275333" lon="9.2738583"><ele>1016.0</ele><time>2026-04-11T08:22:51.033Z</time></trkpt><trkpt lat="44.827465" lon="9.2740183"><ele>1021.75</ele><time>2026-04-11T08:22:52.031Z</time></trkpt><trkpt lat="44.8273867" lon="9.274155"><ele>1027.5</ele><time>2026-04-11T08:22:53.037Z</time></trkpt><trkpt lat="44.8273217" lon="9.27429"><ele>1033.25</ele><time>2026-04-11T08:22:54.039Z</time></trkpt><trkpt lat="44.82726" lon="9.274435"><ele>1039.0</ele><time>2026-04-11T08:22:55.035Z</time></trkpt><trkpt lat="44.827185" lon="9.274575"><ele>1039.0</ele><time>2026-04-11T08:22:56.033Z</time></trkpt><trkpt lat="44.8271017" lon="9.27471"><ele>1039.0</ele><time>2026-04-11T08:22:57.038Z</time></trkpt><trkpt lat="44.8270433" lon="9.274865"><ele>1039.0</ele><time>2026-04-11T08:22:58.04Z</time></trkpt><trkpt lat="44.8269917" lon="9.2750483"><ele>1039.0</ele><time>2026-04-11T08:22:59.032Z</time></trkpt><trkpt lat="44.8269217" lon="9.2752433"><ele>1038.8</ele><time>2026-04-11T08:23:00.031Z</time></trkpt><trkpt lat="44.826875" lon="9.2753983"><ele>1038.6000000000001</ele><time>2026-04-11T08:23:01.03Z</time></trkpt><trkpt lat="44.8268367" lon="9.2755317"><ele>1038.4</ele><time>2026-04-11T08:23:02.032Z</time></trkpt><trkpt lat="44.82679" lon="9.27566"><ele>1038.2</ele><time>2026-04-11T08:23:03.031Z</time></trkpt><trkpt lat="44.826735" lon="9.2758183"><ele>1038.0</ele><time>2026-04-11T08:23:04.033Z</time></trkpt><trkpt lat="44.8266633" lon="9.2759967"><ele>1041.0</ele><time>2026-04-11T08:23:05.031Z</time></trkpt><trkpt lat="44.8266017" lon="9.27618"><ele>1044.0</ele><time>2026-04-11T08:23:06.036Z</time></trkpt><trkpt lat="44.8265433" lon="9.2763517"><ele>1047.0</ele><time>2026-04-11T08:23:07.033Z</time></trkpt><trkpt lat="44.826485" lon="9.2765117"><ele>1050.0</ele><time>2026-04-11T08:23:08.037Z</time></trkpt><trkpt lat="44.8264183" lon="9.2766633"><ele>1050.0</ele><time>2026-04-11T08:23:09.03Z</time></trkpt><trkpt lat="44.82635" lon="9.2767933"><ele>1050.0</ele><time>2026-04-11T08:23:10.038Z</time></trkpt><trkpt lat="44.8262917" lon="9.2769083"><ele>1050.0</ele><time>2026-04-11T08:23:11.034Z</time></trkpt><trkpt lat="44.8262267" lon="9.277005"><ele>1050.0</ele><time>2026-04-11T08:23:12.041Z</time></trkpt><trkpt lat="44.8261667" lon="9.277085"><ele>1050.0</ele><time>2026-04-11T08:23:13.034Z</time></trkpt><trkpt lat="44.8261133" lon="9.2771667"><ele>1050.0</ele><time>2026-04-11T08:23:14.03Z</time></trkpt><trkpt lat="44.8260783" lon="9.2772417"><ele>1050.0</ele><time>2026-04-11T08:23:15.031Z</time></trkpt><trkpt lat="44.82601" lon="9.27722"><ele>1050.0</ele><time>2026-04-11T08:23:19.038Z</time></trkpt><trkpt lat="44.8259983" lon="9.2771133"><ele>1050.0</ele><time>2026-04-11T08:23:21.043Z</time></trkpt><trkpt lat="44.8260033" lon="9.2769983"><ele>1050.0</ele><time>2026-04-11T08:23:23.042Z</time></trkpt><trkpt lat="44.8260017" lon="9.27686"><ele>1050.0</ele><time>2026-04-11T08:23:25.032Z</time></trkpt><trkpt lat="44.8259783" lon="9.2766783"><ele>1050.1666666666667</ele><time>2026-04-11T08:23:27.036Z</time></trkpt><trkpt lat="44.8259533" lon="9.2765767"><ele>1050.3333333333333</ele><time>2026-04-11T08:23:28.04Z</time></trkpt><trkpt lat="44.8259383" lon="9.27647"><ele>1050.5</ele><time>2026-04-11T08:23:29.039Z</time></trkpt><trkpt lat="44.8259417" lon="9.2763717"><ele>1050.6666666666665</ele><time>2026-04-11T08:23:30.034Z</time></trkpt><trkpt lat="44.8259517" lon="9.2762683"><ele>1050.8333333333333</ele><time>2026-04-11T08:23:31.038Z</time></trkpt><trkpt lat="44.8259567" lon="9.276155"><ele>1051.0</ele><time>2026-04-11T08:23:32.037Z</time></trkpt><trkpt lat="44.8259583" lon="9.2760283"><ele>1051.0</ele><time>2026-04-11T08:23:33.039Z</time></trkpt><trkpt lat="44.8259783" lon="9.2759"><ele>1051.0</ele><time>2026-04-11T08:23:34.042Z</time></trkpt><trkpt lat="44.826015" lon="9.2757583"><ele>1051.0</ele><time>2026-04-11T08:23:35.04Z</time></trkpt><trkpt lat="44.826045" lon="9.2756267"><ele>1051.0</ele><time>2026-04-11T08:23:36.038Z</time></trkpt><trkpt lat="44.8260667" lon="9.2754817"><ele>1051.0</ele><time>2026-04-11T08:23:37.04Z</time></trkpt><trkpt lat="44.82609" lon="9.275325"><ele>1052.75</ele><time>2026-04-11T08:23:38.031Z</time></trkpt><trkpt lat="44.8261267" lon="9.27515"><ele>1054.5</ele><time>2026-04-11T08:23:39.04Z</time></trkpt><trkpt lat="44.8261717" lon="9.2749633"><ele>1056.25</ele><time>2026-04-11T08:23:40.038Z</time></trkpt><trkpt lat="44.826205" lon="9.2747933"><ele>1058.0</ele><time>2026-04-11T08:23:41.035Z</time></trkpt><trkpt lat="44.8262333" lon="9.2746083"><ele>1060.5</ele><time>2026-04-11T08:23:42.034Z</time></trkpt><trkpt lat="44.826255" lon="9.2744217"><ele>1063.0</ele><time>2026-04-11T08:23:43.042Z</time></trkpt><trkpt lat="44.8262683" lon="9.2742617"><ele>1065.5</ele><time>2026-04-11T08:23:44.037Z</time></trkpt><trkpt lat="44.82628" lon="9.27412"><ele>1068.0</ele><time>2026-04-11T08:23:45.038Z</time></trkpt><trkpt lat="44.8262933" lon="9.2739783"><ele>1070.0</ele><time>2026-04-11T08:23:46.037Z</time></trkpt><trkpt lat="44.8263067" lon="9.27384"><ele>1072.0</ele><time>2026-04-11T08:23:47.035Z</time></trkpt><trkpt lat="44.826325" lon="9.273685"><ele>1074.0</ele><time>2026-04-11T08:23:48.036Z</time></trkpt><trkpt lat="44.8263317" lon="9.27352"><ele>1076.0</ele><time>2026-04-11T08:23:49.038Z</time></trkpt><trkpt lat="44.8263383" lon="9.2733583"><ele>1078.0</ele><time>2026-04-11T08:23:50.039Z</time></trkpt><trkpt lat="44.82632" lon="9.2732117"><ele>1077.4</ele><time>2026-04-11T08:23:51.04Z</time></trkpt><trkpt lat="44.8262917" lon="9.2730517"><ele>1076.8</ele><time>2026-04-11T08:23:52.041Z</time></trkpt><trkpt lat="44.8262567" lon="9.272915"><ele>1076.2</ele><time>2026-04-11T08:23:53.04Z</time></trkpt><trkpt lat="44.8262317" lon="9.2728133"><ele>1075.6</ele><time>2026-04-11T08:23:54.041Z</time></trkpt><trkpt lat="44.8261967" lon="9.27273"><ele>1075.0</ele><time>2026-04-11T08:23:55.038Z</time></trkpt><trkpt lat="44.826125" lon="9.2726417"><ele>1075.0</ele><time>2026-04-11T08:23:56.038Z</time></trkpt><trkpt lat="44.8260217" lon="9.272565"><ele>1075.0</ele><time>2026-04-11T08:23:57.04Z</time></trkpt><trkpt lat="44.8259117" lon="9.272515"><ele>1075.0</ele><time>2026-04-11T08:23:58.039Z</time></trkpt><trkpt lat="44.8257917" lon="9.2724783"><ele>1075.0</ele><time>2026-04-11T08:23:59.035Z</time></trkpt><trkpt lat="44.8256917" lon="9.2724417"><ele>1075.6666666666665</ele><time>2026-04-11T08:24:00.038Z</time></trkpt><trkpt lat="44.8255833" lon="9.2724217"><ele>1076.3333333333333</ele><time>2026-04-11T08:24:01.041Z</time></trkpt><trkpt lat="44.8255083" lon="9.2723817"><ele>1077.0</ele><time>2026-04-11T08:24:02.04Z</time></trkpt><trkpt lat="44.825445" lon="9.2723383"><ele>1077.6666666666667</ele><time>2026-04-11T08:24:03.038Z</time></trkpt><trkpt lat="44.8253917" lon="9.2722833"><ele>1078.3333333333335</ele><time>2026-04-11T08:24:04.036Z</time></trkpt><trkpt lat="44.825345" lon="9.2722"><ele>1079.0</ele><time>2026-04-11T08:24:05.039Z</time></trkpt><trkpt lat="44.8252967" lon="9.2720967"><ele>1079.0</ele><time>2026-04-11T08:24:06.04Z</time></trkpt><trkpt lat="44.8252617" lon="9.2719783"><ele>1079.0</ele><time>2026-04-11T08:24:07.043Z</time></trkpt><trkpt lat="44.8252267" lon="9.2718617"><ele>1079.0</ele><time>2026-04-11T08:24:08.043Z</time></trkpt><trkpt lat="44.8251933" lon="9.2717167"><ele>1079.0</ele><time>2026-04-11T08:24:09.038Z</time></trkpt><trkpt lat="44.82515" lon="9.2715933"><ele>1079.0</ele><time>2026-04-11T08:24:10.038Z</time></trkpt><trkpt lat="44.825115" lon="9.2714817"><ele>1079.8</ele><time>2026-04-11T08:24:11.039Z</time></trkpt><trkpt lat="44.82509" lon="9.2713567"><ele>1080.6000000000001</ele><time>2026-04-11T08:24:12.039Z</time></trkpt><trkpt lat="44.82507" lon="9.27123"><ele>1081.4</ele><time>2026-04-11T08:24:13.038Z</time></trkpt><trkpt lat="44.8250483" lon="9.27109"><ele>1082.2</ele><time>2026-04-11T08:24:14.04Z</time></trkpt><trkpt lat="44.8250083" lon="9.2709867"><ele>1083.0</ele><time>2026-04-11T08:24:15.033Z</time></trkpt><trkpt lat="44.8249583" lon="9.2708633"><ele>1083.0</ele><time>2026-04-11T08:24:16.033Z</time></trkpt><trkpt lat="44.824895" lon="9.27073"><ele>1083.0</ele><time>2026-04-11T08:24:17.031Z</time></trkpt><trkpt lat="44.8248317" lon="9.270625"><ele>1083.0</ele><time>2026-04-11T08:24:18.036Z</time></trkpt><trkpt lat="44.824775" lon="9.2705283"><ele>1083.0</ele><time>2026-04-11T08:24:19.032Z</time></trkpt><trkpt lat="44.8247183" lon="9.2704467"><ele>1083.0</ele><time>2026-04-11T08:24:20.039Z</time></trkpt><trkpt lat="44.82466" lon="9.2703917"><ele>1085.5</ele><time>2026-04-11T08:24:21.042Z</time></trkpt><trkpt lat="44.824595" lon="9.270285"><ele>1088.0</ele><time>2026-04-11T08:24:22.04Z</time></trkpt><trkpt lat="44.8245217" lon="9.2701483"><ele>1090.5</ele><time>2026-04-11T08:24:23.038Z</time></trkpt><trkpt lat="44.8244367" lon="9.2700033"><ele>1093.0</ele><time>2026-04-11T08:24:24.04Z</time></trkpt><trkpt lat="44.8243517" lon="9.2698683"><ele>1091.8</ele><time>2026-04-11T08:24:25.044Z</time></trkpt><trkpt lat="44.82427" lon="9.2697467"><ele>1090.6</ele><time>2026-04-11T08:24:26.04Z</time></trkpt><trkpt lat="44.8241883" lon="9.2696517"><ele>1089.4</ele><time>2026-04-11T08:24:27.038Z</time></trkpt><trkpt lat="44.8240867" lon="9.2695817"><ele>1088.2</ele><time>2026-04-11T08:24:28.037Z</time></trkpt><trkpt lat="44.8239917" lon="9.2695133"><ele>1087.0</ele><time>2026-04-11T08:24:29.038Z</time></trkpt><trkpt lat="44.8239267" lon="9.269435"><ele>1087.0</ele><time>2026-04-11T08:24:30.039Z</time></trkpt><trkpt lat="44.8238917" lon="9.2693417"><ele>1087.0</ele><time>2026-04-11T08:24:31.039Z</time></trkpt><trkpt lat="44.8238633" lon="9.2692533"><ele>1087.0</ele><time>2026-04-11T08:24:32.038Z</time></trkpt><trkpt lat="44.8238483" lon="9.26915"><ele>1087.0</ele><time>2026-04-11T08:24:33.038Z</time></trkpt><trkpt lat="44.8238483" lon="9.2690383"><ele>1087.0</ele><time>2026-04-11T08:24:34.037Z</time></trkpt><trkpt lat="44.82385" lon="9.2689217"><ele>1087.0</ele><time>2026-04-11T08:24:35.042Z</time></trkpt><trkpt lat="44.8238667" lon="9.2687833"><ele>1085.8</ele><time>2026-04-11T08:24:36.042Z</time></trkpt><trkpt lat="44.8238767" lon="9.268645"><ele>1084.6</ele><time>2026-04-11T08:24:37.037Z</time></trkpt><trkpt lat="44.8238683" lon="9.2685117"><ele>1083.3999999999999</ele><time>2026-04-11T08:24:38.04Z</time></trkpt><trkpt lat="44.8238417" lon="9.2683517"><ele>1082.2</ele><time>2026-04-11T08:24:39.04Z</time></trkpt><trkpt lat="44.8238117" lon="9.2681833"><ele>1081.0</ele><time>2026-04-11T08:24:40.035Z</time></trkpt><trkpt lat="44.8237867" lon="9.26801"><ele>1079.25</ele><time>2026-04-11T08:24:41.041Z</time></trkpt><trkpt lat="44.82376" lon="9.2678433"><ele>1077.5</ele><time>2026-04-11T08:24:42.037Z</time></trkpt><trkpt lat="44.8237283" lon="9.2676783"><ele>1075.75</ele><time>2026-04-11T08:24:43.034Z</time></trkpt><trkpt lat="44.8236883" lon="9.2675083"><ele>1074.0</ele><time>2026-04-11T08:24:44.042Z</time></trkpt><trkpt lat="44.8236367" lon="9.26735"><ele>1073.25</ele><time>2026-04-11T08:24:45.037Z</time></trkpt><trkpt lat="44.8235567" lon="9.2672"><ele>1072.5</ele><time>2026-04-11T08:24:46.041Z</time></trkpt><trkpt lat="44.823465" lon="9.2670733"><ele>1071.75</ele><time>2026-04-11T08:24:47.039Z</time></trkpt><trkpt lat="44.8233683" lon="9.2669533"><ele>1071.0</ele><time>2026-04-11T08:24:48.038Z</time></trkpt><trkpt lat="44.8232733" lon="9.2668417"><ele>1071.0</ele><time>2026-04-11T08:24:49.039Z</time></trkpt><trkpt lat="44.8231867" lon="9.2667417"><ele>1071.0</ele><time>2026-04-11T08:24:50.038Z</time></trkpt><trkpt lat="44.8231117" lon="9.2666617"><ele>1071.0</ele><time>2026-04-11T08:24:51.039Z</time></trkpt><trkpt lat="44.8230367" lon="9.2665917"><ele>1071.0</ele><time>2026-04-11T08:24:52.039Z</time></trkpt><trkpt lat="44.8229683" lon="9.266505"><ele>1071.0</ele><time>2026-04-11T08:24:53.036Z</time></trkpt><trkpt lat="44.8229" lon="9.26639"><ele>1069.5</ele><time>2026-04-11T08:24:54.04Z</time></trkpt><trkpt lat="44.82284" lon="9.2662733"><ele>1068.0</ele><time>2026-04-11T08:24:55.04Z</time></trkpt><trkpt lat="44.822805" lon="9.266165"><ele>1066.5</ele><time>2026-04-11T08:24:56.038Z</time></trkpt><trkpt lat="44.82278" lon="9.2660683"><ele>1065.0</ele><time>2026-04-11T08:24:57.04Z</time></trkpt><trkpt lat="44.82277" lon="9.2659683"><ele>1063.5</ele><time>2026-04-11T08:24:58.04Z</time></trkpt><trkpt lat="44.8227733" lon="9.2658667"><ele>1062.0</ele><time>2026-04-11T08:24:59.037Z</time></trkpt><trkpt lat="44.8228" lon="9.26577"><ele>1062.0</ele><time>2026-04-11T08:25:00.039Z</time></trkpt><trkpt lat="44.8228267" lon="9.2656717"><ele>1062.0</ele><time>2026-04-11T08:25:01.038Z</time></trkpt><trkpt lat="44.8228633" lon="9.265595"><ele>1062.0</ele><time>2026-04-11T08:25:02.038Z</time></trkpt><trkpt lat="44.8229167" lon="9.2654683"><ele>1062.0</ele><time>2026-04-11T08:25:04.039Z</time></trkpt><trkpt lat="44.82293" lon="9.2653533"><ele>1062.0</ele><time>2026-04-11T08:25:06.039Z</time></trkpt><trkpt lat="44.8228683" lon="9.2652"><ele>1058.0</ele><time>2026-04-11T08:25:08.041Z</time></trkpt><trkpt lat="44.822815" lon="9.2651167"><ele>1054.0</ele><time>2026-04-11T08:25:09.041Z</time></trkpt><trkpt lat="44.822735" lon="9.2649933"><ele>1050.0</ele><time>2026-04-11T08:25:10.039Z</time></trkpt><trkpt lat="44.8226733" lon="9.2648683"><ele>1046.0</ele><time>2026-04-11T08:25:11.03Z</time></trkpt><trkpt lat="44.8226033" lon="9.2647167"><ele>1042.0</ele><time>2026-04-11T08:25:12.043Z</time></trkpt><trkpt lat="44.8225383" lon="9.2645917"><ele>1040.0</ele><time>2026-04-11T08:25:13.039Z</time></trkpt><trkpt lat="44.8224767" lon="9.2644417"><ele>1038.0</ele><time>2026-04-11T08:25:14.031Z</time></trkpt><trkpt lat="44.8224333" lon="9.2643333"><ele>1036.0</ele><time>2026-04-11T08:25:15.038Z</time></trkpt><trkpt lat="44.8224083" lon="9.2642383"><ele>1034.0</ele><time>2026-04-11T08:25:16.037Z</time></trkpt><trkpt lat="44.8223983" lon="9.2641467"><ele>1032.0</ele><time>2026-04-11T08:25:18.036Z</time></trkpt><trkpt lat="44.8224483" lon="9.2640683"><ele>1030.0</ele><time>2026-04-11T08:25:41.04Z</time></trkpt><trkpt lat="44.8224333" lon="9.26397"><ele>1027.75</ele><time>2026-04-11T08:25:43.036Z</time></trkpt><trkpt lat="44.8223483" lon="9.2638417"><ele>1025.5</ele><time>2026-04-11T08:25:44.035Z</time></trkpt><trkpt lat="44.8222517" lon="9.2636817"><ele>1023.25</ele><time>2026-04-11T08:25:45.035Z</time></trkpt><trkpt lat="44.8221467" lon="9.2635167"><ele>1021.0</ele><time>2026-04-11T08:25:46.03Z</time></trkpt><trkpt lat="44.822055" lon="9.26337"><ele>1021.0</ele><time>2026-04-11T08:25:47.03Z</time></trkpt><trkpt lat="44.8219867" lon="9.2632467"><ele>1020.9999999999999</ele><time>2026-04-11T08:25:48.031Z</time></trkpt><trkpt lat="44.8219067" lon="9.26313"><ele>1020.9999999999999</ele><time>2026-04-11T08:25:49.03Z</time></trkpt><trkpt lat="44.82183" lon="9.26305"><ele>1021.0</ele><time>2026-04-11T08:25:50.033Z</time></trkpt><trkpt lat="44.8217533" lon="9.262995"><ele>1021.0</ele><time>2026-04-11T08:25:51.039Z</time></trkpt><trkpt lat="44.8216783" lon="9.2630017"><ele>1020.2857142857142</ele><time>2026-04-11T08:25:52.039Z</time></trkpt><trkpt lat="44.8216067" lon="9.263015"><ele>1019.5714285714287</ele><time>2026-04-11T08:25:53.037Z</time></trkpt><trkpt lat="44.8215383" lon="9.26304"><ele>1018.8571428571429</ele><time>2026-04-11T08:25:54.04Z</time></trkpt><trkpt lat="44.8214733" lon="9.263065"><ele>1018.1428571428571</ele><time>2026-04-11T08:25:55.037Z</time></trkpt><trkpt lat="44.82141" lon="9.2630883"><ele>1017.4285714285713</ele><time>2026-04-11T08:25:56.039Z</time></trkpt><trkpt lat="44.8213383" lon="9.2631233"><ele>1016.7142857142858</ele><time>2026-04-11T08:25:57.038Z</time></trkpt><trkpt lat="44.8212733" lon="9.2631683"><ele>1016.0</ele><time>2026-04-11T08:25:58.039Z</time></trkpt><trkpt lat="44.8212133" lon="9.2632333"><ele>1016.0000000000001</ele><time>2026-04-11T08:25:59.037Z</time></trkpt><trkpt lat="44.8211533" lon="9.263295"><ele>1016.0</ele><time>2026-04-11T08:26:00.04Z</time></trkpt><trkpt lat="44.8210967" lon="9.2633483"><ele>1016.0</ele><time>2026-04-11T08:26:01.039Z</time></trkpt><trkpt lat="44.8210367" lon="9.2633817"><ele>1016.0</ele><time>2026-04-11T08:26:02.032Z</time></trkpt><trkpt lat="44.8209333" lon="9.2633733"><ele>1016.0000000000001</ele><time>2026-04-11T08:26:04.034Z</time></trkpt><trkpt lat="44.8209" lon="9.2632467"><ele>1016.0</ele><time>2026-04-11T08:26:06.038Z</time></trkpt><trkpt lat="44.82089" lon="9.2631283"><ele>1011.6666666666667</ele><time>2026-04-11T08:26:07.038Z</time></trkpt><trkpt lat="44.8208633" lon="9.2630083"><ele>1007.3333333333334</ele><time>2026-04-11T08:26:08.039Z</time></trkpt><trkpt lat="44.8208333" lon="9.2629083"><ele>1003.0</ele><time>2026-04-11T08:26:09.037Z</time></trkpt><trkpt lat="44.8208" lon="9.2628067"><ele>998.6666666666667</ele><time>2026-04-11T08:26:10.039Z</time></trkpt><trkpt lat="44.8207617" lon="9.262695"><ele>994.3333333333334</ele><time>2026-04-11T08:26:11.038Z</time></trkpt><trkpt lat="44.820725" lon="9.2625817"><ele>990.0</ele><time>2026-04-11T08:26:12.036Z</time></trkpt><trkpt lat="44.8206833" lon="9.2624767"><ele>990.0</ele><time>2026-04-11T08:26:13.042Z</time></trkpt><trkpt lat="44.8206367" lon="9.2623783"><ele>990.0</ele><time>2026-04-11T08:26:14.034Z</time></trkpt><trkpt lat="44.820595" lon="9.2622833"><ele>990.0</ele><time>2026-04-11T08:26:15.037Z</time></trkpt><trkpt lat="44.8205567" lon="9.2621817"><ele>990.0</ele><time>2026-04-11T08:26:16.042Z</time></trkpt><trkpt lat="44.8205217" lon="9.2620783"><ele>990.0</ele><time>2026-04-11T08:26:17.037Z</time></trkpt><trkpt lat="44.8204967" lon="9.2619767"><ele>990.0</ele><time>2026-04-11T08:26:18.036Z</time></trkpt><trkpt lat="44.8204883" lon="9.261885"><ele>987.8</ele><time>2026-04-11T08:26:19.039Z</time></trkpt><trkpt lat="44.8204883" lon="9.261795"><ele>985.6</ele><time>2026-04-11T08:26:20.039Z</time></trkpt><trkpt lat="44.8204717" lon="9.2616367"><ele>983.4000000000001</ele><time>2026-04-11T08:26:22.04Z</time></trkpt><trkpt lat="44.8204" lon="9.261565"><ele>981.2</ele><time>2026-04-11T08:26:24.042Z</time></trkpt><trkpt lat="44.8202767" lon="9.261615"><ele>979.0</ele><time>2026-04-11T08:26:26.038Z</time></trkpt><trkpt lat="44.820155" lon="9.261645"><ele>975.8571428571429</ele><time>2026-04-11T08:26:28.035Z</time></trkpt><trkpt lat="44.82009" lon="9.261635"><ele>972.7142857142858</ele><time>2026-04-11T08:26:29.043Z</time></trkpt><trkpt lat="44.820025" lon="9.2616083"><ele>969.5714285714287</ele><time>2026-04-11T08:26:30.037Z</time></trkpt><trkpt lat="44.8199533" lon="9.26158"><ele>966.4285714285714</ele><time>2026-04-11T08:26:31.037Z</time></trkpt><trkpt lat="44.819885" lon="9.26156"><ele>963.2857142857144</ele><time>2026-04-11T08:26:32.038Z</time></trkpt><trkpt lat="44.8198233" lon="9.2615417"><ele>960.1428571428572</ele><time>2026-04-11T08:26:33.033Z</time></trkpt><trkpt lat="44.81976" lon="9.2615267"><ele>957.0</ele><time>2026-04-11T08:26:34.035Z</time></trkpt><trkpt lat="44.8196517" lon="9.2614567"><ele>955.5</ele><time>2026-04-11T08:26:36.035Z</time></trkpt><trkpt lat="44.8195817" lon="9.2613167"><ele>954.0</ele><time>2026-04-11T08:26:38.041Z</time></trkpt><trkpt lat="44.819545" lon="9.2612283"><ele>952.5</ele><time>2026-04-11T08:26:39.042Z</time></trkpt><trkpt lat="44.8195083" lon="9.2611317"><ele>951.0</ele><time>2026-04-11T08:26:40.037Z</time></trkpt><trkpt lat="44.8194783" lon="9.2610233"><ele>949.5</ele><time>2026-04-11T08:26:41.041Z</time></trkpt><trkpt lat="44.8194433" lon="9.2609133"><ele>948.0</ele><time>2026-04-11T08:26:42.037Z</time></trkpt><trkpt lat="44.8193983" lon="9.260815"><ele>948.0</ele><time>2026-04-11T08:26:43.038Z</time></trkpt><trkpt lat="44.8193517" lon="9.2607267"><ele>948.0</ele><time>2026-04-11T08:26:44.039Z</time></trkpt><trkpt lat="44.8193067" lon="9.2606417"><ele>948.0</ele><time>2026-04-11T08:26:45.039Z</time></trkpt><trkpt lat="44.8192683" lon="9.2605583"><ele>948.0</ele><time>2026-04-11T08:26:46.036Z</time></trkpt><trkpt lat="44.81923" lon="9.2603967"><ele>948.0</ele><time>2026-04-11T08:26:48.038Z</time></trkpt><trkpt lat="44.81921" lon="9.2603117"><ele>948.0</ele><time>2026-04-11T08:26:49.036Z</time></trkpt><trkpt lat="44.8191367" lon="9.2601683"><ele>944.3333333333334</ele><time>2026-04-11T08:26:51.04Z</time></trkpt><trkpt lat="44.81908" lon="9.2600933"><ele>940.6666666666667</ele><time>2026-04-11T08:26:52.035Z</time></trkpt><trkpt lat="44.819015" lon="9.2599983"><ele>937.0</ele><time>2026-04-11T08:26:53.038Z</time></trkpt><trkpt lat="44.8189517" lon="9.259905"><ele>933.3333333333334</ele><time>2026-04-11T08:26:54.038Z</time></trkpt><trkpt lat="44.8188917" lon="9.2597983"><ele>929.6666666666667</ele><time>2026-04-11T08:26:55.035Z</time></trkpt><trkpt lat="44.8188333" lon="9.2597083"><ele>926.0</ele><time>2026-04-11T08:26:56.041Z</time></trkpt><trkpt lat="44.8187767" lon="9.259625"><ele>923.3333333333334</ele><time>2026-04-11T08:26:57.034Z</time></trkpt><trkpt lat="44.818715" lon="9.259555"><ele>920.6666666666667</ele><time>2026-04-11T08:26:58.039Z</time></trkpt><trkpt lat="44.8186533" lon="9.25949"><ele>918.0</ele><time>2026-04-11T08:26:59.037Z</time></trkpt><trkpt lat="44.81858" lon="9.25942"><ele>915.3333333333333</ele><time>2026-04-11T08:27:00.038Z</time></trkpt><trkpt lat="44.81851" lon="9.2593467"><ele>912.6666666666666</ele><time>2026-04-11T08:27:01.036Z</time></trkpt><trkpt lat="44.8184367" lon="9.2592717"><ele>910.0</ele><time>2026-04-11T08:27:02.037Z</time></trkpt><trkpt lat="44.8183583" lon="9.25919"><ele>908.2</ele><time>2026-04-11T08:27:03.033Z</time></trkpt><trkpt lat="44.81827" lon="9.25911"><ele>906.4</ele><time>2026-04-11T08:27:04.037Z</time></trkpt><trkpt lat="44.8181717" lon="9.2590317"><ele>904.5999999999999</ele><time>2026-04-11T08:27:05.037Z</time></trkpt><trkpt lat="44.8180783" lon="9.2589633"><ele>902.8</ele><time>2026-04-11T08:27:06.038Z</time></trkpt><trkpt lat="44.8179983" lon="9.258905"><ele>901.0</ele><time>2026-04-11T08:27:07.033Z</time></trkpt><trkpt lat="44.8179283" lon="9.2588583"><ele>898.8571428571429</ele><time>2026-04-11T08:27:08.038Z</time></trkpt><trkpt lat="44.8178567" lon="9.25883"><ele>896.7142857142858</ele><time>2026-04-11T08:27:09.038Z</time></trkpt><trkpt lat="44.817785" lon="9.2588"><ele>894.5714285714287</ele><time>2026-04-11T08:27:10.036Z</time></trkpt><trkpt lat="44.81772" lon="9.2587567"><ele>892.4285714285714</ele><time>2026-04-11T08:27:11.037Z</time></trkpt><trkpt lat="44.8176567" lon="9.2587"><ele>890.2857142857143</ele><time>2026-04-11T08:27:12.037Z</time></trkpt><trkpt lat="44.8175983" lon="9.2586417"><ele>888.1428571428571</ele><time>2026-04-11T08:27:13.036Z</time></trkpt><trkpt lat="44.8175383" lon="9.25859"><ele>886.0</ele><time>2026-04-11T08:27:14.038Z</time></trkpt><trkpt lat="44.817475" lon="9.2585567"><ele>883.9999999999999</ele><time>2026-04-11T08:27:15.038Z</time></trkpt><trkpt lat="44.8174083" lon="9.2585267"><ele>882.0</ele><time>2026-04-11T08:27:16.037Z</time></trkpt><trkpt lat="44.81734" lon="9.2584933"><ele>880.0</ele><time>2026-04-11T08:27:17.039Z</time></trkpt><trkpt lat="44.8172583" lon="9.258455"><ele>878.0</ele><time>2026-04-11T08:27:18.038Z</time></trkpt><trkpt lat="44.81717" lon="9.2584233"><ele>875.9999999999999</ele><time>2026-04-11T08:27:19.044Z</time></trkpt><trkpt lat="44.81709" lon="9.2583867"><ele>874.0</ele><time>2026-04-11T08:27:20.04Z</time></trkpt><trkpt lat="44.8170217" lon="9.2583483"><ele>874.0</ele><time>2026-04-11T08:27:21.04Z</time></trkpt><trkpt lat="44.8169217" lon="9.2582867"><ele>874.0000000000001</ele><time>2026-04-11T08:27:23.039Z</time></trkpt><trkpt lat="44.8168417" lon="9.2582817"><ele>874.0000000000001</ele><time>2026-04-11T08:27:25.04Z</time></trkpt><trkpt lat="44.8167833" lon="9.2583767"><ele>874.0</ele><time>2026-04-11T08:27:27.035Z</time></trkpt><trkpt lat="44.8167383" lon="9.2585167"><ele>874.0</ele><time>2026-04-11T08:27:29.041Z</time></trkpt><trkpt lat="44.8167083" lon="9.25865"><ele>874.3333333333333</ele><time>2026-04-11T08:27:31.038Z</time></trkpt><trkpt lat="44.8167367" lon="9.25879"><ele>874.6666666666666</ele><time>2026-04-11T08:27:33.04Z</time></trkpt><trkpt lat="44.81677" lon="9.258885"><ele>875.0</ele><time>2026-04-11T08:27:34.037Z</time></trkpt><trkpt lat="44.816805" lon="9.2589933"><ele>875.3333333333333</ele><time>2026-04-11T08:27:35.038Z</time></trkpt><trkpt lat="44.816835" lon="9.2591117"><ele>875.6666666666666</ele><time>2026-04-11T08:27:36.038Z</time></trkpt><trkpt lat="44.816865" lon="9.259235"><ele>876.0</ele><time>2026-04-11T08:27:37.038Z</time></trkpt><trkpt lat="44.81689" lon="9.2593517"><ele>876.0</ele><time>2026-04-11T08:27:38.037Z</time></trkpt><trkpt lat="44.8169067" lon="9.2594683"><ele>876.0</ele><time>2026-04-11T08:27:39.039Z</time></trkpt><trkpt lat="44.8169217" lon="9.259585"><ele>876.0</ele><time>2026-04-11T08:27:40.037Z</time></trkpt><trkpt lat="44.8169417" lon="9.2596983"><ele>876.0</ele><time>2026-04-11T08:27:41.039Z</time></trkpt><trkpt lat="44.8169717" lon="9.2598133"><ele>876.0</ele><time>2026-04-11T08:27:42.04Z</time></trkpt><trkpt lat="44.8170067" lon="9.2599317"><ele>876.0</ele><time>2026-04-11T08:27:43.033Z</time></trkpt><trkpt lat="44.8170383" lon="9.2600533"><ele>874.0</ele><time>2026-04-11T08:27:44.039Z</time></trkpt><trkpt lat="44.8170733" lon="9.2601917"><ele>871.9999999999999</ele><time>2026-04-11T08:27:45.038Z</time></trkpt><trkpt lat="44.817115" lon="9.26034"><ele>869.9999999999999</ele><time>2026-04-11T08:27:46.032Z</time></trkpt><trkpt lat="44.817135" lon="9.2604933"><ele>868.0</ele><time>2026-04-11T08:27:47.043Z</time></trkpt><trkpt lat="44.81714" lon="9.2606583"><ele>866.0</ele><time>2026-04-11T08:27:48.039Z</time></trkpt><trkpt lat="44.8171333" lon="9.2608333"><ele>862.0</ele><time>2026-04-11T08:27:49.038Z</time></trkpt><trkpt lat="44.8171283" lon="9.261005"><ele>858.0</ele><time>2026-04-11T08:27:50.04Z</time></trkpt><trkpt lat="44.817115" lon="9.2611783"><ele>854.0</ele><time>2026-04-11T08:27:51.038Z</time></trkpt><trkpt lat="44.8170867" lon="9.2613417"><ele>850.0</ele><time>2026-04-11T08:27:52.036Z</time></trkpt><trkpt lat="44.8170333" lon="9.2614983"><ele>848.5</ele><time>2026-04-11T08:27:53.039Z</time></trkpt><trkpt lat="44.8169533" lon="9.2616383"><ele>847.0</ele><time>2026-04-11T08:27:54.039Z</time></trkpt><trkpt lat="44.8168533" lon="9.261765"><ele>845.5</ele><time>2026-04-11T08:27:55.043Z</time></trkpt><trkpt lat="44.8167533" lon="9.2618883"><ele>844.0</ele><time>2026-04-11T08:27:56.039Z</time></trkpt><trkpt lat="44.816665" lon="9.2620033"><ele>839.6</ele><time>2026-04-11T08:27:57.04Z</time></trkpt><trkpt lat="44.8165983" lon="9.2621283"><ele>835.2</ele><time>2026-04-11T08:27:58.042Z</time></trkpt><trkpt lat="44.8165417" lon="9.2622517"><ele>830.8000000000001</ele><time>2026-04-11T08:27:59.039Z</time></trkpt><trkpt lat="44.816495" lon="9.2623567"><ele>826.4000000000001</ele><time>2026-04-11T08:28:00.037Z</time></trkpt><trkpt lat="44.816455" lon="9.2624417"><ele>822.0</ele><time>2026-04-11T08:28:01.037Z</time></trkpt><trkpt lat="44.8164133" lon="9.2625767"><ele>822.0</ele><time>2026-04-11T08:28:03.041Z</time></trkpt><trkpt lat="44.8164217" lon="9.26273"><ele>822.0</ele><time>2026-04-11T08:28:05.036Z</time></trkpt><trkpt lat="44.816435" lon="9.262845"><ele>822.0</ele><time>2026-04-11T08:28:06.038Z</time></trkpt><trkpt lat="44.8164567" lon="9.26299"><ele>822.0</ele><time>2026-04-11T08:28:07.036Z</time></trkpt><trkpt lat="44.8164867" lon="9.2631533"><ele>822.0</ele><time>2026-04-11T08:28:08.036Z</time></trkpt><trkpt lat="44.816505" lon="9.263315"><ele>822.0</ele><time>2026-04-11T08:28:09.04Z</time></trkpt><trkpt lat="44.8165233" lon="9.2634733"><ele>822.0</ele><time>2026-04-11T08:28:10.034Z</time></trkpt><trkpt lat="44.81654" lon="9.26361"><ele>822.0</ele><time>2026-04-11T08:28:11.041Z</time></trkpt><trkpt lat="44.8165667" lon="9.2637233"><ele>822.0</ele><time>2026-04-11T08:28:12.039Z</time></trkpt><trkpt lat="44.8166" lon="9.2638167"><ele>822.0</ele><time>2026-04-11T08:28:13.035Z</time></trkpt><trkpt lat="44.8166333" lon="9.2639"><ele>822.0</ele><time>2026-04-11T08:28:14.038Z</time></trkpt><trkpt lat="44.8166683" lon="9.2639817"><ele>822.0</ele><time>2026-04-11T08:28:15.038Z</time></trkpt><trkpt lat="44.8166833" lon="9.2641267"><ele>822.0</ele><time>2026-04-11T08:28:17.036Z</time></trkpt><trkpt lat="44.8166383" lon="9.2642083"><ele>822.0</ele><time>2026-04-11T08:28:18.038Z</time></trkpt><trkpt lat="44.8165967" lon="9.2643083"><ele>822.0</ele><time>2026-04-11T08:28:19.039Z</time></trkpt><trkpt lat="44.81657" lon="9.2644133"><ele>822.0</ele><time>2026-04-11T08:28:20.04Z</time></trkpt><trkpt lat="44.8165433" lon="9.2645267"><ele>822.0</ele><time>2026-04-11T08:28:21.041Z</time></trkpt><trkpt lat="44.8165067" lon="9.264645"><ele>821.1666666666666</ele><time>2026-04-11T08:28:22.04Z</time></trkpt><trkpt lat="44.8164633" lon="9.26478"><ele>820.3333333333333</ele><time>2026-04-11T08:28:23.039Z</time></trkpt><trkpt lat="44.81642" lon="9.2649083"><ele>819.5</ele><time>2026-04-11T08:28:24.04Z</time></trkpt><trkpt lat="44.8163767" lon="9.2650183"><ele>818.6666666666666</ele><time>2026-04-11T08:28:25.04Z</time></trkpt><trkpt lat="44.81634" lon="9.2651183"><ele>817.8333333333333</ele><time>2026-04-11T08:28:26.039Z</time></trkpt><trkpt lat="44.816315" lon="9.2652083"><ele>817.0</ele><time>2026-04-11T08:28:27.042Z</time></trkpt><trkpt lat="44.8163133" lon="9.2653033"><ele>816.9999999999999</ele><time>2026-04-11T08:28:28.041Z</time></trkpt><trkpt lat="44.8163317" lon="9.2653883"><ele>817.0</ele><time>2026-04-11T08:28:29.04Z</time></trkpt><trkpt lat="44.8163367" lon="9.2654967"><ele>817.0</ele><time>2026-04-11T08:28:31.041Z</time></trkpt><trkpt lat="44.8162817" lon="9.2656017"><ele>817.0</ele><time>2026-04-11T08:28:33.04Z</time></trkpt><trkpt lat="44.8162417" lon="9.2657017"><ele>816.9999999999999</ele><time>2026-04-11T08:28:34.036Z</time></trkpt><trkpt lat="44.8162033" lon="9.2658167"><ele>817.0</ele><time>2026-04-11T08:28:35.03Z</time></trkpt><trkpt lat="44.8161617" lon="9.2659567"><ele>816.8333333333333</ele><time>2026-04-11T08:28:36.038Z</time></trkpt><trkpt lat="44.8161417" lon="9.2660983"><ele>816.6666666666666</ele><time>2026-04-11T08:28:37.038Z</time></trkpt><trkpt lat="44.8161233" lon="9.2662317"><ele>816.5</ele><time>2026-04-11T08:28:38.038Z</time></trkpt><trkpt lat="44.8161183" lon="9.2663467"><ele>816.3333333333333</ele><time>2026-04-11T08:28:39.039Z</time></trkpt><trkpt lat="44.8161017" lon="9.2664467"><ele>816.1666666666666</ele><time>2026-04-11T08:28:40.038Z</time></trkpt><trkpt lat="44.816085" lon="9.2665617"><ele>816.0</ele><time>2026-04-11T08:28:41.038Z</time></trkpt><trkpt lat="44.8160767" lon="9.2666867"><ele>817.1999999999999</ele><time>2026-04-11T08:28:42.038Z</time></trkpt><trkpt lat="44.8160633" lon="9.2668233"><ele>818.4</ele><time>2026-04-11T08:28:43.041Z</time></trkpt><trkpt lat="44.8160483" lon="9.26701"><ele>819.6</ele><time>2026-04-11T08:28:44.034Z</time></trkpt><trkpt lat="44.816025" lon="9.2671683"><ele>820.8</ele><time>2026-04-11T08:28:45.038Z</time></trkpt><trkpt lat="44.81601" lon="9.2672867"><ele>822.0</ele><time>2026-04-11T08:28:46.04Z</time></trkpt><trkpt lat="44.8159933" lon="9.267405"><ele>822.25</ele><time>2026-04-11T08:28:47.039Z</time></trkpt><trkpt lat="44.8159833" lon="9.2675433"><ele>822.5</ele><time>2026-04-11T08:28:48.035Z</time></trkpt><trkpt lat="44.816005" lon="9.26772"><ele>822.75</ele><time>2026-04-11T08:28:49.038Z</time></trkpt><trkpt lat="44.8160283" lon="9.2678867"><ele>823.0</ele><time>2026-04-11T08:28:50.034Z</time></trkpt><trkpt lat="44.816045" lon="9.2680483"><ele>822.8</ele><time>2026-04-11T08:28:51.04Z</time></trkpt><trkpt lat="44.8160633" lon="9.268175"><ele>822.5999999999999</ele><time>2026-04-11T08:28:52.038Z</time></trkpt><trkpt lat="44.8160633" lon="9.2683"><ele>822.4000000000001</ele><time>2026-04-11T08:28:53.039Z</time></trkpt><trkpt lat="44.816045" lon="9.2684217"><ele>822.2</ele><time>2026-04-11T08:28:54.038Z</time></trkpt><trkpt lat="44.81601" lon="9.2685667"><ele>822.0</ele><time>2026-04-11T08:28:55.04Z</time></trkpt><trkpt lat="44.8159767" lon="9.268705"><ele>814.8</ele><time>2026-04-11T08:28:56.039Z</time></trkpt><trkpt lat="44.8159517" lon="9.26886"><ele>807.6</ele><time>2026-04-11T08:28:57.041Z</time></trkpt><trkpt lat="44.8159333" lon="9.2690183"><ele>800.4</ele><time>2026-04-11T08:28:58.038Z</time></trkpt><trkpt lat="44.8159183" lon="9.26914"><ele>793.1999999999999</ele><time>2026-04-11T08:28:59.039Z</time></trkpt><trkpt lat="44.8158883" lon="9.2693017"><ele>786.0</ele><time>2026-04-11T08:29:00.038Z</time></trkpt><trkpt lat="44.8158583" lon="9.269445"><ele>786.0</ele><time>2026-04-11T08:29:01.042Z</time></trkpt><trkpt lat="44.815805" lon="9.2695967"><ele>786.0</ele><time>2026-04-11T08:29:02.039Z</time></trkpt><trkpt lat="44.8157517" lon="9.2697483"><ele>786.0</ele><time>2026-04-11T08:29:03.04Z</time></trkpt><trkpt lat="44.8157217" lon="9.2698567"><ele>786.0</ele><time>2026-04-11T08:29:04.04Z</time></trkpt><trkpt lat="44.8156983" lon="9.2699917"><ele>786.0</ele><time>2026-04-11T08:29:05.038Z</time></trkpt><trkpt lat="44.81568" lon="9.270105"><ele>786.1999999999999</ele><time>2026-04-11T08:29:06.038Z</time></trkpt><trkpt lat="44.8156317" lon="9.2702383"><ele>786.4</ele><time>2026-04-11T08:29:08.04Z</time></trkpt><trkpt lat="44.81556" lon="9.2703017"><ele>786.6</ele><time>2026-04-11T08:29:10.039Z</time></trkpt><trkpt lat="44.815475" lon="9.27033"><ele>786.8</ele><time>2026-04-11T08:29:12.037Z</time></trkpt><trkpt lat="44.81537" lon="9.2703267"><ele>787.0</ele><time>2026-04-11T08:29:14.038Z</time></trkpt><trkpt lat="44.8152517" lon="9.2702933"><ele>783.4000000000001</ele><time>2026-04-11T08:29:16.04Z</time></trkpt><trkpt lat="44.8151333" lon="9.2702733"><ele>779.8000000000001</ele><time>2026-04-11T08:29:18.037Z</time></trkpt><trkpt lat="44.815025" lon="9.2702367"><ele>776.2</ele><time>2026-04-11T08:29:20.042Z</time></trkpt><trkpt lat="44.814945" lon="9.2701667"><ele>772.6</ele><time>2026-04-11T08:29:22.042Z</time></trkpt><trkpt lat="44.8148883" lon="9.2700383"><ele>769.0</ele><time>2026-04-11T08:29:24.04Z</time></trkpt><trkpt lat="44.814835" lon="9.26997"><ele>768.9999999999999</ele><time>2026-04-11T08:29:25.034Z</time></trkpt><trkpt lat="44.8147633" lon="9.2699033"><ele>769.0</ele><time>2026-04-11T08:29:26.041Z</time></trkpt><trkpt lat="44.8146917" lon="9.2698617"><ele>769.0</ele><time>2026-04-11T08:29:27.037Z</time></trkpt><trkpt lat="44.8146133" lon="9.269845"><ele>769.0</ele><time>2026-04-11T08:29:28.04Z</time></trkpt><trkpt lat="44.8145483" lon="9.2698267"><ele>768.9999999999999</ele><time>2026-04-11T08:29:29.041Z</time></trkpt><trkpt lat="44.8144567" lon="9.2697683"><ele>769.0</ele><time>2026-04-11T08:29:31.038Z</time></trkpt><trkpt lat="44.8143967" lon="9.2696533"><ele>768.8000000000001</ele><time>2026-04-11T08:29:33.04Z</time></trkpt><trkpt lat="44.814355" lon="9.2695133"><ele>768.6</ele><time>2026-04-11T08:29:35.038Z</time></trkpt><trkpt lat="44.814335" lon="9.2694133"><ele>768.4</ele><time>2026-04-11T08:29:36.038Z</time></trkpt><trkpt lat="44.8143217" lon="9.269275"><ele>768.2</ele><time>2026-04-11T08:29:37.043Z</time></trkpt><trkpt lat="44.814315" lon="9.2691367"><ele>768.0</ele><time>2026-04-11T08:29:38.039Z</time></trkpt><trkpt lat="44.8143283" lon="9.26902"><ele>767.0</ele><time>2026-04-11T08:29:39.039Z</time></trkpt><trkpt lat="44.8143283" lon="9.2689083"><ele>766.0</ele><time>2026-04-11T08:29:40.041Z</time></trkpt><trkpt lat="44.81431" lon="9.2688117"><ele>765.0</ele><time>2026-04-11T08:29:41.043Z</time></trkpt><trkpt lat="44.814225" lon="9.2686617"><ele>764.0</ele><time>2026-04-11T08:29:43.034Z</time></trkpt><trkpt lat="44.8141567" lon="9.2685833"><ele>763.0</ele><time>2026-04-11T08:29:44.04Z</time></trkpt><trkpt lat="44.8140833" lon="9.268515"><ele>759.8333333333334</ele><time>2026-04-11T08:29:45.041Z</time></trkpt><trkpt lat="44.8140117" lon="9.2684567"><ele>756.6666666666667</ele><time>2026-04-11T08:29:46.041Z</time></trkpt><trkpt lat="44.8139417" lon="9.268405"><ele>753.5</ele><time>2026-04-11T08:29:47.038Z</time></trkpt><trkpt lat="44.8138733" lon="9.268365"><ele>750.3333333333334</ele><time>2026-04-11T08:29:48.043Z</time></trkpt><trkpt lat="44.8137983" lon="9.26834"><ele>747.1666666666666</ele><time>2026-04-11T08:29:49.038Z</time></trkpt><trkpt lat="44.8136883" lon="9.2683317"><ele>744.0</ele><time>2026-04-11T08:29:50.041Z</time></trkpt><trkpt lat="44.8135417" lon="9.2683267"><ele>741.25</ele><time>2026-04-11T08:29:51.039Z</time></trkpt><trkpt lat="44.8134017" lon="9.2683"><ele>738.5</ele><time>2026-04-11T08:29:52.037Z</time></trkpt><trkpt lat="44.8132567" lon="9.26826"><ele>735.75</ele><time>2026-04-11T08:29:53.039Z</time></trkpt><trkpt lat="44.8131117" lon="9.2682133"><ele>733.0</ele><time>2026-04-11T08:29:54.034Z</time></trkpt><trkpt lat="44.812985" lon="9.2681333"><ele>732.75</ele><time>2026-04-11T08:29:55.034Z</time></trkpt><trkpt lat="44.812865" lon="9.268035"><ele>732.5</ele><time>2026-04-11T08:29:56.042Z</time></trkpt><trkpt lat="44.8127467" lon="9.2679417"><ele>732.25</ele><time>2026-04-11T08:29:57.045Z</time></trkpt><trkpt lat="44.81263" lon="9.267865"><ele>732.0</ele><time>2026-04-11T08:29:58.038Z</time></trkpt><trkpt lat="44.8125033" lon="9.2678017"><ele>728.75</ele><time>2026-04-11T08:29:59.041Z</time></trkpt><trkpt lat="44.8123733" lon="9.2677433"><ele>725.5</ele><time>2026-04-11T08:30:00.04Z</time></trkpt><trkpt lat="44.812245" lon="9.267685"><ele>722.25</ele><time>2026-04-11T08:30:01.042Z</time></trkpt><trkpt lat="44.8121183" lon="9.2676217"><ele>719.0</ele><time>2026-04-11T08:30:02.038Z</time></trkpt><trkpt lat="44.8119967" lon="9.2675633"><ele>719.0</ele><time>2026-04-11T08:30:03.045Z</time></trkpt><trkpt lat="44.8118733" lon="9.26752"><ele>719.0</ele><time>2026-04-11T08:30:04.042Z</time></trkpt><trkpt lat="44.8117483" lon="9.2675017"><ele>719.0</ele><time>2026-04-11T08:30:05.041Z</time></trkpt><trkpt lat="44.811625" lon="9.26752"><ele>719.0</ele><time>2026-04-11T08:30:06.041Z</time></trkpt><trkpt lat="44.8114917" lon="9.2675817"><ele>717.3333333333333</ele><time>2026-04-11T08:30:07.042Z</time></trkpt><trkpt lat="44.8113367" lon="9.26768"><ele>715.6666666666666</ele><time>2026-04-11T08:30:08.039Z</time></trkpt><trkpt lat="44.8111783" lon="9.267775"><ele>714.0</ele><time>2026-04-11T08:30:09.041Z</time></trkpt><trkpt lat="44.8110167" lon="9.2678567"><ele>709.3333333333334</ele><time>2026-04-11T08:30:10.04Z</time></trkpt><trkpt lat="44.81085" lon="9.2679267"><ele>704.6666666666667</ele><time>2026-04-11T08:30:11.042Z</time></trkpt><trkpt lat="44.8106883" lon="9.2679817"><ele>700.0</ele><time>2026-04-11T08:30:12.039Z</time></trkpt><trkpt lat="44.810545" lon="9.26803"><ele>700.0</ele><time>2026-04-11T08:30:13.038Z</time></trkpt><trkpt lat="44.81042" lon="9.2680767"><ele>700.0</ele><time>2026-04-11T08:30:14.043Z</time></trkpt><trkpt lat="44.8103167" lon="9.2681217"><ele>700.0</ele><time>2026-04-11T08:30:15.041Z</time></trkpt><trkpt lat="44.8102217" lon="9.26817"><ele>700.0</ele><time>2026-04-11T08:30:16.033Z</time></trkpt><trkpt lat="44.8101333" lon="9.2682117"><ele>700.0</ele><time>2026-04-11T08:30:17.037Z</time></trkpt><trkpt lat="44.8100533" lon="9.268245"><ele>699.8</ele><time>2026-04-11T08:30:18.036Z</time></trkpt><trkpt lat="44.8099817" lon="9.26829"><ele>699.6</ele><time>2026-04-11T08:30:19.039Z</time></trkpt><trkpt lat="44.8099133" lon="9.268355"><ele>699.4000000000001</ele><time>2026-04-11T08:30:20.04Z</time></trkpt><trkpt lat="44.80984" lon="9.2684383"><ele>699.2</ele><time>2026-04-11T08:30:21.041Z</time></trkpt><trkpt lat="44.8097533" lon="9.2685417"><ele>699.0</ele><time>2026-04-11T08:30:22.037Z</time></trkpt><trkpt lat="44.80967" lon="9.2686683"><ele>699.0</ele><time>2026-04-11T08:30:23.038Z</time></trkpt><trkpt lat="44.80959" lon="9.2688033"><ele>699.0</ele><time>2026-04-11T08:30:24.039Z</time></trkpt><trkpt lat="44.8095017" lon="9.2689333"><ele>699.0</ele><time>2026-04-11T08:30:25.04Z</time></trkpt><trkpt lat="44.8094133" lon="9.26906"><ele>699.0</ele><time>2026-04-11T08:30:26.037Z</time></trkpt><trkpt lat="44.8093233" lon="9.2692017"><ele>699.0</ele><time>2026-04-11T08:30:27.032Z</time></trkpt><trkpt lat="44.809235" lon="9.269345"><ele>699.0</ele><time>2026-04-11T08:30:28.037Z</time></trkpt><trkpt lat="44.80915" lon="9.2694867"><ele>699.0</ele><time>2026-04-11T08:30:29.04Z</time></trkpt><trkpt lat="44.8090633" lon="9.2696183"><ele>699.0</ele><time>2026-04-11T08:30:30.038Z</time></trkpt><trkpt lat="44.8089717" lon="9.2697483"><ele>701.25</ele><time>2026-04-11T08:30:31.039Z</time></trkpt><trkpt lat="44.8088633" lon="9.2698733"><ele>703.5</ele><time>2026-04-11T08:30:32.043Z</time></trkpt><trkpt lat="44.8087467" lon="9.2699883"><ele>705.75</ele><time>2026-04-11T08:30:33.042Z</time></trkpt><trkpt lat="44.8086317" lon="9.2701"><ele>708.0</ele><time>2026-04-11T08:30:34.036Z</time></trkpt><trkpt lat="44.8085167" lon="9.2701967"><ele>706.25</ele><time>2026-04-11T08:30:35.04Z</time></trkpt><trkpt lat="44.8084033" lon="9.2702917"><ele>704.5</ele><time>2026-04-11T08:30:36.038Z</time></trkpt><trkpt lat="44.8082967" lon="9.27038"><ele>702.75</ele><time>2026-04-11T08:30:37.039Z</time></trkpt><trkpt lat="44.8082133" lon="9.27048"><ele>701.0</ele><time>2026-04-11T08:30:38.039Z</time></trkpt><trkpt lat="44.808145" lon="9.2706133"><ele>701.0</ele><time>2026-04-11T08:30:39.042Z</time></trkpt><trkpt lat="44.8080833" lon="9.270795"><ele>701.0</ele><time>2026-04-11T08:30:40.041Z</time></trkpt><trkpt lat="44.80803" lon="9.2710017"><ele>701.0</ele><time>2026-04-11T08:30:41.038Z</time></trkpt><trkpt lat="44.8079817" lon="9.2712017"><ele>701.0</ele><time>2026-04-11T08:30:42.032Z</time></trkpt><trkpt lat="44.8079433" lon="9.271395"><ele>701.25</ele><time>2026-04-11T08:30:43.031Z</time></trkpt><trkpt lat="44.807915" lon="9.2715867"><ele>701.5</ele><time>2026-04-11T08:30:44.038Z</time></trkpt><trkpt lat="44.807915" lon="9.2717733"><ele>701.75</ele><time>2026-04-11T08:30:45.039Z</time></trkpt><trkpt lat="44.8079083" lon="9.2719683"><ele>702.0</ele><time>2026-04-11T08:30:46.04Z</time></trkpt><trkpt lat="44.8078883" lon="9.2721483"><ele>701.25</ele><time>2026-04-11T08:30:47.042Z</time></trkpt><trkpt lat="44.8078767" lon="9.27232"><ele>700.5</ele><time>2026-04-11T08:30:48.034Z</time></trkpt><trkpt lat="44.80789" lon="9.2724917"><ele>699.75</ele><time>2026-04-11T08:30:49.038Z</time></trkpt><trkpt lat="44.8079017" lon="9.2726633"><ele>699.0</ele><time>2026-04-11T08:30:50.035Z</time></trkpt><trkpt lat="44.8078883" lon="9.27283"><ele>699.0</ele><time>2026-04-11T08:30:51.04Z</time></trkpt><trkpt lat="44.80784" lon="9.2729883"><ele>699.0</ele><time>2026-04-11T08:30:52.04Z</time></trkpt><trkpt lat="44.807775" lon="9.273135"><ele>699.0</ele><time>2026-04-11T08:30:53.042Z</time></trkpt><trkpt lat="44.8076933" lon="9.2732617"><ele>699.0</ele><time>2026-04-11T08:30:54.037Z</time></trkpt><trkpt lat="44.807605" lon="9.273355"><ele>695.25</ele><time>2026-04-11T08:30:55.042Z</time></trkpt><trkpt lat="44.807515" lon="9.27341"><ele>691.5</ele><time>2026-04-11T08:30:56.038Z</time></trkpt><trkpt lat="44.8074217" lon="9.2734217"><ele>687.75</ele><time>2026-04-11T08:30:57.041Z</time></trkpt><trkpt lat="44.8072967" lon="9.2733783"><ele>684.0</ele><time>2026-04-11T08:30:58.038Z</time></trkpt><trkpt lat="44.8071683" lon="9.273335"><ele>684.0</ele><time>2026-04-11T08:30:59.04Z</time></trkpt><trkpt lat="44.8070433" lon="9.2733183"><ele>684.0</ele><time>2026-04-11T08:31:00.041Z</time></trkpt><trkpt lat="44.8069167" lon="9.2733317"><ele>684.0</ele><time>2026-04-11T08:31:01.042Z</time></trkpt><trkpt lat="44.8067917" lon="9.27337"><ele>684.0</ele><time>2026-04-11T08:31:02.042Z</time></trkpt><trkpt lat="44.8066867" lon="9.2734367"><ele>683.4000000000001</ele><time>2026-04-11T08:31:03.041Z</time></trkpt><trkpt lat="44.8066083" lon="9.2735433"><ele>682.8</ele><time>2026-04-11T08:31:04.038Z</time></trkpt><trkpt lat="44.8065633" lon="9.2736783"><ele>682.2</ele><time>2026-04-11T08:31:05.043Z</time></trkpt><trkpt lat="44.806555" lon="9.2738383"><ele>681.5999999999999</ele><time>2026-04-11T08:31:06.034Z</time></trkpt><trkpt lat="44.8065783" lon="9.274005"><ele>681.0</ele><time>2026-04-11T08:31:07.039Z</time></trkpt><trkpt lat="44.8066267" lon="9.27418"><ele>683.5</ele><time>2026-04-11T08:31:08.041Z</time></trkpt><trkpt lat="44.806665" lon="9.2743733"><ele>686.0</ele><time>2026-04-11T08:31:09.042Z</time></trkpt><trkpt lat="44.806675" lon="9.27457"><ele>688.5</ele><time>2026-04-11T08:31:10.038Z</time></trkpt><trkpt lat="44.8066483" lon="9.2747733"><ele>691.0</ele><time>2026-04-11T08:31:11.04Z</time></trkpt><trkpt lat="44.806605" lon="9.2749733"><ele>691.75</ele><time>2026-04-11T08:31:12.039Z</time></trkpt><trkpt lat="44.8065583" lon="9.2751733"><ele>692.5</ele><time>2026-04-11T08:31:13.037Z</time></trkpt><trkpt lat="44.8065317" lon="9.275365"><ele>693.25</ele><time>2026-04-11T08:31:14.04Z</time></trkpt><trkpt lat="44.8065333" lon="9.27555"><ele>694.0</ele><time>2026-04-11T08:31:15.04Z</time></trkpt><trkpt lat="44.8065367" lon="9.2757417"><ele>696.25</ele><time>2026-04-11T08:31:16.039Z</time></trkpt><trkpt lat="44.80653" lon="9.2759417"><ele>698.5</ele><time>2026-04-11T08:31:17.038Z</time></trkpt><trkpt lat="44.8064917" lon="9.2761383"><ele>700.75</ele><time>2026-04-11T08:31:18.041Z</time></trkpt><trkpt lat="44.8064283" lon="9.2763133"><ele>703.0</ele><time>2026-04-11T08:31:19.035Z</time></trkpt><trkpt lat="44.806355" lon="9.2764617"><ele>705.2</ele><time>2026-04-11T08:31:20.039Z</time></trkpt><trkpt lat="44.8062817" lon="9.2765933"><ele>707.4</ele><time>2026-04-11T08:31:21.042Z</time></trkpt><trkpt lat="44.8062317" lon="9.276725"><ele>709.6</ele><time>2026-04-11T08:31:22.04Z</time></trkpt><trkpt lat="44.8062117" lon="9.27687"><ele>711.8000000000001</ele><time>2026-04-11T08:31:23.036Z</time></trkpt><trkpt lat="44.8062167" lon="9.2770317"><ele>714.0</ele><time>2026-04-11T08:31:24.04Z</time></trkpt><trkpt lat="44.806225" lon="9.2771983"><ele>716.0</ele><time>2026-04-11T08:31:25.04Z</time></trkpt><trkpt lat="44.80623" lon="9.2773483"><ele>718.0</ele><time>2026-04-11T08:31:26.039Z</time></trkpt><trkpt lat="44.8062167" lon="9.277475"><ele>720.0</ele><time>2026-04-11T08:31:27.038Z</time></trkpt><trkpt lat="44.8061883" lon="9.2775833"><ele>722.0</ele><time>2026-04-11T08:31:28.039Z</time></trkpt><trkpt lat="44.8061467" lon="9.2776633"><ele>724.0</ele><time>2026-04-11T08:31:29.041Z</time></trkpt><trkpt lat="44.8060433" lon="9.2776817"><ele>720.5</ele><time>2026-04-11T08:31:30.042Z</time></trkpt><trkpt lat="44.8059183" lon="9.2776717"><ele>717.0</ele><time>2026-04-11T08:31:31.042Z</time></trkpt><trkpt lat="44.8057767" lon="9.2776617"><ele>713.5</ele><time>2026-04-11T08:31:32.04Z</time></trkpt><trkpt lat="44.805625" lon="9.2776583"><ele>710.0</ele><time>2026-04-11T08:31:33.043Z</time></trkpt><trkpt lat="44.805465" lon="9.277665"><ele>710.0</ele><time>2026-04-11T08:31:34.037Z</time></trkpt><trkpt lat="44.8053067" lon="9.2776717"><ele>710.0</ele><time>2026-04-11T08:31:35.039Z</time></trkpt><trkpt lat="44.8051583" lon="9.2776717"><ele>710.0</ele><time>2026-04-11T08:31:36.042Z</time></trkpt><trkpt lat="44.80502" lon="9.2776867"><ele>710.0</ele><time>2026-04-11T08:31:37.043Z</time></trkpt><trkpt lat="44.80489" lon="9.27772"><ele>709.25</ele><time>2026-04-11T08:31:38.039Z</time></trkpt><trkpt lat="44.8047667" lon="9.2777883"><ele>708.5</ele><time>2026-04-11T08:31:39.039Z</time></trkpt><trkpt lat="44.8046533" lon="9.277885"><ele>707.75</ele><time>2026-04-11T08:31:40.038Z</time></trkpt><trkpt lat="44.8045583" lon="9.278"><ele>707.0</ele><time>2026-04-11T08:31:41.039Z</time></trkpt><trkpt lat="44.80448" lon="9.2781333"><ele>709.25</ele><time>2026-04-11T08:31:42.041Z</time></trkpt><trkpt lat="44.8044233" lon="9.2782933"><ele>711.5</ele><time>2026-04-11T08:31:43.041Z</time></trkpt><trkpt lat="44.8043617" lon="9.278465"><ele>713.75</ele><time>2026-04-11T08:31:44.037Z</time></trkpt><trkpt lat="44.8042933" lon="9.2786217"><ele>716.0</ele><time>2026-04-11T08:31:45.04Z</time></trkpt><trkpt lat="44.804215" lon="9.2787383"><ele>716.0</ele><time>2026-04-11T08:31:46.041Z</time></trkpt><trkpt lat="44.8041283" lon="9.2787983"><ele>716.0</ele><time>2026-04-11T08:31:47.041Z</time></trkpt><trkpt lat="44.8040467" lon="9.2788317"><ele>716.0</ele><time>2026-04-11T08:31:48.035Z</time></trkpt><trkpt lat="44.8039667" lon="9.27887"><ele>716.0</ele><time>2026-04-11T08:31:49.041Z</time></trkpt><trkpt lat="44.80391" lon="9.278945"><ele>716.0</ele><time>2026-04-11T08:31:50.04Z</time></trkpt><trkpt lat="44.80388" lon="9.279105"><ele>720.0</ele><time>2026-04-11T08:31:51.041Z</time></trkpt><trkpt lat="44.8038417" lon="9.2792717"><ele>724.0</ele><time>2026-04-11T08:31:52.042Z</time></trkpt><trkpt lat="44.80379" lon="9.279445"><ele>728.0</ele><time>2026-04-11T08:31:53.037Z</time></trkpt><trkpt lat="44.80371" lon="9.27959"><ele>732.0</ele><time>2026-04-11T08:31:54.04Z</time></trkpt><trkpt lat="44.8036083" lon="9.2796917"><ele>730.25</ele><time>2026-04-11T08:31:55.038Z</time></trkpt><trkpt lat="44.803485" lon="9.279745"><ele>728.5</ele><time>2026-04-11T08:31:56.039Z</time></trkpt><trkpt lat="44.8033583" lon="9.2797667"><ele>726.75</ele><time>2026-04-11T08:31:57.032Z</time></trkpt><trkpt lat="44.803225" lon="9.279765"><ele>725.0</ele><time>2026-04-11T08:31:58.037Z</time></trkpt><trkpt lat="44.8030967" lon="9.27974"><ele>725.0</ele><time>2026-04-11T08:31:59.038Z</time></trkpt><trkpt lat="44.8029833" lon="9.2796967"><ele>725.0</ele><time>2026-04-11T08:32:00.041Z</time></trkpt><trkpt lat="44.802885" lon="9.279645"><ele>725.0</ele><time>2026-04-11T08:32:01.039Z</time></trkpt><trkpt lat="44.8028017" lon="9.2796333"><ele>725.0</ele><time>2026-04-11T08:32:02.04Z</time></trkpt><trkpt lat="44.8027233" lon="9.2796633"><ele>725.0</ele><time>2026-04-11T08:32:03.04Z</time></trkpt><trkpt lat="44.8026633" lon="9.279765"><ele>727.25</ele><time>2026-04-11T08:32:04.033Z</time></trkpt><trkpt lat="44.8026267" lon="9.2799017"><ele>729.5</ele><time>2026-04-11T08:32:05.042Z</time></trkpt><trkpt lat="44.802605" lon="9.2800583"><ele>731.75</ele><time>2026-04-11T08:32:06.036Z</time></trkpt><trkpt lat="44.8025917" lon="9.28023"><ele>734.0</ele><time>2026-04-11T08:32:07.041Z</time></trkpt><trkpt lat="44.802575" lon="9.2803967"><ele>734.0</ele><time>2026-04-11T08:32:08.042Z</time></trkpt><trkpt lat="44.8025517" lon="9.2805533"><ele>734.0</ele><time>2026-04-11T08:32:09.042Z</time></trkpt><trkpt lat="44.8025183" lon="9.2807017"><ele>734.0</ele><time>2026-04-11T08:32:10.041Z</time></trkpt><trkpt lat="44.802475" lon="9.2808367"><ele>734.0</ele><time>2026-04-11T08:32:11.036Z</time></trkpt><trkpt lat="44.802415" lon="9.2809583"><ele>734.0</ele><time>2026-04-11T08:32:12.041Z</time></trkpt><trkpt lat="44.8023317" lon="9.2810567"><ele>736.0</ele><time>2026-04-11T08:32:13.031Z</time></trkpt><trkpt lat="44.80223" lon="9.281135"><ele>738.0</ele><time>2026-04-11T08:32:14.041Z</time></trkpt><trkpt lat="44.8021167" lon="9.281205"><ele>740.0</ele><time>2026-04-11T08:32:15.043Z</time></trkpt><trkpt lat="44.8020067" lon="9.2812717"><ele>742.0</ele><time>2026-04-11T08:32:16.039Z</time></trkpt><trkpt lat="44.8018983" lon="9.281325"><ele>740.5</ele><time>2026-04-11T08:32:17.039Z</time></trkpt><trkpt lat="44.8017833" lon="9.281355"><ele>739.0</ele><time>2026-04-11T08:32:18.038Z</time></trkpt><trkpt lat="44.8016567" lon="9.2813583"><ele>737.5</ele><time>2026-04-11T08:32:19.042Z</time></trkpt><trkpt lat="44.8015333" lon="9.281355"><ele>736.0</ele><time>2026-04-11T08:32:20.034Z</time></trkpt><trkpt lat="44.8014083" lon="9.2813467"><ele>736.0</ele><time>2026-04-11T08:32:21.037Z</time></trkpt><trkpt lat="44.8012783" lon="9.2813283"><ele>736.0</ele><time>2026-04-11T08:32:22.038Z</time></trkpt><trkpt lat="44.8011483" lon="9.2813017"><ele>736.0</ele><time>2026-04-11T08:32:23.039Z</time></trkpt><trkpt lat="44.8010267" lon="9.2812883"><ele>736.0</ele><time>2026-04-11T08:32:24.037Z</time></trkpt><trkpt lat="44.80091" lon="9.2812833"><ele>735.5</ele><time>2026-04-11T08:32:25.038Z</time></trkpt><trkpt lat="44.8007933" lon="9.2812967"><ele>735.0</ele><time>2026-04-11T08:32:26.038Z</time></trkpt><trkpt lat="44.80068" lon="9.281325"><ele>734.5</ele><time>2026-04-11T08:32:27.042Z</time></trkpt><trkpt lat="44.80056" lon="9.28137"><ele>734.0</ele><time>2026-04-11T08:32:28.041Z</time></trkpt><trkpt lat="44.8004417" lon="9.28143"><ele>736.25</ele><time>2026-04-11T08:32:29.04Z</time></trkpt><trkpt lat="44.8003267" lon="9.2815017"><ele>738.5</ele><time>2026-04-11T08:32:30.04Z</time></trkpt><trkpt lat="44.8002133" lon="9.281585"><ele>740.75</ele><time>2026-04-11T08:32:31.042Z</time></trkpt><trkpt lat="44.800105" lon="9.2816783"><ele>743.0</ele><time>2026-04-11T08:32:32.041Z</time></trkpt><trkpt lat="44.7999983" lon="9.2817733"><ele>743.0</ele><time>2026-04-11T08:32:33.039Z</time></trkpt><trkpt lat="44.7998983" lon="9.2818733"><ele>743.0</ele><time>2026-04-11T08:32:34.04Z</time></trkpt><trkpt lat="44.7997967" lon="9.2819617"><ele>743.0</ele><time>2026-04-11T08:32:35.04Z</time></trkpt><trkpt lat="44.7996917" lon="9.282025"><ele>743.0</ele><time>2026-04-11T08:32:36.041Z</time></trkpt><trkpt lat="44.7995833" lon="9.2820717"><ele>743.0</ele><time>2026-04-11T08:32:37.043Z</time></trkpt><trkpt lat="44.7994783" lon="9.2821333"><ele>743.0</ele><time>2026-04-11T08:32:38.044Z</time></trkpt><trkpt lat="44.79938" lon="9.28222"><ele>743.0</ele><time>2026-04-11T08:32:39.042Z</time></trkpt><trkpt lat="44.799285" lon="9.2823133"><ele>743.0</ele><time>2026-04-11T08:32:40.033Z</time></trkpt><trkpt lat="44.7991917" lon="9.2824067"><ele>743.8</ele><time>2026-04-11T08:32:41.032Z</time></trkpt><trkpt lat="44.7991017" lon="9.282495"><ele>744.5999999999999</ele><time>2026-04-11T08:32:42.038Z</time></trkpt><trkpt lat="44.7990183" lon="9.28258"><ele>745.4000000000001</ele><time>2026-04-11T08:32:43.042Z</time></trkpt><trkpt lat="44.7989383" lon="9.2826883"><ele>746.2</ele><time>2026-04-11T08:32:44.034Z</time></trkpt><trkpt lat="44.7988683" lon="9.282825"><ele>747.0</ele><time>2026-04-11T08:32:45.042Z</time></trkpt><trkpt lat="44.798815" lon="9.282985"><ele>751.0</ele><time>2026-04-11T08:32:46.038Z</time></trkpt><trkpt lat="44.7987617" lon="9.28314"><ele>755.0</ele><time>2026-04-11T08:32:47.03Z</time></trkpt><trkpt lat="44.798705" lon="9.2833017"><ele>759.0</ele><time>2026-04-11T08:32:48.037Z</time></trkpt><trkpt lat="44.7986433" lon="9.28346"><ele>763.0</ele><time>2026-04-11T08:32:49.039Z</time></trkpt><trkpt lat="44.7985767" lon="9.283615"><ele>763.0</ele><time>2026-04-11T08:32:50.038Z</time></trkpt><trkpt lat="44.7985217" lon="9.28378"><ele>763.0</ele><time>2026-04-11T08:32:51.032Z</time></trkpt><trkpt lat="44.7984767" lon="9.2839483"><ele>763.0</ele><time>2026-04-11T08:32:52.041Z</time></trkpt><trkpt lat="44.7984483" lon="9.2841117"><ele>763.0</ele><time>2026-04-11T08:32:53.037Z</time></trkpt><trkpt lat="44.7984183" lon="9.2842583"><ele>758.0</ele><time>2026-04-11T08:32:54.038Z</time></trkpt><trkpt lat="44.79838" lon="9.28438"><ele>753.0</ele><time>2026-04-11T08:32:55.037Z</time></trkpt><trkpt lat="44.79831" lon="9.2844633"><ele>748.0</ele><time>2026-04-11T08:32:56.031Z</time></trkpt><trkpt lat="44.798235" lon="9.2845083"><ele>743.0</ele><time>2026-04-11T08:32:57.041Z</time></trkpt><trkpt lat="44.7981517" lon="9.2845083"><ele>738.0</ele><time>2026-04-11T08:32:58.038Z</time></trkpt><trkpt lat="44.79807" lon="9.2844867"><ele>733.0</ele><time>2026-04-11T08:32:59.04Z</time></trkpt><trkpt lat="44.7979867" lon="9.2844633"><ele>733.0</ele><time>2026-04-11T08:33:00.041Z</time></trkpt><trkpt lat="44.7979167" lon="9.2844417"><ele>733.0</ele><time>2026-04-11T08:33:01.038Z</time></trkpt><trkpt lat="44.79783" lon="9.284385"><ele>733.0</ele><time>2026-04-11T08:33:03.04Z</time></trkpt><trkpt lat="44.79781" lon="9.284215"><ele>733.0</ele><time>2026-04-11T08:42:13.038Z</time></trkpt><trkpt lat="44.79776" lon="9.2840817"><ele>733.0</ele><time>2026-04-11T08:42:15.04Z</time></trkpt><trkpt lat="44.7976967" lon="9.28393"><ele>733.0</ele><time>2026-04-11T08:42:17.037Z</time></trkpt><trkpt lat="44.7976517" lon="9.2838217"><ele>733.0</ele><time>2026-04-11T08:42:19.037Z</time></trkpt><trkpt lat="44.797635" lon="9.2839417"><ele>733.0</ele><time>2026-04-11T08:42:24.039Z</time></trkpt><trkpt lat="44.7976617" lon="9.284115"><ele>733.0</ele><time>2026-04-11T08:42:26.032Z</time></trkpt><trkpt lat="44.7976733" lon="9.2842717"><ele>733.0</ele><time>2026-04-11T08:42:28.038Z</time></trkpt><trkpt lat="44.797635" lon="9.2844017"><ele>736.0</ele><time>2026-04-11T08:42:30.038Z</time></trkpt><trkpt lat="44.7975783" lon="9.2845383"><ele>739.0</ele><time>2026-04-11T08:42:32.039Z</time></trkpt><trkpt lat="44.79756" lon="9.2846533"><ele>742.0</ele><time>2026-04-11T08:42:34.041Z</time></trkpt><trkpt lat="44.797525" lon="9.2847467"><ele>745.0</ele><time>2026-04-11T08:42:37.042Z</time></trkpt><trkpt lat="44.7974817" lon="9.2846783"><ele>748.0</ele><time>2026-04-11T08:42:39.04Z</time></trkpt><trkpt lat="44.797415" lon="9.2845167"><ele>748.0</ele><time>2026-04-11T08:42:41.034Z</time></trkpt><trkpt lat="44.797375" lon="9.2844217"><ele>748.0</ele><time>2026-04-11T08:42:42.038Z</time></trkpt><trkpt lat="44.7973317" lon="9.2843217"><ele>748.0</ele><time>2026-04-11T08:42:43.04Z</time></trkpt><trkpt lat="44.7972933" lon="9.2842"><ele>748.0</ele><time>2026-04-11T08:42:44.037Z</time></trkpt><trkpt lat="44.797265" lon="9.284105"><ele>748.0</ele><time>2026-04-11T08:42:45.038Z</time></trkpt><trkpt lat="44.79722" lon="9.2839717"><ele>748.0</ele><time>2026-04-11T08:42:47.038Z</time></trkpt><trkpt lat="44.7971667" lon="9.284045"><ele>748.0</ele><time>2026-04-11T08:42:51.036Z</time></trkpt><trkpt lat="44.7971633" lon="9.284195"><ele>748.0</ele><time>2026-04-11T08:42:53.037Z</time></trkpt><trkpt lat="44.7971733" lon="9.284285"><ele>748.0</ele><time>2026-04-11T08:42:54.035Z</time></trkpt><trkpt lat="44.797195" lon="9.2844717"><ele>748.0</ele><time>2026-04-11T08:42:56.038Z</time></trkpt><trkpt lat="44.797215" lon="9.2845933"><ele>748.0</ele><time>2026-04-11T08:42:57.039Z</time></trkpt><trkpt lat="44.7972417" lon="9.2847233"><ele>750.0</ele><time>2026-04-11T08:42:58.038Z</time></trkpt><trkpt lat="44.7972617" lon="9.2848433"><ele>752.0</ele><time>2026-04-11T08:42:59.038Z</time></trkpt><trkpt lat="44.7972667" lon="9.284965"><ele>754.0</ele><time>2026-04-11T08:43:00.033Z</time></trkpt><trkpt lat="44.797265" lon="9.2850783"><ele>756.0</ele><time>2026-04-11T08:43:01.039Z</time></trkpt><trkpt lat="44.7972583" lon="9.285195"><ele>758.0</ele><time>2026-04-11T08:43:02.04Z</time></trkpt><trkpt lat="44.7972417" lon="9.2853217"><ele>760.0</ele><time>2026-04-11T08:43:03.039Z</time></trkpt><trkpt lat="44.797215" lon="9.2854417"><ele>760.0</ele><time>2026-04-11T08:43:04.04Z</time></trkpt><trkpt lat="44.7971917" lon="9.285565"><ele>760.0</ele><time>2026-04-11T08:43:05.037Z</time></trkpt><trkpt lat="44.7971667" lon="9.2856817"><ele>760.0</ele><time>2026-04-11T08:43:06.037Z</time></trkpt><trkpt lat="44.7971367" lon="9.2857983"><ele>760.0</ele><time>2026-04-11T08:43:07.035Z</time></trkpt><trkpt lat="44.7971" lon="9.2859067"><ele>760.0</ele><time>2026-04-11T08:43:08.038Z</time></trkpt><trkpt lat="44.7970683" lon="9.286005"><ele>760.0</ele><time>2026-04-11T08:43:09.04Z</time></trkpt><trkpt lat="44.7970533" lon="9.2861083"><ele>761.3333333333334</ele><time>2026-04-11T08:43:10.038Z</time></trkpt><trkpt lat="44.7970367" lon="9.2862"><ele>762.6666666666667</ele><time>2026-04-11T08:43:11.037Z</time></trkpt><trkpt lat="44.7970333" lon="9.2862917"><ele>764.0</ele><time>2026-04-11T08:43:12.038Z</time></trkpt><trkpt lat="44.79702" lon="9.286415"><ele>765.3333333333334</ele><time>2026-04-11T08:43:14.039Z</time></trkpt><trkpt lat="44.797025" lon="9.2865183"><ele>766.6666666666666</ele><time>2026-04-11T08:43:16.039Z</time></trkpt><trkpt lat="44.797035" lon="9.2866517"><ele>768.0</ele><time>2026-04-11T08:43:18.037Z</time></trkpt><trkpt lat="44.797035" lon="9.2867633"><ele>768.5</ele><time>2026-04-11T08:43:20.037Z</time></trkpt><trkpt lat="44.7969783" lon="9.286825"><ele>769.0</ele><time>2026-04-11T08:43:24.036Z</time></trkpt><trkpt lat="44.7968933" lon="9.28681"><ele>769.5</ele><time>2026-04-11T08:43:27.036Z</time></trkpt><trkpt lat="44.796825" lon="9.2867933"><ele>770.0</ele><time>2026-04-11T08:43:29.034Z</time></trkpt><trkpt lat="44.7967617" lon="9.2867983"><ele>770.5</ele><time>2026-04-11T08:43:31.04Z</time></trkpt><trkpt lat="44.7967333" lon="9.28692"><ele>771.0</ele><time>2026-04-11T08:43:34.037Z</time></trkpt><trkpt lat="44.7967817" lon="9.2870517"><ele>772.8333333333334</ele><time>2026-04-11T08:43:36.038Z</time></trkpt><trkpt lat="44.7968117" lon="9.287195"><ele>774.6666666666667</ele><time>2026-04-11T08:43:38.035Z</time></trkpt><trkpt lat="44.796835" lon="9.287305"><ele>776.5</ele><time>2026-04-11T08:43:40.038Z</time></trkpt><trkpt lat="44.796845" lon="9.2874283"><ele>778.3333333333334</ele><time>2026-04-11T08:43:42.037Z</time></trkpt><trkpt lat="44.7968583" lon="9.2875317"><ele>780.1666666666667</ele><time>2026-04-11T08:43:44.037Z</time></trkpt><trkpt lat="44.7968383" lon="9.2876317"><ele>782.0</ele><time>2026-04-11T08:43:47.038Z</time></trkpt><trkpt lat="44.7967717" lon="9.2876217"><ele>791.0000000000001</ele><time>2026-04-11T08:43:49.034Z</time></trkpt><trkpt lat="44.796695" lon="9.2876567"><ele>800.0</ele><time>2026-04-11T08:43:52.034Z</time></trkpt><trkpt lat="44.7965983" lon="9.2876833"><ele>809.0</ele><time>2026-04-11T08:43:55.038Z</time></trkpt><trkpt lat="44.796555" lon="9.28777"><ele>818.0</ele><time>2026-04-11T08:43:57.038Z</time></trkpt><trkpt lat="44.796535" lon="9.2878917"><ele>827.0000000000001</ele><time>2026-04-11T08:43:59.037Z</time></trkpt><trkpt lat="44.7965117" lon="9.288015"><ele>836.0</ele><time>2026-04-11T08:44:01.039Z</time></trkpt><trkpt lat="44.796515" lon="9.2881283"><ele>838.1999999999999</ele><time>2026-04-11T08:44:03.038Z</time></trkpt><trkpt lat="44.7965117" lon="9.2882433"><ele>840.4</ele><time>2026-04-11T08:44:05.038Z</time></trkpt><trkpt lat="44.7965033" lon="9.288375"><ele>842.6</ele><time>2026-04-11T08:44:07.038Z</time></trkpt><trkpt lat="44.7964817" lon="9.2885367"><ele>844.8</ele><time>2026-04-11T08:44:09.042Z</time></trkpt><trkpt lat="44.796465" lon="9.2887017"><ele>847.0</ele><time>2026-04-11T08:44:11.04Z</time></trkpt><trkpt lat="44.7964533" lon="9.2888533"><ele>850.0</ele><time>2026-04-11T08:44:13.042Z</time></trkpt><trkpt lat="44.7964283" lon="9.2890217"><ele>853.0</ele><time>2026-04-11T08:44:15.036Z</time></trkpt><trkpt lat="44.7964133" lon="9.2891117"><ele>856.0</ele><time>2026-04-11T08:44:16.04Z</time></trkpt><trkpt lat="44.79641" lon="9.289285"><ele>859.0</ele><time>2026-04-11T08:44:18.039Z</time></trkpt><trkpt lat="44.79642" lon="9.2893783"><ele>862.0</ele><time>2026-04-11T08:44:19.038Z</time></trkpt><trkpt lat="44.7964433" lon="9.2895533"><ele>861.9999999999999</ele><time>2026-04-11T08:44:21.038Z</time></trkpt><trkpt lat="44.7964783" lon="9.2896533"><ele>862.0</ele><time>2026-04-11T08:44:22.038Z</time></trkpt><trkpt lat="44.7965017" lon="9.2897367"><ele>862.0</ele><time>2026-04-11T08:44:23.037Z</time></trkpt><trkpt lat="44.7965367" lon="9.289825"><ele>862.0</ele><time>2026-04-11T08:44:24.037Z</time></trkpt><trkpt lat="44.7966217" lon="9.2899567"><ele>861.9999999999999</ele><time>2026-04-11T08:44:26.038Z</time></trkpt><trkpt lat="44.796685" lon="9.2900167"><ele>862.0</ele><time>2026-04-11T08:44:27.038Z</time></trkpt><trkpt lat="44.7967517" lon="9.2900767"><ele>860.4999999999999</ele><time>2026-04-11T08:44:28.037Z</time></trkpt><trkpt lat="44.79681" lon="9.2901533"><ele>859.0</ele><time>2026-04-11T08:44:29.038Z</time></trkpt><trkpt lat="44.7968867" lon="9.29023"><ele>857.5</ele><time>2026-04-11T08:44:30.035Z</time></trkpt><trkpt lat="44.79695" lon="9.2903133"><ele>856.0</ele><time>2026-04-11T08:44:31.043Z</time></trkpt><trkpt lat="44.7969983" lon="9.2904033"><ele>854.4999999999999</ele><time>2026-04-11T08:44:32.038Z</time></trkpt><trkpt lat="44.7970317" lon="9.29051"><ele>853.0</ele><time>2026-04-11T08:44:33.041Z</time></trkpt><trkpt lat="44.7970733" lon="9.290615"><ele>853.0</ele><time>2026-04-11T08:44:34.037Z</time></trkpt><trkpt lat="44.7970917" lon="9.2907083"><ele>853.0</ele><time>2026-04-11T08:44:35.036Z</time></trkpt><trkpt lat="44.7970983" lon="9.2908017"><ele>853.0</ele><time>2026-04-11T08:44:36.037Z</time></trkpt><trkpt lat="44.7970933" lon="9.2908967"><ele>853.0</ele><time>2026-04-11T08:44:37.036Z</time></trkpt><trkpt lat="44.7971033" lon="9.2909983"><ele>853.0</ele><time>2026-04-11T08:44:38.036Z</time></trkpt><trkpt lat="44.79712" lon="9.2911033"><ele>853.0</ele><time>2026-04-11T08:44:39.038Z</time></trkpt><trkpt lat="44.7971333" lon="9.2912033"><ele>853.0</ele><time>2026-04-11T08:44:40.039Z</time></trkpt><trkpt lat="44.7971617" lon="9.2913033"><ele>852.9999999999999</ele><time>2026-04-11T08:44:41.042Z</time></trkpt><trkpt lat="44.7971917" lon="9.2914033"><ele>853.0</ele><time>2026-04-11T08:44:42.034Z</time></trkpt><trkpt lat="44.7972183" lon="9.2915033"><ele>853.0</ele><time>2026-04-11T08:44:43.032Z</time></trkpt><trkpt lat="44.797235" lon="9.2916017"><ele>853.0</ele><time>2026-04-11T08:44:44.042Z</time></trkpt><trkpt lat="44.7972417" lon="9.2917017"><ele>852.9999999999999</ele><time>2026-04-11T08:44:45.038Z</time></trkpt><trkpt lat="44.797255" lon="9.2918183"><ele>853.0</ele><time>2026-04-11T08:44:46.042Z</time></trkpt><trkpt lat="44.7972767" lon="9.2919517"><ele>856.3333333333333</ele><time>2026-04-11T08:44:47.042Z</time></trkpt><trkpt lat="44.79728" lon="9.2920783"><ele>859.6666666666666</ele><time>2026-04-11T08:44:48.042Z</time></trkpt><trkpt lat="44.7972967" lon="9.2922017"><ele>863.0</ele><time>2026-04-11T08:44:49.042Z</time></trkpt><trkpt lat="44.7973033" lon="9.29231"><ele>866.3333333333333</ele><time>2026-04-11T08:44:50.043Z</time></trkpt><trkpt lat="44.7973467" lon="9.2924133"><ele>869.6666666666666</ele><time>2026-04-11T08:44:51.041Z</time></trkpt><trkpt lat="44.7973833" lon="9.2924983"><ele>873.0</ele><time>2026-04-11T08:44:52.042Z</time></trkpt><trkpt lat="44.797405" lon="9.2925817"><ele>876.1428571428571</ele><time>2026-04-11T08:44:53.044Z</time></trkpt><trkpt lat="44.79742" lon="9.2926733"><ele>879.2857142857142</ele><time>2026-04-11T08:44:54.041Z</time></trkpt><trkpt lat="44.7974283" lon="9.2927867"><ele>882.4285714285713</ele><time>2026-04-11T08:44:55.043Z</time></trkpt><trkpt lat="44.797435" lon="9.2928983"><ele>885.5714285714286</ele><time>2026-04-11T08:44:56.043Z</time></trkpt><trkpt lat="44.7974467" lon="9.2930067"><ele>888.7142857142858</ele><time>2026-04-11T08:44:57.042Z</time></trkpt><trkpt lat="44.7974517" lon="9.293105"><ele>891.8571428571428</ele><time>2026-04-11T08:44:58.04Z</time></trkpt><trkpt lat="44.7974683" lon="9.293205"><ele>895.0</ele><time>2026-04-11T08:44:59.038Z</time></trkpt><trkpt lat="44.7974883" lon="9.2933017"><ele>896.1428571428571</ele><time>2026-04-11T08:45:00.04Z</time></trkpt><trkpt lat="44.7975" lon="9.293405"><ele>897.2857142857143</ele><time>2026-04-11T08:45:01.038Z</time></trkpt><trkpt lat="44.7975117" lon="9.2935117"><ele>898.4285714285714</ele><time>2026-04-11T08:45:02.039Z</time></trkpt><trkpt lat="44.797525" lon="9.2936067"><ele>899.5714285714286</ele><time>2026-04-11T08:45:03.04Z</time></trkpt><trkpt lat="44.797535" lon="9.2937017"><ele>900.7142857142858</ele><time>2026-04-11T08:45:04.038Z</time></trkpt><trkpt lat="44.797555" lon="9.2938017"><ele>901.8571428571429</ele><time>2026-04-11T08:45:05.041Z</time></trkpt><trkpt lat="44.79758" lon="9.2939083"><ele>903.0</ele><time>2026-04-11T08:45:06.041Z</time></trkpt><trkpt lat="44.7975983" lon="9.294015"><ele>903.3333333333334</ele><time>2026-04-11T08:45:07.04Z</time></trkpt><trkpt lat="44.7976183" lon="9.29413"><ele>903.6666666666667</ele><time>2026-04-11T08:45:08.039Z</time></trkpt><trkpt lat="44.797635" lon="9.2942417"><ele>904.0</ele><time>2026-04-11T08:45:09.04Z</time></trkpt><trkpt lat="44.7976483" lon="9.2943567"><ele>904.3333333333334</ele><time>2026-04-11T08:45:10.039Z</time></trkpt><trkpt lat="44.7976433" lon="9.2944517"><ele>904.6666666666667</ele><time>2026-04-11T08:45:11.039Z</time></trkpt><trkpt lat="44.797645" lon="9.2945533"><ele>905.0</ele><time>2026-04-11T08:45:12.038Z</time></trkpt><trkpt lat="44.7976317" lon="9.29467"><ele>904.5000000000001</ele><time>2026-04-11T08:45:13.039Z</time></trkpt><trkpt lat="44.797625" lon="9.2947717"><ele>904.0</ele><time>2026-04-11T08:45:14.042Z</time></trkpt><trkpt lat="44.7976167" lon="9.2948883"><ele>903.5</ele><time>2026-04-11T08:45:15.039Z</time></trkpt><trkpt lat="44.7976183" lon="9.295005"><ele>903.0</ele><time>2026-04-11T08:45:16.042Z</time></trkpt><trkpt lat="44.7976067" lon="9.2951183"><ele>902.5000000000001</ele><time>2026-04-11T08:45:17.04Z</time></trkpt><trkpt lat="44.7976067" lon="9.2952283"><ele>902.0</ele><time>2026-04-11T08:45:18.038Z</time></trkpt><trkpt lat="44.797605" lon="9.2953283"><ele>902.0</ele><time>2026-04-11T08:45:19.041Z</time></trkpt><trkpt lat="44.7976083" lon="9.29544"><ele>902.0</ele><time>2026-04-11T08:45:20.042Z</time></trkpt><trkpt lat="44.7976033" lon="9.2955583"><ele>902.0</ele><time>2026-04-11T08:45:21.042Z</time></trkpt><trkpt lat="44.7976033" lon="9.2956867"><ele>902.0</ele><time>2026-04-11T08:45:22.033Z</time></trkpt><trkpt lat="44.797615" lon="9.295825"><ele>902.0</ele><time>2026-04-11T08:45:23.042Z</time></trkpt><trkpt lat="44.79763" lon="9.295965"><ele>902.1666666666667</ele><time>2026-04-11T08:45:24.032Z</time></trkpt><trkpt lat="44.7976433" lon="9.2960833"><ele>902.3333333333334</ele><time>2026-04-11T08:45:25.038Z</time></trkpt><trkpt lat="44.79768" lon="9.2961983"><ele>902.5</ele><time>2026-04-11T08:45:26.038Z</time></trkpt><trkpt lat="44.7977133" lon="9.296295"><ele>902.6666666666667</ele><time>2026-04-11T08:45:27.04Z</time></trkpt><trkpt lat="44.79774" lon="9.296455"><ele>902.8333333333334</ele><time>2026-04-11T08:45:29.032Z</time></trkpt><trkpt lat="44.7977283" lon="9.29655"><ele>903.0</ele><time>2026-04-11T08:45:30.038Z</time></trkpt><trkpt lat="44.797695" lon="9.29666"><ele>904.0</ele><time>2026-04-11T08:45:31.04Z</time></trkpt><trkpt lat="44.7976483" lon="9.2967817"><ele>905.0</ele><time>2026-04-11T08:45:32.037Z</time></trkpt><trkpt lat="44.7976017" lon="9.296895"><ele>906.0</ele><time>2026-04-11T08:45:33.033Z</time></trkpt><trkpt lat="44.7974967" lon="9.297045"><ele>907.0</ele><time>2026-04-11T08:45:34.039Z</time></trkpt><trkpt lat="44.7974383" lon="9.297155"><ele>908.0</ele><time>2026-04-11T08:45:35.038Z</time></trkpt><trkpt lat="44.7974117" lon="9.2972467"><ele>908.3333333333334</ele><time>2026-04-11T08:45:36.041Z</time></trkpt><trkpt lat="44.7974217" lon="9.2974133"><ele>908.6666666666667</ele><time>2026-04-11T08:45:38.036Z</time></trkpt><trkpt lat="44.7974983" lon="9.297535"><ele>909.0</ele><time>2026-04-11T08:45:40.039Z</time></trkpt><trkpt lat="44.797555" lon="9.29758"><ele>909.3333333333333</ele><time>2026-04-11T08:45:41.043Z</time></trkpt><trkpt lat="44.7976167" lon="9.29763"><ele>909.6666666666666</ele><time>2026-04-11T08:45:42.04Z</time></trkpt><trkpt lat="44.797675" lon="9.2976933"><ele>910.0</ele><time>2026-04-11T08:45:43.041Z</time></trkpt><trkpt lat="44.7977267" lon="9.297775"><ele>909.9999999999999</ele><time>2026-04-11T08:45:44.042Z</time></trkpt><trkpt lat="44.7977667" lon="9.2978667"><ele>910.0</ele><time>2026-04-11T08:45:45.037Z</time></trkpt><trkpt lat="44.7977933" lon="9.2979617"><ele>910.0</ele><time>2026-04-11T08:45:46.038Z</time></trkpt><trkpt lat="44.7978217" lon="9.2980467"><ele>910.0</ele><time>2026-04-11T08:45:47.142Z</time></trkpt><trkpt lat="44.797845" lon="9.2982"><ele>909.9999999999999</ele><time>2026-04-11T08:45:49.039Z</time></trkpt><trkpt lat="44.79785" lon="9.2983633"><ele>910.0</ele><time>2026-04-11T08:45:51.038Z</time></trkpt><trkpt lat="44.797895" lon="9.298485"><ele>910.0</ele><time>2026-04-11T08:45:53.039Z</time></trkpt><trkpt lat="44.7979933" lon="9.2985417"><ele>910.0</ele><time>2026-04-11T08:45:55.037Z</time></trkpt><trkpt lat="44.798095" lon="9.29858"><ele>910.0</ele><time>2026-04-11T08:45:57.042Z</time></trkpt><trkpt lat="44.7981633" lon="9.298655"><ele>910.0</ele><time>2026-04-11T08:45:59.039Z</time></trkpt><trkpt lat="44.7981517" lon="9.29877"><ele>910.0</ele><time>2026-04-11T08:46:01.034Z</time></trkpt><trkpt lat="44.7980767" lon="9.298905"><ele>911.0</ele><time>2026-04-11T08:46:03.039Z</time></trkpt><trkpt lat="44.798" lon="9.2990083"><ele>912.0</ele><time>2026-04-11T08:46:05.039Z</time></trkpt><trkpt lat="44.7979117" lon="9.2990967"><ele>913.0</ele><time>2026-04-11T08:46:07.038Z</time></trkpt><trkpt lat="44.7978517" lon="9.2991667"><ele>914.0</ele><time>2026-04-11T08:46:09.039Z</time></trkpt><trkpt lat="44.7977767" lon="9.2992367"><ele>915.0</ele><time>2026-04-11T08:46:12.038Z</time></trkpt><trkpt lat="44.7976683" lon="9.2992517"><ele>917.2</ele><time>2026-04-11T08:46:14.035Z</time></trkpt><trkpt lat="44.7975833" lon="9.2992683"><ele>919.4</ele><time>2026-04-11T08:46:15.039Z</time></trkpt><trkpt lat="44.79749" lon="9.2992883"><ele>921.5999999999999</ele><time>2026-04-11T08:46:16.036Z</time></trkpt><trkpt lat="44.7973967" lon="9.2993067"><ele>923.8</ele><time>2026-04-11T08:46:17.036Z</time></trkpt><trkpt lat="44.7972983" lon="9.2993233"><ele>926.0</ele><time>2026-04-11T08:46:18.035Z</time></trkpt><trkpt lat="44.7972133" lon="9.29934"><ele>926.0</ele><time>2026-04-11T08:46:19.039Z</time></trkpt><trkpt lat="44.7971483" lon="9.2993533"><ele>925.9999999999999</ele><time>2026-04-11T08:46:20.04Z</time></trkpt><trkpt lat="44.7970517" lon="9.2993833"><ele>925.9999999999999</ele><time>2026-04-11T08:46:22.04Z</time></trkpt><trkpt lat="44.79692" lon="9.2994167"><ele>926.0</ele><time>2026-04-11T08:46:24.037Z</time></trkpt><trkpt lat="44.7968417" lon="9.29944"><ele>926.0</ele><time>2026-04-11T08:46:25.03Z</time></trkpt><trkpt lat="44.7967633" lon="9.299455"><ele>927.8571428571428</ele><time>2026-04-11T08:46:26.036Z</time></trkpt><trkpt lat="44.7967017" lon="9.2994333"><ele>929.7142857142856</ele><time>2026-04-11T08:46:27.038Z</time></trkpt><trkpt lat="44.796645" lon="9.299385"><ele>931.5714285714286</ele><time>2026-04-11T08:46:28.041Z</time></trkpt><trkpt lat="44.7965833" lon="9.2993333"><ele>933.4285714285713</ele><time>2026-04-11T08:46:29.037Z</time></trkpt><trkpt lat="44.7965183" lon="9.2992983"><ele>935.2857142857142</ele><time>2026-04-11T08:46:30.038Z</time></trkpt><trkpt lat="44.7964417" lon="9.2992817"><ele>937.1428571428571</ele><time>2026-04-11T08:46:31.038Z</time></trkpt><trkpt lat="44.7963767" lon="9.2992817"><ele>939.0</ele><time>2026-04-11T08:46:32.037Z</time></trkpt><trkpt lat="44.7962783" lon="9.2993483"><ele>939.0</ele><time>2026-04-11T08:46:34.032Z</time></trkpt><trkpt lat="44.7961967" lon="9.2993867"><ele>939.0000000000001</ele><time>2026-04-11T08:46:36.037Z</time></trkpt><trkpt lat="44.7961733" lon="9.2992533"><ele>939.0000000000001</ele><time>2026-04-11T08:46:39.038Z</time></trkpt><trkpt lat="44.7961433" lon="9.2990933"><ele>939.0</ele><time>2026-04-11T08:46:41.039Z</time></trkpt><trkpt lat="44.79607" lon="9.2989967"><ele>939.0</ele><time>2026-04-11T08:46:43.036Z</time></trkpt><trkpt lat="44.796015" lon="9.2988667"><ele>939.0</ele><time>2026-04-11T08:46:45.04Z</time></trkpt><trkpt lat="44.7959783" lon="9.2987217"><ele>939.0000000000001</ele><time>2026-04-11T08:46:47.041Z</time></trkpt><trkpt lat="44.79598" lon="9.2986283"><ele>939.0000000000001</ele><time>2026-04-11T08:46:48.04Z</time></trkpt><trkpt lat="44.79599" lon="9.29851"><ele>939.0</ele><time>2026-04-11T08:46:49.039Z</time></trkpt><trkpt lat="44.7960067" lon="9.298385"><ele>939.0</ele><time>2026-04-11T08:46:50.04Z</time></trkpt><trkpt lat="44.7960417" lon="9.2982367"><ele>939.0</ele><time>2026-04-11T08:46:51.041Z</time></trkpt><trkpt lat="44.7960933" lon="9.298105"><ele>939.0</ele><time>2026-04-11T08:46:52.043Z</time></trkpt><trkpt lat="44.7961767" lon="9.2979817"><ele>939.0</ele><time>2026-04-11T08:46:53.037Z</time></trkpt><trkpt lat="44.7962633" lon="9.29787"><ele>939.0</ele><time>2026-04-11T08:46:54.032Z</time></trkpt><trkpt lat="44.79636" lon="9.2977583"><ele>942.75</ele><time>2026-04-11T08:46:55.042Z</time></trkpt><trkpt lat="44.79645" lon="9.29764"><ele>946.5</ele><time>2026-04-11T08:46:56.039Z</time></trkpt><trkpt lat="44.7965417" lon="9.2975283"><ele>950.25</ele><time>2026-04-11T08:46:57.038Z</time></trkpt><trkpt lat="44.7966017" lon="9.2974017"><ele>954.0</ele><time>2026-04-11T08:46:58.038Z</time></trkpt><trkpt lat="44.7966467" lon="9.2972683"><ele>955.8000000000001</ele><time>2026-04-11T08:46:59.037Z</time></trkpt><trkpt lat="44.7966733" lon="9.2971283"><ele>957.6000000000001</ele><time>2026-04-11T08:47:00.039Z</time></trkpt><trkpt lat="44.7967117" lon="9.2970067"><ele>959.4</ele><time>2026-04-11T08:47:01.04Z</time></trkpt><trkpt lat="44.79673" lon="9.2969"><ele>961.2</ele><time>2026-04-11T08:47:02.037Z</time></trkpt><trkpt lat="44.7966933" lon="9.2967283"><ele>963.0</ele><time>2026-04-11T08:47:04.036Z</time></trkpt><trkpt lat="44.7966483" lon="9.2966433"><ele>963.0</ele><time>2026-04-11T08:47:05.041Z</time></trkpt><trkpt lat="44.7965783" lon="9.2965717"><ele>963.0</ele><time>2026-04-11T08:47:06.039Z</time></trkpt><trkpt lat="44.7965167" lon="9.2965033"><ele>963.0</ele><time>2026-04-11T08:47:07.039Z</time></trkpt><trkpt lat="44.796465" lon="9.29643"><ele>963.0</ele><time>2026-04-11T08:47:08.04Z</time></trkpt><trkpt lat="44.7964133" lon="9.296345"><ele>963.0</ele><time>2026-04-11T08:47:09.036Z</time></trkpt><trkpt lat="44.796365" lon="9.2962683"><ele>963.0</ele><time>2026-04-11T08:47:10.041Z</time></trkpt><trkpt lat="44.7963267" lon="9.29615"><ele>963.4</ele><time>2026-04-11T08:47:11.039Z</time></trkpt><trkpt lat="44.7963" lon="9.2960183"><ele>963.8</ele><time>2026-04-11T08:47:12.037Z</time></trkpt><trkpt lat="44.7962633" lon="9.295885"><ele>964.2</ele><time>2026-04-11T08:47:13.042Z</time></trkpt><trkpt lat="44.79626" lon="9.2957283"><ele>964.6</ele><time>2026-04-11T08:47:14.039Z</time></trkpt><trkpt lat="44.7962483" lon="9.2955767"><ele>965.0</ele><time>2026-04-11T08:47:15.041Z</time></trkpt><trkpt lat="44.7962333" lon="9.29542"><ele>965.5000000000001</ele><time>2026-04-11T08:47:16.035Z</time></trkpt><trkpt lat="44.7962383" lon="9.2952717"><ele>966.0</ele><time>2026-04-11T08:47:17.032Z</time></trkpt><trkpt lat="44.7962517" lon="9.2951333"><ele>966.5</ele><time>2026-04-11T08:47:18.038Z</time></trkpt><trkpt lat="44.7962567" lon="9.2950033"><ele>967.0</ele><time>2026-04-11T08:47:19.039Z</time></trkpt><trkpt lat="44.796255" lon="9.2948883"><ele>967.5000000000001</ele><time>2026-04-11T08:47:20.036Z</time></trkpt><trkpt lat="44.7962483" lon="9.2947917"><ele>968.0</ele><time>2026-04-11T08:47:21.039Z</time></trkpt><trkpt lat="44.79622" lon="9.2946317"><ele>969.2</ele><time>2026-04-11T08:47:23.038Z</time></trkpt><trkpt lat="44.7961617" lon="9.2945267"><ele>970.4</ele><time>2026-04-11T08:47:25.042Z</time></trkpt><trkpt lat="44.796085" lon="9.29444"><ele>971.6000000000001</ele><time>2026-04-11T08:47:27.042Z</time></trkpt><trkpt lat="44.7960167" lon="9.2943183"><ele>972.8000000000001</ele><time>2026-04-11T08:47:29.041Z</time></trkpt><trkpt lat="44.7959417" lon="9.294165"><ele>974.0</ele><time>2026-04-11T08:47:31.04Z</time></trkpt><trkpt lat="44.7959133" lon="9.29408"><ele>980.6666666666667</ele><time>2026-04-11T08:47:32.039Z</time></trkpt><trkpt lat="44.79589" lon="9.2939833"><ele>987.3333333333334</ele><time>2026-04-11T08:47:33.038Z</time></trkpt><trkpt lat="44.7958583" lon="9.29388"><ele>994.0</ele><time>2026-04-11T08:47:34.039Z</time></trkpt><trkpt lat="44.79583" lon="9.2937933"><ele>1000.6666666666667</ele><time>2026-04-11T08:47:35.038Z</time></trkpt><trkpt lat="44.7958083" lon="9.293685"><ele>1007.3333333333334</ele><time>2026-04-11T08:47:36.04Z</time></trkpt><trkpt lat="44.795795" lon="9.293585"><ele>1014.0</ele><time>2026-04-11T08:47:37.04Z</time></trkpt><trkpt lat="44.7957867" lon="9.293455"><ele>1014.0</ele><time>2026-04-11T08:47:38.037Z</time></trkpt><trkpt lat="44.7957783" lon="9.293295"><ele>1014.0</ele><time>2026-04-11T08:47:39.037Z</time></trkpt><trkpt lat="44.7957633" lon="9.29317"><ele>1014.0</ele><time>2026-04-11T08:47:40.039Z</time></trkpt><trkpt lat="44.7957433" lon="9.293055"><ele>1014.0</ele><time>2026-04-11T08:47:41.037Z</time></trkpt><trkpt lat="44.7957067" lon="9.2929617"><ele>1014.0</ele><time>2026-04-11T08:47:42.037Z</time></trkpt><trkpt lat="44.7956717" lon="9.2928517"><ele>1014.0</ele><time>2026-04-11T08:47:43.039Z</time></trkpt><trkpt lat="44.795645" lon="9.2927583"><ele>1013.1666666666666</ele><time>2026-04-11T08:47:44.038Z</time></trkpt><trkpt lat="44.7956017" lon="9.29267"><ele>1012.3333333333333</ele><time>2026-04-11T08:47:45.04Z</time></trkpt><trkpt lat="44.7955417" lon="9.2925767"><ele>1011.5</ele><time>2026-04-11T08:47:46.042Z</time></trkpt><trkpt lat="44.7955067" lon="9.2924833"><ele>1010.6666666666666</ele><time>2026-04-11T08:47:47.038Z</time></trkpt><trkpt lat="44.79545" lon="9.292385"><ele>1009.8333333333333</ele><time>2026-04-11T08:47:49.042Z</time></trkpt><trkpt lat="44.7953733" lon="9.2923283"><ele>1009.0</ele><time>2026-04-11T08:47:51.039Z</time></trkpt><trkpt lat="44.7952383" lon="9.2923283"><ele>1013.1666666666666</ele><time>2026-04-11T08:47:53.039Z</time></trkpt><trkpt lat="44.795165" lon="9.292335"><ele>1017.3333333333333</ele><time>2026-04-11T08:47:54.041Z</time></trkpt><trkpt lat="44.795095" lon="9.292355"><ele>1021.5</ele><time>2026-04-11T08:47:55.039Z</time></trkpt><trkpt lat="44.7950167" lon="9.2923933"><ele>1025.6666666666667</ele><time>2026-04-11T08:47:56.039Z</time></trkpt><trkpt lat="44.7949317" lon="9.2924267"><ele>1029.8333333333335</ele><time>2026-04-11T08:47:57.042Z</time></trkpt><trkpt lat="44.7948617" lon="9.292465"><ele>1034.0</ele><time>2026-04-11T08:47:58.038Z</time></trkpt><trkpt lat="44.7947983" lon="9.292495"><ele>1034.0</ele><time>2026-04-11T08:47:59.038Z</time></trkpt><trkpt lat="44.794725" lon="9.2926167"><ele>1034.0</ele><time>2026-04-11T08:48:01.039Z</time></trkpt><trkpt lat="44.7947117" lon="9.29278"><ele>1034.0</ele><time>2026-04-11T08:48:03.041Z</time></trkpt><trkpt lat="44.794725" lon="9.2928817"><ele>1034.0</ele><time>2026-04-11T08:48:04.04Z</time></trkpt><trkpt lat="44.7947367" lon="9.29297"><ele>1034.0</ele><time>2026-04-11T08:48:05.04Z</time></trkpt><trkpt lat="44.794745" lon="9.29307"><ele>1034.0</ele><time>2026-04-11T08:48:06.04Z</time></trkpt><trkpt lat="44.7947533" lon="9.29318"><ele>1036.3333333333335</ele><time>2026-04-11T08:48:07.032Z</time></trkpt><trkpt lat="44.7947633" lon="9.2932917"><ele>1038.6666666666667</ele><time>2026-04-11T08:48:08.034Z</time></trkpt><trkpt lat="44.7947767" lon="9.293395"><ele>1041.0</ele><time>2026-04-11T08:48:09.037Z</time></trkpt><trkpt lat="44.7947867" lon="9.2935"><ele>1043.3333333333333</ele><time>2026-04-11T08:48:10.036Z</time></trkpt><trkpt lat="44.7947933" lon="9.2936017"><ele>1045.6666666666665</ele><time>2026-04-11T08:48:11.034Z</time></trkpt><trkpt lat="44.7947933" lon="9.2936967"><ele>1048.0</ele><time>2026-04-11T08:48:12.04Z</time></trkpt><trkpt lat="44.7947483" lon="9.2938467"><ele>1049.6666666666665</ele><time>2026-04-11T08:48:14.039Z</time></trkpt><trkpt lat="44.7947133" lon="9.2939233"><ele>1051.3333333333333</ele><time>2026-04-11T08:48:15.04Z</time></trkpt><trkpt lat="44.79466" lon="9.29401"><ele>1053.0</ele><time>2026-04-11T08:48:16.038Z</time></trkpt><trkpt lat="44.7946133" lon="9.2941017"><ele>1054.6666666666667</ele><time>2026-04-11T08:48:17.042Z</time></trkpt><trkpt lat="44.7945817" lon="9.294195"><ele>1056.3333333333335</ele><time>2026-04-11T08:48:18.036Z</time></trkpt><trkpt lat="44.7945617" lon="9.29429"><ele>1058.0</ele><time>2026-04-11T08:48:19.041Z</time></trkpt><trkpt lat="44.79453" lon="9.2944033"><ele>1058.0</ele><time>2026-04-11T08:48:20.04Z</time></trkpt><trkpt lat="44.7944883" lon="9.2945217"><ele>1058.0</ele><time>2026-04-11T08:48:21.038Z</time></trkpt><trkpt lat="44.794445" lon="9.294645"><ele>1058.0</ele><time>2026-04-11T08:48:22.04Z</time></trkpt><trkpt lat="44.7944017" lon="9.2947517"><ele>1058.0</ele><time>2026-04-11T08:48:23.039Z</time></trkpt><trkpt lat="44.7943617" lon="9.29484"><ele>1058.0</ele><time>2026-04-11T08:48:24.041Z</time></trkpt><trkpt lat="44.794315" lon="9.2949283"><ele>1058.0</ele><time>2026-04-11T08:48:25.043Z</time></trkpt><trkpt lat="44.79426" lon="9.2949817"><ele>1061.0</ele><time>2026-04-11T08:48:26.035Z</time></trkpt><trkpt lat="44.7942183" lon="9.2950483"><ele>1064.0</ele><time>2026-04-11T08:48:27.042Z</time></trkpt><trkpt lat="44.7941717" lon="9.2951217"><ele>1067.0</ele><time>2026-04-11T08:48:28.04Z</time></trkpt><trkpt lat="44.79411" lon="9.29519"><ele>1070.0</ele><time>2026-04-11T08:48:29.036Z</time></trkpt><trkpt lat="44.7940517" lon="9.29526"><ele>1073.0</ele><time>2026-04-11T08:48:30.038Z</time></trkpt><trkpt lat="44.7939983" lon="9.2953283"><ele>1076.0</ele><time>2026-04-11T08:48:31.038Z</time></trkpt><trkpt lat="44.7939483" lon="9.2954083"><ele>1079.0</ele><time>2026-04-11T08:48:32.04Z</time></trkpt><trkpt lat="44.7939" lon="9.2954933"><ele>1080.3333333333335</ele><time>2026-04-11T08:48:33.036Z</time></trkpt><trkpt lat="44.79386" lon="9.2956033"><ele>1081.6666666666667</ele><time>2026-04-11T08:48:34.04Z</time></trkpt><trkpt lat="44.7938133" lon="9.2957217"><ele>1083.0</ele><time>2026-04-11T08:48:35.038Z</time></trkpt><trkpt lat="44.7937667" lon="9.2958167"><ele>1084.3333333333333</ele><time>2026-04-11T08:48:36.038Z</time></trkpt><trkpt lat="44.79372" lon="9.295885"><ele>1085.6666666666665</ele><time>2026-04-11T08:48:37.039Z</time></trkpt><trkpt lat="44.793665" lon="9.2959483"><ele>1087.0</ele><time>2026-04-11T08:48:38.041Z</time></trkpt><trkpt lat="44.7935917" lon="9.2960133"><ele>1087.0</ele><time>2026-04-11T08:48:39.042Z</time></trkpt><trkpt lat="44.7935133" lon="9.2960767"><ele>1087.0</ele><time>2026-04-11T08:48:40.041Z</time></trkpt><trkpt lat="44.7934533" lon="9.2961433"><ele>1087.0</ele><time>2026-04-11T08:48:41.041Z</time></trkpt><trkpt lat="44.7934017" lon="9.296225"><ele>1087.0</ele><time>2026-04-11T08:48:42.039Z</time></trkpt><trkpt lat="44.7933717" lon="9.296315"><ele>1087.0</ele><time>2026-04-11T08:48:43.038Z</time></trkpt><trkpt lat="44.7933317" lon="9.2963883"><ele>1087.0</ele><time>2026-04-11T08:48:44.039Z</time></trkpt><trkpt lat="44.7932433" lon="9.2964833"><ele>1091.5</ele><time>2026-04-11T08:48:46.04Z</time></trkpt><trkpt lat="44.7931117" lon="9.296535"><ele>1096.0</ele><time>2026-04-11T08:48:48.035Z</time></trkpt><trkpt lat="44.793015" lon="9.2965817"><ele>1100.5</ele><time>2026-04-11T08:48:49.042Z</time></trkpt><trkpt lat="44.7929083" lon="9.2966617"><ele>1105.0</ele><time>2026-04-11T08:48:50.041Z</time></trkpt><trkpt lat="44.7928133" lon="9.2967783"><ele>1105.0</ele><time>2026-04-11T08:48:51.034Z</time></trkpt><trkpt lat="44.7927317" lon="9.2969267"><ele>1105.0</ele><time>2026-04-11T08:48:52.042Z</time></trkpt><trkpt lat="44.792665" lon="9.2970883"><ele>1105.0</ele><time>2026-04-11T08:48:53.041Z</time></trkpt><trkpt lat="44.7926067" lon="9.29725"><ele>1105.0</ele><time>2026-04-11T08:48:54.04Z</time></trkpt><trkpt lat="44.7925467" lon="9.297425"><ele>1106.5</ele><time>2026-04-11T08:48:55.042Z</time></trkpt><trkpt lat="44.7924867" lon="9.2976167"><ele>1108.0</ele><time>2026-04-11T08:48:56.038Z</time></trkpt><trkpt lat="44.7924317" lon="9.2978033"><ele>1109.5</ele><time>2026-04-11T08:48:57.044Z</time></trkpt><trkpt lat="44.792375" lon="9.2979717"><ele>1111.0</ele><time>2026-04-11T08:48:58.034Z</time></trkpt><trkpt lat="44.7923217" lon="9.2981167"><ele>1112.0</ele><time>2026-04-11T08:48:59.04Z</time></trkpt><trkpt lat="44.7922633" lon="9.29825"><ele>1113.0</ele><time>2026-04-11T08:49:00.039Z</time></trkpt><trkpt lat="44.7921883" lon="9.2983583"><ele>1114.0</ele><time>2026-04-11T08:49:01.037Z</time></trkpt><trkpt lat="44.7921267" lon="9.2984933"><ele>1115.0</ele><time>2026-04-11T08:49:02.039Z</time></trkpt><trkpt lat="44.7920733" lon="9.2986533"><ele>1115.0</ele><time>2026-04-11T08:49:03.042Z</time></trkpt><trkpt lat="44.792025" lon="9.298825"><ele>1115.0</ele><time>2026-04-11T08:49:04.04Z</time></trkpt><trkpt lat="44.7919833" lon="9.2989883"><ele>1115.0</ele><time>2026-04-11T08:49:05.038Z</time></trkpt><trkpt lat="44.7919433" lon="9.2991317"><ele>1115.0</ele><time>2026-04-11T08:49:06.034Z</time></trkpt><trkpt lat="44.7918983" lon="9.2992567"><ele>1116.8</ele><time>2026-04-11T08:49:07.039Z</time></trkpt><trkpt lat="44.7918317" lon="9.2993667"><ele>1118.6</ele><time>2026-04-11T08:49:08.041Z</time></trkpt><trkpt lat="44.791745" lon="9.2994717"><ele>1120.4</ele><time>2026-04-11T08:49:09.042Z</time></trkpt><trkpt lat="44.7916517" lon="9.2995767"><ele>1122.2</ele><time>2026-04-11T08:49:10.042Z</time></trkpt><trkpt lat="44.79157" lon="9.2996717"><ele>1124.0</ele><time>2026-04-11T08:49:11.038Z</time></trkpt><trkpt lat="44.7915267" lon="9.2997633"><ele>1126.0</ele><time>2026-04-11T08:49:12.038Z</time></trkpt><trkpt lat="44.7915017" lon="9.299855"><ele>1128.0</ele><time>2026-04-11T08:49:13.04Z</time></trkpt><trkpt lat="44.7914917" lon="9.299975"><ele>1130.0</ele><time>2026-04-11T08:49:14.037Z</time></trkpt><trkpt lat="44.7914733" lon="9.3001283"><ele>1132.0</ele><time>2026-04-11T08:49:15.041Z</time></trkpt><trkpt lat="44.7914467" lon="9.3002733"><ele>1134.0</ele><time>2026-04-11T08:49:16.037Z</time></trkpt><trkpt lat="44.7914183" lon="9.3003967"><ele>1134.0</ele><time>2026-04-11T08:49:17.037Z</time></trkpt><trkpt lat="44.7913883" lon="9.3004867"><ele>1134.0</ele><time>2026-04-11T08:49:18.04Z</time></trkpt><trkpt lat="44.791355" lon="9.300565"><ele>1134.0</ele><time>2026-04-11T08:49:19.038Z</time></trkpt><trkpt lat="44.791265" lon="9.3006783"><ele>1134.0</ele><time>2026-04-11T08:49:21.04Z</time></trkpt><trkpt lat="44.7912067" lon="9.300725"><ele>1134.0</ele><time>2026-04-11T08:49:22.038Z</time></trkpt><trkpt lat="44.79113" lon="9.30077"><ele>1134.0</ele><time>2026-04-11T08:49:23.038Z</time></trkpt><trkpt lat="44.7910317" lon="9.3007917"><ele>1138.75</ele><time>2026-04-11T08:49:24.038Z</time></trkpt><trkpt lat="44.790925" lon="9.3007867"><ele>1143.5</ele><time>2026-04-11T08:49:25.04Z</time></trkpt><trkpt lat="44.7908033" lon="9.3007433"><ele>1148.25</ele><time>2026-04-11T08:49:26.037Z</time></trkpt><trkpt lat="44.790685" lon="9.3006983"><ele>1153.0</ele><time>2026-04-11T08:49:27.04Z</time></trkpt><trkpt lat="44.790575" lon="9.3006467"><ele>1153.0</ele><time>2026-04-11T08:49:28.037Z</time></trkpt><trkpt lat="44.7904717" lon="9.3005867"><ele>1153.0</ele><time>2026-04-11T08:49:29.038Z</time></trkpt><trkpt lat="44.790375" lon="9.3005183"><ele>1153.0</ele><time>2026-04-11T08:49:30.038Z</time></trkpt><trkpt lat="44.7902767" lon="9.3004467"><ele>1153.0</ele><time>2026-04-11T08:49:31.038Z</time></trkpt><trkpt lat="44.7901717" lon="9.3003883"><ele>1153.0</ele><time>2026-04-11T08:49:32.038Z</time></trkpt><trkpt lat="44.7900583" lon="9.300365"><ele>1153.75</ele><time>2026-04-11T08:49:33.04Z</time></trkpt><trkpt lat="44.7899433" lon="9.3003883"><ele>1154.5</ele><time>2026-04-11T08:49:34.037Z</time></trkpt><trkpt lat="44.7898267" lon="9.3004567"><ele>1155.25</ele><time>2026-04-11T08:49:35.038Z</time></trkpt><trkpt lat="44.7897217" lon="9.3005633"><ele>1156.0</ele><time>2026-04-11T08:49:36.039Z</time></trkpt><trkpt lat="44.7896267" lon="9.3006883"><ele>1111.0</ele><time>2026-04-11T08:49:37.038Z</time></trkpt><trkpt lat="44.7918983" lon="9.2992567"><ele>1113.6</ele><time>2026-04-11T08:49:07.039Z</time></trkpt><trkpt lat="44.7918317" lon="9.2993667"><ele>1116.1999999999998</ele><time>2026-04-11T08:49:08.041Z</time></trkpt><trkpt lat="44.791745" lon="9.2994717"><ele>1118.8000000000002</ele><time>2026-04-11T08:49:09.042Z</time></trkpt><trkpt lat="44.7916517" lon="9.2995767"><ele>1121.4</ele><time>2026-04-11T08:49:10.042Z</time></trkpt><trkpt lat="44.79157" lon="9.2996717"><ele>1124.0</ele><time>2026-04-11T08:49:11.038Z</time></trkpt><trkpt lat="44.7915267" lon="9.2997633"><ele>1126.0</ele><time>2026-04-11T08:49:12.038Z</time></trkpt><trkpt lat="44.7915017" lon="9.299855"><ele>1128.0</ele><time>2026-04-11T08:49:13.04Z</time></trkpt><trkpt lat="44.7914917" lon="9.299975"><ele>1130.0</ele><time>2026-04-11T08:49:14.037Z</time></trkpt><trkpt lat="44.7914733" lon="9.3001283"><ele>1132.0</ele><time>2026-04-11T08:49:15.041Z</time></trkpt><trkpt lat="44.7914467" lon="9.3002733"><ele>1134.0</ele><time>2026-04-11T08:49:16.037Z</time></trkpt><trkpt lat="44.7914183" lon="9.3003967"><ele>1134.0</ele><time>2026-04-11T08:49:17.037Z</time></trkpt><trkpt lat="44.7913883" lon="9.3004867"><ele>1134.0</ele><time>2026-04-11T08:49:18.04Z</time></trkpt><trkpt lat="44.791355" lon="9.300565"><ele>1134.0</ele><time>2026-04-11T08:49:19.038Z</time></trkpt><trkpt lat="44.791265" lon="9.3006783"><ele>1134.0</ele><time>2026-04-11T08:49:21.04Z</time></trkpt><trkpt lat="44.7912067" lon="9.300725"><ele>1134.0</ele><time>2026-04-11T08:49:22.038Z</time></trkpt><trkpt lat="44.79113" lon="9.30077"><ele>1134.0</ele><time>2026-04-11T08:49:23.038Z</time></trkpt><trkpt lat="44.7910317" lon="9.3007917"><ele>1138.75</ele><time>2026-04-11T08:49:24.038Z</time></trkpt><trkpt lat="44.790925" lon="9.3007867"><ele>1143.5</ele><time>2026-04-11T08:49:25.04Z</time></trkpt><trkpt lat="44.7908033" lon="9.3007433"><ele>1148.25</ele><time>2026-04-11T08:49:26.037Z</time></trkpt><trkpt lat="44.790685" lon="9.3006983"><ele>1153.0</ele><time>2026-04-11T08:49:27.04Z</time></trkpt><trkpt lat="44.790575" lon="9.3006467"><ele>1153.0</ele><time>2026-04-11T08:49:28.037Z</time></trkpt><trkpt lat="44.7904717" lon="9.3005867"><ele>1153.0</ele><time>2026-04-11T08:49:29.038Z</time></trkpt><trkpt lat="44.790375" lon="9.3005183"><ele>1153.0</ele><time>2026-04-11T08:49:30.038Z</time></trkpt><trkpt lat="44.7902767" lon="9.3004467"><ele>1153.0</ele><time>2026-04-11T08:49:31.038Z</time></trkpt><trkpt lat="44.7901717" lon="9.3003883"><ele>1153.0</ele><time>2026-04-11T08:49:32.038Z</time></trkpt><trkpt lat="44.7900583" lon="9.300365"><ele>1153.75</ele><time>2026-04-11T08:49:33.04Z</time></trkpt><trkpt lat="44.7899433" lon="9.3003883"><ele>1154.5</ele><time>2026-04-11T08:49:34.037Z</time></trkpt><trkpt lat="44.7898267" lon="9.3004567"><ele>1155.25</ele><time>2026-04-11T08:49:35.038Z</time></trkpt><trkpt lat="44.7897217" lon="9.3005633"><ele>1156.0</ele><time>2026-04-11T08:49:36.039Z</time></trkpt><trkpt lat="44.7896267" lon="9.3006883"><ele>1156.0</ele><time>2026-04-11T08:49:37.038Z</time></trkpt><trkpt lat="44.7895317" lon="9.3008017"><ele>1156.0</ele><time>2026-04-11T08:49:38.035Z</time></trkpt><trkpt lat="44.7894317" lon="9.3008783"><ele>1156.0</ele><time>2026-04-11T08:49:39.039Z</time></trkpt><trkpt lat="44.78933" lon="9.3009233"><ele>1156.0</ele><time>2026-04-11T08:49:40.039Z</time></trkpt><trkpt lat="44.7892283" lon="9.3009833"><ele>1155.5</ele><time>2026-04-11T08:49:41.038Z</time></trkpt><trkpt lat="44.7891317" lon="9.3010767"><ele>1155.0</ele><time>2026-04-11T08:49:42.04Z</time></trkpt><trkpt lat="44.7890517" lon="9.3011917"><ele>1154.5</ele><time>2026-04-11T08:49:43.039Z</time></trkpt><trkpt lat="44.7889933" lon="9.301325"><ele>1154.0</ele><time>2026-04-11T08:49:44.038Z</time></trkpt><trkpt lat="44.788955" lon="9.3014683"><ele>1154.0</ele><time>2026-04-11T08:49:45.039Z</time></trkpt><trkpt lat="44.7889217" lon="9.301615"><ele>1154.0</ele><time>2026-04-11T08:49:46.039Z</time></trkpt><trkpt lat="44.7888817" lon="9.3017367"><ele>1154.0</ele><time>2026-04-11T08:49:47.032Z</time></trkpt><trkpt lat="44.7888317" lon="9.3018367"><ele>1154.0</ele><time>2026-04-11T08:49:48.032Z</time></trkpt><trkpt lat="44.7887667" lon="9.30188"><ele>1154.0</ele><time>2026-04-11T08:49:49.119Z</time></trkpt><trkpt lat="44.788695" lon="9.3018617"><ele>1154.0</ele><time>2026-04-11T08:49:50.038Z</time></trkpt><trkpt lat="44.7886183" lon="9.3018"><ele>1154.0</ele><time>2026-04-11T08:49:51.038Z</time></trkpt><trkpt lat="44.7885283" lon="9.3016983"><ele>1154.0</ele><time>2026-04-11T08:49:52.04Z</time></trkpt><trkpt lat="44.7884367" lon="9.3016117"><ele>1154.0</ele><time>2026-04-11T08:49:53.038Z</time></trkpt><trkpt lat="44.788335" lon="9.3015667"><ele>1154.0</ele><time>2026-04-11T08:49:54.037Z</time></trkpt><trkpt lat="44.788235" lon="9.3015717"><ele>1154.0</ele><time>2026-04-11T08:49:55.041Z</time></trkpt><trkpt lat="44.7881367" lon="9.3016233"><ele>1152.0</ele><time>2026-04-11T08:49:56.037Z</time></trkpt><trkpt lat="44.7880417" lon="9.30169"><ele>1150.0</ele><time>2026-04-11T08:49:57.038Z</time></trkpt><trkpt lat="44.78795" lon="9.3017483"><ele>1148.0</ele><time>2026-04-11T08:49:58.036Z</time></trkpt><trkpt lat="44.7878517" lon="9.3017667"><ele>1146.0</ele><time>2026-04-11T08:49:59.037Z</time></trkpt><trkpt lat="44.78776" lon="9.3017317"><ele>1144.0</ele><time>2026-04-11T08:50:00.133Z</time></trkpt><trkpt lat="44.787695" lon="9.301645"><ele>1144.75</ele><time>2026-04-11T08:50:01.035Z</time></trkpt><trkpt lat="44.7876567" lon="9.3015333"><ele>1145.5</ele><time>2026-04-11T08:50:02.034Z</time></trkpt><trkpt lat="44.7876483" lon="9.3013933"><ele>1146.25</ele><time>2026-04-11T08:50:03.037Z</time></trkpt><trkpt lat="44.7876667" lon="9.301205"><ele>1147.0</ele><time>2026-04-11T08:50:04.037Z</time></trkpt><trkpt lat="44.787675" lon="9.3010133"><ele>1147.0</ele><time>2026-04-11T08:50:05.038Z</time></trkpt><trkpt lat="44.7876733" lon="9.3008267"><ele>1147.0</ele><time>2026-04-11T08:50:06.033Z</time></trkpt><trkpt lat="44.7876683" lon="9.3006617"><ele>1147.0</ele><time>2026-04-11T08:50:07.035Z</time></trkpt><trkpt lat="44.7876617" lon="9.30052"><ele>1147.0</ele><time>2026-04-11T08:50:08.039Z</time></trkpt><trkpt lat="44.7876417" lon="9.3004"><ele>1147.0</ele><time>2026-04-11T08:50:09.041Z</time></trkpt><trkpt lat="44.7876033" lon="9.3003033"><ele>1145.2</ele><time>2026-04-11T08:50:10.037Z</time></trkpt><trkpt lat="44.7875367" lon="9.300255"><ele>1143.4</ele><time>2026-04-11T08:50:11.037Z</time></trkpt><trkpt lat="44.7874617" lon="9.3002667"><ele>1141.6</ele><time>2026-04-11T08:50:12.037Z</time></trkpt><trkpt lat="44.7873817" lon="9.3003383"><ele>1139.8</ele><time>2026-04-11T08:50:13.04Z</time></trkpt><trkpt lat="44.7873017" lon="9.3004483"><ele>1138.0</ele><time>2026-04-11T08:50:14.038Z</time></trkpt><trkpt lat="44.787215" lon="9.3005567"><ele>1136.75</ele><time>2026-04-11T08:50:15.04Z</time></trkpt><trkpt lat="44.78712" lon="9.3006217"><ele>1135.5</ele><time>2026-04-11T08:50:16.031Z</time></trkpt><trkpt lat="44.78701" lon="9.3006367"><ele>1134.25</ele><time>2026-04-11T08:50:17.037Z</time></trkpt><trkpt lat="44.7868783" lon="9.3006067"><ele>1133.0</ele><time>2026-04-11T08:50:18.032Z</time></trkpt><trkpt lat="44.786735" lon="9.3005417"><ele>1133.0</ele><time>2026-04-11T08:50:19.04Z</time></trkpt><trkpt lat="44.7865733" lon="9.300465"><ele>1133.0</ele><time>2026-04-11T08:50:20.036Z</time></trkpt><trkpt lat="44.7864" lon="9.3003717"><ele>1133.0</ele><time>2026-04-11T08:50:21.038Z</time></trkpt><trkpt lat="44.7862233" lon="9.3002733"><ele>1133.0</ele><time>2026-04-11T08:50:22.039Z</time></trkpt><trkpt lat="44.7860517" lon="9.30017"><ele>1133.0</ele><time>2026-04-11T08:50:23.037Z</time></trkpt><trkpt lat="44.7858867" lon="9.3000683"><ele>1133.0</ele><time>2026-04-11T08:50:24.042Z</time></trkpt><trkpt lat="44.7857267" lon="9.2999683"><ele>1133.6666666666667</ele><time>2026-04-11T08:50:25.038Z</time></trkpt><trkpt lat="44.785575" lon="9.2998683"><ele>1134.3333333333333</ele><time>2026-04-11T08:50:26.031Z</time></trkpt><trkpt lat="44.78543" lon="9.29977"><ele>1135.0</ele><time>2026-04-11T08:50:27.041Z</time></trkpt><trkpt lat="44.7852933" lon="9.2996733"><ele>1132.6666666666665</ele><time>2026-04-11T08:50:28.042Z</time></trkpt><trkpt lat="44.7851567" lon="9.299585"><ele>1130.3333333333333</ele><time>2026-04-11T08:50:29.037Z</time></trkpt><trkpt lat="44.785015" lon="9.2995017"><ele>1128.0</ele><time>2026-04-11T08:50:30.038Z</time></trkpt><trkpt lat="44.7848783" lon="9.29943"><ele>1128.0</ele><time>2026-04-11T08:50:31.037Z</time></trkpt><trkpt lat="44.784745" lon="9.299365"><ele>1128.0</ele><time>2026-04-11T08:50:32.038Z</time></trkpt><trkpt lat="44.7846133" lon="9.2993133"><ele>1128.0</ele><time>2026-04-11T08:50:33.038Z</time></trkpt><trkpt lat="44.78448" lon="9.2992917"><ele>1128.0</ele><time>2026-04-11T08:50:34.038Z</time></trkpt><trkpt lat="44.7843517" lon="9.2993117"><ele>1127.6</ele><time>2026-04-11T08:50:35.036Z</time></trkpt><trkpt lat="44.78424" lon="9.2993767"><ele>1127.1999999999998</ele><time>2026-04-11T08:50:36.038Z</time></trkpt><trkpt lat="44.7841483" lon="9.2994583"><ele>1126.8</ele><time>2026-04-11T08:50:37.04Z</time></trkpt><trkpt lat="44.7840683" lon="9.299525"><ele>1126.3999999999999</ele><time>2026-04-11T08:50:38.035Z</time></trkpt><trkpt lat="44.7839883" lon="9.29955"><ele>1126.0</ele><time>2026-04-11T08:50:39.039Z</time></trkpt><trkpt lat="44.7839167" lon="9.2995217"><ele>1126.0</ele><time>2026-04-11T08:50:40.036Z</time></trkpt><trkpt lat="44.7838517" lon="9.2994783"><ele>1126.0</ele><time>2026-04-11T08:50:41.038Z</time></trkpt><trkpt lat="44.783785" lon="9.2994483"><ele>1126.0</ele><time>2026-04-11T08:50:42.037Z</time></trkpt><trkpt lat="44.7837033" lon="9.2994783"><ele>1126.0</ele><time>2026-04-11T08:50:43.038Z</time></trkpt><trkpt lat="44.7836217" lon="9.2995517"><ele>1126.0</ele><time>2026-04-11T08:50:44.039Z</time></trkpt><trkpt lat="44.78353" lon="9.2996367"><ele>1126.0</ele><time>2026-04-11T08:50:45.04Z</time></trkpt><trkpt lat="44.7834283" lon="9.2997017"><ele>1124.25</ele><time>2026-04-11T08:50:46.038Z</time></trkpt><trkpt lat="44.78332" lon="9.2997267"><ele>1122.5</ele><time>2026-04-11T08:50:47.037Z</time></trkpt><trkpt lat="44.7832083" lon="9.2997083"><ele>1120.75</ele><time>2026-04-11T08:50:48.032Z</time></trkpt><trkpt lat="44.7831017" lon="9.2996467"><ele>1119.0</ele><time>2026-04-11T08:50:49.041Z</time></trkpt><trkpt lat="44.7830067" lon="9.2995417"><ele>1119.0</ele><time>2026-04-11T08:50:50.042Z</time></trkpt><trkpt lat="44.7829183" lon="9.29941"><ele>1119.0</ele><time>2026-04-11T08:50:51.036Z</time></trkpt><trkpt lat="44.7828367" lon="9.2992617"><ele>1119.0</ele><time>2026-04-11T08:50:52.032Z</time></trkpt><trkpt lat="44.7827617" lon="9.2991083"><ele>1119.0</ele><time>2026-04-11T08:50:53.038Z</time></trkpt><trkpt lat="44.7826917" lon="9.298955"><ele>1118.6000000000001</ele><time>2026-04-11T08:50:54.038Z</time></trkpt><trkpt lat="44.7826433" lon="9.298805"><ele>1118.2</ele><time>2026-04-11T08:50:55.038Z</time></trkpt><trkpt lat="44.7825917" lon="9.2986733"><ele>1117.8000000000002</ele><time>2026-04-11T08:50:56.036Z</time></trkpt><trkpt lat="44.7825217" lon="9.2985667"><ele>1117.4</ele><time>2026-04-11T08:50:57.04Z</time></trkpt><trkpt lat="44.7824267" lon="9.2984983"><ele>1117.0</ele><time>2026-04-11T08:50:58.037Z</time></trkpt><trkpt lat="44.78231" lon="9.298465"><ele>1117.0</ele><time>2026-04-11T08:50:59.039Z</time></trkpt><trkpt lat="44.7821717" lon="9.2984683"><ele>1117.0</ele><time>2026-04-11T08:51:00.037Z</time></trkpt><trkpt lat="44.78204" lon="9.2984817"><ele>1117.0</ele><time>2026-04-11T08:51:01.037Z</time></trkpt><trkpt lat="44.7819133" lon="9.29849"><ele>1117.0</ele><time>2026-04-11T08:51:02.036Z</time></trkpt><trkpt lat="44.78179" lon="9.2984683"><ele>1117.0</ele><time>2026-04-11T08:51:03.04Z</time></trkpt><trkpt lat="44.7816933" lon="9.2983983"><ele>1117.0</ele><time>2026-04-11T08:51:04.038Z</time></trkpt><trkpt lat="44.7816183" lon="9.298295"><ele>1117.0</ele><time>2026-04-11T08:51:05.035Z</time></trkpt><trkpt lat="44.7815517" lon="9.29817"><ele>1117.0</ele><time>2026-04-11T08:51:06.035Z</time></trkpt><trkpt lat="44.78148" lon="9.298055"><ele>1117.0</ele><time>2026-04-11T08:51:07.038Z</time></trkpt><trkpt lat="44.7813917" lon="9.2979683"><ele>1117.0</ele><time>2026-04-11T08:51:08.035Z</time></trkpt><trkpt lat="44.7812867" lon="9.2979183"><ele>1117.0</ele><time>2026-04-11T08:51:09.033Z</time></trkpt><trkpt lat="44.7811667" lon="9.2979"><ele>1117.0</ele><time>2026-04-11T08:51:10.039Z</time></trkpt><trkpt lat="44.78104" lon="9.2979033"><ele>1117.0</ele><time>2026-04-11T08:51:11.039Z</time></trkpt><trkpt lat="44.7809117" lon="9.2979183"><ele>1117.25</ele><time>2026-04-11T08:51:12.04Z</time></trkpt><trkpt lat="44.7807817" lon="9.29794"><ele>1117.5</ele><time>2026-04-11T08:51:13.033Z</time></trkpt><trkpt lat="44.7806567" lon="9.2979617"><ele>1117.75</ele><time>2026-04-11T08:51:14.035Z</time></trkpt><trkpt lat="44.7805333" lon="9.2979767"><ele>1118.0</ele><time>2026-04-11T08:51:15.03Z</time></trkpt><trkpt lat="44.78042" lon="9.2979683"><ele>1118.0</ele><time>2026-04-11T08:51:16.032Z</time></trkpt><trkpt lat="44.780315" lon="9.2979167"><ele>1118.0</ele><time>2026-04-11T08:51:17.034Z</time></trkpt><trkpt lat="44.780215" lon="9.2978283"><ele>1118.0</ele><time>2026-04-11T08:51:18.033Z</time></trkpt><trkpt lat="44.780115" lon="9.2977117"><ele>1118.0</ele><time>2026-04-11T08:51:19.038Z</time></trkpt><trkpt lat="44.7800267" lon="9.297575"><ele>1118.75</ele><time>2026-04-11T08:51:20.038Z</time></trkpt><trkpt lat="44.779955" lon="9.2974217"><ele>1119.5</ele><time>2026-04-11T08:51:21.034Z</time></trkpt><trkpt lat="44.7798983" lon="9.297265"><ele>1120.25</ele><time>2026-04-11T08:51:22.036Z</time></trkpt><trkpt lat="44.7798467" lon="9.29711"><ele>1121.0</ele><time>2026-04-11T08:51:23.039Z</time></trkpt><trkpt lat="44.7797883" lon="9.2969683"><ele>1119.25</ele><time>2026-04-11T08:51:24.038Z</time></trkpt><trkpt lat="44.7797167" lon="9.2968433"><ele>1117.5</ele><time>2026-04-11T08:51:25.036Z</time></trkpt><trkpt lat="44.7796283" lon="9.296725"><ele>1115.75</ele><time>2026-04-11T08:51:26.038Z</time></trkpt><trkpt lat="44.7795283" lon="9.2966083"><ele>1114.0</ele><time>2026-04-11T08:51:27.039Z</time></trkpt><trkpt lat="44.7794233" lon="9.2964867"><ele>1112.75</ele><time>2026-04-11T08:51:28.038Z</time></trkpt><trkpt lat="44.779315" lon="9.2963633"><ele>1111.5</ele><time>2026-04-11T08:51:29.035Z</time></trkpt><trkpt lat="44.779205" lon="9.2962367"><ele>1110.25</ele><time>2026-04-11T08:51:30.038Z</time></trkpt><trkpt lat="44.7790983" lon="9.296115"><ele>1109.0</ele><time>2026-04-11T08:51:31.035Z</time></trkpt><trkpt lat="44.7789933" lon="9.296"><ele>1109.0</ele><time>2026-04-11T08:51:32.034Z</time></trkpt><trkpt lat="44.7788867" lon="9.295895"><ele>1109.0</ele><time>2026-04-11T08:51:33.04Z</time></trkpt><trkpt lat="44.778775" lon="9.295805"><ele>1109.0</ele><time>2026-04-11T08:51:34.034Z</time></trkpt><trkpt lat="44.7786533" lon="9.2957267"><ele>1109.0</ele><time>2026-04-11T08:51:35.038Z</time></trkpt><trkpt lat="44.7785283" lon="9.2956533"><ele>1107.5</ele><time>2026-04-11T08:51:36.032Z</time></trkpt><trkpt lat="44.7784067" lon="9.2955683"><ele>1106.0</ele><time>2026-04-11T08:51:37.041Z</time></trkpt><trkpt lat="44.7782883" lon="9.2954767"><ele>1104.5</ele><time>2026-04-11T08:51:38.038Z</time></trkpt><trkpt lat="44.7781633" lon="9.2954017"><ele>1103.0</ele><time>2026-04-11T08:51:39.039Z</time></trkpt><trkpt lat="44.7780317" lon="9.2953467"><ele>1103.0</ele><time>2026-04-11T08:51:40.04Z</time></trkpt><trkpt lat="44.7779083" lon="9.2953067"><ele>1103.0</ele><time>2026-04-11T08:51:41.041Z</time></trkpt><trkpt lat="44.7777933" lon="9.2952717"><ele>1103.0</ele><time>2026-04-11T08:51:42.041Z</time></trkpt><trkpt lat="44.7776867" lon="9.295255"><ele>1103.0</ele><time>2026-04-11T08:51:43.04Z</time></trkpt><trkpt lat="44.7775817" lon="9.2952717"><ele>1103.25</ele><time>2026-04-11T08:51:44.037Z</time></trkpt><trkpt lat="44.7774833" lon="9.29534"><ele>1103.5</ele><time>2026-04-11T08:51:45.037Z</time></trkpt><trkpt lat="44.7773917" lon="9.2954517"><ele>1103.75</ele><time>2026-04-11T08:51:46.038Z</time></trkpt><trkpt lat="44.7773017" lon="9.295585"><ele>1104.0</ele><time>2026-04-11T08:51:47.038Z</time></trkpt><trkpt lat="44.7772133" lon="9.2957233"><ele>1105.2</ele><time>2026-04-11T08:51:48.039Z</time></trkpt><trkpt lat="44.7771183" lon="9.2958383"><ele>1106.4</ele><time>2026-04-11T08:51:49.036Z</time></trkpt><trkpt lat="44.7770183" lon="9.295915"><ele>1107.6</ele><time>2026-04-11T08:51:50.038Z</time></trkpt><trkpt lat="44.7769217" lon="9.2959333"><ele>1108.8</ele><time>2026-04-11T08:51:51.038Z</time></trkpt><trkpt lat="44.7768283" lon="9.2959"><ele>1110.0</ele><time>2026-04-11T08:51:52.043Z</time></trkpt><trkpt lat="44.7767367" lon="9.295855"><ele>1110.0</ele><time>2026-04-11T08:51:53.038Z</time></trkpt><trkpt lat="44.7766433" lon="9.29584"><ele>1110.0</ele><time>2026-04-11T08:51:54.038Z</time></trkpt><trkpt lat="44.7765433" lon="9.2958767"><ele>1110.0</ele><time>2026-04-11T08:51:55.042Z</time></trkpt><trkpt lat="44.7764433" lon="9.2959567"><ele>1110.0</ele><time>2026-04-11T08:51:56.04Z</time></trkpt><trkpt lat="44.776335" lon="9.29605"><ele>1110.0</ele><time>2026-04-11T08:51:57.04Z</time></trkpt><trkpt lat="44.7762183" lon="9.2961067"><ele>1110.0</ele><time>2026-04-11T08:51:58.042Z</time></trkpt><trkpt lat="44.7760933" lon="9.2961133"><ele>1110.0</ele><time>2026-04-11T08:51:59.04Z</time></trkpt><trkpt lat="44.7759667" lon="9.2960983"><ele>1110.0</ele><time>2026-04-11T08:52:00.038Z</time></trkpt><trkpt lat="44.7758383" lon="9.2960767"><ele>1110.0</ele><time>2026-04-11T08:52:01.038Z</time></trkpt><trkpt lat="44.7757167" lon="9.296035"><ele>1109.25</ele><time>2026-04-11T08:52:02.041Z</time></trkpt><trkpt lat="44.77561" lon="9.2959667"><ele>1108.5</ele><time>2026-04-11T08:52:03.042Z</time></trkpt><trkpt lat="44.7755167" lon="9.2958717"><ele>1107.75</ele><time>2026-04-11T08:52:04.043Z</time></trkpt><trkpt lat="44.77543" lon="9.2957483"><ele>1107.0</ele><time>2026-04-11T08:52:05.039Z</time></trkpt><trkpt lat="44.7753467" lon="9.29561"><ele>1107.25</ele><time>2026-04-11T08:52:06.042Z</time></trkpt><trkpt lat="44.775265" lon="9.295475"><ele>1107.5</ele><time>2026-04-11T08:52:07.033Z</time></trkpt><trkpt lat="44.775175" lon="9.29536"><ele>1107.75</ele><time>2026-04-11T08:52:08.039Z</time></trkpt><trkpt lat="44.775075" lon="9.2952717"><ele>1108.0</ele><time>2026-04-11T08:52:09.043Z</time></trkpt><trkpt lat="44.7749633" lon="9.295205"><ele>1108.0</ele><time>2026-04-11T08:52:10.038Z</time></trkpt><trkpt lat="44.774855" lon="9.2951317"><ele>1108.0</ele><time>2026-04-11T08:52:11.037Z</time></trkpt><trkpt lat="44.7747583" lon="9.2950367"><ele>1108.0</ele><time>2026-04-11T08:52:12.04Z</time></trkpt><trkpt lat="44.7746883" lon="9.2949133"><ele>1108.0</ele><time>2026-04-11T08:52:13.038Z</time></trkpt><trkpt lat="44.77464" lon="9.2947617"><ele>1106.5</ele><time>2026-04-11T08:52:14.038Z</time></trkpt><trkpt lat="44.7745967" lon="9.2945983"><ele>1105.0</ele><time>2026-04-11T08:52:15.039Z</time></trkpt><trkpt lat="44.7745517" lon="9.2944417"><ele>1103.5</ele><time>2026-04-11T08:52:16.038Z</time></trkpt><trkpt lat="44.7744967" lon="9.2943033"><ele>1102.0</ele><time>2026-04-11T08:52:17.035Z</time></trkpt><trkpt lat="44.7744333" lon="9.2941917"><ele>1102.0</ele><time>2026-04-11T08:52:18.036Z</time></trkpt><trkpt lat="44.7743633" lon="9.2941067"><ele>1102.0</ele><time>2026-04-11T08:52:19.04Z</time></trkpt><trkpt lat="44.7742867" lon="9.2940483"><ele>1102.0</ele><time>2026-04-11T08:52:20.04Z</time></trkpt><trkpt lat="44.7742133" lon="9.2940083"><ele>1102.0</ele><time>2026-04-11T08:52:21.04Z</time></trkpt><trkpt lat="44.7741467" lon="9.2939867"><ele>1102.0</ele><time>2026-04-11T08:52:22.044Z</time></trkpt><trkpt lat="44.77405" lon="9.294025"><ele>1102.0</ele><time>2026-04-11T08:52:24.041Z</time></trkpt><trkpt lat="44.77403" lon="9.2941467"><ele>1102.8333333333333</ele><time>2026-04-11T08:52:26.037Z</time></trkpt><trkpt lat="44.7740633" lon="9.294225"><ele>1103.6666666666665</ele><time>2026-04-11T08:52:28.039Z</time></trkpt><trkpt lat="44.7740033" lon="9.2942817"><ele>1104.5</ele><time>2026-04-11T08:53:04.034Z</time></trkpt><trkpt lat="44.7739083" lon="9.2943083"><ele>1105.3333333333333</ele><time>2026-04-11T08:53:50.038Z</time></trkpt><trkpt lat="44.7738117" lon="9.29438"><ele>1106.1666666666667</ele><time>2026-04-11T08:54:59.033Z</time></trkpt><trkpt lat="44.7737867" lon="9.2942967"><ele>1107.0</ele><time>2026-04-11T08:55:03.031Z</time></trkpt><trkpt lat="44.7737533" lon="9.2942033"><ele>1107.0</ele><time>2026-04-11T08:55:10.031Z</time></trkpt><trkpt lat="44.77387" lon="9.294305"><ele>1107.0</ele><time>2026-04-11T08:55:25.031Z</time></trkpt><trkpt lat="44.773925" lon="9.2943717"><ele>1107.0</ele><time>2026-04-11T08:56:02.03Z</time></trkpt><trkpt lat="44.77386" lon="9.2943867"><ele>1107.0</ele><time>2026-04-11T08:56:12.037Z</time></trkpt><trkpt lat="44.773935" lon="9.294455"><ele>1107.0</ele><time>2026-04-11T08:58:33.034Z</time></trkpt><trkpt lat="44.7739233" lon="9.29435"><ele>1107.0</ele><time>2026-04-11T09:02:22.037Z</time></trkpt><trkpt lat="44.7739583" lon="9.29427"><ele>1107.0</ele><time>2026-04-11T09:02:29.031Z</time></trkpt><trkpt lat="44.7740333" lon="9.29426"><ele>1107.0</ele><time>2026-04-11T09:04:33.037Z</time></trkpt><trkpt lat="44.7740567" lon="9.2941267"><ele>1107.0</ele><time>2026-04-11T09:06:06.03Z</time></trkpt><trkpt lat="44.7740567" lon="9.294025"><ele>1107.0</ele><time>2026-04-11T09:06:08.035Z</time></trkpt><trkpt lat="44.773995" lon="9.2940067"><ele>1107.0</ele><time>2026-04-11T09:06:10.036Z</time></trkpt><trkpt lat="44.77391" lon="9.2940917"><ele>1107.0</ele><time>2026-04-11T09:06:12.04Z</time></trkpt><trkpt lat="44.7738167" lon="9.2942"><ele>1107.0</ele><time>2026-04-11T09:06:14.038Z</time></trkpt><trkpt lat="44.7737433" lon="9.294335"><ele>1107.0</ele><time>2026-04-11T09:06:16.041Z</time></trkpt><trkpt lat="44.7737117" lon="9.2944183"><ele>1107.0</ele><time>2026-04-11T09:06:17.042Z</time></trkpt><trkpt lat="44.773675" lon="9.294515"><ele>1107.0</ele><time>2026-04-11T09:06:18.035Z</time></trkpt><trkpt lat="44.773635" lon="9.294615"><ele>1107.0</ele><time>2026-04-11T09:06:19.038Z</time></trkpt><trkpt lat="44.7735883" lon="9.2947133"><ele>1107.0</ele><time>2026-04-11T09:06:20.035Z</time></trkpt><trkpt lat="44.773535" lon="9.2948117"><ele>1105.5</ele><time>2026-04-11T09:06:21.039Z</time></trkpt><trkpt lat="44.77348" lon="9.2949083"><ele>1104.0</ele><time>2026-04-11T09:06:22.037Z</time></trkpt><trkpt lat="44.7734233" lon="9.2950017"><ele>1102.5</ele><time>2026-04-11T09:06:23.038Z</time></trkpt><trkpt lat="44.7733683" lon="9.2950933"><ele>1101.0</ele><time>2026-04-11T09:06:24.038Z</time></trkpt><trkpt lat="44.773315" lon="9.2951833"><ele>1099.5</ele><time>2026-04-11T09:06:25.04Z</time></trkpt><trkpt lat="44.7732617" lon="9.2952683"><ele>1098.0</ele><time>2026-04-11T09:06:26.038Z</time></trkpt><trkpt lat="44.773205" lon="9.2953533"><ele>1098.0</ele><time>2026-04-11T09:06:27.039Z</time></trkpt><trkpt lat="44.77314" lon="9.2954417"><ele>1098.0</ele><time>2026-04-11T09:06:28.033Z</time></trkpt><trkpt lat="44.773065" lon="9.2955283"><ele>1098.0</ele><time>2026-04-11T09:06:29.034Z</time></trkpt><trkpt lat="44.7729867" lon="9.2956067"><ele>1098.0</ele><time>2026-04-11T09:06:30.035Z</time></trkpt><trkpt lat="44.772915" lon="9.29569"><ele>1098.0</ele><time>2026-04-11T09:06:31.031Z</time></trkpt><trkpt lat="44.7728667" lon="9.2957917"><ele>1098.8</ele><time>2026-04-11T09:06:32.034Z</time></trkpt><trkpt lat="44.77284" lon="9.29591"><ele>1099.6</ele><time>2026-04-11T09:06:33.035Z</time></trkpt><trkpt lat="44.7728283" lon="9.2960417"><ele>1100.4</ele><time>2026-04-11T09:06:34.039Z</time></trkpt><trkpt lat="44.772815" lon="9.29618"><ele>1101.2</ele><time>2026-04-11T09:06:35.034Z</time></trkpt><trkpt lat="44.772795" lon="9.2963067"><ele>1102.0</ele><time>2026-04-11T09:06:36.041Z</time></trkpt><trkpt lat="44.7727533" lon="9.2964233"><ele>1102.1666666666665</ele><time>2026-04-11T09:06:37.036Z</time></trkpt><trkpt lat="44.7727" lon="9.2965283"><ele>1102.3333333333333</ele><time>2026-04-11T09:06:38.041Z</time></trkpt><trkpt lat="44.772655" lon="9.2966283"><ele>1102.5</ele><time>2026-04-11T09:06:39.043Z</time></trkpt><trkpt lat="44.7726267" lon="9.2967417"><ele>1102.6666666666667</ele><time>2026-04-11T09:06:40.039Z</time></trkpt><trkpt lat="44.772605" lon="9.2968667"><ele>1102.8333333333335</ele><time>2026-04-11T09:06:41.041Z</time></trkpt><trkpt lat="44.772585" lon="9.2969967"><ele>1103.0</ele><time>2026-04-11T09:06:42.04Z</time></trkpt><trkpt lat="44.7725667" lon="9.2971217"><ele>1100.6666666666667</ele><time>2026-04-11T09:06:43.04Z</time></trkpt><trkpt lat="44.7725567" lon="9.2972417"><ele>1098.3333333333335</ele><time>2026-04-11T09:06:44.04Z</time></trkpt><trkpt lat="44.7725667" lon="9.2973517"><ele>1096.0</ele><time>2026-04-11T09:06:45.03Z</time></trkpt><trkpt lat="44.7726" lon="9.2974417"><ele>1093.6666666666667</ele><time>2026-04-11T09:06:46.035Z</time></trkpt><trkpt lat="44.7726667" lon="9.29752"><ele>1091.3333333333333</ele><time>2026-04-11T09:06:47.04Z</time></trkpt><trkpt lat="44.772745" lon="9.2975917"><ele>1089.0</ele><time>2026-04-11T09:06:48.04Z</time></trkpt><trkpt lat="44.7728267" lon="9.297665"><ele>1089.0</ele><time>2026-04-11T09:06:49.039Z</time></trkpt><trkpt lat="44.7729017" lon="9.29774"><ele>1089.0</ele><time>2026-04-11T09:06:50.038Z</time></trkpt><trkpt lat="44.7729783" lon="9.297815"><ele>1089.0</ele><time>2026-04-11T09:06:51.041Z</time></trkpt><trkpt lat="44.77305" lon="9.2978967"><ele>1089.0</ele><time>2026-04-11T09:06:52.039Z</time></trkpt><trkpt lat="44.7731183" lon="9.2979867"><ele>1089.0</ele><time>2026-04-11T09:06:53.038Z</time></trkpt><trkpt lat="44.77318" lon="9.2980883"><ele>1086.6000000000001</ele><time>2026-04-11T09:06:54.038Z</time></trkpt><trkpt lat="44.7732383" lon="9.2982"><ele>1084.2</ele><time>2026-04-11T09:06:55.038Z</time></trkpt><trkpt lat="44.7732967" lon="9.2983133"><ele>1081.8000000000002</ele><time>2026-04-11T09:06:56.038Z</time></trkpt><trkpt lat="44.77335" lon="9.2984167"><ele>1079.4</ele><time>2026-04-11T09:06:57.04Z</time></trkpt><trkpt lat="44.7734083" lon="9.2985033"><ele>1077.0</ele><time>2026-04-11T09:06:58.039Z</time></trkpt><trkpt lat="44.77347" lon="9.298575"><ele>1079.1666666666667</ele><time>2026-04-11T09:06:59.036Z</time></trkpt><trkpt lat="44.773525" lon="9.298645"><ele>1081.3333333333333</ele><time>2026-04-11T09:07:00.04Z</time></trkpt><trkpt lat="44.7735567" lon="9.2987217"><ele>1083.5</ele><time>2026-04-11T09:07:01.03Z</time></trkpt><trkpt lat="44.773575" lon="9.2988867"><ele>1085.6666666666665</ele><time>2026-04-11T09:07:03.042Z</time></trkpt><trkpt lat="44.7736133" lon="9.2989733"><ele>1087.8333333333333</ele><time>2026-04-11T09:07:04.044Z</time></trkpt><trkpt lat="44.7736683" lon="9.2990517"><ele>1090.0</ele><time>2026-04-11T09:07:05.032Z</time></trkpt><trkpt lat="44.7737367" lon="9.29912"><ele>1090.0</ele><time>2026-04-11T09:07:06.036Z</time></trkpt><trkpt lat="44.77381" lon="9.2991767"><ele>1090.0</ele><time>2026-04-11T09:07:07.035Z</time></trkpt><trkpt lat="44.773895" lon="9.2992233"><ele>1090.0</ele><time>2026-04-11T09:07:08.032Z</time></trkpt><trkpt lat="44.7740017" lon="9.2992383"><ele>1090.0</ele><time>2026-04-11T09:07:09.031Z</time></trkpt><trkpt lat="44.7741133" lon="9.2992567"><ele>1090.0</ele><time>2026-04-11T09:07:10.032Z</time></trkpt><trkpt lat="44.7742283" lon="9.2993167"><ele>1090.0</ele><time>2026-04-11T09:07:11.031Z</time></trkpt><trkpt lat="44.774335" lon="9.2993933"><ele>1090.0</ele><time>2026-04-11T09:07:12.03Z</time></trkpt><trkpt lat="44.7744317" lon="9.2994617"><ele>1090.0</ele><time>2026-04-11T09:07:13.034Z</time></trkpt><trkpt lat="44.7745083" lon="9.2995267"><ele>1090.0</ele><time>2026-04-11T09:07:14.033Z</time></trkpt><trkpt lat="44.7745517" lon="9.2996133"><ele>1090.0</ele><time>2026-04-11T09:07:15.039Z</time></trkpt><trkpt lat="44.7745633" lon="9.2997117"><ele>1093.8</ele><time>2026-04-11T09:07:16.037Z</time></trkpt><trkpt lat="44.774555" lon="9.2998067"><ele>1097.6</ele><time>2026-04-11T09:07:17.042Z</time></trkpt><trkpt lat="44.7745367" lon="9.299915"><ele>1101.4</ele><time>2026-04-11T09:07:18.032Z</time></trkpt><trkpt lat="44.7745017" lon="9.30004"><ele>1105.2</ele><time>2026-04-11T09:07:19.03Z</time></trkpt><trkpt lat="44.7744417" lon="9.3001717"><ele>1109.0</ele><time>2026-04-11T09:07:20.031Z</time></trkpt><trkpt lat="44.774375" lon="9.300295"><ele>1107.25</ele><time>2026-04-11T09:07:21.03Z</time></trkpt><trkpt lat="44.7742983" lon="9.30042"><ele>1105.5</ele><time>2026-04-11T09:07:22.031Z</time></trkpt><trkpt lat="44.7742167" lon="9.30056"><ele>1103.75</ele><time>2026-04-11T09:07:23.029Z</time></trkpt><trkpt lat="44.77415" lon="9.3006967"><ele>1102.0</ele><time>2026-04-11T09:07:24.032Z</time></trkpt><trkpt lat="44.77409" lon="9.30085"><ele>1102.0</ele><time>2026-04-11T09:07:25.033Z</time></trkpt><trkpt lat="44.774025" lon="9.301005"><ele>1102.0</ele><time>2026-04-11T09:07:26.032Z</time></trkpt><trkpt lat="44.7739467" lon="9.3011417"><ele>1102.0</ele><time>2026-04-11T09:07:27.033Z</time></trkpt><trkpt lat="44.77386" lon="9.3012783"><ele>1102.0</ele><time>2026-04-11T09:07:28.035Z</time></trkpt><trkpt lat="44.77377" lon="9.30141"><ele>1103.0</ele><time>2026-04-11T09:07:29.03Z</time></trkpt><trkpt lat="44.7736833" lon="9.3015467"><ele>1104.0</ele><time>2026-04-11T09:07:30.033Z</time></trkpt><trkpt lat="44.773595" lon="9.3016567"><ele>1105.0</ele><time>2026-04-11T09:07:31.032Z</time></trkpt><trkpt lat="44.77351" lon="9.3017417"><ele>1106.0</ele><time>2026-04-11T09:07:32.037Z</time></trkpt><trkpt lat="44.7734367" lon="9.301805"><ele>1107.0</ele><time>2026-04-11T09:07:33.037Z</time></trkpt><trkpt lat="44.7733583" lon="9.3018333"><ele>1107.0</ele><time>2026-04-11T09:07:34.036Z</time></trkpt><trkpt lat="44.773275" lon="9.3018233"><ele>1107.0</ele><time>2026-04-11T09:07:35.04Z</time></trkpt><trkpt lat="44.7731917" lon="9.3017717"><ele>1107.0</ele><time>2026-04-11T09:07:36.036Z</time></trkpt><trkpt lat="44.7731167" lon="9.3017117"><ele>1107.0</ele><time>2026-04-11T09:07:37.038Z</time></trkpt><trkpt lat="44.773035" lon="9.30165"><ele>1107.0</ele><time>2026-04-11T09:07:38.032Z</time></trkpt><trkpt lat="44.7729433" lon="9.30162"><ele>1107.0</ele><time>2026-04-11T09:07:39.039Z</time></trkpt><trkpt lat="44.7728667" lon="9.3016367"><ele>1107.0</ele><time>2026-04-11T09:07:40.039Z</time></trkpt><trkpt lat="44.7728067" lon="9.3016867"><ele>1107.0</ele><time>2026-04-11T09:07:41.034Z</time></trkpt><trkpt lat="44.772755" lon="9.3017733"><ele>1107.0</ele><time>2026-04-11T09:07:42.032Z</time></trkpt><trkpt lat="44.7726967" lon="9.3019017"><ele>1107.0</ele><time>2026-04-11T09:07:43.034Z</time></trkpt><trkpt lat="44.77263" lon="9.30202"><ele>1107.0</ele><time>2026-04-11T09:07:44.031Z</time></trkpt><trkpt lat="44.77257" lon="9.30213"><ele>1107.8</ele><time>2026-04-11T09:07:45.032Z</time></trkpt><trkpt lat="44.7725233" lon="9.302235"><ele>1108.6</ele><time>2026-04-11T09:07:46.03Z</time></trkpt><trkpt lat="44.7725117" lon="9.3023667"><ele>1109.3999999999999</ele><time>2026-04-11T09:07:47.029Z</time></trkpt><trkpt lat="44.7725233" lon="9.3024833"><ele>1110.2</ele><time>2026-04-11T09:07:48.03Z</time></trkpt><trkpt lat="44.772525" lon="9.302625"><ele>1111.0</ele><time>2026-04-11T09:07:49.029Z</time></trkpt><trkpt lat="44.7725067" lon="9.3027567"><ele>1111.0</ele><time>2026-04-11T09:07:50.029Z</time></trkpt><trkpt lat="44.772475" lon="9.30286"><ele>1111.0</ele><time>2026-04-11T09:07:51.036Z</time></trkpt><trkpt lat="44.7724483" lon="9.3029633"><ele>1111.0</ele><time>2026-04-11T09:07:52.031Z</time></trkpt><trkpt lat="44.7724367" lon="9.3030733"><ele>1111.0</ele><time>2026-04-11T09:07:53.036Z</time></trkpt><trkpt lat="44.7724417" lon="9.303195"><ele>1111.0</ele><time>2026-04-11T09:07:54.034Z</time></trkpt><trkpt lat="44.7724333" lon="9.3033317"><ele>1111.0</ele><time>2026-04-11T09:07:55.03Z</time></trkpt><trkpt lat="44.7724083" lon="9.3034717"><ele>1113.1666666666665</ele><time>2026-04-11T09:07:56.03Z</time></trkpt><trkpt lat="44.7723733" lon="9.3036017"><ele>1115.3333333333333</ele><time>2026-04-11T09:07:57.031Z</time></trkpt><trkpt lat="44.7723467" lon="9.3037283"><ele>1117.5</ele><time>2026-04-11T09:07:58.035Z</time></trkpt><trkpt lat="44.7723133" lon="9.3038417"><ele>1119.6666666666667</ele><time>2026-04-11T09:07:59.029Z</time></trkpt><trkpt lat="44.7722733" lon="9.3039333"><ele>1121.8333333333335</ele><time>2026-04-11T09:08:00.029Z</time></trkpt><trkpt lat="44.7722167" lon="9.3040017"><ele>1124.0</ele><time>2026-04-11T09:08:01.034Z</time></trkpt><trkpt lat="44.772145" lon="9.30403"><ele>1122.0</ele><time>2026-04-11T09:08:02.029Z</time></trkpt><trkpt lat="44.7720683" lon="9.304005"><ele>1120.0</ele><time>2026-04-11T09:08:03.03Z</time></trkpt><trkpt lat="44.7720067" lon="9.30397"><ele>1118.0</ele><time>2026-04-11T09:08:04.037Z</time></trkpt><trkpt lat="44.7718933" lon="9.303945"><ele>1116.0</ele><time>2026-04-11T09:08:06.034Z</time></trkpt><trkpt lat="44.771805" lon="9.30406"><ele>1114.0</ele><time>2026-04-11T09:08:08.04Z</time></trkpt><trkpt lat="44.7717617" lon="9.3041583"><ele>1114.0</ele><time>2026-04-11T09:08:09.034Z</time></trkpt><trkpt lat="44.77171" lon="9.304275"><ele>1114.0</ele><time>2026-04-11T09:08:10.032Z</time></trkpt><trkpt lat="44.7716517" lon="9.3044017"><ele>1114.0</ele><time>2026-04-11T09:08:11.032Z</time></trkpt><trkpt lat="44.7715967" lon="9.3045317"><ele>1114.0</ele><time>2026-04-11T09:08:12.036Z</time></trkpt><trkpt lat="44.7715417" lon="9.3046667"><ele>1114.0</ele><time>2026-04-11T09:08:13.031Z</time></trkpt><trkpt lat="44.7714983" lon="9.3048167"><ele>1116.6666666666665</ele><time>2026-04-11T09:08:14.03Z</time></trkpt><trkpt lat="44.7714633" lon="9.304955"><ele>1119.3333333333333</ele><time>2026-04-11T09:08:15.034Z</time></trkpt><trkpt lat="44.7714533" lon="9.3050783"><ele>1122.0</ele><time>2026-04-11T09:08:16.035Z</time></trkpt><trkpt lat="44.77146" lon="9.3051833"><ele>1124.6666666666667</ele><time>2026-04-11T09:08:17.035Z</time></trkpt><trkpt lat="44.7714933" lon="9.3052683"><ele>1127.3333333333335</ele><time>2026-04-11T09:08:18.036Z</time></trkpt><trkpt lat="44.77156" lon="9.3053433"><ele>1130.0</ele><time>2026-04-11T09:08:19.03Z</time></trkpt><trkpt lat="44.7716267" lon="9.3054317"><ele>1130.0</ele><time>2026-04-11T09:08:20.03Z</time></trkpt><trkpt lat="44.771695" lon="9.30553"><ele>1130.0</ele><time>2026-04-11T09:08:21.038Z</time></trkpt><trkpt lat="44.7717667" lon="9.3056333"><ele>1130.0</ele><time>2026-04-11T09:08:22.036Z</time></trkpt><trkpt lat="44.7718517" lon="9.30573"><ele>1130.0</ele><time>2026-04-11T09:08:23.031Z</time></trkpt><trkpt lat="44.7719467" lon="9.3058233"><ele>1130.0</ele><time>2026-04-11T09:08:24.031Z</time></trkpt><trkpt lat="44.7720517" lon="9.305915"><ele>1134.0</ele><time>2026-04-11T09:08:25.03Z</time></trkpt><trkpt lat="44.77215" lon="9.3060217"><ele>1138.0</ele><time>2026-04-11T09:08:26.03Z</time></trkpt><trkpt lat="44.7722433" lon="9.306145"><ele>1142.0</ele><time>2026-04-11T09:08:27.03Z</time></trkpt><trkpt lat="44.77233" lon="9.3062767"><ele>1146.0</ele><time>2026-04-11T09:08:28.03Z</time></trkpt><trkpt lat="44.7724017" lon="9.30643"><ele>1146.0</ele><time>2026-04-11T09:08:29.033Z</time></trkpt><trkpt lat="44.77247" lon="9.306595"><ele>1146.0</ele><time>2026-04-11T09:08:30.032Z</time></trkpt><trkpt lat="44.7725367" lon="9.3067667"><ele>1146.0</ele><time>2026-04-11T09:08:31.031Z</time></trkpt><trkpt lat="44.772605" lon="9.3069417"><ele>1146.0</ele><time>2026-04-11T09:08:32.032Z</time></trkpt><trkpt lat="44.7726717" lon="9.3071167"><ele>1157.25</ele><time>2026-04-11T09:08:33.033Z</time></trkpt><trkpt lat="44.7727383" lon="9.307295"><ele>1168.5</ele><time>2026-04-11T09:08:34.032Z</time></trkpt><trkpt lat="44.7727983" lon="9.3074533"><ele>1179.75</ele><time>2026-04-11T09:08:35.035Z</time></trkpt><trkpt lat="44.772845" lon="9.307595"><ele>1191.0</ele><time>2026-04-11T09:08:36.031Z</time></trkpt><trkpt lat="44.772865" lon="9.3077233"><ele>1191.0</ele><time>2026-04-11T09:08:37.034Z</time></trkpt><trkpt lat="44.7728583" lon="9.3078533"><ele>1191.0</ele><time>2026-04-11T09:08:38.032Z</time></trkpt><trkpt lat="44.7728317" lon="9.30799"><ele>1191.0</ele><time>2026-04-11T09:08:39.033Z</time></trkpt><trkpt lat="44.772805" lon="9.3081417"><ele>1191.0</ele><time>2026-04-11T09:08:40.038Z</time></trkpt><trkpt lat="44.7727883" lon="9.3083033"><ele>1191.0</ele><time>2026-04-11T09:08:41.031Z</time></trkpt><trkpt lat="44.77278" lon="9.308475"><ele>1191.2</ele><time>2026-04-11T09:08:42.029Z</time></trkpt><trkpt lat="44.7727817" lon="9.308635"><ele>1191.3999999999999</ele><time>2026-04-11T09:08:43.038Z</time></trkpt><trkpt lat="44.7727783" lon="9.3087667"><ele>1191.6</ele><time>2026-04-11T09:08:44.034Z</time></trkpt><trkpt lat="44.772755" lon="9.30888"><ele>1191.8</ele><time>2026-04-11T09:08:45.041Z</time></trkpt><trkpt lat="44.7727133" lon="9.308985"><ele>1192.0</ele><time>2026-04-11T09:08:46.032Z</time></trkpt><trkpt lat="44.7726533" lon="9.3090883"><ele>1185.2</ele><time>2026-04-11T09:08:47.034Z</time></trkpt><trkpt lat="44.77261" lon="9.3092117"><ele>1178.4</ele><time>2026-04-11T09:08:48.037Z</time></trkpt><trkpt lat="44.7725917" lon="9.30935"><ele>1171.6</ele><time>2026-04-11T09:08:49.041Z</time></trkpt><trkpt lat="44.7725767" lon="9.3094917"><ele>1164.8</ele><time>2026-04-11T09:08:50.039Z</time></trkpt><trkpt lat="44.7725817" lon="9.30962"><ele>1158.0</ele><time>2026-04-11T09:08:51.04Z</time></trkpt><trkpt lat="44.7726133" lon="9.30974"><ele>1158.2</ele><time>2026-04-11T09:08:52.039Z</time></trkpt><trkpt lat="44.77267" lon="9.3098483"><ele>1158.4</ele><time>2026-04-11T09:08:53.031Z</time></trkpt><trkpt lat="44.7727317" lon="9.309945"><ele>1158.6000000000001</ele><time>2026-04-11T09:08:54.04Z</time></trkpt><trkpt lat="44.7727833" lon="9.3100333"><ele>1158.8</ele><time>2026-04-11T09:08:55.041Z</time></trkpt><trkpt lat="44.7728083" lon="9.3101233"><ele>1159.0</ele><time>2026-04-11T09:08:56.031Z</time></trkpt><trkpt lat="44.7727767" lon="9.3103017"><ele>1159.3333333333333</ele><time>2026-04-11T09:08:58.029Z</time></trkpt><trkpt lat="44.7727283" lon="9.3103983"><ele>1159.6666666666665</ele><time>2026-04-11T09:08:59.029Z</time></trkpt><trkpt lat="44.7726983" lon="9.3105033"><ele>1160.0</ele><time>2026-04-11T09:09:00.031Z</time></trkpt><trkpt lat="44.77269" lon="9.3106333"><ele>1160.3333333333333</ele><time>2026-04-11T09:09:01.029Z</time></trkpt><trkpt lat="44.7726867" lon="9.3107567"><ele>1160.6666666666667</ele><time>2026-04-11T09:09:02.03Z</time></trkpt><trkpt lat="44.772675" lon="9.3108817"><ele>1161.0</ele><time>2026-04-11T09:09:03.04Z</time></trkpt><trkpt lat="44.7726683" lon="9.3109817"><ele>1167.2</ele><time>2026-04-11T09:09:04.041Z</time></trkpt><trkpt lat="44.7727083" lon="9.3111367"><ele>1173.3999999999999</ele><time>2026-04-11T09:09:06.043Z</time></trkpt><trkpt lat="44.7727667" lon="9.3111933"><ele>1179.6</ele><time>2026-04-11T09:09:07.035Z</time></trkpt><trkpt lat="44.7728367" lon="9.311255"><ele>1185.8</ele><time>2026-04-11T09:09:08.038Z</time></trkpt><trkpt lat="44.7729267" lon="9.311325"><ele>1192.0</ele><time>2026-04-11T09:09:09.03Z</time></trkpt><trkpt lat="44.773025" lon="9.31141"><ele>1192.0</ele><time>2026-04-11T09:09:10.031Z</time></trkpt><trkpt lat="44.7731183" lon="9.3115183"><ele>1192.0</ele><time>2026-04-11T09:09:11.032Z</time></trkpt><trkpt lat="44.7732" lon="9.3116633"><ele>1192.0</ele><time>2026-04-11T09:09:12.03Z</time></trkpt><trkpt lat="44.7732767" lon="9.3118317"><ele>1192.0</ele><time>2026-04-11T09:09:13.03Z</time></trkpt><trkpt lat="44.7733467" lon="9.3120017"><ele>1192.0</ele><time>2026-04-11T09:09:14.029Z</time></trkpt><trkpt lat="44.773405" lon="9.3121583"><ele>1192.0</ele><time>2026-04-11T09:09:15.031Z</time></trkpt><trkpt lat="44.7734633" lon="9.3123183"><ele>1192.0</ele><time>2026-04-11T09:09:16.03Z</time></trkpt><trkpt lat="44.7735117" lon="9.3124817"><ele>1192.0</ele><time>2026-04-11T09:09:17.032Z</time></trkpt><trkpt lat="44.7735383" lon="9.312665"><ele>1189.75</ele><time>2026-04-11T09:09:18.038Z</time></trkpt><trkpt lat="44.7735433" lon="9.3128517"><ele>1187.5</ele><time>2026-04-11T09:09:19.039Z</time></trkpt><trkpt lat="44.7735217" lon="9.3130367"><ele>1185.25</ele><time>2026-04-11T09:09:20.039Z</time></trkpt><trkpt lat="44.7735117" lon="9.3131933"><ele>1183.0</ele><time>2026-04-11T09:09:21.039Z</time></trkpt><trkpt lat="44.7735067" lon="9.3133367"><ele>1183.0</ele><time>2026-04-11T09:09:22.038Z</time></trkpt><trkpt lat="44.7735067" lon="9.3134817"><ele>1183.0</ele><time>2026-04-11T09:09:23.039Z</time></trkpt><trkpt lat="44.7735383" lon="9.3136267"><ele>1183.0</ele><time>2026-04-11T09:09:24.03Z</time></trkpt><trkpt lat="44.7735917" lon="9.3137633"><ele>1183.0</ele><time>2026-04-11T09:09:25.032Z</time></trkpt><trkpt lat="44.7736717" lon="9.31385"><ele>1183.0</ele><time>2026-04-11T09:09:26.03Z</time></trkpt><trkpt lat="44.7737267" lon="9.3139517"><ele>1181.5</ele><time>2026-04-11T09:09:27.03Z</time></trkpt><trkpt lat="44.7738367" lon="9.314025"><ele>1180.0</ele><time>2026-04-11T09:09:29.032Z</time></trkpt><trkpt lat="44.7739117" lon="9.3139983"><ele>1178.5</ele><time>2026-04-11T09:09:30.03Z</time></trkpt><trkpt lat="44.774" lon="9.31399"><ele>1177.0</ele><time>2026-04-11T09:09:31.029Z</time></trkpt><trkpt lat="44.7741583" lon="9.3139367"><ele>1186.3333333333333</ele><time>2026-04-11T09:09:32.041Z</time></trkpt><trkpt lat="44.774305" lon="9.3138933"><ele>1195.6666666666667</ele><time>2026-04-11T09:09:33.036Z</time></trkpt><trkpt lat="44.774455" lon="9.3138517"><ele>1205.0</ele><time>2026-04-11T09:09:34.036Z</time></trkpt><trkpt lat="44.7746067" lon="9.3137817"><ele>1205.0</ele><time>2026-04-11T09:09:35.04Z</time></trkpt><trkpt lat="44.77474" lon="9.3137233"><ele>1205.0</ele><time>2026-04-11T09:09:36.037Z</time></trkpt><trkpt lat="44.7748717" lon="9.31367"><ele>1205.0</ele><time>2026-04-11T09:09:37.039Z</time></trkpt><trkpt lat="44.7750033" lon="9.31362"><ele>1205.0</ele><time>2026-04-11T09:09:38.039Z</time></trkpt><trkpt lat="44.7751467" lon="9.3136133"><ele>1199.6666666666667</ele><time>2026-04-11T09:09:39.039Z</time></trkpt><trkpt lat="44.7753083" lon="9.3136117"><ele>1194.3333333333333</ele><time>2026-04-11T09:09:40.033Z</time></trkpt><trkpt lat="44.7754617" lon="9.31362"><ele>1189.0</ele><time>2026-04-11T09:09:41.037Z</time></trkpt><trkpt lat="44.77561" lon="9.3136267"><ele>1189.0</ele><time>2026-04-11T09:09:42.034Z</time></trkpt><trkpt lat="44.775755" lon="9.31362"><ele>1189.0</ele><time>2026-04-11T09:09:43.036Z</time></trkpt><trkpt lat="44.7758983" lon="9.3136183"><ele>1189.0</ele><time>2026-04-11T09:09:44.032Z</time></trkpt><trkpt lat="44.7760417" lon="9.31364"><ele>1189.0</ele><time>2026-04-11T09:09:45.041Z</time></trkpt><trkpt lat="44.7761767" lon="9.31368"><ele>1192.75</ele><time>2026-04-11T09:09:46.041Z</time></trkpt><trkpt lat="44.7763067" lon="9.31372"><ele>1196.5</ele><time>2026-04-11T09:09:47.039Z</time></trkpt><trkpt lat="44.776425" lon="9.3137567"><ele>1200.25</ele><time>2026-04-11T09:09:48.038Z</time></trkpt><trkpt lat="44.7765283" lon="9.3137983"><ele>1204.0</ele><time>2026-04-11T09:09:49.03Z</time></trkpt><trkpt lat="44.776625" lon="9.3138733"><ele>1199.6666666666665</ele><time>2026-04-11T09:09:50.038Z</time></trkpt><trkpt lat="44.77671" lon="9.3139633"><ele>1195.3333333333333</ele><time>2026-04-11T09:09:51.039Z</time></trkpt><trkpt lat="44.77678" lon="9.3140567"><ele>1191.0</ele><time>2026-04-11T09:09:52.035Z</time></trkpt><trkpt lat="44.7768133" lon="9.3141583"><ele>1186.6666666666667</ele><time>2026-04-11T09:09:53.038Z</time></trkpt><trkpt lat="44.7768567" lon="9.3142317"><ele>1182.3333333333335</ele><time>2026-04-11T09:09:54.039Z</time></trkpt><trkpt lat="44.7769167" lon="9.314275"><ele>1178.0</ele><time>2026-04-11T09:09:55.04Z</time></trkpt><trkpt lat="44.7770033" lon="9.3143033"><ele>1178.0</ele><time>2026-04-11T09:09:56.039Z</time></trkpt><trkpt lat="44.7771133" lon="9.3143167"><ele>1178.0</ele><time>2026-04-11T09:09:57.039Z</time></trkpt><trkpt lat="44.7772267" lon="9.3143217"><ele>1178.0</ele><time>2026-04-11T09:09:58.038Z</time></trkpt><trkpt lat="44.777355" lon="9.314325"><ele>1178.0</ele><time>2026-04-11T09:09:59.039Z</time></trkpt><trkpt lat="44.77746" lon="9.3143317"><ele>1178.0</ele><time>2026-04-11T09:10:00.037Z</time></trkpt><trkpt lat="44.7775567" lon="9.3143567"><ele>1178.0</ele><time>2026-04-11T09:10:01.036Z</time></trkpt><trkpt lat="44.77764" lon="9.3143983"><ele>1178.0</ele><time>2026-04-11T09:10:02.036Z</time></trkpt><trkpt lat="44.7777183" lon="9.314465"><ele>1178.0</ele><time>2026-04-11T09:10:03.038Z</time></trkpt><trkpt lat="44.7777967" lon="9.3145317"><ele>1178.0</ele><time>2026-04-11T09:10:04.038Z</time></trkpt><trkpt lat="44.77787" lon="9.3146167"><ele>1182.2</ele><time>2026-04-11T09:10:05.036Z</time></trkpt><trkpt lat="44.7779317" lon="9.31471"><ele>1186.4</ele><time>2026-04-11T09:10:06.038Z</time></trkpt><trkpt lat="44.7779767" lon="9.3148117"><ele>1190.6000000000001</ele><time>2026-04-11T09:10:07.038Z</time></trkpt><trkpt lat="44.77802" lon="9.3149217"><ele>1194.8</ele><time>2026-04-11T09:10:08.039Z</time></trkpt><trkpt lat="44.778055" lon="9.3150433"><ele>1199.0</ele><time>2026-04-11T09:10:09.037Z</time></trkpt><trkpt lat="44.7780733" lon="9.3151767"><ele>1199.0</ele><time>2026-04-11T09:10:10.031Z</time></trkpt><trkpt lat="44.7780733" lon="9.3153267"><ele>1199.0</ele><time>2026-04-11T09:10:11.031Z</time></trkpt><trkpt lat="44.7780483" lon="9.3154933"><ele>1199.0</ele><time>2026-04-11T09:10:12.037Z</time></trkpt><trkpt lat="44.7780333" lon="9.315665"><ele>1199.0</ele><time>2026-04-11T09:10:13.036Z</time></trkpt><trkpt lat="44.7780167" lon="9.3158117"><ele>1196.8</ele><time>2026-04-11T09:10:14.036Z</time></trkpt><trkpt lat="44.7780133" lon="9.315955"><ele>1194.6000000000001</ele><time>2026-04-11T09:10:15.039Z</time></trkpt><trkpt lat="44.778025" lon="9.3161083"><ele>1192.4</ele><time>2026-04-11T09:10:16.03Z</time></trkpt><trkpt lat="44.7780483" lon="9.3162667"><ele>1190.2</ele><time>2026-04-11T09:10:17.03Z</time></trkpt><trkpt lat="44.77809" lon="9.3164283"><ele>1188.0</ele><time>2026-04-11T09:10:18.032Z</time></trkpt><trkpt lat="44.7781417" lon="9.3165867"><ele>1186.0</ele><time>2026-04-11T09:10:19.031Z</time></trkpt><trkpt lat="44.7782167" lon="9.3167417"><ele>1184.0</ele><time>2026-04-11T09:10:20.032Z</time></trkpt><trkpt lat="44.7782767" lon="9.3169067"><ele>1182.0</ele><time>2026-04-11T09:10:21.03Z</time></trkpt><trkpt lat="44.7783117" lon="9.317085"><ele>1180.0</ele><time>2026-04-11T09:10:22.03Z</time></trkpt><trkpt lat="44.7783333" lon="9.31726"><ele>1179.0</ele><time>2026-04-11T09:10:23.036Z</time></trkpt><trkpt lat="44.7783617" lon="9.317415"><ele>1178.0</ele><time>2026-04-11T09:10:24.03Z</time></trkpt><trkpt lat="44.778385" lon="9.3175417"><ele>1177.0</ele><time>2026-04-11T09:10:25.03Z</time></trkpt><trkpt lat="44.778395" lon="9.3176733"><ele>1176.0</ele><time>2026-04-11T09:10:26.03Z</time></trkpt><trkpt lat="44.7784" lon="9.3178317"><ele>1175.0</ele><time>2026-04-11T09:10:27.031Z</time></trkpt><trkpt lat="44.7783883" lon="9.3180033"><ele>1175.2</ele><time>2026-04-11T09:10:28.031Z</time></trkpt><trkpt lat="44.7783583" lon="9.3181683"><ele>1175.4</ele><time>2026-04-11T09:10:29.031Z</time></trkpt><trkpt lat="44.7783267" lon="9.3183217"><ele>1175.6</ele><time>2026-04-11T09:10:30.029Z</time></trkpt><trkpt lat="44.7783133" lon="9.3184733"><ele>1175.8</ele><time>2026-04-11T09:10:31.029Z</time></trkpt><trkpt lat="44.7783183" lon="9.3186117"><ele>1176.0</ele><time>2026-04-11T09:10:32.031Z</time></trkpt><trkpt lat="44.7783167" lon="9.318745"><ele>1176.0</ele><time>2026-04-11T09:10:33.031Z</time></trkpt><trkpt lat="44.7783117" lon="9.3188933"><ele>1176.0</ele><time>2026-04-11T09:10:34.029Z</time></trkpt><trkpt lat="44.778315" lon="9.31904"><ele>1176.0</ele><time>2026-04-11T09:10:35.03Z</time></trkpt><trkpt lat="44.7783317" lon="9.31919"><ele>1176.0</ele><time>2026-04-11T09:10:36.03Z</time></trkpt><trkpt lat="44.77837" lon="9.31935"><ele>1176.0</ele><time>2026-04-11T09:10:37.03Z</time></trkpt><trkpt lat="44.77841" lon="9.319515"><ele>1175.75</ele><time>2026-04-11T09:10:38.031Z</time></trkpt><trkpt lat="44.7784417" lon="9.3196783"><ele>1175.5</ele><time>2026-04-11T09:10:39.03Z</time></trkpt><trkpt lat="44.77848" lon="9.3198383"><ele>1175.25</ele><time>2026-04-11T09:10:40.031Z</time></trkpt><trkpt lat="44.77851" lon="9.3200133"><ele>1175.0</ele><time>2026-04-11T09:10:41.035Z</time></trkpt><trkpt lat="44.7785467" lon="9.3201917"><ele>1185.75</ele><time>2026-04-11T09:10:42.036Z</time></trkpt><trkpt lat="44.778575" lon="9.320355"><ele>1196.5</ele><time>2026-04-11T09:10:43.035Z</time></trkpt><trkpt lat="44.7785833" lon="9.3205333"><ele>1207.25</ele><time>2026-04-11T09:10:44.033Z</time></trkpt><trkpt lat="44.778585" lon="9.3207067"><ele>1218.0</ele><time>2026-04-11T09:10:45.03Z</time></trkpt><trkpt lat="44.7785983" lon="9.3208733"><ele>1218.0</ele><time>2026-04-11T09:10:46.033Z</time></trkpt><trkpt lat="44.778585" lon="9.3210583"><ele>1218.0</ele><time>2026-04-11T09:10:47.031Z</time></trkpt><trkpt lat="44.77856" lon="9.3212517"><ele>1218.0</ele><time>2026-04-11T09:10:48.037Z</time></trkpt><trkpt lat="44.7785383" lon="9.3214317"><ele>1218.0</ele><time>2026-04-11T09:10:49.037Z</time></trkpt><trkpt lat="44.77852" lon="9.3215633"><ele>1214.6</ele><time>2026-04-11T09:10:50.033Z</time></trkpt><trkpt lat="44.778505" lon="9.32167"><ele>1211.1999999999998</ele><time>2026-04-11T09:10:51.033Z</time></trkpt><trkpt lat="44.7785067" lon="9.3217633"><ele>1207.8</ele><time>2026-04-11T09:10:52.03Z</time></trkpt><trkpt lat="44.7785883" lon="9.3219083"><ele>1204.3999999999999</ele><time>2026-04-11T09:10:54.04Z</time></trkpt><trkpt lat="44.7786717" lon="9.3219683"><ele>1201.0</ele><time>2026-04-11T09:10:55.039Z</time></trkpt><trkpt lat="44.7787533" lon="9.3220467"><ele>1201.0</ele><time>2026-04-11T09:10:56.04Z</time></trkpt><trkpt lat="44.7788533" lon="9.322165"><ele>1201.0</ele><time>2026-04-11T09:10:57.033Z</time></trkpt><trkpt lat="44.7789533" lon="9.3222833"><ele>1201.0</ele><time>2026-04-11T09:10:58.04Z</time></trkpt><trkpt lat="44.7790533" lon="9.3223817"><ele>1201.0</ele><time>2026-04-11T09:10:59.04Z</time></trkpt><trkpt lat="44.7791517" lon="9.3224617"><ele>1197.75</ele><time>2026-04-11T09:11:00.03Z</time></trkpt><trkpt lat="44.77925" lon="9.3225317"><ele>1194.5</ele><time>2026-04-11T09:11:01.029Z</time></trkpt><trkpt lat="44.779355" lon="9.3225917"><ele>1191.25</ele><time>2026-04-11T09:11:02.03Z</time></trkpt><trkpt lat="44.7794733" lon="9.3226367"><ele>1188.0</ele><time>2026-04-11T09:11:03.041Z</time></trkpt><trkpt lat="44.7795867" lon="9.3226717"><ele>1188.0</ele><time>2026-04-11T09:11:04.039Z</time></trkpt><trkpt lat="44.7796967" lon="9.32269"><ele>1188.0</ele><time>2026-04-11T09:11:05.032Z</time></trkpt><trkpt lat="44.7798033" lon="9.3226967"><ele>1188.0</ele><time>2026-04-11T09:11:06.036Z</time></trkpt><trkpt lat="44.77991" lon="9.322685"><ele>1188.0</ele><time>2026-04-11T09:11:07.036Z</time></trkpt><trkpt lat="44.7799967" lon="9.3226567"><ele>1188.0</ele><time>2026-04-11T09:11:08.032Z</time></trkpt><trkpt lat="44.78008" lon="9.3226067"><ele>1188.0</ele><time>2026-04-11T09:11:09.035Z</time></trkpt><trkpt lat="44.780165" lon="9.3225433"><ele>1188.0</ele><time>2026-04-11T09:11:10.031Z</time></trkpt><trkpt lat="44.78026" lon="9.3224733"><ele>1188.0</ele><time>2026-04-11T09:11:11.03Z</time></trkpt><trkpt lat="44.78036" lon="9.3224117"><ele>1188.0</ele><time>2026-04-11T09:11:12.034Z</time></trkpt><trkpt lat="44.7804617" lon="9.3223783"><ele>1188.0</ele><time>2026-04-11T09:11:13.033Z</time></trkpt><trkpt lat="44.7805717" lon="9.322355"><ele>1185.0</ele><time>2026-04-11T09:11:14.042Z</time></trkpt><trkpt lat="44.7806933" lon="9.3223317"><ele>1182.0</ele><time>2026-04-11T09:11:15.03Z</time></trkpt><trkpt lat="44.7808083" lon="9.3223017"><ele>1179.0</ele><time>2026-04-11T09:11:16.03Z</time></trkpt><trkpt lat="44.78093" lon="9.3222567"><ele>1176.0</ele><time>2026-04-11T09:11:17.03Z</time></trkpt><trkpt lat="44.7810433" lon="9.3222117"><ele>1188.5</ele><time>2026-04-11T09:11:18.033Z</time></trkpt><trkpt lat="44.78117" lon="9.3221733"><ele>1201.0</ele><time>2026-04-11T09:11:19.032Z</time></trkpt><trkpt lat="44.78129" lon="9.3221483"><ele>1213.5</ele><time>2026-04-11T09:11:20.033Z</time></trkpt><trkpt lat="44.78142" lon="9.32212"><ele>1226.0</ele><time>2026-04-11T09:11:21.042Z</time></trkpt><trkpt lat="44.7815317" lon="9.3220983"><ele>1226.0</ele><time>2026-04-11T09:11:22.033Z</time></trkpt><trkpt lat="44.7816583" lon="9.3220867"><ele>1226.0</ele><time>2026-04-11T09:11:23.033Z</time></trkpt><trkpt lat="44.7817683" lon="9.3220933"><ele>1226.0</ele><time>2026-04-11T09:11:24.033Z</time></trkpt><trkpt lat="44.781885" lon="9.322115"><ele>1226.0</ele><time>2026-04-11T09:11:25.034Z</time></trkpt><trkpt lat="44.782005" lon="9.3221367"><ele>1226.8</ele><time>2026-04-11T09:11:26.034Z</time></trkpt><trkpt lat="44.78211" lon="9.322165"><ele>1227.6</ele><time>2026-04-11T09:11:27.03Z</time></trkpt><trkpt lat="44.7821867" lon="9.3221583"><ele>1228.4</ele><time>2026-04-11T09:11:28.029Z</time></trkpt><trkpt lat="44.7822883" lon="9.3221833"><ele>1229.2</ele><time>2026-04-11T09:11:29.03Z</time></trkpt><trkpt lat="44.7823983" lon="9.3222033"><ele>1230.0</ele><time>2026-04-11T09:11:30.032Z</time></trkpt><trkpt lat="44.7825017" lon="9.322245"><ele>1221.5</ele><time>2026-04-11T09:11:31.04Z</time></trkpt><trkpt lat="44.7826233" lon="9.32231"><ele>1213.0</ele><time>2026-04-11T09:11:32.033Z</time></trkpt><trkpt lat="44.7827383" lon="9.3223917"><ele>1204.5</ele><time>2026-04-11T09:11:33.037Z</time></trkpt><trkpt lat="44.7828533" lon="9.3224933"><ele>1196.0</ele><time>2026-04-11T09:11:34.037Z</time></trkpt><trkpt lat="44.7829667" lon="9.3225867"><ele>1196.0</ele><time>2026-04-11T09:11:35.038Z</time></trkpt><trkpt lat="44.7830883" lon="9.322665"><ele>1196.0</ele><time>2026-04-11T09:11:36.038Z</time></trkpt><trkpt lat="44.7832083" lon="9.3227333"><ele>1196.0</ele><time>2026-04-11T09:11:37.038Z</time></trkpt><trkpt lat="44.78333" lon="9.3227833"><ele>1196.0</ele><time>2026-04-11T09:11:38.035Z</time></trkpt><trkpt lat="44.7834417" lon="9.3228183"><ele>1199.0</ele><time>2026-04-11T09:11:39.038Z</time></trkpt><trkpt lat="44.783545" lon="9.3228533"><ele>1202.0</ele><time>2026-04-11T09:11:40.037Z</time></trkpt><trkpt lat="44.783645" lon="9.3228817"><ele>1205.0</ele><time>2026-04-11T09:11:41.033Z</time></trkpt><trkpt lat="44.78375" lon="9.3228883"><ele>1208.0</ele><time>2026-04-11T09:11:42.031Z</time></trkpt><trkpt lat="44.7838667" lon="9.3228767"><ele>1211.0</ele><time>2026-04-11T09:11:43.031Z</time></trkpt><trkpt lat="44.7839833" lon="9.3228683"><ele>1211.0</ele><time>2026-04-11T09:11:44.037Z</time></trkpt><trkpt lat="44.7840983" lon="9.3228733"><ele>1211.0</ele><time>2026-04-11T09:11:45.033Z</time></trkpt><trkpt lat="44.7842083" lon="9.3228917"><ele>1211.0</ele><time>2026-04-11T09:11:46.038Z</time></trkpt><trkpt lat="44.7843217" lon="9.322935"><ele>1211.0</ele><time>2026-04-11T09:11:47.039Z</time></trkpt><trkpt lat="44.7844383" lon="9.3229933"><ele>1205.0</ele><time>2026-04-11T09:11:48.032Z</time></trkpt><trkpt lat="44.7845633" lon="9.3230633"><ele>1199.0</ele><time>2026-04-11T09:11:49.04Z</time></trkpt><trkpt lat="44.7846917" lon="9.3231483"><ele>1193.0</ele><time>2026-04-11T09:11:50.041Z</time></trkpt><trkpt lat="44.7848133" lon="9.3232267"><ele>1187.0</ele><time>2026-04-11T09:11:51.037Z</time></trkpt><trkpt lat="44.7849317" lon="9.3233083"><ele>1187.0</ele><time>2026-04-11T09:11:52.039Z</time></trkpt><trkpt lat="44.7850417" lon="9.3234033"><ele>1187.0</ele><time>2026-04-11T09:11:53.032Z</time></trkpt><trkpt lat="44.785145" lon="9.3235033"><ele>1187.0</ele><time>2026-04-11T09:11:54.031Z</time></trkpt><trkpt lat="44.78525" lon="9.3236183"><ele>1187.0</ele><time>2026-04-11T09:11:55.03Z</time></trkpt><trkpt lat="44.78535" lon="9.32374"><ele>1187.2</ele><time>2026-04-11T09:11:56.032Z</time></trkpt><trkpt lat="44.7854417" lon="9.3238517"><ele>1187.4</ele><time>2026-04-11T09:11:57.031Z</time></trkpt><trkpt lat="44.78553" lon="9.3239733"><ele>1187.6</ele><time>2026-04-11T09:11:58.029Z</time></trkpt><trkpt lat="44.7856033" lon="9.3240733"><ele>1187.8</ele><time>2026-04-11T09:11:59.029Z</time></trkpt><trkpt lat="44.7856667" lon="9.324145"><ele>1188.0</ele><time>2026-04-11T09:12:00.029Z</time></trkpt><trkpt lat="44.7857167" lon="9.3242283"><ele>1188.0</ele><time>2026-04-11T09:12:01.03Z</time></trkpt><trkpt lat="44.78574" lon="9.3243367"><ele>1188.0</ele><time>2026-04-11T09:12:02.029Z</time></trkpt><trkpt lat="44.7857483" lon="9.3244567"><ele>1188.0</ele><time>2026-04-11T09:12:03.038Z</time></trkpt><trkpt lat="44.7857467" lon="9.3245883"><ele>1188.0</ele><time>2026-04-11T09:12:04.03Z</time></trkpt><trkpt lat="44.7857417" lon="9.32471"><ele>1188.0</ele><time>2026-04-11T09:12:05.03Z</time></trkpt><trkpt lat="44.7857583" lon="9.32484"><ele>1188.0</ele><time>2026-04-11T09:12:07.036Z</time></trkpt><trkpt lat="44.7857817" lon="9.32494"><ele>1186.3333333333333</ele><time>2026-04-11T09:12:09.037Z</time></trkpt><trkpt lat="44.7857917" lon="9.325065"><ele>1184.6666666666667</ele><time>2026-04-11T09:19:07.03Z</time></trkpt><trkpt lat="44.7858417" lon="9.3250033"><ele>1183.0</ele><time>2026-04-11T09:46:40.03Z</time></trkpt><trkpt lat="44.7857799" lon="9.3250213"><ele>1181.3333333333335</ele><time>2026-04-11T09:54:45.078Z</time></trkpt><trkpt lat="44.785835" lon="9.3251083"><ele>1179.6666666666667</ele><time>2026-04-11T10:01:23.034Z</time></trkpt><trkpt lat="44.785835" lon="9.3252283"><ele>1178.0</ele><time>2026-04-11T10:01:30.03Z</time></trkpt><trkpt lat="44.78577" lon="9.3253083"><ele>1178.0</ele><time>2026-04-11T10:01:32.029Z</time></trkpt><trkpt lat="44.7856967" lon="9.325405"><ele>1178.0</ele><time>2026-04-11T10:01:34.029Z</time></trkpt><trkpt lat="44.7856217" lon="9.3255133"><ele>1178.0</ele><time>2026-04-11T10:01:36.033Z</time></trkpt><trkpt lat="44.7855533" lon="9.3255967"><ele>1178.0</ele><time>2026-04-11T10:01:38.031Z</time></trkpt><trkpt lat="44.7854617" lon="9.3256867"><ele>1178.0</ele><time>2026-04-11T10:01:40.029Z</time></trkpt><trkpt lat="44.78536" lon="9.3258083"><ele>1176.5</ele><time>2026-04-11T10:01:42.032Z</time></trkpt><trkpt lat="44.7853083" lon="9.3258883"><ele>1175.0</ele><time>2026-04-11T10:01:43.031Z</time></trkpt><trkpt lat="44.7852367" lon="9.325995"><ele>1173.5</ele><time>2026-04-11T10:01:45.03Z</time></trkpt><trkpt lat="44.7851883" lon="9.3261017"><ele>1172.0</ele><time>2026-04-11T10:01:47.033Z</time></trkpt><trkpt lat="44.78516" lon="9.3262133"><ele>1170.5</ele><time>2026-04-11T10:01:49.03Z</time></trkpt><trkpt lat="44.7851417" lon="9.326335"><ele>1169.0</ele><time>2026-04-11T10:01:51.029Z</time></trkpt><trkpt lat="44.7851167" lon="9.3264517"><ele>1165.0</ele><time>2026-04-11T10:01:53.031Z</time></trkpt><trkpt lat="44.7850733" lon="9.3265717"><ele>1161.0</ele><time>2026-04-11T10:01:55.031Z</time></trkpt><trkpt lat="44.7850083" lon="9.3266817"><ele>1157.0</ele><time>2026-04-11T10:01:57.032Z</time></trkpt><trkpt lat="44.7849433" lon="9.3267617"><ele>1153.0</ele><time>2026-04-11T10:01:59.033Z</time></trkpt><trkpt lat="44.78488" lon="9.32677"><ele>1149.0</ele><time>2026-04-11T10:02:01.034Z</time></trkpt><trkpt lat="44.7848217" lon="9.3267183"><ele>1145.0</ele><time>2026-04-11T10:02:04.03Z</time></trkpt><trkpt lat="44.784775" lon="9.326655"><ele>1145.0000000000002</ele><time>2026-04-11T10:02:06.032Z</time></trkpt><trkpt lat="44.7847067" lon="9.32659"><ele>1145.0</ele><time>2026-04-11T10:02:08.032Z</time></trkpt><trkpt lat="44.7846433" lon="9.3265167"><ele>1145.0</ele><time>2026-04-11T10:02:10.03Z</time></trkpt><trkpt lat="44.78459" lon="9.3264417"><ele>1145.0</ele><time>2026-04-11T10:02:12.032Z</time></trkpt><trkpt lat="44.7845367" lon="9.3263833"><ele>1145.0</ele><time>2026-04-11T10:02:14.038Z</time></trkpt><trkpt lat="44.7844683" lon="9.3263683"><ele>1145.0000000000002</ele><time>2026-04-11T10:02:19.03Z</time></trkpt><trkpt lat="44.7843983" lon="9.32639"><ele>1145.0</ele><time>2026-04-11T10:02:23.036Z</time></trkpt><trkpt lat="44.78431" lon="9.3264117"><ele>1141.0</ele><time>2026-04-11T10:02:26.032Z</time></trkpt><trkpt lat="44.7842267" lon="9.3264467"><ele>1137.0</ele><time>2026-04-11T10:02:28.03Z</time></trkpt><trkpt lat="44.78414" lon="9.3264717"><ele>1133.0</ele><time>2026-04-11T10:02:30.033Z</time></trkpt><trkpt lat="44.784053" lon="9.3264875"><ele>1129.0</ele><time>2026-04-11T10:02:32.03Z</time></trkpt><trkpt lat="44.7839559" lon="9.3264756"><ele>1125.0</ele><time>2026-04-11T10:02:34.034Z</time></trkpt><trkpt lat="44.7838555" lon="9.3264327"><ele>1124.2</ele><time>2026-04-11T10:02:36.033Z</time></trkpt><trkpt lat="44.783755" lon="9.3263817"><ele>1123.4</ele><time>2026-04-11T10:02:38.034Z</time></trkpt><trkpt lat="44.7836583" lon="9.3263383"><ele>1122.6</ele><time>2026-04-11T10:02:40.033Z</time></trkpt><trkpt lat="44.78356" lon="9.3262983"><ele>1121.8</ele><time>2026-04-11T10:02:42.031Z</time></trkpt><trkpt lat="44.7834633" lon="9.326265"><ele>1121.0</ele><time>2026-04-11T10:02:44.032Z</time></trkpt><trkpt lat="44.7833817" lon="9.3261967"><ele>1118.3999999999999</ele><time>2026-04-11T10:02:46.033Z</time></trkpt><trkpt lat="44.7833117" lon="9.326125"><ele>1115.8</ele><time>2026-04-11T10:02:48.034Z</time></trkpt><trkpt lat="44.78321" lon="9.32609"><ele>1113.1999999999998</ele><time>2026-04-11T10:02:50.034Z</time></trkpt><trkpt lat="44.7831067" lon="9.3260767"><ele>1110.6</ele><time>2026-04-11T10:02:52.034Z</time></trkpt><trkpt lat="44.782995" lon="9.3260683"><ele>1108.0</ele><time>2026-04-11T10:02:54.037Z</time></trkpt><trkpt lat="44.7828783" lon="9.326085"><ele>1108.0</ele><time>2026-04-11T10:02:56.032Z</time></trkpt><trkpt lat="44.782765" lon="9.326135"><ele>1108.0</ele><time>2026-04-11T10:02:58.03Z</time></trkpt><trkpt lat="44.78267" lon="9.3262033"><ele>1108.0</ele><time>2026-04-11T10:03:00.037Z</time></trkpt><trkpt lat="44.782585" lon="9.3262633"><ele>1108.0</ele><time>2026-04-11T10:03:02.032Z</time></trkpt><trkpt lat="44.7824983" lon="9.3262683"><ele>1108.0</ele><time>2026-04-11T10:03:04.03Z</time></trkpt><trkpt lat="44.7824133" lon="9.326245"><ele>1106.0</ele><time>2026-04-11T10:03:06.033Z</time></trkpt><trkpt lat="44.7823483" lon="9.32623"><ele>1104.0</ele><time>2026-04-11T10:03:08.031Z</time></trkpt><trkpt lat="44.7822567" lon="9.3262133"><ele>1102.0</ele><time>2026-04-11T10:03:10.031Z</time></trkpt><trkpt lat="44.7821767" lon="9.3261233"><ele>1100.0</ele><time>2026-04-11T10:03:12.032Z</time></trkpt><trkpt lat="44.7821167" lon="9.326"><ele>1098.0</ele><time>2026-04-11T10:03:14.032Z</time></trkpt><trkpt lat="44.78206" lon="9.3258617"><ele>1098.0</ele><time>2026-04-11T10:03:16.03Z</time></trkpt><trkpt lat="44.7820217" lon="9.3257883"><ele>1098.0</ele><time>2026-04-11T10:03:17.031Z</time></trkpt><trkpt lat="44.781955" lon="9.325665"><ele>1098.0</ele><time>2026-04-11T10:03:19.03Z</time></trkpt><trkpt lat="44.7819067" lon="9.3255667"><ele>1098.0</ele><time>2026-04-11T10:03:21.031Z</time></trkpt><trkpt lat="44.7818633" lon="9.3254867"><ele>1098.0</ele><time>2026-04-11T10:03:23.031Z</time></trkpt><trkpt lat="44.78181" lon="9.3254183"><ele>1098.0</ele><time>2026-04-11T10:03:25.033Z</time></trkpt><trkpt lat="44.7817283" lon="9.325375"><ele>1094.8</ele><time>2026-04-11T10:03:27.033Z</time></trkpt><trkpt lat="44.7816417" lon="9.3253883"><ele>1091.6</ele><time>2026-04-11T10:03:29.03Z</time></trkpt><trkpt lat="44.7815584" lon="9.3254316"><ele>1088.4</ele><time>2026-04-11T10:03:31.03Z</time></trkpt><trkpt lat="44.7814603" lon="9.3255097"><ele>1085.2</ele><time>2026-04-11T10:03:33.031Z</time></trkpt><trkpt lat="44.7814068" lon="9.3256125"><ele>1082.0</ele><time>2026-04-11T10:03:35.038Z</time></trkpt><trkpt lat="44.7813924" lon="9.3257522"><ele>1081.6666666666667</ele><time>2026-04-11T10:03:37.028Z</time></trkpt><trkpt lat="44.7814067" lon="9.3258946"><ele>1081.3333333333335</ele><time>2026-04-11T10:03:39.029Z</time></trkpt><trkpt lat="44.7813817" lon="9.3260317"><ele>1081.0</ele><time>2026-04-11T10:03:41.032Z</time></trkpt><trkpt lat="44.7813517" lon="9.3261117"><ele>1080.6666666666667</ele><time>2026-04-11T10:03:42.032Z</time></trkpt><trkpt lat="44.7813217" lon="9.3261917"><ele>1080.3333333333333</ele><time>2026-04-11T10:03:43.03Z</time></trkpt><trkpt lat="44.7812833" lon="9.32627"><ele>1080.0</ele><time>2026-04-11T10:03:44.034Z</time></trkpt><trkpt lat="44.7811983" lon="9.3263983"><ele>1080.0</ele><time>2026-04-11T10:03:46.03Z</time></trkpt><trkpt lat="44.78112" lon="9.3265033"><ele>1080.0</ele><time>2026-04-11T10:03:48.033Z</time></trkpt><trkpt lat="44.7810833" lon="9.32662"><ele>1080.0</ele><time>2026-04-11T10:03:50.032Z</time></trkpt><trkpt lat="44.78105" lon="9.326765"><ele>1080.0</ele><time>2026-04-11T10:03:52.034Z</time></trkpt><trkpt lat="44.7810233" lon="9.3269283"><ele>1080.0</ele><time>2026-04-11T10:03:54.029Z</time></trkpt><trkpt lat="44.7810083" lon="9.3270217"><ele>1073.6</ele><time>2026-04-11T10:03:55.031Z</time></trkpt><trkpt lat="44.7809833" lon="9.32719"><ele>1067.2</ele><time>2026-04-11T10:03:57.031Z</time></trkpt><trkpt lat="44.78097" lon="9.3273683"><ele>1060.8</ele><time>2026-04-11T10:03:59.034Z</time></trkpt><trkpt lat="44.780955" lon="9.327465"><ele>1054.4</ele><time>2026-04-11T10:04:00.029Z</time></trkpt><trkpt lat="44.7809433" lon="9.32756"><ele>1048.0</ele><time>2026-04-11T10:04:01.032Z</time></trkpt><trkpt lat="44.78091" lon="9.3277017"><ele>1045.4</ele><time>2026-04-11T10:04:03.033Z</time></trkpt><trkpt lat="44.780895" lon="9.3278383"><ele>1042.8</ele><time>2026-04-11T10:04:05.032Z</time></trkpt><trkpt lat="44.78091" lon="9.3279733"><ele>1040.2</ele><time>2026-04-11T10:04:07.029Z</time></trkpt><trkpt lat="44.78094" lon="9.3280717"><ele>1037.6</ele><time>2026-04-11T10:04:09.033Z</time></trkpt><trkpt lat="44.7809733" lon="9.3281933"><ele>1035.0</ele><time>2026-04-11T10:04:11.03Z</time></trkpt><trkpt lat="44.78096" lon="9.3283383"><ele>1032.8</ele><time>2026-04-11T10:04:13.033Z</time></trkpt><trkpt lat="44.7809217" lon="9.3284367"><ele>1030.6</ele><time>2026-04-11T10:04:14.031Z</time></trkpt><trkpt lat="44.78089" lon="9.3285217"><ele>1028.4</ele><time>2026-04-11T10:04:15.03Z</time></trkpt><trkpt lat="44.7808567" lon="9.3286733"><ele>1026.2</ele><time>2026-04-11T10:04:17.031Z</time></trkpt><trkpt lat="44.7808467" lon="9.3288167"><ele>1024.0</ele><time>2026-04-11T10:04:19.031Z</time></trkpt><trkpt lat="44.7808667" lon="9.3289517"><ele>1024.6666666666665</ele><time>2026-04-11T10:04:21.032Z</time></trkpt><trkpt lat="44.7809367" lon="9.3290533"><ele>1025.3333333333333</ele><time>2026-04-11T10:04:23.032Z</time></trkpt><trkpt lat="44.7810483" lon="9.3291233"><ele>1026.0</ele><time>2026-04-11T10:04:25.033Z</time></trkpt><trkpt lat="44.7811117" lon="9.3291517"><ele>1026.6666666666667</ele><time>2026-04-11T10:04:26.032Z</time></trkpt><trkpt lat="44.78118" lon="9.3291917"><ele>1027.3333333333335</ele><time>2026-04-11T10:04:27.03Z</time></trkpt><trkpt lat="44.7812433" lon="9.3292133"><ele>1028.0</ele><time>2026-04-11T10:04:28.034Z</time></trkpt><trkpt lat="44.7813067" lon="9.3292533"><ele>1028.0</ele><time>2026-04-11T10:04:29.033Z</time></trkpt><trkpt lat="44.7813817" lon="9.3292917"><ele>1028.0</ele><time>2026-04-11T10:04:30.038Z</time></trkpt><trkpt lat="44.7814567" lon="9.32935"><ele>1028.0</ele><time>2026-04-11T10:04:31.032Z</time></trkpt><trkpt lat="44.7815267" lon="9.3294217"><ele>1028.0</ele><time>2026-04-11T10:04:32.033Z</time></trkpt><trkpt lat="44.7815983" lon="9.329495"><ele>1028.0</ele><time>2026-04-11T10:04:33.032Z</time></trkpt><trkpt lat="44.7816617" lon="9.3295683"><ele>1028.0</ele><time>2026-04-11T10:04:34.033Z</time></trkpt><trkpt lat="44.7817167" lon="9.329645"><ele>1028.0</ele><time>2026-04-11T10:04:35.031Z</time></trkpt><trkpt lat="44.7817633" lon="9.329715"><ele>1028.0</ele><time>2026-04-11T10:04:36.032Z</time></trkpt><trkpt lat="44.7818383" lon="9.3298467"><ele>1028.0</ele><time>2026-04-11T10:04:38.031Z</time></trkpt><trkpt lat="44.781915" lon="9.329985"><ele>1028.0</ele><time>2026-04-11T10:04:40.03Z</time></trkpt><trkpt lat="44.7819467" lon="9.3300617"><ele>1028.0</ele><time>2026-04-11T10:04:41.03Z</time></trkpt><trkpt lat="44.78198" lon="9.3302183"><ele>1025.4</ele><time>2026-04-11T10:04:43.032Z</time></trkpt><trkpt lat="44.781955" lon="9.330345"><ele>1022.8</ele><time>2026-04-11T10:04:45.038Z</time></trkpt><trkpt lat="44.781885" lon="9.3304217"><ele>1020.2</ele><time>2026-04-11T10:04:47.033Z</time></trkpt><trkpt lat="44.78179" lon="9.3304317"><ele>1017.6</ele><time>2026-04-11T10:04:49.033Z</time></trkpt><trkpt lat="44.7816933" lon="9.3304"><ele>1015.0</ele><time>2026-04-11T10:04:51.034Z</time></trkpt><trkpt lat="44.7816033" lon="9.33034"><ele>1010.0</ele><time>2026-04-11T10:04:53.032Z</time></trkpt><trkpt lat="44.7814867" lon="9.3303433"><ele>1005.0</ele><time>2026-04-11T10:04:55.032Z</time></trkpt><trkpt lat="44.7814067" lon="9.3304067"><ele>1000.0</ele><time>2026-04-11T10:04:57.032Z</time></trkpt><trkpt lat="44.7813117" lon="9.3304533"><ele>995.0</ele><time>2026-04-11T10:04:59.031Z</time></trkpt><trkpt lat="44.78119" lon="9.330435"><ele>990.0</ele><time>2026-04-11T10:05:01.037Z</time></trkpt><trkpt lat="44.7811267" lon="9.3303983"><ele>990.0</ele><time>2026-04-11T10:05:02.033Z</time></trkpt><trkpt lat="44.78102" lon="9.3302933"><ele>990.0</ele><time>2026-04-11T10:05:04.03Z</time></trkpt><trkpt lat="44.7809617" lon="9.3302433"><ele>990.0</ele><time>2026-04-11T10:05:05.038Z</time></trkpt><trkpt lat="44.7809017" lon="9.3301917"><ele>990.0</ele><time>2026-04-11T10:05:06.032Z</time></trkpt><trkpt lat="44.7808433" lon="9.33015"><ele>990.0</ele><time>2026-04-11T10:05:07.032Z</time></trkpt><trkpt lat="44.78073" lon="9.3300767"><ele>992.3333333333334</ele><time>2026-04-11T10:05:09.031Z</time></trkpt><trkpt lat="44.7806617" lon="9.3300383"><ele>994.6666666666667</ele><time>2026-04-11T10:05:10.03Z</time></trkpt><trkpt lat="44.7806033" lon="9.3300017"><ele>997.0</ele><time>2026-04-11T10:05:11.029Z</time></trkpt><trkpt lat="44.78048" lon="9.3299533"><ele>999.3333333333334</ele><time>2026-04-11T10:05:13.032Z</time></trkpt><trkpt lat="44.7803783" lon="9.32988"><ele>1001.6666666666667</ele><time>2026-04-11T10:05:15.031Z</time></trkpt><trkpt lat="44.7803317" lon="9.3298183"><ele>1004.0</ele><time>2026-04-11T10:05:16.038Z</time></trkpt><trkpt lat="44.7802617" lon="9.329665"><ele>1004.0000000000001</ele><time>2026-04-11T10:05:18.032Z</time></trkpt><trkpt lat="44.7802133" lon="9.3295083"><ele>1004.0</ele><time>2026-04-11T10:05:20.037Z</time></trkpt><trkpt lat="44.780155" lon="9.3294283"><ele>1004.0</ele><time>2026-04-11T10:05:22.033Z</time></trkpt><trkpt lat="44.7800867" lon="9.3295"><ele>1004.0</ele><time>2026-04-11T10:05:25.033Z</time></trkpt><trkpt lat="44.7800533" lon="9.3295783"><ele>1004.0000000000001</ele><time>2026-04-11T10:05:26.03Z</time></trkpt><trkpt lat="44.78003" lon="9.329675"><ele>1004.0</ele><time>2026-04-11T10:05:27.033Z</time></trkpt><trkpt lat="44.7800133" lon="9.3297783"><ele>992.8000000000001</ele><time>2026-04-11T10:05:28.037Z</time></trkpt><trkpt lat="44.7800117" lon="9.329875"><ele>981.6000000000001</ele><time>2026-04-11T10:05:29.038Z</time></trkpt><trkpt lat="44.780035" lon="9.3300383"><ele>970.4</ele><time>2026-04-11T10:05:31.03Z</time></trkpt><trkpt lat="44.7800517" lon="9.3302117"><ele>959.2</ele><time>2026-04-11T10:05:33.033Z</time></trkpt><trkpt lat="44.7800517" lon="9.3303033"><ele>948.0</ele><time>2026-04-11T10:05:34.035Z</time></trkpt><trkpt lat="44.7800633" lon="9.3304533"><ele>942.5999999999999</ele><time>2026-04-11T10:05:36.029Z</time></trkpt><trkpt lat="44.780135" lon="9.3305783"><ele>937.1999999999999</ele><time>2026-04-11T10:05:38.031Z</time></trkpt><trkpt lat="44.780175" lon="9.3307267"><ele>931.8</ele><time>2026-04-11T10:05:40.029Z</time></trkpt><trkpt lat="44.78016" lon="9.3308983"><ele>926.4</ele><time>2026-04-11T10:05:42.03Z</time></trkpt><trkpt lat="44.780135" lon="9.330985"><ele>921.0</ele><time>2026-04-11T10:05:43.032Z</time></trkpt><trkpt lat="44.78011" lon="9.331085"><ele>921.0</ele><time>2026-04-11T10:05:44.029Z</time></trkpt><trkpt lat="44.7801233" lon="9.3311867"><ele>920.9999999999999</ele><time>2026-04-11T10:05:46.029Z</time></trkpt><trkpt lat="44.7801483" lon="9.3312717"><ele>920.9999999999999</ele><time>2026-04-11T10:05:47.031Z</time></trkpt><trkpt lat="44.7802467" lon="9.3314017"><ele>921.0</ele><time>2026-04-11T10:05:49.032Z</time></trkpt><trkpt lat="44.7803017" lon="9.331445"><ele>921.0</ele><time>2026-04-11T10:05:50.037Z</time></trkpt><trkpt lat="44.7803983" lon="9.3315583"><ele>921.5999999999999</ele><time>2026-04-11T10:05:52.028Z</time></trkpt><trkpt lat="44.78044" lon="9.331645"><ele>922.1999999999999</ele><time>2026-04-11T10:05:53.032Z</time></trkpt><trkpt lat="44.7804667" lon="9.3317383"><ele>922.8000000000001</ele><time>2026-04-11T10:05:54.035Z</time></trkpt><trkpt lat="44.7804883" lon="9.3318217"><ele>923.4000000000001</ele><time>2026-04-11T10:05:55.034Z</time></trkpt><trkpt lat="44.7805283" lon="9.3319817"><ele>924.0</ele><time>2026-04-11T10:05:57.033Z</time></trkpt><trkpt lat="44.780585" lon="9.3321367"><ele>921.0</ele><time>2026-04-11T10:05:59.033Z</time></trkpt><trkpt lat="44.7806117" lon="9.3322333"><ele>918.0</ele><time>2026-04-11T10:06:00.03Z</time></trkpt><trkpt lat="44.7806483" lon="9.332325"><ele>915.0</ele><time>2026-04-11T10:06:01.029Z</time></trkpt><trkpt lat="44.78069" lon="9.33242"><ele>912.0</ele><time>2026-04-11T10:06:02.03Z</time></trkpt><trkpt lat="44.780725" lon="9.3325267"><ele>909.0</ele><time>2026-04-11T10:06:03.029Z</time></trkpt><trkpt lat="44.7807617" lon="9.3326233"><ele>906.0</ele><time>2026-04-11T10:06:04.036Z</time></trkpt><trkpt lat="44.7807983" lon="9.3327217"><ele>906.0</ele><time>2026-04-11T10:06:05.031Z</time></trkpt><trkpt lat="44.78084" lon="9.3328083"><ele>906.0</ele><time>2026-04-11T10:06:06.03Z</time></trkpt><trkpt lat="44.7808783" lon="9.3328883"><ele>906.0</ele><time>2026-04-11T10:06:07.029Z</time></trkpt><trkpt lat="44.7809067" lon="9.3329833"><ele>906.0</ele><time>2026-04-11T10:06:08.031Z</time></trkpt><trkpt lat="44.780935" lon="9.333085"><ele>906.0</ele><time>2026-04-11T10:06:09.029Z</time></trkpt><trkpt lat="44.7809667" lon="9.3331867"><ele>906.0</ele><time>2026-04-11T10:06:10.033Z</time></trkpt><trkpt lat="44.781" lon="9.3332867"><ele>905.9999999999999</ele><time>2026-04-11T10:06:11.033Z</time></trkpt><trkpt lat="44.7810467" lon="9.3333683"><ele>906.0</ele><time>2026-04-11T10:06:12.03Z</time></trkpt><trkpt lat="44.7811" lon="9.3334367"><ele>905.9999999999999</ele><time>2026-04-11T10:06:13.037Z</time></trkpt><trkpt lat="44.7811517" lon="9.3335033"><ele>905.9999999999999</ele><time>2026-04-11T10:06:14.03Z</time></trkpt><trkpt lat="44.7811883" lon="9.33358"><ele>906.0</ele><time>2026-04-11T10:06:15.032Z</time></trkpt><trkpt lat="44.7812267" lon="9.33366"><ele>905.9999999999999</ele><time>2026-04-11T10:06:16.031Z</time></trkpt><trkpt lat="44.78125" lon="9.333745"><ele>905.9999999999999</ele><time>2026-04-11T10:06:17.039Z</time></trkpt><trkpt lat="44.7812667" lon="9.3338333"><ele>904.0</ele><time>2026-04-11T10:06:18.03Z</time></trkpt><trkpt lat="44.7812733" lon="9.333945"><ele>902.0</ele><time>2026-04-11T10:06:19.029Z</time></trkpt><trkpt lat="44.7812767" lon="9.3340667"><ele>900.0</ele><time>2026-04-11T10:06:20.029Z</time></trkpt><trkpt lat="44.7812817" lon="9.3341867"><ele>898.0</ele><time>2026-04-11T10:06:21.032Z</time></trkpt><trkpt lat="44.7812917" lon="9.3343067"><ele>896.0</ele><time>2026-04-11T10:06:22.032Z</time></trkpt><trkpt lat="44.7813033" lon="9.3344167"><ele>894.0</ele><time>2026-04-11T10:06:23.032Z</time></trkpt><trkpt lat="44.781315" lon="9.334515"><ele>894.0</ele><time>2026-04-11T10:06:24.032Z</time></trkpt><trkpt lat="44.7813067" lon="9.334665"><ele>894.0</ele><time>2026-04-11T10:06:26.033Z</time></trkpt><trkpt lat="44.7812967" lon="9.33476"><ele>894.0</ele><time>2026-04-11T10:06:29.036Z</time></trkpt><trkpt lat="44.7813017" lon="9.3348617"><ele>894.0</ele><time>2026-04-11T10:06:32.032Z</time></trkpt><trkpt lat="44.78132" lon="9.3349767"><ele>894.0</ele><time>2026-04-11T10:06:35.031Z</time></trkpt><trkpt lat="44.7813517" lon="9.3350983"><ele>894.0</ele><time>2026-04-11T10:06:38.031Z</time></trkpt><trkpt lat="44.78137" lon="9.3351917"><ele>891.8333333333334</ele><time>2026-04-11T10:06:40.032Z</time></trkpt><trkpt lat="44.7813733" lon="9.3353017"><ele>889.6666666666667</ele><time>2026-04-11T10:06:42.033Z</time></trkpt><trkpt lat="44.7813667" lon="9.3354067"><ele>887.5</ele><time>2026-04-11T10:06:44.03Z</time></trkpt><trkpt lat="44.7813317" lon="9.33551"><ele>885.3333333333334</ele><time>2026-04-11T10:06:46.032Z</time></trkpt><trkpt lat="44.78129" lon="9.3356283"><ele>883.1666666666667</ele><time>2026-04-11T10:06:48.034Z</time></trkpt><trkpt lat="44.7813117" lon="9.3357517"><ele>881.0</ele><time>2026-04-11T10:06:50.031Z</time></trkpt><trkpt lat="44.781375" lon="9.335845"><ele>877.0</ele><time>2026-04-11T10:06:52.03Z</time></trkpt><trkpt lat="44.7814617" lon="9.3358917"><ele>872.9999999999999</ele><time>2026-04-11T10:06:54.029Z</time></trkpt><trkpt lat="44.781555" lon="9.3358967"><ele>868.9999999999999</ele><time>2026-04-11T10:06:56.032Z</time></trkpt><trkpt lat="44.7816733" lon="9.335905"><ele>865.0</ele><time>2026-04-11T10:06:58.032Z</time></trkpt><trkpt lat="44.7817883" lon="9.3358767"><ele>861.0</ele><time>2026-04-11T10:07:00.035Z</time></trkpt><trkpt lat="44.7818933" lon="9.3358367"><ele>857.4</ele><time>2026-04-11T10:07:02.032Z</time></trkpt><trkpt lat="44.7820117" lon="9.3358283"><ele>853.8</ele><time>2026-04-11T10:07:04.032Z</time></trkpt><trkpt lat="44.7821183" lon="9.3357733"><ele>850.1999999999999</ele><time>2026-04-11T10:07:06.031Z</time></trkpt><trkpt lat="44.7822167" lon="9.335685"><ele>846.5999999999999</ele><time>2026-04-11T10:07:08.031Z</time></trkpt><trkpt lat="44.78228" lon="9.335645"><ele>843.0</ele><time>2026-04-11T10:07:09.034Z</time></trkpt><trkpt lat="44.7823533" lon="9.335615"><ele>843.0</ele><time>2026-04-11T10:07:10.034Z</time></trkpt><trkpt lat="44.7824467" lon="9.3356017"><ele>843.0</ele><time>2026-04-11T10:07:11.031Z</time></trkpt><trkpt lat="44.7825367" lon="9.3355883"><ele>843.0</ele><time>2026-04-11T10:07:12.036Z</time></trkpt><trkpt lat="44.7826183" lon="9.3355683"><ele>843.0</ele><time>2026-04-11T10:07:13.037Z</time></trkpt><trkpt lat="44.782705" lon="9.3355383"><ele>843.0</ele><time>2026-04-11T10:07:14.036Z</time></trkpt><trkpt lat="44.78278" lon="9.33553"><ele>843.0</ele><time>2026-04-11T10:07:15.03Z</time></trkpt><trkpt lat="44.7828567" lon="9.335545"><ele>844.5</ele><time>2026-04-11T10:07:16.038Z</time></trkpt><trkpt lat="44.78292" lon="9.33565"><ele>846.0</ele><time>2026-04-11T10:07:18.034Z</time></trkpt><trkpt lat="44.782935" lon="9.335745"><ele>847.5</ele><time>2026-04-11T10:07:19.032Z</time></trkpt><trkpt lat="44.7829467" lon="9.3358617"><ele>849.0</ele><time>2026-04-11T10:07:20.033Z</time></trkpt><trkpt lat="44.7829617" lon="9.3359683"><ele>850.5</ele><time>2026-04-11T10:07:21.034Z</time></trkpt><trkpt lat="44.782975" lon="9.33607"><ele>852.0</ele><time>2026-04-11T10:07:22.032Z</time></trkpt><trkpt lat="44.7829883" lon="9.336175"><ele>852.0</ele><time>2026-04-11T10:07:23.033Z</time></trkpt><trkpt lat="44.78301" lon="9.336285"><ele>852.0</ele><time>2026-04-11T10:07:24.03Z</time></trkpt><trkpt lat="44.7830283" lon="9.3363867"><ele>852.0</ele><time>2026-04-11T10:07:25.032Z</time></trkpt><trkpt lat="44.783045" lon="9.3364817"><ele>852.0</ele><time>2026-04-11T10:07:26.03Z</time></trkpt><trkpt lat="44.7830917" lon="9.3366167"><ele>852.0</ele><time>2026-04-11T10:07:28.03Z</time></trkpt><trkpt lat="44.78317" lon="9.3366583"><ele>852.0</ele><time>2026-04-11T10:07:30.03Z</time></trkpt><trkpt lat="44.7832783" lon="9.33667"><ele>848.1666666666666</ele><time>2026-04-11T10:07:32.032Z</time></trkpt><trkpt lat="44.783405" lon="9.336695"><ele>844.3333333333333</ele><time>2026-04-11T10:07:34.03Z</time></trkpt><trkpt lat="44.783475" lon="9.3366967"><ele>840.5</ele><time>2026-04-11T10:07:35.034Z</time></trkpt><trkpt lat="44.78354" lon="9.3366883"><ele>836.6666666666666</ele><time>2026-04-11T10:07:36.035Z</time></trkpt><trkpt lat="44.78361" lon="9.3366683"><ele>832.8333333333333</ele><time>2026-04-11T10:07:37.035Z</time></trkpt><trkpt lat="44.78368" lon="9.3366417"><ele>829.0</ele><time>2026-04-11T10:07:38.031Z</time></trkpt><trkpt lat="44.7837583" lon="9.3366233"><ele>827.0</ele><time>2026-04-11T10:07:39.031Z</time></trkpt><trkpt lat="44.783835" lon="9.3366183"><ele>825.0</ele><time>2026-04-11T10:07:40.03Z</time></trkpt><trkpt lat="44.7838983" lon="9.336615"><ele>823.0</ele><time>2026-04-11T10:07:41.03Z</time></trkpt><trkpt lat="44.78396" lon="9.3365917"><ele>821.0</ele><time>2026-04-11T10:07:42.034Z</time></trkpt><trkpt lat="44.7840317" lon="9.3365717"><ele>819.0</ele><time>2026-04-11T10:07:43.033Z</time></trkpt><trkpt lat="44.7841" lon="9.33656"><ele>817.0</ele><time>2026-04-11T10:07:44.032Z</time></trkpt><trkpt lat="44.7841683" lon="9.3365583"><ele>815.0</ele><time>2026-04-11T10:07:45.031Z</time></trkpt><trkpt lat="44.7842333" lon="9.3365517"><ele>815.0</ele><time>2026-04-11T10:07:46.031Z</time></trkpt><trkpt lat="44.78434" lon="9.3364767"><ele>815.0</ele><time>2026-04-11T10:07:48.032Z</time></trkpt><trkpt lat="44.784425" lon="9.3363583"><ele>815.0</ele><time>2026-04-11T10:07:50.033Z</time></trkpt><trkpt lat="44.7845233" lon="9.3362567"><ele>815.0</ele><time>2026-04-11T10:07:52.034Z</time></trkpt><trkpt lat="44.7846217" lon="9.33615"><ele>814.5000000000001</ele><time>2026-04-11T10:07:54.037Z</time></trkpt><trkpt lat="44.784685" lon="9.3361"><ele>814.0</ele><time>2026-04-11T10:07:55.03Z</time></trkpt><trkpt lat="44.7847517" lon="9.3360567"><ele>813.5</ele><time>2026-04-11T10:07:56.032Z</time></trkpt><trkpt lat="44.7848267" lon="9.3360167"><ele>813.0</ele><time>2026-04-11T10:07:57.032Z</time></trkpt><trkpt lat="44.784905" lon="9.3359817"><ele>812.5000000000001</ele><time>2026-04-11T10:07:58.032Z</time></trkpt><trkpt lat="44.7849867" lon="9.33596"><ele>812.0</ele><time>2026-04-11T10:07:59.032Z</time></trkpt><trkpt lat="44.7850633" lon="9.33596"><ele>812.0000000000001</ele><time>2026-04-11T10:08:00.03Z</time></trkpt><trkpt lat="44.7851367" lon="9.3359733"><ele>812.0</ele><time>2026-04-11T10:08:01.037Z</time></trkpt><trkpt lat="44.7852017" lon="9.3360167"><ele>812.0</ele><time>2026-04-11T10:08:02.038Z</time></trkpt><trkpt lat="44.7852417" lon="9.336175"><ele>812.0</ele><time>2026-04-11T10:08:04.032Z</time></trkpt><trkpt lat="44.7852883" lon="9.3362483"><ele>812.0000000000001</ele><time>2026-04-11T10:08:05.037Z</time></trkpt><trkpt lat="44.7853367" lon="9.336385"><ele>812.0</ele><time>2026-04-11T10:08:07.03Z</time></trkpt><trkpt lat="44.7853567" lon="9.3365267"><ele>809.0</ele><time>2026-04-11T10:08:09.031Z</time></trkpt><trkpt lat="44.78535" lon="9.3366567"><ele>806.0</ele><time>2026-04-11T10:08:11.032Z</time></trkpt><trkpt lat="44.7853183" lon="9.3368333"><ele>803.0</ele><time>2026-04-11T10:08:13.032Z</time></trkpt><trkpt lat="44.7852933" lon="9.33693"><ele>800.0</ele><time>2026-04-11T10:08:14.029Z</time></trkpt><trkpt lat="44.785265" lon="9.3370267"><ele>797.0</ele><time>2026-04-11T10:08:15.03Z</time></trkpt><trkpt lat="44.785225" lon="9.3371283"><ele>795.1666666666667</ele><time>2026-04-11T10:08:16.032Z</time></trkpt><trkpt lat="44.785175" lon="9.3372267"><ele>793.3333333333334</ele><time>2026-04-11T10:08:17.033Z</time></trkpt><trkpt lat="44.785125" lon="9.33732"><ele>791.5</ele><time>2026-04-11T10:08:18.031Z</time></trkpt><trkpt lat="44.7850733" lon="9.3374083"><ele>789.6666666666667</ele><time>2026-04-11T10:08:19.031Z</time></trkpt><trkpt lat="44.7850217" lon="9.337495"><ele>787.8333333333334</ele><time>2026-04-11T10:08:20.035Z</time></trkpt><trkpt lat="44.7849733" lon="9.3375817"><ele>786.0</ele><time>2026-04-11T10:08:21.034Z</time></trkpt><trkpt lat="44.7849267" lon="9.3376633"><ele>786.0000000000001</ele><time>2026-04-11T10:08:22.034Z</time></trkpt><trkpt lat="44.7848867" lon="9.3377383"><ele>786.0</ele><time>2026-04-11T10:08:23.033Z</time></trkpt><trkpt lat="44.7848533" lon="9.337815"><ele>786.0</ele><time>2026-04-11T10:08:24.031Z</time></trkpt><trkpt lat="44.7848233" lon="9.337895"><ele>786.0</ele><time>2026-04-11T10:08:25.03Z</time></trkpt><trkpt lat="44.78479" lon="9.3379767"><ele>786.0</ele><time>2026-04-11T10:08:26.03Z</time></trkpt><trkpt lat="44.78476" lon="9.3380617"><ele>786.0000000000001</ele><time>2026-04-11T10:08:27.032Z</time></trkpt><trkpt lat="44.784735" lon="9.338155"><ele>786.0</ele><time>2026-04-11T10:08:28.03Z</time></trkpt><trkpt lat="44.78471" lon="9.3382533"><ele>783.8571428571429</ele><time>2026-04-11T10:08:29.03Z</time></trkpt><trkpt lat="44.7846883" lon="9.3383483"><ele>781.7142857142858</ele><time>2026-04-11T10:08:30.034Z</time></trkpt><trkpt lat="44.7846683" lon="9.3384417"><ele>779.5714285714287</ele><time>2026-04-11T10:08:31.032Z</time></trkpt><trkpt lat="44.784645" lon="9.3385283"><ele>777.4285714285714</ele><time>2026-04-11T10:08:32.031Z</time></trkpt><trkpt lat="44.78462" lon="9.3386167"><ele>775.2857142857142</ele><time>2026-04-11T10:08:33.032Z</time></trkpt><trkpt lat="44.7845983" lon="9.3387067"><ele>773.1428571428572</ele><time>2026-04-11T10:08:34.03Z</time></trkpt><trkpt lat="44.7845833" lon="9.3387967"><ele>771.0</ele><time>2026-04-11T10:08:35.031Z</time></trkpt><trkpt lat="44.7845767" lon="9.3388933"><ele>769.0</ele><time>2026-04-11T10:08:36.03Z</time></trkpt><trkpt lat="44.7845717" lon="9.3389917"><ele>767.0</ele><time>2026-04-11T10:08:37.029Z</time></trkpt><trkpt lat="44.7845683" lon="9.33909"><ele>765.0</ele><time>2026-04-11T10:08:38.033Z</time></trkpt><trkpt lat="44.7845633" lon="9.3391883"><ele>763.0</ele><time>2026-04-11T10:08:39.03Z</time></trkpt><trkpt lat="44.7845517" lon="9.3392817"><ele>761.0</ele><time>2026-04-11T10:08:40.029Z</time></trkpt><trkpt lat="44.7845317" lon="9.3393683"><ele>759.0</ele><time>2026-04-11T10:08:41.03Z</time></trkpt><trkpt lat="44.78445" lon="9.3394817"><ele>759.0</ele><time>2026-04-11T10:08:43.03Z</time></trkpt><trkpt lat="44.784395" lon="9.3395383"><ele>759.0</ele><time>2026-04-11T10:08:44.032Z</time></trkpt><trkpt lat="44.78434" lon="9.3396"><ele>759.0</ele><time>2026-04-11T10:08:45.037Z</time></trkpt><trkpt lat="44.78426" lon="9.33973"><ele>759.0</ele><time>2026-04-11T10:08:47.032Z</time></trkpt><trkpt lat="44.7842017" lon="9.3398767"><ele>759.0</ele><time>2026-04-11T10:08:49.031Z</time></trkpt><trkpt lat="44.7841917" lon="9.339965"><ele>759.0</ele><time>2026-04-11T10:08:50.037Z</time></trkpt><trkpt lat="44.7841933" lon="9.340065"><ele>754.4000000000001</ele><time>2026-04-11T10:08:51.037Z</time></trkpt><trkpt lat="44.7841983" lon="9.3401767"><ele>749.8</ele><time>2026-04-11T10:08:52.037Z</time></trkpt><trkpt lat="44.7842083" lon="9.3402983"><ele>745.2</ele><time>2026-04-11T10:08:53.039Z</time></trkpt><trkpt lat="44.7842233" lon="9.340425"><ele>740.5999999999999</ele><time>2026-04-11T10:08:54.038Z</time></trkpt><trkpt lat="44.7842433" lon="9.3405617"><ele>736.0</ele><time>2026-04-11T10:08:55.036Z</time></trkpt><trkpt lat="44.78427" lon="9.3407067"><ele>735.25</ele><time>2026-04-11T10:08:56.037Z</time></trkpt><trkpt lat="44.7843067" lon="9.3408533"><ele>734.5</ele><time>2026-04-11T10:08:57.039Z</time></trkpt><trkpt lat="44.7843533" lon="9.341"><ele>733.75</ele><time>2026-04-11T10:08:58.038Z</time></trkpt><trkpt lat="44.7844117" lon="9.3411467"><ele>733.0</ele><time>2026-04-11T10:08:59.035Z</time></trkpt><trkpt lat="44.7844633" lon="9.3412933"><ele>729.5999999999999</ele><time>2026-04-11T10:09:00.035Z</time></trkpt><trkpt lat="44.784505" lon="9.341435"><ele>726.1999999999999</ele><time>2026-04-11T10:09:01.036Z</time></trkpt><trkpt lat="44.784535" lon="9.34157"><ele>722.8</ele><time>2026-04-11T10:09:02.036Z</time></trkpt><trkpt lat="44.78454" lon="9.3416933"><ele>719.4</ele><time>2026-04-11T10:09:03.041Z</time></trkpt><trkpt lat="44.7845267" lon="9.3418133"><ele>716.0</ele><time>2026-04-11T10:09:04.039Z</time></trkpt><trkpt lat="44.784505" lon="9.3419333"><ele>716.0</ele><time>2026-04-11T10:09:05.037Z</time></trkpt><trkpt lat="44.7844733" lon="9.342055"><ele>716.0</ele><time>2026-04-11T10:09:06.031Z</time></trkpt><trkpt lat="44.7844333" lon="9.3421867"><ele>716.0</ele><time>2026-04-11T10:09:07.032Z</time></trkpt><trkpt lat="44.7843967" lon="9.3423283"><ele>716.0</ele><time>2026-04-11T10:09:08.038Z</time></trkpt><trkpt lat="44.7843583" lon="9.34248"><ele>716.0</ele><time>2026-04-11T10:09:09.039Z</time></trkpt><trkpt lat="44.78432" lon="9.34264"><ele>714.0</ele><time>2026-04-11T10:09:10.037Z</time></trkpt><trkpt lat="44.7842883" lon="9.342795"><ele>712.0</ele><time>2026-04-11T10:09:11.037Z</time></trkpt><trkpt lat="44.7842633" lon="9.3429267"><ele>710.0</ele><time>2026-04-11T10:09:12.037Z</time></trkpt><trkpt lat="44.7842383" lon="9.3430433"><ele>708.0</ele><time>2026-04-11T10:09:13.034Z</time></trkpt><trkpt lat="44.784205" lon="9.3431533"><ele>706.0</ele><time>2026-04-11T10:09:14.031Z</time></trkpt><trkpt lat="44.784165" lon="9.34325"><ele>704.0</ele><time>2026-04-11T10:09:15.032Z</time></trkpt><trkpt lat="44.7841033" lon="9.3433367"><ele>702.0</ele><time>2026-04-11T10:09:16.038Z</time></trkpt><trkpt lat="44.7840317" lon="9.343415"><ele>700.0</ele><time>2026-04-11T10:09:17.038Z</time></trkpt><trkpt lat="44.7839533" lon="9.34349"><ele>698.0</ele><time>2026-04-11T10:09:18.037Z</time></trkpt><trkpt lat="44.7838733" lon="9.3435633"><ele>696.0</ele><time>2026-04-11T10:09:19.039Z</time></trkpt><trkpt lat="44.7837883" lon="9.3436333"><ele>696.0</ele><time>2026-04-11T10:09:20.034Z</time></trkpt><trkpt lat="44.7837017" lon="9.3437017"><ele>696.0</ele><time>2026-04-11T10:09:21.039Z</time></trkpt><trkpt lat="44.7836167" lon="9.3437733"><ele>696.0</ele><time>2026-04-11T10:09:22.031Z</time></trkpt><trkpt lat="44.78353" lon="9.3438517"><ele>696.0</ele><time>2026-04-11T10:09:23.038Z</time></trkpt><trkpt lat="44.7834383" lon="9.3439317"><ele>696.0</ele><time>2026-04-11T10:09:24.038Z</time></trkpt><trkpt lat="44.7833467" lon="9.3440083"><ele>693.8</ele><time>2026-04-11T10:09:25.033Z</time></trkpt><trkpt lat="44.7832517" lon="9.3440783"><ele>691.5999999999999</ele><time>2026-04-11T10:09:26.033Z</time></trkpt><trkpt lat="44.783155" lon="9.3441417"><ele>689.4</ele><time>2026-04-11T10:09:27.034Z</time></trkpt><trkpt lat="44.78306" lon="9.3441967"><ele>687.2</ele><time>2026-04-11T10:09:28.032Z</time></trkpt><trkpt lat="44.7829683" lon="9.3442483"><ele>685.0</ele><time>2026-04-11T10:09:29.031Z</time></trkpt><trkpt lat="44.782885" lon="9.3442933"><ele>685.0</ele><time>2026-04-11T10:09:30.03Z</time></trkpt><trkpt lat="44.782805" lon="9.3443383"><ele>685.0</ele><time>2026-04-11T10:09:31.035Z</time></trkpt><trkpt lat="44.7827267" lon="9.34439"><ele>685.0</ele><time>2026-04-11T10:09:32.035Z</time></trkpt><trkpt lat="44.7826433" lon="9.3444417"><ele>685.0</ele><time>2026-04-11T10:09:33.031Z</time></trkpt><trkpt lat="44.7825567" lon="9.344475"><ele>685.0</ele><time>2026-04-11T10:09:34.03Z</time></trkpt><trkpt lat="44.7824683" lon="9.3445033"><ele>685.0</ele><time>2026-04-11T10:09:35.029Z</time></trkpt><trkpt lat="44.7823817" lon="9.3445233"><ele>682.6</ele><time>2026-04-11T10:09:36.033Z</time></trkpt><trkpt lat="44.782295" lon="9.34452"><ele>680.2</ele><time>2026-04-11T10:09:37.031Z</time></trkpt><trkpt lat="44.7822083" lon="9.3444967"><ele>677.8</ele><time>2026-04-11T10:09:38.03Z</time></trkpt><trkpt lat="44.7821167" lon="9.34445"><ele>675.4</ele><time>2026-04-11T10:09:39.031Z</time></trkpt><trkpt lat="44.78202" lon="9.3443933"><ele>673.0</ele><time>2026-04-11T10:09:40.033Z</time></trkpt><trkpt lat="44.7819267" lon="9.344335"><ele>671.0</ele><time>2026-04-11T10:09:41.031Z</time></trkpt><trkpt lat="44.7818417" lon="9.3442783"><ele>669.0</ele><time>2026-04-11T10:09:42.032Z</time></trkpt><trkpt lat="44.7817667" lon="9.3442183"><ele>667.0</ele><time>2026-04-11T10:09:43.03Z</time></trkpt><trkpt lat="44.7817017" lon="9.34415"><ele>665.0</ele><time>2026-04-11T10:09:44.031Z</time></trkpt><trkpt lat="44.7816483" lon="9.3440867"><ele>663.0</ele><time>2026-04-11T10:09:45.032Z</time></trkpt><trkpt lat="44.7815967" lon="9.3440333"><ele>661.0</ele><time>2026-04-11T10:09:46.03Z</time></trkpt><trkpt lat="44.781495" lon="9.3439867"><ele>661.0</ele><time>2026-04-11T10:09:48.031Z</time></trkpt><trkpt lat="44.7813817" lon="9.3440367"><ele>661.0</ele><time>2026-04-11T10:09:50.031Z</time></trkpt><trkpt lat="44.781315" lon="9.3440517"><ele>661.0</ele><time>2026-04-11T10:09:51.033Z</time></trkpt><trkpt lat="44.7812467" lon="9.3440633"><ele>661.0</ele><time>2026-04-11T10:09:52.03Z</time></trkpt><trkpt lat="44.781185" lon="9.3440867"><ele>661.0</ele><time>2026-04-11T10:09:53.032Z</time></trkpt><trkpt lat="44.7811183" lon="9.3441167"><ele>661.0</ele><time>2026-04-11T10:09:54.031Z</time></trkpt><trkpt lat="44.7810533" lon="9.3441533"><ele>656.8</ele><time>2026-04-11T10:09:55.031Z</time></trkpt><trkpt lat="44.780945" lon="9.3442217"><ele>652.5999999999999</ele><time>2026-04-11T10:09:57.033Z</time></trkpt><trkpt lat="44.78087" lon="9.3443367"><ele>648.4</ele><time>2026-04-11T10:09:59.03Z</time></trkpt><trkpt lat="44.780815" lon="9.3444617"><ele>644.2</ele><time>2026-04-11T10:10:01.031Z</time></trkpt><trkpt lat="44.7807417" lon="9.3445367"><ele>640.0</ele><time>2026-04-11T10:10:03.031Z</time></trkpt><trkpt lat="44.7806367" lon="9.3444917"><ele>640.0</ele><time>2026-04-11T10:10:05.029Z</time></trkpt><trkpt lat="44.7805767" lon="9.3444583"><ele>640.0</ele><time>2026-04-11T10:10:06.028Z</time></trkpt><trkpt lat="44.7805117" lon="9.3444283"><ele>640.0</ele><time>2026-04-11T10:10:07.029Z</time></trkpt><trkpt lat="44.7804467" lon="9.3444"><ele>640.0</ele><time>2026-04-11T10:10:08.03Z</time></trkpt><trkpt lat="44.7803817" lon="9.3443733"><ele>640.0</ele><time>2026-04-11T10:10:09.03Z</time></trkpt><trkpt lat="44.78031" lon="9.3443467"><ele>640.0</ele><time>2026-04-11T10:10:10.034Z</time></trkpt><trkpt lat="44.7802483" lon="9.3443183"><ele>640.0</ele><time>2026-04-11T10:10:11.029Z</time></trkpt><trkpt lat="44.7801367" lon="9.3442683"><ele>636.3333333333334</ele><time>2026-04-11T10:10:13.029Z</time></trkpt><trkpt lat="44.7800367" lon="9.3442917"><ele>632.6666666666667</ele><time>2026-04-11T10:10:15.03Z</time></trkpt><trkpt lat="44.779975" lon="9.3443317"><ele>629.0</ele><time>2026-04-11T10:10:16.03Z</time></trkpt><trkpt lat="44.7798483" lon="9.3443717"><ele>625.3333333333334</ele><time>2026-04-11T10:10:18.031Z</time></trkpt><trkpt lat="44.7797783" lon="9.3443817"><ele>621.6666666666666</ele><time>2026-04-11T10:10:19.029Z</time></trkpt><trkpt lat="44.7797067" lon="9.3443983"><ele>618.0</ele><time>2026-04-11T10:10:20.03Z</time></trkpt><trkpt lat="44.7796333" lon="9.34442"><ele>618.0000000000001</ele><time>2026-04-11T10:10:21.03Z</time></trkpt><trkpt lat="44.7795583" lon="9.3444217"><ele>618.0</ele><time>2026-04-11T10:10:22.031Z</time></trkpt><trkpt lat="44.7794817" lon="9.3443967"><ele>618.0</ele><time>2026-04-11T10:10:23.032Z</time></trkpt><trkpt lat="44.77941" lon="9.3443617"><ele>618.0</ele><time>2026-04-11T10:10:24.03Z</time></trkpt><trkpt lat="44.7793417" lon="9.34433"><ele>618.0</ele><time>2026-04-11T10:10:25.03Z</time></trkpt><trkpt lat="44.7792767" lon="9.3443083"><ele>618.0000000000001</ele><time>2026-04-11T10:10:26.029Z</time></trkpt><trkpt lat="44.7792117" lon="9.3443017"><ele>618.0</ele><time>2026-04-11T10:10:27.03Z</time></trkpt><trkpt lat="44.7791033" lon="9.3443133"><ele>614.8</ele><time>2026-04-11T10:10:29.032Z</time></trkpt><trkpt lat="44.779" lon="9.3443217"><ele>611.5999999999999</ele><time>2026-04-11T10:10:31.03Z</time></trkpt><trkpt lat="44.7789" lon="9.3443017"><ele>608.4000000000001</ele><time>2026-04-11T10:10:33.034Z</time></trkpt><trkpt lat="44.7787983" lon="9.3442683"><ele>605.2</ele><time>2026-04-11T10:10:35.029Z</time></trkpt><trkpt lat="44.7786867" lon="9.3442383"><ele>602.0</ele><time>2026-04-11T10:10:37.03Z</time></trkpt><trkpt lat="44.7785483" lon="9.3442617"><ele>600.5</ele><time>2026-04-11T10:10:39.03Z</time></trkpt><trkpt lat="44.778435" lon="9.3442467"><ele>599.0</ele><time>2026-04-11T10:10:41.029Z</time></trkpt><trkpt lat="44.77833" lon="9.3442317"><ele>597.5</ele><time>2026-04-11T10:10:43.033Z</time></trkpt><trkpt lat="44.778265" lon="9.3442467"><ele>596.0</ele><time>2026-04-11T10:10:44.029Z</time></trkpt><trkpt lat="44.778195" lon="9.34428"><ele>594.5</ele><time>2026-04-11T10:10:45.035Z</time></trkpt><trkpt lat="44.7781233" lon="9.34435"><ele>593.0</ele><time>2026-04-11T10:10:46.032Z</time></trkpt><trkpt lat="44.7780533" lon="9.344455"><ele>593.0</ele><time>2026-04-11T10:10:47.038Z</time></trkpt><trkpt lat="44.7779767" lon="9.3445783"><ele>593.0</ele><time>2026-04-11T10:10:48.031Z</time></trkpt><trkpt lat="44.777895" lon="9.3446833"><ele>593.0</ele><time>2026-04-11T10:10:49.033Z</time></trkpt><trkpt lat="44.7778033" lon="9.3447783"><ele>593.0</ele><time>2026-04-11T10:10:50.034Z</time></trkpt><trkpt lat="44.7777083" lon="9.3448733"><ele>590.8333333333333</ele><time>2026-04-11T10:10:51.033Z</time></trkpt><trkpt lat="44.7776367" lon="9.3449383"><ele>588.6666666666666</ele><time>2026-04-11T10:10:52.033Z</time></trkpt><trkpt lat="44.7775833" lon="9.34499"><ele>586.5</ele><time>2026-04-11T10:10:53.035Z</time></trkpt><trkpt lat="44.77751" lon="9.34494"><ele>584.3333333333334</ele><time>2026-04-11T10:10:56.037Z</time></trkpt><trkpt lat="44.7774733" lon="9.3448167"><ele>582.1666666666667</ele><time>2026-04-11T10:10:58.038Z</time></trkpt><trkpt lat="44.7773967" lon="9.34491"><ele>580.0</ele><time>2026-04-11T10:11:01.037Z</time></trkpt><trkpt lat="44.77733" lon="9.3450617"><ele>580.0</ele><time>2026-04-11T10:11:03.037Z</time></trkpt><trkpt lat="44.7772833" lon="9.3451267"><ele>580.0</ele><time>2026-04-11T10:11:04.037Z</time></trkpt><trkpt lat="44.77718" lon="9.3452217"><ele>580.0</ele><time>2026-04-11T10:11:06.038Z</time></trkpt><trkpt lat="44.7770933" lon="9.3452833"><ele>580.0</ele><time>2026-04-11T10:11:08.037Z</time></trkpt><trkpt lat="44.777155" lon="9.3453567"><ele>580.0</ele><time>2026-04-11T10:11:12.037Z</time></trkpt><trkpt lat="44.7772133" lon="9.34531"><ele>580.0</ele><time>2026-04-11T10:11:14.035Z</time></trkpt><trkpt lat="44.7772367" lon="9.345405"><ele>580.0</ele><time>2026-04-11T10:11:21.032Z</time></trkpt><trkpt lat="44.77719" lon="9.3455167"><ele>580.0</ele><time>2026-04-11T10:11:23.033Z</time></trkpt><trkpt lat="44.7771533" lon="9.345695"><ele>580.0</ele><time>2026-04-11T10:11:25.029Z</time></trkpt><trkpt lat="44.7771383" lon="9.3457933"><ele>580.0</ele><time>2026-04-11T10:11:26.032Z</time></trkpt><trkpt lat="44.777115" lon="9.3458833"><ele>580.0</ele><time>2026-04-11T10:11:27.035Z</time></trkpt><trkpt lat="44.7770767" lon="9.34596"><ele>580.0</ele><time>2026-04-11T10:11:28.033Z</time></trkpt><trkpt lat="44.7770367" lon="9.3460317"><ele>579.1666666666667</ele><time>2026-04-11T10:11:29.037Z</time></trkpt><trkpt lat="44.7769983" lon="9.34612"><ele>578.3333333333334</ele><time>2026-04-11T10:11:30.034Z</time></trkpt><trkpt lat="44.7769717" lon="9.3462233"><ele>577.5</ele><time>2026-04-11T10:11:31.033Z</time></trkpt><trkpt lat="44.7769467" lon="9.3463167"><ele>576.6666666666666</ele><time>2026-04-11T10:11:32.037Z</time></trkpt><trkpt lat="44.7768683" lon="9.34646"><ele>575.8333333333333</ele><time>2026-04-11T10:11:34.029Z</time></trkpt><trkpt lat="44.7768317" lon="9.3465417"><ele>575.0</ele><time>2026-04-11T10:11:35.033Z</time></trkpt><trkpt lat="44.7768033" lon="9.346645"><ele>574.0</ele><time>2026-04-11T10:11:36.041Z</time></trkpt><trkpt lat="44.77677" lon="9.3467367"><ele>573.0</ele><time>2026-04-11T10:11:37.038Z</time></trkpt><trkpt lat="44.77673" lon="9.3468167"><ele>572.0</ele><time>2026-04-11T10:11:38.037Z</time></trkpt><trkpt lat="44.7766833" lon="9.34689"><ele>571.0</ele><time>2026-04-11T10:11:39.04Z</time></trkpt><trkpt lat="44.77663" lon="9.34696"><ele>570.0</ele><time>2026-04-11T10:11:40.031Z</time></trkpt><trkpt lat="44.7765717" lon="9.3470217"><ele>569.0</ele><time>2026-04-11T10:11:41.033Z</time></trkpt><trkpt lat="44.77651" lon="9.34707"><ele>568.0</ele><time>2026-04-11T10:11:42.032Z</time></trkpt><trkpt lat="44.7764417" lon="9.3471017"><ele>568.0</ele><time>2026-04-11T10:11:43.031Z</time></trkpt><trkpt lat="44.7763683" lon="9.347115"><ele>568.0</ele><time>2026-04-11T10:11:44.033Z</time></trkpt><trkpt lat="44.7762917" lon="9.3471317"><ele>568.0</ele><time>2026-04-11T10:11:45.033Z</time></trkpt><trkpt lat="44.77623" lon="9.3471583"><ele>568.0</ele><time>2026-04-11T10:11:46.032Z</time></trkpt><trkpt lat="44.7761333" lon="9.3472417"><ele>568.0</ele><time>2026-04-11T10:11:48.033Z</time></trkpt><trkpt lat="44.7760983" lon="9.3473367"><ele>568.0</ele><time>2026-04-11T10:11:50.032Z</time></trkpt><trkpt lat="44.7760483" lon="9.3474567"><ele>563.8</ele><time>2026-04-11T10:11:52.031Z</time></trkpt><trkpt lat="44.775965" lon="9.347565"><ele>559.5999999999999</ele><time>2026-04-11T10:11:54.031Z</time></trkpt><trkpt lat="44.7758633" lon="9.3476117"><ele>555.4000000000001</ele><time>2026-04-11T10:11:56.033Z</time></trkpt><trkpt lat="44.775755" lon="9.3476717"><ele>551.2</ele><time>2026-04-11T10:11:58.028Z</time></trkpt><trkpt lat="44.77566" lon="9.3477117"><ele>547.0</ele><time>2026-04-11T10:12:00.029Z</time></trkpt><trkpt lat="44.7755467" lon="9.3476867"><ele>547.0</ele><time>2026-04-11T10:12:02.034Z</time></trkpt><trkpt lat="44.7754783" lon="9.3476583"><ele>547.0</ele><time>2026-04-11T10:12:03.032Z</time></trkpt><trkpt lat="44.7754183" lon="9.34763"><ele>547.0</ele><time>2026-04-11T10:12:04.03Z</time></trkpt><trkpt lat="44.7753067" lon="9.3475533"><ele>547.0</ele><time>2026-04-11T10:12:06.034Z</time></trkpt><trkpt lat="44.7752483" lon="9.3475017"><ele>547.0</ele><time>2026-04-11T10:12:07.032Z</time></trkpt><trkpt lat="44.7751933" lon="9.3474367"><ele>547.0</ele><time>2026-04-11T10:12:08.032Z</time></trkpt><trkpt lat="44.775145" lon="9.3473633"><ele>544.6666666666667</ele><time>2026-04-11T10:12:09.032Z</time></trkpt><trkpt lat="44.7751017" lon="9.3472983"><ele>542.3333333333334</ele><time>2026-04-11T10:12:10.03Z</time></trkpt><trkpt lat="44.77501" lon="9.34723"><ele>540.0</ele><time>2026-04-11T10:12:12.03Z</time></trkpt><trkpt lat="44.7749317" lon="9.3471917"><ele>537.6666666666666</ele><time>2026-04-11T10:12:14.03Z</time></trkpt><trkpt lat="44.7748483" lon="9.34713"><ele>535.3333333333333</ele><time>2026-04-11T10:12:17.032Z</time></trkpt><trkpt lat="44.7747917" lon="9.34707"><ele>533.0</ele><time>2026-04-11T10:12:19.037Z</time></trkpt><trkpt lat="44.7747217" lon="9.346925"><ele>533.0</ele><time>2026-04-11T10:12:21.031Z</time></trkpt><trkpt lat="44.7746617" lon="9.346825"><ele>533.0</ele><time>2026-04-11T10:12:22.038Z</time></trkpt><trkpt lat="44.7745717" lon="9.346745"><ele>533.0</ele><time>2026-04-11T10:12:23.038Z</time></trkpt><trkpt lat="44.7744617" lon="9.3467083"><ele>533.0</ele><time>2026-04-11T10:12:24.038Z</time></trkpt><trkpt lat="44.7743433" lon="9.3467083"><ele>533.0</ele><time>2026-04-11T10:12:25.038Z</time></trkpt><trkpt lat="44.7742317" lon="9.3467133"><ele>531.0</ele><time>2026-04-11T10:12:26.036Z</time></trkpt><trkpt lat="44.77413" lon="9.3467017"><ele>529.0</ele><time>2026-04-11T10:12:27.038Z</time></trkpt><trkpt lat="44.774035" lon="9.3466733"><ele>527.0</ele><time>2026-04-11T10:12:28.035Z</time></trkpt><trkpt lat="44.7739517" lon="9.346625"><ele>525.0</ele><time>2026-04-11T10:12:29.033Z</time></trkpt><trkpt lat="44.7738817" lon="9.346565"><ele>523.0</ele><time>2026-04-11T10:12:30.037Z</time></trkpt><trkpt lat="44.7738183" lon="9.3465067"><ele>521.0</ele><time>2026-04-11T10:12:31.035Z</time></trkpt><trkpt lat="44.7737483" lon="9.34646"><ele>521.0</ele><time>2026-04-11T10:12:32.035Z</time></trkpt><trkpt lat="44.77367" lon="9.346425"><ele>521.0</ele><time>2026-04-11T10:12:33.031Z</time></trkpt><trkpt lat="44.7735817" lon="9.3463983"><ele>521.0</ele><time>2026-04-11T10:12:34.033Z</time></trkpt><trkpt lat="44.77349" lon="9.3463833"><ele>521.0</ele><time>2026-04-11T10:12:35.036Z</time></trkpt><trkpt lat="44.773405" lon="9.346375"><ele>521.0</ele><time>2026-04-11T10:12:36.039Z</time></trkpt><trkpt lat="44.7733317" lon="9.34638"><ele>521.0</ele><time>2026-04-11T10:12:37.032Z</time></trkpt><trkpt lat="44.7732633" lon="9.3464083"><ele>520.6666666666666</ele><time>2026-04-11T10:12:38.038Z</time></trkpt><trkpt lat="44.7731967" lon="9.346455"><ele>520.3333333333333</ele><time>2026-04-11T10:12:39.038Z</time></trkpt><trkpt lat="44.7731267" lon="9.3465067"><ele>520.0</ele><time>2026-04-11T10:12:40.036Z</time></trkpt><trkpt lat="44.7730517" lon="9.3465517"><ele>519.6666666666666</ele><time>2026-04-11T10:12:41.03Z</time></trkpt><trkpt lat="44.7729817" lon="9.346595"><ele>519.3333333333334</ele><time>2026-04-11T10:12:42.031Z</time></trkpt><trkpt lat="44.772915" lon="9.3466367"><ele>519.0</ele><time>2026-04-11T10:12:43.032Z</time></trkpt><trkpt lat="44.7728483" lon="9.346675"><ele>519.0</ele><time>2026-04-11T10:12:44.031Z</time></trkpt><trkpt lat="44.772785" lon="9.346705"><ele>519.0</ele><time>2026-04-11T10:12:45.03Z</time></trkpt><trkpt lat="44.7727217" lon="9.34673"><ele>519.0</ele><time>2026-04-11T10:12:46.03Z</time></trkpt><trkpt lat="44.77266" lon="9.34676"><ele>519.0</ele><time>2026-04-11T10:12:47.031Z</time></trkpt><trkpt lat="44.7725517" lon="9.3468"><ele>519.0</ele><time>2026-04-11T10:12:49.03Z</time></trkpt><trkpt lat="44.77247" lon="9.346785"><ele>519.0</ele><time>2026-04-11T10:12:51.033Z</time></trkpt><trkpt lat="44.7723867" lon="9.34679"><ele>516.8</ele><time>2026-04-11T10:12:54.03Z</time></trkpt><trkpt lat="44.7722917" lon="9.3468133"><ele>514.5999999999999</ele><time>2026-04-11T10:12:57.033Z</time></trkpt><trkpt lat="44.7721933" lon="9.3468417"><ele>512.4</ele><time>2026-04-11T10:12:59.032Z</time></trkpt><trkpt lat="44.7720883" lon="9.3468833"><ele>510.2</ele><time>2026-04-11T10:13:01.034Z</time></trkpt><trkpt lat="44.77203" lon="9.3469233"><ele>508.0</ele><time>2026-04-11T10:13:02.03Z</time></trkpt><trkpt lat="44.7719533" lon="9.3469633"><ele>508.0</ele><time>2026-04-11T10:13:03.033Z</time></trkpt><trkpt lat="44.7718667" lon="9.3469917"><ele>507.99999999999994</ele><time>2026-04-11T10:13:04.031Z</time></trkpt><trkpt lat="44.7717667" lon="9.3470083"><ele>507.99999999999994</ele><time>2026-04-11T10:13:05.031Z</time></trkpt><trkpt lat="44.771655" lon="9.3470183"><ele>508.0</ele><time>2026-04-11T10:13:06.029Z</time></trkpt><trkpt lat="44.771545" lon="9.347025"><ele>508.0</ele><time>2026-04-11T10:13:07.03Z</time></trkpt><trkpt lat="44.7714367" lon="9.3470367"><ele>505.6666666666667</ele><time>2026-04-11T10:13:08.031Z</time></trkpt><trkpt lat="44.77134" lon="9.34705"><ele>503.33333333333337</ele><time>2026-04-11T10:13:09.03Z</time></trkpt><trkpt lat="44.7712483" lon="9.3470683"><ele>501.0</ele><time>2026-04-11T10:13:10.03Z</time></trkpt><trkpt lat="44.771165" lon="9.3470933"><ele>498.66666666666663</ele><time>2026-04-11T10:13:11.031Z</time></trkpt><trkpt lat="44.77109" lon="9.3471183"><ele>496.3333333333333</ele><time>2026-04-11T10:13:12.031Z</time></trkpt><trkpt lat="44.7710117" lon="9.34714"><ele>494.0</ele><time>2026-04-11T10:13:13.031Z</time></trkpt><trkpt lat="44.770945" lon="9.3471533"><ele>492.99999999999994</ele><time>2026-04-11T10:13:14.029Z</time></trkpt><trkpt lat="44.7708433" lon="9.3471867"><ele>492.0</ele><time>2026-04-11T10:13:16.03Z</time></trkpt><trkpt lat="44.7707783" lon="9.3471783"><ele>491.0</ele><time>2026-04-11T10:13:18.031Z</time></trkpt><trkpt lat="44.7707667" lon="9.347065"><ele>490.0</ele><time>2026-04-11T10:13:21.034Z</time></trkpt><trkpt lat="44.7707667" lon="9.3469267"><ele>488.99999999999994</ele><time>2026-04-11T10:13:23.031Z</time></trkpt><trkpt lat="44.7707317" lon="9.3468517"><ele>488.0</ele><time>2026-04-11T10:13:24.036Z</time></trkpt><trkpt lat="44.7706633" lon="9.3467767"><ele>488.0</ele><time>2026-04-11T10:13:25.033Z</time></trkpt><trkpt lat="44.770555" lon="9.3466967"><ele>488.0</ele><time>2026-04-11T10:13:26.036Z</time></trkpt><trkpt lat="44.770435" lon="9.3466067"><ele>488.0</ele><time>2026-04-11T10:13:27.037Z</time></trkpt><trkpt lat="44.7703217" lon="9.3465067"><ele>488.0</ele><time>2026-04-11T10:13:28.037Z</time></trkpt><trkpt lat="44.7702167" lon="9.346415"><ele>484.75</ele><time>2026-04-11T10:13:29.035Z</time></trkpt><trkpt lat="44.7701117" lon="9.346325"><ele>481.5</ele><time>2026-04-11T10:13:30.036Z</time></trkpt><trkpt lat="44.77001" lon="9.346235"><ele>478.25</ele><time>2026-04-11T10:13:31.038Z</time></trkpt><trkpt lat="44.7699133" lon="9.3461417"><ele>475.0</ele><time>2026-04-11T10:13:32.037Z</time></trkpt><trkpt lat="44.76982" lon="9.3460433"><ele>475.0</ele><time>2026-04-11T10:13:33.037Z</time></trkpt><trkpt lat="44.7697283" lon="9.34594"><ele>475.0</ele><time>2026-04-11T10:13:34.041Z</time></trkpt><trkpt lat="44.76963" lon="9.3458367"><ele>475.0</ele><time>2026-04-11T10:13:35.042Z</time></trkpt><trkpt lat="44.769525" lon="9.34573"><ele>475.0</ele><time>2026-04-11T10:13:36.039Z</time></trkpt><trkpt lat="44.7694167" lon="9.3456283"><ele>470.0</ele><time>2026-04-11T10:13:37.036Z</time></trkpt><trkpt lat="44.76931" lon="9.3455333"><ele>465.0</ele><time>2026-04-11T10:13:38.038Z</time></trkpt><trkpt lat="44.7692067" lon="9.3454383"><ele>460.0</ele><time>2026-04-11T10:13:39.042Z</time></trkpt><trkpt lat="44.7691167" lon="9.3453417"><ele>455.0</ele><time>2026-04-11T10:13:40.035Z</time></trkpt><trkpt lat="44.7690467" lon="9.34524"><ele>454.99999999999994</ele><time>2026-04-11T10:13:41.034Z</time></trkpt><trkpt lat="44.769" lon="9.34513"><ele>455.0</ele><time>2026-04-11T10:13:42.037Z</time></trkpt><trkpt lat="44.7689767" lon="9.3450183"><ele>455.0</ele><time>2026-04-11T10:13:43.036Z</time></trkpt><trkpt lat="44.7689433" lon="9.34489"><ele>455.0</ele><time>2026-04-11T10:13:45.038Z</time></trkpt><trkpt lat="44.768885" lon="9.3450067"><ele>454.99999999999994</ele><time>2026-04-11T10:13:48.032Z</time></trkpt><trkpt lat="44.7688717" lon="9.34511"><ele>455.0</ele><time>2026-04-11T10:13:49.038Z</time></trkpt><trkpt lat="44.7688517" lon="9.345235"><ele>455.0</ele><time>2026-04-11T10:13:50.033Z</time></trkpt><trkpt lat="44.7688283" lon="9.3453767"><ele>455.0</ele><time>2026-04-11T10:13:51.042Z</time></trkpt><trkpt lat="44.7688" lon="9.3455317"><ele>455.0</ele><time>2026-04-11T10:13:52.034Z</time></trkpt><trkpt lat="44.768765" lon="9.345695"><ele>455.0</ele><time>2026-04-11T10:13:53.037Z</time></trkpt><trkpt lat="44.7687167" lon="9.3458583"><ele>455.0</ele><time>2026-04-11T10:13:54.038Z</time></trkpt><trkpt lat="44.768665" lon="9.3460117"><ele>455.0</ele><time>2026-04-11T10:13:55.034Z</time></trkpt><trkpt lat="44.768615" lon="9.3461583"><ele>455.0</ele><time>2026-04-11T10:13:56.035Z</time></trkpt><trkpt lat="44.7685683" lon="9.3462967"><ele>455.0</ele><time>2026-04-11T10:13:57.038Z</time></trkpt><trkpt lat="44.768525" lon="9.3464283"><ele>455.0</ele><time>2026-04-11T10:13:58.035Z</time></trkpt><trkpt lat="44.7684833" lon="9.3465583"><ele>451.2</ele><time>2026-04-11T10:13:59.034Z</time></trkpt><trkpt lat="44.7684467" lon="9.3466817"><ele>447.4</ele><time>2026-04-11T10:14:00.034Z</time></trkpt><trkpt lat="44.7684217" lon="9.34681"><ele>443.6</ele><time>2026-04-11T10:14:01.037Z</time></trkpt><trkpt lat="44.7684133" lon="9.3469583"><ele>439.8</ele><time>2026-04-11T10:14:02.035Z</time></trkpt><trkpt lat="44.7684283" lon="9.347135"><ele>436.0</ele><time>2026-04-11T10:14:03.041Z</time></trkpt><trkpt lat="44.768465" lon="9.347325"><ele>436.0</ele><time>2026-04-11T10:14:04.039Z</time></trkpt><trkpt lat="44.7685133" lon="9.3475183"><ele>436.0</ele><time>2026-04-11T10:14:05.037Z</time></trkpt><trkpt lat="44.76857" lon="9.3477217"><ele>436.0</ele><time>2026-04-11T10:14:06.036Z</time></trkpt><trkpt lat="44.7686267" lon="9.3479267"><ele>440.5</ele><time>2026-04-11T10:14:07.039Z</time></trkpt><trkpt lat="44.768675" lon="9.3481267"><ele>445.0</ele><time>2026-04-11T10:14:08.036Z</time></trkpt><trkpt lat="44.76872" lon="9.3483267"><ele>449.5</ele><time>2026-04-11T10:14:09.038Z</time></trkpt><trkpt lat="44.7687617" lon="9.3485217"><ele>454.0</ele><time>2026-04-11T10:14:10.036Z</time></trkpt><trkpt lat="44.7688" lon="9.3486983"><ele>454.00000000000006</ele><time>2026-04-11T10:14:11.036Z</time></trkpt><trkpt lat="44.7688267" lon="9.3488567"><ele>454.0</ele><time>2026-04-11T10:14:12.032Z</time></trkpt><trkpt lat="44.7688417" lon="9.348995"><ele>454.0</ele><time>2026-04-11T10:14:13.036Z</time></trkpt><trkpt lat="44.7688483" lon="9.3491167"><ele>454.0</ele><time>2026-04-11T10:14:14.03Z</time></trkpt><trkpt lat="44.76885" lon="9.349215"><ele>454.00000000000006</ele><time>2026-04-11T10:14:15.037Z</time></trkpt><trkpt lat="44.7688767" lon="9.3493133"><ele>454.0</ele><time>2026-04-11T10:14:16.037Z</time></trkpt><trkpt lat="44.76893" lon="9.3494"><ele>453.50000000000006</ele><time>2026-04-11T10:14:17.029Z</time></trkpt><trkpt lat="44.7689933" lon="9.3494683"><ele>453.0</ele><time>2026-04-11T10:14:18.035Z</time></trkpt><trkpt lat="44.7690583" lon="9.34953"><ele>452.5</ele><time>2026-04-11T10:14:19.032Z</time></trkpt><trkpt lat="44.7691233" lon="9.3495917"><ele>452.0</ele><time>2026-04-11T10:14:20.034Z</time></trkpt><trkpt lat="44.7691667" lon="9.349665"><ele>451.50000000000006</ele><time>2026-04-11T10:14:21.032Z</time></trkpt><trkpt lat="44.7691733" lon="9.3498417"><ele>451.0</ele><time>2026-04-11T10:14:23.032Z</time></trkpt><trkpt lat="44.7691783" lon="9.349945"><ele>449.20000000000005</ele><time>2026-04-11T10:14:24.035Z</time></trkpt><trkpt lat="44.7691967" lon="9.3500617"><ele>447.40000000000003</ele><time>2026-04-11T10:14:25.032Z</time></trkpt><trkpt lat="44.7692217" lon="9.3501933"><ele>445.6</ele><time>2026-04-11T10:14:26.031Z</time></trkpt><trkpt lat="44.76925" lon="9.350335"><ele>443.8</ele><time>2026-04-11T10:14:27.033Z</time></trkpt><trkpt lat="44.7692683" lon="9.3504917"><ele>442.0</ele><time>2026-04-11T10:14:28.033Z</time></trkpt><trkpt lat="44.76928" lon="9.3506533"><ele>440.6</ele><time>2026-04-11T10:14:29.033Z</time></trkpt><trkpt lat="44.7692933" lon="9.3508067"><ele>439.20000000000005</ele><time>2026-04-11T10:14:30.032Z</time></trkpt><trkpt lat="44.769305" lon="9.3509467"><ele>437.8</ele><time>2026-04-11T10:14:31.038Z</time></trkpt><trkpt lat="44.7693067" lon="9.3510733"><ele>436.4</ele><time>2026-04-11T10:14:32.033Z</time></trkpt><trkpt lat="44.7692933" lon="9.3511817"><ele>435.0</ele><time>2026-04-11T10:14:33.031Z</time></trkpt><trkpt lat="44.7692733" lon="9.3512883"><ele>433.8333333333333</ele><time>2026-04-11T10:14:34.032Z</time></trkpt><trkpt lat="44.76926" lon="9.3514"><ele>432.66666666666663</ele><time>2026-04-11T10:14:35.033Z</time></trkpt><trkpt lat="44.7692633" lon="9.3515133"><ele>431.5</ele><time>2026-04-11T10:14:36.033Z</time></trkpt><trkpt lat="44.7692733" lon="9.3516317"><ele>430.3333333333333</ele><time>2026-04-11T10:14:37.032Z</time></trkpt><trkpt lat="44.769275" lon="9.3517483"><ele>429.16666666666663</ele><time>2026-04-11T10:14:38.032Z</time></trkpt><trkpt lat="44.769265" lon="9.3518733"><ele>428.0</ele><time>2026-04-11T10:14:39.03Z</time></trkpt><trkpt lat="44.7692467" lon="9.3520117"><ele>428.0</ele><time>2026-04-11T10:14:40.03Z</time></trkpt><trkpt lat="44.7692267" lon="9.352185"><ele>428.0</ele><time>2026-04-11T10:14:41.029Z</time></trkpt><trkpt lat="44.7692133" lon="9.352385"><ele>428.0</ele><time>2026-04-11T10:14:42.029Z</time></trkpt><trkpt lat="44.76921" lon="9.352595"><ele>428.0</ele><time>2026-04-11T10:14:43.03Z</time></trkpt><trkpt lat="44.7692067" lon="9.3527833"><ele>426.3333333333333</ele><time>2026-04-11T10:14:44.032Z</time></trkpt><trkpt lat="44.7692067" lon="9.3529433"><ele>424.66666666666663</ele><time>2026-04-11T10:14:45.033Z</time></trkpt><trkpt lat="44.7692017" lon="9.3530717"><ele>423.0</ele><time>2026-04-11T10:14:46.03Z</time></trkpt><trkpt lat="44.7691883" lon="9.3531833"><ele>421.33333333333337</ele><time>2026-04-11T10:14:47.031Z</time></trkpt><trkpt lat="44.769165" lon="9.35328"><ele>419.6666666666667</ele><time>2026-04-11T10:14:48.033Z</time></trkpt><trkpt lat="44.7691333" lon="9.35337"><ele>418.0</ele><time>2026-04-11T10:14:49.03Z</time></trkpt><trkpt lat="44.7690983" lon="9.3534517"><ele>416.00000000000006</ele><time>2026-04-11T10:14:50.031Z</time></trkpt><trkpt lat="44.7690683" lon="9.35353"><ele>414.0</ele><time>2026-04-11T10:14:51.034Z</time></trkpt><trkpt lat="44.7690383" lon="9.3536117"><ele>412.0</ele><time>2026-04-11T10:14:52.033Z</time></trkpt><trkpt lat="44.7690083" lon="9.3537"><ele>410.0</ele><time>2026-04-11T10:14:53.029Z</time></trkpt><trkpt lat="44.7689767" lon="9.3538017"><ele>408.00000000000006</ele><time>2026-04-11T10:14:54.033Z</time></trkpt><trkpt lat="44.768955" lon="9.3539083"><ele>406.0</ele><time>2026-04-11T10:14:55.038Z</time></trkpt><trkpt lat="44.7689067" lon="9.3540417"><ele>403.20000000000005</ele><time>2026-04-11T10:14:57.039Z</time></trkpt><trkpt lat="44.7688533" lon="9.3541483"><ele>400.40000000000003</ele><time>2026-04-11T10:14:59.031Z</time></trkpt><trkpt lat="44.7688717" lon="9.3543067"><ele>397.6</ele><time>2026-04-11T10:15:01.035Z</time></trkpt><trkpt lat="44.7689117" lon="9.35438"><ele>394.8</ele><time>2026-04-11T10:15:02.039Z</time></trkpt><trkpt lat="44.7690233" lon="9.3544067"><ele>392.0</ele><time>2026-04-11T10:15:04.03Z</time></trkpt><trkpt lat="44.769095" lon="9.3543933"><ele>392.0</ele><time>2026-04-11T10:15:05.03Z</time></trkpt><trkpt lat="44.7691633" lon="9.35438"><ele>392.0</ele><time>2026-04-11T10:15:06.029Z</time></trkpt><trkpt lat="44.7692717" lon="9.354365"><ele>392.0</ele><time>2026-04-11T10:15:08.03Z</time></trkpt><trkpt lat="44.7693033" lon="9.3545217"><ele>392.0</ele><time>2026-04-11T10:15:11.034Z</time></trkpt><trkpt lat="44.7692533" lon="9.3546683"><ele>392.0</ele><time>2026-04-11T10:15:13.034Z</time></trkpt><trkpt lat="44.7691717" lon="9.3547583"><ele>390.6</ele><time>2026-04-11T10:15:15.03Z</time></trkpt><trkpt lat="44.7690483" lon="9.3547733"><ele>389.20000000000005</ele><time>2026-04-11T10:15:17.029Z</time></trkpt><trkpt lat="44.7689783" lon="9.3548167"><ele>387.8</ele><time>2026-04-11T10:15:18.032Z</time></trkpt><trkpt lat="44.768905" lon="9.354865"><ele>386.4</ele><time>2026-04-11T10:15:19.034Z</time></trkpt><trkpt lat="44.7688383" lon="9.3549117"><ele>385.0</ele><time>2026-04-11T10:15:20.029Z</time></trkpt><trkpt lat="44.768745" lon="9.355025"><ele>385.0</ele><time>2026-04-11T10:15:22.034Z</time></trkpt><trkpt lat="44.7687033" lon="9.3550983"><ele>385.0</ele><time>2026-04-11T10:15:23.035Z</time></trkpt><trkpt lat="44.768635" lon="9.3552217"><ele>385.0</ele><time>2026-04-11T10:15:25.033Z</time></trkpt><trkpt lat="44.76856" lon="9.3553667"><ele>385.0</ele><time>2026-04-11T10:15:27.037Z</time></trkpt><trkpt lat="44.76853" lon="9.3554717"><ele>385.0</ele><time>2026-04-11T10:15:28.038Z</time></trkpt><trkpt lat="44.7685117" lon="9.35558"><ele>383.33333333333337</ele><time>2026-04-11T10:15:29.038Z</time></trkpt><trkpt lat="44.7685017" lon="9.3556933"><ele>381.6666666666667</ele><time>2026-04-11T10:15:30.034Z</time></trkpt><trkpt lat="44.76849" lon="9.3558067"><ele>380.0</ele><time>2026-04-11T10:15:31.03Z</time></trkpt><trkpt lat="44.76847" lon="9.355925"><ele>378.33333333333337</ele><time>2026-04-11T10:15:32.03Z</time></trkpt><trkpt lat="44.7684533" lon="9.3560383"><ele>376.6666666666667</ele><time>2026-04-11T10:15:33.031Z</time></trkpt><trkpt lat="44.7684367" lon="9.35616"><ele>375.0</ele><time>2026-04-11T10:15:34.034Z</time></trkpt><trkpt lat="44.7684083" lon="9.3562683"><ele>375.6666666666667</ele><time>2026-04-11T10:15:35.031Z</time></trkpt><trkpt lat="44.76837" lon="9.3563867"><ele>376.3333333333333</ele><time>2026-04-11T10:15:36.029Z</time></trkpt><trkpt lat="44.768345" lon="9.356495"><ele>377.0</ele><time>2026-04-11T10:15:37.031Z</time></trkpt><trkpt lat="44.7683367" lon="9.3565983"><ele>377.66666666666663</ele><time>2026-04-11T10:15:38.037Z</time></trkpt><trkpt lat="44.7683483" lon="9.3567117"><ele>378.3333333333333</ele><time>2026-04-11T10:15:39.03Z</time></trkpt><trkpt lat="44.7683767" lon="9.356845"><ele>379.0</ele><time>2026-04-11T10:15:40.029Z</time></trkpt><trkpt lat="44.7684183" lon="9.3569933"><ele>379.0</ele><time>2026-04-11T10:15:41.034Z</time></trkpt><trkpt lat="44.76846" lon="9.3571517"><ele>379.0</ele><time>2026-04-11T10:15:42.03Z</time></trkpt><trkpt lat="44.7685" lon="9.3573367"><ele>379.0</ele><time>2026-04-11T10:15:43.03Z</time></trkpt><trkpt lat="44.76854" lon="9.357535"><ele>379.0</ele><time>2026-04-11T10:15:44.038Z</time></trkpt><trkpt lat="44.7685767" lon="9.3577317"><ele>383.25</ele><time>2026-04-11T10:15:45.031Z</time></trkpt><trkpt lat="44.7686133" lon="9.3579233"><ele>387.5</ele><time>2026-04-11T10:15:46.031Z</time></trkpt><trkpt lat="44.7686483" lon="9.3581067"><ele>391.75</ele><time>2026-04-11T10:15:47.03Z</time></trkpt><trkpt lat="44.7686817" lon="9.3582683"><ele>396.0</ele><time>2026-04-11T10:15:48.029Z</time></trkpt><trkpt lat="44.7687167" lon="9.3584267"><ele>396.0</ele><time>2026-04-11T10:15:49.029Z</time></trkpt><trkpt lat="44.7687517" lon="9.3585833"><ele>396.0</ele><time>2026-04-11T10:15:50.029Z</time></trkpt><trkpt lat="44.76878" lon="9.3587317"><ele>396.0</ele><time>2026-04-11T10:15:51.031Z</time></trkpt><trkpt lat="44.76882" lon="9.3588633"><ele>396.0</ele><time>2026-04-11T10:15:52.034Z</time></trkpt><trkpt lat="44.7688667" lon="9.3589917"><ele>396.0</ele><time>2026-04-11T10:15:53.033Z</time></trkpt><trkpt lat="44.7689083" lon="9.3591233"><ele>395.6</ele><time>2026-04-11T10:15:54.031Z</time></trkpt><trkpt lat="44.7689217" lon="9.3592467"><ele>395.20000000000005</ele><time>2026-04-11T10:15:55.029Z</time></trkpt><trkpt lat="44.7689083" lon="9.3593567"><ele>394.79999999999995</ele><time>2026-04-11T10:15:56.033Z</time></trkpt><trkpt lat="44.7688683" lon="9.3594617"><ele>394.4</ele><time>2026-04-11T10:15:57.031Z</time></trkpt><trkpt lat="44.7688033" lon="9.3595667"><ele>394.0</ele><time>2026-04-11T10:15:58.036Z</time></trkpt><trkpt lat="44.768735" lon="9.3597117"><ele>394.0</ele><time>2026-04-11T10:15:59.037Z</time></trkpt><trkpt lat="44.768675" lon="9.359875"><ele>394.0</ele><time>2026-04-11T10:16:00.039Z</time></trkpt><trkpt lat="44.768625" lon="9.3600467"><ele>394.0</ele><time>2026-04-11T10:16:01.032Z</time></trkpt><trkpt lat="44.7685767" lon="9.3602233"><ele>394.0</ele><time>2026-04-11T10:16:02.038Z</time></trkpt><trkpt lat="44.7685333" lon="9.360415"><ele>390.25</ele><time>2026-04-11T10:16:03.036Z</time></trkpt><trkpt lat="44.7684917" lon="9.3606083"><ele>386.5</ele><time>2026-04-11T10:16:04.037Z</time></trkpt><trkpt lat="44.7684467" lon="9.360805"><ele>382.75</ele><time>2026-04-11T10:16:05.038Z</time></trkpt><trkpt lat="44.7684067" lon="9.361005"><ele>379.0</ele><time>2026-04-11T10:16:06.035Z</time></trkpt><trkpt lat="44.7683617" lon="9.361205"><ele>378.0</ele><time>2026-04-11T10:16:07.038Z</time></trkpt><trkpt lat="44.7683333" lon="9.3613933"><ele>377.0</ele><time>2026-04-11T10:16:08.036Z</time></trkpt><trkpt lat="44.7683083" lon="9.3615767"><ele>376.0</ele><time>2026-04-11T10:16:09.037Z</time></trkpt><trkpt lat="44.7683" lon="9.3617517"><ele>375.0</ele><time>2026-04-11T10:16:10.034Z</time></trkpt><trkpt lat="44.7683117" lon="9.36193"><ele>375.0</ele><time>2026-04-11T10:16:11.036Z</time></trkpt><trkpt lat="44.7683517" lon="9.3620967"><ele>375.0</ele><time>2026-04-11T10:16:12.035Z</time></trkpt><trkpt lat="44.7684083" lon="9.3622517"><ele>375.0</ele><time>2026-04-11T10:16:13.035Z</time></trkpt><trkpt lat="44.7684633" lon="9.3624017"><ele>375.0</ele><time>2026-04-11T10:16:14.036Z</time></trkpt><trkpt lat="44.76851" lon="9.36255"><ele>376.0</ele><time>2026-04-11T10:16:15.041Z</time></trkpt><trkpt lat="44.7685417" lon="9.3627083"><ele>377.0</ele><time>2026-04-11T10:16:16.038Z</time></trkpt><trkpt lat="44.7685617" lon="9.3628717"><ele>378.0</ele><time>2026-04-11T10:16:17.038Z</time></trkpt><trkpt lat="44.7685717" lon="9.36303"><ele>379.0</ele><time>2026-04-11T10:16:18.037Z</time></trkpt><trkpt lat="44.768575" lon="9.36318"><ele>379.0</ele><time>2026-04-11T10:16:19.037Z</time></trkpt><trkpt lat="44.7685733" lon="9.3633067"><ele>379.0</ele><time>2026-04-11T10:16:20.037Z</time></trkpt><trkpt lat="44.7685683" lon="9.3634133"><ele>379.0</ele><time>2026-04-11T10:16:21.038Z</time></trkpt><trkpt lat="44.7685517" lon="9.3635483"><ele>379.0</ele><time>2026-04-11T10:16:23.039Z</time></trkpt><trkpt lat="44.7684583" lon="9.363585"><ele>379.0</ele><time>2026-04-11T10:16:26.03Z</time></trkpt><trkpt lat="44.7683767" lon="9.3635667"><ele>379.0</ele><time>2026-04-11T10:16:28.029Z</time></trkpt><trkpt lat="44.7682783" lon="9.36366"><ele>376.8333333333333</ele><time>2026-04-11T10:16:30.029Z</time></trkpt><trkpt lat="44.7682133" lon="9.3637317"><ele>374.66666666666663</ele><time>2026-04-11T10:16:31.029Z</time></trkpt><trkpt lat="44.7681517" lon="9.3638"><ele>372.5</ele><time>2026-04-11T10:16:32.031Z</time></trkpt><trkpt lat="44.76809" lon="9.3638583"><ele>370.3333333333333</ele><time>2026-04-11T10:16:33.029Z</time></trkpt><trkpt lat="44.7680267" lon="9.363915"><ele>368.1666666666667</ele><time>2026-04-11T10:16:34.031Z</time></trkpt><trkpt lat="44.767965" lon="9.3639683"><ele>366.0</ele><time>2026-04-11T10:16:35.03Z</time></trkpt><trkpt lat="44.7679067" lon="9.364025"><ele>365.0</ele><time>2026-04-11T10:16:36.029Z</time></trkpt><trkpt lat="44.7678417" lon="9.3640833"><ele>364.0</ele><time>2026-04-11T10:16:37.032Z</time></trkpt><trkpt lat="44.76777" lon="9.3641367"><ele>363.0</ele><time>2026-04-11T10:16:38.032Z</time></trkpt><trkpt lat="44.7676933" lon="9.3641583"><ele>362.0</ele><time>2026-04-11T10:16:39.03Z</time></trkpt><trkpt lat="44.7676033" lon="9.364155"><ele>361.0</ele><time>2026-04-11T10:16:40.03Z</time></trkpt><trkpt lat="44.7675083" lon="9.3641467"><ele>360.0</ele><time>2026-04-11T10:16:41.034Z</time></trkpt><trkpt lat="44.767415" lon="9.3641417"><ele>358.6666666666667</ele><time>2026-04-11T10:16:42.043Z</time></trkpt><trkpt lat="44.7673317" lon="9.36414"><ele>357.3333333333333</ele><time>2026-04-11T10:16:43.03Z</time></trkpt><trkpt lat="44.7672567" lon="9.3641367"><ele>356.0</ele><time>2026-04-11T10:16:44.029Z</time></trkpt><trkpt lat="44.7671783" lon="9.3641367"><ele>354.66666666666663</ele><time>2026-04-11T10:16:45.03Z</time></trkpt><trkpt lat="44.7670933" lon="9.3641483"><ele>353.3333333333333</ele><time>2026-04-11T10:16:46.03Z</time></trkpt><trkpt lat="44.767015" lon="9.36418"><ele>352.0</ele><time>2026-04-11T10:16:47.029Z</time></trkpt><trkpt lat="44.7669367" lon="9.3642333"><ele>352.0</ele><time>2026-04-11T10:16:48.029Z</time></trkpt><trkpt lat="44.76687" lon="9.3642817"><ele>352.0</ele><time>2026-04-11T10:16:49.03Z</time></trkpt><trkpt lat="44.7667383" lon="9.36425"><ele>352.0</ele><time>2026-04-11T10:16:51.035Z</time></trkpt><trkpt lat="44.76667" lon="9.3642133"><ele>352.0</ele><time>2026-04-11T10:16:52.037Z</time></trkpt><trkpt lat="44.7665717" lon="9.3642"><ele>352.0</ele><time>2026-04-11T10:16:54.036Z</time></trkpt><trkpt lat="44.7664767" lon="9.3642183"><ele>350.66666666666663</ele><time>2026-04-11T10:16:56.036Z</time></trkpt><trkpt lat="44.766375" lon="9.3642033"><ele>349.3333333333333</ele><time>2026-04-11T10:16:58.029Z</time></trkpt><trkpt lat="44.7663133" lon="9.3641567"><ele>348.0</ele><time>2026-04-11T10:16:59.03Z</time></trkpt><trkpt lat="44.7662533" lon="9.3641183"><ele>346.6666666666667</ele><time>2026-04-11T10:17:00.03Z</time></trkpt><trkpt lat="44.76618" lon="9.364115"><ele>345.33333333333337</ele><time>2026-04-11T10:17:02.04Z</time></trkpt><trkpt lat="44.7661767" lon="9.3642133"><ele>344.0</ele><time>2026-04-11T10:17:04.036Z</time></trkpt><trkpt lat="44.7662" lon="9.364305"><ele>344.0</ele><time>2026-04-11T10:17:05.03Z</time></trkpt><trkpt lat="44.766245" lon="9.3644017"><ele>344.0</ele><time>2026-04-11T10:17:06.037Z</time></trkpt><trkpt lat="44.76628" lon="9.3644767"><ele>344.0</ele><time>2026-04-11T10:17:07.035Z</time></trkpt><trkpt lat="44.7663017" lon="9.364565"><ele>344.0</ele><time>2026-04-11T10:17:08.03Z</time></trkpt><trkpt lat="44.7663083" lon="9.364685"><ele>344.0</ele><time>2026-04-11T10:17:09.029Z</time></trkpt><trkpt lat="44.7663067" lon="9.3648483"><ele>344.0</ele><time>2026-04-11T10:17:10.031Z</time></trkpt><trkpt lat="44.7663183" lon="9.3649667"><ele>344.5</ele><time>2026-04-11T10:17:11.031Z</time></trkpt><trkpt lat="44.766335" lon="9.3650617"><ele>345.0</ele><time>2026-04-11T10:17:12.038Z</time></trkpt><trkpt lat="44.7663667" lon="9.3651517"><ele>345.5</ele><time>2026-04-11T10:17:13.033Z</time></trkpt><trkpt lat="44.7664033" lon="9.3652533"><ele>346.0</ele><time>2026-04-11T10:17:14.03Z</time></trkpt><trkpt lat="44.766435" lon="9.365365"><ele>346.5</ele><time>2026-04-11T10:17:15.038Z</time></trkpt><trkpt lat="44.7664367" lon="9.3654967"><ele>347.0</ele><time>2026-04-11T10:17:16.035Z</time></trkpt><trkpt lat="44.7664117" lon="9.3656417"><ele>347.40000000000003</ele><time>2026-04-11T10:17:17.036Z</time></trkpt><trkpt lat="44.7663733" lon="9.3657767"><ele>347.8</ele><time>2026-04-11T10:17:18.032Z</time></trkpt><trkpt lat="44.766325" lon="9.3659133"><ele>348.2</ele><time>2026-04-11T10:17:19.032Z</time></trkpt><trkpt lat="44.7662733" lon="9.3660367"><ele>348.6</ele><time>2026-04-11T10:17:20.03Z</time></trkpt><trkpt lat="44.76622" lon="9.3661567"><ele>349.0</ele><time>2026-04-11T10:17:21.029Z</time></trkpt><trkpt lat="44.766165" lon="9.3662483"><ele>349.0</ele><time>2026-04-11T10:17:22.031Z</time></trkpt><trkpt lat="44.766185" lon="9.3663467"><ele>349.0</ele><time>2026-04-11T10:17:25.035Z</time></trkpt><trkpt lat="44.7662733" lon="9.3664233"><ele>349.0</ele><time>2026-04-11T10:17:27.033Z</time></trkpt><trkpt lat="44.766335" lon="9.3664733"><ele>349.0</ele><time>2026-04-11T10:17:28.036Z</time></trkpt><trkpt lat="44.766405" lon="9.366505"><ele>349.0</ele><time>2026-04-11T10:17:29.035Z</time></trkpt><trkpt lat="44.7665183" lon="9.3665633"><ele>349.0</ele><time>2026-04-11T10:17:31.036Z</time></trkpt><trkpt lat="44.7665883" lon="9.3666883"><ele>349.0</ele><time>2026-04-11T10:17:33.035Z</time></trkpt><trkpt lat="44.7666183" lon="9.3668533"><ele>349.0</ele><time>2026-04-11T10:17:35.031Z</time></trkpt><trkpt lat="44.7666583" lon="9.367005"><ele>349.0</ele><time>2026-04-11T10:17:37.03Z</time></trkpt><trkpt lat="44.76672" lon="9.3671283"><ele>349.0</ele><time>2026-04-11T10:17:39.033Z</time></trkpt><trkpt lat="44.766755" lon="9.3672567"><ele>349.0</ele><time>2026-04-11T10:17:41.037Z</time></trkpt><trkpt lat="44.766775" lon="9.3673433"><ele>348.1428571428571</ele><time>2026-04-11T10:17:42.031Z</time></trkpt><trkpt lat="44.766795" lon="9.36743"><ele>347.2857142857143</ele><time>2026-04-11T10:17:43.03Z</time></trkpt><trkpt lat="44.7668083" lon="9.36752"><ele>346.42857142857144</ele><time>2026-04-11T10:17:44.031Z</time></trkpt><trkpt lat="44.76683" lon="9.36763"><ele>345.57142857142856</ele><time>2026-04-11T10:17:45.032Z</time></trkpt><trkpt lat="44.7668517" lon="9.3677233"><ele>344.7142857142857</ele><time>2026-04-11T10:17:46.033Z</time></trkpt><trkpt lat="44.7668683" lon="9.36782"><ele>343.85714285714283</ele><time>2026-04-11T10:17:47.031Z</time></trkpt><trkpt lat="44.7668767" lon="9.3679117"><ele>343.0</ele><time>2026-04-11T10:17:48.035Z</time></trkpt><trkpt lat="44.7668533" lon="9.3680383"><ele>341.4</ele><time>2026-04-11T10:17:50.039Z</time></trkpt><trkpt lat="44.766815" lon="9.3681983"><ele>339.79999999999995</ele><time>2026-04-11T10:17:52.031Z</time></trkpt><trkpt lat="44.7668" lon="9.3683317"><ele>338.2</ele><time>2026-04-11T10:17:54.039Z</time></trkpt><trkpt lat="44.7668083" lon="9.3684583"><ele>336.6</ele><time>2026-04-11T10:17:56.033Z</time></trkpt><trkpt lat="44.766745" lon="9.3685467"><ele>335.0</ele><time>2026-04-11T10:17:58.034Z</time></trkpt><trkpt lat="44.7666483" lon="9.36864"><ele>335.0</ele><time>2026-04-11T10:18:00.03Z</time></trkpt><trkpt lat="44.76661" lon="9.3687183"><ele>335.0</ele><time>2026-04-11T10:18:01.036Z</time></trkpt><trkpt lat="44.7665733" lon="9.3688"><ele>335.0</ele><time>2026-04-11T10:18:02.036Z</time></trkpt><trkpt lat="44.7665417" lon="9.36891"><ele>335.0</ele><time>2026-04-11T10:18:03.04Z</time></trkpt><trkpt lat="44.76652" lon="9.3690283"><ele>335.0</ele><time>2026-04-11T10:18:04.035Z</time></trkpt><trkpt lat="44.766495" lon="9.3691383"><ele>335.0</ele><time>2026-04-11T10:18:05.037Z</time></trkpt><trkpt lat="44.7664767" lon="9.369245"><ele>333.0</ele><time>2026-04-11T10:18:06.031Z</time></trkpt><trkpt lat="44.76645" lon="9.36933"><ele>331.0</ele><time>2026-04-11T10:18:07.039Z</time></trkpt><trkpt lat="44.7663783" lon="9.369415"><ele>329.0</ele><time>2026-04-11T10:18:09.041Z</time></trkpt><trkpt lat="44.7662933" lon="9.3694167"><ele>327.0</ele><time>2026-04-11T10:18:11.036Z</time></trkpt><trkpt lat="44.76622" lon="9.3693967"><ele>325.0</ele><time>2026-04-11T10:18:13.036Z</time></trkpt><trkpt lat="44.7661367" lon="9.3694267"><ele>323.0</ele><time>2026-04-11T10:18:15.033Z</time></trkpt><trkpt lat="44.7660833" lon="9.3695633"><ele>322.0</ele><time>2026-04-11T10:18:17.031Z</time></trkpt><trkpt lat="44.76607" lon="9.3697167"><ele>321.0</ele><time>2026-04-11T10:18:19.031Z</time></trkpt><trkpt lat="44.7660967" lon="9.369885"><ele>320.0</ele><time>2026-04-11T10:18:21.031Z</time></trkpt><trkpt lat="44.766105" lon="9.3700433"><ele>319.0</ele><time>2026-04-11T10:18:23.034Z</time></trkpt><trkpt lat="44.766105" lon="9.3701333"><ele>318.0</ele><time>2026-04-11T10:18:24.034Z</time></trkpt><trkpt lat="44.7661267" lon="9.3702733"><ele>318.0</ele><time>2026-04-11T10:18:26.033Z</time></trkpt><trkpt lat="44.766195" lon="9.370355"><ele>318.0</ele><time>2026-04-11T10:18:28.032Z</time></trkpt><trkpt lat="44.76628" lon="9.3704283"><ele>318.0</ele><time>2026-04-11T10:18:30.033Z</time></trkpt><trkpt lat="44.766355" lon="9.370565"><ele>318.0</ele><time>2026-04-11T10:18:32.038Z</time></trkpt><trkpt lat="44.76641" lon="9.3706667"><ele>318.0</ele><time>2026-04-11T10:18:33.032Z</time></trkpt><trkpt lat="44.7664583" lon="9.3708017"><ele>317.4</ele><time>2026-04-11T10:18:34.032Z</time></trkpt><trkpt lat="44.766515" lon="9.3709467"><ele>316.8</ele><time>2026-04-11T10:18:35.034Z</time></trkpt><trkpt lat="44.7665683" lon="9.3710767"><ele>316.2</ele><time>2026-04-11T10:18:36.034Z</time></trkpt><trkpt lat="44.7666317" lon="9.3711883"><ele>315.6</ele><time>2026-04-11T10:18:37.033Z</time></trkpt><trkpt lat="44.76669" lon="9.371285"><ele>315.0</ele><time>2026-04-11T10:18:38.032Z</time></trkpt><trkpt lat="44.7667467" lon="9.3713633"><ele>314.6</ele><time>2026-04-11T10:18:39.037Z</time></trkpt><trkpt lat="44.7668" lon="9.3714367"><ele>314.2</ele><time>2026-04-11T10:18:40.032Z</time></trkpt><trkpt lat="44.7668633" lon="9.3715283"><ele>313.8</ele><time>2026-04-11T10:18:41.038Z</time></trkpt><trkpt lat="44.7669233" lon="9.3716433"><ele>313.4</ele><time>2026-04-11T10:18:42.031Z</time></trkpt><trkpt lat="44.7669733" lon="9.371785"><ele>313.0</ele><time>2026-04-11T10:18:43.036Z</time></trkpt><trkpt lat="44.7670183" lon="9.3719367"><ele>312.6</ele><time>2026-04-11T10:18:44.033Z</time></trkpt><trkpt lat="44.7670533" lon="9.3720917"><ele>312.20000000000005</ele><time>2026-04-11T10:18:45.033Z</time></trkpt><trkpt lat="44.7670817" lon="9.3722417"><ele>311.8</ele><time>2026-04-11T10:18:46.033Z</time></trkpt><trkpt lat="44.7670917" lon="9.3723883"><ele>311.40000000000003</ele><time>2026-04-11T10:18:47.03Z</time></trkpt><trkpt lat="44.7670933" lon="9.3725367"><ele>311.0</ele><time>2026-04-11T10:18:48.032Z</time></trkpt><trkpt lat="44.767095" lon="9.3726767"><ele>311.0</ele><time>2026-04-11T10:18:49.034Z</time></trkpt><trkpt lat="44.7671" lon="9.3728217"><ele>311.0</ele><time>2026-04-11T10:18:50.033Z</time></trkpt><trkpt lat="44.76711" lon="9.3729517"><ele>311.0</ele><time>2026-04-11T10:18:51.034Z</time></trkpt><trkpt lat="44.7671217" lon="9.3730833"><ele>311.0</ele><time>2026-04-11T10:18:52.033Z</time></trkpt><trkpt lat="44.7671233" lon="9.3732233"><ele>311.0</ele><time>2026-04-11T10:18:53.038Z</time></trkpt><trkpt lat="44.7671167" lon="9.37339"><ele>309.75</ele><time>2026-04-11T10:18:54.032Z</time></trkpt><trkpt lat="44.7671067" lon="9.373585"><ele>308.5</ele><time>2026-04-11T10:18:55.033Z</time></trkpt><trkpt lat="44.7671033" lon="9.3737833"><ele>307.25</ele><time>2026-04-11T10:18:56.033Z</time></trkpt><trkpt lat="44.7671067" lon="9.3739733"><ele>306.0</ele><time>2026-04-11T10:18:57.04Z</time></trkpt><trkpt lat="44.76712" lon="9.374145"><ele>305.25</ele><time>2026-04-11T10:18:58.032Z</time></trkpt><trkpt lat="44.7671383" lon="9.3743117"><ele>304.5</ele><time>2026-04-11T10:18:59.034Z</time></trkpt><trkpt lat="44.767145" lon="9.3744733"><ele>303.75</ele><time>2026-04-11T10:19:00.029Z</time></trkpt><trkpt lat="44.7671383" lon="9.374635"><ele>303.0</ele><time>2026-04-11T10:19:01.034Z</time></trkpt><trkpt lat="44.7671333" lon="9.3747933"><ele>302.0</ele><time>2026-04-11T10:19:02.04Z</time></trkpt><trkpt lat="44.76713" lon="9.374945"><ele>301.0</ele><time>2026-04-11T10:19:03.033Z</time></trkpt><trkpt lat="44.767125" lon="9.37509"><ele>300.0</ele><time>2026-04-11T10:19:04.032Z</time></trkpt><trkpt lat="44.7671167" lon="9.37523"><ele>299.0</ele><time>2026-04-11T10:19:05.035Z</time></trkpt><trkpt lat="44.7670983" lon="9.37536"><ele>298.0</ele><time>2026-04-11T10:19:06.036Z</time></trkpt><trkpt lat="44.7670667" lon="9.37547"><ele>297.85714285714283</ele><time>2026-04-11T10:19:07.036Z</time></trkpt><trkpt lat="44.76702" lon="9.37556"><ele>297.71428571428567</ele><time>2026-04-11T10:19:08.034Z</time></trkpt><trkpt lat="44.7669583" lon="9.3756217"><ele>297.57142857142856</ele><time>2026-04-11T10:19:09.033Z</time></trkpt><trkpt lat="44.7669017" lon="9.375675"><ele>297.42857142857144</ele><time>2026-04-11T10:19:10.031Z</time></trkpt><trkpt lat="44.7668617" lon="9.375745"><ele>297.28571428571433</ele><time>2026-04-11T10:19:11.031Z</time></trkpt><trkpt lat="44.766835" lon="9.37583"><ele>297.14285714285717</ele><time>2026-04-11T10:19:12.036Z</time></trkpt><trkpt lat="44.7668133" lon="9.375945"><ele>297.0</ele><time>2026-04-11T10:19:13.037Z</time></trkpt><trkpt lat="44.7667967" lon="9.3760917"><ele>295.75</ele><time>2026-04-11T10:19:14.038Z</time></trkpt><trkpt lat="44.766785" lon="9.37627"><ele>294.5</ele><time>2026-04-11T10:19:15.043Z</time></trkpt><trkpt lat="44.76677" lon="9.3764433"><ele>293.25</ele><time>2026-04-11T10:19:16.038Z</time></trkpt><trkpt lat="44.7667583" lon="9.3766117"><ele>292.0</ele><time>2026-04-11T10:19:17.039Z</time></trkpt><trkpt lat="44.7667483" lon="9.3767783"><ele>291.0</ele><time>2026-04-11T10:19:18.042Z</time></trkpt><trkpt lat="44.7667383" lon="9.3769433"><ele>290.0</ele><time>2026-04-11T10:19:19.042Z</time></trkpt><trkpt lat="44.766725" lon="9.37711"><ele>289.0</ele><time>2026-04-11T10:19:20.029Z</time></trkpt><trkpt lat="44.7667133" lon="9.3772733"><ele>288.0</ele><time>2026-04-11T10:19:21.038Z</time></trkpt><trkpt lat="44.7667017" lon="9.3774367"><ele>287.8</ele><time>2026-04-11T10:19:22.033Z</time></trkpt><trkpt lat="44.76669" lon="9.3775967"><ele>287.6</ele><time>2026-04-11T10:19:23.033Z</time></trkpt><trkpt lat="44.766675" lon="9.3777533"><ele>287.4</ele><time>2026-04-11T10:19:24.04Z</time></trkpt><trkpt lat="44.76666" lon="9.3778983"><ele>287.2</ele><time>2026-04-11T10:19:25.043Z</time></trkpt><trkpt lat="44.7666533" lon="9.3780383"><ele>287.0</ele><time>2026-04-11T10:19:26.038Z</time></trkpt><trkpt lat="44.7666633" lon="9.3781867"><ele>286.25</ele><time>2026-04-11T10:19:27.039Z</time></trkpt><trkpt lat="44.7666933" lon="9.3783467"><ele>285.5</ele><time>2026-04-11T10:19:28.03Z</time></trkpt><trkpt lat="44.76674" lon="9.3785117"><ele>284.75</ele><time>2026-04-11T10:19:29.03Z</time></trkpt><trkpt lat="44.7667917" lon="9.37868"><ele>284.0</ele><time>2026-04-11T10:19:30.039Z</time></trkpt><trkpt lat="44.7668367" lon="9.3788517"><ele>287.25</ele><time>2026-04-11T10:19:31.035Z</time></trkpt><trkpt lat="44.766875" lon="9.3790267"><ele>290.5</ele><time>2026-04-11T10:19:32.038Z</time></trkpt><trkpt lat="44.7669067" lon="9.3792067"><ele>293.75</ele><time>2026-04-11T10:19:33.039Z</time></trkpt><trkpt lat="44.766935" lon="9.3793883"><ele>297.0</ele><time>2026-04-11T10:19:34.034Z</time></trkpt><trkpt lat="44.766955" lon="9.3795717"><ele>297.25</ele><time>2026-04-11T10:19:35.041Z</time></trkpt><trkpt lat="44.7669717" lon="9.3797583"><ele>297.5</ele><time>2026-04-11T10:19:36.035Z</time></trkpt><trkpt lat="44.7669833" lon="9.3799467"><ele>297.75</ele><time>2026-04-11T10:19:37.03Z</time></trkpt><trkpt lat="44.7669933" lon="9.3801367"><ele>298.0</ele><time>2026-04-11T10:19:38.042Z</time></trkpt><trkpt lat="44.766995" lon="9.3803217"><ele>298.0</ele><time>2026-04-11T10:19:39.034Z</time></trkpt><trkpt lat="44.7669833" lon="9.3805"><ele>298.0</ele><time>2026-04-11T10:19:40.042Z</time></trkpt><trkpt lat="44.7669583" lon="9.3806717"><ele>298.0</ele><time>2026-04-11T10:19:41.039Z</time></trkpt><trkpt lat="44.76692" lon="9.3808367"><ele>298.0</ele><time>2026-04-11T10:19:42.038Z</time></trkpt><trkpt lat="44.7668717" lon="9.3809967"><ele>294.0</ele><time>2026-04-11T10:19:43.033Z</time></trkpt><trkpt lat="44.7668167" lon="9.3811483"><ele>290.0</ele><time>2026-04-11T10:19:44.034Z</time></trkpt><trkpt lat="44.7667583" lon="9.3812967"><ele>286.0</ele><time>2026-04-11T10:19:45.038Z</time></trkpt><trkpt lat="44.7667033" lon="9.38144"><ele>282.0</ele><time>2026-04-11T10:19:46.035Z</time></trkpt><trkpt lat="44.7666517" lon="9.3815667"><ele>282.0</ele><time>2026-04-11T10:19:47.037Z</time></trkpt><trkpt lat="44.766605" lon="9.3816783"><ele>282.0</ele><time>2026-04-11T10:19:48.037Z</time></trkpt><trkpt lat="44.7665583" lon="9.381775"><ele>282.0</ele><time>2026-04-11T10:19:49.037Z</time></trkpt><trkpt lat="44.76652" lon="9.3818617"><ele>282.0</ele><time>2026-04-11T10:19:50.037Z</time></trkpt><trkpt lat="44.7664617" lon="9.381995"><ele>282.0</ele><time>2026-04-11T10:19:52.039Z</time></trkpt><trkpt lat="44.7664217" lon="9.38209"><ele>282.0</ele><time>2026-04-11T10:19:54.035Z</time></trkpt><trkpt lat="44.7663767" lon="9.3821783"><ele>282.0</ele><time>2026-04-11T10:19:56.036Z</time></trkpt><trkpt lat="44.7663367" lon="9.3822767"><ele>282.0</ele><time>2026-04-11T10:20:00.031Z</time></trkpt><trkpt lat="44.766305" lon="9.3823617"><ele>282.0</ele><time>2026-04-11T10:20:02.032Z</time></trkpt><trkpt lat="44.766275" lon="9.38248"><ele>282.0</ele><time>2026-04-11T10:20:04.039Z</time></trkpt><trkpt lat="44.7662833" lon="9.3826017"><ele>282.0</ele><time>2026-04-11T10:20:06.039Z</time></trkpt><trkpt lat="44.7663217" lon="9.3827567"><ele>282.0</ele><time>2026-04-11T10:20:08.042Z</time></trkpt><trkpt lat="44.7663517" lon="9.382855"><ele>282.0</ele><time>2026-04-11T10:20:09.039Z</time></trkpt><trkpt lat="44.7663833" lon="9.3829567"><ele>282.0</ele><time>2026-04-11T10:20:10.03Z</time></trkpt><trkpt lat="44.76641" lon="9.3830667"><ele>282.0</ele><time>2026-04-11T10:20:11.036Z</time></trkpt><trkpt lat="44.7664267" lon="9.383185"><ele>282.0</ele><time>2026-04-11T10:20:12.036Z</time></trkpt><trkpt lat="44.7664367" lon="9.3833017"><ele>282.0</ele><time>2026-04-11T10:20:13.038Z</time></trkpt><trkpt lat="44.76645" lon="9.38341"><ele>282.0</ele><time>2026-04-11T10:20:14.038Z</time></trkpt><trkpt lat="44.7664667" lon="9.3835017"><ele>282.0</ele><time>2026-04-11T10:20:15.04Z</time></trkpt><trkpt lat="44.7664967" lon="9.3836017"><ele>282.0</ele><time>2026-04-11T10:20:17.035Z</time></trkpt><trkpt lat="44.7665533" lon="9.3836783"><ele>282.0</ele><time>2026-04-11T10:20:20.034Z</time></trkpt><trkpt lat="44.7666167" lon="9.3836633"><ele>282.0</ele><time>2026-04-11T10:20:22.034Z</time></trkpt><trkpt lat="44.76669" lon="9.3835883"><ele>282.0</ele><time>2026-04-11T10:20:24.038Z</time></trkpt><trkpt lat="44.766775" lon="9.383495"><ele>282.0</ele><time>2026-04-11T10:20:26.035Z</time></trkpt><trkpt lat="44.7668567" lon="9.3834133"><ele>284.0</ele><time>2026-04-11T10:20:28.037Z</time></trkpt><trkpt lat="44.7669217" lon="9.3833533"><ele>286.0</ele><time>2026-04-11T10:20:30.036Z</time></trkpt><trkpt lat="44.767" lon="9.3833117"><ele>288.0</ele><time>2026-04-11T10:20:33.035Z</time></trkpt><trkpt lat="44.76707" lon="9.383235"><ele>290.0</ele><time>2026-04-11T10:23:14.036Z</time></trkpt><trkpt lat="44.7671267" lon="9.3831833"><ele>292.0</ele><time>2026-04-11T10:23:15.039Z</time></trkpt><trkpt lat="44.7671933" lon="9.38312"><ele>294.0</ele><time>2026-04-11T10:23:16.038Z</time></trkpt><trkpt lat="44.76727" lon="9.383045"><ele>294.8</ele><time>2026-04-11T10:23:17.039Z</time></trkpt><trkpt lat="44.7673517" lon="9.38297"><ele>295.59999999999997</ele><time>2026-04-11T10:23:18.038Z</time></trkpt><trkpt lat="44.7674367" lon="9.3828933"><ele>296.4</ele><time>2026-04-11T10:23:19.036Z</time></trkpt><trkpt lat="44.76752" lon="9.38282"><ele>297.2</ele><time>2026-04-11T10:23:20.04Z</time></trkpt><trkpt lat="44.7676" lon="9.382745"><ele>298.0</ele><time>2026-04-11T10:23:21.037Z</time></trkpt><trkpt lat="44.76768" lon="9.3826667"><ele>299.8</ele><time>2026-04-11T10:23:22.042Z</time></trkpt><trkpt lat="44.76776" lon="9.3825967"><ele>301.6</ele><time>2026-04-11T10:23:23.037Z</time></trkpt><trkpt lat="44.7678383" lon="9.3825217"><ele>303.4</ele><time>2026-04-11T10:23:24.038Z</time></trkpt><trkpt lat="44.767915" lon="9.3824467"><ele>305.2</ele><time>2026-04-11T10:23:25.04Z</time></trkpt><trkpt lat="44.7679867" lon="9.3823633"><ele>307.0</ele><time>2026-04-11T10:23:26.038Z</time></trkpt><trkpt lat="44.7680467" lon="9.382265"><ele>307.4</ele><time>2026-04-11T10:23:27.032Z</time></trkpt><trkpt lat="44.7681" lon="9.3821567"><ele>307.79999999999995</ele><time>2026-04-11T10:23:28.038Z</time></trkpt><trkpt lat="44.7681383" lon="9.382045"><ele>308.2</ele><time>2026-04-11T10:23:29.038Z</time></trkpt><trkpt lat="44.768185" lon="9.381935"><ele>308.59999999999997</ele><time>2026-04-11T10:23:30.038Z</time></trkpt><trkpt lat="44.76824" lon="9.3818283"><ele>309.0</ele><time>2026-04-11T10:23:31.039Z</time></trkpt><trkpt lat="44.7682983" lon="9.3817233"><ele>309.0</ele><time>2026-04-11T10:23:32.033Z</time></trkpt><trkpt lat="44.7683533" lon="9.3816217"><ele>309.0</ele><time>2026-04-11T10:23:33.04Z</time></trkpt><trkpt lat="44.768405" lon="9.3815217"><ele>309.0</ele><time>2026-04-11T10:23:34.038Z</time></trkpt><trkpt lat="44.7684533" lon="9.3814367"><ele>309.0</ele><time>2026-04-11T10:23:35.04Z</time></trkpt><trkpt lat="44.768535" lon="9.3813467"><ele>309.0</ele><time>2026-04-11T10:23:37.041Z</time></trkpt><trkpt lat="44.768605" lon="9.3814367"><ele>309.8</ele><time>2026-04-11T10:23:40.036Z</time></trkpt><trkpt lat="44.7686067" lon="9.3815383"><ele>310.59999999999997</ele><time>2026-04-11T10:23:41.037Z</time></trkpt><trkpt lat="44.7686083" lon="9.381655"><ele>311.4</ele><time>2026-04-11T10:23:42.037Z</time></trkpt><trkpt lat="44.7686167" lon="9.3817833"><ele>312.2</ele><time>2026-04-11T10:23:43.038Z</time></trkpt><trkpt lat="44.7686467" lon="9.381925"><ele>313.0</ele><time>2026-04-11T10:23:44.037Z</time></trkpt><trkpt lat="44.7686983" lon="9.3820717"><ele>311.75</ele><time>2026-04-11T10:23:45.041Z</time></trkpt><trkpt lat="44.7687617" lon="9.3822167"><ele>310.5</ele><time>2026-04-11T10:23:46.038Z</time></trkpt><trkpt lat="44.7688283" lon="9.382355"><ele>309.25</ele><time>2026-04-11T10:23:47.037Z</time></trkpt><trkpt lat="44.76889" lon="9.38249"><ele>308.0</ele><time>2026-04-11T10:23:48.038Z</time></trkpt><trkpt lat="44.768955" lon="9.3826267"><ele>308.0</ele><time>2026-04-11T10:23:49.039Z</time></trkpt><trkpt lat="44.769025" lon="9.3827667"><ele>308.0</ele><time>2026-04-11T10:23:50.037Z</time></trkpt><trkpt lat="44.7690967" lon="9.3829117"><ele>308.0</ele><time>2026-04-11T10:23:51.039Z</time></trkpt><trkpt lat="44.769165" lon="9.3830583"><ele>308.0</ele><time>2026-04-11T10:23:52.04Z</time></trkpt><trkpt lat="44.7692333" lon="9.383205"><ele>308.0</ele><time>2026-04-11T10:23:53.037Z</time></trkpt><trkpt lat="44.7693067" lon="9.3833533"><ele>308.0</ele><time>2026-04-11T10:23:54.041Z</time></trkpt><trkpt lat="44.7693817" lon="9.3835117"><ele>308.0</ele><time>2026-04-11T10:23:55.04Z</time></trkpt><trkpt lat="44.7694533" lon="9.383675"><ele>308.0</ele><time>2026-04-11T10:23:56.036Z</time></trkpt><trkpt lat="44.7695283" lon="9.383835"><ele>305.75</ele><time>2026-04-11T10:23:57.034Z</time></trkpt><trkpt lat="44.7696033" lon="9.3839933"><ele>303.5</ele><time>2026-04-11T10:23:58.034Z</time></trkpt><trkpt lat="44.7696783" lon="9.3841483"><ele>301.25</ele><time>2026-04-11T10:23:59.031Z</time></trkpt><trkpt lat="44.769755" lon="9.3843083"><ele>299.0</ele><time>2026-04-11T10:24:00.035Z</time></trkpt><trkpt lat="44.76983" lon="9.3844667"><ele>299.0</ele><time>2026-04-11T10:24:01.036Z</time></trkpt><trkpt lat="44.7699017" lon="9.3846183"><ele>299.0</ele><time>2026-04-11T10:24:02.038Z</time></trkpt><trkpt lat="44.7699717" lon="9.384765"><ele>299.0</ele><time>2026-04-11T10:24:03.037Z</time></trkpt><trkpt lat="44.7700417" lon="9.3849117"><ele>299.0</ele><time>2026-04-11T10:24:04.036Z</time></trkpt><trkpt lat="44.7700967" lon="9.3850567"><ele>297.0</ele><time>2026-04-11T10:24:05.036Z</time></trkpt><trkpt lat="44.7701317" lon="9.3852017"><ele>295.0</ele><time>2026-04-11T10:24:06.038Z</time></trkpt><trkpt lat="44.7701517" lon="9.3853517"><ele>293.0</ele><time>2026-04-11T10:24:07.038Z</time></trkpt><trkpt lat="44.770155" lon="9.3854983"><ele>291.0</ele><time>2026-04-11T10:24:08.029Z</time></trkpt><trkpt lat="44.7701433" lon="9.3856383"><ele>289.0</ele><time>2026-04-11T10:24:09.031Z</time></trkpt><trkpt lat="44.7701167" lon="9.385745"><ele>288.0</ele><time>2026-04-11T10:24:10.032Z</time></trkpt><trkpt lat="44.7700867" lon="9.3858283"><ele>287.0</ele><time>2026-04-11T10:24:11.029Z</time></trkpt><trkpt lat="44.77008" lon="9.3859517"><ele>286.0</ele><time>2026-04-11T10:24:13.029Z</time></trkpt><trkpt lat="44.770135" lon="9.38604"><ele>285.0</ele><time>2026-04-11T10:24:16.038Z</time></trkpt><trkpt lat="44.7702783" lon="9.3860483"><ele>284.0</ele><time>2026-04-11T10:24:18.035Z</time></trkpt><trkpt lat="44.770375" lon="9.3860567"><ele>284.0</ele><time>2026-04-11T10:24:19.041Z</time></trkpt><trkpt lat="44.7704833" lon="9.38606"><ele>284.0</ele><time>2026-04-11T10:24:20.038Z</time></trkpt><trkpt lat="44.770585" lon="9.3860733"><ele>284.0</ele><time>2026-04-11T10:24:21.04Z</time></trkpt><trkpt lat="44.7706817" lon="9.386095"><ele>284.0</ele><time>2026-04-11T10:24:22.039Z</time></trkpt><trkpt lat="44.770785" lon="9.3861117"><ele>284.0</ele><time>2026-04-11T10:24:23.04Z</time></trkpt><trkpt lat="44.7708933" lon="9.38614"><ele>284.0</ele><time>2026-04-11T10:24:24.038Z</time></trkpt><trkpt lat="44.7710033" lon="9.386175"><ele>284.0</ele><time>2026-04-11T10:24:25.034Z</time></trkpt><trkpt lat="44.7711217" lon="9.3861983"><ele>284.0</ele><time>2026-04-11T10:24:26.037Z</time></trkpt><trkpt lat="44.7712383" lon="9.3862267"><ele>284.0</ele><time>2026-04-11T10:24:27.037Z</time></trkpt><trkpt lat="44.7713483" lon="9.3862583"><ele>283.0</ele><time>2026-04-11T10:24:28.038Z</time></trkpt><trkpt lat="44.7714567" lon="9.386285"><ele>282.0</ele><time>2026-04-11T10:24:29.039Z</time></trkpt><trkpt lat="44.7715683" lon="9.3863083"><ele>281.0</ele><time>2026-04-11T10:24:30.037Z</time></trkpt><trkpt lat="44.771675" lon="9.3863317"><ele>280.0</ele><time>2026-04-11T10:24:31.038Z</time></trkpt><trkpt lat="44.77177" lon="9.3863617"><ele>279.0</ele><time>2026-04-11T10:24:32.038Z</time></trkpt><trkpt lat="44.7718417" lon="9.3863933"><ele>277.4</ele><time>2026-04-11T10:24:33.039Z</time></trkpt><trkpt lat="44.771925" lon="9.3864883"><ele>275.79999999999995</ele><time>2026-04-11T10:24:35.033Z</time></trkpt><trkpt lat="44.7720033" lon="9.3865533"><ele>274.20000000000005</ele><time>2026-04-11T10:24:37.04Z</time></trkpt><trkpt lat="44.77208" lon="9.38659"><ele>272.6</ele><time>2026-04-11T10:24:40.038Z</time></trkpt><trkpt lat="44.7721733" lon="9.386665"><ele>271.0</ele><time>2026-04-11T10:29:53.038Z</time></trkpt><trkpt lat="44.7722817" lon="9.3866383"><ele>271.0</ele><time>2026-04-11T10:31:58.038Z</time></trkpt><trkpt lat="44.772325" lon="9.3865683"><ele>271.0</ele><time>2026-04-11T10:32:22.035Z</time></trkpt><trkpt lat="44.7723883" lon="9.386545"><ele>271.0</ele><time>2026-04-11T10:32:24.038Z</time></trkpt><trkpt lat="44.7725233" lon="9.386565"><ele>271.0</ele><time>2026-04-11T10:32:26.038Z</time></trkpt><trkpt lat="44.7726067" lon="9.3865817"><ele>271.0</ele><time>2026-04-11T10:32:27.041Z</time></trkpt><trkpt lat="44.7727017" lon="9.3865983"><ele>271.0</ele><time>2026-04-11T10:32:28.04Z</time></trkpt><trkpt lat="44.7728" lon="9.38662"><ele>270.2</ele><time>2026-04-11T10:32:29.036Z</time></trkpt><trkpt lat="44.7729033" lon="9.386645"><ele>269.40000000000003</ele><time>2026-04-11T10:32:30.038Z</time></trkpt><trkpt lat="44.7730033" lon="9.3866717"><ele>268.6</ele><time>2026-04-11T10:32:31.035Z</time></trkpt><trkpt lat="44.7731083" lon="9.386695"><ele>267.8</ele><time>2026-04-11T10:32:32.036Z</time></trkpt><trkpt lat="44.77321" lon="9.3867233"><ele>267.0</ele><time>2026-04-11T10:32:33.041Z</time></trkpt><trkpt lat="44.7733167" lon="9.38675"><ele>267.0</ele><time>2026-04-11T10:32:34.038Z</time></trkpt><trkpt lat="44.7734233" lon="9.3867733"><ele>267.0</ele><time>2026-04-11T10:32:35.037Z</time></trkpt><trkpt lat="44.773525" lon="9.3867983"><ele>267.0</ele><time>2026-04-11T10:32:36.038Z</time></trkpt><trkpt lat="44.7736233" lon="9.3868167"><ele>267.0</ele><time>2026-04-11T10:32:37.041Z</time></trkpt><trkpt lat="44.7737083" lon="9.3868317"><ele>267.0</ele><time>2026-04-11T10:32:38.038Z</time></trkpt><trkpt lat="44.773795" lon="9.3868417"><ele>266.2</ele><time>2026-04-11T10:32:39.033Z</time></trkpt><trkpt lat="44.7738867" lon="9.38685"><ele>265.4</ele><time>2026-04-11T10:32:40.038Z</time></trkpt><trkpt lat="44.7739767" lon="9.38686"><ele>264.6</ele><time>2026-04-11T10:32:41.039Z</time></trkpt><trkpt lat="44.7740733" lon="9.38687"><ele>263.8</ele><time>2026-04-11T10:32:42.038Z</time></trkpt><trkpt lat="44.7741733" lon="9.3868783"><ele>263.0</ele><time>2026-04-11T10:32:43.039Z</time></trkpt><trkpt lat="44.7742717" lon="9.3868883"><ele>265.8</ele><time>2026-04-11T10:32:44.039Z</time></trkpt><trkpt lat="44.7743667" lon="9.386905"><ele>268.6</ele><time>2026-04-11T10:32:45.04Z</time></trkpt><trkpt lat="44.7744633" lon="9.38693"><ele>271.4</ele><time>2026-04-11T10:32:46.038Z</time></trkpt><trkpt lat="44.7745667" lon="9.3869667"><ele>274.2</ele><time>2026-04-11T10:32:47.031Z</time></trkpt><trkpt lat="44.77467" lon="9.3870167"><ele>277.0</ele><time>2026-04-11T10:32:48.037Z</time></trkpt><trkpt lat="44.7747717" lon="9.3870833"><ele>277.0</ele><time>2026-04-11T10:32:49.036Z</time></trkpt><trkpt lat="44.7748667" lon="9.3871667"><ele>277.0</ele><time>2026-04-11T10:32:50.035Z</time></trkpt><trkpt lat="44.7749517" lon="9.3872683"><ele>277.0</ele><time>2026-04-11T10:32:51.035Z</time></trkpt><trkpt lat="44.77502" lon="9.3873883"><ele>277.0</ele><time>2026-04-11T10:32:52.035Z</time></trkpt><trkpt lat="44.775075" lon="9.38753"><ele>277.0</ele><time>2026-04-11T10:32:53.037Z</time></trkpt><trkpt lat="44.775135" lon="9.387685"><ele>276.75</ele><time>2026-04-11T10:32:54.039Z</time></trkpt><trkpt lat="44.7751883" lon="9.3878483"><ele>276.5</ele><time>2026-04-11T10:32:55.035Z</time></trkpt><trkpt lat="44.7752367" lon="9.3880117"><ele>276.25</ele><time>2026-04-11T10:32:56.039Z</time></trkpt><trkpt lat="44.775285" lon="9.388175"><ele>276.0</ele><time>2026-04-11T10:32:57.037Z</time></trkpt><trkpt lat="44.7753317" lon="9.3883333"><ele>276.0</ele><time>2026-04-11T10:32:58.033Z</time></trkpt><trkpt lat="44.775375" lon="9.3884783"><ele>276.0</ele><time>2026-04-11T10:32:59.037Z</time></trkpt><trkpt lat="44.77542" lon="9.3886133"><ele>276.0</ele><time>2026-04-11T10:33:00.036Z</time></trkpt><trkpt lat="44.7754667" lon="9.38873"><ele>276.0</ele><time>2026-04-11T10:33:01.033Z</time></trkpt><trkpt lat="44.7755167" lon="9.3888317"><ele>276.0</ele><time>2026-04-11T10:33:02.038Z</time></trkpt><trkpt lat="44.775575" lon="9.3889283"><ele>276.8333333333333</ele><time>2026-04-11T10:33:03.04Z</time></trkpt><trkpt lat="44.7756383" lon="9.3890183"><ele>277.6666666666667</ele><time>2026-04-11T10:33:04.038Z</time></trkpt><trkpt lat="44.7757083" lon="9.3890933"><ele>278.5</ele><time>2026-04-11T10:33:05.036Z</time></trkpt><trkpt lat="44.7757767" lon="9.3891483"><ele>279.33333333333337</ele><time>2026-04-11T10:33:06.037Z</time></trkpt><trkpt lat="44.7758417" lon="9.3891883"><ele>280.1666666666667</ele><time>2026-04-11T10:33:07.039Z</time></trkpt><trkpt lat="44.7759333" lon="9.3892367"><ele>281.0</ele><time>2026-04-11T10:33:09.038Z</time></trkpt><trkpt lat="44.776035" lon="9.3892733"><ele>281.0</ele><time>2026-04-11T10:33:22.037Z</time></trkpt><trkpt lat="44.7761333" lon="9.38932"><ele>281.0</ele><time>2026-04-11T10:33:24.034Z</time></trkpt><trkpt lat="44.7761983" lon="9.3893667"><ele>281.0</ele><time>2026-04-11T10:33:25.038Z</time></trkpt><trkpt lat="44.7762817" lon="9.38943"><ele>281.0</ele><time>2026-04-11T10:33:26.037Z</time></trkpt><trkpt lat="44.7763717" lon="9.38952"><ele>281.0</ele><time>2026-04-11T10:33:27.04Z</time></trkpt><trkpt lat="44.776455" lon="9.389635"><ele>278.25</ele><time>2026-04-11T10:33:28.038Z</time></trkpt><trkpt lat="44.776535" lon="9.3897667"><ele>275.5</ele><time>2026-04-11T10:33:29.039Z</time></trkpt><trkpt lat="44.7766267" lon="9.3899083"><ele>272.75</ele><time>2026-04-11T10:33:30.037Z</time></trkpt><trkpt lat="44.7767267" lon="9.3900517"><ele>270.0</ele><time>2026-04-11T10:33:31.039Z</time></trkpt><trkpt lat="44.776825" lon="9.39018"><ele>271.5</ele><time>2026-04-11T10:33:32.038Z</time></trkpt><trkpt lat="44.776935" lon="9.39031"><ele>273.0</ele><time>2026-04-11T10:33:33.032Z</time></trkpt><trkpt lat="44.7770467" lon="9.39044"><ele>274.5</ele><time>2026-04-11T10:33:34.037Z</time></trkpt><trkpt lat="44.7771567" lon="9.3905667"><ele>276.0</ele><time>2026-04-11T10:33:35.038Z</time></trkpt><trkpt lat="44.777255" lon="9.39069"><ele>276.0</ele><time>2026-04-11T10:33:36.039Z</time></trkpt><trkpt lat="44.777345" lon="9.39081"><ele>276.0</ele><time>2026-04-11T10:33:37.038Z</time></trkpt><trkpt lat="44.7774417" lon="9.39092"><ele>276.0</ele><time>2026-04-11T10:33:38.039Z</time></trkpt><trkpt lat="44.7775467" lon="9.3910167"><ele>276.0</ele><time>2026-04-11T10:33:39.039Z</time></trkpt><trkpt lat="44.777665" lon="9.3911033"><ele>277.0</ele><time>2026-04-11T10:33:40.031Z</time></trkpt><trkpt lat="44.77779" lon="9.3911917"><ele>278.0</ele><time>2026-04-11T10:33:41.038Z</time></trkpt><trkpt lat="44.7779133" lon="9.3912867"><ele>279.0</ele><time>2026-04-11T10:33:42.037Z</time></trkpt><trkpt lat="44.7780283" lon="9.3913933"><ele>280.0</ele><time>2026-04-11T10:33:43.036Z</time></trkpt><trkpt lat="44.778135" lon="9.3915133"><ele>280.0</ele><time>2026-04-11T10:33:44.042Z</time></trkpt><trkpt lat="44.7782267" lon="9.3916417"><ele>280.0</ele><time>2026-04-11T10:33:45.044Z</time></trkpt><trkpt lat="44.778305" lon="9.3917683"><ele>280.0</ele><time>2026-04-11T10:33:46.038Z</time></trkpt><trkpt lat="44.7783833" lon="9.3918883"><ele>280.0</ele><time>2026-04-11T10:33:47.039Z</time></trkpt><trkpt lat="44.77847" lon="9.3920017"><ele>281.75</ele><time>2026-04-11T10:33:48.038Z</time></trkpt><trkpt lat="44.7785683" lon="9.3921"><ele>283.5</ele><time>2026-04-11T10:33:49.04Z</time></trkpt><trkpt lat="44.7786733" lon="9.3921833"><ele>285.25</ele><time>2026-04-11T10:33:50.038Z</time></trkpt><trkpt lat="44.778775" lon="9.3922683"><ele>287.0</ele><time>2026-04-11T10:33:51.04Z</time></trkpt><trkpt lat="44.7788683" lon="9.3923633"><ele>287.0</ele><time>2026-04-11T10:33:52.038Z</time></trkpt><trkpt lat="44.7789533" lon="9.3924733"><ele>287.0</ele><time>2026-04-11T10:33:53.042Z</time></trkpt><trkpt lat="44.779035" lon="9.39259"><ele>287.0</ele><time>2026-04-11T10:33:54.036Z</time></trkpt><trkpt lat="44.779115" lon="9.3927083"><ele>287.0</ele><time>2026-04-11T10:33:55.039Z</time></trkpt><trkpt lat="44.77919" lon="9.39283"><ele>287.0</ele><time>2026-04-11T10:33:56.036Z</time></trkpt><trkpt lat="44.7792617" lon="9.3929533"><ele>287.0</ele><time>2026-04-11T10:33:57.041Z</time></trkpt><trkpt lat="44.7793283" lon="9.3930717"><ele>287.0</ele><time>2026-04-11T10:33:58.036Z</time></trkpt><trkpt lat="44.7793917" lon="9.3931883"><ele>287.0</ele><time>2026-04-11T10:33:59.041Z</time></trkpt><trkpt lat="44.7794517" lon="9.3933017"><ele>287.0</ele><time>2026-04-11T10:34:00.038Z</time></trkpt><trkpt lat="44.77951" lon="9.3934133"><ele>287.2</ele><time>2026-04-11T10:34:01.035Z</time></trkpt><trkpt lat="44.7795683" lon="9.393525"><ele>287.4</ele><time>2026-04-11T10:34:02.039Z</time></trkpt><trkpt lat="44.779625" lon="9.3936367"><ele>287.6</ele><time>2026-04-11T10:34:03.041Z</time></trkpt><trkpt lat="44.7796767" lon="9.3937567"><ele>287.8</ele><time>2026-04-11T10:34:04.038Z</time></trkpt><trkpt lat="44.7797167" lon="9.3938833"><ele>288.0</ele><time>2026-04-11T10:34:05.037Z</time></trkpt><trkpt lat="44.7797483" lon="9.39402"><ele>286.4</ele><time>2026-04-11T10:34:06.037Z</time></trkpt><trkpt lat="44.7797733" lon="9.394165"><ele>284.8</ele><time>2026-04-11T10:34:07.038Z</time></trkpt><trkpt lat="44.7797867" lon="9.3943183"><ele>283.2</ele><time>2026-04-11T10:34:08.036Z</time></trkpt><trkpt lat="44.7797917" lon="9.3944767"><ele>281.6</ele><time>2026-04-11T10:34:09.039Z</time></trkpt><trkpt lat="44.7797933" lon="9.3946417"><ele>280.0</ele><time>2026-04-11T10:34:10.038Z</time></trkpt><trkpt lat="44.7797933" lon="9.3948117"><ele>280.0</ele><time>2026-04-11T10:34:11.038Z</time></trkpt><trkpt lat="44.7797917" lon="9.394995"><ele>280.0</ele><time>2026-04-11T10:34:12.038Z</time></trkpt><trkpt lat="44.7797867" lon="9.395195"><ele>280.0</ele><time>2026-04-11T10:34:13.036Z</time></trkpt><trkpt lat="44.7797833" lon="9.3953967"><ele>280.0</ele><time>2026-04-11T10:34:14.033Z</time></trkpt><trkpt lat="44.7797867" lon="9.39559"><ele>278.75</ele><time>2026-04-11T10:34:15.036Z</time></trkpt><trkpt lat="44.7798067" lon="9.395785"><ele>277.5</ele><time>2026-04-11T10:34:16.039Z</time></trkpt><trkpt lat="44.77984" lon="9.3959883"><ele>276.25</ele><time>2026-04-11T10:34:17.039Z</time></trkpt><trkpt lat="44.7798817" lon="9.3962067"><ele>275.0</ele><time>2026-04-11T10:34:18.035Z</time></trkpt><trkpt lat="44.77992" lon="9.39644"><ele>272.33333333333337</ele><time>2026-04-11T10:34:19.039Z</time></trkpt><trkpt lat="44.779955" lon="9.396675"><ele>269.6666666666667</ele><time>2026-04-11T10:34:20.038Z</time></trkpt><trkpt lat="44.7799833" lon="9.3969"><ele>267.0</ele><time>2026-04-11T10:34:21.042Z</time></trkpt><trkpt lat="44.7800117" lon="9.3971217"><ele>265.0</ele><time>2026-04-11T10:34:22.037Z</time></trkpt><trkpt lat="44.7800417" lon="9.39734"><ele>263.0</ele><time>2026-04-11T10:34:23.039Z</time></trkpt><trkpt lat="44.780075" lon="9.3975533"><ele>261.0</ele><time>2026-04-11T10:34:24.038Z</time></trkpt><trkpt lat="44.780105" lon="9.3977617"><ele>261.0</ele><time>2026-04-11T10:34:25.032Z</time></trkpt><trkpt lat="44.78013" lon="9.3979567"><ele>261.0</ele><time>2026-04-11T10:34:26.037Z</time></trkpt><trkpt lat="44.7801483" lon="9.3981517"><ele>261.0</ele><time>2026-04-11T10:34:27.041Z</time></trkpt><trkpt lat="44.7801567" lon="9.3983417"><ele>261.0</ele><time>2026-04-11T10:34:28.039Z</time></trkpt><trkpt lat="44.78015" lon="9.3985317"><ele>260.75</ele><time>2026-04-11T10:34:29.039Z</time></trkpt><trkpt lat="44.7801317" lon="9.3987117"><ele>260.5</ele><time>2026-04-11T10:34:30.036Z</time></trkpt><trkpt lat="44.7801083" lon="9.3988883"><ele>260.25</ele><time>2026-04-11T10:34:31.04Z</time></trkpt><trkpt lat="44.78009" lon="9.39907"><ele>260.0</ele><time>2026-04-11T10:34:32.039Z</time></trkpt><trkpt lat="44.7801067" lon="9.399255"><ele>259.25</ele><time>2026-04-11T10:34:33.038Z</time></trkpt><trkpt lat="44.7801383" lon="9.3994333"><ele>258.5</ele><time>2026-04-11T10:34:34.036Z</time></trkpt><trkpt lat="44.7801767" lon="9.3996017"><ele>257.75</ele><time>2026-04-11T10:34:35.039Z</time></trkpt><trkpt lat="44.7802283" lon="9.3997517"><ele>257.0</ele><time>2026-04-11T10:34:36.041Z</time></trkpt><trkpt lat="44.7802883" lon="9.3998867"><ele>258.8</ele><time>2026-04-11T10:34:37.039Z</time></trkpt><trkpt lat="44.7803517" lon="9.3999967"><ele>260.6</ele><time>2026-04-11T10:34:38.041Z</time></trkpt><trkpt lat="44.7804083" lon="9.40004"><ele>262.40000000000003</ele><time>2026-04-11T10:34:39.041Z</time></trkpt><trkpt lat="44.7805133" lon="9.4000783"><ele>264.2</ele><time>2026-04-11T10:34:41.038Z</time></trkpt><trkpt lat="44.78064" lon="9.400175"><ele>266.0</ele><time>2026-04-11T10:34:43.042Z</time></trkpt><trkpt lat="44.780735" lon="9.40025"><ele>266.0</ele><time>2026-04-11T10:34:44.038Z</time></trkpt><trkpt lat="44.7808233" lon="9.4003167"><ele>266.0</ele><time>2026-04-11T10:34:45.033Z</time></trkpt><trkpt lat="44.7808983" lon="9.400375"><ele>266.0</ele><time>2026-04-11T10:34:46.039Z</time></trkpt><trkpt lat="44.7809583" lon="9.40042"><ele>266.0</ele><time>2026-04-11T10:34:47.037Z</time></trkpt><trkpt lat="44.7810383" lon="9.400475"><ele>266.0</ele><time>2026-04-11T10:34:49.04Z</time></trkpt><trkpt lat="44.7811133" lon="9.4005533"><ele>266.0</ele><time>2026-04-11T10:37:56.035Z</time></trkpt><trkpt lat="44.7812117" lon="9.40064"><ele>264.6</ele><time>2026-04-11T10:37:58.038Z</time></trkpt><trkpt lat="44.78125" lon="9.4007967"><ele>263.20000000000005</ele><time>2026-04-11T10:38:00.038Z</time></trkpt><trkpt lat="44.7812217" lon="9.4008883"><ele>261.79999999999995</ele><time>2026-04-11T10:38:01.035Z</time></trkpt><trkpt lat="44.781165" lon="9.4009783"><ele>260.4</ele><time>2026-04-11T10:38:02.033Z</time></trkpt><trkpt lat="44.7810867" lon="9.401055"><ele>259.0</ele><time>2026-04-11T10:38:03.04Z</time></trkpt><trkpt lat="44.7809983" lon="9.4011183"><ele>258.2</ele><time>2026-04-11T10:38:04.141Z</time></trkpt><trkpt lat="44.7808583" lon="9.4012167"><ele>257.4</ele><time>2026-04-11T10:38:06.029Z</time></trkpt><trkpt lat="44.780785" lon="9.4012933"><ele>256.6</ele><time>2026-04-11T10:38:08.03Z</time></trkpt><trkpt lat="44.7807567" lon="9.4014033"><ele>255.8</ele><time>2026-04-11T10:38:10.033Z</time></trkpt><trkpt lat="44.7807817" lon="9.4014967"><ele>255.0</ele><time>2026-04-11T10:38:11.036Z</time></trkpt><trkpt lat="44.7808333" lon="9.4016083"><ele>254.5</ele><time>2026-04-11T10:38:12.034Z</time></trkpt><trkpt lat="44.7809183" lon="9.401735"><ele>254.0</ele><time>2026-04-11T10:38:13.035Z</time></trkpt><trkpt lat="44.7810117" lon="9.4018683"><ele>253.5</ele><time>2026-04-11T10:38:14.037Z</time></trkpt><trkpt lat="44.78111" lon="9.4020033"><ele>253.0</ele><time>2026-04-11T10:38:15.041Z</time></trkpt><trkpt lat="44.7812083" lon="9.402145"><ele>251.5</ele><time>2026-04-11T10:38:16.034Z</time></trkpt><trkpt lat="44.7813067" lon="9.4022833"><ele>250.0</ele><time>2026-04-11T10:38:17.039Z</time></trkpt><trkpt lat="44.7813983" lon="9.40242"><ele>248.5</ele><time>2026-04-11T10:38:18.036Z</time></trkpt><trkpt lat="44.7814967" lon="9.4025617"><ele>247.0</ele><time>2026-04-11T10:38:19.036Z</time></trkpt><trkpt lat="44.7816" lon="9.402715"><ele>247.0</ele><time>2026-04-11T10:38:20.038Z</time></trkpt><trkpt lat="44.7817083" lon="9.4028683"><ele>247.0</ele><time>2026-04-11T10:38:21.039Z</time></trkpt><trkpt lat="44.78182" lon="9.4030267"><ele>247.0</ele><time>2026-04-11T10:38:22.033Z</time></trkpt><trkpt lat="44.7819367" lon="9.4031917"><ele>246.0</ele><time>2026-04-11T10:38:23.036Z</time></trkpt><trkpt lat="44.7820567" lon="9.4033617"><ele>245.0</ele><time>2026-04-11T10:38:24.032Z</time></trkpt><trkpt lat="44.78218" lon="9.4035333"><ele>244.0</ele><time>2026-04-11T10:38:25.036Z</time></trkpt><trkpt lat="44.7823017" lon="9.4037067"><ele>243.66666666666666</ele><time>2026-04-11T10:38:26.03Z</time></trkpt><trkpt lat="44.7824233" lon="9.4038783"><ele>243.33333333333331</ele><time>2026-04-11T10:38:27.036Z</time></trkpt><trkpt lat="44.78254" lon="9.4040533"><ele>243.0</ele><time>2026-04-11T10:38:28.037Z</time></trkpt><trkpt lat="44.7826583" lon="9.404225"><ele>242.33333333333331</ele><time>2026-04-11T10:38:29.037Z</time></trkpt><trkpt lat="44.782785" lon="9.4043917"><ele>241.66666666666666</ele><time>2026-04-11T10:38:30.038Z</time></trkpt><trkpt lat="44.782905" lon="9.4045667"><ele>241.0</ele><time>2026-04-11T10:38:31.035Z</time></trkpt><trkpt lat="44.7830267" lon="9.4047417"><ele>241.0</ele><time>2026-04-11T10:38:32.036Z</time></trkpt><trkpt lat="44.7831517" lon="9.4049183"><ele>241.0</ele><time>2026-04-11T10:38:33.038Z</time></trkpt><trkpt lat="44.7832783" lon="9.4050967"><ele>241.0</ele><time>2026-04-11T10:38:34.034Z</time></trkpt><trkpt lat="44.7834017" lon="9.4052767"><ele>242.0</ele><time>2026-04-11T10:38:35.034Z</time></trkpt><trkpt lat="44.783525" lon="9.4054583"><ele>243.0</ele><time>2026-04-11T10:38:36.03Z</time></trkpt><trkpt lat="44.7836483" lon="9.4056383"><ele>244.0</ele><time>2026-04-11T10:38:37.038Z</time></trkpt><trkpt lat="44.783775" lon="9.4058183"><ele>244.0</ele><time>2026-04-11T10:38:38.038Z</time></trkpt><trkpt lat="44.7839" lon="9.406"><ele>244.0</ele><time>2026-04-11T10:38:39.038Z</time></trkpt><trkpt lat="44.784025" lon="9.4061833"><ele>244.0</ele><time>2026-04-11T10:38:40.038Z</time></trkpt><trkpt lat="44.7841483" lon="9.4063667"><ele>244.66666666666666</ele><time>2026-04-11T10:38:41.037Z</time></trkpt><trkpt lat="44.784275" lon="9.40655"><ele>245.33333333333331</ele><time>2026-04-11T10:38:42.037Z</time></trkpt><trkpt lat="44.7844033" lon="9.4067333"><ele>246.0</ele><time>2026-04-11T10:38:43.04Z</time></trkpt><trkpt lat="44.78453" lon="9.4069167"><ele>246.0</ele><time>2026-04-11T10:38:44.038Z</time></trkpt><trkpt lat="44.7846567" lon="9.4071017"><ele>246.0</ele><time>2026-04-11T10:38:45.041Z</time></trkpt><trkpt lat="44.7847833" lon="9.4072833"><ele>246.0</ele><time>2026-04-11T10:38:46.04Z</time></trkpt><trkpt lat="44.7849133" lon="9.407465"><ele>246.0</ele><time>2026-04-11T10:38:47.035Z</time></trkpt><trkpt lat="44.78504" lon="9.4076483"><ele>246.0</ele><time>2026-04-11T10:38:48.041Z</time></trkpt><trkpt lat="44.7851717" lon="9.4078283"><ele>246.0</ele><time>2026-04-11T10:38:49.035Z</time></trkpt><trkpt lat="44.785305" lon="9.408005"><ele>246.0</ele><time>2026-04-11T10:38:50.038Z</time></trkpt><trkpt lat="44.78544" lon="9.4081833"><ele>246.0</ele><time>2026-04-11T10:38:51.038Z</time></trkpt><trkpt lat="44.78558" lon="9.40836"><ele>246.0</ele><time>2026-04-11T10:38:52.036Z</time></trkpt><trkpt lat="44.785715" lon="9.4085383"><ele>246.0</ele><time>2026-04-11T10:38:53.035Z</time></trkpt><trkpt lat="44.7858467" lon="9.408715"><ele>246.0</ele><time>2026-04-11T10:38:54.038Z</time></trkpt><trkpt lat="44.78598" lon="9.40889"><ele>246.0</ele><time>2026-04-11T10:38:55.037Z</time></trkpt><trkpt lat="44.78611" lon="9.4090667"><ele>246.0</ele><time>2026-04-11T10:38:56.036Z</time></trkpt><trkpt lat="44.786245" lon="9.409245"><ele>246.0</ele><time>2026-04-11T10:38:57.037Z</time></trkpt><trkpt lat="44.7863833" lon="9.4094233"><ele>246.0</ele><time>2026-04-11T10:38:58.038Z</time></trkpt><trkpt lat="44.7865217" lon="9.4096"><ele>246.66666666666669</ele><time>2026-04-11T10:38:59.036Z</time></trkpt><trkpt lat="44.7866567" lon="9.4097767"><ele>247.33333333333334</ele><time>2026-04-11T10:39:00.037Z</time></trkpt><trkpt lat="44.78679" lon="9.4099533"><ele>248.0</ele><time>2026-04-11T10:39:01.039Z</time></trkpt><trkpt lat="44.7869183" lon="9.4101283"><ele>245.33333333333334</ele><time>2026-04-11T10:39:02.03Z</time></trkpt><trkpt lat="44.78705" lon="9.4102967"><ele>242.66666666666669</ele><time>2026-04-11T10:39:03.034Z</time></trkpt><trkpt lat="44.78718" lon="9.410465"><ele>240.0</ele><time>2026-04-11T10:39:04.034Z</time></trkpt><trkpt lat="44.78731" lon="9.4106333"><ele>240.0</ele><time>2026-04-11T10:39:05.03Z</time></trkpt><trkpt lat="44.78744" lon="9.410805"><ele>240.0</ele><time>2026-04-11T10:39:06.037Z</time></trkpt><trkpt lat="44.7875683" lon="9.4109783"><ele>240.0</ele><time>2026-04-11T10:39:07.034Z</time></trkpt><trkpt lat="44.7877017" lon="9.4111517"><ele>239.33333333333331</ele><time>2026-04-11T10:39:08.038Z</time></trkpt><trkpt lat="44.7878333" lon="9.411325"><ele>238.66666666666666</ele><time>2026-04-11T10:39:09.041Z</time></trkpt><trkpt lat="44.7879667" lon="9.4115"><ele>238.0</ele><time>2026-04-11T10:39:10.038Z</time></trkpt><trkpt lat="44.788105" lon="9.4116783"><ele>238.0</ele><time>2026-04-11T10:39:11.04Z</time></trkpt><trkpt lat="44.7882467" lon="9.4118583"><ele>238.0</ele><time>2026-04-11T10:39:12.038Z</time></trkpt><trkpt lat="44.7883867" lon="9.4120383"><ele>238.0</ele><time>2026-04-11T10:39:13.039Z</time></trkpt><trkpt lat="44.7885233" lon="9.4122183"><ele>237.66666666666666</ele><time>2026-04-11T10:39:14.038Z</time></trkpt><trkpt lat="44.78866" lon="9.4124017"><ele>237.33333333333331</ele><time>2026-04-11T10:39:15.039Z</time></trkpt><trkpt lat="44.7887967" lon="9.41259"><ele>237.0</ele><time>2026-04-11T10:39:16.036Z</time></trkpt><trkpt lat="44.78894" lon="9.4127783"><ele>237.0</ele><time>2026-04-11T10:39:17.037Z</time></trkpt><trkpt lat="44.7890883" lon="9.4129667"><ele>237.0</ele><time>2026-04-11T10:39:18.037Z</time></trkpt><trkpt lat="44.7892367" lon="9.4131567"><ele>237.0</ele><time>2026-04-11T10:39:19.039Z</time></trkpt><trkpt lat="44.7893833" lon="9.41335"><ele>236.66666666666669</ele><time>2026-04-11T10:39:20.039Z</time></trkpt><trkpt lat="44.78953" lon="9.4135383"><ele>236.33333333333334</ele><time>2026-04-11T10:39:21.041Z</time></trkpt><trkpt lat="44.7896767" lon="9.413725"><ele>236.0</ele><time>2026-04-11T10:39:22.039Z</time></trkpt><trkpt lat="44.7898217" lon="9.41391"><ele>237.0</ele><time>2026-04-11T10:39:23.041Z</time></trkpt><trkpt lat="44.7899667" lon="9.4140917"><ele>238.0</ele><time>2026-04-11T10:39:24.04Z</time></trkpt><trkpt lat="44.7901067" lon="9.41427"><ele>239.0</ele><time>2026-04-11T10:39:25.038Z</time></trkpt><trkpt lat="44.7902417" lon="9.4144483"><ele>239.0</ele><time>2026-04-11T10:39:26.039Z</time></trkpt><trkpt lat="44.7903767" lon="9.41463"><ele>239.0</ele><time>2026-04-11T10:39:27.043Z</time></trkpt><trkpt lat="44.7905067" lon="9.4148083"><ele>239.0</ele><time>2026-04-11T10:39:28.04Z</time></trkpt><trkpt lat="44.7906367" lon="9.4149933"><ele>245.66666666666669</ele><time>2026-04-11T10:39:29.038Z</time></trkpt><trkpt lat="44.7907633" lon="9.4151833"><ele>252.33333333333331</ele><time>2026-04-11T10:39:30.039Z</time></trkpt><trkpt lat="44.7908883" lon="9.4153733"><ele>259.0</ele><time>2026-04-11T10:39:31.039Z</time></trkpt><trkpt lat="44.79101" lon="9.41556"><ele>247.0</ele><time>2026-04-11T10:39:32.038Z</time></trkpt><trkpt lat="44.795635" lon="9.421625"><ele>247.0</ele><time>2026-04-11T10:40:02.039Z</time></trkpt><trkpt lat="44.7958033" lon="9.4218083"><ele>247.0</ele><time>2026-04-11T10:40:03.038Z</time></trkpt><trkpt lat="44.795955" lon="9.422005"><ele>247.0</ele><time>2026-04-11T10:40:04.039Z</time></trkpt><trkpt lat="44.7961033" lon="9.422195"><ele>244.66666666666666</ele><time>2026-04-11T10:40:05.033Z</time></trkpt><trkpt lat="44.7962517" lon="9.4223683"><ele>242.33333333333331</ele><time>2026-04-11T10:40:06.038Z</time></trkpt><trkpt lat="44.79641" lon="9.422515"><ele>240.0</ele><time>2026-04-11T10:40:07.039Z</time></trkpt><trkpt lat="44.7965767" lon="9.4226467"><ele>240.0</ele><time>2026-04-11T10:40:08.039Z</time></trkpt><trkpt lat="44.7967483" lon="9.42277"><ele>240.0</ele><time>2026-04-11T10:40:09.036Z</time></trkpt><trkpt lat="44.7969317" lon="9.42288"><ele>240.0</ele><time>2026-04-11T10:40:10.037Z</time></trkpt><trkpt lat="44.79713" lon="9.4229767"><ele>240.33333333333331</ele><time>2026-04-11T10:40:11.036Z</time></trkpt><trkpt lat="44.7973417" lon="9.42306"><ele>240.66666666666666</ele><time>2026-04-11T10:40:12.03Z</time></trkpt><trkpt lat="44.7975583" lon="9.42313"><ele>241.0</ele><time>2026-04-11T10:40:13.037Z</time></trkpt><trkpt lat="44.797775" lon="9.42318"><ele>241.0</ele><time>2026-04-11T10:40:14.04Z</time></trkpt><trkpt lat="44.7979783" lon="9.42322"><ele>241.0</ele><time>2026-04-11T10:40:15.041Z</time></trkpt><trkpt lat="44.7981717" lon="9.4232533"><ele>241.0</ele><time>2026-04-11T10:40:16.038Z</time></trkpt><trkpt lat="44.798355" lon="9.4232767"><ele>239.33333333333331</ele><time>2026-04-11T10:40:17.031Z</time></trkpt><trkpt lat="44.798545" lon="9.4233"><ele>237.66666666666669</ele><time>2026-04-11T10:40:18.034Z</time></trkpt><trkpt lat="44.7987383" lon="9.423325"><ele>236.0</ele><time>2026-04-11T10:40:19.038Z</time></trkpt><trkpt lat="44.798935" lon="9.4233483"><ele>236.0</ele><time>2026-04-11T10:40:20.04Z</time></trkpt><trkpt lat="44.79913" lon="9.4233817"><ele>236.0</ele><time>2026-04-11T10:40:21.038Z</time></trkpt><trkpt lat="44.7993233" lon="9.42343"><ele>236.0</ele><time>2026-04-11T10:40:22.037Z</time></trkpt><trkpt lat="44.7995167" lon="9.42349"><ele>235.33333333333334</ele><time>2026-04-11T10:40:23.042Z</time></trkpt><trkpt lat="44.7997117" lon="9.4235633"><ele>234.66666666666669</ele><time>2026-04-11T10:40:24.039Z</time></trkpt><trkpt lat="44.7998917" lon="9.4236483"><ele>234.0</ele><time>2026-04-11T10:40:25.041Z</time></trkpt><trkpt lat="44.8000683" lon="9.4237517"><ele>232.33333333333331</ele><time>2026-04-11T10:40:26.038Z</time></trkpt><trkpt lat="44.80025" lon="9.4238633"><ele>230.66666666666666</ele><time>2026-04-11T10:40:27.034Z</time></trkpt><trkpt lat="44.8004317" lon="9.4239867"><ele>229.0</ele><time>2026-04-11T10:40:28.038Z</time></trkpt><trkpt lat="44.80061" lon="9.4241167"><ele>229.0</ele><time>2026-04-11T10:40:29.037Z</time></trkpt><trkpt lat="44.8007883" lon="9.4242467"><ele>229.0</ele><time>2026-04-11T10:40:30.038Z</time></trkpt><trkpt lat="44.80097" lon="9.4243783"><ele>229.0</ele><time>2026-04-11T10:40:31.039Z</time></trkpt><trkpt lat="44.80115" lon="9.4245083"><ele>228.33333333333331</ele><time>2026-04-11T10:40:32.038Z</time></trkpt><trkpt lat="44.8013183" lon="9.4246317"><ele>227.66666666666669</ele><time>2026-04-11T10:40:33.04Z</time></trkpt><trkpt lat="44.801485" lon="9.4247467"><ele>227.0</ele><time>2026-04-11T10:40:34.037Z</time></trkpt><trkpt lat="44.8016433" lon="9.42486"><ele>226.0</ele><time>2026-04-11T10:40:35.039Z</time></trkpt><trkpt lat="44.8018083" lon="9.4249767"><ele>225.0</ele><time>2026-04-11T10:40:36.039Z</time></trkpt><trkpt lat="44.801975" lon="9.4251"><ele>224.0</ele><time>2026-04-11T10:40:37.038Z</time></trkpt><trkpt lat="44.8021417" lon="9.425225"><ele>225.0</ele><time>2026-04-11T10:40:38.038Z</time></trkpt><trkpt lat="44.802315" lon="9.4253483"><ele>226.0</ele><time>2026-04-11T10:40:39.038Z</time></trkpt><trkpt lat="44.8024917" lon="9.4254783"><ele>227.0</ele><time>2026-04-11T10:40:40.04Z</time></trkpt><trkpt lat="44.8026683" lon="9.425615"><ele>227.0</ele><time>2026-04-11T10:40:41.038Z</time></trkpt><trkpt lat="44.8028367" lon="9.4257617"><ele>227.0</ele><time>2026-04-11T10:40:42.036Z</time></trkpt><trkpt lat="44.8030017" lon="9.4259283"><ele>227.0</ele><time>2026-04-11T10:40:43.035Z</time></trkpt><trkpt lat="44.80316" lon="9.4261033"><ele>227.0</ele><time>2026-04-11T10:40:44.037Z</time></trkpt><trkpt lat="44.80331" lon="9.4262783"><ele>227.0</ele><time>2026-04-11T10:40:45.041Z</time></trkpt><trkpt lat="44.803455" lon="9.4264533"><ele>227.0</ele><time>2026-04-11T10:40:46.039Z</time></trkpt><trkpt lat="44.8036" lon="9.4266333"><ele>226.66666666666669</ele><time>2026-04-11T10:40:47.038Z</time></trkpt><trkpt lat="44.8037417" lon="9.4268133"><ele>226.33333333333331</ele><time>2026-04-11T10:40:48.03Z</time></trkpt><trkpt lat="44.8038833" lon="9.4269933"><ele>226.0</ele><time>2026-04-11T10:40:49.033Z</time></trkpt><trkpt lat="44.804025" lon="9.4271733"><ele>226.0</ele><time>2026-04-11T10:40:50.031Z</time></trkpt><trkpt lat="44.8041683" lon="9.4273583"><ele>226.0</ele><time>2026-04-11T10:40:51.038Z</time></trkpt><trkpt lat="44.804315" lon="9.4275383"><ele>226.0</ele><time>2026-04-11T10:40:52.031Z</time></trkpt><trkpt lat="44.804465" lon="9.427725"><ele>226.0</ele><time>2026-04-11T10:40:53.038Z</time></trkpt><trkpt lat="44.8046133" lon="9.4279183"><ele>226.0</ele><time>2026-04-11T10:40:54.04Z</time></trkpt><trkpt lat="44.8047633" lon="9.4281183"><ele>226.0</ele><time>2026-04-11T10:40:55.042Z</time></trkpt><trkpt lat="44.8049117" lon="9.4283183"><ele>226.0</ele><time>2026-04-11T10:40:56.039Z</time></trkpt><trkpt lat="44.805055" lon="9.42851"><ele>226.0</ele><time>2026-04-11T10:40:57.037Z</time></trkpt><trkpt lat="44.8051967" lon="9.42869"><ele>226.0</ele><time>2026-04-11T10:40:58.041Z</time></trkpt><trkpt lat="44.805335" lon="9.4288683"><ele>226.0</ele><time>2026-04-11T10:40:59.04Z</time></trkpt><trkpt lat="44.805475" lon="9.42905"><ele>226.0</ele><time>2026-04-11T10:41:00.035Z</time></trkpt><trkpt lat="44.8056183" lon="9.4292383"><ele>226.0</ele><time>2026-04-11T10:41:01.04Z</time></trkpt><trkpt lat="44.805765" lon="9.42942"><ele>226.0</ele><time>2026-04-11T10:41:02.036Z</time></trkpt><trkpt lat="44.8059117" lon="9.429605"><ele>226.0</ele><time>2026-04-11T10:41:03.041Z</time></trkpt><trkpt lat="44.8060417" lon="9.4297833"><ele>226.0</ele><time>2026-04-11T10:41:04.038Z</time></trkpt><trkpt lat="44.8061667" lon="9.4299533"><ele>227.0</ele><time>2026-04-11T10:41:05.039Z</time></trkpt><trkpt lat="44.8062867" lon="9.430135"><ele>228.0</ele><time>2026-04-11T10:41:06.038Z</time></trkpt><trkpt lat="44.8064083" lon="9.430325"><ele>229.0</ele><time>2026-04-11T10:41:07.037Z</time></trkpt><trkpt lat="44.8065267" lon="9.430525"><ele>229.0</ele><time>2026-04-11T10:41:08.041Z</time></trkpt><trkpt lat="44.8066333" lon="9.4307233"><ele>229.0</ele><time>2026-04-11T10:41:09.041Z</time></trkpt><trkpt lat="44.8067267" lon="9.4309117"><ele>229.0</ele><time>2026-04-11T10:41:10.039Z</time></trkpt><trkpt lat="44.80681" lon="9.43109"><ele>230.25</ele><time>2026-04-11T10:41:11.039Z</time></trkpt><trkpt lat="44.80689" lon="9.4312617"><ele>231.5</ele><time>2026-04-11T10:41:12.034Z</time></trkpt><trkpt lat="44.8069633" lon="9.4314167"><ele>232.75</ele><time>2026-04-11T10:41:13.037Z</time></trkpt><trkpt lat="44.8070283" lon="9.431555"><ele>234.0</ele><time>2026-04-11T10:41:14.04Z</time></trkpt><trkpt lat="44.8070867" lon="9.4316767"><ele>234.0</ele><time>2026-04-11T10:41:15.038Z</time></trkpt><trkpt lat="44.8071367" lon="9.4317767"><ele>234.0</ele><time>2026-04-11T10:41:16.036Z</time></trkpt><trkpt lat="44.80718" lon="9.4318683"><ele>234.0</ele><time>2026-04-11T10:41:17.038Z</time></trkpt><trkpt lat="44.8072333" lon="9.431945"><ele>234.0</ele><time>2026-04-11T10:41:18.038Z</time></trkpt><trkpt lat="44.8073017" lon="9.4320017"><ele>234.0</ele><time>2026-04-11T10:41:19.04Z</time></trkpt><trkpt lat="44.8073883" lon="9.432035"><ele>234.0</ele><time>2026-04-11T10:41:20.04Z</time></trkpt><trkpt lat="44.807485" lon="9.432065"><ele>234.0</ele><time>2026-04-11T10:41:21.038Z</time></trkpt><trkpt lat="44.8075867" lon="9.4321083"><ele>234.0</ele><time>2026-04-11T10:41:22.04Z</time></trkpt><trkpt lat="44.8076967" lon="9.4321717"><ele>234.0</ele><time>2026-04-11T10:41:23.038Z</time></trkpt><trkpt lat="44.8078083" lon="9.43225"><ele>234.0</ele><time>2026-04-11T10:41:24.04Z</time></trkpt><trkpt lat="44.80793" lon="9.4323383"><ele>232.25</ele><time>2026-04-11T10:41:25.038Z</time></trkpt><trkpt lat="44.8080467" lon="9.4324283"><ele>230.5</ele><time>2026-04-11T10:41:26.037Z</time></trkpt><trkpt lat="44.8081533" lon="9.43251"><ele>228.75</ele><time>2026-04-11T10:41:27.039Z</time></trkpt><trkpt lat="44.8082567" lon="9.43257"><ele>227.0</ele><time>2026-04-11T10:41:28.04Z</time></trkpt><trkpt lat="44.80835" lon="9.4325983"><ele>227.00000000000003</ele><time>2026-04-11T10:41:29.039Z</time></trkpt><trkpt lat="44.8084367" lon="9.4325867"><ele>227.0</ele><time>2026-04-11T10:41:30.041Z</time></trkpt><trkpt lat="44.808495" lon="9.4325217"><ele>227.0</ele><time>2026-04-11T10:41:31.039Z</time></trkpt><trkpt lat="44.8085283" lon="9.4324267"><ele>227.0</ele><time>2026-04-11T10:41:32.039Z</time></trkpt><trkpt lat="44.8085267" lon="9.4323183"><ele>227.00000000000003</ele><time>2026-04-11T10:41:33.034Z</time></trkpt><trkpt lat="44.8084933" lon="9.4322167"><ele>227.0</ele><time>2026-04-11T10:41:34.041Z</time></trkpt><trkpt lat="44.8084067" lon="9.4321333"><ele>230.0</ele><time>2026-04-11T10:41:35.036Z</time></trkpt><trkpt lat="44.8083083" lon="9.43205"><ele>233.0</ele><time>2026-04-11T10:41:36.03Z</time></trkpt><trkpt lat="44.8082067" lon="9.43197"><ele>236.0</ele><time>2026-04-11T10:41:37.037Z</time></trkpt><trkpt lat="44.8080883" lon="9.4318783"><ele>239.0</ele><time>2026-04-11T10:41:38.039Z</time></trkpt><trkpt lat="44.8079683" lon="9.431785"><ele>239.0</ele><time>2026-04-11T10:41:39.039Z</time></trkpt><trkpt lat="44.807845" lon="9.431685"><ele>239.0</ele><time>2026-04-11T10:41:40.04Z</time></trkpt><trkpt lat="44.8077333" lon="9.4315767"><ele>239.0</ele><time>2026-04-11T10:41:41.036Z</time></trkpt><trkpt lat="44.80764" lon="9.431445"><ele>239.0</ele><time>2026-04-11T10:41:42.036Z</time></trkpt><trkpt lat="44.8075817" lon="9.4312883"><ele>239.5</ele><time>2026-04-11T10:41:43.041Z</time></trkpt><trkpt lat="44.8075633" lon="9.4311233"><ele>240.0</ele><time>2026-04-11T10:41:44.033Z</time></trkpt><trkpt lat="44.8075783" lon="9.430965"><ele>240.5</ele><time>2026-04-11T10:41:45.034Z</time></trkpt><trkpt lat="44.8076267" lon="9.4308217"><ele>241.0</ele><time>2026-04-11T10:41:46.044Z</time></trkpt><trkpt lat="44.8077" lon="9.4307033"><ele>242.5</ele><time>2026-04-11T10:41:47.036Z</time></trkpt><trkpt lat="44.8078067" lon="9.4306183"><ele>244.0</ele><time>2026-04-11T10:41:48.038Z</time></trkpt><trkpt lat="44.8079267" lon="9.4305867"><ele>245.5</ele><time>2026-04-11T10:41:49.04Z</time></trkpt><trkpt lat="44.8080533" lon="9.43061"><ele>247.0</ele><time>2026-04-11T10:41:50.039Z</time></trkpt><trkpt lat="44.8081867" lon="9.4306733"><ele>247.0</ele><time>2026-04-11T10:41:51.041Z</time></trkpt><trkpt lat="44.8083233" lon="9.4307517"><ele>247.0</ele><time>2026-04-11T10:41:52.04Z</time></trkpt><trkpt lat="44.808465" lon="9.4308367"><ele>247.0</ele><time>2026-04-11T10:41:53.038Z</time></trkpt><trkpt lat="44.8086133" lon="9.4309217"><ele>248.33333333333331</ele><time>2026-04-11T10:41:54.041Z</time></trkpt><trkpt lat="44.8087667" lon="9.4310083"><ele>249.66666666666669</ele><time>2026-04-11T10:41:55.039Z</time></trkpt><trkpt lat="44.8089217" lon="9.4310933"><ele>251.0</ele><time>2026-04-11T10:41:56.043Z</time></trkpt><trkpt lat="44.8090817" lon="9.43118"><ele>251.0</ele><time>2026-04-11T10:41:57.041Z</time></trkpt><trkpt lat="44.8092483" lon="9.43127"><ele>251.0</ele><time>2026-04-11T10:41:58.039Z</time></trkpt><trkpt lat="44.80942" lon="9.4313567"><ele>251.0</ele><time>2026-04-11T10:41:59.038Z</time></trkpt><trkpt lat="44.8095933" lon="9.4314433"><ele>248.33333333333334</ele><time>2026-04-11T10:42:00.043Z</time></trkpt><trkpt lat="44.809765" lon="9.43153"><ele>245.66666666666669</ele><time>2026-04-11T10:42:01.038Z</time></trkpt><trkpt lat="44.8099383" lon="9.4316183"><ele>243.0</ele><time>2026-04-11T10:42:02.035Z</time></trkpt><trkpt lat="44.8101117" lon="9.4317067"><ele>244.0</ele><time>2026-04-11T10:42:03.038Z</time></trkpt><trkpt lat="44.8102817" lon="9.4317867"><ele>245.0</ele><time>2026-04-11T10:42:04.042Z</time></trkpt><trkpt lat="44.8104517" lon="9.4318567"><ele>246.0</ele><time>2026-04-11T10:42:05.037Z</time></trkpt><trkpt lat="44.8106217" lon="9.4319067"><ele>246.0</ele><time>2026-04-11T10:42:06.038Z</time></trkpt><trkpt lat="44.8107967" lon="9.4319233"><ele>246.0</ele><time>2026-04-11T10:42:07.034Z</time></trkpt><trkpt lat="44.810965" lon="9.431905"><ele>246.0</ele><time>2026-04-11T10:42:08.033Z</time></trkpt><trkpt lat="44.81113" lon="9.431855"><ele>247.0</ele><time>2026-04-11T10:42:09.039Z</time></trkpt><trkpt lat="44.81129" lon="9.43178"><ele>248.0</ele><time>2026-04-11T10:42:10.034Z</time></trkpt><trkpt lat="44.8114467" lon="9.4316867"><ele>249.0</ele><time>2026-04-11T10:42:11.039Z</time></trkpt><trkpt lat="44.8115983" lon="9.4315867"><ele>249.0</ele><time>2026-04-11T10:42:12.038Z</time></trkpt><trkpt lat="44.81175" lon="9.43149"><ele>249.0</ele><time>2026-04-11T10:42:13.039Z</time></trkpt><trkpt lat="44.8119033" lon="9.4314067"><ele>249.0</ele><time>2026-04-11T10:42:14.042Z</time></trkpt><trkpt lat="44.8120617" lon="9.431345"><ele>250.0</ele><time>2026-04-11T10:42:15.042Z</time></trkpt><trkpt lat="44.8122167" lon="9.4313167"><ele>251.0</ele><time>2026-04-11T10:42:16.041Z</time></trkpt><trkpt lat="44.8123683" lon="9.431335"><ele>252.0</ele><time>2026-04-11T10:42:17.038Z</time></trkpt><trkpt lat="44.812515" lon="9.4313917"><ele>252.33333333333331</ele><time>2026-04-11T10:42:18.04Z</time></trkpt><trkpt lat="44.8126583" lon="9.4314867"><ele>252.66666666666666</ele><time>2026-04-11T10:42:19.04Z</time></trkpt><trkpt lat="44.8128033" lon="9.43158"><ele>253.0</ele><time>2026-04-11T10:42:20.04Z</time></trkpt><trkpt lat="44.81295" lon="9.4316683"><ele>253.0</ele><time>2026-04-11T10:42:21.041Z</time></trkpt><trkpt lat="44.8130967" lon="9.4317483"><ele>253.0</ele><time>2026-04-11T10:42:22.039Z</time></trkpt><trkpt lat="44.8132467" lon="9.4318067"><ele>253.0</ele><time>2026-04-11T10:42:23.036Z</time></trkpt><trkpt lat="44.8134017" lon="9.4318383"><ele>252.25</ele><time>2026-04-11T10:42:24.038Z</time></trkpt><trkpt lat="44.8135533" lon="9.4318467"><ele>251.5</ele><time>2026-04-11T10:42:25.032Z</time></trkpt><trkpt lat="44.8137017" lon="9.4318233"><ele>250.75</ele><time>2026-04-11T10:42:26.038Z</time></trkpt><trkpt lat="44.8138417" lon="9.4317867"><ele>250.0</ele><time>2026-04-11T10:42:27.04Z</time></trkpt><trkpt lat="44.81397" lon="9.4317367"><ele>250.0</ele><time>2026-04-11T10:42:28.039Z</time></trkpt><trkpt lat="44.8140933" lon="9.4316767"><ele>250.0</ele><time>2026-04-11T10:42:29.039Z</time></trkpt><trkpt lat="44.81421" lon="9.4316017"><ele>250.0</ele><time>2026-04-11T10:42:30.034Z</time></trkpt><trkpt lat="44.8143233" lon="9.4315017"><ele>250.0</ele><time>2026-04-11T10:42:31.042Z</time></trkpt><trkpt lat="44.8144367" lon="9.43138"><ele>250.66666666666666</ele><time>2026-04-11T10:42:32.041Z</time></trkpt><trkpt lat="44.8145483" lon="9.4312283"><ele>251.33333333333331</ele><time>2026-04-11T10:42:33.041Z</time></trkpt><trkpt lat="44.814665" lon="9.4310567"><ele>252.0</ele><time>2026-04-11T10:42:34.04Z</time></trkpt><trkpt lat="44.81479" lon="9.430885"><ele>252.0</ele><time>2026-04-11T10:42:35.03Z</time></trkpt><trkpt lat="44.8149133" lon="9.4307133"><ele>252.0</ele><time>2026-04-11T10:42:36.039Z</time></trkpt><trkpt lat="44.8150367" lon="9.4305633"><ele>252.0</ele><time>2026-04-11T10:42:37.04Z</time></trkpt><trkpt lat="44.81515" lon="9.4304217"><ele>251.25</ele><time>2026-04-11T10:42:38.033Z</time></trkpt><trkpt lat="44.81526" lon="9.4302833"><ele>250.5</ele><time>2026-04-11T10:42:39.04Z</time></trkpt><trkpt lat="44.815365" lon="9.430145"><ele>249.75</ele><time>2026-04-11T10:42:40.038Z</time></trkpt><trkpt lat="44.815465" lon="9.4300167"><ele>249.0</ele><time>2026-04-11T10:42:41.039Z</time></trkpt><trkpt lat="44.815565" lon="9.42991"><ele>249.0</ele><time>2026-04-11T10:42:42.033Z</time></trkpt><trkpt lat="44.8156733" lon="9.4298367"><ele>249.0</ele><time>2026-04-11T10:42:43.04Z</time></trkpt><trkpt lat="44.8157883" lon="9.4298133"><ele>249.0</ele><time>2026-04-11T10:42:44.038Z</time></trkpt><trkpt lat="44.8159117" lon="9.4298317"><ele>249.0</ele><time>2026-04-11T10:42:45.031Z</time></trkpt><trkpt lat="44.8160367" lon="9.42988"><ele>249.5</ele><time>2026-04-11T10:42:46.039Z</time></trkpt><trkpt lat="44.8161667" lon="9.42995"><ele>250.0</ele><time>2026-04-11T10:42:47.038Z</time></trkpt><trkpt lat="44.8163017" lon="9.4300167"><ele>250.5</ele><time>2026-04-11T10:42:48.039Z</time></trkpt><trkpt lat="44.816435" lon="9.4300733"><ele>251.0</ele><time>2026-04-11T10:42:49.04Z</time></trkpt><trkpt lat="44.8165567" lon="9.430115"><ele>251.0</ele><time>2026-04-11T10:42:50.034Z</time></trkpt><trkpt lat="44.8166717" lon="9.4301517"><ele>251.00000000000003</ele><time>2026-04-11T10:42:51.038Z</time></trkpt><trkpt lat="44.8167817" lon="9.4301633"><ele>251.00000000000003</ele><time>2026-04-11T10:42:52.039Z</time></trkpt><trkpt lat="44.81688" lon="9.43014"><ele>251.0</ele><time>2026-04-11T10:42:53.036Z</time></trkpt><trkpt lat="44.8169717" lon="9.430075"><ele>251.0</ele><time>2026-04-11T10:42:54.041Z</time></trkpt><trkpt lat="44.8170667" lon="9.4299733"><ele>251.75</ele><time>2026-04-11T10:42:55.037Z</time></trkpt><trkpt lat="44.8171683" lon="9.42986"><ele>252.5</ele><time>2026-04-11T10:42:56.042Z</time></trkpt><trkpt lat="44.81728" lon="9.4297467"><ele>253.25</ele><time>2026-04-11T10:42:57.04Z</time></trkpt><trkpt lat="44.8174017" lon="9.4296317"><ele>254.0</ele><time>2026-04-11T10:42:58.039Z</time></trkpt><trkpt lat="44.8175367" lon="9.4295233"><ele>257.33333333333337</ele><time>2026-04-11T10:42:59.034Z</time></trkpt><trkpt lat="44.8176817" lon="9.42943"><ele>260.6666666666667</ele><time>2026-04-11T10:43:00.039Z</time></trkpt><trkpt lat="44.8178283" lon="9.4293467"><ele>264.0</ele><time>2026-04-11T10:43:01.041Z</time></trkpt><trkpt lat="44.8179633" lon="9.4292783"><ele>264.0</ele><time>2026-04-11T10:43:02.04Z</time></trkpt><trkpt lat="44.8180833" lon="9.4292183"><ele>264.0</ele><time>2026-04-11T10:43:03.042Z</time></trkpt><trkpt lat="44.8181883" lon="9.429145"><ele>264.0</ele><time>2026-04-11T10:43:04.039Z</time></trkpt><trkpt lat="44.8182733" lon="9.4290417"><ele>264.0</ele><time>2026-04-11T10:43:05.033Z</time></trkpt><trkpt lat="44.8183483" lon="9.42891"><ele>263.0</ele><time>2026-04-11T10:43:06.04Z</time></trkpt><trkpt lat="44.8184167" lon="9.4287733"><ele>262.0</ele><time>2026-04-11T10:43:07.038Z</time></trkpt><trkpt lat="44.81849" lon="9.42864"><ele>261.0</ele><time>2026-04-11T10:43:08.04Z</time></trkpt><trkpt lat="44.818575" lon="9.4285167"><ele>260.0</ele><time>2026-04-11T10:43:09.038Z</time></trkpt><trkpt lat="44.8186767" lon="9.42841"><ele>262.5</ele><time>2026-04-11T10:43:10.042Z</time></trkpt><trkpt lat="44.8187917" lon="9.4283133"><ele>265.0</ele><time>2026-04-11T10:43:11.04Z</time></trkpt><trkpt lat="44.818915" lon="9.428225"><ele>267.5</ele><time>2026-04-11T10:43:12.036Z</time></trkpt><trkpt lat="44.8190417" lon="9.428135"><ele>270.0</ele><time>2026-04-11T10:43:13.033Z</time></trkpt><trkpt lat="44.8191717" lon="9.4280467"><ele>269.0</ele><time>2026-04-11T10:43:14.039Z</time></trkpt><trkpt lat="44.8193067" lon="9.4279567"><ele>268.0</ele><time>2026-04-11T10:43:15.037Z</time></trkpt><trkpt lat="44.81944" lon="9.4278767"><ele>267.0</ele><time>2026-04-11T10:43:16.035Z</time></trkpt><trkpt lat="44.819585" lon="9.4278"><ele>266.0</ele><time>2026-04-11T10:43:17.037Z</time></trkpt><trkpt lat="44.81973" lon="9.4277217"><ele>268.6666666666667</ele><time>2026-04-11T10:43:18.037Z</time></trkpt><trkpt lat="44.8198683" lon="9.42765"><ele>271.3333333333333</ele><time>2026-04-11T10:43:19.038Z</time></trkpt><trkpt lat="44.8200067" lon="9.4275633"><ele>274.0</ele><time>2026-04-11T10:43:20.035Z</time></trkpt><trkpt lat="44.8201417" lon="9.4274617"><ele>277.0</ele><time>2026-04-11T10:43:21.042Z</time></trkpt><trkpt lat="44.8202717" lon="9.4273467"><ele>280.0</ele><time>2026-04-11T10:43:22.039Z</time></trkpt><trkpt lat="44.8203983" lon="9.4272167"><ele>283.0</ele><time>2026-04-11T10:43:23.038Z</time></trkpt><trkpt lat="44.8205167" lon="9.4270717"><ele>283.0</ele><time>2026-04-11T10:43:24.039Z</time></trkpt><trkpt lat="44.8206333" lon="9.4269167"><ele>283.0</ele><time>2026-04-11T10:43:25.04Z</time></trkpt><trkpt lat="44.820745" lon="9.4267617"><ele>283.0</ele><time>2026-04-11T10:43:26.04Z</time></trkpt><trkpt lat="44.8208533" lon="9.4266183"><ele>283.0</ele><time>2026-04-11T10:43:27.04Z</time></trkpt><trkpt lat="44.8209633" lon="9.4264767"><ele>283.0</ele><time>2026-04-11T10:43:28.04Z</time></trkpt><trkpt lat="44.8210683" lon="9.426355"><ele>283.0</ele><time>2026-04-11T10:43:29.036Z</time></trkpt><trkpt lat="44.8211683" lon="9.4262733"><ele>283.0</ele><time>2026-04-11T10:43:30.042Z</time></trkpt><trkpt lat="44.8212733" lon="9.4262267"><ele>284.25</ele><time>2026-04-11T10:43:31.039Z</time></trkpt><trkpt lat="44.8213833" lon="9.4262183"><ele>285.5</ele><time>2026-04-11T10:43:32.042Z</time></trkpt><trkpt lat="44.8215017" lon="9.4262517"><ele>286.75</ele><time>2026-04-11T10:43:33.037Z</time></trkpt><trkpt lat="44.8216217" lon="9.4263083"><ele>288.0</ele><time>2026-04-11T10:43:34.039Z</time></trkpt><trkpt lat="44.82174" lon="9.4263783"><ele>290.5</ele><time>2026-04-11T10:43:35.038Z</time></trkpt><trkpt lat="44.8218583" lon="9.426445"><ele>293.0</ele><time>2026-04-11T10:43:36.041Z</time></trkpt><trkpt lat="44.8219733" lon="9.4265067"><ele>295.5</ele><time>2026-04-11T10:43:37.038Z</time></trkpt><trkpt lat="44.82209" lon="9.4265583"><ele>298.0</ele><time>2026-04-11T10:43:38.039Z</time></trkpt><trkpt lat="44.822215" lon="9.4266033"><ele>298.0</ele><time>2026-04-11T10:43:39.041Z</time></trkpt><trkpt lat="44.8223467" lon="9.4266483"><ele>298.0</ele><time>2026-04-11T10:43:40.038Z</time></trkpt><trkpt lat="44.8224767" lon="9.426695"><ele>298.0</ele><time>2026-04-11T10:43:41.04Z</time></trkpt><trkpt lat="44.8226067" lon="9.4267333"><ele>298.0</ele><time>2026-04-11T10:43:42.038Z</time></trkpt><trkpt lat="44.8227317" lon="9.4267567"><ele>299.8</ele><time>2026-04-11T10:43:43.042Z</time></trkpt><trkpt lat="44.8228417" lon="9.4267633"><ele>301.6</ele><time>2026-04-11T10:43:44.041Z</time></trkpt><trkpt lat="44.822935" lon="9.42674"><ele>303.4</ele><time>2026-04-11T10:43:45.042Z</time></trkpt><trkpt lat="44.823015" lon="9.4266733"><ele>305.2</ele><time>2026-04-11T10:43:46.042Z</time></trkpt><trkpt lat="44.8230833" lon="9.4265733"><ele>307.0</ele><time>2026-04-11T10:43:47.037Z</time></trkpt><trkpt lat="44.8231467" lon="9.42644"><ele>307.0</ele><time>2026-04-11T10:43:48.038Z</time></trkpt><trkpt lat="44.823215" lon="9.4263183"><ele>307.0</ele><time>2026-04-11T10:43:49.034Z</time></trkpt><trkpt lat="44.823295" lon="9.4262333"><ele>307.0</ele><time>2026-04-11T10:43:50.037Z</time></trkpt><trkpt lat="44.8233933" lon="9.4261917"><ele>307.0</ele><time>2026-04-11T10:43:51.039Z</time></trkpt><trkpt lat="44.8235" lon="9.4261617"><ele>307.0</ele><time>2026-04-11T10:43:52.036Z</time></trkpt><trkpt lat="44.823585" lon="9.4261167"><ele>308.0</ele><time>2026-04-11T10:43:53.037Z</time></trkpt><trkpt lat="44.823645" lon="9.426045"><ele>309.0</ele><time>2026-04-11T10:43:54.036Z</time></trkpt><trkpt lat="44.8236733" lon="9.42594"><ele>310.0</ele><time>2026-04-11T10:43:55.038Z</time></trkpt><trkpt lat="44.8236567" lon="9.425805"><ele>311.0</ele><time>2026-04-11T10:43:56.038Z</time></trkpt><trkpt lat="44.8235967" lon="9.425665"><ele>312.0</ele><time>2026-04-11T10:43:57.031Z</time></trkpt><trkpt lat="44.8235083" lon="9.42554"><ele>312.75</ele><time>2026-04-11T10:43:58.041Z</time></trkpt><trkpt lat="44.8233967" lon="9.4254333"><ele>313.5</ele><time>2026-04-11T10:43:59.04Z</time></trkpt><trkpt lat="44.8232767" lon="9.4253533"><ele>314.25</ele><time>2026-04-11T10:44:00.038Z</time></trkpt><trkpt lat="44.8231633" lon="9.4252867"><ele>315.0</ele><time>2026-04-11T10:44:01.042Z</time></trkpt><trkpt lat="44.8230683" lon="9.425215"><ele>315.0</ele><time>2026-04-11T10:44:02.031Z</time></trkpt><trkpt lat="44.822985" lon="9.42513"><ele>315.0</ele><time>2026-04-11T10:44:03.03Z</time></trkpt><trkpt lat="44.8229233" lon="9.4250167"><ele>315.0</ele><time>2026-04-11T10:44:04.03Z</time></trkpt><trkpt lat="44.8228533" lon="9.4248817"><ele>315.0</ele><time>2026-04-11T10:44:05.029Z</time></trkpt><trkpt lat="44.822775" lon="9.4247517"><ele>315.0</ele><time>2026-04-11T10:44:06.03Z</time></trkpt><trkpt lat="44.8226817" lon="9.42465"><ele>316.75</ele><time>2026-04-11T10:44:07.03Z</time></trkpt><trkpt lat="44.8225667" lon="9.4245967"><ele>318.5</ele><time>2026-04-11T10:44:08.03Z</time></trkpt><trkpt lat="44.822445" lon="9.4245717"><ele>320.25</ele><time>2026-04-11T10:44:09.03Z</time></trkpt><trkpt lat="44.8223283" lon="9.424545"><ele>322.0</ele><time>2026-04-11T10:44:10.042Z</time></trkpt><trkpt lat="44.8222133" lon="9.424525"><ele>322.0</ele><time>2026-04-11T10:44:11.031Z</time></trkpt><trkpt lat="44.8221133" lon="9.4245117"><ele>322.0</ele><time>2026-04-11T10:44:12.036Z</time></trkpt><trkpt lat="44.8220267" lon="9.4244817"><ele>322.0</ele><time>2026-04-11T10:44:13.038Z</time></trkpt><trkpt lat="44.8219567" lon="9.424435"><ele>322.0</ele><time>2026-04-11T10:44:14.038Z</time></trkpt><trkpt lat="44.8219167" lon="9.4243467"><ele>322.0</ele><time>2026-04-11T10:44:15.032Z</time></trkpt><trkpt lat="44.8219083" lon="9.4242417"><ele>322.0</ele><time>2026-04-11T10:44:16.034Z</time></trkpt><trkpt lat="44.821925" lon="9.424145"><ele>322.0</ele><time>2026-04-11T10:44:17.031Z</time></trkpt><trkpt lat="44.8219967" lon="9.42406"><ele>322.0</ele><time>2026-04-11T10:44:18.03Z</time></trkpt><trkpt lat="44.8220933" lon="9.4239767"><ele>322.0</ele><time>2026-04-11T10:44:19.03Z</time></trkpt><trkpt lat="44.8222017" lon="9.4238917"><ele>322.0</ele><time>2026-04-11T10:44:20.03Z</time></trkpt><trkpt lat="44.8223117" lon="9.4238233"><ele>323.25</ele><time>2026-04-11T10:44:21.034Z</time></trkpt><trkpt lat="44.822435" lon="9.423775"><ele>324.5</ele><time>2026-04-11T10:44:22.033Z</time></trkpt><trkpt lat="44.822565" lon="9.4237367"><ele>325.75</ele><time>2026-04-11T10:44:23.039Z</time></trkpt><trkpt lat="44.8227" lon="9.423695"><ele>327.0</ele><time>2026-04-11T10:44:24.039Z</time></trkpt><trkpt lat="44.8228283" lon="9.423655"><ele>328.25</ele><time>2026-04-11T10:44:25.036Z</time></trkpt><trkpt lat="44.8229517" lon="9.423605"><ele>329.5</ele><time>2026-04-11T10:44:26.039Z</time></trkpt><trkpt lat="44.82307" lon="9.4235517"><ele>330.75</ele><time>2026-04-11T10:44:27.038Z</time></trkpt><trkpt lat="44.82318" lon="9.4234967"><ele>332.0</ele><time>2026-04-11T10:44:28.038Z</time></trkpt><trkpt lat="44.8232817" lon="9.4234433"><ele>332.0</ele><time>2026-04-11T10:44:29.031Z</time></trkpt><trkpt lat="44.82338" lon="9.4233817"><ele>332.0</ele><time>2026-04-11T10:44:30.032Z</time></trkpt><trkpt lat="44.82346" lon="9.4233117"><ele>332.0</ele><time>2026-04-11T10:44:31.031Z</time></trkpt><trkpt lat="44.823545" lon="9.423235"><ele>332.0</ele><time>2026-04-11T10:44:32.031Z</time></trkpt><trkpt lat="44.8236183" lon="9.4231533"><ele>332.0</ele><time>2026-04-11T10:44:33.035Z</time></trkpt><trkpt lat="44.8237367" lon="9.4230817"><ele>332.83333333333337</ele><time>2026-04-11T10:44:35.03Z</time></trkpt><trkpt lat="44.8238033" lon="9.4230633"><ele>333.6666666666667</ele><time>2026-04-11T10:44:36.029Z</time></trkpt><trkpt lat="44.82388" lon="9.42303"><ele>334.5</ele><time>2026-04-11T10:44:37.031Z</time></trkpt><trkpt lat="44.8239533" lon="9.4229967"><ele>335.3333333333333</ele><time>2026-04-11T10:44:38.03Z</time></trkpt><trkpt lat="44.8240083" lon="9.4229283"><ele>336.16666666666663</ele><time>2026-04-11T10:44:39.032Z</time></trkpt><trkpt lat="44.8240533" lon="9.4228383"><ele>337.0</ele><time>2026-04-11T10:44:40.033Z</time></trkpt><trkpt lat="44.8240967" lon="9.4227483"><ele>338.0</ele><time>2026-04-11T10:44:41.03Z</time></trkpt><trkpt lat="44.8241417" lon="9.42265"><ele>339.0</ele><time>2026-04-11T10:44:42.032Z</time></trkpt><trkpt lat="44.8241933" lon="9.4225483"><ele>340.0</ele><time>2026-04-11T10:44:43.031Z</time></trkpt><trkpt lat="44.8242583" lon="9.4224633"><ele>341.0</ele><time>2026-04-11T10:44:44.031Z</time></trkpt><trkpt lat="44.8243133" lon="9.422365"><ele>342.0</ele><time>2026-04-11T10:44:45.031Z</time></trkpt><trkpt lat="44.8243667" lon="9.42224"><ele>343.75</ele><time>2026-04-11T10:44:46.03Z</time></trkpt><trkpt lat="44.8244317" lon="9.422095"><ele>345.5</ele><time>2026-04-11T10:44:47.03Z</time></trkpt><trkpt lat="44.8245017" lon="9.421935"><ele>347.25</ele><time>2026-04-11T10:44:48.03Z</time></trkpt><trkpt lat="44.8245683" lon="9.4217617"><ele>349.0</ele><time>2026-04-11T10:44:49.029Z</time></trkpt><trkpt lat="44.82464" lon="9.4215817"><ele>349.0</ele><time>2026-04-11T10:44:50.036Z</time></trkpt><trkpt lat="44.82471" lon="9.4213983"><ele>349.0</ele><time>2026-04-11T10:44:51.036Z</time></trkpt><trkpt lat="44.8247817" lon="9.4212"><ele>349.0</ele><time>2026-04-11T10:44:52.031Z</time></trkpt><trkpt lat="44.8248583" lon="9.420995"><ele>350.0</ele><time>2026-04-11T10:44:53.038Z</time></trkpt><trkpt lat="44.8249417" lon="9.4207983"><ele>351.0</ele><time>2026-04-11T10:44:54.039Z</time></trkpt><trkpt lat="44.825035" lon="9.4206233"><ele>352.0</ele><time>2026-04-11T10:44:55.042Z</time></trkpt><trkpt lat="44.825145" lon="9.4204633"><ele>351.25</ele><time>2026-04-11T10:44:56.032Z</time></trkpt><trkpt lat="44.8252533" lon="9.420315"><ele>350.5</ele><time>2026-04-11T10:44:57.031Z</time></trkpt><trkpt lat="44.8253517" lon="9.4201817"><ele>349.75</ele><time>2026-04-11T10:44:58.038Z</time></trkpt><trkpt lat="44.8254367" lon="9.4200483"><ele>349.0</ele><time>2026-04-11T10:44:59.04Z</time></trkpt><trkpt lat="44.8254933" lon="9.4199"><ele>349.0</ele><time>2026-04-11T10:45:00.039Z</time></trkpt><trkpt lat="44.8255217" lon="9.4197217"><ele>349.0</ele><time>2026-04-11T10:45:01.042Z</time></trkpt><trkpt lat="44.82552" lon="9.41952"><ele>349.0</ele><time>2026-04-11T10:45:02.039Z</time></trkpt><trkpt lat="44.8255167" lon="9.4193033"><ele>349.0</ele><time>2026-04-11T10:45:03.038Z</time></trkpt><trkpt lat="44.825505" lon="9.419095"><ele>350.25</ele><time>2026-04-11T10:45:04.038Z</time></trkpt><trkpt lat="44.8254817" lon="9.4189017"><ele>351.5</ele><time>2026-04-11T10:45:05.036Z</time></trkpt><trkpt lat="44.8254483" lon="9.4187217"><ele>352.75</ele><time>2026-04-11T10:45:06.042Z</time></trkpt><trkpt lat="44.8254183" lon="9.41856"><ele>354.0</ele><time>2026-04-11T10:45:07.042Z</time></trkpt><trkpt lat="44.8253983" lon="9.4184133"><ele>355.2</ele><time>2026-04-11T10:45:08.042Z</time></trkpt><trkpt lat="44.8254183" lon="9.41827"><ele>356.4</ele><time>2026-04-11T10:45:09.039Z</time></trkpt><trkpt lat="44.8254733" lon="9.4181633"><ele>357.6</ele><time>2026-04-11T10:45:10.043Z</time></trkpt><trkpt lat="44.8255483" lon="9.418105"><ele>358.8</ele><time>2026-04-11T10:45:11.041Z</time></trkpt><trkpt lat="44.8256483" lon="9.418115"><ele>360.0</ele><time>2026-04-11T10:45:12.043Z</time></trkpt><trkpt lat="44.8257433" lon="9.4181767"><ele>360.0</ele><time>2026-04-11T10:45:13.041Z</time></trkpt><trkpt lat="44.825835" lon="9.41829"><ele>360.0</ele><time>2026-04-11T10:45:14.032Z</time></trkpt><trkpt lat="44.8259233" lon="9.41844"><ele>360.0</ele><time>2026-04-11T10:45:15.04Z</time></trkpt><trkpt lat="44.8260067" lon="9.4186117"><ele>360.0</ele><time>2026-04-11T10:45:16.039Z</time></trkpt><trkpt lat="44.8260817" lon="9.4187933"><ele>359.0</ele><time>2026-04-11T10:45:17.033Z</time></trkpt><trkpt lat="44.8261433" lon="9.4189783"><ele>358.0</ele><time>2026-04-11T10:45:18.041Z</time></trkpt><trkpt lat="44.8261933" lon="9.4191517"><ele>357.0</ele><time>2026-04-11T10:45:19.039Z</time></trkpt><trkpt lat="44.8262383" lon="9.4193067"><ele>356.0</ele><time>2026-04-11T10:45:20.037Z</time></trkpt><trkpt lat="44.82629" lon="9.41943"><ele>356.0</ele><time>2026-04-11T10:45:21.033Z</time></trkpt><trkpt lat="44.82636" lon="9.4195083"><ele>356.0</ele><time>2026-04-11T10:45:22.041Z</time></trkpt><trkpt lat="44.82643" lon="9.419545"><ele>356.0</ele><time>2026-04-11T10:45:23.034Z</time></trkpt><trkpt lat="44.826495" lon="9.4195367"><ele>356.0</ele><time>2026-04-11T10:45:24.039Z</time></trkpt><trkpt lat="44.82656" lon="9.4194333"><ele>356.0</ele><time>2026-04-11T10:45:26.041Z</time></trkpt><trkpt lat="44.8265683" lon="9.41927"><ele>356.0</ele><time>2026-04-11T10:45:28.031Z</time></trkpt><trkpt lat="44.8265417" lon="9.4191117"><ele>356.0</ele><time>2026-04-11T10:45:30.035Z</time></trkpt><trkpt lat="44.8265117" lon="9.4189833"><ele>356.0</ele><time>2026-04-11T10:45:32.03Z</time></trkpt><trkpt lat="44.82647" lon="9.4188533"><ele>356.0</ele><time>2026-04-11T10:45:34.031Z</time></trkpt><trkpt lat="44.8264367" lon="9.4187317"><ele>356.0</ele><time>2026-04-11T10:45:36.031Z</time></trkpt><trkpt lat="44.82642" lon="9.4186017"><ele>356.0</ele><time>2026-04-11T10:45:38.031Z</time></trkpt><trkpt lat="44.8264233" lon="9.418455"><ele>359.0</ele><time>2026-04-11T10:45:40.032Z</time></trkpt><trkpt lat="44.8264267" lon="9.418265"><ele>362.0</ele><time>2026-04-11T10:45:42.034Z</time></trkpt><trkpt lat="44.8264267" lon="9.418095"><ele>365.0</ele><time>2026-04-11T10:45:44.032Z</time></trkpt><trkpt lat="44.8263967" lon="9.41793"><ele>368.0</ele><time>2026-04-11T10:45:46.03Z</time></trkpt><trkpt lat="44.826365" lon="9.41778"><ele>370.2</ele><time>2026-04-11T10:45:48.033Z</time></trkpt><trkpt lat="44.82634" lon="9.4176183"><ele>372.4</ele><time>2026-04-11T10:45:50.031Z</time></trkpt><trkpt lat="44.8263383" lon="9.4174617"><ele>374.59999999999997</ele><time>2026-04-11T10:45:52.031Z</time></trkpt><trkpt lat="44.82638" lon="9.417305"><ele>376.79999999999995</ele><time>2026-04-11T10:45:54.039Z</time></trkpt><trkpt lat="44.8264017" lon="9.41721"><ele>379.0</ele><time>2026-04-11T10:45:55.04Z</time></trkpt><trkpt lat="44.8264183" lon="9.4170917"><ele>380.4</ele><time>2026-04-11T10:45:56.038Z</time></trkpt><trkpt lat="44.8264333" lon="9.41698"><ele>381.79999999999995</ele><time>2026-04-11T10:45:57.036Z</time></trkpt><trkpt lat="44.8264367" lon="9.4168833"><ele>383.20000000000005</ele><time>2026-04-11T10:45:58.036Z</time></trkpt><trkpt lat="44.82641" lon="9.4167117"><ele>384.6</ele><time>2026-04-11T10:46:00.03Z</time></trkpt><trkpt lat="44.8264017" lon="9.4165383"><ele>386.0</ele><time>2026-04-11T10:46:02.033Z</time></trkpt><trkpt lat="44.826395" lon="9.4164117"><ele>387.3333333333333</ele><time>2026-04-11T10:46:04.036Z</time></trkpt><trkpt lat="44.8263983" lon="9.4163067"><ele>388.66666666666663</ele><time>2026-04-11T10:46:06.035Z</time></trkpt><trkpt lat="44.8263967" lon="9.4162083"><ele>390.0</ele><time>2026-04-11T10:46:08.035Z</time></trkpt><trkpt lat="44.8263767" lon="9.4160717"><ele>391.33333333333337</ele><time>2026-04-11T10:46:11.036Z</time></trkpt><trkpt lat="44.8263483" lon="9.4159783"><ele>392.6666666666667</ele><time>2026-04-11T10:46:13.03Z</time></trkpt><trkpt lat="44.8263183" lon="9.415865"><ele>394.0</ele><time>2026-04-11T10:46:15.032Z</time></trkpt><trkpt lat="44.82629" lon="9.4157733"><ele>394.00000000000006</ele><time>2026-04-11T10:46:18.032Z</time></trkpt><trkpt lat="44.82625" lon="9.415695"><ele>394.0</ele><time>2026-04-11T10:46:20.033Z</time></trkpt><trkpt lat="44.8262167" lon="9.4156133"><ele>394.0</ele><time>2026-04-11T10:46:22.03Z</time></trkpt><trkpt lat="44.8261833" lon="9.415515"><ele>394.0</ele><time>2026-04-11T10:46:24.032Z</time></trkpt><trkpt lat="44.82615" lon="9.415385"><ele>394.00000000000006</ele><time>2026-04-11T10:46:27.041Z</time></trkpt><trkpt lat="44.8260983" lon="9.4152367"><ele>394.0</ele><time>2026-04-11T10:46:29.033Z</time></trkpt><trkpt lat="44.8260783" lon="9.4151467"><ele>397.0</ele><time>2026-04-11T10:46:30.033Z</time></trkpt><trkpt lat="44.8260683" lon="9.4150583"><ele>400.0</ele><time>2026-04-11T10:46:31.032Z</time></trkpt><trkpt lat="44.826065" lon="9.4148917"><ele>403.0</ele><time>2026-04-11T10:46:33.031Z</time></trkpt><trkpt lat="44.8260817" lon="9.4147383"><ele>406.0</ele><time>2026-04-11T10:46:35.032Z</time></trkpt><trkpt lat="44.82608" lon="9.4145867"><ele>409.0</ele><time>2026-04-11T10:46:37.034Z</time></trkpt><trkpt lat="44.8261033" lon="9.4144283"><ele>410.83333333333337</ele><time>2026-04-11T10:46:39.035Z</time></trkpt><trkpt lat="44.8261617" lon="9.4142833"><ele>412.6666666666667</ele><time>2026-04-11T10:46:41.034Z</time></trkpt><trkpt lat="44.8261983" lon="9.4142033"><ele>414.5</ele><time>2026-04-11T10:46:42.034Z</time></trkpt><trkpt lat="44.8262383" lon="9.4141217"><ele>416.33333333333337</ele><time>2026-04-11T10:46:43.032Z</time></trkpt><trkpt lat="44.8262717" lon="9.4140433"><ele>418.1666666666667</ele><time>2026-04-11T10:46:44.031Z</time></trkpt><trkpt lat="44.8263067" lon="9.4139583"><ele>420.0</ele><time>2026-04-11T10:46:45.031Z</time></trkpt><trkpt lat="44.8263333" lon="9.413875"><ele>422.5</ele><time>2026-04-11T10:46:46.034Z</time></trkpt><trkpt lat="44.826385" lon="9.4137433"><ele>425.0</ele><time>2026-04-11T10:46:48.033Z</time></trkpt><trkpt lat="44.826455" lon="9.4136083"><ele>427.5</ele><time>2026-04-11T10:46:50.038Z</time></trkpt><trkpt lat="44.8265383" lon="9.4134983"><ele>430.0</ele><time>2026-04-11T10:46:52.041Z</time></trkpt><trkpt lat="44.82662" lon="9.4133417"><ele>430.0</ele><time>2026-04-11T10:46:54.033Z</time></trkpt><trkpt lat="44.8266617" lon="9.4132217"><ele>430.0</ele><time>2026-04-11T10:46:55.032Z</time></trkpt><trkpt lat="44.8267233" lon="9.4130933"><ele>430.0</ele><time>2026-04-11T10:46:56.034Z</time></trkpt><trkpt lat="44.8267867" lon="9.4129717"><ele>430.0</ele><time>2026-04-11T10:46:57.031Z</time></trkpt><trkpt lat="44.82615" lon="9.415385"><ele>425.8</ele><time>2026-04-11T10:46:27.041Z</time></trkpt><trkpt lat="44.8260983" lon="9.4152367"><ele>421.6</ele><time>2026-04-11T10:46:29.033Z</time></trkpt><trkpt lat="44.8260783" lon="9.4151467"><ele>417.4</ele><time>2026-04-11T10:46:30.033Z</time></trkpt><trkpt lat="44.8260683" lon="9.4150583"><ele>413.2</ele><time>2026-04-11T10:46:31.032Z</time></trkpt><trkpt lat="44.826065" lon="9.4148917"><ele>409.0</ele><time>2026-04-11T10:46:33.031Z</time></trkpt><trkpt lat="44.8260817" lon="9.4147383"><ele>411.2</ele><time>2026-04-11T10:46:35.032Z</time></trkpt><trkpt lat="44.82608" lon="9.4145867"><ele>413.4</ele><time>2026-04-11T10:46:37.034Z</time></trkpt><trkpt lat="44.8261033" lon="9.4144283"><ele>415.6</ele><time>2026-04-11T10:46:39.035Z</time></trkpt><trkpt lat="44.8261617" lon="9.4142833"><ele>417.8</ele><time>2026-04-11T10:46:41.034Z</time></trkpt><trkpt lat="44.8261983" lon="9.4142033"><ele>420.0</ele><time>2026-04-11T10:46:42.034Z</time></trkpt><trkpt lat="44.8262383" lon="9.4141217"><ele>420.0</ele><time>2026-04-11T10:46:43.032Z</time></trkpt><trkpt lat="44.8262717" lon="9.4140433"><ele>420.0</ele><time>2026-04-11T10:46:44.031Z</time></trkpt><trkpt lat="44.8263067" lon="9.4139583"><ele>420.0</ele><time>2026-04-11T10:46:45.031Z</time></trkpt><trkpt lat="44.8263333" lon="9.413875"><ele>420.0</ele><time>2026-04-11T10:46:46.034Z</time></trkpt><trkpt lat="44.826385" lon="9.4137433"><ele>420.0</ele><time>2026-04-11T10:46:48.033Z</time></trkpt><trkpt lat="44.826455" lon="9.4136083"><ele>420.0</ele><time>2026-04-11T10:46:50.038Z</time></trkpt><trkpt lat="44.8265383" lon="9.4134983"><ele>422.5</ele><time>2026-04-11T10:46:52.041Z</time></trkpt><trkpt lat="44.82662" lon="9.4133417"><ele>425.0</ele><time>2026-04-11T10:46:54.033Z</time></trkpt><trkpt lat="44.8266617" lon="9.4132217"><ele>427.5</ele><time>2026-04-11T10:46:55.032Z</time></trkpt><trkpt lat="44.8267233" lon="9.4130933"><ele>430.0</ele><time>2026-04-11T10:46:56.034Z</time></trkpt><trkpt lat="44.8267867" lon="9.4129717"><ele>430.6</ele><time>2026-04-11T10:46:57.031Z</time></trkpt><trkpt lat="44.82686" lon="9.412855"><ele>431.2</ele><time>2026-04-11T10:46:58.033Z</time></trkpt><trkpt lat="44.8269267" lon="9.412745"><ele>431.79999999999995</ele><time>2026-04-11T10:46:59.031Z</time></trkpt><trkpt lat="44.8269717" lon="9.4126383"><ele>432.4</ele><time>2026-04-11T10:47:00.03Z</time></trkpt><trkpt lat="44.8270133" lon="9.4125583"><ele>433.0</ele><time>2026-04-11T10:47:01.033Z</time></trkpt><trkpt lat="44.8270467" lon="9.4124567"><ele>433.00000000000006</ele><time>2026-04-11T10:47:03.029Z</time></trkpt><trkpt lat="44.82707" lon="9.4123367"><ele>433.0</ele><time>2026-04-11T10:47:06.032Z</time></trkpt><trkpt lat="44.8271233" lon="9.4122517"><ele>433.0</ele><time>2026-04-11T10:47:09.04Z</time></trkpt><trkpt lat="44.8271717" lon="9.4121483"><ele>433.0</ele><time>2026-04-11T10:47:11.031Z</time></trkpt><trkpt lat="44.827225" lon="9.4120083"><ele>433.00000000000006</ele><time>2026-04-11T10:47:13.031Z</time></trkpt><trkpt lat="44.827255" lon="9.41193"><ele>433.0</ele><time>2026-04-11T10:47:14.03Z</time></trkpt><trkpt lat="44.8273167" lon="9.4117717"><ele>434.85714285714283</ele><time>2026-04-11T10:47:16.031Z</time></trkpt><trkpt lat="44.8273583" lon="9.411695"><ele>436.7142857142857</ele><time>2026-04-11T10:47:17.031Z</time></trkpt><trkpt lat="44.827395" lon="9.41162"><ele>438.57142857142856</ele><time>2026-04-11T10:47:18.031Z</time></trkpt><trkpt lat="44.8274417" lon="9.4115533"><ele>440.42857142857144</ele><time>2026-04-11T10:47:19.031Z</time></trkpt><trkpt lat="44.8274867" lon="9.411485"><ele>442.2857142857143</ele><time>2026-04-11T10:47:20.031Z</time></trkpt><trkpt lat="44.827525" lon="9.41141"><ele>444.1428571428571</ele><time>2026-04-11T10:47:21.031Z</time></trkpt><trkpt lat="44.8275583" lon="9.4113283"><ele>446.0</ele><time>2026-04-11T10:47:22.03Z</time></trkpt><trkpt lat="44.8275933" lon="9.4112433"><ele>448.20000000000005</ele><time>2026-04-11T10:47:23.03Z</time></trkpt><trkpt lat="44.8276383" lon="9.4110967"><ele>450.40000000000003</ele><time>2026-04-11T10:47:25.031Z</time></trkpt><trkpt lat="44.8276767" lon="9.4109467"><ele>452.6</ele><time>2026-04-11T10:47:27.035Z</time></trkpt><trkpt lat="44.82774" lon="9.4108283"><ele>454.8</ele><time>2026-04-11T10:47:29.031Z</time></trkpt><trkpt lat="44.8277733" lon="9.410715"><ele>457.0</ele><time>2026-04-11T10:47:31.032Z</time></trkpt><trkpt lat="44.8278067" lon="9.4106033"><ele>457.20000000000005</ele><time>2026-04-11T10:47:33.032Z</time></trkpt><trkpt lat="44.8278283" lon="9.410515"><ele>457.40000000000003</ele><time>2026-04-11T10:47:34.029Z</time></trkpt><trkpt lat="44.827905" lon="9.4103867"><ele>457.59999999999997</ele><time>2026-04-11T10:47:36.033Z</time></trkpt><trkpt lat="44.8279833" lon="9.4102783"><ele>457.79999999999995</ele><time>2026-04-11T10:47:38.031Z</time></trkpt><trkpt lat="44.828035" lon="9.4101283"><ele>458.0</ele><time>2026-04-11T10:47:40.032Z</time></trkpt><trkpt lat="44.828055" lon="9.4099917"><ele>460.75</ele><time>2026-04-11T10:47:42.037Z</time></trkpt><trkpt lat="44.8280567" lon="9.40985"><ele>463.5</ele><time>2026-04-11T10:47:44.031Z</time></trkpt><trkpt lat="44.82804" lon="9.409695"><ele>466.25</ele><time>2026-04-11T10:47:46.031Z</time></trkpt><trkpt lat="44.8280417" lon="9.4095283"><ele>469.0</ele><time>2026-04-11T10:47:48.031Z</time></trkpt><trkpt lat="44.828035" lon="9.4093433"><ele>471.0</ele><time>2026-04-11T10:47:50.031Z</time></trkpt><trkpt lat="44.8280217" lon="9.4092417"><ele>473.0</ele><time>2026-04-11T10:47:51.031Z</time></trkpt><trkpt lat="44.8280067" lon="9.4091267"><ele>475.0</ele><time>2026-04-11T10:47:52.031Z</time></trkpt><trkpt lat="44.82799" lon="9.4089983"><ele>477.0</ele><time>2026-04-11T10:47:53.039Z</time></trkpt><trkpt lat="44.8279633" lon="9.4088517"><ele>479.0</ele><time>2026-04-11T10:47:54.03Z</time></trkpt><trkpt lat="44.8279317" lon="9.4087117"><ele>480.49999999999994</ele><time>2026-04-11T10:47:55.03Z</time></trkpt><trkpt lat="44.827915" lon="9.4085783"><ele>482.0</ele><time>2026-04-11T10:47:56.032Z</time></trkpt><trkpt lat="44.827925" lon="9.4084517"><ele>483.5</ele><time>2026-04-11T10:47:57.03Z</time></trkpt><trkpt lat="44.8279433" lon="9.408335"><ele>485.0</ele><time>2026-04-11T10:47:58.03Z</time></trkpt><trkpt lat="44.82797" lon="9.40824"><ele>486.49999999999994</ele><time>2026-04-11T10:47:59.031Z</time></trkpt><trkpt lat="44.828005" lon="9.40816"><ele>488.0</ele><time>2026-04-11T10:48:00.03Z</time></trkpt><trkpt lat="44.8280533" lon="9.4080817"><ele>488.0</ele><time>2026-04-11T10:48:01.032Z</time></trkpt><trkpt lat="44.8281183" lon="9.407995"><ele>488.0</ele><time>2026-04-11T10:48:02.04Z</time></trkpt><trkpt lat="44.8281783" lon="9.4078767"><ele>488.0</ele><time>2026-04-11T10:48:03.04Z</time></trkpt><trkpt lat="44.8282167" lon="9.4076983"><ele>488.0</ele><time>2026-04-11T10:48:04.038Z</time></trkpt><trkpt lat="44.8282483" lon="9.4074867"><ele>491.0</ele><time>2026-04-11T10:48:05.03Z</time></trkpt><trkpt lat="44.82827" lon="9.407255"><ele>494.0</ele><time>2026-04-11T10:48:06.032Z</time></trkpt><trkpt lat="44.8282767" lon="9.40697"><ele>497.0</ele><time>2026-04-11T10:48:07.034Z</time></trkpt><trkpt lat="44.8282783" lon="9.4066883"><ele>499.0</ele><time>2026-04-11T10:48:08.031Z</time></trkpt><trkpt lat="44.82828" lon="9.406415"><ele>501.0</ele><time>2026-04-11T10:48:09.034Z</time></trkpt><trkpt lat="44.8282883" lon="9.40616"><ele>503.0</ele><time>2026-04-11T10:48:10.031Z</time></trkpt><trkpt lat="44.8282983" lon="9.4059217"><ele>504.5</ele><time>2026-04-11T10:48:11.032Z</time></trkpt><trkpt lat="44.8283117" lon="9.4057117"><ele>506.0</ele><time>2026-04-11T10:48:12.032Z</time></trkpt><trkpt lat="44.8283317" lon="9.4055233"><ele>507.5</ele><time>2026-04-11T10:48:13.032Z</time></trkpt><trkpt lat="44.8283683" lon="9.4053483"><ele>509.0</ele><time>2026-04-11T10:48:14.031Z</time></trkpt><trkpt lat="44.82843" lon="9.4052083"><ele>508.2</ele><time>2026-04-11T10:48:15.03Z</time></trkpt><trkpt lat="44.8285" lon="9.4050867"><ele>507.4</ele><time>2026-04-11T10:48:16.034Z</time></trkpt><trkpt lat="44.828545" lon="9.4049517"><ele>506.6</ele><time>2026-04-11T10:48:17.032Z</time></trkpt><trkpt lat="44.8285667" lon="9.4048067"><ele>505.8</ele><time>2026-04-11T10:48:18.041Z</time></trkpt><trkpt lat="44.8285433" lon="9.4046383"><ele>505.0</ele><time>2026-04-11T10:48:19.04Z</time></trkpt><trkpt lat="44.8284933" lon="9.40447"><ele>507.6</ele><time>2026-04-11T10:48:20.04Z</time></trkpt><trkpt lat="44.8284317" lon="9.40432"><ele>510.2</ele><time>2026-04-11T10:48:21.041Z</time></trkpt><trkpt lat="44.828345" lon="9.404215"><ele>512.8</ele><time>2026-04-11T10:48:22.039Z</time></trkpt><trkpt lat="44.8282467" lon="9.404145"><ele>515.4</ele><time>2026-04-11T10:48:23.036Z</time></trkpt><trkpt lat="44.8281583" lon="9.4040967"><ele>518.0</ele><time>2026-04-11T10:48:24.035Z</time></trkpt><trkpt lat="44.8280867" lon="9.40404"><ele>518.0</ele><time>2026-04-11T10:48:25.04Z</time></trkpt><trkpt lat="44.828035" lon="9.4039567"><ele>518.0</ele><time>2026-04-11T10:48:26.038Z</time></trkpt><trkpt lat="44.8279933" lon="9.4038433"><ele>518.0</ele><time>2026-04-11T10:48:27.035Z</time></trkpt><trkpt lat="44.8279567" lon="9.403715"><ele>518.0</ele><time>2026-04-11T10:48:28.039Z</time></trkpt><trkpt lat="44.8279267" lon="9.403575"><ele>518.0</ele><time>2026-04-11T10:48:29.037Z</time></trkpt><trkpt lat="44.8279067" lon="9.4034233"><ele>520.0</ele><time>2026-04-11T10:48:30.038Z</time></trkpt><trkpt lat="44.8278983" lon="9.4032583"><ele>522.0</ele><time>2026-04-11T10:48:31.036Z</time></trkpt><trkpt lat="44.8279" lon="9.4031"><ele>524.0</ele><time>2026-04-11T10:48:32.038Z</time></trkpt><trkpt lat="44.82791" lon="9.40297"><ele>526.0</ele><time>2026-04-11T10:48:33.041Z</time></trkpt><trkpt lat="44.8279333" lon="9.40285"><ele>528.0</ele><time>2026-04-11T10:48:34.042Z</time></trkpt><trkpt lat="44.8279867" lon="9.4027533"><ele>530.75</ele><time>2026-04-11T10:48:35.04Z</time></trkpt><trkpt lat="44.828085" lon="9.4026867"><ele>533.5</ele><time>2026-04-11T10:48:36.037Z</time></trkpt><trkpt lat="44.8282033" lon="9.402625"><ele>536.25</ele><time>2026-04-11T10:48:37.041Z</time></trkpt><trkpt lat="44.8283317" lon="9.4025583"><ele>539.0</ele><time>2026-04-11T10:48:38.041Z</time></trkpt><trkpt lat="44.82846" lon="9.4024867"><ele>539.0</ele><time>2026-04-11T10:48:39.041Z</time></trkpt><trkpt lat="44.8285817" lon="9.4024067"><ele>539.0</ele><time>2026-04-11T10:48:40.041Z</time></trkpt><trkpt lat="44.8286933" lon="9.4023117"><ele>539.0</ele><time>2026-04-11T10:48:41.036Z</time></trkpt><trkpt lat="44.8287917" lon="9.4021917"><ele>539.0</ele><time>2026-04-11T10:48:42.04Z</time></trkpt><trkpt lat="44.828875" lon="9.402045"><ele>540.75</ele><time>2026-04-11T10:48:43.041Z</time></trkpt><trkpt lat="44.8289483" lon="9.401875"><ele>542.5</ele><time>2026-04-11T10:48:44.039Z</time></trkpt><trkpt lat="44.8290217" lon="9.4017033"><ele>544.25</ele><time>2026-04-11T10:48:45.041Z</time></trkpt><trkpt lat="44.8290983" lon="9.4015383"><ele>546.0</ele><time>2026-04-11T10:48:46.036Z</time></trkpt><trkpt lat="44.8291733" lon="9.401375"><ele>548.75</ele><time>2026-04-11T10:48:47.037Z</time></trkpt><trkpt lat="44.8292383" lon="9.4012117"><ele>551.5</ele><time>2026-04-11T10:48:48.038Z</time></trkpt><trkpt lat="44.8292883" lon="9.401045"><ele>554.25</ele><time>2026-04-11T10:48:49.041Z</time></trkpt><trkpt lat="44.82932" lon="9.4008733"><ele>557.0</ele><time>2026-04-11T10:48:50.034Z</time></trkpt><trkpt lat="44.829325" lon="9.4006933"><ele>558.75</ele><time>2026-04-11T10:48:51.036Z</time></trkpt><trkpt lat="44.829315" lon="9.4005083"><ele>560.5</ele><time>2026-04-11T10:48:52.041Z</time></trkpt><trkpt lat="44.8292983" lon="9.40032"><ele>562.25</ele><time>2026-04-11T10:48:53.039Z</time></trkpt><trkpt lat="44.82928" lon="9.40013"><ele>564.0</ele><time>2026-04-11T10:48:54.034Z</time></trkpt><trkpt lat="44.82926" lon="9.39993"><ele>564.0</ele><time>2026-04-11T10:48:55.041Z</time></trkpt><trkpt lat="44.8292383" lon="9.399725"><ele>564.0</ele><time>2026-04-11T10:48:56.039Z</time></trkpt><trkpt lat="44.8292167" lon="9.39952"><ele>564.0</ele><time>2026-04-11T10:48:57.038Z</time></trkpt><trkpt lat="44.8291983" lon="9.3993217"><ele>564.0</ele><time>2026-04-11T10:48:58.036Z</time></trkpt><trkpt lat="44.82919" lon="9.399145"><ele>565.8</ele><time>2026-04-11T10:48:59.039Z</time></trkpt><trkpt lat="44.8292" lon="9.3989967"><ele>567.5999999999999</ele><time>2026-04-11T10:49:00.038Z</time></trkpt><trkpt lat="44.8292367" lon="9.39889"><ele>569.4</ele><time>2026-04-11T10:49:01.035Z</time></trkpt><trkpt lat="44.829295" lon="9.3988233"><ele>571.1999999999999</ele><time>2026-04-11T10:49:02.038Z</time></trkpt><trkpt lat="44.8293733" lon="9.398815"><ele>573.0</ele><time>2026-04-11T10:49:03.043Z</time></trkpt><trkpt lat="44.82947" lon="9.3988783"><ele>577.5</ele><time>2026-04-11T10:49:04.034Z</time></trkpt><trkpt lat="44.8295817" lon="9.3989683"><ele>582.0</ele><time>2026-04-11T10:49:05.038Z</time></trkpt><trkpt lat="44.8296983" lon="9.3990667"><ele>586.5</ele><time>2026-04-11T10:49:06.036Z</time></trkpt><trkpt lat="44.8298117" lon="9.3991717"><ele>591.0</ele><time>2026-04-11T10:49:07.033Z</time></trkpt><trkpt lat="44.8299083" lon="9.3992933"><ele>591.0</ele><time>2026-04-11T10:49:08.032Z</time></trkpt><trkpt lat="44.8299733" lon="9.3994367"><ele>591.0</ele><time>2026-04-11T10:49:09.037Z</time></trkpt><trkpt lat="44.8300133" lon="9.3996067"><ele>591.0</ele><time>2026-04-11T10:49:10.038Z</time></trkpt><trkpt lat="44.8300383" lon="9.399805"><ele>591.0</ele><time>2026-04-11T10:49:11.038Z</time></trkpt><trkpt lat="44.8300717" lon="9.4000133"><ele>588.3333333333334</ele><time>2026-04-11T10:49:12.037Z</time></trkpt><trkpt lat="44.8301117" lon="9.400235"><ele>585.6666666666667</ele><time>2026-04-11T10:49:13.039Z</time></trkpt><trkpt lat="44.8301483" lon="9.400445"><ele>583.0</ele><time>2026-04-11T10:49:14.034Z</time></trkpt><trkpt lat="44.8301817" lon="9.4006367"><ele>589.75</ele><time>2026-04-11T10:49:15.039Z</time></trkpt><trkpt lat="44.8302217" lon="9.4008183"><ele>596.5</ele><time>2026-04-11T10:49:16.039Z</time></trkpt><trkpt lat="44.8302833" lon="9.4009767"><ele>603.25</ele><time>2026-04-11T10:49:17.039Z</time></trkpt><trkpt lat="44.83037" lon="9.4011183"><ele>610.0</ele><time>2026-04-11T10:49:18.04Z</time></trkpt><trkpt lat="44.830475" lon="9.4012583"><ele>606.3333333333334</ele><time>2026-04-11T10:49:19.039Z</time></trkpt><trkpt lat="44.830575" lon="9.4014133"><ele>602.6666666666666</ele><time>2026-04-11T10:49:20.039Z</time></trkpt><trkpt lat="44.83066" lon="9.4015883"><ele>599.0</ele><time>2026-04-11T10:49:21.038Z</time></trkpt><trkpt lat="44.830735" lon="9.4017783"><ele>599.0</ele><time>2026-04-11T10:49:22.037Z</time></trkpt><trkpt lat="44.8307983" lon="9.40198"><ele>599.0</ele><time>2026-04-11T10:49:23.038Z</time></trkpt><trkpt lat="44.8308567" lon="9.4021833"><ele>599.0</ele><time>2026-04-11T10:49:24.041Z</time></trkpt><trkpt lat="44.8309183" lon="9.4023767"><ele>602.5</ele><time>2026-04-11T10:49:25.039Z</time></trkpt><trkpt lat="44.8309817" lon="9.4025633"><ele>606.0</ele><time>2026-04-11T10:49:26.037Z</time></trkpt><trkpt lat="44.8310483" lon="9.4027217"><ele>609.5</ele><time>2026-04-11T10:49:27.033Z</time></trkpt><trkpt lat="44.831115" lon="9.402855"><ele>613.0</ele><time>2026-04-11T10:49:28.039Z</time></trkpt><trkpt lat="44.8311817" lon="9.4029883"><ele>611.0</ele><time>2026-04-11T10:49:29.034Z</time></trkpt><trkpt lat="44.8312433" lon="9.40312"><ele>609.0</ele><time>2026-04-11T10:49:30.042Z</time></trkpt><trkpt lat="44.8312983" lon="9.403245"><ele>607.0</ele><time>2026-04-11T10:49:31.04Z</time></trkpt><trkpt lat="44.8313483" lon="9.4033517"><ele>605.0</ele><time>2026-04-11T10:49:32.038Z</time></trkpt><trkpt lat="44.831385" lon="9.403435"><ele>603.0</ele><time>2026-04-11T10:49:33.039Z</time></trkpt><trkpt lat="44.8314267" lon="9.403515"><ele>601.0</ele><time>2026-04-11T10:49:35.041Z</time></trkpt><trkpt lat="44.8315" lon="9.4035233"><ele>601.0</ele><time>2026-04-11T10:59:05.039Z</time></trkpt><trkpt lat="44.831515" lon="9.4033783"><ele>601.0</ele><time>2026-04-11T10:59:08.033Z</time></trkpt><trkpt lat="44.83151" lon="9.4032667"><ele>601.0</ele><time>2026-04-11T10:59:10.031Z</time></trkpt><trkpt lat="44.83152" lon="9.40315"><ele>601.0</ele><time>2026-04-11T10:59:12.032Z</time></trkpt><trkpt lat="44.8315083" lon="9.4029533"><ele>601.0</ele><time>2026-04-11T10:59:15.034Z</time></trkpt><trkpt lat="44.831495" lon="9.402865"><ele>603.4</ele><time>2026-04-11T10:59:16.031Z</time></trkpt><trkpt lat="44.83148" lon="9.4027217"><ele>605.8</ele><time>2026-04-11T10:59:18.031Z</time></trkpt><trkpt lat="44.831505" lon="9.402595"><ele>608.1999999999999</ele><time>2026-04-11T10:59:20.033Z</time></trkpt><trkpt lat="44.831545" lon="9.4024383"><ele>610.6</ele><time>2026-04-11T10:59:22.032Z</time></trkpt><trkpt lat="44.8315767" lon="9.4022967"><ele>613.0</ele><time>2026-04-11T10:59:24.038Z</time></trkpt><trkpt lat="44.8315917" lon="9.4021367"><ele>614.8333333333334</ele><time>2026-04-11T10:59:26.033Z</time></trkpt><trkpt lat="44.8315983" lon="9.4020417"><ele>616.6666666666667</ele><time>2026-04-11T10:59:27.039Z</time></trkpt><trkpt lat="44.8315783" lon="9.4018883"><ele>618.5</ele><time>2026-04-11T10:59:29.041Z</time></trkpt><trkpt lat="44.831545" lon="9.4017583"><ele>620.3333333333334</ele><time>2026-04-11T10:59:31.033Z</time></trkpt><trkpt lat="44.8315433" lon="9.4016383"><ele>622.1666666666666</ele><time>2026-04-11T10:59:33.033Z</time></trkpt><trkpt lat="44.8315433" lon="9.4015233"><ele>624.0</ele><time>2026-04-11T10:59:35.032Z</time></trkpt><trkpt lat="44.8315233" lon="9.40133"><ele>624.8333333333334</ele><time>2026-04-11T10:59:37.036Z</time></trkpt><trkpt lat="44.8315367" lon="9.40121"><ele>625.6666666666666</ele><time>2026-04-11T10:59:38.038Z</time></trkpt><trkpt lat="44.8315683" lon="9.4010983"><ele>626.5</ele><time>2026-04-11T10:59:39.035Z</time></trkpt><trkpt lat="44.8316183" lon="9.40099"><ele>627.3333333333333</ele><time>2026-04-11T10:59:40.034Z</time></trkpt><trkpt lat="44.83167" lon="9.4008883"><ele>628.1666666666666</ele><time>2026-04-11T10:59:41.034Z</time></trkpt><trkpt lat="44.8317167" lon="9.4008"><ele>629.0</ele><time>2026-04-11T10:59:42.032Z</time></trkpt><trkpt lat="44.8318383" lon="9.4008267"><ele>629.0</ele><time>2026-04-11T10:59:44.034Z</time></trkpt><trkpt lat="44.8319133" lon="9.4008633"><ele>629.0</ele><time>2026-04-11T10:59:45.033Z</time></trkpt><trkpt lat="44.8319967" lon="9.40084"><ele>629.0</ele><time>2026-04-11T10:59:47.036Z</time></trkpt><trkpt lat="44.8320283" lon="9.4007117"><ele>629.0</ele><time>2026-04-11T10:59:49.032Z</time></trkpt><trkpt lat="44.8320567" lon="9.400585"><ele>629.0</ele><time>2026-04-11T10:59:51.031Z</time></trkpt><trkpt lat="44.83209" lon="9.4004633"><ele>629.0</ele><time>2026-04-11T10:59:53.031Z</time></trkpt><trkpt lat="44.83217" lon="9.400375"><ele>633.6</ele><time>2026-04-11T10:59:55.035Z</time></trkpt><trkpt lat="44.8322417" lon="9.400205"><ele>638.2</ele><time>2026-04-11T10:59:57.03Z</time></trkpt><trkpt lat="44.8322833" lon="9.4000917"><ele>642.8000000000001</ele><time>2026-04-11T10:59:58.033Z</time></trkpt><trkpt lat="44.8323317" lon="9.3999783"><ele>647.4</ele><time>2026-04-11T10:59:59.031Z</time></trkpt><trkpt lat="44.8323783" lon="9.39988"><ele>652.0</ele><time>2026-04-11T11:00:00.032Z</time></trkpt><trkpt lat="44.83243" lon="9.3997683"><ele>652.6666666666667</ele><time>2026-04-11T11:00:01.043Z</time></trkpt><trkpt lat="44.8324717" lon="9.3996617"><ele>653.3333333333334</ele><time>2026-04-11T11:00:02.032Z</time></trkpt><trkpt lat="44.8325067" lon="9.3995433"><ele>654.0</ele><time>2026-04-11T11:00:03.035Z</time></trkpt><trkpt lat="44.8325367" lon="9.399435"><ele>654.6666666666666</ele><time>2026-04-11T11:00:04.031Z</time></trkpt><trkpt lat="44.8325667" lon="9.3993533"><ele>655.3333333333333</ele><time>2026-04-11T11:00:05.031Z</time></trkpt><trkpt lat="44.83261" lon="9.3992283"><ele>656.0</ele><time>2026-04-11T11:00:06.038Z</time></trkpt><trkpt lat="44.832645" lon="9.3990983"><ele>656.0</ele><time>2026-04-11T11:00:07.035Z</time></trkpt><trkpt lat="44.8326917" lon="9.398975"><ele>656.0</ele><time>2026-04-11T11:00:08.03Z</time></trkpt><trkpt lat="44.83275" lon="9.3988517"><ele>656.0</ele><time>2026-04-11T11:00:09.038Z</time></trkpt><trkpt lat="44.8328133" lon="9.3987167"><ele>656.0</ele><time>2026-04-11T11:00:10.03Z</time></trkpt><trkpt lat="44.832885" lon="9.3985883"><ele>656.0</ele><time>2026-04-11T11:00:11.034Z</time></trkpt><trkpt lat="44.8329633" lon="9.398465"><ele>662.0</ele><time>2026-04-11T11:00:12.031Z</time></trkpt><trkpt lat="44.8330433" lon="9.398355"><ele>668.0</ele><time>2026-04-11T11:00:13.03Z</time></trkpt><trkpt lat="44.833165" lon="9.3982833"><ele>674.0</ele><time>2026-04-11T11:00:14.031Z</time></trkpt><trkpt lat="44.83326" lon="9.3982283"><ele>680.0</ele><time>2026-04-11T11:00:15.03Z</time></trkpt><trkpt lat="44.8333517" lon="9.39816"><ele>681.0</ele><time>2026-04-11T11:00:16.031Z</time></trkpt><trkpt lat="44.83348" lon="9.3980683"><ele>682.0</ele><time>2026-04-11T11:00:17.03Z</time></trkpt><trkpt lat="44.8336083" lon="9.3979867"><ele>683.0</ele><time>2026-04-11T11:00:18.037Z</time></trkpt><trkpt lat="44.8337317" lon="9.3979267"><ele>684.0</ele><time>2026-04-11T11:00:19.038Z</time></trkpt><trkpt lat="44.8338367" lon="9.3978883"><ele>687.1666666666666</ele><time>2026-04-11T11:00:20.034Z</time></trkpt><trkpt lat="44.8339433" lon="9.3978883"><ele>690.3333333333334</ele><time>2026-04-11T11:00:21.03Z</time></trkpt><trkpt lat="44.8340417" lon="9.3979217"><ele>693.5</ele><time>2026-04-11T11:00:22.035Z</time></trkpt><trkpt lat="44.8341267" lon="9.397945"><ele>696.6666666666667</ele><time>2026-04-11T11:00:23.029Z</time></trkpt><trkpt lat="44.83419" lon="9.3979333"><ele>699.8333333333334</ele><time>2026-04-11T11:00:24.034Z</time></trkpt><trkpt lat="44.834245" lon="9.3978367"><ele>703.0</ele><time>2026-04-11T11:00:26.035Z</time></trkpt><trkpt lat="44.8343567" lon="9.3978433"><ele>705.4</ele><time>2026-04-11T11:00:28.031Z</time></trkpt><trkpt lat="44.8344033" lon="9.39791"><ele>707.8</ele><time>2026-04-11T11:00:29.03Z</time></trkpt><trkpt lat="44.8344483" lon="9.3979933"><ele>710.2</ele><time>2026-04-11T11:00:30.031Z</time></trkpt><trkpt lat="44.8344917" lon="9.39807"><ele>712.6</ele><time>2026-04-11T11:00:31.03Z</time></trkpt><trkpt lat="44.834505" lon="9.39823"><ele>715.0</ele><time>2026-04-11T11:00:33.031Z</time></trkpt><trkpt lat="44.8344867" lon="9.3984217"><ele>715.0</ele><time>2026-04-11T11:00:35.031Z</time></trkpt><trkpt lat="44.83447" lon="9.3985333"><ele>715.0</ele><time>2026-04-11T11:00:36.031Z</time></trkpt><trkpt lat="44.8344467" lon="9.3986583"><ele>715.0</ele><time>2026-04-11T11:00:37.029Z</time></trkpt><trkpt lat="44.834425" lon="9.3987683"><ele>715.0</ele><time>2026-04-11T11:00:38.031Z</time></trkpt><trkpt lat="44.8344233" lon="9.3988683"><ele>715.0</ele><time>2026-04-11T11:00:39.03Z</time></trkpt><trkpt lat="44.8344217" lon="9.3989633"><ele>715.0</ele><time>2026-04-11T11:00:40.028Z</time></trkpt><trkpt lat="44.8344317" lon="9.3991117"><ele>713.8333333333334</ele><time>2026-04-11T11:00:42.029Z</time></trkpt><trkpt lat="44.834435" lon="9.3992467"><ele>712.6666666666667</ele><time>2026-04-11T11:00:44.029Z</time></trkpt><trkpt lat="44.8344533" lon="9.399355"><ele>711.5</ele><time>2026-04-11T11:00:46.03Z</time></trkpt><trkpt lat="44.834525" lon="9.3994433"><ele>710.3333333333334</ele><time>2026-04-11T11:00:49.03Z</time></trkpt><trkpt lat="44.8345867" lon="9.3994933"><ele>709.1666666666666</ele><time>2026-04-11T11:00:51.034Z</time></trkpt><trkpt lat="44.8346517" lon="9.3994983"><ele>708.0</ele><time>2026-04-11T11:00:53.029Z</time></trkpt><trkpt lat="44.834695" lon="9.3993917"><ele>708.0</ele><time>2026-04-11T11:00:55.03Z</time></trkpt><trkpt lat="44.8347317" lon="9.399315"><ele>708.0</ele><time>2026-04-11T11:00:57.032Z</time></trkpt><trkpt lat="44.834785" lon="9.3992467"><ele>708.0</ele><time>2026-04-11T11:00:59.034Z</time></trkpt><trkpt lat="44.8348533" lon="9.399185"><ele>708.0</ele><time>2026-04-11T11:01:01.032Z</time></trkpt><trkpt lat="44.8348733" lon="9.399055"><ele>708.0</ele><time>2026-04-11T11:01:03.039Z</time></trkpt><trkpt lat="44.8348667" lon="9.3989633"><ele>708.0</ele><time>2026-04-11T11:01:04.03Z</time></trkpt><trkpt lat="44.8349133" lon="9.3988333"><ele>709.4</ele><time>2026-04-11T11:01:06.033Z</time></trkpt><trkpt lat="44.8350067" lon="9.3988133"><ele>710.8</ele><time>2026-04-11T11:01:08.035Z</time></trkpt><trkpt lat="44.8350967" lon="9.398775"><ele>712.2</ele><time>2026-04-11T11:01:10.031Z</time></trkpt><trkpt lat="44.8351667" lon="9.39871"><ele>713.6</ele><time>2026-04-11T11:01:12.03Z</time></trkpt><trkpt lat="44.835255" lon="9.3986833"><ele>715.0</ele><time>2026-04-11T11:01:14.032Z</time></trkpt><trkpt lat="44.8353183" lon="9.3985933"><ele>718.4</ele><time>2026-04-11T11:01:16.029Z</time></trkpt><trkpt lat="44.835345" lon="9.398455"><ele>721.8</ele><time>2026-04-11T11:01:18.032Z</time></trkpt><trkpt lat="44.83537" lon="9.398305"><ele>725.2</ele><time>2026-04-11T11:01:20.03Z</time></trkpt><trkpt lat="44.8354333" lon="9.3981567"><ele>728.6</ele><time>2026-04-11T11:01:22.031Z</time></trkpt><trkpt lat="44.8354817" lon="9.3980433"><ele>732.0</ele><time>2026-04-11T11:01:24.04Z</time></trkpt><trkpt lat="44.835565" lon="9.3980483"><ele>732.0</ele><time>2026-04-11T11:01:56.038Z</time></trkpt><trkpt lat="44.8356283" lon="9.3980683"><ele>732.0</ele><time>2026-04-11T11:01:58.035Z</time></trkpt><trkpt lat="44.8357167" lon="9.3980933"><ele>732.0</ele><time>2026-04-11T11:02:00.033Z</time></trkpt><trkpt lat="44.835795" lon="9.398095"><ele>732.0</ele><time>2026-04-11T11:02:02.03Z</time></trkpt><trkpt lat="44.835885" lon="9.3980767"><ele>732.0</ele><time>2026-04-11T11:02:04.029Z</time></trkpt><trkpt lat="44.8359467" lon="9.3979667"><ele>732.0</ele><time>2026-04-11T11:02:06.031Z</time></trkpt><trkpt lat="44.8359817" lon="9.3978817"><ele>732.8</ele><time>2026-04-11T11:02:07.033Z</time></trkpt><trkpt lat="44.83603" lon="9.3978067"><ele>733.6</ele><time>2026-04-11T11:02:08.033Z</time></trkpt><trkpt lat="44.83607" lon="9.3977333"><ele>734.4</ele><time>2026-04-11T11:02:09.03Z</time></trkpt><trkpt lat="44.8361333" lon="9.3975883"><ele>735.1999999999999</ele><time>2026-04-11T11:02:11.031Z</time></trkpt><trkpt lat="44.8362283" lon="9.397445"><ele>736.0</ele><time>2026-04-11T11:02:13.029Z</time></trkpt><trkpt lat="44.8363" lon="9.3973667"><ele>736.0</ele><time>2026-04-11T11:02:14.032Z</time></trkpt><trkpt lat="44.836355" lon="9.3972967"><ele>736.0</ele><time>2026-04-11T11:02:15.033Z</time></trkpt><trkpt lat="44.836415" lon="9.397215"><ele>736.0</ele><time>2026-04-11T11:02:16.031Z</time></trkpt><trkpt lat="44.8364867" lon="9.3971117"><ele>736.0</ele><time>2026-04-11T11:02:17.031Z</time></trkpt><trkpt lat="44.8365517" lon="9.397"><ele>736.0</ele><time>2026-04-11T11:02:18.028Z</time></trkpt><trkpt lat="44.8366267" lon="9.3969067"><ele>733.8333333333334</ele><time>2026-04-11T11:02:19.032Z</time></trkpt><trkpt lat="44.8366817" lon="9.39682"><ele>731.6666666666667</ele><time>2026-04-11T11:02:20.031Z</time></trkpt><trkpt lat="44.8367367" lon="9.396735"><ele>729.5</ele><time>2026-04-11T11:02:21.029Z</time></trkpt><trkpt lat="44.8367883" lon="9.39665"><ele>727.3333333333334</ele><time>2026-04-11T11:02:22.032Z</time></trkpt><trkpt lat="44.8368517" lon="9.3965533"><ele>725.1666666666666</ele><time>2026-04-11T11:02:23.03Z</time></trkpt><trkpt lat="44.8369222" lon="9.3964578"><ele>723.0</ele><time>2026-04-11T11:02:24.034Z</time></trkpt><trkpt lat="44.83698" lon="9.3963578"><ele>730.2</ele><time>2026-04-11T11:02:25.03Z</time></trkpt><trkpt lat="44.837031" lon="9.3962423"><ele>737.4</ele><time>2026-04-11T11:02:26.031Z</time></trkpt><trkpt lat="44.8370874" lon="9.3961071"><ele>744.6</ele><time>2026-04-11T11:02:27.03Z</time></trkpt><trkpt lat="44.8371128" lon="9.3959912"><ele>751.8000000000001</ele><time>2026-04-11T11:02:28.029Z</time></trkpt><trkpt lat="44.8371473" lon="9.3958882"><ele>759.0</ele><time>2026-04-11T11:02:29.029Z</time></trkpt><trkpt lat="44.8371801" lon="9.395792"><ele>759.0</ele><time>2026-04-11T11:02:30.03Z</time></trkpt><trkpt lat="44.8372258" lon="9.3956888"><ele>759.0</ele><time>2026-04-11T11:02:31.03Z</time></trkpt><trkpt lat="44.8372855" lon="9.3955856"><ele>759.0</ele><time>2026-04-11T11:02:32.03Z</time></trkpt><trkpt lat="44.8373497" lon="9.3954712"><ele>759.0</ele><time>2026-04-11T11:02:33.033Z</time></trkpt><trkpt lat="44.837402" lon="9.3953673"><ele>759.0</ele><time>2026-04-11T11:02:34.036Z</time></trkpt><trkpt lat="44.8374384" lon="9.3952576"><ele>765.2</ele><time>2026-04-11T11:02:35.032Z</time></trkpt><trkpt lat="44.8374661" lon="9.3951434"><ele>771.4000000000001</ele><time>2026-04-11T11:02:36.03Z</time></trkpt><trkpt lat="44.8374919" lon="9.395009"><ele>777.6</ele><time>2026-04-11T11:02:37.033Z</time></trkpt><trkpt lat="44.837519" lon="9.3948804"><ele>783.8</ele><time>2026-04-11T11:02:38.03Z</time></trkpt><trkpt lat="44.8375531" lon="9.3947576"><ele>790.0</ele><time>2026-04-11T11:02:39.03Z</time></trkpt><trkpt lat="44.837577" lon="9.3946383"><ele>785.0</ele><time>2026-04-11T11:02:40.035Z</time></trkpt><trkpt lat="44.8376007" lon="9.3945185"><ele>780.0</ele><time>2026-04-11T11:02:41.031Z</time></trkpt><trkpt lat="44.8376278" lon="9.3944128"><ele>775.0</ele><time>2026-04-11T11:02:42.035Z</time></trkpt><trkpt lat="44.8376956" lon="9.3943306"><ele>770.0</ele><time>2026-04-11T11:02:43.036Z</time></trkpt><trkpt lat="44.8377737" lon="9.3942467"><ele>765.0</ele><time>2026-04-11T11:02:44.038Z</time></trkpt><trkpt lat="44.8378518" lon="9.3941536"><ele>765.0</ele><time>2026-04-11T11:02:45.037Z</time></trkpt><trkpt lat="44.837914" lon="9.3940579"><ele>765.0</ele><time>2026-04-11T11:02:46.037Z</time></trkpt><trkpt lat="44.8379674" lon="9.3939555"><ele>765.0</ele><time>2026-04-11T11:02:47.042Z</time></trkpt><trkpt lat="44.8380149" lon="9.3938632"><ele>765.0</ele><time>2026-04-11T11:02:48.038Z</time></trkpt><trkpt lat="44.8380671" lon="9.393781"><ele>765.0</ele><time>2026-04-11T11:02:49.039Z</time></trkpt><trkpt lat="44.8381213" lon="9.393699"><ele>765.0</ele><time>2026-04-11T11:02:50.035Z</time></trkpt><trkpt lat="44.8381682" lon="9.3936152"><ele>771.6</ele><time>2026-04-11T11:02:51.042Z</time></trkpt><trkpt lat="44.8382117" lon="9.3935107"><ele>778.2</ele><time>2026-04-11T11:02:52.041Z</time></trkpt><trkpt lat="44.8382621" lon="9.3933962"><ele>784.8</ele><time>2026-04-11T11:02:53.037Z</time></trkpt><trkpt lat="44.838314" lon="9.3932864"><ele>791.4</ele><time>2026-04-11T11:02:54.038Z</time></trkpt><trkpt lat="44.8383486" lon="9.3931778"><ele>798.0</ele><time>2026-04-11T11:02:55.032Z</time></trkpt><trkpt lat="44.8383913" lon="9.3930631"><ele>796.2</ele><time>2026-04-11T11:02:56.029Z</time></trkpt><trkpt lat="44.8384301" lon="9.3929548"><ele>794.4</ele><time>2026-04-11T11:02:57.037Z</time></trkpt><trkpt lat="44.8384809" lon="9.3928393"><ele>792.6</ele><time>2026-04-11T11:02:58.036Z</time></trkpt><trkpt lat="44.8385367" lon="9.3927267"><ele>790.8000000000001</ele><time>2026-04-11T11:02:59.038Z</time></trkpt><trkpt lat="44.8385867" lon="9.39261"><ele>789.0</ele><time>2026-04-11T11:03:00.033Z</time></trkpt><trkpt lat="44.8386417" lon="9.3924783"><ele>789.0</ele><time>2026-04-11T11:03:01.04Z</time></trkpt><trkpt lat="44.83868" lon="9.3923583"><ele>789.0</ele><time>2026-04-11T11:03:02.04Z</time></trkpt><trkpt lat="44.838725" lon="9.3922517"><ele>789.0</ele><time>2026-04-11T11:03:03.042Z</time></trkpt><trkpt lat="44.838775" lon="9.3921583"><ele>789.0</ele><time>2026-04-11T11:03:04.039Z</time></trkpt><trkpt lat="44.8388233" lon="9.39206"><ele>789.0</ele><time>2026-04-11T11:03:05.033Z</time></trkpt><trkpt lat="44.838885" lon="9.3919683"><ele>789.0</ele><time>2026-04-11T11:03:06.031Z</time></trkpt><trkpt lat="44.8389433" lon="9.3918883"><ele>794.5</ele><time>2026-04-11T11:03:07.033Z</time></trkpt><trkpt lat="44.8390117" lon="9.3918283"><ele>800.0</ele><time>2026-04-11T11:03:08.042Z</time></trkpt><trkpt lat="44.8390817" lon="9.3917917"><ele>805.5</ele><time>2026-04-11T11:03:09.033Z</time></trkpt><trkpt lat="44.839155" lon="9.3917717"><ele>811.0</ele><time>2026-04-11T11:03:10.034Z</time></trkpt><trkpt lat="44.8392333" lon="9.3917667"><ele>816.5</ele><time>2026-04-11T11:03:11.031Z</time></trkpt><trkpt lat="44.839295" lon="9.3917967"><ele>822.0</ele><time>2026-04-11T11:03:12.03Z</time></trkpt><trkpt lat="44.8394033" lon="9.3918683"><ele>823.6666666666666</ele><time>2026-04-11T11:03:14.034Z</time></trkpt><trkpt lat="44.8395083" lon="9.391935"><ele>825.3333333333333</ele><time>2026-04-11T11:03:16.032Z</time></trkpt><trkpt lat="44.8395717" lon="9.3919567"><ele>827.0</ele><time>2026-04-11T11:03:17.038Z</time></trkpt><trkpt lat="44.8396317" lon="9.3919917"><ele>828.6666666666666</ele><time>2026-04-11T11:03:18.034Z</time></trkpt><trkpt lat="44.8397117" lon="9.39203"><ele>830.3333333333333</ele><time>2026-04-11T11:03:19.039Z</time></trkpt><trkpt lat="44.839785" lon="9.3920717"><ele>832.0</ele><time>2026-04-11T11:03:20.042Z</time></trkpt><trkpt lat="44.839865" lon="9.39213"><ele>834.0</ele><time>2026-04-11T11:03:21.034Z</time></trkpt><trkpt lat="44.8399383" lon="9.3921817"><ele>836.0</ele><time>2026-04-11T11:03:22.034Z</time></trkpt><trkpt lat="44.84001" lon="9.392235"><ele>838.0</ele><time>2026-04-11T11:03:23.03Z</time></trkpt><trkpt lat="44.8400733" lon="9.3922933"><ele>840.0</ele><time>2026-04-11T11:03:24.03Z</time></trkpt><trkpt lat="44.8401817" lon="9.3923783"><ele>842.0</ele><time>2026-04-11T11:03:26.033Z</time></trkpt><trkpt lat="44.840265" lon="9.3924333"><ele>789.0</ele><time>2026-04-11T11:03:28.031Z</time></trkpt><trkpt lat="44.8385367" lon="9.3927267"><ele>789.0</ele><time>2026-04-11T11:02:59.038Z</time></trkpt><trkpt lat="44.8385867" lon="9.39261"><ele>789.0</ele><time>2026-04-11T11:03:00.033Z</time></trkpt><trkpt lat="44.8386417" lon="9.3924783"><ele>789.0</ele><time>2026-04-11T11:03:01.04Z</time></trkpt><trkpt lat="44.83868" lon="9.3923583"><ele>789.0</ele><time>2026-04-11T11:03:02.04Z</time></trkpt><trkpt lat="44.838725" lon="9.3922517"><ele>789.0</ele><time>2026-04-11T11:03:03.042Z</time></trkpt><trkpt lat="44.838775" lon="9.3921583"><ele>794.5</ele><time>2026-04-11T11:03:04.039Z</time></trkpt><trkpt lat="44.8388233" lon="9.39206"><ele>800.0</ele><time>2026-04-11T11:03:05.033Z</time></trkpt><trkpt lat="44.838885" lon="9.3919683"><ele>805.5</ele><time>2026-04-11T11:03:06.031Z</time></trkpt><trkpt lat="44.8389433" lon="9.3918883"><ele>811.0</ele><time>2026-04-11T11:03:07.033Z</time></trkpt><trkpt lat="44.8390117" lon="9.3918283"><ele>816.5</ele><time>2026-04-11T11:03:08.042Z</time></trkpt><trkpt lat="44.8390817" lon="9.3917917"><ele>822.0</ele><time>2026-04-11T11:03:09.033Z</time></trkpt><trkpt lat="44.839155" lon="9.3917717"><ele>822.0</ele><time>2026-04-11T11:03:10.034Z</time></trkpt><trkpt lat="44.8392333" lon="9.3917667"><ele>822.0</ele><time>2026-04-11T11:03:11.031Z</time></trkpt><trkpt lat="44.839295" lon="9.3917967"><ele>822.0</ele><time>2026-04-11T11:03:12.03Z</time></trkpt><trkpt lat="44.8394033" lon="9.3918683"><ele>822.0</ele><time>2026-04-11T11:03:14.034Z</time></trkpt><trkpt lat="44.8395083" lon="9.391935"><ele>822.0</ele><time>2026-04-11T11:03:16.032Z</time></trkpt><trkpt lat="44.8395717" lon="9.3919567"><ele>822.0</ele><time>2026-04-11T11:03:17.038Z</time></trkpt><trkpt lat="44.8396317" lon="9.3919917"><ele>823.6666666666666</ele><time>2026-04-11T11:03:18.034Z</time></trkpt><trkpt lat="44.8397117" lon="9.39203"><ele>825.3333333333333</ele><time>2026-04-11T11:03:19.039Z</time></trkpt><trkpt lat="44.839785" lon="9.3920717"><ele>827.0</ele><time>2026-04-11T11:03:20.042Z</time></trkpt><trkpt lat="44.839865" lon="9.39213"><ele>828.6666666666666</ele><time>2026-04-11T11:03:21.034Z</time></trkpt><trkpt lat="44.8399383" lon="9.3921817"><ele>830.3333333333333</ele><time>2026-04-11T11:03:22.034Z</time></trkpt><trkpt lat="44.84001" lon="9.392235"><ele>832.0</ele><time>2026-04-11T11:03:23.03Z</time></trkpt><trkpt lat="44.8400733" lon="9.3922933"><ele>834.0</ele><time>2026-04-11T11:03:24.03Z</time></trkpt><trkpt lat="44.8401817" lon="9.3923783"><ele>836.0</ele><time>2026-04-11T11:03:26.033Z</time></trkpt><trkpt lat="44.840265" lon="9.3924333"><ele>838.0</ele><time>2026-04-11T11:03:28.031Z</time></trkpt><trkpt lat="44.840335" lon="9.3925083"><ele>840.0</ele><time>2026-04-11T11:03:30.034Z</time></trkpt><trkpt lat="44.8404283" lon="9.39256"><ele>842.0</ele><time>2026-04-11T11:03:32.03Z</time></trkpt><trkpt lat="44.8405083" lon="9.3926533"><ele>842.0</ele><time>2026-04-11T11:03:34.037Z</time></trkpt><trkpt lat="44.8405867" lon="9.392765"><ele>842.0</ele><time>2026-04-11T11:03:36.033Z</time></trkpt><trkpt lat="44.84068" lon="9.39285"><ele>842.0</ele><time>2026-04-11T11:03:38.03Z</time></trkpt><trkpt lat="44.84077" lon="9.3929233"><ele>842.0</ele><time>2026-04-11T11:03:40.031Z</time></trkpt><trkpt lat="44.8408483" lon="9.3929983"><ele>842.0</ele><time>2026-04-11T11:03:42.038Z</time></trkpt><trkpt lat="44.84094" lon="9.3930833"><ele>841.0</ele><time>2026-04-11T11:03:44.037Z</time></trkpt><trkpt lat="44.84104" lon="9.3931667"><ele>840.0</ele><time>2026-04-11T11:03:46.039Z</time></trkpt><trkpt lat="44.8411617" lon="9.3932417"><ele>839.0</ele><time>2026-04-11T11:03:48.031Z</time></trkpt><trkpt lat="44.8412333" lon="9.3932883"><ele>838.0</ele><time>2026-04-11T11:03:49.034Z</time></trkpt><trkpt lat="44.841315" lon="9.3933283"><ele>837.0</ele><time>2026-04-11T11:03:50.034Z</time></trkpt><trkpt lat="44.8413983" lon="9.3933583"><ele>837.0</ele><time>2026-04-11T11:03:51.041Z</time></trkpt><trkpt lat="44.8414833" lon="9.3933817"><ele>837.0</ele><time>2026-04-11T11:03:52.033Z</time></trkpt><trkpt lat="44.84157" lon="9.3934083"><ele>837.0</ele><time>2026-04-11T11:03:53.032Z</time></trkpt><trkpt lat="44.8416367" lon="9.3934567"><ele>837.0</ele><time>2026-04-11T11:03:54.035Z</time></trkpt><trkpt lat="44.8417017" lon="9.3934933"><ele>837.0</ele><time>2026-04-11T11:03:55.033Z</time></trkpt><trkpt lat="44.8418033" lon="9.393565"><ele>837.0</ele><time>2026-04-11T11:03:57.045Z</time></trkpt><trkpt lat="44.8419017" lon="9.3936083"><ele>838.0</ele><time>2026-04-11T11:03:59.033Z</time></trkpt><trkpt lat="44.84198" lon="9.3936383"><ele>839.0</ele><time>2026-04-11T11:04:01.034Z</time></trkpt><trkpt lat="44.8420617" lon="9.3936717"><ele>840.0</ele><time>2026-04-11T11:04:03.038Z</time></trkpt><trkpt lat="44.8421483" lon="9.3937333"><ele>841.0</ele><time>2026-04-11T11:04:05.038Z</time></trkpt><trkpt lat="44.84222" lon="9.39384"><ele>842.0</ele><time>2026-04-11T11:04:07.034Z</time></trkpt><trkpt lat="44.8422933" lon="9.3939617"><ele>842.0</ele><time>2026-04-11T11:04:09.034Z</time></trkpt><trkpt lat="44.84237" lon="9.3940567"><ele>842.0</ele><time>2026-04-11T11:04:11.033Z</time></trkpt><trkpt lat="44.8424417" lon="9.39412"><ele>842.0</ele><time>2026-04-11T11:04:13.03Z</time></trkpt><trkpt lat="44.8425007" lon="9.3941598"><ele>842.0</ele><time>2026-04-11T11:04:15.032Z</time></trkpt><trkpt lat="44.8425717" lon="9.3942758"><ele>842.0</ele><time>2026-04-11T11:04:17.031Z</time></trkpt><trkpt lat="44.8426257" lon="9.394391"><ele>843.8</ele><time>2026-04-11T11:04:19.034Z</time></trkpt><trkpt lat="44.8426801" lon="9.3944932"><ele>845.6</ele><time>2026-04-11T11:04:21.031Z</time></trkpt><trkpt lat="44.8427586" lon="9.3946193"><ele>847.4</ele><time>2026-04-11T11:04:23.034Z</time></trkpt><trkpt lat="44.8428417" lon="9.3946933"><ele>849.1999999999999</ele><time>2026-04-11T11:04:25.031Z</time></trkpt><trkpt lat="44.8429517" lon="9.3947683"><ele>851.0</ele><time>2026-04-11T11:04:27.042Z</time></trkpt><trkpt lat="44.843025" lon="9.39481"><ele>851.0</ele><time>2026-04-11T11:04:28.033Z</time></trkpt><trkpt lat="44.8430983" lon="9.3948433"><ele>851.0</ele><time>2026-04-11T11:04:29.029Z</time></trkpt><trkpt lat="44.84316" lon="9.394865"><ele>851.0</ele><time>2026-04-11T11:04:30.031Z</time></trkpt><trkpt lat="44.843265" lon="9.3949033"><ele>851.0</ele><time>2026-04-11T11:04:32.041Z</time></trkpt><trkpt lat="44.8433617" lon="9.3949567"><ele>851.0</ele><time>2026-04-11T11:04:34.032Z</time></trkpt><trkpt lat="44.843455" lon="9.3950183"><ele>853.3333333333334</ele><time>2026-04-11T11:04:36.03Z</time></trkpt><trkpt lat="44.84353" lon="9.3950617"><ele>855.6666666666667</ele><time>2026-04-11T11:04:38.034Z</time></trkpt><trkpt lat="44.84359" lon="9.3951117"><ele>858.0</ele><time>2026-04-11T11:04:40.03Z</time></trkpt><trkpt lat="44.8436533" lon="9.3951867"><ele>860.3333333333333</ele><time>2026-04-11T11:04:42.03Z</time></trkpt><trkpt lat="44.8437333" lon="9.395265"><ele>862.6666666666666</ele><time>2026-04-11T11:04:44.03Z</time></trkpt><trkpt lat="44.843805" lon="9.3953333"><ele>865.0</ele><time>2026-04-11T11:04:46.038Z</time></trkpt><trkpt lat="44.843915" lon="9.39545"><ele>864.9999999999999</ele><time>2026-04-11T11:04:48.039Z</time></trkpt><trkpt lat="44.8439967" lon="9.39552"><ele>865.0</ele><time>2026-04-11T11:04:49.042Z</time></trkpt><trkpt lat="44.84407" lon="9.39558"><ele>865.0</ele><time>2026-04-11T11:04:50.037Z</time></trkpt><trkpt lat="44.844135" lon="9.3956183"><ele>865.0</ele><time>2026-04-11T11:04:51.034Z</time></trkpt><trkpt lat="44.8441433" lon="9.3955267"><ele>864.9999999999999</ele><time>2026-04-11T11:04:59.031Z</time></trkpt><trkpt lat="44.8440817" lon="9.3954033"><ele>865.0</ele><time>2026-04-11T11:05:01.033Z</time></trkpt><trkpt lat="44.844035" lon="9.395325"><ele>864.9999999999999</ele><time>2026-04-11T11:05:02.039Z</time></trkpt><trkpt lat="44.8439917" lon="9.3952367"><ele>865.0</ele><time>2026-04-11T11:05:03.033Z</time></trkpt><trkpt lat="44.843965" lon="9.3951383"><ele>865.0</ele><time>2026-04-11T11:05:04.04Z</time></trkpt><trkpt lat="44.8439317" lon="9.39505"><ele>865.0</ele><time>2026-04-11T11:05:05.031Z</time></trkpt><trkpt lat="44.8438867" lon="9.3949717"><ele>864.9999999999999</ele><time>2026-04-11T11:05:06.032Z</time></trkpt><trkpt lat="44.84382" lon="9.39489"><ele>865.0</ele><time>2026-04-11T11:05:07.031Z</time></trkpt><trkpt lat="44.84373" lon="9.3948083"><ele>865.0</ele><time>2026-04-11T11:05:08.037Z</time></trkpt><trkpt lat="44.8436467" lon="9.3947167"><ele>865.0</ele><time>2026-04-11T11:05:09.042Z</time></trkpt><trkpt lat="44.843585" lon="9.3946067"><ele>865.0</ele><time>2026-04-11T11:05:10.04Z</time></trkpt><trkpt lat="44.84354" lon="9.39449"><ele>865.0</ele><time>2026-04-11T11:05:11.03Z</time></trkpt><trkpt lat="44.84349" lon="9.3943883"><ele>865.0</ele><time>2026-04-11T11:05:12.036Z</time></trkpt><trkpt lat="44.8434367" lon="9.3942967"><ele>866.0</ele><time>2026-04-11T11:05:13.03Z</time></trkpt><trkpt lat="44.8433983" lon="9.3941967"><ele>867.0</ele><time>2026-04-11T11:05:14.03Z</time></trkpt><trkpt lat="44.84336" lon="9.3940683"><ele>868.0</ele><time>2026-04-11T11:05:15.043Z</time></trkpt><trkpt lat="44.8433083" lon="9.3939417"><ele>869.0</ele><time>2026-04-11T11:05:16.033Z</time></trkpt><trkpt lat="44.8432617" lon="9.3938283"><ele>870.0</ele><time>2026-04-11T11:05:17.032Z</time></trkpt><trkpt lat="44.8432333" lon="9.3937183"><ele>871.2</ele><time>2026-04-11T11:05:18.036Z</time></trkpt><trkpt lat="44.8432183" lon="9.3935917"><ele>872.4</ele><time>2026-04-11T11:05:19.03Z</time></trkpt><trkpt lat="44.84319" lon="9.3934417"><ele>873.5999999999999</ele><time>2026-04-11T11:05:20.029Z</time></trkpt><trkpt lat="44.8431533" lon="9.39329"><ele>874.8</ele><time>2026-04-11T11:05:21.039Z</time></trkpt><trkpt lat="44.843095" lon="9.3931433"><ele>876.0</ele><time>2026-04-11T11:05:22.04Z</time></trkpt><trkpt lat="44.8430217" lon="9.3930083"><ele>875.6666666666666</ele><time>2026-04-11T11:05:23.032Z</time></trkpt><trkpt lat="44.8429367" lon="9.3928917"><ele>875.3333333333333</ele><time>2026-04-11T11:05:24.031Z</time></trkpt><trkpt lat="44.8428633" lon="9.392815"><ele>875.0</ele><time>2026-04-11T11:05:25.03Z</time></trkpt><trkpt lat="44.8427983" lon="9.3927567"><ele>874.6666666666666</ele><time>2026-04-11T11:05:26.039Z</time></trkpt><trkpt lat="44.842745" lon="9.392695"><ele>874.3333333333333</ele><time>2026-04-11T11:05:27.033Z</time></trkpt><trkpt lat="44.8426917" lon="9.39261"><ele>874.0</ele><time>2026-04-11T11:05:28.033Z</time></trkpt><trkpt lat="44.8426233" lon="9.3925167"><ele>876.6</ele><time>2026-04-11T11:05:29.035Z</time></trkpt><trkpt lat="44.8425467" lon="9.3924117"><ele>879.2</ele><time>2026-04-11T11:05:30.035Z</time></trkpt><trkpt lat="44.8424817" lon="9.3922983"><ele>881.8000000000001</ele><time>2026-04-11T11:05:31.032Z</time></trkpt><trkpt lat="44.8424383" lon="9.3921717"><ele>884.4000000000001</ele><time>2026-04-11T11:05:32.03Z</time></trkpt><trkpt lat="44.8424017" lon="9.3920383"><ele>887.0</ele><time>2026-04-11T11:05:33.029Z</time></trkpt><trkpt lat="44.84235" lon="9.3919083"><ele>888.6</ele><time>2026-04-11T11:05:34.03Z</time></trkpt><trkpt lat="44.842285" lon="9.391795"><ele>890.2</ele><time>2026-04-11T11:05:35.033Z</time></trkpt><trkpt lat="44.8422183" lon="9.3917333"><ele>891.8</ele><time>2026-04-11T11:05:36.03Z</time></trkpt><trkpt lat="44.84211" lon="9.39167"><ele>893.4</ele><time>2026-04-11T11:05:38.032Z</time></trkpt><trkpt lat="44.8420433" lon="9.391595"><ele>895.0</ele><time>2026-04-11T11:05:39.033Z</time></trkpt><trkpt lat="44.8419717" lon="9.3914917"><ele>895.0</ele><time>2026-04-11T11:05:40.041Z</time></trkpt><trkpt lat="44.841875" lon="9.3913867"><ele>895.0</ele><time>2026-04-11T11:05:41.034Z</time></trkpt><trkpt lat="44.8417733" lon="9.3912783"><ele>895.0</ele><time>2026-04-11T11:05:42.034Z</time></trkpt><trkpt lat="44.8416817" lon="9.39115"><ele>895.0</ele><time>2026-04-11T11:05:43.03Z</time></trkpt><trkpt lat="44.8415967" lon="9.39101"><ele>897.25</ele><time>2026-04-11T11:05:44.031Z</time></trkpt><trkpt lat="44.84152" lon="9.3908517"><ele>899.5</ele><time>2026-04-11T11:05:45.033Z</time></trkpt><trkpt lat="44.8414383" lon="9.3907117"><ele>901.75</ele><time>2026-04-11T11:05:46.032Z</time></trkpt><trkpt lat="44.8413517" lon="9.39061"><ele>904.0</ele><time>2026-04-11T11:05:47.037Z</time></trkpt><trkpt lat="44.84126" lon="9.3905017"><ele>905.5</ele><time>2026-04-11T11:05:48.034Z</time></trkpt><trkpt lat="44.841175" lon="9.390405"><ele>907.0</ele><time>2026-04-11T11:05:49.042Z</time></trkpt><trkpt lat="44.84109" lon="9.390315"><ele>908.5</ele><time>2026-04-11T11:05:50.033Z</time></trkpt><trkpt lat="44.8409933" lon="9.39024"><ele>910.0</ele><time>2026-04-11T11:05:51.039Z</time></trkpt><trkpt lat="44.84088" lon="9.3901667"><ele>911.75</ele><time>2026-04-11T11:05:52.034Z</time></trkpt><trkpt lat="44.8407583" lon="9.3900833"><ele>913.5</ele><time>2026-04-11T11:05:53.034Z</time></trkpt><trkpt lat="44.8406333" lon="9.39"><ele>915.25</ele><time>2026-04-11T11:05:54.031Z</time></trkpt><trkpt lat="44.8405267" lon="9.3899067"><ele>917.0</ele><time>2026-04-11T11:05:55.034Z</time></trkpt><trkpt lat="44.8404367" lon="9.3897967"><ele>917.0</ele><time>2026-04-11T11:05:56.03Z</time></trkpt><trkpt lat="44.8403533" lon="9.3896933"><ele>917.0</ele><time>2026-04-11T11:05:57.036Z</time></trkpt><trkpt lat="44.8402717" lon="9.3896"><ele>917.0</ele><time>2026-04-11T11:05:58.037Z</time></trkpt><trkpt lat="44.8401933" lon="9.389515"><ele>917.0</ele><time>2026-04-11T11:05:59.033Z</time></trkpt><trkpt lat="44.8401133" lon="9.3894567"><ele>917.0</ele><time>2026-04-11T11:06:00.03Z</time></trkpt><trkpt lat="44.840025" lon="9.3894067"><ele>920.2</ele><time>2026-04-11T11:06:01.033Z</time></trkpt><trkpt lat="44.839925" lon="9.3893667"><ele>923.4000000000001</ele><time>2026-04-11T11:06:02.032Z</time></trkpt><trkpt lat="44.8398217" lon="9.389325"><ele>926.5999999999999</ele><time>2026-04-11T11:06:03.034Z</time></trkpt><trkpt lat="44.83971" lon="9.3893017"><ele>929.8</ele><time>2026-04-11T11:06:04.029Z</time></trkpt><trkpt lat="44.8395883" lon="9.38929"><ele>933.0</ele><time>2026-04-11T11:06:05.037Z</time></trkpt><trkpt lat="44.839465" lon="9.3892867"><ele>933.0</ele><time>2026-04-11T11:06:06.033Z</time></trkpt><trkpt lat="44.8393517" lon="9.3892983"><ele>933.0</ele><time>2026-04-11T11:06:07.034Z</time></trkpt><trkpt lat="44.8392533" lon="9.389335"><ele>933.0</ele><time>2026-04-11T11:06:08.03Z</time></trkpt><trkpt lat="44.8391533" lon="9.3893833"><ele>933.0</ele><time>2026-04-11T11:06:09.033Z</time></trkpt><trkpt lat="44.8390483" lon="9.389425"><ele>933.0</ele><time>2026-04-11T11:06:10.039Z</time></trkpt><trkpt lat="44.838955" lon="9.3894517"><ele>934.2</ele><time>2026-04-11T11:06:11.03Z</time></trkpt><trkpt lat="44.8388683" lon="9.3894617"><ele>935.4</ele><time>2026-04-11T11:06:12.032Z</time></trkpt><trkpt lat="44.8387833" lon="9.3894733"><ele>936.6000000000001</ele><time>2026-04-11T11:06:13.031Z</time></trkpt><trkpt lat="44.8386867" lon="9.3894867"><ele>937.8000000000001</ele><time>2026-04-11T11:06:14.037Z</time></trkpt><trkpt lat="44.8385883" lon="9.3895017"><ele>939.0</ele><time>2026-04-11T11:06:15.033Z</time></trkpt><trkpt lat="44.8384883" lon="9.3895167"><ele>941.1666666666666</ele><time>2026-04-11T11:06:16.031Z</time></trkpt><trkpt lat="44.8384" lon="9.389545"><ele>943.3333333333333</ele><time>2026-04-11T11:06:17.031Z</time></trkpt><trkpt lat="44.8383233" lon="9.3895883"><ele>945.5</ele><time>2026-04-11T11:06:18.03Z</time></trkpt><trkpt lat="44.838245" lon="9.38963"><ele>947.6666666666666</ele><time>2026-04-11T11:06:19.038Z</time></trkpt><trkpt lat="44.8381767" lon="9.3896767"><ele>949.8333333333333</ele><time>2026-04-11T11:06:20.032Z</time></trkpt><trkpt lat="44.8381133" lon="9.389725"><ele>952.0</ele><time>2026-04-11T11:06:21.039Z</time></trkpt><trkpt lat="44.8380417" lon="9.3897767"><ele>947.9999999999999</ele><time>2026-04-11T11:06:22.032Z</time></trkpt><trkpt lat="44.8379733" lon="9.3898367"><ele>944.0</ele><time>2026-04-11T11:06:23.036Z</time></trkpt><trkpt lat="44.837895" lon="9.3898983"><ele>940.0</ele><time>2026-04-11T11:06:24.034Z</time></trkpt><trkpt lat="44.837815" lon="9.3899583"><ele>936.0</ele><time>2026-04-11T11:06:25.029Z</time></trkpt><trkpt lat="44.8377417" lon="9.39"><ele>931.9999999999999</ele><time>2026-04-11T11:06:26.03Z</time></trkpt><trkpt lat="44.837665" lon="9.39005"><ele>928.0</ele><time>2026-04-11T11:06:27.039Z</time></trkpt><trkpt lat="44.8375867" lon="9.3901167"><ele>928.0</ele><time>2026-04-11T11:06:28.034Z</time></trkpt><trkpt lat="44.837525" lon="9.3902117"><ele>928.0</ele><time>2026-04-11T11:06:29.032Z</time></trkpt><trkpt lat="44.83747" lon="9.3903367"><ele>928.0</ele><time>2026-04-11T11:06:30.031Z</time></trkpt><trkpt lat="44.83742" lon="9.3904633"><ele>928.0</ele><time>2026-04-11T11:06:31.032Z</time></trkpt><trkpt lat="44.837375" lon="9.39056"><ele>928.0</ele><time>2026-04-11T11:06:32.031Z</time></trkpt><trkpt lat="44.8373317" lon="9.390645"><ele>928.0</ele><time>2026-04-11T11:06:33.033Z</time></trkpt><trkpt lat="44.837285" lon="9.3907133"><ele>928.0</ele><time>2026-04-11T11:06:34.034Z</time></trkpt><trkpt lat="44.8372" lon="9.3907283"><ele>928.0</ele><time>2026-04-11T11:06:36.034Z</time></trkpt><trkpt lat="44.8371333" lon="9.3906517"><ele>928.0</ele><time>2026-04-11T11:06:38.032Z</time></trkpt><trkpt lat="44.8370867" lon="9.3905533"><ele>928.0</ele><time>2026-04-11T11:06:39.039Z</time></trkpt><trkpt lat="44.8370367" lon="9.390385"><ele>928.0</ele><time>2026-04-11T11:06:40.032Z</time></trkpt><trkpt lat="44.8369883" lon="9.3902333"><ele>928.0</ele><time>2026-04-11T11:06:41.03Z</time></trkpt><trkpt lat="44.8369367" lon="9.390105"><ele>928.0</ele><time>2026-04-11T11:06:42.032Z</time></trkpt><trkpt lat="44.8368917" lon="9.3899617"><ele>928.0</ele><time>2026-04-11T11:06:43.032Z</time></trkpt><trkpt lat="44.8368467" lon="9.3898233"><ele>928.0</ele><time>2026-04-11T11:06:44.034Z</time></trkpt><trkpt lat="44.8368" lon="9.3896783"><ele>922.0</ele><time>2026-04-11T11:06:45.033Z</time></trkpt><trkpt lat="44.8367517" lon="9.3895133"><ele>916.0</ele><time>2026-04-11T11:06:46.033Z</time></trkpt><trkpt lat="44.8367083" lon="9.3893383"><ele>910.0</ele><time>2026-04-11T11:06:47.04Z</time></trkpt><trkpt lat="44.8366683" lon="9.38914"><ele>904.0</ele><time>2026-04-11T11:06:48.031Z</time></trkpt><trkpt lat="44.8366333" lon="9.3889317"><ele>905.1666666666666</ele><time>2026-04-11T11:06:49.031Z</time></trkpt><trkpt lat="44.8366" lon="9.3887617"><ele>906.3333333333333</ele><time>2026-04-11T11:06:50.037Z</time></trkpt><trkpt lat="44.8365667" lon="9.388625"><ele>907.5</ele><time>2026-04-11T11:06:51.038Z</time></trkpt><trkpt lat="44.8365367" lon="9.38852"><ele>908.6666666666667</ele><time>2026-04-11T11:06:52.032Z</time></trkpt><trkpt lat="44.836505" lon="9.3884317"><ele>909.8333333333334</ele><time>2026-04-11T11:06:53.039Z</time></trkpt><trkpt lat="44.8364683" lon="9.38835"><ele>911.0</ele><time>2026-04-11T11:06:54.041Z</time></trkpt><trkpt lat="44.8364333" lon="9.388275"><ele>911.0000000000001</ele><time>2026-04-11T11:06:55.04Z</time></trkpt><trkpt lat="44.83638" lon="9.3881433"><ele>911.0</ele><time>2026-04-11T11:06:57.039Z</time></trkpt><trkpt lat="44.8363217" lon="9.3880317"><ele>911.0</ele><time>2026-04-11T11:07:05.035Z</time></trkpt><trkpt lat="44.8362583" lon="9.38794"><ele>911.0</ele><time>2026-04-11T11:07:07.037Z</time></trkpt><trkpt lat="44.836215" lon="9.3878733"><ele>911.0000000000001</ele><time>2026-04-11T11:07:08.035Z</time></trkpt><trkpt lat="44.8361667" lon="9.3878017"><ele>911.0</ele><time>2026-04-11T11:07:09.033Z</time></trkpt><trkpt lat="44.8361067" lon="9.3877317"><ele>908.5999999999999</ele><time>2026-04-11T11:07:10.038Z</time></trkpt><trkpt lat="44.83603" lon="9.3876583"><ele>906.1999999999999</ele><time>2026-04-11T11:07:11.033Z</time></trkpt><trkpt lat="44.83594" lon="9.3875767"><ele>903.8000000000001</ele><time>2026-04-11T11:07:12.038Z</time></trkpt><trkpt lat="44.8358583" lon="9.3874933"><ele>901.4000000000001</ele><time>2026-04-11T11:07:13.033Z</time></trkpt><trkpt lat="44.835785" lon="9.38742"><ele>899.0</ele><time>2026-04-11T11:07:14.034Z</time></trkpt><trkpt lat="44.8357133" lon="9.3873517"><ele>899.0</ele><time>2026-04-11T11:07:15.034Z</time></trkpt><trkpt lat="44.8356317" lon="9.3873033"><ele>899.0000000000001</ele><time>2026-04-11T11:07:16.039Z</time></trkpt><trkpt lat="44.835545" lon="9.3873033"><ele>899.0000000000001</ele><time>2026-04-11T11:07:17.037Z</time></trkpt><trkpt lat="44.835455" lon="9.3873433"><ele>899.0</ele><time>2026-04-11T11:07:18.034Z</time></trkpt><trkpt lat="44.835365" lon="9.3874"><ele>899.0</ele><time>2026-04-11T11:07:19.032Z</time></trkpt><trkpt lat="44.835275" lon="9.38746"><ele>899.0</ele><time>2026-04-11T11:07:20.033Z</time></trkpt><trkpt lat="44.8351917" lon="9.3875233"><ele>899.0000000000001</ele><time>2026-04-11T11:07:21.038Z</time></trkpt><trkpt lat="44.8351083" lon="9.38761"><ele>899.0000000000001</ele><time>2026-04-11T11:07:22.032Z</time></trkpt><trkpt lat="44.8350283" lon="9.38769"><ele>899.0</ele><time>2026-04-11T11:07:23.029Z</time></trkpt><trkpt lat="44.8349483" lon="9.3877517"><ele>899.0</ele><time>2026-04-11T11:07:24.034Z</time></trkpt><trkpt lat="44.834865" lon="9.3878017"><ele>898.2</ele><time>2026-04-11T11:07:25.035Z</time></trkpt><trkpt lat="44.8347833" lon="9.3878467"><ele>897.4000000000001</ele><time>2026-04-11T11:07:26.032Z</time></trkpt><trkpt lat="44.8346883" lon="9.3878817"><ele>896.6</ele><time>2026-04-11T11:07:27.031Z</time></trkpt><trkpt lat="44.834585" lon="9.387885"><ele>895.8</ele><time>2026-04-11T11:07:28.033Z</time></trkpt><trkpt lat="44.8344817" lon="9.3878683"><ele>895.0</ele><time>2026-04-11T11:07:29.031Z</time></trkpt><trkpt lat="44.83438" lon="9.3878317"><ele>891.6</ele><time>2026-04-11T11:07:30.033Z</time></trkpt><trkpt lat="44.834275" lon="9.3877767"><ele>888.2</ele><time>2026-04-11T11:07:31.032Z</time></trkpt><trkpt lat="44.8341767" lon="9.38772"><ele>884.8</ele><time>2026-04-11T11:07:32.032Z</time></trkpt><trkpt lat="44.8340917" lon="9.3876567"><ele>881.4</ele><time>2026-04-11T11:07:33.03Z</time></trkpt><trkpt lat="44.83402" lon="9.3875933"><ele>878.0</ele><time>2026-04-11T11:07:34.034Z</time></trkpt><trkpt lat="44.8339517" lon="9.387505"><ele>878.0000000000001</ele><time>2026-04-11T11:07:35.031Z</time></trkpt><trkpt lat="44.833885" lon="9.38741"><ele>878.0</ele><time>2026-04-11T11:07:36.033Z</time></trkpt><trkpt lat="44.8338317" lon="9.387305"><ele>878.0</ele><time>2026-04-11T11:07:37.033Z</time></trkpt><trkpt lat="44.8337917" lon="9.3871983"><ele>878.0</ele><time>2026-04-11T11:07:38.033Z</time></trkpt><trkpt lat="44.8337517" lon="9.3870933"><ele>878.0000000000001</ele><time>2026-04-11T11:07:39.123Z</time></trkpt><trkpt lat="44.8337183" lon="9.3869967"><ele>878.0</ele><time>2026-04-11T11:07:40.04Z</time></trkpt><trkpt lat="44.8337017" lon="9.3868867"><ele>880.2</ele><time>2026-04-11T11:07:41.031Z</time></trkpt><trkpt lat="44.833705" lon="9.3867683"><ele>882.4</ele><time>2026-04-11T11:07:42.03Z</time></trkpt><trkpt lat="44.833745" lon="9.386675"><ele>884.6000000000001</ele><time>2026-04-11T11:07:43.031Z</time></trkpt><trkpt lat="44.8337667" lon="9.3865617"><ele>886.8000000000001</ele><time>2026-04-11T11:07:44.029Z</time></trkpt><trkpt lat="44.8337883" lon="9.386445"><ele>889.0</ele><time>2026-04-11T11:07:45.03Z</time></trkpt><trkpt lat="44.8337667" lon="9.3862633"><ele>889.75</ele><time>2026-04-11T11:07:46.03Z</time></trkpt><trkpt lat="44.8337517" lon="9.3860633"><ele>890.5</ele><time>2026-04-11T11:07:47.029Z</time></trkpt><trkpt lat="44.8337483" lon="9.3858683"><ele>891.25</ele><time>2026-04-11T11:07:48.03Z</time></trkpt><trkpt lat="44.8337584" lon="9.3856687"><ele>892.0</ele><time>2026-04-11T11:07:49.03Z</time></trkpt><trkpt lat="44.8337693" lon="9.385459"><ele>890.8333333333333</ele><time>2026-04-11T11:07:50.032Z</time></trkpt><trkpt lat="44.8337748" lon="9.3852693"><ele>889.6666666666666</ele><time>2026-04-11T11:07:51.033Z</time></trkpt><trkpt lat="44.8337669" lon="9.3851334"><ele>888.5</ele><time>2026-04-11T11:07:52.031Z</time></trkpt><trkpt lat="44.8337578" lon="9.3850216"><ele>887.3333333333333</ele><time>2026-04-11T11:07:53.029Z</time></trkpt><trkpt lat="44.8337505" lon="9.384933"><ele>886.1666666666666</ele><time>2026-04-11T11:07:54.03Z</time></trkpt><trkpt lat="44.8337509" lon="9.3848435"><ele>885.0</ele><time>2026-04-11T11:07:55.03Z</time></trkpt><trkpt lat="44.8337555" lon="9.3847232"><ele>882.5</ele><time>2026-04-11T11:07:56.03Z</time></trkpt><trkpt lat="44.8337622" lon="9.3845926"><ele>880.0</ele><time>2026-04-11T11:07:57.029Z</time></trkpt><trkpt lat="44.8337562" lon="9.3844534"><ele>877.5</ele><time>2026-04-11T11:07:58.03Z</time></trkpt><trkpt lat="44.8337364" lon="9.3843195"><ele>875.0</ele><time>2026-04-11T11:07:59.031Z</time></trkpt><trkpt lat="44.8337006" lon="9.3842198"><ele>872.5</ele><time>2026-04-11T11:08:00.031Z</time></trkpt><trkpt lat="44.8336453" lon="9.3841385"><ele>870.0</ele><time>2026-04-11T11:08:01.033Z</time></trkpt><trkpt lat="44.8335696" lon="9.3840545"><ele>870.0</ele><time>2026-04-11T11:08:02.032Z</time></trkpt><trkpt lat="44.8334827" lon="9.383949"><ele>870.0</ele><time>2026-04-11T11:08:03.036Z</time></trkpt><trkpt lat="44.8333948" lon="9.3838347"><ele>870.0</ele><time>2026-04-11T11:08:04.03Z</time></trkpt><trkpt lat="44.8333116" lon="9.3837276"><ele>870.0</ele><time>2026-04-11T11:08:05.03Z</time></trkpt><trkpt lat="44.8332357" lon="9.3836213"><ele>869.2</ele><time>2026-04-11T11:08:06.03Z</time></trkpt><trkpt lat="44.833167" lon="9.3835196"><ele>868.4</ele><time>2026-04-11T11:08:07.031Z</time></trkpt><trkpt lat="44.8330991" lon="9.3834226"><ele>867.5999999999999</ele><time>2026-04-11T11:08:08.031Z</time></trkpt><trkpt lat="44.833021" lon="9.3833482"><ele>866.8</ele><time>2026-04-11T11:08:09.032Z</time></trkpt><trkpt lat="44.8329228" lon="9.383308"><ele>866.0</ele><time>2026-04-11T11:08:10.031Z</time></trkpt><trkpt lat="44.8328056" lon="9.3832901"><ele>866.0</ele><time>2026-04-11T11:08:11.033Z</time></trkpt><trkpt lat="44.8326683" lon="9.383283"><ele>866.0</ele><time>2026-04-11T11:08:12.03Z</time></trkpt><trkpt lat="44.8325153" lon="9.3832706"><ele>866.0</ele><time>2026-04-11T11:08:13.03Z</time></trkpt><trkpt lat="44.8323661" lon="9.3832551"><ele>866.0</ele><time>2026-04-11T11:08:14.03Z</time></trkpt><trkpt lat="44.8322326" lon="9.3832366"><ele>866.1999999999999</ele><time>2026-04-11T11:08:15.03Z</time></trkpt><trkpt lat="44.8321122" lon="9.3832357"><ele>866.3999999999999</ele><time>2026-04-11T11:08:16.039Z</time></trkpt><trkpt lat="44.8320069" lon="9.3832612"><ele>866.6</ele><time>2026-04-11T11:08:17.036Z</time></trkpt><trkpt lat="44.8319037" lon="9.3832886"><ele>866.8</ele><time>2026-04-11T11:08:18.035Z</time></trkpt><trkpt lat="44.8318084" lon="9.383281"><ele>867.0</ele><time>2026-04-11T11:08:19.037Z</time></trkpt><trkpt lat="44.831717" lon="9.3832418"><ele>866.6</ele><time>2026-04-11T11:08:20.038Z</time></trkpt><trkpt lat="44.8316243" lon="9.3831803"><ele>866.2</ele><time>2026-04-11T11:08:21.037Z</time></trkpt><trkpt lat="44.8315259" lon="9.3831086"><ele>865.8</ele><time>2026-04-11T11:08:22.039Z</time></trkpt><trkpt lat="44.8314264" lon="9.3830332"><ele>865.4</ele><time>2026-04-11T11:08:23.03Z</time></trkpt><trkpt lat="44.8313405" lon="9.3829567"><ele>865.0</ele><time>2026-04-11T11:08:24.035Z</time></trkpt><trkpt lat="44.8312696" lon="9.3828654"><ele>866.2</ele><time>2026-04-11T11:08:25.036Z</time></trkpt><trkpt lat="44.831216" lon="9.3827464"><ele>867.4</ele><time>2026-04-11T11:08:26.031Z</time></trkpt><trkpt lat="44.8311648" lon="9.3826242"><ele>868.5999999999999</ele><time>2026-04-11T11:08:27.043Z</time></trkpt><trkpt lat="44.8310967" lon="9.3825267"><ele>869.8</ele><time>2026-04-11T11:08:28.039Z</time></trkpt><trkpt lat="44.8309967" lon="9.3824817"><ele>871.0</ele><time>2026-04-11T11:08:29.039Z</time></trkpt><trkpt lat="44.8308817" lon="9.3824683"><ele>871.0</ele><time>2026-04-11T11:08:30.039Z</time></trkpt><trkpt lat="44.83075" lon="9.38246"><ele>871.0</ele><time>2026-04-11T11:08:31.037Z</time></trkpt><trkpt lat="44.830615" lon="9.382465"><ele>871.0</ele><time>2026-04-11T11:08:32.038Z</time></trkpt><trkpt lat="44.8304783" lon="9.3824633"><ele>871.0</ele><time>2026-04-11T11:08:33.039Z</time></trkpt><trkpt lat="44.8303517" lon="9.382455"><ele>871.0</ele><time>2026-04-11T11:08:34.035Z</time></trkpt><trkpt lat="44.8302333" lon="9.3824483"><ele>871.0</ele><time>2026-04-11T11:08:35.032Z</time></trkpt><trkpt lat="44.8301233" lon="9.382435"><ele>871.0</ele><time>2026-04-11T11:08:36.038Z</time></trkpt><trkpt lat="44.8300117" lon="9.3824067"><ele>871.0</ele><time>2026-04-11T11:08:37.038Z</time></trkpt><trkpt lat="44.8299033" lon="9.382345"><ele>870.3333333333333</ele><time>2026-04-11T11:08:38.039Z</time></trkpt><trkpt lat="44.8298133" lon="9.38227"><ele>869.6666666666667</ele><time>2026-04-11T11:08:39.039Z</time></trkpt><trkpt lat="44.82975" lon="9.3821967"><ele>869.0</ele><time>2026-04-11T11:08:40.037Z</time></trkpt><trkpt lat="44.8329228" lon="9.383308"><ele>868.5</ele><time>2026-04-11T11:08:10.031Z</time></trkpt><trkpt lat="44.8328056" lon="9.3832901"><ele>868.0</ele><time>2026-04-11T11:08:11.033Z</time></trkpt><trkpt lat="44.8326683" lon="9.383283"><ele>867.5</ele><time>2026-04-11T11:08:12.03Z</time></trkpt><trkpt lat="44.8325153" lon="9.3832706"><ele>867.0</ele><time>2026-04-11T11:08:13.03Z</time></trkpt><trkpt lat="44.8323661" lon="9.3832551"><ele>867.0</ele><time>2026-04-11T11:08:14.03Z</time></trkpt><trkpt lat="44.8322326" lon="9.3832366"><ele>867.0</ele><time>2026-04-11T11:08:15.03Z</time></trkpt><trkpt lat="44.8321122" lon="9.3832357"><ele>867.0</ele><time>2026-04-11T11:08:16.039Z</time></trkpt><trkpt lat="44.8320069" lon="9.3832612"><ele>867.0</ele><time>2026-04-11T11:08:17.036Z</time></trkpt><trkpt lat="44.8319037" lon="9.3832886"><ele>867.0</ele><time>2026-04-11T11:08:18.035Z</time></trkpt><trkpt lat="44.8318084" lon="9.383281"><ele>867.0</ele><time>2026-04-11T11:08:19.037Z</time></trkpt><trkpt lat="44.831717" lon="9.3832418"><ele>867.0</ele><time>2026-04-11T11:08:20.038Z</time></trkpt><trkpt lat="44.8316243" lon="9.3831803"><ele>867.0</ele><time>2026-04-11T11:08:21.037Z</time></trkpt><trkpt lat="44.8315259" lon="9.3831086"><ele>867.0</ele><time>2026-04-11T11:08:22.039Z</time></trkpt><trkpt lat="44.8314264" lon="9.3830332"><ele>869.2</ele><time>2026-04-11T11:08:23.03Z</time></trkpt><trkpt lat="44.8313405" lon="9.3829567"><ele>871.4000000000001</ele><time>2026-04-11T11:08:24.035Z</time></trkpt><trkpt lat="44.8312696" lon="9.3828654"><ele>873.5999999999999</ele><time>2026-04-11T11:08:25.036Z</time></trkpt><trkpt lat="44.831216" lon="9.3827464"><ele>875.8</ele><time>2026-04-11T11:08:26.031Z</time></trkpt><trkpt lat="44.8311648" lon="9.3826242"><ele>878.0</ele><time>2026-04-11T11:08:27.043Z</time></trkpt><trkpt lat="44.8310967" lon="9.3825267"><ele>878.0</ele><time>2026-04-11T11:08:28.039Z</time></trkpt><trkpt lat="44.8309967" lon="9.3824817"><ele>878.0</ele><time>2026-04-11T11:08:29.039Z</time></trkpt><trkpt lat="44.8308817" lon="9.3824683"><ele>878.0</ele><time>2026-04-11T11:08:30.039Z</time></trkpt><trkpt lat="44.83075" lon="9.38246"><ele>878.0</ele><time>2026-04-11T11:08:31.037Z</time></trkpt><trkpt lat="44.830615" lon="9.382465"><ele>876.25</ele><time>2026-04-11T11:08:32.038Z</time></trkpt><trkpt lat="44.8304783" lon="9.3824633"><ele>874.5</ele><time>2026-04-11T11:08:33.039Z</time></trkpt><trkpt lat="44.8303517" lon="9.382455"><ele>872.75</ele><time>2026-04-11T11:08:34.035Z</time></trkpt><trkpt lat="44.8302333" lon="9.3824483"><ele>871.0</ele><time>2026-04-11T11:08:35.032Z</time></trkpt><trkpt lat="44.8301233" lon="9.382435"><ele>870.8</ele><time>2026-04-11T11:08:36.038Z</time></trkpt><trkpt lat="44.8300117" lon="9.3824067"><ele>870.5999999999999</ele><time>2026-04-11T11:08:37.038Z</time></trkpt><trkpt lat="44.8299033" lon="9.382345"><ele>870.4</ele><time>2026-04-11T11:08:38.039Z</time></trkpt><trkpt lat="44.8298133" lon="9.38227"><ele>870.2</ele><time>2026-04-11T11:08:39.039Z</time></trkpt><trkpt lat="44.82975" lon="9.3821967"><ele>870.0</ele><time>2026-04-11T11:08:40.037Z</time></trkpt><trkpt lat="44.8297167" lon="9.3821083"><ele>870.0</ele><time>2026-04-11T11:08:41.036Z</time></trkpt><trkpt lat="44.82971" lon="9.3820067"><ele>870.0</ele><time>2026-04-11T11:08:42.039Z</time></trkpt><trkpt lat="44.829715" lon="9.381895"><ele>870.0</ele><time>2026-04-11T11:08:43.033Z</time></trkpt><trkpt lat="44.82973" lon="9.381755"><ele>870.0</ele><time>2026-04-11T11:08:44.038Z</time></trkpt><trkpt lat="44.829725" lon="9.3815833"><ele>870.0</ele><time>2026-04-11T11:08:45.038Z</time></trkpt><trkpt lat="44.8297" lon="9.3814183"><ele>868.0</ele><time>2026-04-11T11:08:46.037Z</time></trkpt><trkpt lat="44.8296583" lon="9.38126"><ele>866.0</ele><time>2026-04-11T11:08:47.037Z</time></trkpt><trkpt lat="44.829605" lon="9.3811067"><ele>864.0</ele><time>2026-04-11T11:08:48.038Z</time></trkpt><trkpt lat="44.8295383" lon="9.38096"><ele>862.0</ele><time>2026-04-11T11:08:49.038Z</time></trkpt><trkpt lat="44.8294633" lon="9.380825"><ele>862.0</ele><time>2026-04-11T11:08:50.036Z</time></trkpt><trkpt lat="44.8293933" lon="9.38071"><ele>862.0</ele><time>2026-04-11T11:08:51.039Z</time></trkpt><trkpt lat="44.82933" lon="9.3805667"><ele>862.0</ele><time>2026-04-11T11:08:52.035Z</time></trkpt><trkpt lat="44.8292767" lon="9.3804033"><ele>862.0</ele><time>2026-04-11T11:08:53.038Z</time></trkpt><trkpt lat="44.829235" lon="9.380215"><ele>862.0</ele><time>2026-04-11T11:08:54.035Z</time></trkpt><trkpt lat="44.829205" lon="9.3800233"><ele>862.0</ele><time>2026-04-11T11:08:55.036Z</time></trkpt><trkpt lat="44.8291783" lon="9.379825"><ele>862.0</ele><time>2026-04-11T11:08:56.032Z</time></trkpt><trkpt lat="44.82915" lon="9.3796367"><ele>862.0</ele><time>2026-04-11T11:08:57.037Z</time></trkpt><trkpt lat="44.829115" lon="9.3794533"><ele>862.0</ele><time>2026-04-11T11:08:58.032Z</time></trkpt><trkpt lat="44.829075" lon="9.3792667"><ele>862.0</ele><time>2026-04-11T11:08:59.037Z</time></trkpt><trkpt lat="44.8290367" lon="9.379085"><ele>862.0</ele><time>2026-04-11T11:09:00.034Z</time></trkpt><trkpt lat="44.8289867" lon="9.3789133"><ele>862.0</ele><time>2026-04-11T11:09:01.036Z</time></trkpt><trkpt lat="44.8289383" lon="9.3787467"><ele>859.75</ele><time>2026-04-11T11:09:02.037Z</time></trkpt><trkpt lat="44.8289" lon="9.3785767"><ele>857.5</ele><time>2026-04-11T11:09:03.039Z</time></trkpt><trkpt lat="44.8288683" lon="9.3783983"><ele>855.25</ele><time>2026-04-11T11:09:04.04Z</time></trkpt><trkpt lat="44.8288483" lon="9.3782"><ele>853.0</ele><time>2026-04-11T11:09:05.036Z</time></trkpt><trkpt lat="44.82884" lon="9.3780117"><ele>852.2</ele><time>2026-04-11T11:09:06.038Z</time></trkpt><trkpt lat="44.8288433" lon="9.3778333"><ele>851.4</ele><time>2026-04-11T11:09:07.038Z</time></trkpt><trkpt lat="44.8288617" lon="9.37768"><ele>850.6</ele><time>2026-04-11T11:09:08.039Z</time></trkpt><trkpt lat="44.8289017" lon="9.3775483"><ele>849.8000000000001</ele><time>2026-04-11T11:09:09.042Z</time></trkpt><trkpt lat="44.8289467" lon="9.3774333"><ele>849.0</ele><time>2026-04-11T11:09:10.038Z</time></trkpt><trkpt lat="44.8289733" lon="9.3773067"><ele>848.75</ele><time>2026-04-11T11:09:11.037Z</time></trkpt><trkpt lat="44.8289833" lon="9.3771417"><ele>848.5</ele><time>2026-04-11T11:09:12.04Z</time></trkpt><trkpt lat="44.8289817" lon="9.3769383"><ele>848.25</ele><time>2026-04-11T11:09:13.031Z</time></trkpt><trkpt lat="44.8289817" lon="9.37671"><ele>848.0</ele><time>2026-04-11T11:09:14.042Z</time></trkpt><trkpt lat="44.8290033" lon="9.37647"><ele>849.25</ele><time>2026-04-11T11:09:15.036Z</time></trkpt><trkpt lat="44.829035" lon="9.37626"><ele>850.5</ele><time>2026-04-11T11:09:16.039Z</time></trkpt><trkpt lat="44.8290617" lon="9.3760917"><ele>851.75</ele><time>2026-04-11T11:09:17.034Z</time></trkpt><trkpt lat="44.829075" lon="9.3759383"><ele>853.0</ele><time>2026-04-11T11:09:18.037Z</time></trkpt><trkpt lat="44.8290617" lon="9.3757883"><ele>853.0</ele><time>2026-04-11T11:09:19.037Z</time></trkpt><trkpt lat="44.8290483" lon="9.3756383"><ele>853.0</ele><time>2026-04-11T11:09:20.037Z</time></trkpt><trkpt lat="44.8290517" lon="9.37548"><ele>853.0</ele><time>2026-04-11T11:09:21.04Z</time></trkpt><trkpt lat="44.8290733" lon="9.3753217"><ele>853.0</ele><time>2026-04-11T11:09:22.038Z</time></trkpt><trkpt lat="44.82911" lon="9.375165"><ele>853.25</ele><time>2026-04-11T11:09:23.041Z</time></trkpt><trkpt lat="44.8291233" lon="9.3749917"><ele>853.5</ele><time>2026-04-11T11:09:24.042Z</time></trkpt><trkpt lat="44.8291167" lon="9.3747933"><ele>853.75</ele><time>2026-04-11T11:09:25.045Z</time></trkpt><trkpt lat="44.8290817" lon="9.374565"><ele>854.0</ele><time>2026-04-11T11:09:26.038Z</time></trkpt><trkpt lat="44.82903" lon="9.3743317"><ele>852.6666666666667</ele><time>2026-04-11T11:09:27.037Z</time></trkpt><trkpt lat="44.8289717" lon="9.3741117"><ele>851.3333333333333</ele><time>2026-04-11T11:09:28.035Z</time></trkpt><trkpt lat="44.828915" lon="9.37389"><ele>850.0</ele><time>2026-04-11T11:09:29.038Z</time></trkpt><trkpt lat="44.8288567" lon="9.3736717"><ele>848.0</ele><time>2026-04-11T11:09:30.038Z</time></trkpt><trkpt lat="44.8288067" lon="9.3734533"><ele>846.0</ele><time>2026-04-11T11:09:31.035Z</time></trkpt><trkpt lat="44.8287717" lon="9.3732233"><ele>844.0</ele><time>2026-04-11T11:09:32.039Z</time></trkpt><trkpt lat="44.8287533" lon="9.3729883"><ele>843.5</ele><time>2026-04-11T11:09:33.039Z</time></trkpt><trkpt lat="44.8287367" lon="9.3727683"><ele>843.0</ele><time>2026-04-11T11:09:34.04Z</time></trkpt><trkpt lat="44.828725" lon="9.3725567"><ele>842.5</ele><time>2026-04-11T11:09:35.038Z</time></trkpt><trkpt lat="44.8287083" lon="9.3723633"><ele>842.0</ele><time>2026-04-11T11:09:36.036Z</time></trkpt><trkpt lat="44.8286867" lon="9.3721967"><ele>843.0</ele><time>2026-04-11T11:09:37.038Z</time></trkpt><trkpt lat="44.8286917" lon="9.37204"><ele>844.0</ele><time>2026-04-11T11:09:38.037Z</time></trkpt><trkpt lat="44.8287" lon="9.3718967"><ele>845.0</ele><time>2026-04-11T11:09:39.037Z</time></trkpt><trkpt lat="44.8287467" lon="9.3717533"><ele>846.0</ele><time>2026-04-11T11:09:40.03Z</time></trkpt><trkpt lat="44.8288217" lon="9.3715983"><ele>846.0</ele><time>2026-04-11T11:09:41.036Z</time></trkpt><trkpt lat="44.8288933" lon="9.37143"><ele>846.0</ele><time>2026-04-11T11:09:42.038Z</time></trkpt><trkpt lat="44.828955" lon="9.3712567"><ele>846.0</ele><time>2026-04-11T11:09:43.038Z</time></trkpt><trkpt lat="44.8290117" lon="9.3710717"><ele>846.0</ele><time>2026-04-11T11:09:44.04Z</time></trkpt><trkpt lat="44.8290517" lon="9.3709017"><ele>845.5999999999999</ele><time>2026-04-11T11:09:45.04Z</time></trkpt><trkpt lat="44.8290967" lon="9.3707483"><ele>845.2</ele><time>2026-04-11T11:09:46.039Z</time></trkpt><trkpt lat="44.8291517" lon="9.370625"><ele>844.8</ele><time>2026-04-11T11:09:47.038Z</time></trkpt><trkpt lat="44.8292317" lon="9.37054"><ele>844.4000000000001</ele><time>2026-04-11T11:09:48.037Z</time></trkpt><trkpt lat="44.8293167" lon="9.370485"><ele>844.0</ele><time>2026-04-11T11:09:49.037Z</time></trkpt><trkpt lat="44.8293983" lon="9.3704233"><ele>844.0</ele><time>2026-04-11T11:09:50.035Z</time></trkpt><trkpt lat="44.8294617" lon="9.37033"><ele>844.0</ele><time>2026-04-11T11:09:51.042Z</time></trkpt><trkpt lat="44.8294967" lon="9.3701967"><ele>844.0</ele><time>2026-04-11T11:09:52.037Z</time></trkpt><trkpt lat="44.8295183" lon="9.3700383"><ele>844.0</ele><time>2026-04-11T11:09:53.036Z</time></trkpt><trkpt lat="44.8295583" lon="9.3698833"><ele>844.0</ele><time>2026-04-11T11:09:54.035Z</time></trkpt><trkpt lat="44.8296217" lon="9.36973"><ele>845.0</ele><time>2026-04-11T11:09:55.039Z</time></trkpt><trkpt lat="44.8296967" lon="9.36958"><ele>846.0</ele><time>2026-04-11T11:09:56.037Z</time></trkpt><trkpt lat="44.8297717" lon="9.3694317"><ele>847.0</ele><time>2026-04-11T11:09:57.038Z</time></trkpt><trkpt lat="44.8298417" lon="9.3692717"><ele>848.0</ele><time>2026-04-11T11:09:58.038Z</time></trkpt><trkpt lat="44.829905" lon="9.3690883"><ele>848.0</ele><time>2026-04-11T11:09:59.039Z</time></trkpt><trkpt lat="44.829965" lon="9.3688883"><ele>848.0</ele><time>2026-04-11T11:10:00.033Z</time></trkpt><trkpt lat="44.8300167" lon="9.3687033"><ele>848.0</ele><time>2026-04-11T11:10:01.042Z</time></trkpt><trkpt lat="44.8300633" lon="9.3685317"><ele>848.0</ele><time>2026-04-11T11:10:02.038Z</time></trkpt><trkpt lat="44.8301" lon="9.3683717"><ele>850.0</ele><time>2026-04-11T11:10:03.042Z</time></trkpt><trkpt lat="44.8301167" lon="9.3682167"><ele>852.0</ele><time>2026-04-11T11:10:04.039Z</time></trkpt><trkpt lat="44.8301067" lon="9.36806"><ele>854.0</ele><time>2026-04-11T11:10:05.039Z</time></trkpt><trkpt lat="44.8300667" lon="9.3678983"><ele>856.0</ele><time>2026-04-11T11:10:06.033Z</time></trkpt><trkpt lat="44.8300167" lon="9.3677333"><ele>856.0</ele><time>2026-04-11T11:10:07.038Z</time></trkpt><trkpt lat="44.829975" lon="9.367555"><ele>856.0</ele><time>2026-04-11T11:10:08.041Z</time></trkpt><trkpt lat="44.8299533" lon="9.3673767"><ele>856.0</ele><time>2026-04-11T11:10:09.038Z</time></trkpt><trkpt lat="44.8299433" lon="9.3672067"><ele>856.0</ele><time>2026-04-11T11:10:10.035Z</time></trkpt><trkpt lat="44.8299217" lon="9.367045"><ele>854.75</ele><time>2026-04-11T11:10:11.038Z</time></trkpt><trkpt lat="44.8298783" lon="9.3668717"><ele>853.5</ele><time>2026-04-11T11:10:12.034Z</time></trkpt><trkpt lat="44.82983" lon="9.36669"><ele>852.25</ele><time>2026-04-11T11:10:13.038Z</time></trkpt><trkpt lat="44.8297933" lon="9.3665017"><ele>851.0</ele><time>2026-04-11T11:10:14.038Z</time></trkpt><trkpt lat="44.8297583" lon="9.3663267"><ele>849.75</ele><time>2026-04-11T11:10:15.04Z</time></trkpt><trkpt lat="44.829715" lon="9.3661667"><ele>848.5</ele><time>2026-04-11T11:10:16.038Z</time></trkpt><trkpt lat="44.8296767" lon="9.36601"><ele>847.25</ele><time>2026-04-11T11:10:17.036Z</time></trkpt><trkpt lat="44.8296533" lon="9.3658467"><ele>846.0</ele><time>2026-04-11T11:10:18.039Z</time></trkpt><trkpt lat="44.8296617" lon="9.3656733"><ele>845.75</ele><time>2026-04-11T11:10:19.039Z</time></trkpt><trkpt lat="44.8296867" lon="9.3655017"><ele>845.5</ele><time>2026-04-11T11:10:20.037Z</time></trkpt><trkpt lat="44.8297017" lon="9.365325"><ele>845.25</ele><time>2026-04-11T11:10:21.041Z</time></trkpt><trkpt lat="44.8297067" lon="9.3651583"><ele>845.0</ele><time>2026-04-11T11:10:22.039Z</time></trkpt><trkpt lat="44.8297167" lon="9.365005"><ele>845.0000000000001</ele><time>2026-04-11T11:10:23.038Z</time></trkpt><trkpt lat="44.8297617" lon="9.364875"><ele>845.0</ele><time>2026-04-11T11:10:24.039Z</time></trkpt><trkpt lat="44.8298167" lon="9.3647667"><ele>845.0</ele><time>2026-04-11T11:10:25.038Z</time></trkpt><trkpt lat="44.8298633" lon="9.36467"><ele>845.0</ele><time>2026-04-11T11:10:26.037Z</time></trkpt><trkpt lat="44.8298717" lon="9.364575"><ele>845.0000000000001</ele><time>2026-04-11T11:10:27.04Z</time></trkpt><trkpt lat="44.829855" lon="9.3644817"><ele>845.0</ele><time>2026-04-11T11:10:28.04Z</time></trkpt><trkpt lat="44.8298033" lon="9.3644083"><ele>843.6</ele><time>2026-04-11T11:10:29.039Z</time></trkpt><trkpt lat="44.829715" lon="9.36434"><ele>842.2</ele><time>2026-04-11T11:10:30.038Z</time></trkpt><trkpt lat="44.8296317" lon="9.3642533"><ele>840.8</ele><time>2026-04-11T11:10:31.032Z</time></trkpt><trkpt lat="44.82956" lon="9.3641367"><ele>839.4</ele><time>2026-04-11T11:10:32.04Z</time></trkpt><trkpt lat="44.8294917" lon="9.36399"><ele>838.0</ele><time>2026-04-11T11:10:33.037Z</time></trkpt><trkpt lat="44.8294317" lon="9.36384"><ele>836.5</ele><time>2026-04-11T11:10:34.034Z</time></trkpt><trkpt lat="44.8293783" lon="9.36369"><ele>835.0</ele><time>2026-04-11T11:10:35.038Z</time></trkpt><trkpt lat="44.829335" lon="9.3635333"><ele>833.5</ele><time>2026-04-11T11:10:36.033Z</time></trkpt><trkpt lat="44.8293133" lon="9.3633667"><ele>832.0</ele><time>2026-04-11T11:10:37.035Z</time></trkpt><trkpt lat="44.829315" lon="9.3631983"><ele>832.0</ele><time>2026-04-11T11:10:38.037Z</time></trkpt><trkpt lat="44.829345" lon="9.3630317"><ele>832.0</ele><time>2026-04-11T11:10:39.043Z</time></trkpt><trkpt lat="44.829405" lon="9.3628867"><ele>832.0</ele><time>2026-04-11T11:10:40.04Z</time></trkpt><trkpt lat="44.8294733" lon="9.3627433"><ele>832.0</ele><time>2026-04-11T11:10:41.044Z</time></trkpt><trkpt lat="44.8295433" lon="9.36261"><ele>831.75</ele><time>2026-04-11T11:10:42.038Z</time></trkpt><trkpt lat="44.8296033" lon="9.3624683"><ele>831.5</ele><time>2026-04-11T11:10:43.039Z</time></trkpt><trkpt lat="44.8296467" lon="9.3623017"><ele>831.25</ele><time>2026-04-11T11:10:44.041Z</time></trkpt><trkpt lat="44.8296717" lon="9.36213"><ele>831.0</ele><time>2026-04-11T11:10:45.041Z</time></trkpt><trkpt lat="44.8296767" lon="9.3619733"><ele>831.0</ele><time>2026-04-11T11:10:46.038Z</time></trkpt><trkpt lat="44.8296733" lon="9.361835"><ele>831.0</ele><time>2026-04-11T11:10:47.034Z</time></trkpt><trkpt lat="44.8296483" lon="9.3617117"><ele>831.0</ele><time>2026-04-11T11:10:48.03Z</time></trkpt><trkpt lat="44.829595" lon="9.3616017"><ele>831.0</ele><time>2026-04-11T11:10:49.033Z</time></trkpt><trkpt lat="44.8295167" lon="9.3614917"><ele>831.0</ele><time>2026-04-11T11:10:50.032Z</time></trkpt><trkpt lat="44.8294417" lon="9.3613683"><ele>833.5999999999999</ele><time>2026-04-11T11:10:51.04Z</time></trkpt><trkpt lat="44.8293917" lon="9.3612283"><ele>836.2</ele><time>2026-04-11T11:10:52.041Z</time></trkpt><trkpt lat="44.829365" lon="9.3610833"><ele>838.8</ele><time>2026-04-11T11:10:53.039Z</time></trkpt><trkpt lat="44.8293733" lon="9.360945"><ele>841.4000000000001</ele><time>2026-04-11T11:10:54.038Z</time></trkpt><trkpt lat="44.82941" lon="9.3608183"><ele>844.0</ele><time>2026-04-11T11:10:55.04Z</time></trkpt><trkpt lat="44.8294733" lon="9.3606967"><ele>844.0</ele><time>2026-04-11T11:10:56.041Z</time></trkpt><trkpt lat="44.82955" lon="9.36057"><ele>844.0</ele><time>2026-04-11T11:10:57.042Z</time></trkpt><trkpt lat="44.82962" lon="9.36044"><ele>844.0</ele><time>2026-04-11T11:10:58.038Z</time></trkpt><trkpt lat="44.8296833" lon="9.3603067"><ele>844.0</ele><time>2026-04-11T11:10:59.037Z</time></trkpt><trkpt lat="44.829735" lon="9.3601717"><ele>844.4000000000001</ele><time>2026-04-11T11:11:00.034Z</time></trkpt><trkpt lat="44.8297783" lon="9.3600417"><ele>844.8</ele><time>2026-04-11T11:11:01.039Z</time></trkpt><trkpt lat="44.8298083" lon="9.3599017"><ele>845.2</ele><time>2026-04-11T11:11:02.039Z</time></trkpt><trkpt lat="44.82982" lon="9.3597517"><ele>845.5999999999999</ele><time>2026-04-11T11:11:03.04Z</time></trkpt><trkpt lat="44.8298233" lon="9.35959"><ele>846.0</ele><time>2026-04-11T11:11:04.039Z</time></trkpt><trkpt lat="44.8298333" lon="9.359415"><ele>846.75</ele><time>2026-04-11T11:11:05.041Z</time></trkpt><trkpt lat="44.8298517" lon="9.35923"><ele>847.5</ele><time>2026-04-11T11:11:06.039Z</time></trkpt><trkpt lat="44.8298933" lon="9.3590533"><ele>848.25</ele><time>2026-04-11T11:11:07.039Z</time></trkpt><trkpt lat="44.8299533" lon="9.3588917"><ele>849.0</ele><time>2026-04-11T11:11:08.039Z</time></trkpt><trkpt lat="44.8300283" lon="9.3587533"><ele>849.0</ele><time>2026-04-11T11:11:09.032Z</time></trkpt><trkpt lat="44.8301217" lon="9.3586483"><ele>849.0</ele><time>2026-04-11T11:11:10.04Z</time></trkpt><trkpt lat="44.8302283" lon="9.3586"><ele>849.0</ele><time>2026-04-11T11:11:11.029Z</time></trkpt><trkpt lat="44.8303433" lon="9.35861"><ele>849.0</ele><time>2026-04-11T11:11:12.036Z</time></trkpt><trkpt lat="44.8304583" lon="9.358645"><ele>849.0</ele><time>2026-04-11T11:11:13.04Z</time></trkpt><trkpt lat="44.8305783" lon="9.3586767"><ele>849.0</ele><time>2026-04-11T11:11:14.036Z</time></trkpt><trkpt lat="44.8307017" lon="9.358695"><ele>849.0</ele><time>2026-04-11T11:11:15.037Z</time></trkpt><trkpt lat="44.8308217" lon="9.3587067"><ele>849.0</ele><time>2026-04-11T11:11:16.038Z</time></trkpt><trkpt lat="44.8309283" lon="9.3587083"><ele>846.4000000000001</ele><time>2026-04-11T11:11:17.038Z</time></trkpt><trkpt lat="44.8310117" lon="9.3586983"><ele>843.8</ele><time>2026-04-11T11:11:18.036Z</time></trkpt><trkpt lat="44.8310767" lon="9.3586683"><ele>841.2</ele><time>2026-04-11T11:11:19.038Z</time></trkpt><trkpt lat="44.8311217" lon="9.358495"><ele>838.5999999999999</ele><time>2026-04-11T11:11:21.038Z</time></trkpt><trkpt lat="44.8311133" lon="9.3583483"><ele>836.0</ele><time>2026-04-11T11:11:22.036Z</time></trkpt><trkpt lat="44.8310983" lon="9.3581767"><ele>839.5</ele><time>2026-04-11T11:11:23.037Z</time></trkpt><trkpt lat="44.8310983" lon="9.3579967"><ele>843.0</ele><time>2026-04-11T11:11:24.039Z</time></trkpt><trkpt lat="44.8311167" lon="9.3578183"><ele>846.5</ele><time>2026-04-11T11:11:25.039Z</time></trkpt><trkpt lat="44.8311567" lon="9.3576517"><ele>850.0</ele><time>2026-04-11T11:11:26.038Z</time></trkpt><trkpt lat="44.8312233" lon="9.3575133"><ele>850.0</ele><time>2026-04-11T11:11:27.032Z</time></trkpt><trkpt lat="44.8313133" lon="9.3574167"><ele>850.0</ele><time>2026-04-11T11:11:28.037Z</time></trkpt><trkpt lat="44.8314233" lon="9.3573667"><ele>850.0</ele><time>2026-04-11T11:11:29.04Z</time></trkpt><trkpt lat="44.8315383" lon="9.3573583"><ele>850.0</ele><time>2026-04-11T11:11:30.041Z</time></trkpt><trkpt lat="44.8316433" lon="9.3573467"><ele>850.0</ele><time>2026-04-11T11:11:31.031Z</time></trkpt><trkpt lat="44.8317367" lon="9.3573133"><ele>849.4</ele><time>2026-04-11T11:11:32.038Z</time></trkpt><trkpt lat="44.831815" lon="9.35723"><ele>848.8</ele><time>2026-04-11T11:11:33.041Z</time></trkpt><trkpt lat="44.831875" lon="9.357095"><ele>848.2</ele><time>2026-04-11T11:11:34.035Z</time></trkpt><trkpt lat="44.8319233" lon="9.35695"><ele>847.6</ele><time>2026-04-11T11:11:35.038Z</time></trkpt><trkpt lat="44.8319717" lon="9.3568083"><ele>847.0</ele><time>2026-04-11T11:11:36.04Z</time></trkpt><trkpt lat="44.8320283" lon="9.3566783"><ele>847.0</ele><time>2026-04-11T11:11:37.04Z</time></trkpt><trkpt lat="44.8321017" lon="9.3565767"><ele>847.0</ele><time>2026-04-11T11:11:38.04Z</time></trkpt><trkpt lat="44.8321883" lon="9.35649"><ele>847.0</ele><time>2026-04-11T11:11:39.042Z</time></trkpt><trkpt lat="44.832275" lon="9.356405"><ele>847.0</ele><time>2026-04-11T11:11:40.039Z</time></trkpt><trkpt lat="44.8323567" lon="9.356305"><ele>847.0</ele><time>2026-04-11T11:11:41.04Z</time></trkpt><trkpt lat="44.8324317" lon="9.3562017"><ele>848.4000000000001</ele><time>2026-04-11T11:11:42.032Z</time></trkpt><trkpt lat="44.8325033" lon="9.3560867"><ele>849.8000000000001</ele><time>2026-04-11T11:11:43.031Z</time></trkpt><trkpt lat="44.8325617" lon="9.355965"><ele>851.2</ele><time>2026-04-11T11:11:44.033Z</time></trkpt><trkpt lat="44.8326117" lon="9.3558333"><ele>852.6</ele><time>2026-04-11T11:11:45.033Z</time></trkpt><trkpt lat="44.8326667" lon="9.3556717"><ele>854.0</ele><time>2026-04-11T11:11:46.032Z</time></trkpt><trkpt lat="44.83272" lon="9.3555083"><ele>855.3333333333334</ele><time>2026-04-11T11:11:47.03Z</time></trkpt><trkpt lat="44.8327733" lon="9.35536"><ele>856.6666666666667</ele><time>2026-04-11T11:11:48.033Z</time></trkpt><trkpt lat="44.8328083" lon="9.3552433"><ele>858.0</ele><time>2026-04-11T11:11:49.031Z</time></trkpt><trkpt lat="44.8328483" lon="9.3551417"><ele>859.3333333333333</ele><time>2026-04-11T11:11:50.034Z</time></trkpt><trkpt lat="44.832895" lon="9.3550683"><ele>860.6666666666666</ele><time>2026-04-11T11:11:51.038Z</time></trkpt><trkpt lat="44.8329567" lon="9.3549967"><ele>862.0</ele><time>2026-04-11T11:11:52.04Z</time></trkpt><trkpt lat="44.8330417" lon="9.3549417"><ele>862.0</ele><time>2026-04-11T11:11:53.037Z</time></trkpt><trkpt lat="44.8331517" lon="9.3548833"><ele>862.0</ele><time>2026-04-11T11:11:54.04Z</time></trkpt><trkpt lat="44.8333" lon="9.3548017"><ele>862.0</ele><time>2026-04-11T11:11:55.039Z</time></trkpt><trkpt lat="44.833445" lon="9.3547233"><ele>862.0</ele><time>2026-04-11T11:11:56.04Z</time></trkpt><trkpt lat="44.8335867" lon="9.3546467"><ele>859.0</ele><time>2026-04-11T11:11:57.041Z</time></trkpt><trkpt lat="44.8337233" lon="9.3545667"><ele>856.0</ele><time>2026-04-11T11:11:58.038Z</time></trkpt><trkpt lat="44.8338533" lon="9.3544833"><ele>853.0</ele><time>2026-04-11T11:11:59.038Z</time></trkpt><trkpt lat="44.8339767" lon="9.354405"><ele>850.0</ele><time>2026-04-11T11:12:00.042Z</time></trkpt><trkpt lat="44.83411" lon="9.35432"><ele>850.0</ele><time>2026-04-11T11:12:01.04Z</time></trkpt><trkpt lat="44.8342433" lon="9.35423"><ele>850.0</ele><time>2026-04-11T11:12:02.036Z</time></trkpt><trkpt lat="44.8343717" lon="9.3541383"><ele>850.0</ele><time>2026-04-11T11:12:03.04Z</time></trkpt><trkpt lat="44.8344983" lon="9.354045"><ele>850.0</ele><time>2026-04-11T11:12:04.04Z</time></trkpt><trkpt lat="44.83462" lon="9.3539467"><ele>845.75</ele><time>2026-04-11T11:12:05.037Z</time></trkpt><trkpt lat="44.8347317" lon="9.3538383"><ele>841.5</ele><time>2026-04-11T11:12:06.042Z</time></trkpt><trkpt lat="44.834835" lon="9.353705"><ele>837.25</ele><time>2026-04-11T11:12:07.038Z</time></trkpt><trkpt lat="44.834935" lon="9.3535467"><ele>833.0</ele><time>2026-04-11T11:12:08.037Z</time></trkpt><trkpt lat="44.8350317" lon="9.3533717"><ele>833.0</ele><time>2026-04-11T11:12:09.039Z</time></trkpt><trkpt lat="44.8351283" lon="9.3531933"><ele>833.0</ele><time>2026-04-11T11:12:10.041Z</time></trkpt><trkpt lat="44.8352267" lon="9.3530133"><ele>833.0</ele><time>2026-04-11T11:12:11.032Z</time></trkpt><trkpt lat="44.8353183" lon="9.3528267"><ele>828.3333333333334</ele><time>2026-04-11T11:12:12.041Z</time></trkpt><trkpt lat="44.8353933" lon="9.3526333"><ele>823.6666666666667</ele><time>2026-04-11T11:12:13.039Z</time></trkpt><trkpt lat="44.83546" lon="9.3524383"><ele>819.0</ele><time>2026-04-11T11:12:14.041Z</time></trkpt><trkpt lat="44.8355233" lon="9.35225"><ele>818.2</ele><time>2026-04-11T11:12:15.043Z</time></trkpt><trkpt lat="44.835595" lon="9.35209"><ele>817.4000000000001</ele><time>2026-04-11T11:12:16.04Z</time></trkpt><trkpt lat="44.835665" lon="9.3519733"><ele>816.6</ele><time>2026-04-11T11:12:17.036Z</time></trkpt><trkpt lat="44.8357267" lon="9.3518867"><ele>815.8</ele><time>2026-04-11T11:12:18.041Z</time></trkpt><trkpt lat="44.83579" lon="9.3518283"><ele>815.0</ele><time>2026-04-11T11:12:19.04Z</time></trkpt><trkpt lat="44.835855" lon="9.3517833"><ele>815.0</ele><time>2026-04-11T11:12:20.032Z</time></trkpt><trkpt lat="44.8359283" lon="9.351725"><ele>815.0</ele><time>2026-04-11T11:12:21.041Z</time></trkpt><trkpt lat="44.83601" lon="9.3516517"><ele>815.0</ele><time>2026-04-11T11:12:22.038Z</time></trkpt><trkpt lat="44.8361" lon="9.3515667"><ele>815.0</ele><time>2026-04-11T11:12:23.039Z</time></trkpt><trkpt lat="44.8361967" lon="9.3514667"><ele>815.0</ele><time>2026-04-11T11:12:24.042Z</time></trkpt><trkpt lat="44.836295" lon="9.3513533"><ele>812.75</ele><time>2026-04-11T11:12:25.042Z</time></trkpt><trkpt lat="44.83639" lon="9.35123"><ele>810.5</ele><time>2026-04-11T11:12:26.034Z</time></trkpt><trkpt lat="44.836475" lon="9.3511"><ele>808.25</ele><time>2026-04-11T11:12:27.041Z</time></trkpt><trkpt lat="44.8365483" lon="9.35097"><ele>806.0</ele><time>2026-04-11T11:12:28.04Z</time></trkpt><trkpt lat="44.836605" lon="9.35084"><ele>806.0000000000001</ele><time>2026-04-11T11:12:29.035Z</time></trkpt><trkpt lat="44.8366517" lon="9.350715"><ele>806.0</ele><time>2026-04-11T11:12:30.042Z</time></trkpt><trkpt lat="44.83669" lon="9.3506033"><ele>806.0</ele><time>2026-04-11T11:12:31.038Z</time></trkpt><trkpt lat="44.836725" lon="9.3505"><ele>806.0</ele><time>2026-04-11T11:12:32.04Z</time></trkpt><trkpt lat="44.8367783" lon="9.3504333"><ele>806.0000000000001</ele><time>2026-04-11T11:12:33.031Z</time></trkpt><trkpt lat="44.8368467" lon="9.3503867"><ele>806.0</ele><time>2026-04-11T11:12:34.031Z</time></trkpt><trkpt lat="44.8369433" lon="9.3503333"><ele>804.5</ele><time>2026-04-11T11:12:35.03Z</time></trkpt><trkpt lat="44.8370367" lon="9.350255"><ele>803.0</ele><time>2026-04-11T11:12:36.037Z</time></trkpt><trkpt lat="44.8371483" lon="9.350155"><ele>801.5</ele><time>2026-04-11T11:12:37.041Z</time></trkpt><trkpt lat="44.8372483" lon="9.3500317"><ele>800.0</ele><time>2026-04-11T11:12:38.032Z</time></trkpt><trkpt lat="44.837345" lon="9.349905"><ele>800.0</ele><time>2026-04-11T11:12:39.04Z</time></trkpt><trkpt lat="44.8374467" lon="9.3497817"><ele>800.0</ele><time>2026-04-11T11:12:40.044Z</time></trkpt><trkpt lat="44.8375567" lon="9.349665"><ele>800.0</ele><time>2026-04-11T11:12:41.033Z</time></trkpt><trkpt lat="44.8376633" lon="9.3495567"><ele>800.0</ele><time>2026-04-11T11:12:42.03Z</time></trkpt><trkpt lat="44.8377733" lon="9.3494617"><ele>800.25</ele><time>2026-04-11T11:12:43.033Z</time></trkpt><trkpt lat="44.8378883" lon="9.34938"><ele>800.5</ele><time>2026-04-11T11:12:44.038Z</time></trkpt><trkpt lat="44.837995" lon="9.3493233"><ele>800.75</ele><time>2026-04-11T11:12:45.039Z</time></trkpt><trkpt lat="44.838105" lon="9.3492833"><ele>801.0</ele><time>2026-04-11T11:12:46.041Z</time></trkpt><trkpt lat="44.8382267" lon="9.3492583"><ele>801.0</ele><time>2026-04-11T11:12:47.037Z</time></trkpt><trkpt lat="44.8383633" lon="9.34923"><ele>801.0</ele><time>2026-04-11T11:12:48.03Z</time></trkpt><trkpt lat="44.838495" lon="9.34919"><ele>801.0</ele><time>2026-04-11T11:12:49.041Z</time></trkpt><trkpt lat="44.8386217" lon="9.3491317"><ele>801.0</ele><time>2026-04-11T11:12:50.038Z</time></trkpt><trkpt lat="44.8387433" lon="9.3490617"><ele>800.25</ele><time>2026-04-11T11:12:51.041Z</time></trkpt><trkpt lat="44.8388683" lon="9.3489933"><ele>799.5</ele><time>2026-04-11T11:12:52.038Z</time></trkpt><trkpt lat="44.8389983" lon="9.3489317"><ele>798.75</ele><time>2026-04-11T11:12:53.037Z</time></trkpt><trkpt lat="44.8391267" lon="9.3488767"><ele>798.0</ele><time>2026-04-11T11:12:54.042Z</time></trkpt><trkpt lat="44.8392517" lon="9.348825"><ele>800.25</ele><time>2026-04-11T11:12:55.038Z</time></trkpt><trkpt lat="44.839375" lon="9.34876"><ele>802.5</ele><time>2026-04-11T11:12:56.041Z</time></trkpt><trkpt lat="44.8394917" lon="9.3486817"><ele>804.75</ele><time>2026-04-11T11:12:57.041Z</time></trkpt><trkpt lat="44.8396083" lon="9.34859"><ele>807.0</ele><time>2026-04-11T11:12:58.031Z</time></trkpt><trkpt lat="44.8397233" lon="9.3484917"><ele>807.0</ele><time>2026-04-11T11:12:59.031Z</time></trkpt><trkpt lat="44.83984" lon="9.3483967"><ele>807.0</ele><time>2026-04-11T11:13:00.032Z</time></trkpt><trkpt lat="44.8399483" lon="9.34831"><ele>807.0</ele><time>2026-04-11T11:13:01.031Z</time></trkpt><trkpt lat="44.8400433" lon="9.3482267"><ele>807.0</ele><time>2026-04-11T11:13:02.03Z</time></trkpt><trkpt lat="44.84013" lon="9.3481517"><ele>805.4000000000001</ele><time>2026-04-11T11:13:03.032Z</time></trkpt><trkpt lat="44.8402183" lon="9.348085"><ele>803.8000000000001</ele><time>2026-04-11T11:13:04.031Z</time></trkpt><trkpt lat="44.8403067" lon="9.348045"><ele>802.2</ele><time>2026-04-11T11:13:05.031Z</time></trkpt><trkpt lat="44.8404033" lon="9.3480067"><ele>800.6</ele><time>2026-04-11T11:13:06.03Z</time></trkpt><trkpt lat="44.8405133" lon="9.3479683"><ele>799.0</ele><time>2026-04-11T11:13:07.031Z</time></trkpt><trkpt lat="44.84063" lon="9.34793"><ele>798.6</ele><time>2026-04-11T11:13:08.03Z</time></trkpt><trkpt lat="44.8407483" lon="9.3478933"><ele>798.2</ele><time>2026-04-11T11:13:09.033Z</time></trkpt><trkpt lat="44.8408483" lon="9.3478517"><ele>797.8000000000001</ele><time>2026-04-11T11:13:10.031Z</time></trkpt><trkpt lat="44.84094" lon="9.3478083"><ele>797.4000000000001</ele><time>2026-04-11T11:13:11.03Z</time></trkpt><trkpt lat="44.8410333" lon="9.3477717"><ele>797.0</ele><time>2026-04-11T11:13:12.039Z</time></trkpt><trkpt lat="44.84113" lon="9.3477717"><ele>796.0000000000001</ele><time>2026-04-11T11:13:13.035Z</time></trkpt><trkpt lat="44.8412133" lon="9.347775"><ele>795.0</ele><time>2026-04-11T11:13:14.03Z</time></trkpt><trkpt lat="44.841295" lon="9.3477583"><ele>794.0</ele><time>2026-04-11T11:13:15.03Z</time></trkpt><trkpt lat="44.8413683" lon="9.347745"><ele>793.0</ele><time>2026-04-11T11:13:16.03Z</time></trkpt><trkpt lat="44.8414467" lon="9.3477483"><ele>792.0000000000001</ele><time>2026-04-11T11:13:17.035Z</time></trkpt><trkpt lat="44.8415217" lon="9.3477583"><ele>791.0</ele><time>2026-04-11T11:13:18.033Z</time></trkpt><trkpt lat="44.841595" lon="9.3477667"><ele>791.0000000000001</ele><time>2026-04-11T11:13:19.031Z</time></trkpt><trkpt lat="44.8416717" lon="9.34777"><ele>791.0</ele><time>2026-04-11T11:13:20.031Z</time></trkpt><trkpt lat="44.841745" lon="9.347785"><ele>791.0</ele><time>2026-04-11T11:13:21.031Z</time></trkpt><trkpt lat="44.84187" lon="9.347845"><ele>791.0</ele><time>2026-04-11T11:13:23.031Z</time></trkpt><trkpt lat="44.8419433" lon="9.3478933"><ele>791.0000000000001</ele><time>2026-04-11T11:13:24.03Z</time></trkpt><trkpt lat="44.8420167" lon="9.3479367"><ele>791.0</ele><time>2026-04-11T11:13:25.033Z</time></trkpt><trkpt lat="44.842095" lon="9.3479583"><ele>788.5999999999999</ele><time>2026-04-11T11:13:26.032Z</time></trkpt><trkpt lat="44.842165" lon="9.34797"><ele>786.2</ele><time>2026-04-11T11:13:27.034Z</time></trkpt><trkpt lat="44.842245" lon="9.3479633"><ele>783.8</ele><time>2026-04-11T11:13:28.041Z</time></trkpt><trkpt lat="44.8423483" lon="9.3479467"><ele>781.4000000000001</ele><time>2026-04-11T11:13:29.031Z</time></trkpt><trkpt lat="44.8424633" lon="9.3479333"><ele>779.0</ele><time>2026-04-11T11:13:30.031Z</time></trkpt><trkpt lat="44.8425767" lon="9.3479167"><ele>778.4000000000001</ele><time>2026-04-11T11:13:31.031Z</time></trkpt><trkpt lat="44.842685" lon="9.3478833"><ele>777.8</ele><time>2026-04-11T11:13:32.03Z</time></trkpt><trkpt lat="44.8427917" lon="9.3478417"><ele>777.2</ele><time>2026-04-11T11:13:33.033Z</time></trkpt><trkpt lat="44.842895" lon="9.3478067"><ele>776.5999999999999</ele><time>2026-04-11T11:13:34.031Z</time></trkpt><trkpt lat="44.843005" lon="9.3478033"><ele>776.0</ele><time>2026-04-11T11:13:35.034Z</time></trkpt><trkpt lat="44.8431" lon="9.347835"><ele>776.0</ele><time>2026-04-11T11:13:36.038Z</time></trkpt><trkpt lat="44.8431883" lon="9.3478833"><ele>776.0</ele><time>2026-04-11T11:13:37.03Z</time></trkpt><trkpt lat="44.8432617" lon="9.3479467"><ele>776.0</ele><time>2026-04-11T11:13:38.032Z</time></trkpt><trkpt lat="44.8433367" lon="9.3479683"><ele>776.0</ele><time>2026-04-11T11:13:39.032Z</time></trkpt><trkpt lat="44.8434367" lon="9.3479583"><ele>776.0</ele><time>2026-04-11T11:13:40.031Z</time></trkpt><trkpt lat="44.8435367" lon="9.3479617"><ele>774.8</ele><time>2026-04-11T11:13:41.03Z</time></trkpt><trkpt lat="44.8436317" lon="9.3479717"><ele>773.5999999999999</ele><time>2026-04-11T11:13:42.031Z</time></trkpt><trkpt lat="44.84373" lon="9.3479917"><ele>772.4</ele><time>2026-04-11T11:13:43.036Z</time></trkpt><trkpt lat="44.8438283" lon="9.3480133"><ele>771.2</ele><time>2026-04-11T11:13:44.032Z</time></trkpt><trkpt lat="44.84392" lon="9.3480267"><ele>770.0</ele><time>2026-04-11T11:13:45.034Z</time></trkpt><trkpt lat="44.8440067" lon="9.3479983"><ele>770.0</ele><time>2026-04-11T11:13:46.03Z</time></trkpt><trkpt lat="44.8440833" lon="9.3479367"><ele>770.0</ele><time>2026-04-11T11:13:47.031Z</time></trkpt><trkpt lat="44.8441617" lon="9.347865"><ele>770.0</ele><time>2026-04-11T11:13:48.03Z</time></trkpt><trkpt lat="44.8442417" lon="9.347815"><ele>770.0</ele><time>2026-04-11T11:13:49.03Z</time></trkpt><trkpt lat="44.84434" lon="9.347775"><ele>770.0</ele><time>2026-04-11T11:13:50.039Z</time></trkpt><trkpt lat="44.8444667" lon="9.3477367"><ele>768.75</ele><time>2026-04-11T11:13:51.034Z</time></trkpt><trkpt lat="44.8445917" lon="9.3477"><ele>767.5</ele><time>2026-04-11T11:13:52.03Z</time></trkpt><trkpt lat="44.8447283" lon="9.3476817"><ele>766.25</ele><time>2026-04-11T11:13:53.03Z</time></trkpt><trkpt lat="44.8448617" lon="9.34767"><ele>765.0</ele><time>2026-04-11T11:13:54.036Z</time></trkpt><trkpt lat="44.8449917" lon="9.347655"><ele>765.0</ele><time>2026-04-11T11:13:55.03Z</time></trkpt><trkpt lat="44.8451167" lon="9.3476267"><ele>765.0</ele><time>2026-04-11T11:13:56.03Z</time></trkpt><trkpt lat="44.8452367" lon="9.3475967"><ele>765.0</ele><time>2026-04-11T11:13:57.032Z</time></trkpt><trkpt lat="44.8453583" lon="9.3475733"><ele>765.0</ele><time>2026-04-11T11:13:58.035Z</time></trkpt><trkpt lat="44.8454633" lon="9.3475483"><ele>764.0</ele><time>2026-04-11T11:13:59.031Z</time></trkpt><trkpt lat="44.845555" lon="9.3475133"><ele>763.0</ele><time>2026-04-11T11:14:00.032Z</time></trkpt><trkpt lat="44.8456467" lon="9.3474633"><ele>762.0</ele><time>2026-04-11T11:14:01.031Z</time></trkpt><trkpt lat="44.8457433" lon="9.3474033"><ele>761.0</ele><time>2026-04-11T11:14:02.032Z</time></trkpt><trkpt lat="44.8458483" lon="9.3473717"><ele>760.0</ele><time>2026-04-11T11:14:03.031Z</time></trkpt><trkpt lat="44.8459867" lon="9.3473567"><ele>759.3333333333334</ele><time>2026-04-11T11:14:04.034Z</time></trkpt><trkpt lat="44.84613" lon="9.34735"><ele>758.6666666666666</ele><time>2026-04-11T11:14:05.031Z</time></trkpt><trkpt lat="44.84628" lon="9.3473567"><ele>758.0</ele><time>2026-04-11T11:14:06.032Z</time></trkpt><trkpt lat="44.84644" lon="9.3473717"><ele>758.0</ele><time>2026-04-11T11:14:07.032Z</time></trkpt><trkpt lat="44.8465967" lon="9.347405"><ele>758.0</ele><time>2026-04-11T11:14:08.03Z</time></trkpt><trkpt lat="44.84674" lon="9.3474483"><ele>758.0</ele><time>2026-04-11T11:14:09.034Z</time></trkpt><trkpt lat="44.8468717" lon="9.3474983"><ele>758.0</ele><time>2026-04-11T11:14:10.03Z</time></trkpt><trkpt lat="44.8470067" lon="9.3475367"><ele>758.0</ele><time>2026-04-11T11:14:11.029Z</time></trkpt><trkpt lat="44.8471367" lon="9.3475617"><ele>758.0</ele><time>2026-04-11T11:14:12.03Z</time></trkpt><trkpt lat="44.8472683" lon="9.347575"><ele>758.0</ele><time>2026-04-11T11:14:13.03Z</time></trkpt><trkpt lat="44.8473967" lon="9.3475883"><ele>758.0</ele><time>2026-04-11T11:14:14.038Z</time></trkpt><trkpt lat="44.8475183" lon="9.34761"><ele>758.0</ele><time>2026-04-11T11:14:15.029Z</time></trkpt><trkpt lat="44.8476267" lon="9.34764"><ele>758.0</ele><time>2026-04-11T11:14:16.03Z</time></trkpt><trkpt lat="44.8477383" lon="9.3476683"><ele>758.0</ele><time>2026-04-11T11:14:17.035Z</time></trkpt><trkpt lat="44.84784" lon="9.3476817"><ele>758.0</ele><time>2026-04-11T11:14:18.034Z</time></trkpt><trkpt lat="44.84792" lon="9.3476733"><ele>758.0</ele><time>2026-04-11T11:14:19.031Z</time></trkpt><trkpt lat="44.847995" lon="9.3476883"><ele>757.8333333333333</ele><time>2026-04-11T11:14:20.034Z</time></trkpt><trkpt lat="44.8480733" lon="9.3477267"><ele>757.6666666666666</ele><time>2026-04-11T11:14:21.031Z</time></trkpt><trkpt lat="44.84816" lon="9.3477733"><ele>757.5</ele><time>2026-04-11T11:14:22.032Z</time></trkpt><trkpt lat="44.8482517" lon="9.3478167"><ele>757.3333333333334</ele><time>2026-04-11T11:14:23.03Z</time></trkpt><trkpt lat="44.8483367" lon="9.347845"><ele>757.1666666666667</ele><time>2026-04-11T11:14:24.03Z</time></trkpt><trkpt lat="44.84841" lon="9.3478567"><ele>757.0</ele><time>2026-04-11T11:14:25.03Z</time></trkpt><trkpt lat="44.84849" lon="9.3478567"><ele>755.6</ele><time>2026-04-11T11:14:26.032Z</time></trkpt><trkpt lat="44.84859" lon="9.3478517"><ele>754.2</ele><time>2026-04-11T11:14:27.032Z</time></trkpt><trkpt lat="44.8486967" lon="9.34785"><ele>752.8</ele><time>2026-04-11T11:14:28.031Z</time></trkpt><trkpt lat="44.8487967" lon="9.3478383"><ele>751.4</ele><time>2026-04-11T11:14:29.031Z</time></trkpt><trkpt lat="44.84889" lon="9.3478233"><ele>750.0</ele><time>2026-04-11T11:14:30.031Z</time></trkpt><trkpt lat="44.849" lon="9.347805"><ele>750.0</ele><time>2026-04-11T11:14:31.031Z</time></trkpt><trkpt lat="44.8491083" lon="9.3477767"><ele>750.0</ele><time>2026-04-11T11:14:32.031Z</time></trkpt><trkpt lat="44.8492117" lon="9.3477417"><ele>750.0</ele><time>2026-04-11T11:14:33.032Z</time></trkpt><trkpt lat="44.849315" lon="9.34772"><ele>750.0</ele><time>2026-04-11T11:14:34.03Z</time></trkpt><trkpt lat="44.8494133" lon="9.347705"><ele>750.0</ele><time>2026-04-11T11:14:35.03Z</time></trkpt><trkpt lat="44.849505" lon="9.3477"><ele>747.2</ele><time>2026-04-11T11:14:36.031Z</time></trkpt><trkpt lat="44.8495933" lon="9.347695"><ele>744.4</ele><time>2026-04-11T11:14:37.033Z</time></trkpt><trkpt lat="44.8496933" lon="9.347675"><ele>741.5999999999999</ele><time>2026-04-11T11:14:38.041Z</time></trkpt><trkpt lat="44.8497933" lon="9.347645"><ele>738.8</ele><time>2026-04-11T11:14:39.041Z</time></trkpt><trkpt lat="44.8499" lon="9.3475833"><ele>736.0</ele><time>2026-04-11T11:14:40.032Z</time></trkpt><trkpt lat="44.85" lon="9.3475083"><ele>736.0</ele><time>2026-04-11T11:14:41.03Z</time></trkpt><trkpt lat="44.8500833" lon="9.3474533"><ele>736.0</ele><time>2026-04-11T11:14:42.031Z</time></trkpt><trkpt lat="44.8501583" lon="9.3474083"><ele>736.0</ele><time>2026-04-11T11:14:43.038Z</time></trkpt><trkpt lat="44.8502117" lon="9.3473367"><ele>736.0</ele><time>2026-04-11T11:14:44.04Z</time></trkpt><trkpt lat="44.8502517" lon="9.3472517"><ele>736.0</ele><time>2026-04-11T11:14:45.033Z</time></trkpt><trkpt lat="44.8502983" lon="9.34718"><ele>736.0</ele><time>2026-04-11T11:14:46.039Z</time></trkpt><trkpt lat="44.8503533" lon="9.3471267"><ele>734.4</ele><time>2026-04-11T11:14:47.04Z</time></trkpt><trkpt lat="44.8504183" lon="9.3471"><ele>732.8</ele><time>2026-04-11T11:14:48.04Z</time></trkpt><trkpt lat="44.8505" lon="9.3470867"><ele>731.1999999999999</ele><time>2026-04-11T11:14:49.036Z</time></trkpt><trkpt lat="44.8506" lon="9.347085"><ele>729.5999999999999</ele><time>2026-04-11T11:14:50.037Z</time></trkpt><trkpt lat="44.8507117" lon="9.347065"><ele>728.0</ele><time>2026-04-11T11:14:51.041Z</time></trkpt><trkpt lat="44.850835" lon="9.3470367"><ele>727.75</ele><time>2026-04-11T11:14:52.039Z</time></trkpt><trkpt lat="44.8509633" lon="9.3470033"><ele>727.5</ele><time>2026-04-11T11:14:53.036Z</time></trkpt><trkpt lat="44.851095" lon="9.34697"><ele>727.25</ele><time>2026-04-11T11:14:54.039Z</time></trkpt><trkpt lat="44.8512267" lon="9.3469333"><ele>727.0</ele><time>2026-04-11T11:14:55.04Z</time></trkpt><trkpt lat="44.8513517" lon="9.3468983"><ele>727.0</ele><time>2026-04-11T11:14:56.037Z</time></trkpt><trkpt lat="44.85148" lon="9.3468633"><ele>727.0</ele><time>2026-04-11T11:14:57.043Z</time></trkpt><trkpt lat="44.85161" lon="9.346825"><ele>727.0</ele><time>2026-04-11T11:14:58.036Z</time></trkpt><trkpt lat="44.851735" lon="9.3467833"><ele>727.0</ele><time>2026-04-11T11:14:59.04Z</time></trkpt><trkpt lat="44.8518533" lon="9.3467267"><ele>726.0</ele><time>2026-04-11T11:15:00.031Z</time></trkpt><trkpt lat="44.851955" lon="9.34665"><ele>725.0</ele><time>2026-04-11T11:15:01.04Z</time></trkpt><trkpt lat="44.852045" lon="9.3465667"><ele>724.0</ele><time>2026-04-11T11:15:02.039Z</time></trkpt><trkpt lat="44.8521267" lon="9.346475"><ele>723.0</ele><time>2026-04-11T11:15:03.035Z</time></trkpt><trkpt lat="44.8522117" lon="9.3463933"><ele>722.0</ele><time>2026-04-11T11:15:04.038Z</time></trkpt><trkpt lat="44.8522917" lon="9.3463367"><ele>721.6</ele><time>2026-04-11T11:15:05.038Z</time></trkpt><trkpt lat="44.8523817" lon="9.3462933"><ele>721.2</ele><time>2026-04-11T11:15:06.03Z</time></trkpt><trkpt lat="44.852475" lon="9.346255"><ele>720.8</ele><time>2026-04-11T11:15:07.034Z</time></trkpt><trkpt lat="44.8525667" lon="9.34621"><ele>720.4</ele><time>2026-04-11T11:15:08.042Z</time></trkpt><trkpt lat="44.8526567" lon="9.346155"><ele>720.0</ele><time>2026-04-11T11:15:09.039Z</time></trkpt><trkpt lat="44.8527433" lon="9.3460867"><ele>720.8333333333334</ele><time>2026-04-11T11:15:10.034Z</time></trkpt><trkpt lat="44.8528267" lon="9.3460117"><ele>721.6666666666666</ele><time>2026-04-11T11:15:11.034Z</time></trkpt><trkpt lat="44.8529083" lon="9.3459483"><ele>722.5</ele><time>2026-04-11T11:15:12.032Z</time></trkpt><trkpt lat="44.8529883" lon="9.3458967"><ele>723.3333333333333</ele><time>2026-04-11T11:15:13.031Z</time></trkpt><trkpt lat="44.8530667" lon="9.3458617"><ele>724.1666666666666</ele><time>2026-04-11T11:15:14.034Z</time></trkpt><trkpt lat="44.8531467" lon="9.345835"><ele>725.0</ele><time>2026-04-11T11:15:15.042Z</time></trkpt><trkpt lat="44.8532433" lon="9.3458183"><ele>725.0</ele><time>2026-04-11T11:15:16.044Z</time></trkpt><trkpt lat="44.8533467" lon="9.3458"><ele>725.0</ele><time>2026-04-11T11:15:17.04Z</time></trkpt><trkpt lat="44.8534583" lon="9.3457733"><ele>725.0</ele><time>2026-04-11T11:15:18.039Z</time></trkpt><trkpt lat="44.8535633" lon="9.345745"><ele>725.0</ele><time>2026-04-11T11:15:19.032Z</time></trkpt><trkpt lat="44.8536667" lon="9.3457133"><ele>725.0</ele><time>2026-04-11T11:15:20.042Z</time></trkpt><trkpt lat="44.853765" lon="9.345695"><ele>728.0</ele><time>2026-04-11T11:15:21.041Z</time></trkpt><trkpt lat="44.8538617" lon="9.3456917"><ele>731.0</ele><time>2026-04-11T11:15:22.034Z</time></trkpt><trkpt lat="44.8539567" lon="9.3456833"><ele>734.0</ele><time>2026-04-11T11:15:23.032Z</time></trkpt><trkpt lat="44.8540617" lon="9.34566"><ele>737.0</ele><time>2026-04-11T11:15:24.031Z</time></trkpt><trkpt lat="44.85415" lon="9.3456417"><ele>740.0</ele><time>2026-04-11T11:15:25.031Z</time></trkpt><trkpt lat="44.8542383" lon="9.34561"><ele>740.0</ele><time>2026-04-11T11:15:26.032Z</time></trkpt><trkpt lat="44.8543217" lon="9.34557"><ele>740.0</ele><time>2026-04-11T11:15:27.033Z</time></trkpt><trkpt lat="44.8544183" lon="9.34556"><ele>740.0</ele><time>2026-04-11T11:15:28.032Z</time></trkpt><trkpt lat="44.8545317" lon="9.3455583"><ele>740.0</ele><time>2026-04-11T11:15:29.035Z</time></trkpt><trkpt lat="44.854645" lon="9.3455417"><ele>740.0</ele><time>2026-04-11T11:15:30.031Z</time></trkpt><trkpt lat="44.8547683" lon="9.3455217"><ele>740.0</ele><time>2026-04-11T11:15:31.031Z</time></trkpt><trkpt lat="44.8548867" lon="9.345495"><ele>740.0</ele><time>2026-04-11T11:15:32.033Z</time></trkpt><trkpt lat="44.8549933" lon="9.3454767"><ele>740.0</ele><time>2026-04-11T11:15:33.038Z</time></trkpt><trkpt lat="44.8551017" lon="9.345475"><ele>740.0</ele><time>2026-04-11T11:15:34.032Z</time></trkpt><trkpt lat="44.855215" lon="9.3454767"><ele>740.0</ele><time>2026-04-11T11:15:35.032Z</time></trkpt><trkpt lat="44.8553417" lon="9.3454833"><ele>742.75</ele><time>2026-04-11T11:15:36.039Z</time></trkpt><trkpt lat="44.8554717" lon="9.3454933"><ele>745.5</ele><time>2026-04-11T11:15:37.032Z</time></trkpt><trkpt lat="44.8556083" lon="9.3455067"><ele>748.25</ele><time>2026-04-11T11:15:38.035Z</time></trkpt><trkpt lat="44.8557333" lon="9.3455083"><ele>751.0</ele><time>2026-04-11T11:15:39.031Z</time></trkpt><trkpt lat="44.855835" lon="9.3455"><ele>751.0</ele><time>2026-04-11T11:15:40.03Z</time></trkpt><trkpt lat="44.85593" lon="9.345515"><ele>751.0</ele><time>2026-04-11T11:15:41.031Z</time></trkpt><trkpt lat="44.8560133" lon="9.34554"><ele>751.0</ele><time>2026-04-11T11:15:42.031Z</time></trkpt><trkpt lat="44.8560933" lon="9.3455517"><ele>751.0</ele><time>2026-04-11T11:15:43.031Z</time></trkpt><trkpt lat="44.85618" lon="9.3455417"><ele>751.0</ele><time>2026-04-11T11:15:44.036Z</time></trkpt><trkpt lat="44.8562883" lon="9.3455133"><ele>752.5999999999999</ele><time>2026-04-11T11:15:45.032Z</time></trkpt><trkpt lat="44.8564" lon="9.3454983"><ele>754.2</ele><time>2026-04-11T11:15:46.03Z</time></trkpt><trkpt lat="44.856505" lon="9.3455183"><ele>755.8</ele><time>2026-04-11T11:15:47.03Z</time></trkpt><trkpt lat="44.8566083" lon="9.3455667"><ele>757.4000000000001</ele><time>2026-04-11T11:15:48.035Z</time></trkpt><trkpt lat="44.8567133" lon="9.3456333"><ele>759.0</ele><time>2026-04-11T11:15:49.032Z</time></trkpt><trkpt lat="44.8568067" lon="9.345695"><ele>761.0</ele><time>2026-04-11T11:15:50.031Z</time></trkpt><trkpt lat="44.8568917" lon="9.3457383"><ele>763.0</ele><time>2026-04-11T11:15:51.031Z</time></trkpt><trkpt lat="44.8569867" lon="9.34579"><ele>765.0</ele><time>2026-04-11T11:15:52.033Z</time></trkpt><trkpt lat="44.8570967" lon="9.3458483"><ele>767.0</ele><time>2026-04-11T11:15:53.033Z</time></trkpt><trkpt lat="44.857195" lon="9.3459033"><ele>769.0</ele><time>2026-04-11T11:15:54.037Z</time></trkpt><trkpt lat="44.8572933" lon="9.3459283"><ele>769.0</ele><time>2026-04-11T11:15:55.032Z</time></trkpt><trkpt lat="44.8573783" lon="9.3459133"><ele>769.0</ele><time>2026-04-11T11:15:56.033Z</time></trkpt><trkpt lat="44.8574667" lon="9.3458833"><ele>769.0</ele><time>2026-04-11T11:15:57.033Z</time></trkpt><trkpt lat="44.8575667" lon="9.345875"><ele>769.0</ele><time>2026-04-11T11:15:58.031Z</time></trkpt><trkpt lat="44.8576717" lon="9.3458867"><ele>769.0</ele><time>2026-04-11T11:15:59.031Z</time></trkpt><trkpt lat="44.8577817" lon="9.3459033"><ele>770.4000000000001</ele><time>2026-04-11T11:16:00.031Z</time></trkpt><trkpt lat="44.8578867" lon="9.3459083"><ele>771.8</ele><time>2026-04-11T11:16:01.032Z</time></trkpt><trkpt lat="44.8579983" lon="9.345915"><ele>773.2</ele><time>2026-04-11T11:16:02.035Z</time></trkpt><trkpt lat="44.8580883" lon="9.3459267"><ele>774.5999999999999</ele><time>2026-04-11T11:16:03.034Z</time></trkpt><trkpt lat="44.8581833" lon="9.3459033"><ele>776.0</ele><time>2026-04-11T11:16:04.037Z</time></trkpt><trkpt lat="44.8582733" lon="9.3458633"><ele>776.0000000000001</ele><time>2026-04-11T11:16:05.03Z</time></trkpt><trkpt lat="44.8583533" lon="9.34584"><ele>776.0</ele><time>2026-04-11T11:16:06.03Z</time></trkpt><trkpt lat="44.858425" lon="9.3458217"><ele>776.0</ele><time>2026-04-11T11:16:07.031Z</time></trkpt><trkpt lat="44.858515" lon="9.345805"><ele>776.0</ele><time>2026-04-11T11:16:08.031Z</time></trkpt><trkpt lat="44.8586" lon="9.345805"><ele>776.0000000000001</ele><time>2026-04-11T11:16:09.037Z</time></trkpt><trkpt lat="44.858675" lon="9.3458083"><ele>776.0</ele><time>2026-04-11T11:16:10.033Z</time></trkpt><trkpt lat="44.8587533" lon="9.3457983"><ele>776.1666666666667</ele><time>2026-04-11T11:16:11.031Z</time></trkpt><trkpt lat="44.858835" lon="9.3457867"><ele>776.3333333333334</ele><time>2026-04-11T11:16:12.029Z</time></trkpt><trkpt lat="44.85892" lon="9.3457883"><ele>776.5</ele><time>2026-04-11T11:16:13.031Z</time></trkpt><trkpt lat="44.859025" lon="9.345785"><ele>776.6666666666667</ele><time>2026-04-11T11:16:14.03Z</time></trkpt><trkpt lat="44.8591167" lon="9.3457783"><ele>776.8333333333334</ele><time>2026-04-11T11:16:15.031Z</time></trkpt><trkpt lat="44.8591883" lon="9.34577"><ele>777.0</ele><time>2026-04-11T11:16:16.032Z</time></trkpt><trkpt lat="44.85928" lon="9.3457283"><ele>777.75</ele><time>2026-04-11T11:16:18.03Z</time></trkpt><trkpt lat="44.8593567" lon="9.345625"><ele>778.5</ele><time>2026-04-11T11:16:20.031Z</time></trkpt><trkpt lat="44.85946" lon="9.3454917"><ele>779.25</ele><time>2026-04-11T11:16:22.031Z</time></trkpt><trkpt lat="44.8595517" lon="9.3453717"><ele>780.0</ele><time>2026-04-11T11:16:23.03Z</time></trkpt><trkpt lat="44.8596483" lon="9.34524"><ele>780.0</ele><time>2026-04-11T11:16:24.043Z</time></trkpt><trkpt lat="44.8597283" lon="9.3451283"><ele>780.0</ele><time>2026-04-11T11:16:25.033Z</time></trkpt><trkpt lat="44.8597933" lon="9.3450333"><ele>780.0</ele><time>2026-04-11T11:16:26.031Z</time></trkpt><trkpt lat="44.8598583" lon="9.3449517"><ele>780.0</ele><time>2026-04-11T11:16:27.032Z</time></trkpt><trkpt lat="44.859915" lon="9.3448783"><ele>780.0</ele><time>2026-04-11T11:16:28.031Z</time></trkpt><trkpt lat="44.859965" lon="9.3448083"><ele>780.0</ele><time>2026-04-11T11:16:29.034Z</time></trkpt><trkpt lat="44.8599967" lon="9.3447117"><ele>779.5</ele><time>2026-04-11T11:16:30.031Z</time></trkpt><trkpt lat="44.8600267" lon="9.3445933"><ele>779.0</ele><time>2026-04-11T11:16:31.031Z</time></trkpt><trkpt lat="44.8600483" lon="9.3444767"><ele>778.5</ele><time>2026-04-11T11:16:32.031Z</time></trkpt><trkpt lat="44.8600667" lon="9.34437"><ele>778.0</ele><time>2026-04-11T11:16:33.034Z</time></trkpt><trkpt lat="44.860095" lon="9.344275"><ele>777.5</ele><time>2026-04-11T11:16:34.03Z</time></trkpt><trkpt lat="44.8601317" lon="9.3441867"><ele>777.0</ele><time>2026-04-11T11:16:35.031Z</time></trkpt><trkpt lat="44.860175" lon="9.3441067"><ele>777.0</ele><time>2026-04-11T11:16:36.031Z</time></trkpt><trkpt lat="44.8602167" lon="9.344035"><ele>777.0</ele><time>2026-04-11T11:16:37.032Z</time></trkpt><trkpt lat="44.8602583" lon="9.3439617"><ele>777.0</ele><time>2026-04-11T11:16:38.031Z</time></trkpt><trkpt lat="44.8603167" lon="9.343825"><ele>777.0</ele><time>2026-04-11T11:16:40.029Z</time></trkpt><trkpt lat="44.8603717" lon="9.3436583"><ele>777.0</ele><time>2026-04-11T11:16:42.03Z</time></trkpt><trkpt lat="44.8604217" lon="9.3435533"><ele>777.0</ele><time>2026-04-11T11:16:43.031Z</time></trkpt><trkpt lat="44.860485" lon="9.3434383"><ele>777.0</ele><time>2026-04-11T11:16:44.033Z</time></trkpt><trkpt lat="44.8605433" lon="9.3433533"><ele>777.0</ele><time>2026-04-11T11:16:45.031Z</time></trkpt><trkpt lat="44.8605967" lon="9.3432583"><ele>777.0</ele><time>2026-04-11T11:16:46.031Z</time></trkpt><trkpt lat="44.8606433" lon="9.34314"><ele>777.0</ele><time>2026-04-11T11:16:47.031Z</time></trkpt><trkpt lat="44.8606983" lon="9.3430683"><ele>777.0</ele><time>2026-04-11T11:16:48.03Z</time></trkpt><trkpt lat="44.8607533" lon="9.343015"><ele>776.8</ele><time>2026-04-11T11:16:49.03Z</time></trkpt><trkpt lat="44.860835" lon="9.3429133"><ele>776.6</ele><time>2026-04-11T11:16:51.034Z</time></trkpt><trkpt lat="44.8609267" lon="9.342795"><ele>776.4</ele><time>2026-04-11T11:16:53.03Z</time></trkpt><trkpt lat="44.8610083" lon="9.342745"><ele>776.1999999999999</ele><time>2026-04-11T11:16:54.033Z</time></trkpt><trkpt lat="44.8611" lon="9.34272"><ele>776.0</ele><time>2026-04-11T11:16:55.031Z</time></trkpt><trkpt lat="44.8611983" lon="9.3426917"><ele>775.75</ele><time>2026-04-11T11:16:56.031Z</time></trkpt><trkpt lat="44.8613267" lon="9.342655"><ele>775.5</ele><time>2026-04-11T11:16:57.036Z</time></trkpt><trkpt lat="44.86145" lon="9.34261"><ele>775.25</ele><time>2026-04-11T11:16:58.031Z</time></trkpt><trkpt lat="44.86158" lon="9.3425583"><ele>775.0</ele><time>2026-04-11T11:16:59.034Z</time></trkpt><trkpt lat="44.861685" lon="9.3425133"><ele>774.4</ele><time>2026-04-11T11:17:00.031Z</time></trkpt><trkpt lat="44.8617833" lon="9.34247"><ele>773.8</ele><time>2026-04-11T11:17:01.033Z</time></trkpt><trkpt lat="44.8618833" lon="9.3424167"><ele>773.2</ele><time>2026-04-11T11:17:02.032Z</time></trkpt><trkpt lat="44.8619867" lon="9.34236"><ele>772.6</ele><time>2026-04-11T11:17:03.031Z</time></trkpt><trkpt lat="44.8620917" lon="9.3423133"><ele>772.0</ele><time>2026-04-11T11:17:04.03Z</time></trkpt><trkpt lat="44.862175" lon="9.3422533"><ele>771.6</ele><time>2026-04-11T11:17:05.038Z</time></trkpt><trkpt lat="44.8622667" lon="9.3421933"><ele>771.2</ele><time>2026-04-11T11:17:06.034Z</time></trkpt><trkpt lat="44.862365" lon="9.342175"><ele>770.8</ele><time>2026-04-11T11:17:07.043Z</time></trkpt><trkpt lat="44.8624617" lon="9.3421633"><ele>770.4</ele><time>2026-04-11T11:17:08.033Z</time></trkpt><trkpt lat="44.8625533" lon="9.3421583"><ele>770.0</ele><time>2026-04-11T11:17:09.034Z</time></trkpt><trkpt lat="44.86265" lon="9.3421417"><ele>770.0</ele><time>2026-04-11T11:17:11.037Z</time></trkpt><trkpt lat="44.862765" lon="9.3420433"><ele>770.0</ele><time>2026-04-11T11:17:13.033Z</time></trkpt><trkpt lat="44.8628983" lon="9.3420333"><ele>770.0</ele><time>2026-04-11T11:17:15.031Z</time></trkpt><trkpt lat="44.862975" lon="9.3420317"><ele>770.0</ele><time>2026-04-11T11:17:16.036Z</time></trkpt><trkpt lat="44.8631083" lon="9.3420133"><ele>770.0000000000001</ele><time>2026-04-11T11:17:18.032Z</time></trkpt><trkpt lat="44.863185" lon="9.3420017"><ele>770.0</ele><time>2026-04-11T11:17:19.034Z</time></trkpt><trkpt lat="44.86326" lon="9.3419867"><ele>770.0</ele><time>2026-04-11T11:17:20.033Z</time></trkpt><trkpt lat="44.8633483" lon="9.3419617"><ele>770.0</ele><time>2026-04-11T11:17:21.032Z</time></trkpt><trkpt lat="44.8634433" lon="9.3419433"><ele>770.0000000000001</ele><time>2026-04-11T11:17:22.033Z</time></trkpt><trkpt lat="44.8635433" lon="9.3419333"><ele>770.0</ele><time>2026-04-11T11:17:23.04Z</time></trkpt><trkpt lat="44.8636383" lon="9.3419533"><ele>771.1666666666667</ele><time>2026-04-11T11:17:24.033Z</time></trkpt><trkpt lat="44.8637267" lon="9.3419917"><ele>772.3333333333334</ele><time>2026-04-11T11:17:25.04Z</time></trkpt><trkpt lat="44.8637983" lon="9.3420367"><ele>773.5</ele><time>2026-04-11T11:17:26.033Z</time></trkpt><trkpt lat="44.8638683" lon="9.3420867"><ele>774.6666666666667</ele><time>2026-04-11T11:17:27.033Z</time></trkpt><trkpt lat="44.863945" lon="9.3421283"><ele>775.8333333333334</ele><time>2026-04-11T11:17:28.039Z</time></trkpt><trkpt lat="44.8640283" lon="9.3421533"><ele>777.0</ele><time>2026-04-11T11:17:29.033Z</time></trkpt><trkpt lat="44.8641233" lon="9.342165"><ele>777.0</ele><time>2026-04-11T11:17:30.032Z</time></trkpt><trkpt lat="44.8642267" lon="9.3421717"><ele>777.0</ele><time>2026-04-11T11:17:31.033Z</time></trkpt><trkpt lat="44.8643183" lon="9.3421783"><ele>777.0</ele><time>2026-04-11T11:17:32.031Z</time></trkpt><trkpt lat="44.8644083" lon="9.3421833"><ele>777.0</ele><time>2026-04-11T11:17:33.031Z</time></trkpt><trkpt lat="44.8645017" lon="9.3421967"><ele>777.0</ele><time>2026-04-11T11:17:34.032Z</time></trkpt><trkpt lat="44.8645983" lon="9.34221"><ele>778.1666666666666</ele><time>2026-04-11T11:17:35.034Z</time></trkpt><trkpt lat="44.8647017" lon="9.3422083"><ele>779.3333333333333</ele><time>2026-04-11T11:17:36.031Z</time></trkpt><trkpt lat="44.864815" lon="9.3422167"><ele>780.5</ele><time>2026-04-11T11:17:37.033Z</time></trkpt><trkpt lat="44.8648833" lon="9.3422483"><ele>781.6666666666666</ele><time>2026-04-11T11:17:38.031Z</time></trkpt><trkpt lat="44.8649483" lon="9.342275"><ele>782.8333333333333</ele><time>2026-04-11T11:17:39.03Z</time></trkpt><trkpt lat="44.865035" lon="9.3423033"><ele>784.0</ele><time>2026-04-11T11:17:40.03Z</time></trkpt><trkpt lat="44.8651117" lon="9.3423483"><ele>783.9999999999999</ele><time>2026-04-11T11:17:41.032Z</time></trkpt><trkpt lat="44.8651583" lon="9.3424117"><ele>784.0</ele><time>2026-04-11T11:17:42.037Z</time></trkpt><trkpt lat="44.86522" lon="9.3424717"><ele>784.0</ele><time>2026-04-11T11:17:43.036Z</time></trkpt><trkpt lat="44.8653067" lon="9.3425317"><ele>784.0</ele><time>2026-04-11T11:17:44.033Z</time></trkpt><trkpt lat="44.8654017" lon="9.3425933"><ele>783.9999999999999</ele><time>2026-04-11T11:17:45.034Z</time></trkpt><trkpt lat="44.8654967" lon="9.342645"><ele>784.0</ele><time>2026-04-11T11:17:46.03Z</time></trkpt><trkpt lat="44.86557" lon="9.34269"><ele>784.0</ele><time>2026-04-11T11:17:47.03Z</time></trkpt><trkpt lat="44.8656867" lon="9.34271"><ele>784.0</ele><time>2026-04-11T11:17:48.036Z</time></trkpt><trkpt lat="44.8658" lon="9.3427133"><ele>784.0</ele><time>2026-04-11T11:17:49.033Z</time></trkpt><trkpt lat="44.865905" lon="9.342695"><ele>784.0</ele><time>2026-04-11T11:17:50.034Z</time></trkpt><trkpt lat="44.8660083" lon="9.34268"><ele>784.0</ele><time>2026-04-11T11:17:51.037Z</time></trkpt><trkpt lat="44.8661" lon="9.3426867"><ele>783.2</ele><time>2026-04-11T11:17:52.03Z</time></trkpt><trkpt lat="44.8661917" lon="9.3427133"><ele>782.4000000000001</ele><time>2026-04-11T11:17:53.03Z</time></trkpt><trkpt lat="44.8662733" lon="9.342735"><ele>781.6</ele><time>2026-04-11T11:17:54.031Z</time></trkpt><trkpt lat="44.8663583" lon="9.34274"><ele>780.8</ele><time>2026-04-11T11:17:55.031Z</time></trkpt><trkpt lat="44.8664517" lon="9.342735"><ele>780.0</ele><time>2026-04-11T11:17:56.03Z</time></trkpt><trkpt lat="44.8665717" lon="9.3427417"><ele>780.0</ele><time>2026-04-11T11:17:57.033Z</time></trkpt><trkpt lat="44.8666983" lon="9.3427783"><ele>780.0</ele><time>2026-04-11T11:17:58.032Z</time></trkpt><trkpt lat="44.8668117" lon="9.3428117"><ele>780.0</ele><time>2026-04-11T11:17:59.034Z</time></trkpt><trkpt lat="44.86691" lon="9.3428283"><ele>780.0</ele><time>2026-04-11T11:18:00.03Z</time></trkpt><trkpt lat="44.867" lon="9.3428133"><ele>780.0</ele><time>2026-04-11T11:18:01.031Z</time></trkpt><trkpt lat="44.8670867" lon="9.34279"><ele>780.6666666666666</ele><time>2026-04-11T11:18:02.034Z</time></trkpt><trkpt lat="44.867185" lon="9.34278"><ele>781.3333333333333</ele><time>2026-04-11T11:18:03.031Z</time></trkpt><trkpt lat="44.8672617" lon="9.34279"><ele>782.0</ele><time>2026-04-11T11:18:04.032Z</time></trkpt><trkpt lat="44.8673333" lon="9.342835"><ele>782.6666666666666</ele><time>2026-04-11T11:18:05.03Z</time></trkpt><trkpt lat="44.8674" lon="9.3428567"><ele>783.3333333333333</ele><time>2026-04-11T11:18:07.042Z</time></trkpt><trkpt lat="44.8674167" lon="9.3427383"><ele>784.0</ele><time>2026-04-11T11:18:09.041Z</time></trkpt><trkpt lat="44.8674117" lon="9.3426433"><ele>783.9999999999999</ele><time>2026-04-11T11:18:10.04Z</time></trkpt><trkpt lat="44.8674033" lon="9.3425433"><ele>784.0</ele><time>2026-04-11T11:18:11.037Z</time></trkpt><trkpt lat="44.867395" lon="9.34245"><ele>784.0</ele><time>2026-04-11T11:18:12.032Z</time></trkpt><trkpt lat="44.8674017" lon="9.3423367"><ele>784.0</ele><time>2026-04-11T11:18:14.035Z</time></trkpt><trkpt lat="44.8674267" lon="9.3422317"><ele>783.9999999999999</ele><time>2026-04-11T11:18:16.034Z</time></trkpt><trkpt lat="44.86746" lon="9.342125"><ele>784.0</ele><time>2026-04-11T11:18:18.037Z</time></trkpt><trkpt lat="44.8675067" lon="9.3420117"><ele>783.2</ele><time>2026-04-11T11:18:20.037Z</time></trkpt><trkpt lat="44.867545" lon="9.3419317"><ele>782.4000000000001</ele><time>2026-04-11T11:18:21.038Z</time></trkpt><trkpt lat="44.867595" lon="9.341775"><ele>781.6</ele><time>2026-04-11T11:18:23.038Z</time></trkpt><trkpt lat="44.8676317" lon="9.3416217"><ele>780.8</ele><time>2026-04-11T11:18:25.039Z</time></trkpt><trkpt lat="44.8676717" lon="9.3414867"><ele>780.0</ele><time>2026-04-11T11:18:27.047Z</time></trkpt><trkpt lat="44.86768" lon="9.3413883"><ele>782.8333333333334</ele><time>2026-04-11T11:18:28.041Z</time></trkpt><trkpt lat="44.8676783" lon="9.3412733"><ele>785.6666666666667</ele><time>2026-04-11T11:18:29.041Z</time></trkpt><trkpt lat="44.86767" lon="9.341155"><ele>788.5</ele><time>2026-04-11T11:18:30.033Z</time></trkpt><trkpt lat="44.8676617" lon="9.34104"><ele>791.3333333333334</ele><time>2026-04-11T11:18:31.034Z</time></trkpt><trkpt lat="44.8676583" lon="9.3409317"><ele>794.1666666666667</ele><time>2026-04-11T11:18:32.03Z</time></trkpt><trkpt lat="44.8676483" lon="9.34081"><ele>797.0</ele><time>2026-04-11T11:18:33.033Z</time></trkpt><trkpt lat="44.8676317" lon="9.3406867"><ele>793.3333333333334</ele><time>2026-04-11T11:18:34.03Z</time></trkpt><trkpt lat="44.8676083" lon="9.3405633"><ele>789.6666666666667</ele><time>2026-04-11T11:18:35.032Z</time></trkpt><trkpt lat="44.867585" lon="9.3404467"><ele>786.0</ele><time>2026-04-11T11:18:36.038Z</time></trkpt><trkpt lat="44.8675717" lon="9.34033"><ele>782.3333333333333</ele><time>2026-04-11T11:18:37.031Z</time></trkpt><trkpt lat="44.8675633" lon="9.3402283"><ele>778.6666666666666</ele><time>2026-04-11T11:18:38.032Z</time></trkpt><trkpt lat="44.8675483" lon="9.34013"><ele>775.0</ele><time>2026-04-11T11:18:39.033Z</time></trkpt><trkpt lat="44.8675267" lon="9.34004"><ele>774.3333333333333</ele><time>2026-04-11T11:18:40.032Z</time></trkpt><trkpt lat="44.867495" lon="9.3399583"><ele>773.6666666666666</ele><time>2026-04-11T11:18:41.04Z</time></trkpt><trkpt lat="44.8674283" lon="9.3398133"><ele>773.0</ele><time>2026-04-11T11:18:43.03Z</time></trkpt><trkpt lat="44.8674167" lon="9.3397217"><ele>772.3333333333333</ele><time>2026-04-11T11:18:44.03Z</time></trkpt><trkpt lat="44.86741" lon="9.33959"><ele>771.6666666666666</ele><time>2026-04-11T11:18:45.036Z</time></trkpt><trkpt lat="44.867405" lon="9.3394733"><ele>771.0</ele><time>2026-04-11T11:18:46.03Z</time></trkpt><trkpt lat="44.867395" lon="9.3393717"><ele>770.5999999999999</ele><time>2026-04-11T11:18:47.03Z</time></trkpt><trkpt lat="44.867385" lon="9.3392483"><ele>770.2</ele><time>2026-04-11T11:18:49.036Z</time></trkpt><trkpt lat="44.8673583" lon="9.3391533"><ele>769.8</ele><time>2026-04-11T11:18:51.041Z</time></trkpt><trkpt lat="44.867325" lon="9.339075"><ele>769.4000000000001</ele><time>2026-04-11T11:18:54.039Z</time></trkpt><trkpt lat="44.8673683" lon="9.33894"><ele>769.0</ele><time>2026-04-11T11:18:57.037Z</time></trkpt><trkpt lat="44.8674517" lon="9.3387817"><ele>768.8333333333333</ele><time>2026-04-11T11:18:59.035Z</time></trkpt><trkpt lat="44.8675017" lon="9.3386817"><ele>768.6666666666666</ele><time>2026-04-11T11:19:00.029Z</time></trkpt><trkpt lat="44.8675433" lon="9.3385883"><ele>768.5</ele><time>2026-04-11T11:19:01.032Z</time></trkpt><trkpt lat="44.867565" lon="9.3384933"><ele>768.3333333333333</ele><time>2026-04-11T11:19:02.034Z</time></trkpt><trkpt lat="44.867565" lon="9.338395"><ele>768.1666666666666</ele><time>2026-04-11T11:19:03.039Z</time></trkpt><trkpt lat="44.8675483" lon="9.338285"><ele>768.0</ele><time>2026-04-11T11:19:04.039Z</time></trkpt><trkpt lat="44.867525" lon="9.3381533"><ele>766.5999999999999</ele><time>2026-04-11T11:19:05.032Z</time></trkpt><trkpt lat="44.86751" lon="9.338"><ele>765.1999999999999</ele><time>2026-04-11T11:19:06.036Z</time></trkpt><trkpt lat="44.8674967" lon="9.3378517"><ele>763.8</ele><time>2026-04-11T11:19:07.035Z</time></trkpt><trkpt lat="44.86749" lon="9.3377383"><ele>762.4</ele><time>2026-04-11T11:19:08.034Z</time></trkpt><trkpt lat="44.8674833" lon="9.337625"><ele>761.0</ele><time>2026-04-11T11:19:09.036Z</time></trkpt><trkpt lat="44.8675" lon="9.3374517"><ele>761.0</ele><time>2026-04-11T11:19:11.033Z</time></trkpt><trkpt lat="44.8675017" lon="9.3372533"><ele>761.0</ele><time>2026-04-11T11:19:13.042Z</time></trkpt><trkpt lat="44.8675" lon="9.337135"><ele>761.0</ele><time>2026-04-11T11:19:14.032Z</time></trkpt><trkpt lat="44.867515" lon="9.33702"><ele>761.0</ele><time>2026-04-11T11:19:15.042Z</time></trkpt><trkpt lat="44.8675383" lon="9.3369117"><ele>761.0</ele><time>2026-04-11T11:19:16.038Z</time></trkpt><trkpt lat="44.8675617" lon="9.336815"><ele>761.1666666666666</ele><time>2026-04-11T11:19:17.03Z</time></trkpt><trkpt lat="44.8675967" lon="9.3367333"><ele>761.3333333333333</ele><time>2026-04-11T11:19:18.03Z</time></trkpt><trkpt lat="44.8676383" lon="9.336645"><ele>761.5</ele><time>2026-04-11T11:19:19.033Z</time></trkpt><trkpt lat="44.8676717" lon="9.3365367"><ele>761.6666666666666</ele><time>2026-04-11T11:19:20.029Z</time></trkpt><trkpt lat="44.8677033" lon="9.336455"><ele>761.8333333333334</ele><time>2026-04-11T11:19:21.041Z</time></trkpt><trkpt lat="44.86777" lon="9.3363717"><ele>762.0</ele><time>2026-04-11T11:19:22.039Z</time></trkpt><trkpt lat="44.867835" lon="9.336295"><ele>762.0</ele><time>2026-04-11T11:19:23.038Z</time></trkpt><trkpt lat="44.867885" lon="9.3362217"><ele>762.0</ele><time>2026-04-11T11:19:24.038Z</time></trkpt><trkpt lat="44.8679333" lon="9.3361533"><ele>762.0</ele><time>2026-04-11T11:19:25.031Z</time></trkpt><trkpt lat="44.8679817" lon="9.3360917"><ele>762.0</ele><time>2026-04-11T11:19:26.029Z</time></trkpt><trkpt lat="44.8680367" lon="9.3360233"><ele>762.0</ele><time>2026-04-11T11:19:27.042Z</time></trkpt><trkpt lat="44.8680883" lon="9.335945"><ele>762.0</ele><time>2026-04-11T11:19:28.038Z</time></trkpt><trkpt lat="44.8681333" lon="9.33585"><ele>762.0</ele><time>2026-04-11T11:19:29.032Z</time></trkpt><trkpt lat="44.8681783" lon="9.335735"><ele>762.0</ele><time>2026-04-11T11:19:30.033Z</time></trkpt><trkpt lat="44.8682133" lon="9.3355833"><ele>762.0</ele><time>2026-04-11T11:19:31.038Z</time></trkpt><trkpt lat="44.868245" lon="9.3354333"><ele>762.0</ele><time>2026-04-11T11:19:32.031Z</time></trkpt><trkpt lat="44.8682783" lon="9.3353133"><ele>762.0</ele><time>2026-04-11T11:19:33.032Z</time></trkpt><trkpt lat="44.868325" lon="9.3352"><ele>762.0</ele><time>2026-04-11T11:19:34.035Z</time></trkpt><trkpt lat="44.8683683" lon="9.3351133"><ele>762.5</ele><time>2026-04-11T11:19:35.042Z</time></trkpt><trkpt lat="44.8684267" lon="9.3349983"><ele>763.0</ele><time>2026-04-11T11:19:37.041Z</time></trkpt><trkpt lat="44.868475" lon="9.334925"><ele>763.5</ele><time>2026-04-11T11:19:40.038Z</time></trkpt><trkpt lat="44.8685383" lon="9.33488"><ele>764.0</ele><time>2026-04-11T11:19:42.034Z</time></trkpt><trkpt lat="44.86861" lon="9.3348417"><ele>764.5</ele><time>2026-04-11T11:19:44.038Z</time></trkpt><trkpt lat="44.868695" lon="9.3348067"><ele>765.0</ele><time>2026-04-11T11:19:46.036Z</time></trkpt><trkpt lat="44.8688017" lon="9.33467"><ele>763.1666666666666</ele><time>2026-04-11T11:19:48.031Z</time></trkpt><trkpt lat="44.86886" lon="9.3345817"><ele>761.3333333333334</ele><time>2026-04-11T11:19:49.037Z</time></trkpt><trkpt lat="44.86889" lon="9.3344783"><ele>759.5</ele><time>2026-04-11T11:19:50.035Z</time></trkpt><trkpt lat="44.8689167" lon="9.33439"><ele>757.6666666666667</ele><time>2026-04-11T11:19:51.036Z</time></trkpt><trkpt lat="44.86897" lon="9.3342567"><ele>755.8333333333334</ele><time>2026-04-11T11:19:53.03Z</time></trkpt><trkpt lat="44.8690267" lon="9.3341833"><ele>754.0</ele><time>2026-04-11T11:19:54.035Z</time></trkpt><trkpt lat="44.8690817" lon="9.3341167"><ele>754.0</ele><time>2026-04-11T11:19:55.038Z</time></trkpt><trkpt lat="44.86917" lon="9.3340433"><ele>754.0</ele><time>2026-04-11T11:19:57.039Z</time></trkpt><trkpt lat="44.8692133" lon="9.3339433"><ele>754.0</ele><time>2026-04-11T11:19:59.033Z</time></trkpt><trkpt lat="44.86921" lon="9.3338433"><ele>754.0</ele><time>2026-04-11T11:20:00.033Z</time></trkpt><trkpt lat="44.869195" lon="9.333735"><ele>754.0</ele><time>2026-04-11T11:20:01.034Z</time></trkpt><trkpt lat="44.869165" lon="9.3336533"><ele>754.0</ele><time>2026-04-11T11:20:02.03Z</time></trkpt><trkpt lat="44.8691333" lon="9.333575"><ele>753.6666666666667</ele><time>2026-04-11T11:20:03.033Z</time></trkpt><trkpt lat="44.86909" lon="9.3334133"><ele>753.3333333333334</ele><time>2026-04-11T11:20:05.031Z</time></trkpt><trkpt lat="44.8691033" lon="9.3333233"><ele>753.0</ele><time>2026-04-11T11:20:06.03Z</time></trkpt><trkpt lat="44.8691167" lon="9.3332133"><ele>752.6666666666666</ele><time>2026-04-11T11:20:07.031Z</time></trkpt><trkpt lat="44.8691267" lon="9.3331033"><ele>752.3333333333333</ele><time>2026-04-11T11:20:08.032Z</time></trkpt><trkpt lat="44.8691483" lon="9.3329817"><ele>752.0</ele><time>2026-04-11T11:20:09.04Z</time></trkpt><trkpt lat="44.86917" lon="9.3328817"><ele>752.0</ele><time>2026-04-11T11:20:10.034Z</time></trkpt><trkpt lat="44.8692433" lon="9.3327467"><ele>752.0</ele><time>2026-04-11T11:20:12.04Z</time></trkpt><trkpt lat="44.8693183" lon="9.3326217"><ele>752.0</ele><time>2026-04-11T11:20:14.029Z</time></trkpt><trkpt lat="44.86936" lon="9.3325417"><ele>752.0</ele><time>2026-04-11T11:20:15.034Z</time></trkpt><trkpt lat="44.8694017" lon="9.332475"><ele>752.0</ele><time>2026-04-11T11:20:16.034Z</time></trkpt><trkpt lat="44.86945" lon="9.3323217"><ele>753.5</ele><time>2026-04-11T11:20:18.033Z</time></trkpt><trkpt lat="44.8694667" lon="9.3322233"><ele>755.0</ele><time>2026-04-11T11:20:19.034Z</time></trkpt><trkpt lat="44.869505" lon="9.3321183"><ele>756.5</ele><time>2026-04-11T11:20:20.042Z</time></trkpt><trkpt lat="44.869555" lon="9.332025"><ele>758.0</ele><time>2026-04-11T11:20:21.043Z</time></trkpt><trkpt lat="44.8696167" lon="9.3319617"><ele>759.5</ele><time>2026-04-11T11:20:22.041Z</time></trkpt><trkpt lat="44.8696867" lon="9.331915"><ele>761.0</ele><time>2026-04-11T11:20:23.033Z</time></trkpt><trkpt lat="44.8697633" lon="9.3318717"><ele>761.0</ele><time>2026-04-11T11:20:24.033Z</time></trkpt><trkpt lat="44.8698467" lon="9.3318283"><ele>761.0</ele><time>2026-04-11T11:20:25.034Z</time></trkpt><trkpt lat="44.8699333" lon="9.33178"><ele>761.0</ele><time>2026-04-11T11:20:26.032Z</time></trkpt><trkpt lat="44.870005" lon="9.3317267"><ele>761.0</ele><time>2026-04-11T11:20:27.041Z</time></trkpt><trkpt lat="44.870095" lon="9.331635"><ele>761.0</ele><time>2026-04-11T11:20:29.032Z</time></trkpt><trkpt lat="44.870175" lon="9.3315567"><ele>760.5</ele><time>2026-04-11T11:20:31.044Z</time></trkpt><trkpt lat="44.870265" lon="9.3314933"><ele>760.0</ele><time>2026-04-11T11:20:33.034Z</time></trkpt><trkpt lat="44.870345" lon="9.331425"><ele>759.5</ele><time>2026-04-11T11:20:35.035Z</time></trkpt><trkpt lat="44.8703917" lon="9.3313583"><ele>759.0</ele><time>2026-04-11T11:20:36.033Z</time></trkpt><trkpt lat="44.87045" lon="9.3312583"><ele>758.5</ele><time>2026-04-11T11:20:37.034Z</time></trkpt><trkpt lat="44.8705033" lon="9.331155"><ele>758.0</ele><time>2026-04-11T11:20:38.034Z</time></trkpt><trkpt lat="44.870555" lon="9.3310583"><ele>758.0</ele><time>2026-04-11T11:20:39.032Z</time></trkpt><trkpt lat="44.8706" lon="9.33096"><ele>758.0</ele><time>2026-04-11T11:20:40.03Z</time></trkpt><trkpt lat="44.8706417" lon="9.3308517"><ele>758.0</ele><time>2026-04-11T11:20:41.033Z</time></trkpt><trkpt lat="44.87067" lon="9.330745"><ele>758.0</ele><time>2026-04-11T11:20:42.036Z</time></trkpt><trkpt lat="44.8706967" lon="9.3306433"><ele>758.0</ele><time>2026-04-11T11:20:43.034Z</time></trkpt><trkpt lat="44.8707317" lon="9.3305567"><ele>758.0</ele><time>2026-04-11T11:20:44.031Z</time></trkpt><trkpt lat="44.8708117" lon="9.3304733"><ele>755.8</ele><time>2026-04-11T11:20:46.042Z</time></trkpt><trkpt lat="44.870925" lon="9.330525"><ele>753.5999999999999</ele><time>2026-04-11T11:20:48.039Z</time></trkpt><trkpt lat="44.8709917" lon="9.3305483"><ele>751.4000000000001</ele><time>2026-04-11T11:20:49.043Z</time></trkpt><trkpt lat="44.87111" lon="9.3305333"><ele>749.2</ele><time>2026-04-11T11:20:51.035Z</time></trkpt><trkpt lat="44.87121" lon="9.3304583"><ele>747.0</ele><time>2026-04-11T11:20:53.034Z</time></trkpt><trkpt lat="44.871295" lon="9.3303833"><ele>746.5</ele><time>2026-04-11T11:20:55.03Z</time></trkpt><trkpt lat="44.8714" lon="9.3302817"><ele>746.0</ele><time>2026-04-11T11:20:57.042Z</time></trkpt><trkpt lat="44.8714583" lon="9.3302233"><ele>745.5</ele><time>2026-04-11T11:20:58.042Z</time></trkpt><trkpt lat="44.8715083" lon="9.330165"><ele>745.0</ele><time>2026-04-11T11:20:59.036Z</time></trkpt><trkpt lat="44.87155" lon="9.330095"><ele>744.5</ele><time>2026-04-11T11:21:00.039Z</time></trkpt><trkpt lat="44.87159" lon="9.3300183"><ele>744.0</ele><time>2026-04-11T11:21:01.041Z</time></trkpt><trkpt lat="44.871645" lon="9.32987"><ele>744.0</ele><time>2026-04-11T11:21:03.033Z</time></trkpt><trkpt lat="44.8717283" lon="9.3297517"><ele>744.0</ele><time>2026-04-11T11:21:05.04Z</time></trkpt><trkpt lat="44.8717733" lon="9.3296617"><ele>744.0</ele><time>2026-04-11T11:21:06.037Z</time></trkpt><trkpt lat="44.87182" lon="9.3295533"><ele>744.0</ele><time>2026-04-11T11:21:07.034Z</time></trkpt><trkpt lat="44.87187" lon="9.3294467"><ele>744.0</ele><time>2026-04-11T11:21:08.04Z</time></trkpt><trkpt lat="44.8719267" lon="9.3293617"><ele>743.0</ele><time>2026-04-11T11:21:09.034Z</time></trkpt><trkpt lat="44.8719933" lon="9.329275"><ele>742.0</ele><time>2026-04-11T11:21:11.04Z</time></trkpt><trkpt lat="44.8720217" lon="9.329155"><ele>741.0</ele><time>2026-04-11T11:21:14.034Z</time></trkpt><trkpt lat="44.8721033" lon="9.32905"><ele>740.0</ele><time>2026-04-11T11:21:16.033Z</time></trkpt><trkpt lat="44.8721567" lon="9.3289683"><ele>739.0</ele><time>2026-04-11T11:21:17.037Z</time></trkpt><trkpt lat="44.8722067" lon="9.32887"><ele>739.0</ele><time>2026-04-11T11:21:18.03Z</time></trkpt><trkpt lat="44.872245" lon="9.3287717"><ele>739.0</ele><time>2026-04-11T11:21:19.037Z</time></trkpt><trkpt lat="44.872275" lon="9.3286817"><ele>739.0</ele><time>2026-04-11T11:21:20.039Z</time></trkpt><trkpt lat="44.8723133" lon="9.3285533"><ele>739.0</ele><time>2026-04-11T11:21:22.032Z</time></trkpt><trkpt lat="44.872355" lon="9.3284567"><ele>739.0</ele><time>2026-04-11T11:21:24.038Z</time></trkpt><trkpt lat="44.8724" lon="9.32834"><ele>739.0</ele><time>2026-04-11T11:21:26.04Z</time></trkpt><trkpt lat="44.87243" lon="9.3282383"><ele>739.0</ele><time>2026-04-11T11:21:27.038Z</time></trkpt><trkpt lat="44.8724633" lon="9.3281233"><ele>739.0</ele><time>2026-04-11T11:21:28.034Z</time></trkpt><trkpt lat="44.8724933" lon="9.3280117"><ele>739.0</ele><time>2026-04-11T11:21:29.033Z</time></trkpt><trkpt lat="44.8725183" lon="9.32791"><ele>739.0</ele><time>2026-04-11T11:21:30.038Z</time></trkpt><trkpt lat="44.8725317" lon="9.3278217"><ele>739.0</ele><time>2026-04-11T11:21:31.034Z</time></trkpt><trkpt lat="44.8725283" lon="9.3276767"><ele>739.0</ele><time>2026-04-11T11:21:33.033Z</time></trkpt><trkpt lat="44.8725667" lon="9.3275483"><ele>735.0</ele><time>2026-04-11T11:21:35.03Z</time></trkpt><trkpt lat="44.87262" lon="9.3273983"><ele>731.0</ele><time>2026-04-11T11:21:37.033Z</time></trkpt><trkpt lat="44.8726967" lon="9.3273117"><ele>727.0</ele><time>2026-04-11T11:21:39.033Z</time></trkpt><trkpt lat="44.8727817" lon="9.3273133"><ele>723.0</ele><time>2026-04-11T11:21:41.035Z</time></trkpt><trkpt lat="44.872845" lon="9.3272467"><ele>719.0</ele><time>2026-04-11T11:21:43.042Z</time></trkpt><trkpt lat="44.8727817" lon="9.3271017"><ele>717.6666666666666</ele><time>2026-04-11T11:21:45.036Z</time></trkpt><trkpt lat="44.8727217" lon="9.32704"><ele>716.3333333333333</ele><time>2026-04-11T11:21:46.031Z</time></trkpt><trkpt lat="44.8726633" lon="9.3269883"><ele>715.0</ele><time>2026-04-11T11:21:47.032Z</time></trkpt><trkpt lat="44.8726117" lon="9.32689"><ele>713.6666666666666</ele><time>2026-04-11T11:21:49.038Z</time></trkpt><trkpt lat="44.8726383" lon="9.3267433"><ele>712.3333333333334</ele><time>2026-04-11T11:21:51.033Z</time></trkpt><trkpt lat="44.87267" lon="9.326605"><ele>711.0</ele><time>2026-04-11T11:21:53.041Z</time></trkpt><trkpt lat="44.8727683" lon="9.32651"><ele>711.0</ele><time>2026-04-11T11:21:55.038Z</time></trkpt><trkpt lat="44.8728183" lon="9.3264483"><ele>711.0</ele><time>2026-04-11T11:21:56.043Z</time></trkpt><trkpt lat="44.8728667" lon="9.326375"><ele>711.0</ele><time>2026-04-11T11:21:57.033Z</time></trkpt><trkpt lat="44.8729117" lon="9.326305"><ele>711.0</ele><time>2026-04-11T11:21:58.042Z</time></trkpt><trkpt lat="44.8729717" lon="9.3261783"><ele>711.0</ele><time>2026-04-11T11:22:00.031Z</time></trkpt><trkpt lat="44.8729533" lon="9.3260767"><ele>711.0</ele><time>2026-04-11T11:22:02.034Z</time></trkpt><trkpt lat="44.8728917" lon="9.3259617"><ele>712.8333333333334</ele><time>2026-04-11T11:22:04.035Z</time></trkpt><trkpt lat="44.8728317" lon="9.325825"><ele>714.6666666666666</ele><time>2026-04-11T11:22:06.03Z</time></trkpt><trkpt lat="44.87281" lon="9.3257267"><ele>716.5</ele><time>2026-04-11T11:22:07.03Z</time></trkpt><trkpt lat="44.8727983" lon="9.3256367"><ele>718.3333333333333</ele><time>2026-04-11T11:22:08.038Z</time></trkpt><trkpt lat="44.8728233" lon="9.3255267"><ele>720.1666666666666</ele><time>2026-04-11T11:22:10.031Z</time></trkpt><trkpt lat="44.8728233" lon="9.3254067"><ele>722.0</ele><time>2026-04-11T11:22:12.036Z</time></trkpt><trkpt lat="44.87274" lon="9.3252917"><ele>724.2</ele><time>2026-04-11T11:22:14.04Z</time></trkpt><trkpt lat="44.872695" lon="9.3252217"><ele>726.4000000000001</ele><time>2026-04-11T11:22:15.032Z</time></trkpt><trkpt lat="44.87265" lon="9.3251433"><ele>728.5999999999999</ele><time>2026-04-11T11:22:16.03Z</time></trkpt><trkpt lat="44.8725967" lon="9.324985"><ele>730.8</ele><time>2026-04-11T11:22:18.034Z</time></trkpt><trkpt lat="44.87254" lon="9.3248183"><ele>733.0</ele><time>2026-04-11T11:22:20.032Z</time></trkpt><trkpt lat="44.87247" lon="9.32472"><ele>737.0</ele><time>2026-04-11T11:22:21.033Z</time></trkpt><trkpt lat="44.8723917" lon="9.32462"><ele>741.0</ele><time>2026-04-11T11:22:22.034Z</time></trkpt><trkpt lat="44.8723317" lon="9.3245317"><ele>745.0</ele><time>2026-04-11T11:22:23.032Z</time></trkpt><trkpt lat="44.872275" lon="9.3244483"><ele>749.0</ele><time>2026-04-11T11:22:24.031Z</time></trkpt><trkpt lat="44.87221" lon="9.3243533"><ele>753.0</ele><time>2026-04-11T11:22:25.03Z</time></trkpt><trkpt lat="44.8721483" lon="9.3242733"><ele>753.0</ele><time>2026-04-11T11:22:26.03Z</time></trkpt><trkpt lat="44.87208" lon="9.324195"><ele>753.0</ele><time>2026-04-11T11:22:27.03Z</time></trkpt><trkpt lat="44.87199" lon="9.3240983"><ele>753.0</ele><time>2026-04-11T11:22:28.031Z</time></trkpt><trkpt lat="44.8719183" lon="9.3240267"><ele>753.0</ele><time>2026-04-11T11:22:29.03Z</time></trkpt><trkpt lat="44.8718617" lon="9.3239333"><ele>753.0</ele><time>2026-04-11T11:22:30.032Z</time></trkpt><trkpt lat="44.8718183" lon="9.323835"><ele>752.1666666666666</ele><time>2026-04-11T11:22:31.03Z</time></trkpt><trkpt lat="44.8717867" lon="9.3237367"><ele>751.3333333333334</ele><time>2026-04-11T11:22:32.031Z</time></trkpt><trkpt lat="44.8717683" lon="9.3236417"><ele>750.5</ele><time>2026-04-11T11:22:33.03Z</time></trkpt><trkpt lat="44.8717483" lon="9.3235433"><ele>749.6666666666667</ele><time>2026-04-11T11:22:34.031Z</time></trkpt><trkpt lat="44.8717267" lon="9.32344"><ele>748.8333333333334</ele><time>2026-04-11T11:22:35.032Z</time></trkpt><trkpt lat="44.871685" lon="9.3233167"><ele>748.0</ele><time>2026-04-11T11:22:36.031Z</time></trkpt><trkpt lat="44.87166" lon="9.3231833"><ele>749.1666666666667</ele><time>2026-04-11T11:22:37.033Z</time></trkpt><trkpt lat="44.87163" lon="9.3230533"><ele>750.3333333333334</ele><time>2026-04-11T11:22:38.034Z</time></trkpt><trkpt lat="44.87162" lon="9.3229317"><ele>751.5</ele><time>2026-04-11T11:22:39.031Z</time></trkpt><trkpt lat="44.87163" lon="9.32282"><ele>752.6666666666666</ele><time>2026-04-11T11:22:40.03Z</time></trkpt><trkpt lat="44.8716393" lon="9.3227036"><ele>753.8333333333333</ele><time>2026-04-11T11:22:41.033Z</time></trkpt><trkpt lat="44.8716545" lon="9.322576"><ele>755.0</ele><time>2026-04-11T11:22:42.03Z</time></trkpt><trkpt lat="44.8716785" lon="9.3224383"><ele>755.0</ele><time>2026-04-11T11:22:43.031Z</time></trkpt><trkpt lat="44.871703" lon="9.3223172"><ele>755.0</ele><time>2026-04-11T11:22:44.032Z</time></trkpt><trkpt lat="44.8717144" lon="9.3222155"><ele>755.0</ele><time>2026-04-11T11:22:45.031Z</time></trkpt><trkpt lat="44.8717045" lon="9.3221167"><ele>755.0</ele><time>2026-04-11T11:22:46.03Z</time></trkpt><trkpt lat="44.8716905" lon="9.32202"><ele>755.0</ele><time>2026-04-11T11:22:47.031Z</time></trkpt><trkpt lat="44.8716844" lon="9.321928"><ele>755.0</ele><time>2026-04-11T11:22:48.034Z</time></trkpt><trkpt lat="44.8716813" lon="9.321838"><ele>755.0</ele><time>2026-04-11T11:22:49.031Z</time></trkpt><trkpt lat="44.8716836" lon="9.321741"><ele>754.3333333333333</ele><time>2026-04-11T11:22:50.033Z</time></trkpt><trkpt lat="44.8716911" lon="9.3216318"><ele>753.6666666666666</ele><time>2026-04-11T11:22:51.033Z</time></trkpt><trkpt lat="44.8716943" lon="9.3215157"><ele>753.0</ele><time>2026-04-11T11:22:52.031Z</time></trkpt><trkpt lat="44.8716893" lon="9.3214234"><ele>752.3333333333334</ele><time>2026-04-11T11:22:53.032Z</time></trkpt><trkpt lat="44.871673" lon="9.3213158"><ele>751.6666666666667</ele><time>2026-04-11T11:22:55.032Z</time></trkpt><trkpt lat="44.8716872" lon="9.3211914"><ele>751.0</ele><time>2026-04-11T11:23:06.033Z</time></trkpt><trkpt lat="44.87173" lon="9.3210734"><ele>753.1666666666667</ele><time>2026-04-11T11:23:08.031Z</time></trkpt><trkpt lat="44.8718416" lon="9.3209891"><ele>755.3333333333334</ele><time>2026-04-11T11:23:10.033Z</time></trkpt><trkpt lat="44.8719083" lon="9.3209283"><ele>757.5</ele><time>2026-04-11T11:23:11.032Z</time></trkpt><trkpt lat="44.8719717" lon="9.3208433"><ele>759.6666666666666</ele><time>2026-04-11T11:23:12.034Z</time></trkpt><trkpt lat="44.8720317" lon="9.3207717"><ele>761.8333333333333</ele><time>2026-04-11T11:23:13.042Z</time></trkpt><trkpt lat="44.8721033" lon="9.3207317"><ele>764.0</ele><time>2026-04-11T11:23:14.042Z</time></trkpt><trkpt lat="44.8721667" lon="9.3207183"><ele>764.0</ele><time>2026-04-11T11:23:15.033Z</time></trkpt><trkpt lat="44.872285" lon="9.3207817"><ele>764.0</ele><time>2026-04-11T11:23:17.034Z</time></trkpt><trkpt lat="44.8723867" lon="9.32082"><ele>764.0</ele><time>2026-04-11T11:23:19.033Z</time></trkpt><trkpt lat="44.8724833" lon="9.3207617"><ele>764.0</ele><time>2026-04-11T11:23:21.034Z</time></trkpt><trkpt lat="44.87255" lon="9.3206667"><ele>764.0</ele><time>2026-04-11T11:23:22.035Z</time></trkpt><trkpt lat="44.87263" lon="9.32058"><ele>763.8333333333333</ele><time>2026-04-11T11:23:23.034Z</time></trkpt><trkpt lat="44.8727083" lon="9.3205017"><ele>763.6666666666666</ele><time>2026-04-11T11:23:24.04Z</time></trkpt><trkpt lat="44.87278" lon="9.320425"><ele>763.5</ele><time>2026-04-11T11:23:25.038Z</time></trkpt><trkpt lat="44.8728517" lon="9.3203583"><ele>763.3333333333334</ele><time>2026-04-11T11:23:26.038Z</time></trkpt><trkpt lat="44.8729267" lon="9.32031"><ele>763.1666666666667</ele><time>2026-04-11T11:23:27.036Z</time></trkpt><trkpt lat="44.872995" lon="9.3202983"><ele>763.0</ele><time>2026-04-11T11:23:28.035Z</time></trkpt><trkpt lat="44.8730583" lon="9.32031"><ele>763.0</ele><time>2026-04-11T11:23:29.034Z</time></trkpt><trkpt lat="44.8731333" lon="9.3203233"><ele>763.0</ele><time>2026-04-11T11:23:30.031Z</time></trkpt><trkpt lat="44.87322" lon="9.3203417"><ele>763.0</ele><time>2026-04-11T11:23:31.035Z</time></trkpt><trkpt lat="44.8733117" lon="9.3203583"><ele>763.0</ele><time>2026-04-11T11:23:32.032Z</time></trkpt><trkpt lat="44.8734067" lon="9.3203667"><ele>763.0</ele><time>2026-04-11T11:23:33.031Z</time></trkpt><trkpt lat="44.8735" lon="9.320365"><ele>763.0</ele><time>2026-04-11T11:23:34.032Z</time></trkpt><trkpt lat="44.8735933" lon="9.3203567"><ele>763.2</ele><time>2026-04-11T11:23:35.031Z</time></trkpt><trkpt lat="44.8737017" lon="9.3203283"><ele>763.4</ele><time>2026-04-11T11:23:36.038Z</time></trkpt><trkpt lat="44.873805" lon="9.32029"><ele>763.6</ele><time>2026-04-11T11:23:37.034Z</time></trkpt><trkpt lat="44.8739" lon="9.32024"><ele>763.8000000000001</ele><time>2026-04-11T11:23:38.033Z</time></trkpt><trkpt lat="44.8739917" lon="9.3201783"><ele>764.0</ele><time>2026-04-11T11:23:39.034Z</time></trkpt><trkpt lat="44.8740833" lon="9.3201233"><ele>764.0</ele><time>2026-04-11T11:23:40.03Z</time></trkpt><trkpt lat="44.87419" lon="9.3200767"><ele>764.0</ele><time>2026-04-11T11:23:41.031Z</time></trkpt><trkpt lat="44.87428" lon="9.3200917"><ele>764.0</ele><time>2026-04-11T11:23:42.033Z</time></trkpt><trkpt lat="44.87435" lon="9.3201033"><ele>764.0</ele><time>2026-04-11T11:23:43.031Z</time></trkpt><trkpt lat="44.8744967" lon="9.3201317"><ele>764.0</ele><time>2026-04-11T11:23:45.032Z</time></trkpt><trkpt lat="44.8746033" lon="9.32015"><ele>763.8000000000001</ele><time>2026-04-11T11:23:46.03Z</time></trkpt><trkpt lat="44.8747117" lon="9.3201567"><ele>763.6</ele><time>2026-04-11T11:23:47.03Z</time></trkpt><trkpt lat="44.874805" lon="9.3201467"><ele>763.4</ele><time>2026-04-11T11:23:48.03Z</time></trkpt><trkpt lat="44.87488" lon="9.3201483"><ele>763.2</ele><time>2026-04-11T11:23:49.034Z</time></trkpt><trkpt lat="44.874975" lon="9.3201583"><ele>763.0</ele><time>2026-04-11T11:23:50.033Z</time></trkpt><trkpt lat="44.8750917" lon="9.320175"><ele>764.1666666666667</ele><time>2026-04-11T11:23:51.032Z</time></trkpt><trkpt lat="44.87521" lon="9.3201817"><ele>765.3333333333334</ele><time>2026-04-11T11:23:52.033Z</time></trkpt><trkpt lat="44.8753033" lon="9.3201783"><ele>766.5</ele><time>2026-04-11T11:23:53.032Z</time></trkpt><trkpt lat="44.8753833" lon="9.3201733"><ele>767.6666666666667</ele><time>2026-04-11T11:23:54.032Z</time></trkpt><trkpt lat="44.8754583" lon="9.32016"><ele>768.8333333333334</ele><time>2026-04-11T11:23:55.032Z</time></trkpt><trkpt lat="44.8755233" lon="9.3201417"><ele>770.0</ele><time>2026-04-11T11:23:56.034Z</time></trkpt><trkpt lat="44.875585" lon="9.3201233"><ele>770.0000000000001</ele><time>2026-04-11T11:23:57.031Z</time></trkpt><trkpt lat="44.8756567" lon="9.320115"><ele>770.0</ele><time>2026-04-11T11:23:58.031Z</time></trkpt><trkpt lat="44.8757333" lon="9.3201267"><ele>770.0</ele><time>2026-04-11T11:23:59.041Z</time></trkpt><trkpt lat="44.8758217" lon="9.3201483"><ele>770.0</ele><time>2026-04-11T11:24:00.03Z</time></trkpt><trkpt lat="44.87591" lon="9.3201617"><ele>770.0000000000001</ele><time>2026-04-11T11:24:01.041Z</time></trkpt><trkpt lat="44.8760067" lon="9.32018"><ele>770.0</ele><time>2026-04-11T11:24:02.033Z</time></trkpt><trkpt lat="44.876105" lon="9.3201883"><ele>770.3333333333334</ele><time>2026-04-11T11:24:03.032Z</time></trkpt><trkpt lat="44.8762017" lon="9.3201833"><ele>770.6666666666667</ele><time>2026-04-11T11:24:04.038Z</time></trkpt><trkpt lat="44.8762967" lon="9.3201833"><ele>771.0</ele><time>2026-04-11T11:24:05.032Z</time></trkpt><trkpt lat="44.8763817" lon="9.3201833"><ele>771.3333333333333</ele><time>2026-04-11T11:24:06.033Z</time></trkpt><trkpt lat="44.8764617" lon="9.3201783"><ele>771.6666666666666</ele><time>2026-04-11T11:24:07.033Z</time></trkpt><trkpt lat="44.8765317" lon="9.3201767"><ele>772.0</ele><time>2026-04-11T11:24:08.032Z</time></trkpt><trkpt lat="44.87663" lon="9.32016"><ele>771.9999999999999</ele><time>2026-04-11T11:24:10.032Z</time></trkpt><trkpt lat="44.8767" lon="9.32015"><ele>772.0</ele><time>2026-04-11T11:24:12.039Z</time></trkpt><trkpt lat="44.8767717" lon="9.32015"><ele>772.0</ele><time>2026-04-11T11:24:14.037Z</time></trkpt><trkpt lat="44.8768717" lon="9.320165"><ele>772.0</ele><time>2026-04-11T11:24:16.034Z</time></trkpt><trkpt lat="44.87699" lon="9.320165"><ele>771.9999999999999</ele><time>2026-04-11T11:24:18.034Z</time></trkpt><trkpt lat="44.8770517" lon="9.3201383"><ele>772.0</ele><time>2026-04-11T11:24:19.043Z</time></trkpt><trkpt lat="44.8771117" lon="9.320085"><ele>771.6666666666666</ele><time>2026-04-11T11:24:20.043Z</time></trkpt><trkpt lat="44.8771683" lon="9.32"><ele>771.3333333333333</ele><time>2026-04-11T11:24:21.04Z</time></trkpt><trkpt lat="44.8772167" lon="9.3199167"><ele>771.0</ele><time>2026-04-11T11:24:22.032Z</time></trkpt><trkpt lat="44.8772583" lon="9.3198383"><ele>770.6666666666667</ele><time>2026-04-11T11:24:23.04Z</time></trkpt><trkpt lat="44.8773267" lon="9.3197217"><ele>770.3333333333334</ele><time>2026-04-11T11:24:25.034Z</time></trkpt><trkpt lat="44.8773733" lon="9.3196017"><ele>770.0</ele><time>2026-04-11T11:24:27.032Z</time></trkpt><trkpt lat="44.8774283" lon="9.3194133"><ele>770.0000000000001</ele><time>2026-04-11T11:24:29.042Z</time></trkpt><trkpt lat="44.87746" lon="9.319315"><ele>770.0</ele><time>2026-04-11T11:24:30.035Z</time></trkpt><trkpt lat="44.87749" lon="9.3192067"><ele>770.0</ele><time>2026-04-11T11:24:31.034Z</time></trkpt><trkpt lat="44.8775117" lon="9.31911"><ele>770.0</ele><time>2026-04-11T11:24:32.043Z</time></trkpt><trkpt lat="44.8775267" lon="9.3190033"><ele>770.0000000000001</ele><time>2026-04-11T11:24:33.041Z</time></trkpt><trkpt lat="44.87754" lon="9.3188983"><ele>770.0</ele><time>2026-04-11T11:24:34.034Z</time></trkpt><trkpt lat="44.8775617" lon="9.3187717"><ele>769.6666666666667</ele><time>2026-04-11T11:24:35.033Z</time></trkpt><trkpt lat="44.877585" lon="9.3186483"><ele>769.3333333333334</ele><time>2026-04-11T11:24:36.039Z</time></trkpt><trkpt lat="44.8776" lon="9.3185417"><ele>769.0</ele><time>2026-04-11T11:24:37.034Z</time></trkpt><trkpt lat="44.8776033" lon="9.31845"><ele>768.6666666666667</ele><time>2026-04-11T11:24:38.033Z</time></trkpt><trkpt lat="44.8775933" lon="9.31827"><ele>768.3333333333334</ele><time>2026-04-11T11:24:40.034Z</time></trkpt><trkpt lat="44.8775883" lon="9.3181517"><ele>768.0</ele><time>2026-04-11T11:24:41.035Z</time></trkpt><trkpt lat="44.8775783" lon="9.3180017"><ele>769.0</ele><time>2026-04-11T11:24:42.035Z</time></trkpt><trkpt lat="44.877565" lon="9.3178517"><ele>770.0</ele><time>2026-04-11T11:24:43.042Z</time></trkpt><trkpt lat="44.87756" lon="9.317715"><ele>771.0</ele><time>2026-04-11T11:24:44.039Z</time></trkpt><trkpt lat="44.8775617" lon="9.3175717"><ele>772.0</ele><time>2026-04-11T11:24:45.042Z</time></trkpt><trkpt lat="44.8775667" lon="9.31743"><ele>773.0</ele><time>2026-04-11T11:24:46.038Z</time></trkpt><trkpt lat="44.8775533" lon="9.3172917"><ele>771.0000000000001</ele><time>2026-04-11T11:24:47.033Z</time></trkpt><trkpt lat="44.8775333" lon="9.3171617"><ele>769.0</ele><time>2026-04-11T11:24:48.04Z</time></trkpt><trkpt lat="44.877525" lon="9.3170383"><ele>767.0</ele><time>2026-04-11T11:24:49.033Z</time></trkpt><trkpt lat="44.8775267" lon="9.3169233"><ele>765.0</ele><time>2026-04-11T11:24:50.032Z</time></trkpt><trkpt lat="44.8775283" lon="9.3167917"><ele>763.0</ele><time>2026-04-11T11:24:51.04Z</time></trkpt><trkpt lat="44.8775283" lon="9.3166617"><ele>761.0</ele><time>2026-04-11T11:24:52.035Z</time></trkpt><trkpt lat="44.8775217" lon="9.3165483"><ele>761.0</ele><time>2026-04-11T11:24:53.033Z</time></trkpt><trkpt lat="44.87751" lon="9.3164533"><ele>761.0</ele><time>2026-04-11T11:24:54.035Z</time></trkpt><trkpt lat="44.8774783" lon="9.3162867"><ele>761.0</ele><time>2026-04-11T11:24:56.035Z</time></trkpt><trkpt lat="44.8774333" lon="9.3161317"><ele>761.0</ele><time>2026-04-11T11:24:58.034Z</time></trkpt><trkpt lat="44.8773883" lon="9.3160533"><ele>761.0</ele><time>2026-04-11T11:24:59.032Z</time></trkpt><trkpt lat="44.87734" lon="9.31597"><ele>759.5</ele><time>2026-04-11T11:25:00.036Z</time></trkpt><trkpt lat="44.8772933" lon="9.31589"><ele>758.0</ele><time>2026-04-11T11:25:01.039Z</time></trkpt><trkpt lat="44.8772483" lon="9.315805"><ele>756.5</ele><time>2026-04-11T11:25:02.04Z</time></trkpt><trkpt lat="44.8772133" lon="9.3157"><ele>755.0</ele><time>2026-04-11T11:25:03.042Z</time></trkpt><trkpt lat="44.87718" lon="9.3156017"><ele>753.5</ele><time>2026-04-11T11:25:04.033Z</time></trkpt><trkpt lat="44.8771433" lon="9.3155083"><ele>752.0</ele><time>2026-04-11T11:25:05.031Z</time></trkpt><trkpt lat="44.877105" lon="9.3154067"><ele>750.6666666666666</ele><time>2026-04-11T11:25:06.034Z</time></trkpt><trkpt lat="44.8770567" lon="9.3152767"><ele>749.3333333333333</ele><time>2026-04-11T11:25:07.041Z</time></trkpt><trkpt lat="44.8770083" lon="9.3151433"><ele>748.0</ele><time>2026-04-11T11:25:08.032Z</time></trkpt><trkpt lat="44.87697" lon="9.315025"><ele>746.6666666666666</ele><time>2026-04-11T11:25:09.034Z</time></trkpt><trkpt lat="44.8769367" lon="9.314925"><ele>745.3333333333334</ele><time>2026-04-11T11:25:10.038Z</time></trkpt><trkpt lat="44.8769133" lon="9.314835"><ele>744.0</ele><time>2026-04-11T11:25:11.039Z</time></trkpt><trkpt lat="44.87689" lon="9.3147383"><ele>744.1666666666666</ele><time>2026-04-11T11:25:12.033Z</time></trkpt><trkpt lat="44.8768633" lon="9.3146233"><ele>744.3333333333334</ele><time>2026-04-11T11:25:13.033Z</time></trkpt><trkpt lat="44.8768467" lon="9.3145067"><ele>744.5</ele><time>2026-04-11T11:25:14.033Z</time></trkpt><trkpt lat="44.8768267" lon="9.314385"><ele>744.6666666666667</ele><time>2026-04-11T11:25:15.034Z</time></trkpt><trkpt lat="44.8767967" lon="9.3142767"><ele>744.8333333333334</ele><time>2026-04-11T11:25:16.034Z</time></trkpt><trkpt lat="44.8767667" lon="9.3141933"><ele>745.0</ele><time>2026-04-11T11:25:17.036Z</time></trkpt><trkpt lat="44.8767183" lon="9.3140317"><ele>743.5</ele><time>2026-04-11T11:25:19.031Z</time></trkpt><trkpt lat="44.8766783" lon="9.3138733"><ele>742.0</ele><time>2026-04-11T11:25:21.034Z</time></trkpt><trkpt lat="44.8766633" lon="9.3137333"><ele>740.5</ele><time>2026-04-11T11:25:23.034Z</time></trkpt><trkpt lat="44.8766433" lon="9.313645"><ele>739.0</ele><time>2026-04-11T11:25:24.031Z</time></trkpt><trkpt lat="44.8766267" lon="9.3135517"><ele>737.5</ele><time>2026-04-11T11:25:25.031Z</time></trkpt><trkpt lat="44.87661" lon="9.3134433"><ele>736.0</ele><time>2026-04-11T11:25:26.032Z</time></trkpt><trkpt lat="44.876595" lon="9.3133167"><ele>736.0</ele><time>2026-04-11T11:25:27.035Z</time></trkpt><trkpt lat="44.8765733" lon="9.313165"><ele>736.0</ele><time>2026-04-11T11:25:28.032Z</time></trkpt><trkpt lat="44.87654" lon="9.3130033"><ele>736.0</ele><time>2026-04-11T11:25:29.037Z</time></trkpt><trkpt lat="44.8765083" lon="9.31286"><ele>736.0</ele><time>2026-04-11T11:25:30.031Z</time></trkpt><trkpt lat="44.8764933" lon="9.31274"><ele>736.0</ele><time>2026-04-11T11:25:31.031Z</time></trkpt><trkpt lat="44.8764967" lon="9.3126333"><ele>734.1999999999999</ele><time>2026-04-11T11:25:32.031Z</time></trkpt><trkpt lat="44.876515" lon="9.3125067"><ele>732.4</ele><time>2026-04-11T11:25:33.031Z</time></trkpt><trkpt lat="44.8765633" lon="9.31234"><ele>730.6</ele><time>2026-04-11T11:25:34.032Z</time></trkpt><trkpt lat="44.8765983" lon="9.3122083"><ele>728.8</ele><time>2026-04-11T11:25:35.03Z</time></trkpt><trkpt lat="44.8766283" lon="9.31208"><ele>727.0</ele><time>2026-04-11T11:25:36.04Z</time></trkpt><trkpt lat="44.87664" lon="9.311955"><ele>727.0</ele><time>2026-04-11T11:25:37.034Z</time></trkpt><trkpt lat="44.8766367" lon="9.311835"><ele>727.0</ele><time>2026-04-11T11:25:38.034Z</time></trkpt><trkpt lat="44.8766117" lon="9.3117233"><ele>727.0</ele><time>2026-04-11T11:25:39.034Z</time></trkpt><trkpt lat="44.8765683" lon="9.3116183"><ele>727.0</ele><time>2026-04-11T11:25:40.03Z</time></trkpt><trkpt lat="44.8765133" lon="9.3115033"><ele>727.0</ele><time>2026-04-11T11:25:41.035Z</time></trkpt><trkpt lat="44.8764433" lon="9.3113583"><ele>725.0</ele><time>2026-04-11T11:25:42.04Z</time></trkpt><trkpt lat="44.8763733" lon="9.3111967"><ele>723.0</ele><time>2026-04-11T11:25:43.038Z</time></trkpt><trkpt lat="44.8763133" lon="9.3110283"><ele>721.0</ele><time>2026-04-11T11:25:44.033Z</time></trkpt><trkpt lat="44.8762667" lon="9.31088"><ele>719.0</ele><time>2026-04-11T11:25:45.032Z</time></trkpt><trkpt lat="44.87623" lon="9.3107617"><ele>719.0</ele><time>2026-04-11T11:25:46.035Z</time></trkpt><trkpt lat="44.8761883" lon="9.31067"><ele>719.0</ele><time>2026-04-11T11:25:47.034Z</time></trkpt><trkpt lat="44.8761417" lon="9.3106083"><ele>719.0</ele><time>2026-04-11T11:25:48.033Z</time></trkpt><trkpt lat="44.8760817" lon="9.3104533"><ele>719.0</ele><time>2026-04-11T11:25:50.033Z</time></trkpt><trkpt lat="44.876075" lon="9.3103217"><ele>719.0</ele><time>2026-04-11T11:25:51.033Z</time></trkpt><trkpt lat="44.876065" lon="9.3101867"><ele>719.4000000000001</ele><time>2026-04-11T11:25:52.033Z</time></trkpt><trkpt lat="44.8760417" lon="9.3100583"><ele>719.8</ele><time>2026-04-11T11:25:53.041Z</time></trkpt><trkpt lat="44.8760167" lon="9.3099283"><ele>720.2</ele><time>2026-04-11T11:25:54.043Z</time></trkpt><trkpt lat="44.8760067" lon="9.3098"><ele>720.5999999999999</ele><time>2026-04-11T11:25:55.034Z</time></trkpt><trkpt lat="44.8760033" lon="9.3096583"><ele>721.0</ele><time>2026-04-11T11:25:56.035Z</time></trkpt><trkpt lat="44.875995" lon="9.3095133"><ele>721.0</ele><time>2026-04-11T11:25:57.034Z</time></trkpt><trkpt lat="44.875975" lon="9.309355"><ele>721.0</ele><time>2026-04-11T11:25:58.033Z</time></trkpt><trkpt lat="44.8759617" lon="9.3092033"><ele>721.0</ele><time>2026-04-11T11:25:59.033Z</time></trkpt><trkpt lat="44.8759667" lon="9.3090467"><ele>721.0</ele><time>2026-04-11T11:26:00.031Z</time></trkpt><trkpt lat="44.875985" lon="9.3088917"><ele>721.0</ele><time>2026-04-11T11:26:01.032Z</time></trkpt><trkpt lat="44.876005" lon="9.3087333"><ele>723.0</ele><time>2026-04-11T11:26:02.041Z</time></trkpt><trkpt lat="44.8760233" lon="9.3085867"><ele>725.0</ele><time>2026-04-11T11:26:03.032Z</time></trkpt><trkpt lat="44.876045" lon="9.308435"><ele>727.0</ele><time>2026-04-11T11:26:04.03Z</time></trkpt><trkpt lat="44.876065" lon="9.308285"><ele>729.0</ele><time>2026-04-11T11:26:05.033Z</time></trkpt><trkpt lat="44.8760833" lon="9.3081433"><ele>731.0</ele><time>2026-04-11T11:26:06.032Z</time></trkpt><trkpt lat="44.8761117" lon="9.308025"><ele>732.0</ele><time>2026-04-11T11:26:07.034Z</time></trkpt><trkpt lat="44.876155" lon="9.3079283"><ele>733.0</ele><time>2026-04-11T11:26:08.031Z</time></trkpt><trkpt lat="44.876205" lon="9.3078133"><ele>734.0</ele><time>2026-04-11T11:26:09.033Z</time></trkpt><trkpt lat="44.876245" lon="9.3076833"><ele>735.0</ele><time>2026-04-11T11:26:10.033Z</time></trkpt><trkpt lat="44.8762833" lon="9.3075383"><ele>736.0</ele><time>2026-04-11T11:26:11.032Z</time></trkpt><trkpt lat="44.8763183" lon="9.307385"><ele>738.0</ele><time>2026-04-11T11:26:12.033Z</time></trkpt><trkpt lat="44.8763567" lon="9.3072317"><ele>740.0</ele><time>2026-04-11T11:26:13.032Z</time></trkpt><trkpt lat="44.8763983" lon="9.30708"><ele>742.0</ele><time>2026-04-11T11:26:14.033Z</time></trkpt><trkpt lat="44.8764533" lon="9.30694"><ele>744.0</ele><time>2026-04-11T11:26:15.041Z</time></trkpt><trkpt lat="44.876515" lon="9.3068083"><ele>744.0</ele><time>2026-04-11T11:26:16.032Z</time></trkpt><trkpt lat="44.87658" lon="9.3066883"><ele>744.0</ele><time>2026-04-11T11:26:17.031Z</time></trkpt><trkpt lat="44.876655" lon="9.3065817"><ele>744.0</ele><time>2026-04-11T11:26:18.033Z</time></trkpt><trkpt lat="44.8767317" lon="9.30647"><ele>744.0</ele><time>2026-04-11T11:26:19.032Z</time></trkpt><trkpt lat="44.8768" lon="9.3063483"><ele>744.0</ele><time>2026-04-11T11:26:20.034Z</time></trkpt><trkpt lat="44.876865" lon="9.3062333"><ele>746.0</ele><time>2026-04-11T11:26:21.034Z</time></trkpt><trkpt lat="44.87693" lon="9.3061133"><ele>748.0</ele><time>2026-04-11T11:26:22.031Z</time></trkpt><trkpt lat="44.876995" lon="9.30599"><ele>750.0</ele><time>2026-04-11T11:26:23.033Z</time></trkpt><trkpt lat="44.8770667" lon="9.30588"><ele>752.0</ele><time>2026-04-11T11:26:24.033Z</time></trkpt><trkpt lat="44.877135" lon="9.3057667"><ele>754.0</ele><time>2026-04-11T11:26:25.032Z</time></trkpt><trkpt lat="44.8771967" lon="9.3056367"><ele>754.0</ele><time>2026-04-11T11:26:26.032Z</time></trkpt><trkpt lat="44.8772483" lon="9.3055083"><ele>754.0</ele><time>2026-04-11T11:26:27.034Z</time></trkpt><trkpt lat="44.8772967" lon="9.3053933"><ele>754.0</ele><time>2026-04-11T11:26:28.034Z</time></trkpt><trkpt lat="44.87734" lon="9.3052783"><ele>754.0</ele><time>2026-04-11T11:26:29.032Z</time></trkpt><trkpt lat="44.8773817" lon="9.3051633"><ele>754.0</ele><time>2026-04-11T11:26:30.032Z</time></trkpt><trkpt lat="44.8774183" lon="9.3050467"><ele>754.0</ele><time>2026-04-11T11:26:31.035Z</time></trkpt><trkpt lat="44.8774717" lon="9.30493"><ele>754.0</ele><time>2026-04-11T11:26:32.035Z</time></trkpt><trkpt lat="44.8775433" lon="9.3048317"><ele>754.0</ele><time>2026-04-11T11:26:33.029Z</time></trkpt><trkpt lat="44.87761" lon="9.3047617"><ele>754.0</ele><time>2026-04-11T11:26:34.034Z</time></trkpt><trkpt lat="44.877675" lon="9.304685"><ele>754.0</ele><time>2026-04-11T11:26:36.031Z</time></trkpt><trkpt lat="44.877735" lon="9.304585"><ele>752.6</ele><time>2026-04-11T11:26:38.029Z</time></trkpt><trkpt lat="44.8777767" lon="9.3045"><ele>751.2</ele><time>2026-04-11T11:26:40.03Z</time></trkpt><trkpt lat="44.8778567" lon="9.3043467"><ele>749.8000000000001</ele><time>2026-04-11T11:26:42.037Z</time></trkpt><trkpt lat="44.87792" lon="9.3042417"><ele>748.4000000000001</ele><time>2026-04-11T11:26:43.034Z</time></trkpt><trkpt lat="44.877985" lon="9.30416"><ele>747.0</ele><time>2026-04-11T11:26:44.032Z</time></trkpt><trkpt lat="44.87804" lon="9.3041033"><ele>747.0</ele><time>2026-04-11T11:26:45.034Z</time></trkpt><trkpt lat="44.878105" lon="9.3040533"><ele>747.0</ele><time>2026-04-11T11:26:46.033Z</time></trkpt><trkpt lat="44.8781733" lon="9.3040083"><ele>747.0</ele><time>2026-04-11T11:26:47.033Z</time></trkpt><trkpt lat="44.87825" lon="9.303965"><ele>747.0</ele><time>2026-04-11T11:26:48.034Z</time></trkpt><trkpt lat="44.878335" lon="9.3039217"><ele>747.0</ele><time>2026-04-11T11:26:49.036Z</time></trkpt><trkpt lat="44.8783967" lon="9.3038933"><ele>747.0</ele><time>2026-04-11T11:26:50.037Z</time></trkpt><trkpt lat="44.878505" lon="9.303845"><ele>746.2</ele><time>2026-04-11T11:26:52.034Z</time></trkpt><trkpt lat="44.8785867" lon="9.3038083"><ele>745.4000000000001</ele><time>2026-04-11T11:26:54.035Z</time></trkpt><trkpt lat="44.878675" lon="9.3037683"><ele>744.5999999999999</ele><time>2026-04-11T11:26:56.033Z</time></trkpt><trkpt lat="44.8787667" lon="9.3036383"><ele>743.8</ele><time>2026-04-11T11:26:58.038Z</time></trkpt><trkpt lat="44.8788" lon="9.3035617"><ele>743.0</ele><time>2026-04-11T11:26:59.039Z</time></trkpt><trkpt lat="44.8788467" lon="9.3034517"><ele>743.0</ele><time>2026-04-11T11:27:01.034Z</time></trkpt><trkpt lat="44.878805" lon="9.3033583"><ele>743.0</ele><time>2026-04-11T11:27:03.041Z</time></trkpt><trkpt lat="44.878715" lon="9.3032817"><ele>743.0</ele><time>2026-04-11T11:27:05.032Z</time></trkpt><trkpt lat="44.878645" lon="9.3031367"><ele>743.0</ele><time>2026-04-11T11:27:07.043Z</time></trkpt><trkpt lat="44.8786167" lon="9.3030317"><ele>743.0</ele><time>2026-04-11T11:27:08.033Z</time></trkpt><trkpt lat="44.878595" lon="9.3029333"><ele>742.2</ele><time>2026-04-11T11:27:09.034Z</time></trkpt><trkpt lat="44.8785733" lon="9.30283"><ele>741.4</ele><time>2026-04-11T11:27:10.032Z</time></trkpt><trkpt lat="44.8785567" lon="9.3027183"><ele>740.6</ele><time>2026-04-11T11:27:11.034Z</time></trkpt><trkpt lat="44.8785433" lon="9.302605"><ele>739.8000000000001</ele><time>2026-04-11T11:27:12.033Z</time></trkpt><trkpt lat="44.87854" lon="9.3025017"><ele>739.0</ele><time>2026-04-11T11:27:13.036Z</time></trkpt><trkpt lat="44.8786033" lon="9.3023233"><ele>738.3333333333334</ele><time>2026-04-11T11:27:15.034Z</time></trkpt><trkpt lat="44.8786333" lon="9.3022183"><ele>737.6666666666667</ele><time>2026-04-11T11:27:16.032Z</time></trkpt><trkpt lat="44.8786567" lon="9.30211"><ele>737.0</ele><time>2026-04-11T11:27:17.039Z</time></trkpt><trkpt lat="44.8786817" lon="9.3019967"><ele>736.3333333333334</ele><time>2026-04-11T11:27:18.033Z</time></trkpt><trkpt lat="44.87871" lon="9.3019033"><ele>735.6666666666666</ele><time>2026-04-11T11:27:19.034Z</time></trkpt><trkpt lat="44.8787567" lon="9.3017483"><ele>735.0</ele><time>2026-04-11T11:27:21.036Z</time></trkpt><trkpt lat="44.8787883" lon="9.3016567"><ele>735.0</ele><time>2026-04-11T11:27:22.032Z</time></trkpt><trkpt lat="44.8788283" lon="9.30156"><ele>735.0</ele><time>2026-04-11T11:27:23.039Z</time></trkpt><trkpt lat="44.8788633" lon="9.30146"><ele>735.0</ele><time>2026-04-11T11:27:24.033Z</time></trkpt><trkpt lat="44.8788833" lon="9.3013683"><ele>735.0</ele><time>2026-04-11T11:27:25.033Z</time></trkpt><trkpt lat="44.87889" lon="9.3012667"><ele>735.0</ele><time>2026-04-11T11:27:26.037Z</time></trkpt><trkpt lat="44.8788967" lon="9.3011383"><ele>735.0</ele><time>2026-04-11T11:27:27.034Z</time></trkpt><trkpt lat="44.878895" lon="9.3009967"><ele>734.4</ele><time>2026-04-11T11:27:28.038Z</time></trkpt><trkpt lat="44.8788783" lon="9.3008333"><ele>733.8</ele><time>2026-04-11T11:27:29.033Z</time></trkpt><trkpt lat="44.8788533" lon="9.300675"><ele>733.2</ele><time>2026-04-11T11:27:30.039Z</time></trkpt><trkpt lat="44.878835" lon="9.3005517"><ele>732.6</ele><time>2026-04-11T11:27:31.032Z</time></trkpt><trkpt lat="44.8788167" lon="9.3004367"><ele>732.0</ele><time>2026-04-11T11:27:32.033Z</time></trkpt><trkpt lat="44.8788117" lon="9.3003467"><ele>731.3333333333334</ele><time>2026-04-11T11:27:33.039Z</time></trkpt><trkpt lat="44.8788333" lon="9.3002533"><ele>730.6666666666666</ele><time>2026-04-11T11:27:34.038Z</time></trkpt><trkpt lat="44.8788667" lon="9.3001667"><ele>730.0</ele><time>2026-04-11T11:27:35.033Z</time></trkpt><trkpt lat="44.8788933" lon="9.3000783"><ele>729.3333333333333</ele><time>2026-04-11T11:27:36.034Z</time></trkpt><trkpt lat="44.87891" lon="9.2999717"><ele>728.6666666666666</ele><time>2026-04-11T11:27:37.034Z</time></trkpt><trkpt lat="44.8789333" lon="9.2998767"><ele>728.0</ele><time>2026-04-11T11:27:38.037Z</time></trkpt><trkpt lat="44.87903" lon="9.2997383"><ele>726.8</ele><time>2026-04-11T11:27:40.032Z</time></trkpt><trkpt lat="44.879085" lon="9.2996517"><ele>725.5999999999999</ele><time>2026-04-11T11:27:41.034Z</time></trkpt><trkpt lat="44.8791283" lon="9.2995617"><ele>724.4000000000001</ele><time>2026-04-11T11:27:42.042Z</time></trkpt><trkpt lat="44.8791617" lon="9.2994767"><ele>723.2</ele><time>2026-04-11T11:27:43.034Z</time></trkpt><trkpt lat="44.87916" lon="9.2993183"><ele>722.0</ele><time>2026-04-11T11:27:45.034Z</time></trkpt><trkpt lat="44.87916" lon="9.299145"><ele>722.0</ele><time>2026-04-11T11:27:47.032Z</time></trkpt><trkpt lat="44.8791817" lon="9.2990517"><ele>722.0</ele><time>2026-04-11T11:27:48.034Z</time></trkpt><trkpt lat="44.8792017" lon="9.2989633"><ele>722.0</ele><time>2026-04-11T11:27:49.033Z</time></trkpt><trkpt lat="44.879225" lon="9.2988583"><ele>722.0</ele><time>2026-04-11T11:27:50.034Z</time></trkpt><trkpt lat="44.8792383" lon="9.2987467"><ele>722.0</ele><time>2026-04-11T11:27:51.031Z</time></trkpt><trkpt lat="44.8792517" lon="9.298635"><ele>722.0</ele><time>2026-04-11T11:27:52.034Z</time></trkpt><trkpt lat="44.8792533" lon="9.2985033"><ele>720.5</ele><time>2026-04-11T11:27:53.034Z</time></trkpt><trkpt lat="44.8792517" lon="9.2983933"><ele>719.0</ele><time>2026-04-11T11:27:54.033Z</time></trkpt><trkpt lat="44.8792383" lon="9.298285"><ele>717.5</ele><time>2026-04-11T11:27:55.035Z</time></trkpt><trkpt lat="44.8792267" lon="9.2981717"><ele>716.0</ele><time>2026-04-11T11:27:56.039Z</time></trkpt><trkpt lat="44.8792283" lon="9.29806"><ele>714.5</ele><time>2026-04-11T11:27:57.031Z</time></trkpt><trkpt lat="44.87924" lon="9.2979533"><ele>713.0</ele><time>2026-04-11T11:27:58.03Z</time></trkpt><trkpt lat="44.8792467" lon="9.2978617"><ele>710.4</ele><time>2026-04-11T11:27:59.033Z</time></trkpt><trkpt lat="44.87922" lon="9.297715"><ele>707.8</ele><time>2026-04-11T11:28:01.033Z</time></trkpt><trkpt lat="44.8791967" lon="9.2975667"><ele>705.2</ele><time>2026-04-11T11:28:03.034Z</time></trkpt><trkpt lat="44.8792433" lon="9.29742"><ele>702.6</ele><time>2026-04-11T11:28:05.035Z</time></trkpt><trkpt lat="44.8792917" lon="9.297285"><ele>700.0</ele><time>2026-04-11T11:28:07.035Z</time></trkpt><trkpt lat="44.879285" lon="9.2971333"><ele>697.4</ele><time>2026-04-11T11:28:09.04Z</time></trkpt><trkpt lat="44.87925" lon="9.2969567"><ele>694.8</ele><time>2026-04-11T11:28:11.035Z</time></trkpt><trkpt lat="44.87925" lon="9.296785"><ele>692.2</ele><time>2026-04-11T11:28:13.033Z</time></trkpt><trkpt lat="44.8793333" lon="9.2966733"><ele>689.6</ele><time>2026-04-11T11:28:15.034Z</time></trkpt><trkpt lat="44.8794017" lon="9.2966617"><ele>687.0</ele><time>2026-04-11T11:28:16.032Z</time></trkpt><trkpt lat="44.879515" lon="9.2966167"><ele>685.1666666666666</ele><time>2026-04-11T11:28:18.04Z</time></trkpt><trkpt lat="44.8795717" lon="9.2965"><ele>683.3333333333334</ele><time>2026-04-11T11:28:20.033Z</time></trkpt><trkpt lat="44.8795967" lon="9.296415"><ele>681.5</ele><time>2026-04-11T11:28:21.032Z</time></trkpt><trkpt lat="44.8796283" lon="9.2963133"><ele>679.6666666666667</ele><time>2026-04-11T11:28:22.034Z</time></trkpt><trkpt lat="44.8796617" lon="9.296205"><ele>677.8333333333334</ele><time>2026-04-11T11:28:23.034Z</time></trkpt><trkpt lat="44.87969" lon="9.296105"><ele>676.0</ele><time>2026-04-11T11:28:24.04Z</time></trkpt><trkpt lat="44.87973" lon="9.296005"><ele>674.0</ele><time>2026-04-11T11:28:25.034Z</time></trkpt><trkpt lat="44.87978" lon="9.2958983"><ele>672.0</ele><time>2026-04-11T11:28:26.033Z</time></trkpt><trkpt lat="44.879825" lon="9.295785"><ele>670.0</ele><time>2026-04-11T11:28:27.035Z</time></trkpt><trkpt lat="44.87986" lon="9.2956517"><ele>668.0</ele><time>2026-04-11T11:28:28.034Z</time></trkpt><trkpt lat="44.879885" lon="9.2955133"><ele>666.0</ele><time>2026-04-11T11:28:29.036Z</time></trkpt><trkpt lat="44.8799133" lon="9.295365"><ele>664.25</ele><time>2026-04-11T11:28:30.034Z</time></trkpt><trkpt lat="44.879955" lon="9.29522"><ele>662.5</ele><time>2026-04-11T11:28:31.035Z</time></trkpt><trkpt lat="44.8800117" lon="9.2950783"><ele>660.75</ele><time>2026-04-11T11:28:32.038Z</time></trkpt><trkpt lat="44.880075" lon="9.2949283"><ele>659.0</ele><time>2026-04-11T11:28:33.036Z</time></trkpt><trkpt lat="44.8801467" lon="9.2947783"><ele>658.2</ele><time>2026-04-11T11:28:34.037Z</time></trkpt><trkpt lat="44.8802167" lon="9.2946383"><ele>657.4000000000001</ele><time>2026-04-11T11:28:35.033Z</time></trkpt><trkpt lat="44.8802883" lon="9.2945083"><ele>656.6</ele><time>2026-04-11T11:28:36.033Z</time></trkpt><trkpt lat="44.8803467" lon="9.2943917"><ele>655.8</ele><time>2026-04-11T11:28:37.035Z</time></trkpt><trkpt lat="44.8804033" lon="9.2942733"><ele>655.0</ele><time>2026-04-11T11:28:38.037Z</time></trkpt><trkpt lat="44.880465" lon="9.2941617"><ele>655.0</ele><time>2026-04-11T11:28:39.04Z</time></trkpt><trkpt lat="44.8805117" lon="9.2940417"><ele>655.0</ele><time>2026-04-11T11:28:40.036Z</time></trkpt><trkpt lat="44.88056" lon="9.293915"><ele>655.0</ele><time>2026-04-11T11:28:41.03Z</time></trkpt><trkpt lat="44.8806067" lon="9.2938033"><ele>655.0</ele><time>2026-04-11T11:28:42.035Z</time></trkpt><trkpt lat="44.88066" lon="9.2937183"><ele>655.0</ele><time>2026-04-11T11:28:43.037Z</time></trkpt><trkpt lat="44.8807333" lon="9.29365"><ele>654.4</ele><time>2026-04-11T11:28:44.039Z</time></trkpt><trkpt lat="44.8808017" lon="9.2935733"><ele>653.8</ele><time>2026-04-11T11:28:45.034Z</time></trkpt><trkpt lat="44.8808717" lon="9.29349"><ele>653.2</ele><time>2026-04-11T11:28:46.033Z</time></trkpt><trkpt lat="44.8809333" lon="9.2933883"><ele>652.6</ele><time>2026-04-11T11:28:47.036Z</time></trkpt><trkpt lat="44.8809917" lon="9.2932667"><ele>652.0</ele><time>2026-04-11T11:28:48.033Z</time></trkpt><trkpt lat="44.881035" lon="9.2931567"><ele>652.0</ele><time>2026-04-11T11:28:49.041Z</time></trkpt><trkpt lat="44.88107" lon="9.293055"><ele>652.0</ele><time>2026-04-11T11:28:50.034Z</time></trkpt><trkpt lat="44.8811117" lon="9.2929733"><ele>652.0</ele><time>2026-04-11T11:28:51.03Z</time></trkpt><trkpt lat="44.8811983" lon="9.2928717"><ele>652.0</ele><time>2026-04-11T11:28:53.032Z</time></trkpt><trkpt lat="44.88132" lon="9.2927767"><ele>652.0</ele><time>2026-04-11T11:28:55.032Z</time></trkpt><trkpt lat="44.88139" lon="9.2927183"><ele>652.0</ele><time>2026-04-11T11:28:56.033Z</time></trkpt><trkpt lat="44.8814617" lon="9.2926517"><ele>652.0</ele><time>2026-04-11T11:28:57.041Z</time></trkpt><trkpt lat="44.8815433" lon="9.292555"><ele>652.0</ele><time>2026-04-11T11:28:58.033Z</time></trkpt><trkpt lat="44.8816267" lon="9.2924283"><ele>652.0</ele><time>2026-04-11T11:28:59.033Z</time></trkpt><trkpt lat="44.8817067" lon="9.292295"><ele>652.0</ele><time>2026-04-11T11:29:00.031Z</time></trkpt><trkpt lat="44.8817683" lon="9.2922033"><ele>650.2</ele><time>2026-04-11T11:29:01.033Z</time></trkpt><trkpt lat="44.8818067" lon="9.2921117"><ele>648.4000000000001</ele><time>2026-04-11T11:29:02.039Z</time></trkpt><trkpt lat="44.881845" lon="9.2920033"><ele>646.5999999999999</ele><time>2026-04-11T11:29:03.031Z</time></trkpt><trkpt lat="44.8819033" lon="9.291895"><ele>644.8</ele><time>2026-04-11T11:29:04.031Z</time></trkpt><trkpt lat="44.8819767" lon="9.2917783"><ele>643.0</ele><time>2026-04-11T11:29:05.031Z</time></trkpt><trkpt lat="44.8820483" lon="9.2916433"><ele>643.0</ele><time>2026-04-11T11:29:06.031Z</time></trkpt><trkpt lat="44.8821083" lon="9.2915217"><ele>643.0</ele><time>2026-04-11T11:29:07.04Z</time></trkpt><trkpt lat="44.8821567" lon="9.291395"><ele>643.0</ele><time>2026-04-11T11:29:08.032Z</time></trkpt><trkpt lat="44.88221" lon="9.291255"><ele>643.0</ele><time>2026-04-11T11:29:09.033Z</time></trkpt><trkpt lat="44.88226" lon="9.2911033"><ele>643.0</ele><time>2026-04-11T11:29:10.032Z</time></trkpt><trkpt lat="44.8822983" lon="9.2909517"><ele>643.2</ele><time>2026-04-11T11:29:11.036Z</time></trkpt><trkpt lat="44.88231" lon="9.2908117"><ele>643.4</ele><time>2026-04-11T11:29:12.034Z</time></trkpt><trkpt lat="44.8822983" lon="9.2906833"><ele>643.6</ele><time>2026-04-11T11:29:13.03Z</time></trkpt><trkpt lat="44.8822717" lon="9.2905717"><ele>643.8000000000001</ele><time>2026-04-11T11:29:14.031Z</time></trkpt><trkpt lat="44.882245" lon="9.2904483"><ele>644.0</ele><time>2026-04-11T11:29:15.033Z</time></trkpt><trkpt lat="44.8822267" lon="9.290315"><ele>644.0</ele><time>2026-04-11T11:29:16.041Z</time></trkpt><trkpt lat="44.8822317" lon="9.2901833"><ele>644.0</ele><time>2026-04-11T11:29:17.032Z</time></trkpt><trkpt lat="44.8822533" lon="9.2900517"><ele>644.0</ele><time>2026-04-11T11:29:18.04Z</time></trkpt><trkpt lat="44.882295" lon="9.2899183"><ele>644.0</ele><time>2026-04-11T11:29:19.041Z</time></trkpt><trkpt lat="44.8823633" lon="9.28979"><ele>644.0</ele><time>2026-04-11T11:29:20.036Z</time></trkpt><trkpt lat="44.88244" lon="9.2896317"><ele>642.75</ele><time>2026-04-11T11:29:21.042Z</time></trkpt><trkpt lat="44.8825233" lon="9.2894633"><ele>641.5</ele><time>2026-04-11T11:29:22.038Z</time></trkpt><trkpt lat="44.8826017" lon="9.2892933"><ele>640.25</ele><time>2026-04-11T11:29:23.038Z</time></trkpt><trkpt lat="44.882675" lon="9.2891283"><ele>639.0</ele><time>2026-04-11T11:29:24.032Z</time></trkpt><trkpt lat="44.882745" lon="9.2889767"><ele>638.75</ele><time>2026-04-11T11:29:25.04Z</time></trkpt><trkpt lat="44.8828017" lon="9.288825"><ele>638.5</ele><time>2026-04-11T11:29:26.04Z</time></trkpt><trkpt lat="44.88284" lon="9.2886633"><ele>638.25</ele><time>2026-04-11T11:29:27.032Z</time></trkpt><trkpt lat="44.8828717" lon="9.2884917"><ele>638.0</ele><time>2026-04-11T11:29:28.033Z</time></trkpt><trkpt lat="44.8829117" lon="9.2883483"><ele>638.0</ele><time>2026-04-11T11:29:29.041Z</time></trkpt><trkpt lat="44.8829517" lon="9.288205"><ele>638.0</ele><time>2026-04-11T11:29:30.039Z</time></trkpt><trkpt lat="44.8829983" lon="9.28806"><ele>638.0</ele><time>2026-04-11T11:29:31.039Z</time></trkpt><trkpt lat="44.883055" lon="9.2879067"><ele>638.0</ele><time>2026-04-11T11:29:32.033Z</time></trkpt><trkpt lat="44.8831133" lon="9.2877417"><ele>637.0</ele><time>2026-04-11T11:29:33.034Z</time></trkpt><trkpt lat="44.8831717" lon="9.2875817"><ele>636.0</ele><time>2026-04-11T11:29:34.038Z</time></trkpt><trkpt lat="44.883215" lon="9.2874333"><ele>635.0</ele><time>2026-04-11T11:29:35.038Z</time></trkpt><trkpt lat="44.8832367" lon="9.28729"><ele>634.0</ele><time>2026-04-11T11:29:36.041Z</time></trkpt><trkpt lat="44.8832467" lon="9.287135"><ele>632.0</ele><time>2026-04-11T11:29:37.034Z</time></trkpt><trkpt lat="44.8832567" lon="9.2869767"><ele>630.0</ele><time>2026-04-11T11:29:38.04Z</time></trkpt><trkpt lat="44.883265" lon="9.2868083"><ele>628.0</ele><time>2026-04-11T11:29:39.041Z</time></trkpt><trkpt lat="44.88327" lon="9.2866417"><ele>626.0</ele><time>2026-04-11T11:29:40.036Z</time></trkpt><trkpt lat="44.883275" lon="9.28648"><ele>624.6666666666666</ele><time>2026-04-11T11:29:41.029Z</time></trkpt><trkpt lat="44.88327" lon="9.2863433"><ele>623.3333333333333</ele><time>2026-04-11T11:29:42.034Z</time></trkpt><trkpt lat="44.883265" lon="9.2862233"><ele>622.0</ele><time>2026-04-11T11:29:43.033Z</time></trkpt><trkpt lat="44.8832683" lon="9.28611"><ele>620.6666666666666</ele><time>2026-04-11T11:29:44.034Z</time></trkpt><trkpt lat="44.8832717" lon="9.2859917"><ele>619.3333333333334</ele><time>2026-04-11T11:29:45.04Z</time></trkpt><trkpt lat="44.8832733" lon="9.2858733"><ele>618.0</ele><time>2026-04-11T11:29:46.045Z</time></trkpt><trkpt lat="44.88328" lon="9.2857633"><ele>618.0</ele><time>2026-04-11T11:29:47.041Z</time></trkpt><trkpt lat="44.8833017" lon="9.2856683"><ele>618.0</ele><time>2026-04-11T11:29:48.04Z</time></trkpt><trkpt lat="44.8833283" lon="9.2855667"><ele>618.0</ele><time>2026-04-11T11:29:49.033Z</time></trkpt><trkpt lat="44.88336" lon="9.285445"><ele>618.0</ele><time>2026-04-11T11:29:50.039Z</time></trkpt><trkpt lat="44.8833933" lon="9.2853167"><ele>618.0</ele><time>2026-04-11T11:29:51.035Z</time></trkpt><trkpt lat="44.8834233" lon="9.2851983"><ele>618.0</ele><time>2026-04-11T11:29:52.033Z</time></trkpt><trkpt lat="44.8834533" lon="9.2850767"><ele>615.0</ele><time>2026-04-11T11:29:53.04Z</time></trkpt><trkpt lat="44.883495" lon="9.2849583"><ele>612.0</ele><time>2026-04-11T11:29:54.039Z</time></trkpt><trkpt lat="44.8835483" lon="9.2848583"><ele>609.0</ele><time>2026-04-11T11:29:55.033Z</time></trkpt><trkpt lat="44.883605" lon="9.2847633"><ele>606.0</ele><time>2026-04-11T11:29:56.04Z</time></trkpt><trkpt lat="44.8836583" lon="9.2846717"><ele>603.0</ele><time>2026-04-11T11:29:57.041Z</time></trkpt><trkpt lat="44.8837167" lon="9.2846017"><ele>600.0</ele><time>2026-04-11T11:29:58.042Z</time></trkpt><trkpt lat="44.88379" lon="9.2845483"><ele>598.5</ele><time>2026-04-11T11:29:59.031Z</time></trkpt><trkpt lat="44.883865" lon="9.2845217"><ele>597.0</ele><time>2026-04-11T11:30:00.03Z</time></trkpt><trkpt lat="44.8839383" lon="9.2845233"><ele>595.5</ele><time>2026-04-11T11:30:01.04Z</time></trkpt><trkpt lat="44.884005" lon="9.2845367"><ele>594.0</ele><time>2026-04-11T11:30:02.038Z</time></trkpt><trkpt lat="44.884125" lon="9.2845417"><ele>592.5</ele><time>2026-04-11T11:30:04.032Z</time></trkpt><trkpt lat="44.8841883" lon="9.2845183"><ele>591.0</ele><time>2026-04-11T11:30:05.033Z</time></trkpt><trkpt lat="44.8842583" lon="9.2844833"><ele>588.0</ele><time>2026-04-11T11:30:06.031Z</time></trkpt><trkpt lat="44.8843333" lon="9.2844433"><ele>585.0</ele><time>2026-04-11T11:30:07.041Z</time></trkpt><trkpt lat="44.8844083" lon="9.2843917"><ele>582.0</ele><time>2026-04-11T11:30:08.034Z</time></trkpt><trkpt lat="44.8844883" lon="9.2843233"><ele>579.0</ele><time>2026-04-11T11:30:09.033Z</time></trkpt><trkpt lat="44.8845733" lon="9.28425"><ele>576.0</ele><time>2026-04-11T11:30:10.032Z</time></trkpt><trkpt lat="44.8846633" lon="9.284165"><ele>576.0</ele><time>2026-04-11T11:30:11.034Z</time></trkpt><trkpt lat="44.8847467" lon="9.2840717"><ele>576.0</ele><time>2026-04-11T11:30:12.04Z</time></trkpt><trkpt lat="44.8848333" lon="9.2839767"><ele>576.0</ele><time>2026-04-11T11:30:13.041Z</time></trkpt><trkpt lat="44.8849083" lon="9.2838817"><ele>576.0</ele><time>2026-04-11T11:30:14.034Z</time></trkpt><trkpt lat="44.8849767" lon="9.2837783"><ele>576.0</ele><time>2026-04-11T11:30:15.033Z</time></trkpt><trkpt lat="44.8850383" lon="9.2836667"><ele>572.8</ele><time>2026-04-11T11:30:16.034Z</time></trkpt><trkpt lat="44.8850967" lon="9.2835667"><ele>569.6</ele><time>2026-04-11T11:30:17.039Z</time></trkpt><trkpt lat="44.8851567" lon="9.2834833"><ele>566.4</ele><time>2026-04-11T11:30:18.042Z</time></trkpt><trkpt lat="44.885225" lon="9.283405"><ele>563.2</ele><time>2026-04-11T11:30:19.031Z</time></trkpt><trkpt lat="44.885305" lon="9.283335"><ele>560.0</ele><time>2026-04-11T11:30:20.038Z</time></trkpt><trkpt lat="44.885395" lon="9.2832717"><ele>560.0</ele><time>2026-04-11T11:30:21.033Z</time></trkpt><trkpt lat="44.88549" lon="9.2832267"><ele>560.0</ele><time>2026-04-11T11:30:22.035Z</time></trkpt><trkpt lat="44.8855783" lon="9.2831917"><ele>560.0</ele><time>2026-04-11T11:30:23.032Z</time></trkpt><trkpt lat="44.8856667" lon="9.28318"><ele>560.0</ele><time>2026-04-11T11:30:24.033Z</time></trkpt><trkpt lat="44.88574" lon="9.283155"><ele>560.0</ele><time>2026-04-11T11:30:25.036Z</time></trkpt><trkpt lat="44.885835" lon="9.283025"><ele>559.1666666666666</ele><time>2026-04-11T11:30:27.044Z</time></trkpt><trkpt lat="44.88586" lon="9.2829267"><ele>558.3333333333333</ele><time>2026-04-11T11:30:28.039Z</time></trkpt><trkpt lat="44.8858567" lon="9.2828317"><ele>557.5</ele><time>2026-04-11T11:30:29.039Z</time></trkpt><trkpt lat="44.8858067" lon="9.28267"><ele>556.6666666666666</ele><time>2026-04-11T11:30:31.038Z</time></trkpt><trkpt lat="44.8858" lon="9.2825733"><ele>555.8333333333334</ele><time>2026-04-11T11:30:32.039Z</time></trkpt><trkpt lat="44.8858133" lon="9.28247"><ele>555.0</ele><time>2026-04-11T11:30:33.04Z</time></trkpt><trkpt lat="44.8858117" lon="9.2823733"><ele>555.0</ele><time>2026-04-11T11:30:34.038Z</time></trkpt><trkpt lat="44.8857933" lon="9.2822883"><ele>555.0</ele><time>2026-04-11T11:30:35.035Z</time></trkpt><trkpt lat="44.88575" lon="9.2822083"><ele>555.0</ele><time>2026-04-11T11:30:36.036Z</time></trkpt><trkpt lat="44.8856717" lon="9.2821367"><ele>555.0</ele><time>2026-04-11T11:30:37.038Z</time></trkpt><trkpt lat="44.88559" lon="9.2820517"><ele>555.0</ele><time>2026-04-11T11:30:38.039Z</time></trkpt><trkpt lat="44.8855117" lon="9.2819567"><ele>555.0</ele><time>2026-04-11T11:30:39.033Z</time></trkpt><trkpt lat="44.885455" lon="9.2818517"><ele>553.1666666666666</ele><time>2026-04-11T11:30:40.038Z</time></trkpt><trkpt lat="44.8854317" lon="9.2817417"><ele>551.3333333333334</ele><time>2026-04-11T11:30:41.042Z</time></trkpt><trkpt lat="44.8854317" lon="9.281645"><ele>549.5</ele><time>2026-04-11T11:30:42.04Z</time></trkpt><trkpt lat="44.88548" lon="9.2814967"><ele>547.6666666666667</ele><time>2026-04-11T11:30:44.03Z</time></trkpt><trkpt lat="44.8855017" lon="9.2814"><ele>545.8333333333334</ele><time>2026-04-11T11:30:45.032Z</time></trkpt><trkpt lat="44.8855317" lon="9.281285"><ele>544.0</ele><time>2026-04-11T11:30:46.033Z</time></trkpt><trkpt lat="44.8855567" lon="9.2811417"><ele>542.2</ele><time>2026-04-11T11:30:47.032Z</time></trkpt><trkpt lat="44.885575" lon="9.2810083"><ele>540.4</ele><time>2026-04-11T11:30:48.037Z</time></trkpt><trkpt lat="44.8855867" lon="9.28089"><ele>538.6</ele><time>2026-04-11T11:30:49.033Z</time></trkpt><trkpt lat="44.8855767" lon="9.2807983"><ele>536.8</ele><time>2026-04-11T11:30:50.033Z</time></trkpt><trkpt lat="44.8854833" lon="9.2806817"><ele>535.0</ele><time>2026-04-11T11:30:52.037Z</time></trkpt><trkpt lat="44.8853983" lon="9.2806217"><ele>531.5</ele><time>2026-04-11T11:30:53.04Z</time></trkpt><trkpt lat="44.8852967" lon="9.2805633"><ele>528.0</ele><time>2026-04-11T11:30:54.039Z</time></trkpt><trkpt lat="44.8851867" lon="9.2804967"><ele>524.5</ele><time>2026-04-11T11:30:55.042Z</time></trkpt><trkpt lat="44.8850767" lon="9.2804317"><ele>521.0</ele><time>2026-04-11T11:30:56.04Z</time></trkpt><trkpt lat="44.8849717" lon="9.2803633"><ele>521.0</ele><time>2026-04-11T11:30:57.042Z</time></trkpt><trkpt lat="44.8848817" lon="9.28029"><ele>521.0</ele><time>2026-04-11T11:30:58.036Z</time></trkpt><trkpt lat="44.88481" lon="9.2802117"><ele>521.0</ele><time>2026-04-11T11:30:59.041Z</time></trkpt><trkpt lat="44.8847667" lon="9.2801317"><ele>521.0</ele><time>2026-04-11T11:31:00.035Z</time></trkpt><trkpt lat="44.8847467" lon="9.2800183"><ele>521.0</ele><time>2026-04-11T11:31:01.032Z</time></trkpt><trkpt lat="44.8847317" lon="9.279895"><ele>521.0</ele><time>2026-04-11T11:31:02.032Z</time></trkpt><trkpt lat="44.8847117" lon="9.2797767"><ele>518.4</ele><time>2026-04-11T11:31:03.041Z</time></trkpt><trkpt lat="44.8846833" lon="9.27966"><ele>515.8</ele><time>2026-04-11T11:31:04.033Z</time></trkpt><trkpt lat="44.8846383" lon="9.2795433"><ele>513.1999999999999</ele><time>2026-04-11T11:31:05.033Z</time></trkpt><trkpt lat="44.8845783" lon="9.2794333"><ele>510.59999999999997</ele><time>2026-04-11T11:31:06.033Z</time></trkpt><trkpt lat="44.8845117" lon="9.2793383"><ele>508.0</ele><time>2026-04-11T11:31:07.03Z</time></trkpt><trkpt lat="44.8844367" lon="9.2792733"><ele>508.0</ele><time>2026-04-11T11:31:08.033Z</time></trkpt><trkpt lat="44.8843483" lon="9.27921"><ele>507.99999999999994</ele><time>2026-04-11T11:31:09.032Z</time></trkpt><trkpt lat="44.8842633" lon="9.2791417"><ele>507.99999999999994</ele><time>2026-04-11T11:31:10.031Z</time></trkpt><trkpt lat="44.8841817" lon="9.2790567"><ele>508.0</ele><time>2026-04-11T11:31:11.035Z</time></trkpt><trkpt lat="44.88411" lon="9.2789583"><ele>508.0</ele><time>2026-04-11T11:31:12.041Z</time></trkpt><trkpt lat="44.8840583" lon="9.2788567"><ele>508.1666666666667</ele><time>2026-04-11T11:31:13.04Z</time></trkpt><trkpt lat="44.8840267" lon="9.2787633"><ele>508.33333333333337</ele><time>2026-04-11T11:31:14.04Z</time></trkpt><trkpt lat="44.88402" lon="9.2786667"><ele>508.5</ele><time>2026-04-11T11:31:15.034Z</time></trkpt><trkpt lat="44.8840917" lon="9.27852"><ele>508.66666666666663</ele><time>2026-04-11T11:31:17.032Z</time></trkpt><trkpt lat="44.8841367" lon="9.27845"><ele>508.8333333333333</ele><time>2026-04-11T11:31:18.032Z</time></trkpt><trkpt lat="44.8841883" lon="9.2783717"><ele>509.0</ele><time>2026-04-11T11:31:19.04Z</time></trkpt><trkpt lat="44.884235" lon="9.27829"><ele>506.8333333333333</ele><time>2026-04-11T11:31:20.035Z</time></trkpt><trkpt lat="44.8842717" lon="9.278205"><ele>504.66666666666663</ele><time>2026-04-11T11:31:21.032Z</time></trkpt><trkpt lat="44.8842867" lon="9.2781067"><ele>502.5</ele><time>2026-04-11T11:31:22.037Z</time></trkpt><trkpt lat="44.88429" lon="9.2779983"><ele>500.33333333333337</ele><time>2026-04-11T11:31:23.033Z</time></trkpt><trkpt lat="44.8842867" lon="9.27788"><ele>498.1666666666667</ele><time>2026-04-11T11:31:24.034Z</time></trkpt><trkpt lat="44.8842883" lon="9.2777467"><ele>496.0</ele><time>2026-04-11T11:31:25.035Z</time></trkpt><trkpt lat="44.8842917" lon="9.2775917"><ele>493.0</ele><time>2026-04-11T11:31:26.032Z</time></trkpt><trkpt lat="44.8842983" lon="9.2774333"><ele>490.0</ele><time>2026-04-11T11:31:27.033Z</time></trkpt><trkpt lat="44.8843067" lon="9.277275"><ele>487.0</ele><time>2026-04-11T11:31:28.033Z</time></trkpt><trkpt lat="44.88432" lon="9.2771067"><ele>484.0</ele><time>2026-04-11T11:31:29.038Z</time></trkpt><trkpt lat="44.88433" lon="9.2769383"><ele>482.4</ele><time>2026-04-11T11:31:30.032Z</time></trkpt><trkpt lat="44.884335" lon="9.276775"><ele>480.79999999999995</ele><time>2026-04-11T11:31:31.034Z</time></trkpt><trkpt lat="44.8843367" lon="9.276625"><ele>479.20000000000005</ele><time>2026-04-11T11:31:32.032Z</time></trkpt><trkpt lat="44.884335" lon="9.2764817"><ele>477.6</ele><time>2026-04-11T11:31:33.034Z</time></trkpt><trkpt lat="44.8843383" lon="9.27634"><ele>476.0</ele><time>2026-04-11T11:31:34.034Z</time></trkpt><trkpt lat="44.8843383" lon="9.276195"><ele>474.25</ele><time>2026-04-11T11:31:35.033Z</time></trkpt><trkpt lat="44.88434" lon="9.2760483"><ele>472.5</ele><time>2026-04-11T11:31:36.042Z</time></trkpt><trkpt lat="44.8843483" lon="9.2758917"><ele>470.75</ele><time>2026-04-11T11:31:37.033Z</time></trkpt><trkpt lat="44.8843583" lon="9.275725"><ele>469.0</ele><time>2026-04-11T11:31:38.032Z</time></trkpt><trkpt lat="44.88436" lon="9.2755467"><ele>467.0</ele><time>2026-04-11T11:31:39.037Z</time></trkpt><trkpt lat="44.884355" lon="9.2753733"><ele>465.0</ele><time>2026-04-11T11:31:40.039Z</time></trkpt><trkpt lat="44.8843467" lon="9.2752083"><ele>463.0</ele><time>2026-04-11T11:31:41.031Z</time></trkpt><trkpt lat="44.8843367" lon="9.2750483"><ele>461.0</ele><time>2026-04-11T11:31:42.043Z</time></trkpt><trkpt lat="44.88433" lon="9.274885"><ele>460.4</ele><time>2026-04-11T11:31:43.041Z</time></trkpt><trkpt lat="44.88432" lon="9.2747367"><ele>459.8</ele><time>2026-04-11T11:31:44.042Z</time></trkpt><trkpt lat="44.8843033" lon="9.2746033"><ele>459.19999999999993</ele><time>2026-04-11T11:31:45.031Z</time></trkpt><trkpt lat="44.8842717" lon="9.2744817"><ele>458.59999999999997</ele><time>2026-04-11T11:31:46.04Z</time></trkpt><trkpt lat="44.8842233" lon="9.2743767"><ele>458.0</ele><time>2026-04-11T11:31:47.03Z</time></trkpt><trkpt lat="44.8841567" lon="9.2742783"><ele>458.0</ele><time>2026-04-11T11:31:48.033Z</time></trkpt><trkpt lat="44.88408" lon="9.274185"><ele>457.99999999999994</ele><time>2026-04-11T11:31:49.035Z</time></trkpt><trkpt lat="44.88401" lon="9.2741067"><ele>457.99999999999994</ele><time>2026-04-11T11:31:50.037Z</time></trkpt><trkpt lat="44.883935" lon="9.2740167"><ele>458.0</ele><time>2026-04-11T11:31:52.039Z</time></trkpt><trkpt lat="44.8838617" lon="9.2739467"><ele>458.0</ele><time>2026-04-11T11:31:55.038Z</time></trkpt><trkpt lat="44.8837767" lon="9.273925"><ele>458.0</ele><time>2026-04-11T11:31:57.037Z</time></trkpt><trkpt lat="44.8836817" lon="9.27402"><ele>457.99999999999994</ele><time>2026-04-11T11:31:59.042Z</time></trkpt><trkpt lat="44.883635" lon="9.2741033"><ele>457.99999999999994</ele><time>2026-04-11T11:32:00.038Z</time></trkpt><trkpt lat="44.883585" lon="9.2741967"><ele>458.0</ele><time>2026-04-11T11:32:01.036Z</time></trkpt><trkpt lat="44.8835317" lon="9.274295"><ele>458.0</ele><time>2026-04-11T11:32:02.039Z</time></trkpt><trkpt lat="44.8834817" lon="9.2744017"><ele>458.0</ele><time>2026-04-11T11:32:03.041Z</time></trkpt><trkpt lat="44.8834417" lon="9.27452"><ele>457.99999999999994</ele><time>2026-04-11T11:32:04.032Z</time></trkpt><trkpt lat="44.8834167" lon="9.274655"><ele>457.99999999999994</ele><time>2026-04-11T11:32:05.036Z</time></trkpt><trkpt lat="44.8833983" lon="9.2747967"><ele>458.0</ele><time>2026-04-11T11:32:06.039Z</time></trkpt><trkpt lat="44.8833667" lon="9.274925"><ele>458.0</ele><time>2026-04-11T11:32:07.041Z</time></trkpt><trkpt lat="44.8833233" lon="9.2750333"><ele>457.0</ele><time>2026-04-11T11:32:08.044Z</time></trkpt><trkpt lat="44.8832667" lon="9.27511"><ele>455.99999999999994</ele><time>2026-04-11T11:32:09.039Z</time></trkpt><trkpt lat="44.8831767" lon="9.275115"><ele>454.99999999999994</ele><time>2026-04-11T11:32:10.038Z</time></trkpt><trkpt lat="44.88307" lon="9.2750867"><ele>454.0</ele><time>2026-04-11T11:32:11.037Z</time></trkpt><trkpt lat="44.8829667" lon="9.275035"><ele>453.0</ele><time>2026-04-11T11:32:12.037Z</time></trkpt><trkpt lat="44.8828833" lon="9.27495"><ele>453.0</ele><time>2026-04-11T11:32:13.038Z</time></trkpt><trkpt lat="44.8828083" lon="9.274835"><ele>453.0</ele><time>2026-04-11T11:32:14.037Z</time></trkpt><trkpt lat="44.8827317" lon="9.2746933"><ele>453.0</ele><time>2026-04-11T11:32:15.035Z</time></trkpt><trkpt lat="44.882645" lon="9.2745483"><ele>453.0</ele><time>2026-04-11T11:32:16.034Z</time></trkpt><trkpt lat="44.88255" lon="9.2744117"><ele>450.25</ele><time>2026-04-11T11:32:17.039Z</time></trkpt><trkpt lat="44.88245" lon="9.2742883"><ele>447.5</ele><time>2026-04-11T11:32:18.037Z</time></trkpt><trkpt lat="44.8823467" lon="9.2741833"><ele>444.75</ele><time>2026-04-11T11:32:19.041Z</time></trkpt><trkpt lat="44.8822433" lon="9.2741017"><ele>442.0</ele><time>2026-04-11T11:32:20.041Z</time></trkpt><trkpt lat="44.8821367" lon="9.27404"><ele>442.0</ele><time>2026-04-11T11:32:21.045Z</time></trkpt><trkpt lat="44.8820317" lon="9.2739967"><ele>442.00000000000006</ele><time>2026-04-11T11:32:22.036Z</time></trkpt><trkpt lat="44.88193" lon="9.27397"><ele>442.00000000000006</ele><time>2026-04-11T11:32:23.042Z</time></trkpt><trkpt lat="44.88183" lon="9.2739517"><ele>442.0</ele><time>2026-04-11T11:32:24.039Z</time></trkpt><trkpt lat="44.88173" lon="9.2739333"><ele>442.0</ele><time>2026-04-11T11:32:25.045Z</time></trkpt><trkpt lat="44.8816233" lon="9.2739133"><ele>440.50000000000006</ele><time>2026-04-11T11:32:26.04Z</time></trkpt><trkpt lat="44.8815233" lon="9.273905"><ele>439.0</ele><time>2026-04-11T11:32:27.041Z</time></trkpt><trkpt lat="44.8814267" lon="9.2739067"><ele>437.5</ele><time>2026-04-11T11:32:28.039Z</time></trkpt><trkpt lat="44.8813367" lon="9.2739083"><ele>436.0</ele><time>2026-04-11T11:32:29.04Z</time></trkpt><trkpt lat="44.8812567" lon="9.2738833"><ele>434.50000000000006</ele><time>2026-04-11T11:32:30.043Z</time></trkpt><trkpt lat="44.8811883" lon="9.2738233"><ele>433.0</ele><time>2026-04-11T11:32:31.042Z</time></trkpt><trkpt lat="44.8811383" lon="9.273705"><ele>433.0</ele><time>2026-04-11T11:32:32.039Z</time></trkpt><trkpt lat="44.8810933" lon="9.2735417"><ele>433.0</ele><time>2026-04-11T11:32:33.042Z</time></trkpt><trkpt lat="44.881045" lon="9.27337"><ele>433.0</ele><time>2026-04-11T11:32:34.042Z</time></trkpt><trkpt lat="44.8809933" lon="9.2732167"><ele>433.0</ele><time>2026-04-11T11:32:35.04Z</time></trkpt><trkpt lat="44.8809333" lon="9.273085"><ele>429.4</ele><time>2026-04-11T11:32:36.034Z</time></trkpt><trkpt lat="44.8808667" lon="9.272975"><ele>425.79999999999995</ele><time>2026-04-11T11:32:37.039Z</time></trkpt><trkpt lat="44.8807833" lon="9.2729033"><ele>422.2</ele><time>2026-04-11T11:32:38.041Z</time></trkpt><trkpt lat="44.8806917" lon="9.2728433"><ele>418.6</ele><time>2026-04-11T11:32:39.043Z</time></trkpt><trkpt lat="44.8805917" lon="9.2727867"><ele>415.0</ele><time>2026-04-11T11:32:40.03Z</time></trkpt><trkpt lat="44.8804833" lon="9.2727367"><ele>415.0</ele><time>2026-04-11T11:32:41.039Z</time></trkpt><trkpt lat="44.8803683" lon="9.272695"><ele>415.0</ele><time>2026-04-11T11:32:42.039Z</time></trkpt><trkpt lat="44.8802433" lon="9.272675"><ele>415.0</ele><time>2026-04-11T11:32:43.045Z</time></trkpt><trkpt lat="44.8801217" lon="9.2726733"><ele>415.0</ele><time>2026-04-11T11:32:44.039Z</time></trkpt><trkpt lat="44.880005" lon="9.2726733"><ele>413.6</ele><time>2026-04-11T11:32:45.043Z</time></trkpt><trkpt lat="44.8798967" lon="9.2726583"><ele>412.2</ele><time>2026-04-11T11:32:46.038Z</time></trkpt><trkpt lat="44.8798017" lon="9.2726133"><ele>410.79999999999995</ele><time>2026-04-11T11:32:47.037Z</time></trkpt><trkpt lat="44.8797217" lon="9.2725333"><ele>409.4</ele><time>2026-04-11T11:32:48.04Z</time></trkpt><trkpt lat="44.8796517" lon="9.2724367"><ele>408.0</ele><time>2026-04-11T11:32:49.041Z</time></trkpt><trkpt lat="44.8795783" lon="9.2723383"><ele>405.79999999999995</ele><time>2026-04-11T11:32:50.038Z</time></trkpt><trkpt lat="44.8795017" lon="9.2722483"><ele>403.6</ele><time>2026-04-11T11:32:51.043Z</time></trkpt><trkpt lat="44.8794267" lon="9.27217"><ele>401.4</ele><time>2026-04-11T11:32:52.039Z</time></trkpt><trkpt lat="44.8793483" lon="9.2721033"><ele>399.20000000000005</ele><time>2026-04-11T11:32:53.034Z</time></trkpt><trkpt lat="44.87926" lon="9.27205"><ele>397.0</ele><time>2026-04-11T11:32:54.042Z</time></trkpt><trkpt lat="44.8791633" lon="9.2720033"><ele>396.6</ele><time>2026-04-11T11:32:55.04Z</time></trkpt><trkpt lat="44.8790583" lon="9.2719517"><ele>396.20000000000005</ele><time>2026-04-11T11:32:56.034Z</time></trkpt><trkpt lat="44.87895" lon="9.271885"><ele>395.8</ele><time>2026-04-11T11:32:57.041Z</time></trkpt><trkpt lat="44.8788483" lon="9.27182"><ele>395.4</ele><time>2026-04-11T11:32:58.04Z</time></trkpt><trkpt lat="44.8787517" lon="9.271765"><ele>395.0</ele><time>2026-04-11T11:32:59.04Z</time></trkpt><trkpt lat="44.8786533" lon="9.271725"><ele>395.0</ele><time>2026-04-11T11:33:00.034Z</time></trkpt><trkpt lat="44.8785683" lon="9.2717033"><ele>395.0</ele><time>2026-04-11T11:33:01.034Z</time></trkpt><trkpt lat="44.8785" lon="9.2716733"><ele>395.0</ele><time>2026-04-11T11:33:02.038Z</time></trkpt><trkpt lat="44.8784333" lon="9.2715583"><ele>395.0</ele><time>2026-04-11T11:33:04.034Z</time></trkpt><trkpt lat="44.8784533" lon="9.27139"><ele>395.0</ele><time>2026-04-11T11:33:06.037Z</time></trkpt><trkpt lat="44.8784883" lon="9.2713"><ele>394.2857142857143</ele><time>2026-04-11T11:33:07.039Z</time></trkpt><trkpt lat="44.8785367" lon="9.2712217"><ele>393.5714285714286</ele><time>2026-04-11T11:33:08.041Z</time></trkpt><trkpt lat="44.8785867" lon="9.2711567"><ele>392.8571428571429</ele><time>2026-04-11T11:33:09.04Z</time></trkpt><trkpt lat="44.878635" lon="9.2710933"><ele>392.1428571428571</ele><time>2026-04-11T11:33:10.038Z</time></trkpt><trkpt lat="44.878695" lon="9.2710217"><ele>391.42857142857144</ele><time>2026-04-11T11:33:11.03Z</time></trkpt><trkpt lat="44.8787517" lon="9.2709467"><ele>390.7142857142857</ele><time>2026-04-11T11:33:12.034Z</time></trkpt><trkpt lat="44.87881" lon="9.2708717"><ele>390.0</ele><time>2026-04-11T11:33:13.04Z</time></trkpt><trkpt lat="44.87887" lon="9.2708"><ele>390.0</ele><time>2026-04-11T11:33:14.042Z</time></trkpt><trkpt lat="44.8789317" lon="9.2707267"><ele>390.0</ele><time>2026-04-11T11:33:15.042Z</time></trkpt><trkpt lat="44.8789917" lon="9.2706517"><ele>390.0</ele><time>2026-04-11T11:33:16.038Z</time></trkpt><trkpt lat="44.8790433" lon="9.2705733"><ele>390.0</ele><time>2026-04-11T11:33:17.033Z</time></trkpt><trkpt lat="44.8790833" lon="9.2704883"><ele>390.0</ele><time>2026-04-11T11:33:18.038Z</time></trkpt><trkpt lat="44.87911" lon="9.2703933"><ele>390.0</ele><time>2026-04-11T11:33:19.032Z</time></trkpt><trkpt lat="44.8791267" lon="9.2702833"><ele>388.8</ele><time>2026-04-11T11:33:20.037Z</time></trkpt><trkpt lat="44.8791233" lon="9.2701633"><ele>387.6</ele><time>2026-04-11T11:33:21.04Z</time></trkpt><trkpt lat="44.8790967" lon="9.2700333"><ele>386.4</ele><time>2026-04-11T11:33:22.035Z</time></trkpt><trkpt lat="44.8790467" lon="9.26989"><ele>385.2</ele><time>2026-04-11T11:33:23.04Z</time></trkpt><trkpt lat="44.87898" lon="9.269745"><ele>384.0</ele><time>2026-04-11T11:33:24.041Z</time></trkpt><trkpt lat="44.8789083" lon="9.2696017"><ele>383.5</ele><time>2026-04-11T11:33:25.036Z</time></trkpt><trkpt lat="44.878835" lon="9.2694633"><ele>383.0</ele><time>2026-04-11T11:33:26.034Z</time></trkpt><trkpt lat="44.8787633" lon="9.2693267"><ele>382.5</ele><time>2026-04-11T11:33:27.043Z</time></trkpt><trkpt lat="44.8786917" lon="9.269185"><ele>382.0</ele><time>2026-04-11T11:33:28.039Z</time></trkpt><trkpt lat="44.8786267" lon="9.2690433"><ele>383.0</ele><time>2026-04-11T11:33:29.039Z</time></trkpt><trkpt lat="44.8785733" lon="9.2689"><ele>384.0</ele><time>2026-04-11T11:33:30.038Z</time></trkpt><trkpt lat="44.878545" lon="9.268755"><ele>385.0</ele><time>2026-04-11T11:33:31.039Z</time></trkpt><trkpt lat="44.878535" lon="9.26861"><ele>386.0</ele><time>2026-04-11T11:33:32.037Z</time></trkpt><trkpt lat="44.8785417" lon="9.268475"><ele>387.0</ele><time>2026-04-11T11:33:33.038Z</time></trkpt><trkpt lat="44.878555" lon="9.2683617"><ele>387.0</ele><time>2026-04-11T11:33:34.039Z</time></trkpt><trkpt lat="44.878575" lon="9.268275"><ele>387.0</ele><time>2026-04-11T11:33:35.039Z</time></trkpt><trkpt lat="44.8786567" lon="9.26814"><ele>387.0</ele><time>2026-04-11T11:33:37.038Z</time></trkpt><trkpt lat="44.8787233" lon="9.2680617"><ele>387.0</ele><time>2026-04-11T11:33:38.037Z</time></trkpt><trkpt lat="44.8788017" lon="9.2679617"><ele>387.0</ele><time>2026-04-11T11:33:39.042Z</time></trkpt><trkpt lat="44.87889" lon="9.2678383"><ele>387.25</ele><time>2026-04-11T11:33:40.033Z</time></trkpt><trkpt lat="44.8789833" lon="9.267705"><ele>387.5</ele><time>2026-04-11T11:33:41.029Z</time></trkpt><trkpt lat="44.8790817" lon="9.2675717"><ele>387.75</ele><time>2026-04-11T11:33:42.031Z</time></trkpt><trkpt lat="44.8791817" lon="9.2674383"><ele>388.0</ele><time>2026-04-11T11:33:43.034Z</time></trkpt><trkpt lat="44.8792767" lon="9.267305"><ele>387.0</ele><time>2026-04-11T11:33:44.037Z</time></trkpt><trkpt lat="44.8793733" lon="9.2671683"><ele>386.0</ele><time>2026-04-11T11:33:45.04Z</time></trkpt><trkpt lat="44.8794733" lon="9.2670217"><ele>385.0</ele><time>2026-04-11T11:33:46.038Z</time></trkpt><trkpt lat="44.879585" lon="9.2668667"><ele>384.0</ele><time>2026-04-11T11:33:47.039Z</time></trkpt><trkpt lat="44.8796883" lon="9.2667167"><ele>384.0</ele><time>2026-04-11T11:33:48.041Z</time></trkpt><trkpt lat="44.8797833" lon="9.26657"><ele>384.0</ele><time>2026-04-11T11:33:49.037Z</time></trkpt><trkpt lat="44.8798683" lon="9.2664183"><ele>384.0</ele><time>2026-04-11T11:33:50.04Z</time></trkpt><trkpt lat="44.879935" lon="9.2662583"><ele>384.0</ele><time>2026-04-11T11:33:51.039Z</time></trkpt><trkpt lat="44.87999" lon="9.2660883"><ele>384.25</ele><time>2026-04-11T11:33:52.033Z</time></trkpt><trkpt lat="44.8800417" lon="9.265905"><ele>384.5</ele><time>2026-04-11T11:33:53.037Z</time></trkpt><trkpt lat="44.8800933" lon="9.26572"><ele>384.75</ele><time>2026-04-11T11:33:54.039Z</time></trkpt><trkpt lat="44.88014" lon="9.2655417"><ele>385.0</ele><time>2026-04-11T11:33:55.038Z</time></trkpt><trkpt lat="44.88019" lon="9.26538"><ele>385.5</ele><time>2026-04-11T11:33:56.037Z</time></trkpt><trkpt lat="44.8802467" lon="9.2652383"><ele>386.0</ele><time>2026-04-11T11:33:57.039Z</time></trkpt><trkpt lat="44.8803233" lon="9.2651333"><ele>386.5</ele><time>2026-04-11T11:33:58.037Z</time></trkpt><trkpt lat="44.8804217" lon="9.2650567"><ele>387.0</ele><time>2026-04-11T11:33:59.04Z</time></trkpt><trkpt lat="44.880555" lon="9.2650233"><ele>387.0</ele><time>2026-04-11T11:34:00.031Z</time></trkpt><trkpt lat="44.88071" lon="9.2650133"><ele>387.0</ele><time>2026-04-11T11:34:01.038Z</time></trkpt><trkpt lat="44.8808717" lon="9.2650033"><ele>387.0</ele><time>2026-04-11T11:34:02.038Z</time></trkpt><trkpt lat="44.8810317" lon="9.264995"><ele>385.6666666666667</ele><time>2026-04-11T11:34:03.041Z</time></trkpt><trkpt lat="44.8811883" lon="9.2649867"><ele>384.33333333333337</ele><time>2026-04-11T11:34:04.038Z</time></trkpt><trkpt lat="44.88135" lon="9.2649767"><ele>383.0</ele><time>2026-04-11T11:34:05.04Z</time></trkpt><trkpt lat="44.881515" lon="9.264965"><ele>383.0</ele><time>2026-04-11T11:34:06.036Z</time></trkpt><trkpt lat="44.881685" lon="9.2649483"><ele>383.0</ele><time>2026-04-11T11:34:07.04Z</time></trkpt><trkpt lat="44.8818517" lon="9.2649217"><ele>383.0</ele><time>2026-04-11T11:34:08.04Z</time></trkpt><trkpt lat="44.8820183" lon="9.26489"><ele>382.33333333333337</ele><time>2026-04-11T11:34:09.041Z</time></trkpt><trkpt lat="44.882185" lon="9.2648517"><ele>381.6666666666667</ele><time>2026-04-11T11:34:10.036Z</time></trkpt><trkpt lat="44.882355" lon="9.2648133"><ele>381.0</ele><time>2026-04-11T11:34:11.04Z</time></trkpt><trkpt lat="44.8825267" lon="9.2647733"><ele>381.6666666666667</ele><time>2026-04-11T11:34:12.04Z</time></trkpt><trkpt lat="44.88269" lon="9.2647317"><ele>382.33333333333337</ele><time>2026-04-11T11:34:13.034Z</time></trkpt><trkpt lat="44.882845" lon="9.26469"><ele>383.0</ele><time>2026-04-11T11:34:14.038Z</time></trkpt><trkpt lat="44.8829833" lon="9.2646567"><ele>383.0</ele><time>2026-04-11T11:34:15.04Z</time></trkpt><trkpt lat="44.8831067" lon="9.2646267"><ele>383.0</ele><time>2026-04-11T11:34:16.038Z</time></trkpt><trkpt lat="44.883215" lon="9.2645983"><ele>383.0</ele><time>2026-04-11T11:34:17.037Z</time></trkpt><trkpt lat="44.8833083" lon="9.26457"><ele>383.0</ele><time>2026-04-11T11:34:18.037Z</time></trkpt><trkpt lat="44.8833883" lon="9.26454"><ele>383.0</ele><time>2026-04-11T11:34:19.038Z</time></trkpt><trkpt lat="44.883455" lon="9.264505"><ele>383.0</ele><time>2026-04-11T11:34:20.039Z</time></trkpt><trkpt lat="44.88351" lon="9.26445"><ele>383.0</ele><time>2026-04-11T11:34:21.041Z</time></trkpt><trkpt lat="44.8835617" lon="9.2643667"><ele>383.0</ele><time>2026-04-11T11:34:22.033Z</time></trkpt><trkpt lat="44.8836067" lon="9.26425"><ele>383.0</ele><time>2026-04-11T11:34:23.037Z</time></trkpt><trkpt lat="44.88364" lon="9.2641133"><ele>383.0</ele><time>2026-04-11T11:34:24.036Z</time></trkpt><trkpt lat="44.8836633" lon="9.26397"><ele>383.0</ele><time>2026-04-11T11:34:25.03Z</time></trkpt><trkpt lat="44.88367" lon="9.263845"><ele>383.0</ele><time>2026-04-11T11:34:26.03Z</time></trkpt><trkpt lat="44.8836417" lon="9.2637417"><ele>383.0</ele><time>2026-04-11T11:34:27.029Z</time></trkpt><trkpt lat="44.8835917" lon="9.263635"><ele>383.0</ele><time>2026-04-11T11:34:28.03Z</time></trkpt><trkpt lat="44.8835267" lon="9.263505"><ele>383.0</ele><time>2026-04-11T11:34:29.03Z</time></trkpt><trkpt lat="44.8834683" lon="9.263405"><ele>383.0</ele><time>2026-04-11T11:34:30.032Z</time></trkpt><trkpt lat="44.8834283" lon="9.2633217"><ele>383.0</ele><time>2026-04-11T11:34:31.03Z</time></trkpt><trkpt lat="44.88344" lon="9.2632283"><ele>383.7142857142857</ele><time>2026-04-11T11:34:32.032Z</time></trkpt><trkpt lat="44.8834683" lon="9.2631133"><ele>384.42857142857144</ele><time>2026-04-11T11:34:33.04Z</time></trkpt><trkpt lat="44.8834967" lon="9.2629967"><ele>385.1428571428571</ele><time>2026-04-11T11:34:34.034Z</time></trkpt><trkpt lat="44.8835133" lon="9.2628933"><ele>385.8571428571429</ele><time>2026-04-11T11:34:35.037Z</time></trkpt><trkpt lat="44.8835067" lon="9.2627967"><ele>386.5714285714286</ele><time>2026-04-11T11:34:36.042Z</time></trkpt><trkpt lat="44.88349" lon="9.2627083"><ele>387.2857142857143</ele><time>2026-04-11T11:34:37.041Z</time></trkpt><trkpt lat="44.8834717" lon="9.2626217"><ele>388.0</ele><time>2026-04-11T11:34:38.041Z</time></trkpt><trkpt lat="44.8834617" lon="9.2625267"><ele>388.00000000000006</ele><time>2026-04-11T11:34:39.042Z</time></trkpt><trkpt lat="44.8834583" lon="9.26242"><ele>388.0</ele><time>2026-04-11T11:34:40.039Z</time></trkpt><trkpt lat="44.88345" lon="9.2623117"><ele>388.0</ele><time>2026-04-11T11:34:41.038Z</time></trkpt><trkpt lat="44.88344" lon="9.262195"><ele>388.0</ele><time>2026-04-11T11:34:42.031Z</time></trkpt><trkpt lat="44.8834083" lon="9.2620417"><ele>388.00000000000006</ele><time>2026-04-11T11:34:43.031Z</time></trkpt><trkpt lat="44.8833983" lon="9.26195"><ele>388.0</ele><time>2026-04-11T11:34:44.032Z</time></trkpt><trkpt lat="44.8834033" lon="9.26184"><ele>388.2</ele><time>2026-04-11T11:34:45.032Z</time></trkpt><trkpt lat="44.8834283" lon="9.2617283"><ele>388.4</ele><time>2026-04-11T11:34:46.029Z</time></trkpt><trkpt lat="44.8834433" lon="9.2616383"><ele>388.59999999999997</ele><time>2026-04-11T11:34:47.03Z</time></trkpt><trkpt lat="44.88345" lon="9.2614883"><ele>388.79999999999995</ele><time>2026-04-11T11:34:49.039Z</time></trkpt><trkpt lat="44.8833817" lon="9.2613317"><ele>389.0</ele><time>2026-04-11T11:34:51.032Z</time></trkpt><trkpt lat="44.8833467" lon="9.2612367"><ele>389.42857142857144</ele><time>2026-04-11T11:34:52.035Z</time></trkpt><trkpt lat="44.8833233" lon="9.2611183"><ele>389.85714285714283</ele><time>2026-04-11T11:34:53.034Z</time></trkpt><trkpt lat="44.8833133" lon="9.26101"><ele>390.2857142857143</ele><time>2026-04-11T11:34:54.031Z</time></trkpt><trkpt lat="44.8833133" lon="9.260915"><ele>390.7142857142857</ele><time>2026-04-11T11:34:55.04Z</time></trkpt><trkpt lat="44.8833217" lon="9.2608267"><ele>391.1428571428571</ele><time>2026-04-11T11:34:56.031Z</time></trkpt><trkpt lat="44.8833383" lon="9.2607317"><ele>391.57142857142856</ele><time>2026-04-11T11:34:57.032Z</time></trkpt><trkpt lat="44.8833733" lon="9.2606317"><ele>392.0</ele><time>2026-04-11T11:34:58.032Z</time></trkpt><trkpt lat="44.8834033" lon="9.260525"><ele>393.16666666666663</ele><time>2026-04-11T11:34:59.036Z</time></trkpt><trkpt lat="44.88342" lon="9.260425"><ele>394.3333333333333</ele><time>2026-04-11T11:35:00.039Z</time></trkpt><trkpt lat="44.883415" lon="9.2603233"><ele>395.5</ele><time>2026-04-11T11:35:01.037Z</time></trkpt><trkpt lat="44.883385" lon="9.2602183"><ele>396.66666666666663</ele><time>2026-04-11T11:35:02.033Z</time></trkpt><trkpt lat="44.8833533" lon="9.2601017"><ele>397.8333333333333</ele><time>2026-04-11T11:35:03.032Z</time></trkpt><trkpt lat="44.88334" lon="9.2599883"><ele>399.0</ele><time>2026-04-11T11:35:04.033Z</time></trkpt><trkpt lat="44.8833383" lon="9.25987"><ele>399.79999999999995</ele><time>2026-04-11T11:35:05.031Z</time></trkpt><trkpt lat="44.88337" lon="9.2597567"><ele>400.59999999999997</ele><time>2026-04-11T11:35:06.03Z</time></trkpt><trkpt lat="44.883425" lon="9.2596417"><ele>401.4</ele><time>2026-04-11T11:35:07.031Z</time></trkpt><trkpt lat="44.8834717" lon="9.2595283"><ele>402.2</ele><time>2026-04-11T11:35:08.034Z</time></trkpt><trkpt lat="44.8835" lon="9.25944"><ele>403.0</ele><time>2026-04-11T11:35:09.029Z</time></trkpt><trkpt lat="44.8834133" lon="9.2593083"><ele>403.00000000000006</ele><time>2026-04-11T11:35:11.041Z</time></trkpt><trkpt lat="44.8833417" lon="9.259265"><ele>403.0</ele><time>2026-04-11T11:35:12.031Z</time></trkpt><trkpt lat="44.8832483" lon="9.25922"><ele>403.0</ele><time>2026-04-11T11:35:13.03Z</time></trkpt><trkpt lat="44.8831617" lon="9.2591683"><ele>403.0</ele><time>2026-04-11T11:35:14.031Z</time></trkpt><trkpt lat="44.8830783" lon="9.2591333"><ele>403.00000000000006</ele><time>2026-04-11T11:35:15.03Z</time></trkpt><trkpt lat="44.88302" lon="9.2590867"><ele>403.0</ele><time>2026-04-11T11:35:16.03Z</time></trkpt><trkpt lat="44.8829883" lon="9.2589067"><ele>403.6666666666667</ele><time>2026-04-11T11:35:18.034Z</time></trkpt><trkpt lat="44.8829917" lon="9.2588017"><ele>404.33333333333337</ele><time>2026-04-11T11:35:19.033Z</time></trkpt><trkpt lat="44.8829833" lon="9.258695"><ele>405.0</ele><time>2026-04-11T11:35:20.031Z</time></trkpt><trkpt lat="44.8829533" lon="9.2585917"><ele>405.66666666666663</ele><time>2026-04-11T11:35:21.031Z</time></trkpt><trkpt lat="44.88291" lon="9.2584933"><ele>406.3333333333333</ele><time>2026-04-11T11:35:22.031Z</time></trkpt><trkpt lat="44.882855" lon="9.2584"><ele>407.0</ele><time>2026-04-11T11:35:23.03Z</time></trkpt><trkpt lat="44.8827833" lon="9.2583283"><ele>407.0</ele><time>2026-04-11T11:35:24.03Z</time></trkpt><trkpt lat="44.882725" lon="9.2582633"><ele>407.0</ele><time>2026-04-11T11:35:25.03Z</time></trkpt><trkpt lat="44.8826983" lon="9.2581583"><ele>407.0</ele><time>2026-04-11T11:35:26.03Z</time></trkpt><trkpt lat="44.88269" lon="9.2580367"><ele>407.0</ele><time>2026-04-11T11:35:27.03Z</time></trkpt><trkpt lat="44.88269" lon="9.25788"><ele>407.0</ele><time>2026-04-11T11:35:28.03Z</time></trkpt><trkpt lat="44.88269" lon="9.2577"><ele>408.20000000000005</ele><time>2026-04-11T11:35:29.035Z</time></trkpt><trkpt lat="44.882685" lon="9.2575217"><ele>409.4</ele><time>2026-04-11T11:35:30.036Z</time></trkpt><trkpt lat="44.8826783" lon="9.2573833"><ele>410.6</ele><time>2026-04-11T11:35:31.035Z</time></trkpt><trkpt lat="44.8826783" lon="9.2572567"><ele>411.79999999999995</ele><time>2026-04-11T11:35:32.035Z</time></trkpt><trkpt lat="44.8827" lon="9.2571317"><ele>413.0</ele><time>2026-04-11T11:35:33.033Z</time></trkpt><trkpt lat="44.8827083" lon="9.257015"><ele>413.16666666666663</ele><time>2026-04-11T11:35:34.037Z</time></trkpt><trkpt lat="44.8827033" lon="9.2569083"><ele>413.3333333333333</ele><time>2026-04-11T11:35:35.036Z</time></trkpt><trkpt lat="44.8826683" lon="9.2568017"><ele>413.5</ele><time>2026-04-11T11:35:36.031Z</time></trkpt><trkpt lat="44.8826167" lon="9.2566883"><ele>413.66666666666663</ele><time>2026-04-11T11:35:37.031Z</time></trkpt><trkpt lat="44.8826" lon="9.25659"><ele>413.8333333333333</ele><time>2026-04-11T11:35:38.029Z</time></trkpt><trkpt lat="44.8826" lon="9.2564267"><ele>414.0</ele><time>2026-04-11T11:35:40.031Z</time></trkpt><trkpt lat="44.8826267" lon="9.2563233"><ele>415.0</ele><time>2026-04-11T11:35:41.029Z</time></trkpt><trkpt lat="44.8826617" lon="9.2562167"><ele>416.0</ele><time>2026-04-11T11:35:42.032Z</time></trkpt><trkpt lat="44.882705" lon="9.2561033"><ele>417.0</ele><time>2026-04-11T11:35:43.031Z</time></trkpt><trkpt lat="44.8827417" lon="9.255985"><ele>418.0</ele><time>2026-04-11T11:35:44.029Z</time></trkpt><trkpt lat="44.8827667" lon="9.255865"><ele>419.0</ele><time>2026-04-11T11:35:45.031Z</time></trkpt><trkpt lat="44.8827883" lon="9.2557483"><ele>420.0</ele><time>2026-04-11T11:35:46.121Z</time></trkpt><trkpt lat="44.8827917" lon="9.2556417"><ele>421.14285714285717</ele><time>2026-04-11T11:35:47.03Z</time></trkpt><trkpt lat="44.88277" lon="9.2555433"><ele>422.2857142857143</ele><time>2026-04-11T11:35:48.03Z</time></trkpt><trkpt lat="44.8827233" lon="9.2554783"><ele>423.42857142857144</ele><time>2026-04-11T11:35:49.03Z</time></trkpt><trkpt lat="44.88266" lon="9.2554367"><ele>424.57142857142856</ele><time>2026-04-11T11:35:50.036Z</time></trkpt><trkpt lat="44.8825933" lon="9.2553983"><ele>425.7142857142857</ele><time>2026-04-11T11:35:51.035Z</time></trkpt><trkpt lat="44.8825283" lon="9.2553617"><ele>426.8571428571429</ele><time>2026-04-11T11:35:52.035Z</time></trkpt><trkpt lat="44.8824717" lon="9.255315"><ele>428.0</ele><time>2026-04-11T11:35:53.03Z</time></trkpt><trkpt lat="44.8824267" lon="9.2552517"><ele>425.66666666666663</ele><time>2026-04-11T11:35:54.03Z</time></trkpt><trkpt lat="44.882395" lon="9.255165"><ele>423.3333333333333</ele><time>2026-04-11T11:35:55.034Z</time></trkpt><trkpt lat="44.8823733" lon="9.2550517"><ele>421.0</ele><time>2026-04-11T11:35:56.03Z</time></trkpt><trkpt lat="44.8823617" lon="9.2549267"><ele>418.66666666666663</ele><time>2026-04-11T11:35:57.031Z</time></trkpt><trkpt lat="44.8823633" lon="9.2547967"><ele>416.3333333333333</ele><time>2026-04-11T11:35:58.034Z</time></trkpt><trkpt lat="44.8823733" lon="9.2546467"><ele>414.0</ele><time>2026-04-11T11:35:59.034Z</time></trkpt><trkpt lat="44.882385" lon="9.2545317"><ele>414.0</ele><time>2026-04-11T11:36:00.031Z</time></trkpt><trkpt lat="44.8823917" lon="9.2544317"><ele>414.0</ele><time>2026-04-11T11:36:01.032Z</time></trkpt><trkpt lat="44.88241" lon="9.2542517"><ele>414.0</ele><time>2026-04-11T11:36:03.031Z</time></trkpt><trkpt lat="44.8824317" lon="9.25408"><ele>414.0</ele><time>2026-04-11T11:36:05.03Z</time></trkpt><trkpt lat="44.8824017" lon="9.253985"><ele>414.0</ele><time>2026-04-11T11:36:06.032Z</time></trkpt><trkpt lat="44.88235" lon="9.2538867"><ele>414.6666666666667</ele><time>2026-04-11T11:36:07.029Z</time></trkpt><trkpt lat="44.8822867" lon="9.253795"><ele>415.33333333333337</ele><time>2026-04-11T11:36:08.029Z</time></trkpt><trkpt lat="44.88223" lon="9.2537017"><ele>416.0</ele><time>2026-04-11T11:36:09.032Z</time></trkpt><trkpt lat="44.8821817" lon="9.2536167"><ele>416.6666666666667</ele><time>2026-04-11T11:36:10.042Z</time></trkpt><trkpt lat="44.882165" lon="9.25351"><ele>417.33333333333337</ele><time>2026-04-11T11:36:11.037Z</time></trkpt><trkpt lat="44.8821683" lon="9.2534017"><ele>418.0</ele><time>2026-04-11T11:36:12.039Z</time></trkpt><trkpt lat="44.8822" lon="9.2532983"><ele>418.00000000000006</ele><time>2026-04-11T11:36:13.028Z</time></trkpt><trkpt lat="44.88227" lon="9.2531817"><ele>418.0</ele><time>2026-04-11T11:36:14.037Z</time></trkpt><trkpt lat="44.882335" lon="9.25307"><ele>418.0</ele><time>2026-04-11T11:36:15.035Z</time></trkpt><trkpt lat="44.882375" lon="9.2529583"><ele>418.0</ele><time>2026-04-11T11:36:16.036Z</time></trkpt><trkpt lat="44.8823783" lon="9.2528517"><ele>418.00000000000006</ele><time>2026-04-11T11:36:17.038Z</time></trkpt><trkpt lat="44.88235" lon="9.25277"><ele>418.0</ele><time>2026-04-11T11:36:18.04Z</time></trkpt><trkpt lat="44.8822817" lon="9.252685"><ele>419.0</ele><time>2026-04-11T11:36:19.032Z</time></trkpt><trkpt lat="44.88219" lon="9.2526083"><ele>420.0</ele><time>2026-04-11T11:36:20.033Z</time></trkpt><trkpt lat="44.88209" lon="9.252535"><ele>421.0</ele><time>2026-04-11T11:36:21.033Z</time></trkpt><trkpt lat="44.882015" lon="9.2524717"><ele>422.0</ele><time>2026-04-11T11:36:22.032Z</time></trkpt><trkpt lat="44.8819433" lon="9.25238"><ele>423.0</ele><time>2026-04-11T11:36:23.034Z</time></trkpt><trkpt lat="44.88189" lon="9.2522717"><ele>423.4</ele><time>2026-04-11T11:36:24.032Z</time></trkpt><trkpt lat="44.8818767" lon="9.2521567"><ele>423.79999999999995</ele><time>2026-04-11T11:36:25.03Z</time></trkpt><trkpt lat="44.881895" lon="9.25201"><ele>424.2</ele><time>2026-04-11T11:36:26.034Z</time></trkpt><trkpt lat="44.8819083" lon="9.2518833"><ele>424.6</ele><time>2026-04-11T11:36:27.031Z</time></trkpt><trkpt lat="44.88192" lon="9.2517583"><ele>425.0</ele><time>2026-04-11T11:36:28.03Z</time></trkpt><trkpt lat="44.8819467" lon="9.2516417"><ele>424.99999999999994</ele><time>2026-04-11T11:36:29.034Z</time></trkpt><trkpt lat="44.8819833" lon="9.2515517"><ele>425.0</ele><time>2026-04-11T11:36:30.031Z</time></trkpt><trkpt lat="44.8819967" lon="9.2514617"><ele>425.0</ele><time>2026-04-11T11:36:31.03Z</time></trkpt><trkpt lat="44.88199" lon="9.2513217"><ele>425.0</ele><time>2026-04-11T11:36:32.034Z</time></trkpt><trkpt lat="44.881995" lon="9.2511967"><ele>424.99999999999994</ele><time>2026-04-11T11:36:33.035Z</time></trkpt><trkpt lat="44.882015" lon="9.251055"><ele>425.0</ele><time>2026-04-11T11:36:34.042Z</time></trkpt><trkpt lat="44.8820333" lon="9.2509233"><ele>424.6</ele><time>2026-04-11T11:36:35.043Z</time></trkpt><trkpt lat="44.88205" lon="9.2508133"><ele>424.2</ele><time>2026-04-11T11:36:36.03Z</time></trkpt><trkpt lat="44.8820833" lon="9.2506867"><ele>423.79999999999995</ele><time>2026-04-11T11:36:38.03Z</time></trkpt><trkpt lat="44.88218" lon="9.2505467"><ele>423.4</ele><time>2026-04-11T11:36:40.031Z</time></trkpt><trkpt lat="44.8822667" lon="9.25044"><ele>423.0</ele><time>2026-04-11T11:36:41.032Z</time></trkpt><trkpt lat="44.8823433" lon="9.250325"><ele>423.4</ele><time>2026-04-11T11:36:42.029Z</time></trkpt><trkpt lat="44.8824117" lon="9.2502133"><ele>423.79999999999995</ele><time>2026-04-11T11:36:43.032Z</time></trkpt><trkpt lat="44.8824783" lon="9.2501067"><ele>424.2</ele><time>2026-04-11T11:36:44.031Z</time></trkpt><trkpt lat="44.8825483" lon="9.2499867"><ele>424.6</ele><time>2026-04-11T11:36:45.031Z</time></trkpt><trkpt lat="44.8826" lon="9.2498833"><ele>425.0</ele><time>2026-04-11T11:36:46.031Z</time></trkpt><trkpt lat="44.8826433" lon="9.2497717"><ele>424.99999999999994</ele><time>2026-04-11T11:36:47.037Z</time></trkpt><trkpt lat="44.8826833" lon="9.2496683"><ele>425.0</ele><time>2026-04-11T11:36:48.032Z</time></trkpt><trkpt lat="44.8827417" lon="9.2495767"><ele>425.0</ele><time>2026-04-11T11:36:49.032Z</time></trkpt><trkpt lat="44.882805" lon="9.2494933"><ele>425.0</ele><time>2026-04-11T11:36:50.03Z</time></trkpt><trkpt lat="44.88287" lon="9.249415"><ele>424.99999999999994</ele><time>2026-04-11T11:36:51.032Z</time></trkpt><trkpt lat="44.8829083" lon="9.2493233"><ele>425.0</ele><time>2026-04-11T11:36:52.03Z</time></trkpt><trkpt lat="44.8829333" lon="9.2492133"><ele>424.99999999999994</ele><time>2026-04-11T11:36:53.03Z</time></trkpt><trkpt lat="44.8829517" lon="9.249105"><ele>425.0</ele><time>2026-04-11T11:36:54.03Z</time></trkpt><trkpt lat="44.8829833" lon="9.2489983"><ele>425.0</ele><time>2026-04-11T11:36:55.034Z</time></trkpt><trkpt lat="44.8829967" lon="9.24887"><ele>425.0</ele><time>2026-04-11T11:36:56.032Z</time></trkpt><trkpt lat="44.8830083" lon="9.2487383"><ele>424.99999999999994</ele><time>2026-04-11T11:36:57.031Z</time></trkpt><trkpt lat="44.8830283" lon="9.248625"><ele>425.0</ele><time>2026-04-11T11:36:58.03Z</time></trkpt><trkpt lat="44.883055" lon="9.2485267"><ele>424.4</ele><time>2026-04-11T11:36:59.031Z</time></trkpt><trkpt lat="44.883105" lon="9.2484417"><ele>423.8</ele><time>2026-04-11T11:37:00.032Z</time></trkpt><trkpt lat="44.883165" lon="9.2483683"><ele>423.20000000000005</ele><time>2026-04-11T11:37:01.033Z</time></trkpt><trkpt lat="44.8832133" lon="9.2482267"><ele>422.6</ele><time>2026-04-11T11:37:03.034Z</time></trkpt><trkpt lat="44.88319" lon="9.2480367"><ele>422.0</ele><time>2026-04-11T11:37:05.031Z</time></trkpt><trkpt lat="44.88315" lon="9.247905"><ele>421.8</ele><time>2026-04-11T11:37:06.036Z</time></trkpt><trkpt lat="44.883135" lon="9.2477767"><ele>421.6</ele><time>2026-04-11T11:37:07.034Z</time></trkpt><trkpt lat="44.8831383" lon="9.2476667"><ele>421.40000000000003</ele><time>2026-04-11T11:37:08.031Z</time></trkpt><trkpt lat="44.8831617" lon="9.2475617"><ele>421.20000000000005</ele><time>2026-04-11T11:37:09.031Z</time></trkpt><trkpt lat="44.8832383" lon="9.24745"><ele>421.0</ele><time>2026-04-11T11:37:10.03Z</time></trkpt><trkpt lat="44.8833317" lon="9.2473433"><ele>422.50000000000006</ele><time>2026-04-11T11:37:11.03Z</time></trkpt><trkpt lat="44.8834167" lon="9.2472717"><ele>424.0</ele><time>2026-04-11T11:37:12.032Z</time></trkpt><trkpt lat="44.8835033" lon="9.247225"><ele>425.5</ele><time>2026-04-11T11:37:13.037Z</time></trkpt><trkpt lat="44.8835917" lon="9.2472017"><ele>427.0</ele><time>2026-04-11T11:37:14.033Z</time></trkpt><trkpt lat="44.8836783" lon="9.247215"><ele>428.50000000000006</ele><time>2026-04-11T11:37:15.03Z</time></trkpt><trkpt lat="44.88375" lon="9.2472333"><ele>430.0</ele><time>2026-04-11T11:37:16.03Z</time></trkpt><trkpt lat="44.883815" lon="9.24724"><ele>430.00000000000006</ele><time>2026-04-11T11:37:17.037Z</time></trkpt><trkpt lat="44.8838833" lon="9.2472233"><ele>430.0</ele><time>2026-04-11T11:37:19.039Z</time></trkpt><trkpt lat="44.8839683" lon="9.2471317"><ele>430.0</ele><time>2026-04-11T11:37:21.039Z</time></trkpt><trkpt lat="44.8840367" lon="9.2470083"><ele>430.0</ele><time>2026-04-11T11:37:23.038Z</time></trkpt><trkpt lat="44.8840783" lon="9.24694"><ele>430.00000000000006</ele><time>2026-04-11T11:37:24.039Z</time></trkpt><trkpt lat="44.884135" lon="9.2468933"><ele>430.0</ele><time>2026-04-11T11:37:25.041Z</time></trkpt><trkpt lat="44.8841933" lon="9.2468533"><ele>431.0</ele><time>2026-04-11T11:37:26.032Z</time></trkpt><trkpt lat="44.8843083" lon="9.2467583"><ele>432.0</ele><time>2026-04-11T11:37:28.032Z</time></trkpt><trkpt lat="44.884385" lon="9.2466917"><ele>433.0</ele><time>2026-04-11T11:37:29.034Z</time></trkpt><trkpt lat="44.88445" lon="9.2466167"><ele>434.0</ele><time>2026-04-11T11:37:30.031Z</time></trkpt><trkpt lat="44.8845183" lon="9.2465417"><ele>435.0</ele><time>2026-04-11T11:37:31.03Z</time></trkpt><trkpt lat="44.8845883" lon="9.2464833"><ele>433.8</ele><time>2026-04-11T11:37:32.03Z</time></trkpt><trkpt lat="44.8846717" lon="9.2464233"><ele>432.6</ele><time>2026-04-11T11:37:34.033Z</time></trkpt><trkpt lat="44.8847517" lon="9.2463017"><ele>431.4</ele><time>2026-04-11T11:37:36.03Z</time></trkpt><trkpt lat="44.8848117" lon="9.2461783"><ele>430.2</ele><time>2026-04-11T11:37:37.033Z</time></trkpt><trkpt lat="44.8848783" lon="9.2460633"><ele>429.0</ele><time>2026-04-11T11:37:38.035Z</time></trkpt><trkpt lat="44.8849383" lon="9.24597"><ele>429.0</ele><time>2026-04-11T11:37:39.032Z</time></trkpt><trkpt lat="44.8849983" lon="9.2458933"><ele>429.0</ele><time>2026-04-11T11:37:40.03Z</time></trkpt><trkpt lat="44.8850467" lon="9.245835"><ele>429.0</ele><time>2026-04-11T11:37:41.033Z</time></trkpt><trkpt lat="44.8851583" lon="9.2457767"><ele>429.0</ele><time>2026-04-11T11:37:43.03Z</time></trkpt><trkpt lat="44.885235" lon="9.2457667"><ele>429.0</ele><time>2026-04-11T11:37:44.03Z</time></trkpt><trkpt lat="44.8853133" lon="9.2457617"><ele>429.0</ele><time>2026-04-11T11:37:45.037Z</time></trkpt><trkpt lat="44.8853817" lon="9.2457483"><ele>430.0</ele><time>2026-04-11T11:37:46.035Z</time></trkpt><trkpt lat="44.885465" lon="9.2457067"><ele>431.0</ele><time>2026-04-11T11:37:48.031Z</time></trkpt><trkpt lat="44.8855333" lon="9.24565"><ele>432.0</ele><time>2026-04-11T11:37:50.031Z</time></trkpt><trkpt lat="44.88562" lon="9.2455483"><ele>433.0</ele><time>2026-04-11T11:37:53.032Z</time></trkpt><trkpt lat="44.885705" lon="9.2454283"><ele>434.0</ele><time>2026-04-11T11:37:55.032Z</time></trkpt><trkpt lat="44.885805" lon="9.2453333"><ele>434.79999999999995</ele><time>2026-04-11T11:37:57.032Z</time></trkpt><trkpt lat="44.8859467" lon="9.2452567"><ele>435.59999999999997</ele><time>2026-04-11T11:37:59.035Z</time></trkpt><trkpt lat="44.886035" lon="9.2451967"><ele>436.4</ele><time>2026-04-11T11:38:00.03Z</time></trkpt><trkpt lat="44.8860967" lon="9.245125"><ele>437.2</ele><time>2026-04-11T11:38:01.03Z</time></trkpt><trkpt lat="44.8861417" lon="9.2450483"><ele>438.0</ele><time>2026-04-11T11:38:02.032Z</time></trkpt><trkpt lat="44.8862117" lon="9.244965"><ele>438.0</ele><time>2026-04-11T11:38:03.031Z</time></trkpt><trkpt lat="44.8863067" lon="9.244875"><ele>437.99999999999994</ele><time>2026-04-11T11:38:04.035Z</time></trkpt><trkpt lat="44.886385" lon="9.24478"><ele>437.99999999999994</ele><time>2026-04-11T11:38:05.031Z</time></trkpt><trkpt lat="44.8864617" lon="9.2447083"><ele>438.0</ele><time>2026-04-11T11:38:06.031Z</time></trkpt><trkpt lat="44.8865167" lon="9.2446417"><ele>438.0</ele><time>2026-04-11T11:38:07.03Z</time></trkpt><trkpt lat="44.88657" lon="9.24447"><ele>437.79999999999995</ele><time>2026-04-11T11:38:09.032Z</time></trkpt><trkpt lat="44.8866" lon="9.244345"><ele>437.59999999999997</ele><time>2026-04-11T11:38:10.031Z</time></trkpt><trkpt lat="44.8866283" lon="9.244205"><ele>437.40000000000003</ele><time>2026-04-11T11:38:11.032Z</time></trkpt><trkpt lat="44.8866633" lon="9.24408"><ele>437.20000000000005</ele><time>2026-04-11T11:38:12.039Z</time></trkpt><trkpt lat="44.8866967" lon="9.2439533"><ele>437.0</ele><time>2026-04-11T11:38:13.031Z</time></trkpt><trkpt lat="44.8867317" lon="9.2438133"><ele>438.20000000000005</ele><time>2026-04-11T11:38:14.031Z</time></trkpt><trkpt lat="44.88675" lon="9.2436567"><ele>439.40000000000003</ele><time>2026-04-11T11:38:15.03Z</time></trkpt><trkpt lat="44.8867617" lon="9.243515"><ele>440.59999999999997</ele><time>2026-04-11T11:38:16.03Z</time></trkpt><trkpt lat="44.88679" lon="9.2433783"><ele>441.79999999999995</ele><time>2026-04-11T11:38:17.03Z</time></trkpt><trkpt lat="44.8868167" lon="9.2432567"><ele>443.0</ele><time>2026-04-11T11:38:18.029Z</time></trkpt><trkpt lat="44.88685" lon="9.24312"><ele>445.79999999999995</ele><time>2026-04-11T11:38:19.03Z</time></trkpt><trkpt lat="44.8868717" lon="9.2429733"><ele>448.59999999999997</ele><time>2026-04-11T11:38:20.031Z</time></trkpt><trkpt lat="44.88688" lon="9.2428267"><ele>451.40000000000003</ele><time>2026-04-11T11:38:21.032Z</time></trkpt><trkpt lat="44.8868833" lon="9.2427083"><ele>454.20000000000005</ele><time>2026-04-11T11:38:22.03Z</time></trkpt><trkpt lat="44.886915" lon="9.2425383"><ele>457.0</ele><time>2026-04-11T11:38:24.03Z</time></trkpt><trkpt lat="44.8870367" lon="9.242475"><ele>457.0</ele><time>2026-04-11T11:38:26.03Z</time></trkpt><trkpt lat="44.8871267" lon="9.242455"><ele>457.00000000000006</ele><time>2026-04-11T11:38:27.033Z</time></trkpt><trkpt lat="44.88723" lon="9.2424367"><ele>457.00000000000006</ele><time>2026-04-11T11:38:28.032Z</time></trkpt><trkpt lat="44.88733" lon="9.242405"><ele>457.0</ele><time>2026-04-11T11:38:29.033Z</time></trkpt><trkpt lat="44.887405" lon="9.2423617"><ele>457.0</ele><time>2026-04-11T11:38:30.031Z</time></trkpt><trkpt lat="44.8874883" lon="9.2423383"><ele>457.0</ele><time>2026-04-11T11:38:31.031Z</time></trkpt><trkpt lat="44.88759" lon="9.2423383"><ele>457.0</ele><time>2026-04-11T11:38:32.034Z</time></trkpt><trkpt lat="44.8877117" lon="9.2423667"><ele>457.0</ele><time>2026-04-11T11:38:33.032Z</time></trkpt><trkpt lat="44.8878467" lon="9.24241"><ele>457.0</ele><time>2026-04-11T11:38:34.031Z</time></trkpt><trkpt lat="44.8879633" lon="9.2424633"><ele>459.40000000000003</ele><time>2026-04-11T11:38:35.032Z</time></trkpt><trkpt lat="44.8880583" lon="9.2425233"><ele>461.80000000000007</ele><time>2026-04-11T11:38:36.031Z</time></trkpt><trkpt lat="44.888145" lon="9.24256"><ele>464.2</ele><time>2026-04-11T11:38:37.031Z</time></trkpt><trkpt lat="44.8882383" lon="9.2425867"><ele>466.6</ele><time>2026-04-11T11:38:38.032Z</time></trkpt><trkpt lat="44.8883567" lon="9.2425967"><ele>469.0</ele><time>2026-04-11T11:38:39.031Z</time></trkpt><trkpt lat="44.8885067" lon="9.2426"><ele>475.25</ele><time>2026-04-11T11:38:40.03Z</time></trkpt><trkpt lat="44.8886633" lon="9.2426033"><ele>481.5</ele><time>2026-04-11T11:38:41.034Z</time></trkpt><trkpt lat="44.8888017" lon="9.2426133"><ele>487.75</ele><time>2026-04-11T11:38:42.031Z</time></trkpt><trkpt lat="44.8889267" lon="9.2426367"><ele>494.0</ele><time>2026-04-11T11:38:43.03Z</time></trkpt><trkpt lat="44.8890533" lon="9.2426667"><ele>493.99999999999994</ele><time>2026-04-11T11:38:44.032Z</time></trkpt><trkpt lat="44.8891567" lon="9.2427033"><ele>494.0</ele><time>2026-04-11T11:38:45.033Z</time></trkpt><trkpt lat="44.8892333" lon="9.2427483"><ele>494.0</ele><time>2026-04-11T11:38:46.032Z</time></trkpt><trkpt lat="44.8892933" lon="9.2428033"><ele>494.0</ele><time>2026-04-11T11:38:47.03Z</time></trkpt><trkpt lat="44.889345" lon="9.2428733"><ele>493.99999999999994</ele><time>2026-04-11T11:38:48.031Z</time></trkpt><trkpt lat="44.8893917" lon="9.2429483"><ele>494.0</ele><time>2026-04-11T11:38:49.029Z</time></trkpt><trkpt lat="44.889435" lon="9.2430233"><ele>498.16666666666663</ele><time>2026-04-11T11:38:50.031Z</time></trkpt><trkpt lat="44.8894683" lon="9.24311"><ele>502.3333333333333</ele><time>2026-04-11T11:38:51.036Z</time></trkpt><trkpt lat="44.8894983" lon="9.2432067"><ele>506.5</ele><time>2026-04-11T11:38:52.035Z</time></trkpt><trkpt lat="44.8895267" lon="9.2433083"><ele>510.66666666666663</ele><time>2026-04-11T11:38:53.03Z</time></trkpt><trkpt lat="44.8895533" lon="9.2434067"><ele>514.8333333333334</ele><time>2026-04-11T11:38:54.031Z</time></trkpt><trkpt lat="44.8895617" lon="9.2434983"><ele>519.0</ele><time>2026-04-11T11:38:55.032Z</time></trkpt><trkpt lat="44.8895667" lon="9.2436233"><ele>519.0</ele><time>2026-04-11T11:38:57.032Z</time></trkpt><trkpt lat="44.889645" lon="9.2436183"><ele>519.0</ele><time>2026-04-11T11:39:00.032Z</time></trkpt><trkpt lat="44.88971" lon="9.2434717"><ele>519.0</ele><time>2026-04-11T11:39:02.031Z</time></trkpt><trkpt lat="44.8897617" lon="9.2433883"><ele>519.0</ele><time>2026-04-11T11:39:03.033Z</time></trkpt><trkpt lat="44.8898083" lon="9.2433117"><ele>519.0</ele><time>2026-04-11T11:39:04.037Z</time></trkpt><trkpt lat="44.8898517" lon="9.2432367"><ele>519.0</ele><time>2026-04-11T11:39:05.038Z</time></trkpt><trkpt lat="44.88987" lon="9.2431467"><ele>519.3333333333334</ele><time>2026-04-11T11:39:06.033Z</time></trkpt><trkpt lat="44.8898733" lon="9.24301"><ele>519.6666666666666</ele><time>2026-04-11T11:39:07.042Z</time></trkpt><trkpt lat="44.8898933" lon="9.2428867"><ele>520.0</ele><time>2026-04-11T11:39:08.035Z</time></trkpt><trkpt lat="44.8899283" lon="9.2427633"><ele>520.3333333333333</ele><time>2026-04-11T11:39:09.034Z</time></trkpt><trkpt lat="44.8899733" lon="9.2426567"><ele>520.6666666666666</ele><time>2026-04-11T11:39:10.035Z</time></trkpt><trkpt lat="44.89" lon="9.2425567"><ele>521.0</ele><time>2026-04-11T11:39:11.031Z</time></trkpt><trkpt lat="44.890015" lon="9.2424567"><ele>521.0</ele><time>2026-04-11T11:39:12.04Z</time></trkpt><trkpt lat="44.8900233" lon="9.24234"><ele>521.0</ele><time>2026-04-11T11:39:13.039Z</time></trkpt><trkpt lat="44.890035" lon="9.2422233"><ele>521.0</ele><time>2026-04-11T11:39:14.039Z</time></trkpt><trkpt lat="44.8900533" lon="9.2421117"><ele>521.0</ele><time>2026-04-11T11:39:15.033Z</time></trkpt><trkpt lat="44.8900867" lon="9.242"><ele>521.0</ele><time>2026-04-11T11:39:16.041Z</time></trkpt><trkpt lat="44.890135" lon="9.24188"><ele>521.0</ele><time>2026-04-11T11:39:17.037Z</time></trkpt><trkpt lat="44.8901783" lon="9.2417683"><ele>521.1666666666666</ele><time>2026-04-11T11:39:18.032Z</time></trkpt><trkpt lat="44.8901917" lon="9.2416417"><ele>521.3333333333333</ele><time>2026-04-11T11:39:19.031Z</time></trkpt><trkpt lat="44.8901817" lon="9.2415"><ele>521.5</ele><time>2026-04-11T11:39:20.032Z</time></trkpt><trkpt lat="44.8901533" lon="9.2413567"><ele>521.6666666666666</ele><time>2026-04-11T11:39:21.032Z</time></trkpt><trkpt lat="44.8901283" lon="9.2412483"><ele>521.8333333333334</ele><time>2026-04-11T11:39:22.031Z</time></trkpt><trkpt lat="44.8901067" lon="9.2411567"><ele>522.0</ele><time>2026-04-11T11:39:23.03Z</time></trkpt><trkpt lat="44.8900833" lon="9.2410183"><ele>522.0</ele><time>2026-04-11T11:39:24.03Z</time></trkpt><trkpt lat="44.89007" lon="9.2408933"><ele>522.0</ele><time>2026-04-11T11:39:25.03Z</time></trkpt><trkpt lat="44.89003" lon="9.2407317"><ele>522.0</ele><time>2026-04-11T11:39:26.029Z</time></trkpt><trkpt lat="44.8899933" lon="9.2405883"><ele>522.0</ele><time>2026-04-11T11:39:27.037Z</time></trkpt><trkpt lat="44.8899767" lon="9.2404533"><ele>522.0</ele><time>2026-04-11T11:39:28.034Z</time></trkpt><trkpt lat="44.8899833" lon="9.2403267"><ele>522.0</ele><time>2026-04-11T11:39:29.034Z</time></trkpt><trkpt lat="44.889995" lon="9.2401917"><ele>522.0</ele><time>2026-04-11T11:39:30.038Z</time></trkpt><trkpt lat="44.890025" lon="9.2400617"><ele>522.0</ele><time>2026-04-11T11:39:31.037Z</time></trkpt><trkpt lat="44.8900983" lon="9.2399867"><ele>522.0</ele><time>2026-04-11T11:39:32.039Z</time></trkpt><trkpt lat="44.8901733" lon="9.2398817"><ele>522.0</ele><time>2026-04-11T11:39:33.036Z</time></trkpt><trkpt lat="44.8902517" lon="9.239745"><ele>522.0</ele><time>2026-04-11T11:39:34.031Z</time></trkpt><trkpt lat="44.89032" lon="9.239575"><ele>522.0</ele><time>2026-04-11T11:39:35.032Z</time></trkpt><trkpt lat="44.8903767" lon="9.2394083"><ele>522.0</ele><time>2026-04-11T11:39:36.03Z</time></trkpt><trkpt lat="44.8904117" lon="9.2392367"><ele>522.0</ele><time>2026-04-11T11:39:37.038Z</time></trkpt><trkpt lat="44.8904283" lon="9.23906"><ele>522.4</ele><time>2026-04-11T11:39:38.031Z</time></trkpt><trkpt lat="44.8904267" lon="9.238895"><ele>522.8000000000001</ele><time>2026-04-11T11:39:39.031Z</time></trkpt><trkpt lat="44.8904217" lon="9.2387483"><ele>523.2</ele><time>2026-04-11T11:39:40.032Z</time></trkpt><trkpt lat="44.8904183" lon="9.2386033"><ele>523.6</ele><time>2026-04-11T11:39:41.031Z</time></trkpt><trkpt lat="44.89043" lon="9.2384533"><ele>524.0</ele><time>2026-04-11T11:39:42.032Z</time></trkpt><trkpt lat="44.890455" lon="9.2383067"><ele>524.0</ele><time>2026-04-11T11:39:43.034Z</time></trkpt><trkpt lat="44.8904933" lon="9.2381783"><ele>524.0</ele><time>2026-04-11T11:39:44.029Z</time></trkpt><trkpt lat="44.8905517" lon="9.2380717"><ele>524.0</ele><time>2026-04-11T11:39:45.032Z</time></trkpt><trkpt lat="44.890595" lon="9.2379783"><ele>524.0</ele><time>2026-04-11T11:39:46.032Z</time></trkpt><trkpt lat="44.890625" lon="9.2378817"><ele>524.0</ele><time>2026-04-11T11:39:47.041Z</time></trkpt><trkpt lat="44.8906333" lon="9.2377833"><ele>524.0</ele><time>2026-04-11T11:39:48.034Z</time></trkpt><trkpt lat="44.8905683" lon="9.2376"><ele>523.0</ele><time>2026-04-11T11:39:50.031Z</time></trkpt><trkpt lat="44.8905267" lon="9.2375"><ele>522.0</ele><time>2026-04-11T11:39:51.034Z</time></trkpt><trkpt lat="44.8904883" lon="9.2373967"><ele>521.0</ele><time>2026-04-11T11:39:52.041Z</time></trkpt><trkpt lat="44.8904483" lon="9.2372917"><ele>520.0</ele><time>2026-04-11T11:39:53.043Z</time></trkpt><trkpt lat="44.8904017" lon="9.23721"><ele>519.0</ele><time>2026-04-11T11:39:54.039Z</time></trkpt><trkpt lat="44.89033" lon="9.237145"><ele>518.0</ele><time>2026-04-11T11:39:55.035Z</time></trkpt><trkpt lat="44.8902417" lon="9.23711"><ele>515.6</ele><time>2026-04-11T11:39:56.032Z</time></trkpt><trkpt lat="44.8901533" lon="9.2370467"><ele>513.1999999999999</ele><time>2026-04-11T11:39:57.039Z</time></trkpt><trkpt lat="44.8900717" lon="9.236945"><ele>510.8</ele><time>2026-04-11T11:39:58.035Z</time></trkpt><trkpt lat="44.889995" lon="9.236825"><ele>508.4</ele><time>2026-04-11T11:39:59.032Z</time></trkpt><trkpt lat="44.889925" lon="9.2367033"><ele>506.0</ele><time>2026-04-11T11:40:00.032Z</time></trkpt><trkpt lat="44.8898633" lon="9.2365883"><ele>505.99999999999994</ele><time>2026-04-11T11:40:01.032Z</time></trkpt><trkpt lat="44.8898083" lon="9.23648"><ele>506.0</ele><time>2026-04-11T11:40:02.03Z</time></trkpt><trkpt lat="44.889775" lon="9.2363917"><ele>506.0</ele><time>2026-04-11T11:40:03.036Z</time></trkpt><trkpt lat="44.8897433" lon="9.2362817"><ele>506.0</ele><time>2026-04-11T11:40:04.032Z</time></trkpt><trkpt lat="44.8897" lon="9.2361483"><ele>505.99999999999994</ele><time>2026-04-11T11:40:05.033Z</time></trkpt><trkpt lat="44.8896417" lon="9.236055"><ele>506.0</ele><time>2026-04-11T11:40:06.032Z</time></trkpt><trkpt lat="44.88956" lon="9.2359733"><ele>506.16666666666663</ele><time>2026-04-11T11:40:07.034Z</time></trkpt><trkpt lat="44.88949" lon="9.235895"><ele>506.3333333333333</ele><time>2026-04-11T11:40:08.032Z</time></trkpt><trkpt lat="44.8894483" lon="9.2358133"><ele>506.5</ele><time>2026-04-11T11:40:09.035Z</time></trkpt><trkpt lat="44.8894283" lon="9.2357267"><ele>506.66666666666663</ele><time>2026-04-11T11:40:10.031Z</time></trkpt><trkpt lat="44.889435" lon="9.2356183"><ele>506.8333333333333</ele><time>2026-04-11T11:40:11.033Z</time></trkpt><trkpt lat="44.8894483" lon="9.235475"><ele>507.0</ele><time>2026-04-11T11:40:12.033Z</time></trkpt><trkpt lat="44.8894617" lon="9.2353083"><ele>507.0</ele><time>2026-04-11T11:40:13.033Z</time></trkpt><trkpt lat="44.88948" lon="9.2351317"><ele>507.0</ele><time>2026-04-11T11:40:14.038Z</time></trkpt><trkpt lat="44.8895067" lon="9.2349567"><ele>507.0</ele><time>2026-04-11T11:40:15.04Z</time></trkpt><trkpt lat="44.8895433" lon="9.2347883"><ele>507.0</ele><time>2026-04-11T11:40:16.036Z</time></trkpt><trkpt lat="44.88957" lon="9.2346367"><ele>508.6</ele><time>2026-04-11T11:40:17.032Z</time></trkpt><trkpt lat="44.889565" lon="9.2345067"><ele>510.20000000000005</ele><time>2026-04-11T11:40:18.032Z</time></trkpt><trkpt lat="44.889575" lon="9.2343667"><ele>511.8</ele><time>2026-04-11T11:40:19.032Z</time></trkpt><trkpt lat="44.889615" lon="9.2342283"><ele>513.4</ele><time>2026-04-11T11:40:20.034Z</time></trkpt><trkpt lat="44.889675" lon="9.234085"><ele>515.0</ele><time>2026-04-11T11:40:21.031Z</time></trkpt><trkpt lat="44.889735" lon="9.2339383"><ele>515.6</ele><time>2026-04-11T11:40:22.031Z</time></trkpt><trkpt lat="44.8897833" lon="9.2338167"><ele>516.2</ele><time>2026-04-11T11:40:23.03Z</time></trkpt><trkpt lat="44.88982" lon="9.2337267"><ele>516.8</ele><time>2026-04-11T11:40:24.032Z</time></trkpt><trkpt lat="44.8899133" lon="9.2336233"><ele>517.4</ele><time>2026-04-11T11:40:26.031Z</time></trkpt><trkpt lat="44.889985" lon="9.2336267"><ele>518.0</ele><time>2026-04-11T11:40:27.032Z</time></trkpt><trkpt lat="44.8900867" lon="9.233645"><ele>518.5</ele><time>2026-04-11T11:40:28.031Z</time></trkpt><trkpt lat="44.8902067" lon="9.2336317"><ele>519.0</ele><time>2026-04-11T11:40:29.034Z</time></trkpt><trkpt lat="44.8903217" lon="9.2335517"><ele>519.5</ele><time>2026-04-11T11:40:30.031Z</time></trkpt><trkpt lat="44.89043" lon="9.2334533"><ele>520.0</ele><time>2026-04-11T11:40:31.043Z</time></trkpt><trkpt lat="44.8905317" lon="9.2333583"><ele>520.0</ele><time>2026-04-11T11:40:32.04Z</time></trkpt><trkpt lat="44.8906267" lon="9.2332683"><ele>520.0</ele><time>2026-04-11T11:40:33.041Z</time></trkpt><trkpt lat="44.8907083" lon="9.2331867"><ele>520.0</ele><time>2026-04-11T11:40:34.038Z</time></trkpt><trkpt lat="44.890785" lon="9.233105"><ele>520.0</ele><time>2026-04-11T11:40:35.032Z</time></trkpt><trkpt lat="44.8908567" lon="9.2330367"><ele>520.0</ele><time>2026-04-11T11:40:36.034Z</time></trkpt><trkpt lat="44.8909217" lon="9.23298"><ele>525.5</ele><time>2026-04-11T11:40:37.032Z</time></trkpt><trkpt lat="44.8910167" lon="9.2328783"><ele>531.0</ele><time>2026-04-11T11:40:39.032Z</time></trkpt><trkpt lat="44.8910783" lon="9.23275"><ele>536.5</ele><time>2026-04-11T11:40:41.034Z</time></trkpt><trkpt lat="44.891135" lon="9.23264"><ele>542.0</ele><time>2026-04-11T11:40:43.035Z</time></trkpt><trkpt lat="44.8912467" lon="9.232555"><ele>542.0</ele><time>2026-04-11T11:40:45.032Z</time></trkpt><trkpt lat="44.8913167" lon="9.2325167"><ele>542.0</ele><time>2026-04-11T11:40:46.032Z</time></trkpt><trkpt lat="44.8913983" lon="9.2324633"><ele>542.0</ele><time>2026-04-11T11:40:47.032Z</time></trkpt><trkpt lat="44.891485" lon="9.2324067"><ele>542.0</ele><time>2026-04-11T11:40:48.03Z</time></trkpt><trkpt lat="44.891555" lon="9.23236"><ele>542.0</ele><time>2026-04-11T11:40:49.038Z</time></trkpt><trkpt lat="44.8916317" lon="9.2323067"><ele>542.0</ele><time>2026-04-11T11:40:50.035Z</time></trkpt><trkpt lat="44.8917067" lon="9.23225"><ele>543.5</ele><time>2026-04-11T11:40:51.031Z</time></trkpt><trkpt lat="44.891785" lon="9.23218"><ele>545.0</ele><time>2026-04-11T11:40:52.031Z</time></trkpt><trkpt lat="44.89186" lon="9.2321217"><ele>546.5</ele><time>2026-04-11T11:40:53.032Z</time></trkpt><trkpt lat="44.891945" lon="9.2320917"><ele>548.0</ele><time>2026-04-11T11:40:54.031Z</time></trkpt><trkpt lat="44.892025" lon="9.2320733"><ele>549.5</ele><time>2026-04-11T11:40:55.035Z</time></trkpt><trkpt lat="44.8921117" lon="9.232065"><ele>551.0</ele><time>2026-04-11T11:40:56.034Z</time></trkpt><trkpt lat="44.8922067" lon="9.2320683"><ele>551.0</ele><time>2026-04-11T11:40:57.032Z</time></trkpt><trkpt lat="44.892305" lon="9.232075"><ele>551.0</ele><time>2026-04-11T11:40:58.032Z</time></trkpt><trkpt lat="44.8923783" lon="9.2320883"><ele>551.0</ele><time>2026-04-11T11:40:59.032Z</time></trkpt><trkpt lat="44.892485" lon="9.2321067"><ele>551.0</ele><time>2026-04-11T11:41:01.033Z</time></trkpt><trkpt lat="44.892555" lon="9.23213"><ele>551.0</ele><time>2026-04-11T11:41:02.04Z</time></trkpt><trkpt lat="44.8926567" lon="9.23217"><ele>550.8</ele><time>2026-04-11T11:41:03.031Z</time></trkpt><trkpt lat="44.8927483" lon="9.2322017"><ele>550.6</ele><time>2026-04-11T11:41:04.03Z</time></trkpt><trkpt lat="44.89284" lon="9.2322217"><ele>550.4</ele><time>2026-04-11T11:41:05.031Z</time></trkpt><trkpt lat="44.89294" lon="9.2322333"><ele>550.2</ele><time>2026-04-11T11:41:06.031Z</time></trkpt><trkpt lat="44.8930467" lon="9.2322433"><ele>550.0</ele><time>2026-04-11T11:41:07.03Z</time></trkpt><trkpt lat="44.8931483" lon="9.232255"><ele>550.0</ele><time>2026-04-11T11:41:08.03Z</time></trkpt><trkpt lat="44.89325" lon="9.2322617"><ele>550.0</ele><time>2026-04-11T11:41:09.03Z</time></trkpt><trkpt lat="44.8933567" lon="9.2322633"><ele>550.0</ele><time>2026-04-11T11:41:10.035Z</time></trkpt><trkpt lat="44.8934667" lon="9.23227"><ele>550.0</ele><time>2026-04-11T11:41:11.032Z</time></trkpt><trkpt lat="44.893595" lon="9.2322817"><ele>550.0</ele><time>2026-04-11T11:41:12.034Z</time></trkpt><trkpt lat="44.893705" lon="9.232305"><ele>551.5</ele><time>2026-04-11T11:41:13.029Z</time></trkpt><trkpt lat="44.8937983" lon="9.2323167"><ele>553.0</ele><time>2026-04-11T11:41:14.032Z</time></trkpt><trkpt lat="44.893885" lon="9.2323333"><ele>554.5</ele><time>2026-04-11T11:41:15.031Z</time></trkpt><trkpt lat="44.8939783" lon="9.2323483"><ele>556.0</ele><time>2026-04-11T11:41:16.03Z</time></trkpt><trkpt lat="44.894065" lon="9.2323533"><ele>557.5</ele><time>2026-04-11T11:41:17.029Z</time></trkpt><trkpt lat="44.89415" lon="9.2323483"><ele>559.0</ele><time>2026-04-11T11:41:18.03Z</time></trkpt><trkpt lat="44.89422" lon="9.23232"><ele>555.6666666666667</ele><time>2026-04-11T11:41:19.035Z</time></trkpt><trkpt lat="44.8942667" lon="9.2322533"><ele>552.3333333333334</ele><time>2026-04-11T11:41:20.04Z</time></trkpt><trkpt lat="44.8943133" lon="9.2321817"><ele>549.0</ele><time>2026-04-11T11:41:21.031Z</time></trkpt><trkpt lat="44.894365" lon="9.232095"><ele>545.6666666666666</ele><time>2026-04-11T11:41:22.042Z</time></trkpt><trkpt lat="44.894425" lon="9.2320117"><ele>542.3333333333333</ele><time>2026-04-11T11:41:23.035Z</time></trkpt><trkpt lat="44.89447" lon="9.2319017"><ele>539.0</ele><time>2026-04-11T11:41:24.03Z</time></trkpt><trkpt lat="44.894505" lon="9.2317983"><ele>539.0</ele><time>2026-04-11T11:41:25.029Z</time></trkpt><trkpt lat="44.8945517" lon="9.231715"><ele>539.0</ele><time>2026-04-11T11:41:26.031Z</time></trkpt><trkpt lat="44.8946083" lon="9.231645"><ele>539.0</ele><time>2026-04-11T11:41:27.03Z</time></trkpt><trkpt lat="44.89468" lon="9.23158"><ele>539.0</ele><time>2026-04-11T11:41:28.03Z</time></trkpt><trkpt lat="44.89475" lon="9.231515"><ele>539.0</ele><time>2026-04-11T11:41:29.028Z</time></trkpt><trkpt lat="44.8948167" lon="9.2314467"><ele>539.0</ele><time>2026-04-11T11:41:30.032Z</time></trkpt><trkpt lat="44.894875" lon="9.231385"><ele>539.6</ele><time>2026-04-11T11:41:31.033Z</time></trkpt><trkpt lat="44.8949817" lon="9.2313483"><ele>540.2</ele><time>2026-04-11T11:41:33.038Z</time></trkpt><trkpt lat="44.895095" lon="9.2313367"><ele>540.8000000000001</ele><time>2026-04-11T11:41:35.034Z</time></trkpt><trkpt lat="44.8951583" lon="9.2313333"><ele>541.4</ele><time>2026-04-11T11:41:36.032Z</time></trkpt><trkpt lat="44.8952417" lon="9.23132"><ele>542.0</ele><time>2026-04-11T11:41:37.033Z</time></trkpt><trkpt lat="44.89533" lon="9.2312983"><ele>539.6666666666666</ele><time>2026-04-11T11:41:38.033Z</time></trkpt><trkpt lat="44.89541" lon="9.23127"><ele>537.3333333333333</ele><time>2026-04-11T11:41:39.032Z</time></trkpt><trkpt lat="44.8954833" lon="9.2312367"><ele>535.0</ele><time>2026-04-11T11:41:40.037Z</time></trkpt><trkpt lat="44.895555" lon="9.2311967"><ele>532.6666666666666</ele><time>2026-04-11T11:41:41.031Z</time></trkpt><trkpt lat="44.895635" lon="9.2311683"><ele>530.3333333333334</ele><time>2026-04-11T11:41:42.029Z</time></trkpt><trkpt lat="44.8957283" lon="9.2311433"><ele>528.0</ele><time>2026-04-11T11:41:43.034Z</time></trkpt><trkpt lat="44.8958133" lon="9.2311233"><ele>528.0</ele><time>2026-04-11T11:41:44.038Z</time></trkpt><trkpt lat="44.895895" lon="9.231105"><ele>528.0</ele><time>2026-04-11T11:41:45.031Z</time></trkpt><trkpt lat="44.8959767" lon="9.231085"><ele>528.0</ele><time>2026-04-11T11:41:46.032Z</time></trkpt><trkpt lat="44.8960567" lon="9.2310683"><ele>528.0</ele><time>2026-04-11T11:41:47.03Z</time></trkpt><trkpt lat="44.8961333" lon="9.23106"><ele>528.0</ele><time>2026-04-11T11:41:48.032Z</time></trkpt><trkpt lat="44.8962" lon="9.2310833"><ele>528.0</ele><time>2026-04-11T11:41:49.031Z</time></trkpt><trkpt lat="44.8962717" lon="9.231135"><ele>527.1666666666666</ele><time>2026-04-11T11:41:50.029Z</time></trkpt><trkpt lat="44.896325" lon="9.2312167"><ele>526.3333333333334</ele><time>2026-04-11T11:41:51.033Z</time></trkpt><trkpt lat="44.8963717" lon="9.2313183"><ele>525.5</ele><time>2026-04-11T11:41:52.043Z</time></trkpt><trkpt lat="44.8964133" lon="9.2314283"><ele>524.6666666666667</ele><time>2026-04-11T11:41:53.039Z</time></trkpt><trkpt lat="44.8964467" lon="9.23153"><ele>523.8333333333334</ele><time>2026-04-11T11:41:54.039Z</time></trkpt><trkpt lat="44.8964767" lon="9.231615"><ele>523.0</ele><time>2026-04-11T11:41:55.032Z</time></trkpt><trkpt lat="44.89651" lon="9.23171"><ele>523.0</ele><time>2026-04-11T11:41:56.03Z</time></trkpt><trkpt lat="44.8965467" lon="9.231845"><ele>523.0</ele><time>2026-04-11T11:41:58.032Z</time></trkpt><trkpt lat="44.8966217" lon="9.23184"><ele>523.0</ele><time>2026-04-11T11:42:01.033Z</time></trkpt><trkpt lat="44.8966633" lon="9.23176"><ele>523.0</ele><time>2026-04-11T11:42:02.037Z</time></trkpt><trkpt lat="44.896715" lon="9.23166"><ele>523.0</ele><time>2026-04-11T11:42:03.032Z</time></trkpt><trkpt lat="44.896775" lon="9.231555"><ele>523.0</ele><time>2026-04-11T11:42:04.038Z</time></trkpt><trkpt lat="44.8968533" lon="9.2314517"><ele>522.0</ele><time>2026-04-11T11:42:05.036Z</time></trkpt><trkpt lat="44.896955" lon="9.23136"><ele>521.0</ele><time>2026-04-11T11:42:06.039Z</time></trkpt><trkpt lat="44.89707" lon="9.2312767"><ele>520.0</ele><time>2026-04-11T11:42:07.04Z</time></trkpt><trkpt lat="44.8971817" lon="9.2311983"><ele>519.0</ele><time>2026-04-11T11:42:08.038Z</time></trkpt><trkpt lat="44.897295" lon="9.2311283"><ele>519.0</ele><time>2026-04-11T11:42:09.036Z</time></trkpt><trkpt lat="44.8974033" lon="9.2310783"><ele>519.0</ele><time>2026-04-11T11:42:10.038Z</time></trkpt><trkpt lat="44.8975033" lon="9.231045"><ele>519.0</ele><time>2026-04-11T11:42:11.039Z</time></trkpt><trkpt lat="44.8975833" lon="9.2310233"><ele>519.0</ele><time>2026-04-11T11:42:12.033Z</time></trkpt><trkpt lat="44.8976567" lon="9.2310033"><ele>519.0</ele><time>2026-04-11T11:42:13.04Z</time></trkpt><trkpt lat="44.8977233" lon="9.2309733"><ele>519.0</ele><time>2026-04-11T11:42:14.039Z</time></trkpt><trkpt lat="44.8977917" lon="9.23093"><ele>519.6666666666666</ele><time>2026-04-11T11:42:15.041Z</time></trkpt><trkpt lat="44.8978567" lon="9.2308567"><ele>520.3333333333334</ele><time>2026-04-11T11:42:16.032Z</time></trkpt><trkpt lat="44.8979183" lon="9.2307783"><ele>521.0</ele><time>2026-04-11T11:42:17.034Z</time></trkpt><trkpt lat="44.8979817" lon="9.2306883"><ele>521.6666666666667</ele><time>2026-04-11T11:42:18.039Z</time></trkpt><trkpt lat="44.8980383" lon="9.2305817"><ele>522.3333333333334</ele><time>2026-04-11T11:42:19.041Z</time></trkpt><trkpt lat="44.8980867" lon="9.2304617"><ele>523.0</ele><time>2026-04-11T11:42:20.04Z</time></trkpt><trkpt lat="44.8981283" lon="9.230335"><ele>523.0</ele><time>2026-04-11T11:42:21.033Z</time></trkpt><trkpt lat="44.89816" lon="9.2302"><ele>523.0</ele><time>2026-04-11T11:42:22.037Z</time></trkpt><trkpt lat="44.8981883" lon="9.2300633"><ele>523.0</ele><time>2026-04-11T11:42:23.036Z</time></trkpt><trkpt lat="44.898215" lon="9.229925"><ele>523.0</ele><time>2026-04-11T11:42:24.038Z</time></trkpt><trkpt lat="44.8982417" lon="9.229785"><ele>523.0</ele><time>2026-04-11T11:42:25.039Z</time></trkpt><trkpt lat="44.8982683" lon="9.2296567"><ele>522.0</ele><time>2026-04-11T11:42:26.041Z</time></trkpt><trkpt lat="44.898295" lon="9.229525"><ele>521.0</ele><time>2026-04-11T11:42:27.039Z</time></trkpt><trkpt lat="44.8983333" lon="9.2294017"><ele>520.0</ele><time>2026-04-11T11:42:28.039Z</time></trkpt><trkpt lat="44.898385" lon="9.2293"><ele>519.0</ele><time>2026-04-11T11:42:29.04Z</time></trkpt><trkpt lat="44.898455" lon="9.2292467"><ele>518.0</ele><time>2026-04-11T11:42:30.037Z</time></trkpt><trkpt lat="44.8985283" lon="9.2292333"><ele>517.0</ele><time>2026-04-11T11:42:31.036Z</time></trkpt><trkpt lat="44.8986" lon="9.2292633"><ele>517.0</ele><time>2026-04-11T11:42:32.039Z</time></trkpt><trkpt lat="44.89868" lon="9.229325"><ele>517.0</ele><time>2026-04-11T11:42:33.041Z</time></trkpt><trkpt lat="44.8987717" lon="9.2293833"><ele>517.0</ele><time>2026-04-11T11:42:34.038Z</time></trkpt><trkpt lat="44.8988867" lon="9.2294267"><ele>517.0</ele><time>2026-04-11T11:42:35.031Z</time></trkpt><trkpt lat="44.8990333" lon="9.2294183"><ele>517.0</ele><time>2026-04-11T11:42:36.039Z</time></trkpt><trkpt lat="44.8991867" lon="9.229385"><ele>517.0</ele><time>2026-04-11T11:42:37.038Z</time></trkpt><trkpt lat="44.8993567" lon="9.2293233"><ele>517.0</ele><time>2026-04-11T11:42:38.037Z</time></trkpt><trkpt lat="44.8995367" lon="9.22924"><ele>516.0</ele><time>2026-04-11T11:42:39.042Z</time></trkpt><trkpt lat="44.8997217" lon="9.2291533"><ele>515.0</ele><time>2026-04-11T11:42:40.038Z</time></trkpt><trkpt lat="44.899905" lon="9.2290667"><ele>514.0</ele><time>2026-04-11T11:42:41.038Z</time></trkpt><trkpt lat="44.9000867" lon="9.2289883"><ele>512.6666666666667</ele><time>2026-04-11T11:42:42.04Z</time></trkpt><trkpt lat="44.9002683" lon="9.2289067"><ele>511.33333333333337</ele><time>2026-04-11T11:42:43.039Z</time></trkpt><trkpt lat="44.9004433" lon="9.2288267"><ele>510.0</ele><time>2026-04-11T11:42:44.038Z</time></trkpt><trkpt lat="44.900605" lon="9.2287533"><ele>510.0</ele><time>2026-04-11T11:42:45.038Z</time></trkpt><trkpt lat="44.9007533" lon="9.2286867"><ele>510.0</ele><time>2026-04-11T11:42:46.038Z</time></trkpt><trkpt lat="44.900895" lon="9.228625"><ele>510.0</ele><time>2026-04-11T11:42:47.042Z</time></trkpt><trkpt lat="44.9010233" lon="9.2285817"><ele>510.0</ele><time>2026-04-11T11:42:48.037Z</time></trkpt><trkpt lat="44.9011367" lon="9.2285583"><ele>512.0</ele><time>2026-04-11T11:42:49.04Z</time></trkpt><trkpt lat="44.9012333" lon="9.2285483"><ele>514.0</ele><time>2026-04-11T11:42:50.039Z</time></trkpt><trkpt lat="44.9013317" lon="9.2285517"><ele>516.0</ele><time>2026-04-11T11:42:51.037Z</time></trkpt><trkpt lat="44.9014433" lon="9.228555"><ele>518.0</ele><time>2026-04-11T11:42:52.037Z</time></trkpt><trkpt lat="44.9015567" lon="9.2285367"><ele>520.0</ele><time>2026-04-11T11:42:53.039Z</time></trkpt><trkpt lat="44.9016733" lon="9.2284833"><ele>521.0</ele><time>2026-04-11T11:42:54.038Z</time></trkpt><trkpt lat="44.9018" lon="9.2284033"><ele>522.0</ele><time>2026-04-11T11:42:55.037Z</time></trkpt><trkpt lat="44.9019217" lon="9.228285"><ele>523.0</ele><time>2026-04-11T11:42:56.037Z</time></trkpt><trkpt lat="44.9020467" lon="9.2281483"><ele>524.0</ele><time>2026-04-11T11:42:57.036Z</time></trkpt><trkpt lat="44.9021667" lon="9.228005"><ele>524.0</ele><time>2026-04-11T11:42:58.029Z</time></trkpt><trkpt lat="44.90228" lon="9.2278467"><ele>524.0</ele><time>2026-04-11T11:42:59.029Z</time></trkpt><trkpt lat="44.9023833" lon="9.2276867"><ele>524.0</ele><time>2026-04-11T11:43:00.03Z</time></trkpt><trkpt lat="44.90247" lon="9.2274967"><ele>522.6666666666666</ele><time>2026-04-11T11:43:01.029Z</time></trkpt><trkpt lat="44.9025433" lon="9.2272867"><ele>521.3333333333334</ele><time>2026-04-11T11:43:02.029Z</time></trkpt><trkpt lat="44.9026067" lon="9.2270817"><ele>520.0</ele><time>2026-04-11T11:43:03.03Z</time></trkpt><trkpt lat="44.9026517" lon="9.2268683"><ele>521.75</ele><time>2026-04-11T11:43:04.029Z</time></trkpt><trkpt lat="44.90268" lon="9.2266633"><ele>523.5</ele><time>2026-04-11T11:43:05.029Z</time></trkpt><trkpt lat="44.9027133" lon="9.2264683"><ele>525.25</ele><time>2026-04-11T11:43:06.033Z</time></trkpt><trkpt lat="44.902745" lon="9.22627"><ele>527.0</ele><time>2026-04-11T11:43:07.038Z</time></trkpt><trkpt lat="44.9027817" lon="9.2260817"><ele>527.0</ele><time>2026-04-11T11:43:08.036Z</time></trkpt><trkpt lat="44.9028333" lon="9.2259033"><ele>527.0</ele><time>2026-04-11T11:43:09.038Z</time></trkpt><trkpt lat="44.9029067" lon="9.2257333"><ele>527.0</ele><time>2026-04-11T11:43:10.037Z</time></trkpt><trkpt lat="44.903" lon="9.2255783"><ele>527.0</ele><time>2026-04-11T11:43:11.036Z</time></trkpt><trkpt lat="44.9031167" lon="9.2254233"><ele>525.3333333333333</ele><time>2026-04-11T11:43:12.037Z</time></trkpt><trkpt lat="44.9032267" lon="9.2252433"><ele>523.6666666666666</ele><time>2026-04-11T11:43:13.035Z</time></trkpt><trkpt lat="44.90332" lon="9.225055"><ele>522.0</ele><time>2026-04-11T11:43:14.036Z</time></trkpt><trkpt lat="44.9033967" lon="9.22487"><ele>521.25</ele><time>2026-04-11T11:43:15.039Z</time></trkpt><trkpt lat="44.9034667" lon="9.2246933"><ele>520.5</ele><time>2026-04-11T11:43:16.042Z</time></trkpt><trkpt lat="44.903545" lon="9.2245233"><ele>519.75</ele><time>2026-04-11T11:43:17.038Z</time></trkpt><trkpt lat="44.9036367" lon="9.2243633"><ele>519.0</ele><time>2026-04-11T11:43:18.038Z</time></trkpt><trkpt lat="44.9037233" lon="9.2242067"><ele>519.0</ele><time>2026-04-11T11:43:19.04Z</time></trkpt><trkpt lat="44.903825" lon="9.2240833"><ele>519.0</ele><time>2026-04-11T11:43:20.041Z</time></trkpt><trkpt lat="44.90394" lon="9.223985"><ele>519.0</ele><time>2026-04-11T11:43:21.037Z</time></trkpt><trkpt lat="44.9040717" lon="9.2239367"><ele>519.0</ele><time>2026-04-11T11:43:22.034Z</time></trkpt><trkpt lat="44.9042267" lon="9.2238917"><ele>517.3333333333334</ele><time>2026-04-11T11:43:23.037Z</time></trkpt><trkpt lat="44.9043717" lon="9.22383"><ele>515.6666666666667</ele><time>2026-04-11T11:43:24.038Z</time></trkpt><trkpt lat="44.9045167" lon="9.2237533"><ele>514.0</ele><time>2026-04-11T11:43:25.038Z</time></trkpt><trkpt lat="44.9046617" lon="9.22368"><ele>514.0</ele><time>2026-04-11T11:43:26.039Z</time></trkpt><trkpt lat="44.90478" lon="9.2236067"><ele>514.0</ele><time>2026-04-11T11:43:27.04Z</time></trkpt><trkpt lat="44.904875" lon="9.2235067"><ele>514.0</ele><time>2026-04-11T11:43:28.039Z</time></trkpt><trkpt lat="44.9049467" lon="9.2233567"><ele>514.0</ele><time>2026-04-11T11:43:29.037Z</time></trkpt><trkpt lat="44.9049983" lon="9.2231717"><ele>514.3333333333334</ele><time>2026-04-11T11:43:30.037Z</time></trkpt><trkpt lat="44.905065" lon="9.2229733"><ele>514.6666666666666</ele><time>2026-04-11T11:43:31.037Z</time></trkpt><trkpt lat="44.9051517" lon="9.2227883"><ele>515.0</ele><time>2026-04-11T11:43:32.038Z</time></trkpt><trkpt lat="44.9052567" lon="9.22261"><ele>513.3333333333333</ele><time>2026-04-11T11:43:33.039Z</time></trkpt><trkpt lat="44.9053683" lon="9.2224467"><ele>511.66666666666663</ele><time>2026-04-11T11:43:34.038Z</time></trkpt><trkpt lat="44.905485" lon="9.2223117"><ele>510.0</ele><time>2026-04-11T11:43:35.037Z</time></trkpt><trkpt lat="44.9056067" lon="9.2222067"><ele>510.0</ele><time>2026-04-11T11:43:36.039Z</time></trkpt><trkpt lat="44.9057283" lon="9.22212"><ele>510.0</ele><time>2026-04-11T11:43:37.04Z</time></trkpt><trkpt lat="44.9058433" lon="9.2220283"><ele>510.0</ele><time>2026-04-11T11:43:38.033Z</time></trkpt><trkpt lat="44.9059467" lon="9.22192"><ele>510.0</ele><time>2026-04-11T11:43:39.038Z</time></trkpt><trkpt lat="44.9060267" lon="9.22179"><ele>505.25</ele><time>2026-04-11T11:43:40.032Z</time></trkpt><trkpt lat="44.9060867" lon="9.2216367"><ele>500.5</ele><time>2026-04-11T11:43:41.038Z</time></trkpt><trkpt lat="44.906145" lon="9.2214783"><ele>495.75</ele><time>2026-04-11T11:43:42.037Z</time></trkpt><trkpt lat="44.906215" lon="9.221335"><ele>491.0</ele><time>2026-04-11T11:43:43.039Z</time></trkpt><trkpt lat="44.9062783" lon="9.2211883"><ele>491.0</ele><time>2026-04-11T11:43:44.039Z</time></trkpt><trkpt lat="44.9063267" lon="9.221005"><ele>491.0</ele><time>2026-04-11T11:43:45.042Z</time></trkpt><trkpt lat="44.9063533" lon="9.2207917"><ele>491.0</ele><time>2026-04-11T11:43:46.039Z</time></trkpt><trkpt lat="44.906375" lon="9.22055"><ele>490.3333333333333</ele><time>2026-04-11T11:43:47.038Z</time></trkpt><trkpt lat="44.9064" lon="9.2203033"><ele>489.66666666666663</ele><time>2026-04-11T11:43:48.033Z</time></trkpt><trkpt lat="44.9064267" lon="9.2200667"><ele>489.0</ele><time>2026-04-11T11:43:49.039Z</time></trkpt><trkpt lat="44.9064583" lon="9.2198383"><ele>490.0</ele><time>2026-04-11T11:43:50.039Z</time></trkpt><trkpt lat="44.9065017" lon="9.21963"><ele>491.0</ele><time>2026-04-11T11:43:51.04Z</time></trkpt><trkpt lat="44.90656" lon="9.21944"><ele>492.0</ele><time>2026-04-11T11:43:52.038Z</time></trkpt><trkpt lat="44.9066367" lon="9.2192583"><ele>492.0</ele><time>2026-04-11T11:43:53.037Z</time></trkpt><trkpt lat="44.90673" lon="9.2190917"><ele>492.0</ele><time>2026-04-11T11:43:54.041Z</time></trkpt><trkpt lat="44.9068417" lon="9.218945"><ele>492.0</ele><time>2026-04-11T11:43:55.039Z</time></trkpt><trkpt lat="44.9069767" lon="9.218825"><ele>493.33333333333337</ele><time>2026-04-11T11:43:56.038Z</time></trkpt><trkpt lat="44.9071283" lon="9.218725"><ele>494.6666666666667</ele><time>2026-04-11T11:43:57.041Z</time></trkpt><trkpt lat="44.90728" lon="9.2186333"><ele>496.0</ele><time>2026-04-11T11:43:58.039Z</time></trkpt><trkpt lat="44.90742" lon="9.2185433"><ele>496.0</ele><time>2026-04-11T11:43:59.038Z</time></trkpt><trkpt lat="44.90755" lon="9.2184433"><ele>496.0</ele><time>2026-04-11T11:44:00.041Z</time></trkpt><trkpt lat="44.9076617" lon="9.218325"><ele>496.0</ele><time>2026-04-11T11:44:01.037Z</time></trkpt><trkpt lat="44.90775" lon="9.21818"><ele>496.0</ele><time>2026-04-11T11:44:02.041Z</time></trkpt><trkpt lat="44.90781" lon="9.2179967"><ele>495.0</ele><time>2026-04-11T11:44:03.039Z</time></trkpt><trkpt lat="44.907845" lon="9.2177783"><ele>494.0</ele><time>2026-04-11T11:44:04.038Z</time></trkpt><trkpt lat="44.9078667" lon="9.21755"><ele>493.0</ele><time>2026-04-11T11:44:05.037Z</time></trkpt><trkpt lat="44.90788" lon="9.2173283"><ele>493.25</ele><time>2026-04-11T11:44:06.042Z</time></trkpt><trkpt lat="44.907895" lon="9.2171217"><ele>493.5</ele><time>2026-04-11T11:44:07.041Z</time></trkpt><trkpt lat="44.90792" lon="9.2169233"><ele>493.75</ele><time>2026-04-11T11:44:08.037Z</time></trkpt><trkpt lat="44.9079617" lon="9.2167333"><ele>494.0</ele><time>2026-04-11T11:44:09.038Z</time></trkpt><trkpt lat="44.9080283" lon="9.216565"><ele>494.25</ele><time>2026-04-11T11:44:10.038Z</time></trkpt><trkpt lat="44.90812" lon="9.2164167"><ele>494.5</ele><time>2026-04-11T11:44:11.037Z</time></trkpt><trkpt lat="44.9082167" lon="9.21628"><ele>494.75</ele><time>2026-04-11T11:44:12.039Z</time></trkpt><trkpt lat="44.9083133" lon="9.2161617"><ele>495.0</ele><time>2026-04-11T11:44:13.039Z</time></trkpt><trkpt lat="44.9084183" lon="9.2160683"><ele>496.25</ele><time>2026-04-11T11:44:14.037Z</time></trkpt><trkpt lat="44.9085317" lon="9.21601"><ele>497.5</ele><time>2026-04-11T11:44:15.041Z</time></trkpt><trkpt lat="44.9086633" lon="9.2159883"><ele>498.75</ele><time>2026-04-11T11:44:16.039Z</time></trkpt><trkpt lat="44.9088033" lon="9.2159883"><ele>500.0</ele><time>2026-04-11T11:44:17.036Z</time></trkpt><trkpt lat="44.9089533" lon="9.2159983"><ele>500.0</ele><time>2026-04-11T11:44:18.04Z</time></trkpt><trkpt lat="44.9091067" lon="9.216"><ele>500.0</ele><time>2026-04-11T11:44:19.04Z</time></trkpt><trkpt lat="44.9092583" lon="9.2159783"><ele>500.0</ele><time>2026-04-11T11:44:20.031Z</time></trkpt><trkpt lat="44.90941" lon="9.215925"><ele>500.0</ele><time>2026-04-11T11:44:21.037Z</time></trkpt><trkpt lat="44.909555" lon="9.215845"><ele>500.0</ele><time>2026-04-11T11:44:22.038Z</time></trkpt><trkpt lat="44.90969" lon="9.2157433"><ele>500.0</ele><time>2026-04-11T11:44:23.041Z</time></trkpt><trkpt lat="44.90983" lon="9.2156383"><ele>501.3333333333333</ele><time>2026-04-11T11:44:24.036Z</time></trkpt><trkpt lat="44.9099767" lon="9.2155383"><ele>502.66666666666663</ele><time>2026-04-11T11:44:25.038Z</time></trkpt><trkpt lat="44.91013" lon="9.2154483"><ele>504.0</ele><time>2026-04-11T11:44:26.039Z</time></trkpt><trkpt lat="44.9102817" lon="9.2153683"><ele>504.0</ele><time>2026-04-11T11:44:27.041Z</time></trkpt><trkpt lat="44.9104367" lon="9.2152917"><ele>504.0</ele><time>2026-04-11T11:44:28.041Z</time></trkpt><trkpt lat="44.9105883" lon="9.2152167"><ele>504.0</ele><time>2026-04-11T11:44:29.039Z</time></trkpt><trkpt lat="44.910735" lon="9.2151417"><ele>504.0</ele><time>2026-04-11T11:44:30.032Z</time></trkpt><trkpt lat="44.9108833" lon="9.21508"><ele>504.0</ele><time>2026-04-11T11:44:31.042Z</time></trkpt><trkpt lat="44.9110333" lon="9.215045"><ele>504.0</ele><time>2026-04-11T11:44:32.039Z</time></trkpt><trkpt lat="44.9111817" lon="9.2150483"><ele>505.0</ele><time>2026-04-11T11:44:33.041Z</time></trkpt><trkpt lat="44.9113267" lon="9.215075"><ele>506.0</ele><time>2026-04-11T11:44:34.038Z</time></trkpt><trkpt lat="44.91147" lon="9.2151067"><ele>507.0</ele><time>2026-04-11T11:44:35.034Z</time></trkpt><trkpt lat="44.9116133" lon="9.2151367"><ele>508.0</ele><time>2026-04-11T11:44:36.042Z</time></trkpt><trkpt lat="44.9117567" lon="9.2151683"><ele>509.5</ele><time>2026-04-11T11:44:37.041Z</time></trkpt><trkpt lat="44.9118967" lon="9.2152017"><ele>511.0</ele><time>2026-04-11T11:44:38.042Z</time></trkpt><trkpt lat="44.91202" lon="9.21523"><ele>512.5</ele><time>2026-04-11T11:44:39.042Z</time></trkpt><trkpt lat="44.9121267" lon="9.2152517"><ele>514.0</ele><time>2026-04-11T11:44:40.038Z</time></trkpt><trkpt lat="44.9122183" lon="9.2152567"><ele>514.0</ele><time>2026-04-11T11:44:41.038Z</time></trkpt><trkpt lat="44.9123" lon="9.2152317"><ele>514.0</ele><time>2026-04-11T11:44:42.04Z</time></trkpt><trkpt lat="44.912375" lon="9.2151783"><ele>514.0</ele><time>2026-04-11T11:44:43.043Z</time></trkpt><trkpt lat="44.912445" lon="9.21508"><ele>514.0</ele><time>2026-04-11T11:44:44.037Z</time></trkpt><trkpt lat="44.9125167" lon="9.2149717"><ele>514.0</ele><time>2026-04-11T11:44:45.032Z</time></trkpt><trkpt lat="44.9125883" lon="9.214845"><ele>515.0</ele><time>2026-04-11T11:44:46.03Z</time></trkpt><trkpt lat="44.912665" lon="9.2147317"><ele>516.0</ele><time>2026-04-11T11:44:47.03Z</time></trkpt><trkpt lat="44.9127433" lon="9.2146183"><ele>517.0</ele><time>2026-04-11T11:44:48.03Z</time></trkpt><trkpt lat="44.9128183" lon="9.2145083"><ele>518.0</ele><time>2026-04-11T11:44:49.032Z</time></trkpt><trkpt lat="44.9129" lon="9.2143917"><ele>519.0</ele><time>2026-04-11T11:44:50.03Z</time></trkpt><trkpt lat="44.912985" lon="9.2142633"><ele>519.0</ele><time>2026-04-11T11:44:51.039Z</time></trkpt><trkpt lat="44.9130567" lon="9.2141133"><ele>519.0</ele><time>2026-04-11T11:44:52.032Z</time></trkpt><trkpt lat="44.9131217" lon="9.2139867"><ele>519.0</ele><time>2026-04-11T11:44:53.03Z</time></trkpt><trkpt lat="44.91319" lon="9.21386"><ele>519.0</ele><time>2026-04-11T11:44:54.03Z</time></trkpt><trkpt lat="44.9132583" lon="9.2137417"><ele>518.75</ele><time>2026-04-11T11:44:55.029Z</time></trkpt><trkpt lat="44.913335" lon="9.21364"><ele>518.5</ele><time>2026-04-11T11:44:56.03Z</time></trkpt><trkpt lat="44.9134267" lon="9.2135417"><ele>518.25</ele><time>2026-04-11T11:44:57.031Z</time></trkpt><trkpt lat="44.9135133" lon="9.213435"><ele>518.0</ele><time>2026-04-11T11:44:58.031Z</time></trkpt><trkpt lat="44.9136083" lon="9.2133167"><ele>518.5</ele><time>2026-04-11T11:44:59.035Z</time></trkpt><trkpt lat="44.9137167" lon="9.21319"><ele>519.0</ele><time>2026-04-11T11:45:00.031Z</time></trkpt><trkpt lat="44.913835" lon="9.21308"><ele>519.5</ele><time>2026-04-11T11:45:01.031Z</time></trkpt><trkpt lat="44.9139733" lon="9.2129933"><ele>520.0</ele><time>2026-04-11T11:45:02.03Z</time></trkpt><trkpt lat="44.9141183" lon="9.212945"><ele>524.75</ele><time>2026-04-11T11:45:03.032Z</time></trkpt><trkpt lat="44.9142683" lon="9.212915"><ele>529.5</ele><time>2026-04-11T11:45:04.031Z</time></trkpt><trkpt lat="44.9144133" lon="9.2129033"><ele>534.25</ele><time>2026-04-11T11:45:05.034Z</time></trkpt><trkpt lat="44.9145517" lon="9.21292"><ele>539.0</ele><time>2026-04-11T11:45:06.038Z</time></trkpt><trkpt lat="44.9146917" lon="9.2129583"><ele>539.0</ele><time>2026-04-11T11:45:07.039Z</time></trkpt><trkpt lat="44.914835" lon="9.2129917"><ele>539.0</ele><time>2026-04-11T11:45:08.042Z</time></trkpt><trkpt lat="44.91497" lon="9.2130067"><ele>539.0</ele><time>2026-04-11T11:45:09.039Z</time></trkpt><trkpt lat="44.9150983" lon="9.21301"><ele>539.0</ele><time>2026-04-11T11:45:10.04Z</time></trkpt><trkpt lat="44.9152183" lon="9.2130217"><ele>541.0</ele><time>2026-04-11T11:45:11.039Z</time></trkpt><trkpt lat="44.9153267" lon="9.2130333"><ele>543.0</ele><time>2026-04-11T11:45:12.039Z</time></trkpt><trkpt lat="44.9154283" lon="9.2130567"><ele>545.0</ele><time>2026-04-11T11:45:13.034Z</time></trkpt><trkpt lat="44.9155167" lon="9.2130533"><ele>547.0</ele><time>2026-04-11T11:45:14.037Z</time></trkpt><trkpt lat="44.915595" lon="9.2130283"><ele>549.0</ele><time>2026-04-11T11:45:15.041Z</time></trkpt><trkpt lat="44.9157183" lon="9.2130683"><ele>549.0</ele><time>2026-04-11T11:45:17.039Z</time></trkpt><trkpt lat="44.9157967" lon="9.213135"><ele>549.0</ele><time>2026-04-11T11:45:18.031Z</time></trkpt><trkpt lat="44.9158983" lon="9.2131967"><ele>549.0</ele><time>2026-04-11T11:45:19.037Z</time></trkpt><trkpt lat="44.9160067" lon="9.2132667"><ele>549.0</ele><time>2026-04-11T11:45:20.037Z</time></trkpt><trkpt lat="44.9161033" lon="9.213355"><ele>549.0</ele><time>2026-04-11T11:45:21.043Z</time></trkpt><trkpt lat="44.916185" lon="9.2134733"><ele>547.5</ele><time>2026-04-11T11:45:22.041Z</time></trkpt><trkpt lat="44.9162517" lon="9.2136183"><ele>546.0</ele><time>2026-04-11T11:45:23.042Z</time></trkpt><trkpt lat="44.9162967" lon="9.2137833"><ele>544.5</ele><time>2026-04-11T11:45:24.038Z</time></trkpt><trkpt lat="44.91632" lon="9.21395"><ele>543.0</ele><time>2026-04-11T11:45:25.038Z</time></trkpt><trkpt lat="44.9163467" lon="9.2140867"><ele>542.0</ele><time>2026-04-11T11:45:26.043Z</time></trkpt><trkpt lat="44.916385" lon="9.2141917"><ele>541.0</ele><time>2026-04-11T11:45:27.042Z</time></trkpt><trkpt lat="44.916435" lon="9.214265"><ele>540.0</ele><time>2026-04-11T11:45:28.039Z</time></trkpt><trkpt lat="44.91651" lon="9.21429"><ele>539.0</ele><time>2026-04-11T11:45:29.036Z</time></trkpt><trkpt lat="44.9165967" lon="9.21429"><ele>538.0</ele><time>2026-04-11T11:45:30.039Z</time></trkpt><trkpt lat="44.9167017" lon="9.2142467"><ele>537.0</ele><time>2026-04-11T11:45:31.04Z</time></trkpt><trkpt lat="44.9168183" lon="9.2141933"><ele>534.75</ele><time>2026-04-11T11:45:32.037Z</time></trkpt><trkpt lat="44.91694" lon="9.214135"><ele>532.5</ele><time>2026-04-11T11:45:33.042Z</time></trkpt><trkpt lat="44.9170633" lon="9.214085"><ele>530.25</ele><time>2026-04-11T11:45:34.038Z</time></trkpt><trkpt lat="44.91718" lon="9.2140517"><ele>528.0</ele><time>2026-04-11T11:45:35.04Z</time></trkpt><trkpt lat="44.9172983" lon="9.21404"><ele>528.0</ele><time>2026-04-11T11:45:36.038Z</time></trkpt><trkpt lat="44.91742" lon="9.214045"><ele>528.0</ele><time>2026-04-11T11:45:37.039Z</time></trkpt><trkpt lat="44.9175433" lon="9.2140533"><ele>528.0</ele><time>2026-04-11T11:45:38.038Z</time></trkpt><trkpt lat="44.9176633" lon="9.214045"><ele>528.0</ele><time>2026-04-11T11:45:39.04Z</time></trkpt><trkpt lat="44.9177933" lon="9.2140317"><ele>526.75</ele><time>2026-04-11T11:45:40.04Z</time></trkpt><trkpt lat="44.917925" lon="9.2140167"><ele>525.5</ele><time>2026-04-11T11:45:41.039Z</time></trkpt><trkpt lat="44.91805" lon="9.2140033"><ele>524.25</ele><time>2026-04-11T11:45:42.041Z</time></trkpt><trkpt lat="44.9181783" lon="9.213995"><ele>523.0</ele><time>2026-04-11T11:45:43.039Z</time></trkpt><trkpt lat="44.9183067" lon="9.214"><ele>521.5</ele><time>2026-04-11T11:45:44.031Z</time></trkpt><trkpt lat="44.91844" lon="9.2140267"><ele>520.0</ele><time>2026-04-11T11:45:45.038Z</time></trkpt><trkpt lat="44.9185667" lon="9.2140567"><ele>518.5</ele><time>2026-04-11T11:45:46.038Z</time></trkpt><trkpt lat="44.91869" lon="9.2140717"><ele>517.0</ele><time>2026-04-11T11:45:47.037Z</time></trkpt><trkpt lat="44.9188067" lon="9.2140633"><ele>517.0</ele><time>2026-04-11T11:45:48.039Z</time></trkpt><trkpt lat="44.9189233" lon="9.2140283"><ele>517.0</ele><time>2026-04-11T11:45:49.039Z</time></trkpt><trkpt lat="44.919045" lon="9.21398"><ele>517.0</ele><time>2026-04-11T11:45:50.037Z</time></trkpt><trkpt lat="44.91917" lon="9.2139583"><ele>517.0</ele><time>2026-04-11T11:45:51.042Z</time></trkpt><trkpt lat="44.9192883" lon="9.213985"><ele>515.5</ele><time>2026-04-11T11:45:52.038Z</time></trkpt><trkpt lat="44.9193933" lon="9.2140533"><ele>514.0</ele><time>2026-04-11T11:45:53.038Z</time></trkpt><trkpt lat="44.9195" lon="9.2141617"><ele>512.5</ele><time>2026-04-11T11:45:54.04Z</time></trkpt><trkpt lat="44.9195967" lon="9.2142883"><ele>511.0</ele><time>2026-04-11T11:45:55.041Z</time></trkpt><trkpt lat="44.9196917" lon="9.2144133"><ele>511.0</ele><time>2026-04-11T11:45:56.036Z</time></trkpt><trkpt lat="44.919785" lon="9.214545"><ele>511.0</ele><time>2026-04-11T11:45:57.041Z</time></trkpt><trkpt lat="44.9198683" lon="9.2146767"><ele>511.0</ele><time>2026-04-11T11:45:58.04Z</time></trkpt><trkpt lat="44.9199467" lon="9.21482"><ele>511.0</ele><time>2026-04-11T11:45:59.036Z</time></trkpt><trkpt lat="44.9200233" lon="9.2149767"><ele>509.0</ele><time>2026-04-11T11:46:00.039Z</time></trkpt><trkpt lat="44.9201067" lon="9.2151367"><ele>507.0</ele><time>2026-04-11T11:46:01.038Z</time></trkpt><trkpt lat="44.92019" lon="9.215275"><ele>505.0</ele><time>2026-04-11T11:46:02.042Z</time></trkpt><trkpt lat="44.9202867" lon="9.2153883"><ele>503.0</ele><time>2026-04-11T11:46:03.039Z</time></trkpt><trkpt lat="44.9203883" lon="9.2154767"><ele>503.0</ele><time>2026-04-11T11:46:04.04Z</time></trkpt><trkpt lat="44.9204983" lon="9.2155433"><ele>503.0</ele><time>2026-04-11T11:46:05.037Z</time></trkpt><trkpt lat="44.9206283" lon="9.2156033"><ele>503.0</ele><time>2026-04-11T11:46:06.04Z</time></trkpt><trkpt lat="44.9207683" lon="9.2156583"><ele>503.0</ele><time>2026-04-11T11:46:07.038Z</time></trkpt><trkpt lat="44.9209" lon="9.2157133"><ele>503.3333333333333</ele><time>2026-04-11T11:46:08.036Z</time></trkpt><trkpt lat="44.921025" lon="9.2157783"><ele>503.66666666666663</ele><time>2026-04-11T11:46:09.041Z</time></trkpt><trkpt lat="44.9211433" lon="9.2158433"><ele>504.0</ele><time>2026-04-11T11:46:10.142Z</time></trkpt><trkpt lat="44.9213567" lon="9.2159183"><ele>504.0</ele><time>2026-04-11T11:46:12.04Z</time></trkpt><trkpt lat="44.9214733" lon="9.2159083"><ele>504.0</ele><time>2026-04-11T11:46:13.037Z</time></trkpt><trkpt lat="44.92159" lon="9.21589"><ele>504.0</ele><time>2026-04-11T11:46:14.037Z</time></trkpt><trkpt lat="44.921725" lon="9.2158883"><ele>504.0</ele><time>2026-04-11T11:46:15.042Z</time></trkpt><trkpt lat="44.9218667" lon="9.2159067"><ele>502.5</ele><time>2026-04-11T11:46:16.037Z</time></trkpt><trkpt lat="44.9220117" lon="9.2159433"><ele>501.0</ele><time>2026-04-11T11:46:17.038Z</time></trkpt><trkpt lat="44.9221617" lon="9.2159917"><ele>499.5</ele><time>2026-04-11T11:46:18.036Z</time></trkpt><trkpt lat="44.922305" lon="9.216035"><ele>498.0</ele><time>2026-04-11T11:46:19.038Z</time></trkpt><trkpt lat="44.92244" lon="9.2160717"><ele>499.25</ele><time>2026-04-11T11:46:20.034Z</time></trkpt><trkpt lat="44.922575" lon="9.2161033"><ele>500.5</ele><time>2026-04-11T11:46:21.036Z</time></trkpt><trkpt lat="44.9227117" lon="9.21612"><ele>501.75</ele><time>2026-04-11T11:46:22.037Z</time></trkpt><trkpt lat="44.92285" lon="9.2161233"><ele>503.0</ele><time>2026-04-11T11:46:23.038Z</time></trkpt><trkpt lat="44.9229867" lon="9.21612"><ele>503.0</ele><time>2026-04-11T11:46:24.037Z</time></trkpt><trkpt lat="44.92312" lon="9.2161117"><ele>503.0</ele><time>2026-04-11T11:46:25.038Z</time></trkpt><trkpt lat="44.9232583" lon="9.21609"><ele>503.0</ele><time>2026-04-11T11:46:26.038Z</time></trkpt><trkpt lat="44.9233983" lon="9.2160567"><ele>503.0</ele><time>2026-04-11T11:46:27.036Z</time></trkpt><trkpt lat="44.923545" lon="9.216025"><ele>506.3333333333333</ele><time>2026-04-11T11:46:28.03Z</time></trkpt><trkpt lat="44.9236933" lon="9.2160017"><ele>509.66666666666663</ele><time>2026-04-11T11:46:29.036Z</time></trkpt><trkpt lat="44.9238433" lon="9.21599"><ele>513.0</ele><time>2026-04-11T11:46:30.041Z</time></trkpt><trkpt lat="44.923995" lon="9.2159933"><ele>513.0</ele><time>2026-04-11T11:46:31.038Z</time></trkpt><trkpt lat="44.92415" lon="9.2160067"><ele>513.0</ele><time>2026-04-11T11:46:32.038Z</time></trkpt><trkpt lat="44.924305" lon="9.2160283"><ele>513.0</ele><time>2026-04-11T11:46:33.042Z</time></trkpt><trkpt lat="44.9244567" lon="9.2160483"><ele>515.5</ele><time>2026-04-11T11:46:34.037Z</time></trkpt><trkpt lat="44.9246067" lon="9.2160733"><ele>518.0</ele><time>2026-04-11T11:46:35.037Z</time></trkpt><trkpt lat="44.9247467" lon="9.2161067"><ele>520.5</ele><time>2026-04-11T11:46:36.036Z</time></trkpt><trkpt lat="44.924875" lon="9.21614"><ele>523.0</ele><time>2026-04-11T11:46:37.039Z</time></trkpt><trkpt lat="44.9249967" lon="9.2161617"><ele>524.5</ele><time>2026-04-11T11:46:38.038Z</time></trkpt><trkpt lat="44.9251217" lon="9.2161733"><ele>526.0</ele><time>2026-04-11T11:46:39.043Z</time></trkpt><trkpt lat="44.9252433" lon="9.21618"><ele>527.5</ele><time>2026-04-11T11:46:40.032Z</time></trkpt><trkpt lat="44.9253767" lon="9.2161633"><ele>529.0</ele><time>2026-04-11T11:46:41.032Z</time></trkpt><trkpt lat="44.9254983" lon="9.2161483"><ele>529.0</ele><time>2026-04-11T11:46:42.03Z</time></trkpt><trkpt lat="44.9256" lon="9.2161467"><ele>529.0</ele><time>2026-04-11T11:46:43.03Z</time></trkpt><trkpt lat="44.9256783" lon="9.2161767"><ele>529.0</ele><time>2026-04-11T11:46:44.03Z</time></trkpt><trkpt lat="44.9257367" lon="9.2162583"><ele>529.0</ele><time>2026-04-11T11:46:45.03Z</time></trkpt><trkpt lat="44.92579" lon="9.2163533"><ele>529.0</ele><time>2026-04-11T11:46:46.037Z</time></trkpt><trkpt lat="44.925845" lon="9.2164733"><ele>529.0</ele><time>2026-04-11T11:46:47.035Z</time></trkpt><trkpt lat="44.9259083" lon="9.2165933"><ele>529.0</ele><time>2026-04-11T11:46:48.03Z</time></trkpt><trkpt lat="44.9259767" lon="9.216705"><ele>529.0</ele><time>2026-04-11T11:46:49.033Z</time></trkpt><trkpt lat="44.9260517" lon="9.2167983"><ele>529.0</ele><time>2026-04-11T11:46:50.032Z</time></trkpt><trkpt lat="44.9261267" lon="9.2168833"><ele>529.0</ele><time>2026-04-11T11:46:51.031Z</time></trkpt><trkpt lat="44.9262083" lon="9.2169633"><ele>529.0</ele><time>2026-04-11T11:46:52.03Z</time></trkpt><trkpt lat="44.9263017" lon="9.2170267"><ele>529.0</ele><time>2026-04-11T11:46:53.031Z</time></trkpt><trkpt lat="44.9263833" lon="9.2170883"><ele>529.0</ele><time>2026-04-11T11:46:54.034Z</time></trkpt><trkpt lat="44.9264717" lon="9.2171467"><ele>529.0</ele><time>2026-04-11T11:46:55.03Z</time></trkpt><trkpt lat="44.926565" lon="9.2172283"><ele>529.0</ele><time>2026-04-11T11:46:56.03Z</time></trkpt><trkpt lat="44.92665" lon="9.2173317"><ele>531.25</ele><time>2026-04-11T11:46:57.032Z</time></trkpt><trkpt lat="44.926735" lon="9.21745"><ele>533.5</ele><time>2026-04-11T11:46:58.033Z</time></trkpt><trkpt lat="44.9268233" lon="9.2175733"><ele>535.75</ele><time>2026-04-11T11:46:59.036Z</time></trkpt><trkpt lat="44.92691" lon="9.2176817"><ele>538.0</ele><time>2026-04-11T11:47:00.032Z</time></trkpt><trkpt lat="44.9269867" lon="9.21778"><ele>538.0</ele><time>2026-04-11T11:47:01.032Z</time></trkpt><trkpt lat="44.9270533" lon="9.2178617"><ele>538.0</ele><time>2026-04-11T11:47:02.033Z</time></trkpt><trkpt lat="44.9271167" lon="9.217915"><ele>538.0</ele><time>2026-04-11T11:47:03.033Z</time></trkpt><trkpt lat="44.9271817" lon="9.2179433"><ele>538.0</ele><time>2026-04-11T11:47:04.038Z</time></trkpt><trkpt lat="44.9272617" lon="9.2179467"><ele>538.0</ele><time>2026-04-11T11:47:05.04Z</time></trkpt><trkpt lat="44.927355" lon="9.21793"><ele>538.0</ele><time>2026-04-11T11:47:06.034Z</time></trkpt><trkpt lat="44.92746" lon="9.2179033"><ele>535.8</ele><time>2026-04-11T11:47:07.039Z</time></trkpt><trkpt lat="44.9275733" lon="9.2178833"><ele>533.5999999999999</ele><time>2026-04-11T11:47:08.035Z</time></trkpt><trkpt lat="44.9276833" lon="9.2178633"><ele>531.4000000000001</ele><time>2026-04-11T11:47:09.035Z</time></trkpt><trkpt lat="44.9277783" lon="9.21784"><ele>529.2</ele><time>2026-04-11T11:47:10.032Z</time></trkpt><trkpt lat="44.9278817" lon="9.217815"><ele>527.0</ele><time>2026-04-11T11:47:11.033Z</time></trkpt><trkpt lat="44.92798" lon="9.2177567"><ele>527.0</ele><time>2026-04-11T11:47:12.034Z</time></trkpt><trkpt lat="44.9280767" lon="9.2176683"><ele>527.0</ele><time>2026-04-11T11:47:13.03Z</time></trkpt><trkpt lat="44.9281767" lon="9.2175883"><ele>527.0</ele><time>2026-04-11T11:47:14.03Z</time></trkpt><trkpt lat="44.9282917" lon="9.217525"><ele>527.0</ele><time>2026-04-11T11:47:15.035Z</time></trkpt><trkpt lat="44.92841" lon="9.21746"><ele>524.75</ele><time>2026-04-11T11:47:16.033Z</time></trkpt><trkpt lat="44.928535" lon="9.2173867"><ele>522.5</ele><time>2026-04-11T11:47:17.029Z</time></trkpt><trkpt lat="44.928655" lon="9.2173183"><ele>520.25</ele><time>2026-04-11T11:47:18.032Z</time></trkpt><trkpt lat="44.9287717" lon="9.2172667"><ele>518.0</ele><time>2026-04-11T11:47:19.037Z</time></trkpt><trkpt lat="44.928885" lon="9.21722"><ele>516.1999999999999</ele><time>2026-04-11T11:47:20.037Z</time></trkpt><trkpt lat="44.9289867" lon="9.2171717"><ele>514.4</ele><time>2026-04-11T11:47:21.038Z</time></trkpt><trkpt lat="44.9290933" lon="9.21713"><ele>512.5999999999999</ele><time>2026-04-11T11:47:22.031Z</time></trkpt><trkpt lat="44.9292017" lon="9.217105"><ele>510.79999999999995</ele><time>2026-04-11T11:47:23.033Z</time></trkpt><trkpt lat="44.9293083" lon="9.217095"><ele>509.0</ele><time>2026-04-11T11:47:24.036Z</time></trkpt><trkpt lat="44.9294067" lon="9.217115"><ele>507.6</ele><time>2026-04-11T11:47:25.042Z</time></trkpt><trkpt lat="44.9295067" lon="9.21716"><ele>506.2</ele><time>2026-04-11T11:47:26.032Z</time></trkpt><trkpt lat="44.9295983" lon="9.2172183"><ele>504.80000000000007</ele><time>2026-04-11T11:47:27.032Z</time></trkpt><trkpt lat="44.9296817" lon="9.2172683"><ele>503.40000000000003</ele><time>2026-04-11T11:47:28.031Z</time></trkpt><trkpt lat="44.92976" lon="9.217295"><ele>502.0</ele><time>2026-04-11T11:47:29.03Z</time></trkpt><trkpt lat="44.9298333" lon="9.2172917"><ele>502.0</ele><time>2026-04-11T11:47:30.035Z</time></trkpt><trkpt lat="44.929915" lon="9.2172433"><ele>502.00000000000006</ele><time>2026-04-11T11:47:31.042Z</time></trkpt><trkpt lat="44.9299933" lon="9.2171667"><ele>502.00000000000006</ele><time>2026-04-11T11:47:32.039Z</time></trkpt><trkpt lat="44.930085" lon="9.217105"><ele>502.0</ele><time>2026-04-11T11:47:33.034Z</time></trkpt><trkpt lat="44.93018" lon="9.21706"><ele>502.0</ele><time>2026-04-11T11:47:34.033Z</time></trkpt><trkpt lat="44.9302883" lon="9.2170283"><ele>502.0</ele><time>2026-04-11T11:47:35.037Z</time></trkpt><trkpt lat="44.9303967" lon="9.216995"><ele>502.0</ele><time>2026-04-11T11:47:36.039Z</time></trkpt><trkpt lat="44.9304983" lon="9.216935"><ele>502.0</ele><time>2026-04-11T11:47:37.039Z</time></trkpt><trkpt lat="44.9305933" lon="9.2168467"><ele>502.0</ele><time>2026-04-11T11:47:38.033Z</time></trkpt><trkpt lat="44.9306883" lon="9.2167533"><ele>502.0</ele><time>2026-04-11T11:47:39.032Z</time></trkpt><trkpt lat="44.9307867" lon="9.2166583"><ele>502.0</ele><time>2026-04-11T11:47:40.03Z</time></trkpt><trkpt lat="44.930885" lon="9.2165633"><ele>502.0</ele><time>2026-04-11T11:47:41.03Z</time></trkpt><trkpt lat="44.93098" lon="9.2164733"><ele>502.0</ele><time>2026-04-11T11:47:42.037Z</time></trkpt><trkpt lat="44.9310667" lon="9.2163983"><ele>500.8</ele><time>2026-04-11T11:47:43.039Z</time></trkpt><trkpt lat="44.9311583" lon="9.21635"><ele>499.6</ele><time>2026-04-11T11:47:44.037Z</time></trkpt><trkpt lat="44.93125" lon="9.216335"><ele>498.40000000000003</ele><time>2026-04-11T11:47:45.041Z</time></trkpt><trkpt lat="44.9313367" lon="9.2163567"><ele>497.20000000000005</ele><time>2026-04-11T11:47:46.032Z</time></trkpt><trkpt lat="44.9314133" lon="9.216405"><ele>496.0</ele><time>2026-04-11T11:47:47.035Z</time></trkpt><trkpt lat="44.9314833" lon="9.2164867"><ele>496.0</ele><time>2026-04-11T11:47:48.037Z</time></trkpt><trkpt lat="44.9315583" lon="9.21658"><ele>496.0</ele><time>2026-04-11T11:47:49.043Z</time></trkpt><trkpt lat="44.9316383" lon="9.2166617"><ele>496.0</ele><time>2026-04-11T11:47:50.039Z</time></trkpt><trkpt lat="44.9317217" lon="9.21671"><ele>496.0</ele><time>2026-04-11T11:47:51.032Z</time></trkpt><trkpt lat="44.93181" lon="9.216745"><ele>496.0</ele><time>2026-04-11T11:47:52.03Z</time></trkpt><trkpt lat="44.9318933" lon="9.2167967"><ele>492.6</ele><time>2026-04-11T11:47:53.033Z</time></trkpt><trkpt lat="44.9319633" lon="9.216875"><ele>489.20000000000005</ele><time>2026-04-11T11:47:54.038Z</time></trkpt><trkpt lat="44.9320317" lon="9.21698"><ele>485.79999999999995</ele><time>2026-04-11T11:47:55.042Z</time></trkpt><trkpt lat="44.932105" lon="9.2170933"><ele>482.4</ele><time>2026-04-11T11:47:56.038Z</time></trkpt><trkpt lat="44.9321767" lon="9.217205"><ele>479.0</ele><time>2026-04-11T11:47:57.04Z</time></trkpt><trkpt lat="44.932235" lon="9.2173167"><ele>481.2</ele><time>2026-04-11T11:47:58.04Z</time></trkpt><trkpt lat="44.93228" lon="9.2174367"><ele>483.4</ele><time>2026-04-11T11:47:59.04Z</time></trkpt><trkpt lat="44.9323117" lon="9.2175767"><ele>485.6</ele><time>2026-04-11T11:48:00.034Z</time></trkpt><trkpt lat="44.93233" lon="9.2177217"><ele>487.8</ele><time>2026-04-11T11:48:01.036Z</time></trkpt><trkpt lat="44.9323433" lon="9.217865"><ele>490.0</ele><time>2026-04-11T11:48:02.039Z</time></trkpt><trkpt lat="44.9323667" lon="9.217995"><ele>490.0</ele><time>2026-04-11T11:48:03.038Z</time></trkpt><trkpt lat="44.9324033" lon="9.2181317"><ele>490.0</ele><time>2026-04-11T11:48:04.036Z</time></trkpt><trkpt lat="44.9324433" lon="9.2182617"><ele>490.0</ele><time>2026-04-11T11:48:05.035Z</time></trkpt><trkpt lat="44.9324733" lon="9.21838"><ele>490.0</ele><time>2026-04-11T11:48:06.037Z</time></trkpt><trkpt lat="44.9324933" lon="9.2184717"><ele>490.0</ele><time>2026-04-11T11:48:07.039Z</time></trkpt><trkpt lat="44.9325617" lon="9.21856"><ele>486.4</ele><time>2026-04-11T11:48:09.038Z</time></trkpt><trkpt lat="44.9326483" lon="9.2185067"><ele>482.8</ele><time>2026-04-11T11:48:11.032Z</time></trkpt><trkpt lat="44.9326583" lon="9.2184067"><ele>479.20000000000005</ele><time>2026-04-11T11:48:12.036Z</time></trkpt><trkpt lat="44.9326667" lon="9.2183117"><ele>475.6</ele><time>2026-04-11T11:48:13.031Z</time></trkpt><trkpt lat="44.9326683" lon="9.2181683"><ele>472.0</ele><time>2026-04-11T11:48:14.035Z</time></trkpt><trkpt lat="44.9326767" lon="9.218005"><ele>472.0</ele><time>2026-04-11T11:48:15.04Z</time></trkpt><trkpt lat="44.9326767" lon="9.2178567"><ele>472.00000000000006</ele><time>2026-04-11T11:48:16.035Z</time></trkpt><trkpt lat="44.9326717" lon="9.2177167"><ele>472.00000000000006</ele><time>2026-04-11T11:48:17.03Z</time></trkpt><trkpt lat="44.9326583" lon="9.2175817"><ele>472.0</ele><time>2026-04-11T11:48:18.03Z</time></trkpt><trkpt lat="44.93267" lon="9.2174567"><ele>472.0</ele><time>2026-04-11T11:48:19.032Z</time></trkpt><trkpt lat="44.932725" lon="9.2173917"><ele>472.0</ele><time>2026-04-11T11:48:20.034Z</time></trkpt><trkpt lat="44.9328017" lon="9.21739"><ele>472.00000000000006</ele><time>2026-04-11T11:48:21.03Z</time></trkpt><trkpt lat="44.932895" lon="9.21742"><ele>472.00000000000006</ele><time>2026-04-11T11:48:22.03Z</time></trkpt><trkpt lat="44.9330033" lon="9.217465"><ele>472.0</ele><time>2026-04-11T11:48:23.03Z</time></trkpt><trkpt lat="44.9331317" lon="9.2175117"><ele>472.0</ele><time>2026-04-11T11:48:24.038Z</time></trkpt><trkpt lat="44.9332717" lon="9.2175267"><ele>470.25</ele><time>2026-04-11T11:48:25.035Z</time></trkpt><trkpt lat="44.9334" lon="9.2175267"><ele>468.5</ele><time>2026-04-11T11:48:26.038Z</time></trkpt><trkpt lat="44.9335167" lon="9.2175133"><ele>466.75</ele><time>2026-04-11T11:48:27.031Z</time></trkpt><trkpt lat="44.93362" lon="9.217485"><ele>465.0</ele><time>2026-04-11T11:48:28.029Z</time></trkpt><trkpt lat="44.9337183" lon="9.2174517"><ele>465.0</ele><time>2026-04-11T11:48:29.031Z</time></trkpt><trkpt lat="44.933815" lon="9.21742"><ele>465.0</ele><time>2026-04-11T11:48:30.03Z</time></trkpt><trkpt lat="44.93391" lon="9.2173867"><ele>465.0</ele><time>2026-04-11T11:48:31.032Z</time></trkpt><trkpt lat="44.934005" lon="9.217355"><ele>465.0</ele><time>2026-04-11T11:48:32.042Z</time></trkpt><trkpt lat="44.9341" lon="9.2173283"><ele>465.0</ele><time>2026-04-11T11:48:33.04Z</time></trkpt><trkpt lat="44.9341883" lon="9.2173083"><ele>464.5</ele><time>2026-04-11T11:48:34.038Z</time></trkpt><trkpt lat="44.93428" lon="9.2172917"><ele>464.0</ele><time>2026-04-11T11:48:35.04Z</time></trkpt><trkpt lat="44.9343667" lon="9.2172767"><ele>463.5</ele><time>2026-04-11T11:48:36.03Z</time></trkpt><trkpt lat="44.93445" lon="9.2172583"><ele>463.0</ele><time>2026-04-11T11:48:37.034Z</time></trkpt><trkpt lat="44.93453" lon="9.2172233"><ele>462.5</ele><time>2026-04-11T11:48:38.04Z</time></trkpt><trkpt lat="44.9346117" lon="9.21717"><ele>462.0</ele><time>2026-04-11T11:48:39.041Z</time></trkpt><trkpt lat="44.9346933" lon="9.2170917"><ele>462.0</ele><time>2026-04-11T11:48:40.038Z</time></trkpt><trkpt lat="44.934785" lon="9.2170017"><ele>462.0</ele><time>2026-04-11T11:48:41.036Z</time></trkpt><trkpt lat="44.934885" lon="9.21692"><ele>462.0</ele><time>2026-04-11T11:48:42.034Z</time></trkpt><trkpt lat="44.9349867" lon="9.2168483"><ele>462.0</ele><time>2026-04-11T11:48:43.033Z</time></trkpt><trkpt lat="44.9350817" lon="9.2167667"><ele>462.6</ele><time>2026-04-11T11:48:44.032Z</time></trkpt><trkpt lat="44.9351633" lon="9.2166733"><ele>463.20000000000005</ele><time>2026-04-11T11:48:45.041Z</time></trkpt><trkpt lat="44.9352367" lon="9.2165817"><ele>463.8</ele><time>2026-04-11T11:48:46.04Z</time></trkpt><trkpt lat="44.9352983" lon="9.21648"><ele>464.4</ele><time>2026-04-11T11:48:47.039Z</time></trkpt><trkpt lat="44.9353417" lon="9.21636"><ele>465.0</ele><time>2026-04-11T11:48:48.042Z</time></trkpt><trkpt lat="44.9353833" lon="9.21624"><ele>463.8</ele><time>2026-04-11T11:48:49.038Z</time></trkpt><trkpt lat="44.935425" lon="9.21612"><ele>462.6</ele><time>2026-04-11T11:48:50.033Z</time></trkpt><trkpt lat="44.935475" lon="9.216045"><ele>461.4</ele><time>2026-04-11T11:48:51.031Z</time></trkpt><trkpt lat="44.9355983" lon="9.2160733"><ele>460.2</ele><time>2026-04-11T11:48:53.04Z</time></trkpt><trkpt lat="44.935675" lon="9.216095"><ele>459.0</ele><time>2026-04-11T11:48:54.032Z</time></trkpt><trkpt lat="44.9357633" lon="9.2161133"><ele>459.0</ele><time>2026-04-11T11:48:55.031Z</time></trkpt><trkpt lat="44.935845" lon="9.2161033"><ele>459.0</ele><time>2026-04-11T11:48:56.03Z</time></trkpt><trkpt lat="44.9359233" lon="9.2160717"><ele>459.0</ele><time>2026-04-11T11:48:57.031Z</time></trkpt><trkpt lat="44.936" lon="9.2160133"><ele>459.0</ele><time>2026-04-11T11:48:58.037Z</time></trkpt><trkpt lat="44.936075" lon="9.21595"><ele>459.0</ele><time>2026-04-11T11:48:59.032Z</time></trkpt><trkpt lat="44.9361517" lon="9.2158917"><ele>459.0</ele><time>2026-04-11T11:49:00.029Z</time></trkpt><trkpt lat="44.93622" lon="9.2158367"><ele>458.6666666666667</ele><time>2026-04-11T11:49:01.032Z</time></trkpt><trkpt lat="44.93627" lon="9.21577"><ele>458.33333333333337</ele><time>2026-04-11T11:49:02.03Z</time></trkpt><trkpt lat="44.9363117" lon="9.215675"><ele>458.0</ele><time>2026-04-11T11:49:03.035Z</time></trkpt><trkpt lat="44.9363367" lon="9.2155467"><ele>457.6666666666667</ele><time>2026-04-11T11:49:04.03Z</time></trkpt><trkpt lat="44.9363533" lon="9.2154267"><ele>457.33333333333337</ele><time>2026-04-11T11:49:05.039Z</time></trkpt><trkpt lat="44.9363667" lon="9.2153267"><ele>457.0</ele><time>2026-04-11T11:49:06.034Z</time></trkpt><trkpt lat="44.9363983" lon="9.2152417"><ele>457.0</ele><time>2026-04-11T11:49:07.037Z</time></trkpt><trkpt lat="44.9364433" lon="9.21515"><ele>457.00000000000006</ele><time>2026-04-11T11:49:08.04Z</time></trkpt><trkpt lat="44.936495" lon="9.215055"><ele>457.00000000000006</ele><time>2026-04-11T11:49:09.032Z</time></trkpt><trkpt lat="44.9365483" lon="9.2149467"><ele>457.0</ele><time>2026-04-11T11:49:10.033Z</time></trkpt><trkpt lat="44.9366067" lon="9.2148283"><ele>457.0</ele><time>2026-04-11T11:49:11.034Z</time></trkpt><trkpt lat="44.9366717" lon="9.2147233"><ele>456.6</ele><time>2026-04-11T11:49:12.033Z</time></trkpt><trkpt lat="44.9367433" lon="9.2146333"><ele>456.20000000000005</ele><time>2026-04-11T11:49:13.032Z</time></trkpt><trkpt lat="44.9368183" lon="9.2145567"><ele>455.8</ele><time>2026-04-11T11:49:14.029Z</time></trkpt><trkpt lat="44.9369033" lon="9.214485"><ele>455.4</ele><time>2026-04-11T11:49:15.032Z</time></trkpt><trkpt lat="44.9369883" lon="9.2144067"><ele>455.0</ele><time>2026-04-11T11:49:16.031Z</time></trkpt><trkpt lat="44.9370767" lon="9.2143217"><ele>455.0</ele><time>2026-04-11T11:49:17.032Z</time></trkpt><trkpt lat="44.9371683" lon="9.2142467"><ele>455.0</ele><time>2026-04-11T11:49:18.041Z</time></trkpt><trkpt lat="44.9372533" lon="9.2141783"><ele>455.0</ele><time>2026-04-11T11:49:19.04Z</time></trkpt><trkpt lat="44.9373317" lon="9.2141183"><ele>455.0</ele><time>2026-04-11T11:49:20.038Z</time></trkpt><trkpt lat="44.93741" lon="9.2140633"><ele>455.0</ele><time>2026-04-11T11:49:21.045Z</time></trkpt><trkpt lat="44.9374833" lon="9.2140017"><ele>455.2</ele><time>2026-04-11T11:49:22.031Z</time></trkpt><trkpt lat="44.9375583" lon="9.2139217"><ele>455.4</ele><time>2026-04-11T11:49:23.034Z</time></trkpt><trkpt lat="44.937645" lon="9.213825"><ele>455.6</ele><time>2026-04-11T11:49:24.032Z</time></trkpt><trkpt lat="44.9377267" lon="9.2137233"><ele>455.8</ele><time>2026-04-11T11:49:25.044Z</time></trkpt><trkpt lat="44.9378017" lon="9.2136333"><ele>456.0</ele><time>2026-04-11T11:49:26.036Z</time></trkpt><trkpt lat="44.9378783" lon="9.2135733"><ele>456.0</ele><time>2026-04-11T11:49:27.04Z</time></trkpt><trkpt lat="44.93796" lon="9.2135333"><ele>456.0</ele><time>2026-04-11T11:49:28.034Z</time></trkpt><trkpt lat="44.93804" lon="9.2135017"><ele>456.0</ele><time>2026-04-11T11:49:29.034Z</time></trkpt><trkpt lat="44.9381067" lon="9.21347"><ele>456.0</ele><time>2026-04-11T11:49:30.031Z</time></trkpt><trkpt lat="44.9381633" lon="9.21342"><ele>456.0</ele><time>2026-04-11T11:49:31.03Z</time></trkpt><trkpt lat="44.9382167" lon="9.2133417"><ele>456.0</ele><time>2026-04-11T11:49:32.031Z</time></trkpt><trkpt lat="44.9382717" lon="9.2132367"><ele>455.71428571428567</ele><time>2026-04-11T11:49:33.041Z</time></trkpt><trkpt lat="44.9383283" lon="9.21314"><ele>455.4285714285714</ele><time>2026-04-11T11:49:34.032Z</time></trkpt><trkpt lat="44.938385" lon="9.2130633"><ele>455.1428571428571</ele><time>2026-04-11T11:49:35.034Z</time></trkpt><trkpt lat="44.9384383" lon="9.2130083"><ele>454.8571428571429</ele><time>2026-04-11T11:49:36.034Z</time></trkpt><trkpt lat="44.938495" lon="9.2129533"><ele>454.5714285714286</ele><time>2026-04-11T11:49:37.036Z</time></trkpt><trkpt lat="44.93856" lon="9.2129"><ele>454.28571428571433</ele><time>2026-04-11T11:49:38.03Z</time></trkpt><trkpt lat="44.9386217" lon="9.2128483"><ele>454.0</ele><time>2026-04-11T11:49:39.031Z</time></trkpt><trkpt lat="44.93869" lon="9.2128083"><ele>455.50000000000006</ele><time>2026-04-11T11:49:40.034Z</time></trkpt><trkpt lat="44.9387517" lon="9.2127833"><ele>457.0</ele><time>2026-04-11T11:49:41.036Z</time></trkpt><trkpt lat="44.9388567" lon="9.212765"><ele>458.5</ele><time>2026-04-11T11:49:43.04Z</time></trkpt><trkpt lat="44.93895" lon="9.212775"><ele>460.0</ele><time>2026-04-11T11:49:45.039Z</time></trkpt><trkpt lat="44.9390233" lon="9.2127767"><ele>461.50000000000006</ele><time>2026-04-11T11:49:46.034Z</time></trkpt><trkpt lat="44.93911" lon="9.2127633"><ele>463.0</ele><time>2026-04-11T11:49:47.029Z</time></trkpt><trkpt lat="44.9391917" lon="9.21275"><ele>462.83333333333337</ele><time>2026-04-11T11:49:48.032Z</time></trkpt><trkpt lat="44.9392983" lon="9.212705"><ele>462.6666666666667</ele><time>2026-04-11T11:49:50.033Z</time></trkpt><trkpt lat="44.9393633" lon="9.2126733"><ele>462.5</ele><time>2026-04-11T11:49:52.032Z</time></trkpt><trkpt lat="44.9394567" lon="9.2126483"><ele>462.33333333333337</ele><time>2026-04-11T11:50:01.036Z</time></trkpt><trkpt lat="44.9395383" lon="9.2126167"><ele>462.1666666666667</ele><time>2026-04-11T11:50:04.037Z</time></trkpt><trkpt lat="44.9395967" lon="9.2125833"><ele>462.0</ele><time>2026-04-11T11:50:06.032Z</time></trkpt><trkpt lat="44.939665" lon="9.2125333"><ele>462.0</ele><time>2026-04-11T11:50:08.037Z</time></trkpt><trkpt lat="44.9397483" lon="9.2124717"><ele>462.00000000000006</ele><time>2026-04-11T11:50:10.036Z</time></trkpt><trkpt lat="44.9398183" lon="9.2124133"><ele>462.00000000000006</ele><time>2026-04-11T11:50:12.038Z</time></trkpt><trkpt lat="44.9397417" lon="9.212475"><ele>462.0</ele><time>2026-04-11T11:50:22.031Z</time></trkpt><trkpt lat="44.9396333" lon="9.21256"><ele>462.0</ele><time>2026-04-11T11:50:24.04Z</time></trkpt><trkpt lat="44.93957" lon="9.2125983"><ele>462.0</ele><time>2026-04-11T11:50:25.038Z</time></trkpt><trkpt lat="44.9395067" lon="9.2126383"><ele>462.0</ele><time>2026-04-11T11:50:26.041Z</time></trkpt><trkpt lat="44.9394433" lon="9.212685"><ele>462.0</ele><time>2026-04-11T11:50:27.037Z</time></trkpt><trkpt lat="44.9393867" lon="9.212735"><ele>462.0</ele><time>2026-04-11T11:50:28.04Z</time></trkpt><trkpt lat="44.9393183" lon="9.2128317"><ele>462.0</ele><time>2026-04-11T11:50:30.042Z</time></trkpt><trkpt lat="44.939325" lon="9.2129667"><ele>462.0</ele><time>2026-04-11T11:50:32.044Z</time></trkpt><trkpt lat="44.939345" lon="9.2130517"><ele>462.0</ele><time>2026-04-11T11:50:33.045Z</time></trkpt><trkpt lat="44.9393717" lon="9.2131433"><ele>462.0</ele><time>2026-04-11T11:50:34.038Z</time></trkpt><trkpt lat="44.9393983" lon="9.2132383"><ele>462.0</ele><time>2026-04-11T11:50:35.037Z</time></trkpt><trkpt lat="44.9394233" lon="9.213335"><ele>462.0</ele><time>2026-04-11T11:50:36.043Z</time></trkpt><trkpt lat="44.93945" lon="9.2134317"><ele>462.0</ele><time>2026-04-11T11:50:37.037Z</time></trkpt><trkpt lat="44.9394783" lon="9.2135383"><ele>462.0</ele><time>2026-04-11T11:50:38.037Z</time></trkpt><trkpt lat="44.9395083" lon="9.213655"><ele>459.8</ele><time>2026-04-11T11:50:39.035Z</time></trkpt><trkpt lat="44.9395433" lon="9.2137817"><ele>457.6</ele><time>2026-04-11T11:50:40.042Z</time></trkpt><trkpt lat="44.93958" lon="9.2139083"><ele>455.40000000000003</ele><time>2026-04-11T11:50:41.038Z</time></trkpt><trkpt lat="44.939615" lon="9.2140317"><ele>453.20000000000005</ele><time>2026-04-11T11:50:42.041Z</time></trkpt><trkpt lat="44.9396483" lon="9.2141533"><ele>451.0</ele><time>2026-04-11T11:50:43.038Z</time></trkpt><trkpt lat="44.9396783" lon="9.2142683"><ele>448.50000000000006</ele><time>2026-04-11T11:50:44.032Z</time></trkpt><trkpt lat="44.939705" lon="9.214375"><ele>446.0</ele><time>2026-04-11T11:50:45.042Z</time></trkpt><trkpt lat="44.9397317" lon="9.2144833"><ele>443.5</ele><time>2026-04-11T11:50:46.04Z</time></trkpt><trkpt lat="44.9397583" lon="9.2145933"><ele>441.0</ele><time>2026-04-11T11:50:47.032Z</time></trkpt><trkpt lat="44.9397833" lon="9.2147017"><ele>438.50000000000006</ele><time>2026-04-11T11:50:48.038Z</time></trkpt><trkpt lat="44.93981" lon="9.2148117"><ele>436.0</ele><time>2026-04-11T11:50:49.039Z</time></trkpt><trkpt lat="44.93984" lon="9.2149317"><ele>432.6</ele><time>2026-04-11T11:50:50.03Z</time></trkpt><trkpt lat="44.9398733" lon="9.2150533"><ele>429.20000000000005</ele><time>2026-04-11T11:50:51.038Z</time></trkpt><trkpt lat="44.9399067" lon="9.2151767"><ele>425.79999999999995</ele><time>2026-04-11T11:50:52.039Z</time></trkpt><trkpt lat="44.9399383" lon="9.2153017"><ele>422.4</ele><time>2026-04-11T11:50:53.038Z</time></trkpt><trkpt lat="44.9399717" lon="9.2154367"><ele>419.0</ele><time>2026-04-11T11:50:54.038Z</time></trkpt><trkpt lat="44.9400083" lon="9.215575"><ele>416.66666666666663</ele><time>2026-04-11T11:50:55.032Z</time></trkpt><trkpt lat="44.94004" lon="9.215705"><ele>414.3333333333333</ele><time>2026-04-11T11:50:56.031Z</time></trkpt><trkpt lat="44.9400667" lon="9.2158217"><ele>412.0</ele><time>2026-04-11T11:50:57.037Z</time></trkpt><trkpt lat="44.9400867" lon="9.2159083"><ele>409.66666666666663</ele><time>2026-04-11T11:50:58.03Z</time></trkpt><trkpt lat="44.94014" lon="9.2159683"><ele>407.3333333333333</ele><time>2026-04-11T11:51:00.033Z</time></trkpt><trkpt lat="44.9402317" lon="9.2159133"><ele>405.0</ele><time>2026-04-11T11:51:02.035Z</time></trkpt><trkpt lat="44.9402983" lon="9.2158683"><ele>403.0</ele><time>2026-04-11T11:51:03.041Z</time></trkpt><trkpt lat="44.9403733" lon="9.215815"><ele>401.0</ele><time>2026-04-11T11:51:04.032Z</time></trkpt><trkpt lat="44.940445" lon="9.2157683"><ele>399.0</ele><time>2026-04-11T11:51:05.036Z</time></trkpt><trkpt lat="44.940525" lon="9.2157317"><ele>397.0</ele><time>2026-04-11T11:51:06.034Z</time></trkpt><trkpt lat="44.940595" lon="9.2157183"><ele>395.0</ele><time>2026-04-11T11:51:07.037Z</time></trkpt><trkpt lat="44.940665" lon="9.2157317"><ele>393.0</ele><time>2026-04-11T11:51:08.038Z</time></trkpt><trkpt lat="44.9407283" lon="9.2157783"><ele>393.0</ele><time>2026-04-11T11:51:09.038Z</time></trkpt><trkpt lat="44.94079" lon="9.2158533"><ele>393.0</ele><time>2026-04-11T11:51:10.03Z</time></trkpt><trkpt lat="44.9408433" lon="9.2159267"><ele>393.0</ele><time>2026-04-11T11:51:11.03Z</time></trkpt><trkpt lat="44.9409033" lon="9.2159933"><ele>393.0</ele><time>2026-04-11T11:51:12.032Z</time></trkpt><trkpt lat="44.9409617" lon="9.216065"><ele>393.0</ele><time>2026-04-11T11:51:13.03Z</time></trkpt><trkpt lat="44.941025" lon="9.216155"><ele>393.0</ele><time>2026-04-11T11:51:14.039Z</time></trkpt><trkpt lat="44.9410817" lon="9.2162633"><ele>393.8333333333333</ele><time>2026-04-11T11:51:15.04Z</time></trkpt><trkpt lat="44.9411283" lon="9.216365"><ele>394.66666666666663</ele><time>2026-04-11T11:51:16.035Z</time></trkpt><trkpt lat="44.941165" lon="9.2164517"><ele>395.5</ele><time>2026-04-11T11:51:17.036Z</time></trkpt><trkpt lat="44.9412414" lon="9.2165923"><ele>396.3333333333333</ele><time>2026-04-11T11:51:19.037Z</time></trkpt><trkpt lat="44.9412927" lon="9.2166745"><ele>397.16666666666663</ele><time>2026-04-11T11:51:20.03Z</time></trkpt><trkpt lat="44.9413509" lon="9.2167487"><ele>398.0</ele><time>2026-04-11T11:51:21.037Z</time></trkpt><trkpt lat="44.9414219" lon="9.2167992"><ele>395.66666666666663</ele><time>2026-04-11T11:51:22.038Z</time></trkpt><trkpt lat="44.9415049" lon="9.216838"><ele>393.3333333333333</ele><time>2026-04-11T11:51:23.031Z</time></trkpt><trkpt lat="44.941585" lon="9.2168839"><ele>391.0</ele><time>2026-04-11T11:51:24.031Z</time></trkpt><trkpt lat="44.9416574" lon="9.2169497"><ele>388.66666666666663</ele><time>2026-04-11T11:51:25.04Z</time></trkpt><trkpt lat="44.9417201" lon="9.2170335"><ele>386.3333333333333</ele><time>2026-04-11T11:51:26.039Z</time></trkpt><trkpt lat="44.9417785" lon="9.2171207"><ele>384.0</ele><time>2026-04-11T11:51:27.032Z</time></trkpt><trkpt lat="44.9418326" lon="9.2171968"><ele>384.0</ele><time>2026-04-11T11:51:28.034Z</time></trkpt><trkpt lat="44.9418882" lon="9.217244"><ele>384.0</ele><time>2026-04-11T11:51:29.034Z</time></trkpt><trkpt lat="44.9419503" lon="9.2172588"><ele>384.0</ele><time>2026-04-11T11:51:30.037Z</time></trkpt><trkpt lat="44.9420326" lon="9.2172423"><ele>384.0</ele><time>2026-04-11T11:51:31.032Z</time></trkpt><trkpt lat="44.9421315" lon="9.2172133"><ele>384.0</ele><time>2026-04-11T11:51:32.038Z</time></trkpt><trkpt lat="44.9422372" lon="9.2171936"><ele>384.0</ele><time>2026-04-11T11:51:33.04Z</time></trkpt><trkpt lat="44.9423405" lon="9.2171899"><ele>384.0</ele><time>2026-04-11T11:51:34.032Z</time></trkpt><trkpt lat="44.9424403" lon="9.2171982"><ele>384.0</ele><time>2026-04-11T11:51:35.035Z</time></trkpt><trkpt lat="44.9425244" lon="9.2172035"><ele>384.0</ele><time>2026-04-11T11:51:36.038Z</time></trkpt><trkpt lat="44.9425991" lon="9.2171878"><ele>384.0</ele><time>2026-04-11T11:51:37.037Z</time></trkpt><trkpt lat="44.9426669" lon="9.2171487"><ele>384.0</ele><time>2026-04-11T11:51:38.037Z</time></trkpt><trkpt lat="44.9427392" lon="9.2171129"><ele>384.0</ele><time>2026-04-11T11:51:39.033Z</time></trkpt><trkpt lat="44.9428076" lon="9.2171052"><ele>383.0</ele><time>2026-04-11T11:51:40.033Z</time></trkpt><trkpt lat="44.9428709" lon="9.2171137"><ele>382.0</ele><time>2026-04-11T11:51:41.041Z</time></trkpt><trkpt lat="44.9429697" lon="9.2170952"><ele>381.0</ele><time>2026-04-11T11:51:43.039Z</time></trkpt><trkpt lat="44.9430666" lon="9.2169928"><ele>380.0</ele><time>2026-04-11T11:51:45.038Z</time></trkpt><trkpt lat="44.9431177" lon="9.2169228"><ele>379.0</ele><time>2026-04-11T11:51:46.038Z</time></trkpt><trkpt lat="44.9431637" lon="9.2168559"><ele>378.0</ele><time>2026-04-11T11:51:47.038Z</time></trkpt><trkpt lat="44.9432558" lon="9.2167879"><ele>378.0</ele><time>2026-04-11T11:51:49.036Z</time></trkpt><trkpt lat="44.9433798" lon="9.2168401"><ele>378.0</ele><time>2026-04-11T11:51:51.037Z</time></trkpt><trkpt lat="44.9434365" lon="9.2168982"><ele>378.0</ele><time>2026-04-11T11:51:52.04Z</time></trkpt><trkpt lat="44.9434862" lon="9.2169586"><ele>378.0</ele><time>2026-04-11T11:51:53.033Z</time></trkpt><trkpt lat="44.943555" lon="9.2170867"><ele>378.0</ele><time>2026-04-11T11:51:55.043Z</time></trkpt><trkpt lat="44.9436267" lon="9.2172283"><ele>375.8333333333333</ele><time>2026-04-11T11:51:57.041Z</time></trkpt><trkpt lat="44.9437283" lon="9.2173317"><ele>373.6666666666667</ele><time>2026-04-11T11:51:59.039Z</time></trkpt><trkpt lat="44.9438033" lon="9.2173667"><ele>371.5</ele><time>2026-04-11T11:52:00.032Z</time></trkpt><trkpt lat="44.943885" lon="9.2174033"><ele>369.33333333333337</ele><time>2026-04-11T11:52:01.034Z</time></trkpt><trkpt lat="44.943955" lon="9.2174417"><ele>367.1666666666667</ele><time>2026-04-11T11:52:02.035Z</time></trkpt><trkpt lat="44.94402" lon="9.2174633"><ele>365.0</ele><time>2026-04-11T11:52:03.033Z</time></trkpt><trkpt lat="44.9441333" lon="9.2174417"><ele>365.0</ele><time>2026-04-11T11:52:05.036Z</time></trkpt><trkpt lat="44.9441983" lon="9.217405"><ele>365.0</ele><time>2026-04-11T11:52:06.035Z</time></trkpt><trkpt lat="44.9442733" lon="9.217375"><ele>365.0</ele><time>2026-04-11T11:52:07.038Z</time></trkpt><trkpt lat="44.94435" lon="9.2173733"><ele>365.0</ele><time>2026-04-11T11:52:08.036Z</time></trkpt><trkpt lat="44.9444317" lon="9.2174"><ele>365.0</ele><time>2026-04-11T11:52:09.039Z</time></trkpt><trkpt lat="44.94451" lon="9.21745"><ele>365.0</ele><time>2026-04-11T11:52:10.03Z</time></trkpt><trkpt lat="44.9445883" lon="9.2175"><ele>365.6</ele><time>2026-04-11T11:52:11.03Z</time></trkpt><trkpt lat="44.9446717" lon="9.2175533"><ele>366.2</ele><time>2026-04-11T11:52:12.032Z</time></trkpt><trkpt lat="44.9447633" lon="9.217615"><ele>366.79999999999995</ele><time>2026-04-11T11:52:13.03Z</time></trkpt><trkpt lat="44.9448517" lon="9.2176667"><ele>367.4</ele><time>2026-04-11T11:52:14.029Z</time></trkpt><trkpt lat="44.94494" lon="9.2177"><ele>368.0</ele><time>2026-04-11T11:52:15.045Z</time></trkpt><trkpt lat="44.945015" lon="9.2177133"><ele>366.59999999999997</ele><time>2026-04-11T11:52:16.038Z</time></trkpt><trkpt lat="44.9451167" lon="9.2176717"><ele>365.2</ele><time>2026-04-11T11:52:18.038Z</time></trkpt><trkpt lat="44.9451617" lon="9.2175967"><ele>363.8</ele><time>2026-04-11T11:52:19.037Z</time></trkpt><trkpt lat="44.945215" lon="9.2174933"><ele>362.4</ele><time>2026-04-11T11:52:20.043Z</time></trkpt><trkpt lat="44.9452733" lon="9.217365"><ele>361.0</ele><time>2026-04-11T11:52:21.036Z</time></trkpt><trkpt lat="44.9453433" lon="9.217265"><ele>361.0</ele><time>2026-04-11T11:52:22.036Z</time></trkpt><trkpt lat="44.9454167" lon="9.217185"><ele>361.0</ele><time>2026-04-11T11:52:23.033Z</time></trkpt><trkpt lat="44.9454983" lon="9.217115"><ele>361.0</ele><time>2026-04-11T11:52:24.035Z</time></trkpt><trkpt lat="44.945585" lon="9.2170583"><ele>361.0</ele><time>2026-04-11T11:52:25.043Z</time></trkpt><trkpt lat="44.945665" lon="9.2170017"><ele>361.0</ele><time>2026-04-11T11:52:26.029Z</time></trkpt><trkpt lat="44.9457417" lon="9.2169317"><ele>361.0</ele><time>2026-04-11T11:52:27.034Z</time></trkpt><trkpt lat="44.945815" lon="9.2168433"><ele>361.0</ele><time>2026-04-11T11:52:28.039Z</time></trkpt><trkpt lat="44.9458983" lon="9.216755"><ele>361.0</ele><time>2026-04-11T11:52:29.031Z</time></trkpt><trkpt lat="44.945985" lon="9.21669"><ele>361.0</ele><time>2026-04-11T11:52:30.034Z</time></trkpt><trkpt lat="44.9460717" lon="9.216655"><ele>361.0</ele><time>2026-04-11T11:52:31.036Z</time></trkpt><trkpt lat="44.946155" lon="9.21663"><ele>358.6</ele><time>2026-04-11T11:52:32.038Z</time></trkpt><trkpt lat="44.9462367" lon="9.216605"><ele>356.20000000000005</ele><time>2026-04-11T11:52:33.041Z</time></trkpt><trkpt lat="44.94633" lon="9.21658"><ele>353.79999999999995</ele><time>2026-04-11T11:52:34.038Z</time></trkpt><trkpt lat="44.9464317" lon="9.2165517"><ele>351.4</ele><time>2026-04-11T11:52:35.036Z</time></trkpt><trkpt lat="44.94653" lon="9.2165267"><ele>349.0</ele><time>2026-04-11T11:52:36.04Z</time></trkpt><trkpt lat="44.9466217" lon="9.21651"><ele>349.0</ele><time>2026-04-11T11:52:37.038Z</time></trkpt><trkpt lat="44.9467017" lon="9.2165017"><ele>349.0</ele><time>2026-04-11T11:52:38.038Z</time></trkpt><trkpt lat="44.9467817" lon="9.2165"><ele>349.0</ele><time>2026-04-11T11:52:39.042Z</time></trkpt><trkpt lat="44.9468633" lon="9.2165067"><ele>349.0</ele><time>2026-04-11T11:52:40.038Z</time></trkpt><trkpt lat="44.9469467" lon="9.21653"><ele>349.0</ele><time>2026-04-11T11:52:41.037Z</time></trkpt><trkpt lat="44.9470233" lon="9.216565"><ele>349.0</ele><time>2026-04-11T11:52:42.033Z</time></trkpt><trkpt lat="44.947095" lon="9.21662"><ele>347.6</ele><time>2026-04-11T11:52:43.03Z</time></trkpt><trkpt lat="44.94716" lon="9.2166917"><ele>346.2</ele><time>2026-04-11T11:52:44.031Z</time></trkpt><trkpt lat="44.947235" lon="9.2167783"><ele>344.8</ele><time>2026-04-11T11:52:45.043Z</time></trkpt><trkpt lat="44.947315" lon="9.2168617"><ele>343.40000000000003</ele><time>2026-04-11T11:52:46.039Z</time></trkpt><trkpt lat="44.9473917" lon="9.2169367"><ele>342.0</ele><time>2026-04-11T11:52:47.036Z</time></trkpt><trkpt lat="44.9474717" lon="9.2170117"><ele>339.6</ele><time>2026-04-11T11:52:48.038Z</time></trkpt><trkpt lat="44.9475633" lon="9.2170867"><ele>337.20000000000005</ele><time>2026-04-11T11:52:49.041Z</time></trkpt><trkpt lat="44.9476583" lon="9.21716"><ele>334.8</ele><time>2026-04-11T11:52:50.038Z</time></trkpt><trkpt lat="44.94776" lon="9.2172267"><ele>332.4</ele><time>2026-04-11T11:52:51.037Z</time></trkpt><trkpt lat="44.9478583" lon="9.21728"><ele>330.0</ele><time>2026-04-11T11:52:52.037Z</time></trkpt><trkpt lat="44.9479533" lon="9.2173217"><ele>330.0</ele><time>2026-04-11T11:52:53.037Z</time></trkpt><trkpt lat="44.948035" lon="9.2173567"><ele>330.0</ele><time>2026-04-11T11:52:54.032Z</time></trkpt><trkpt lat="44.9480967" lon="9.2173867"><ele>330.0</ele><time>2026-04-11T11:52:55.038Z</time></trkpt><trkpt lat="44.9481733" lon="9.217465"><ele>330.0</ele><time>2026-04-11T11:52:57.042Z</time></trkpt><trkpt lat="44.948245" lon="9.2175367"><ele>330.0</ele><time>2026-04-11T11:52:59.039Z</time></trkpt><trkpt lat="44.9482917" lon="9.2176233"><ele>330.0</ele><time>2026-04-11T11:53:01.038Z</time></trkpt><trkpt lat="44.9482733" lon="9.2177617"><ele>330.00000000000006</ele><time>2026-04-11T11:53:03.044Z</time></trkpt><trkpt lat="44.9482467" lon="9.2178433"><ele>330.0</ele><time>2026-04-11T11:53:04.035Z</time></trkpt><trkpt lat="44.9482167" lon="9.2179267"><ele>330.0</ele><time>2026-04-11T11:53:05.039Z</time></trkpt><trkpt lat="44.9481883" lon="9.2180133"><ele>330.0</ele><time>2026-04-11T11:53:06.036Z</time></trkpt><trkpt lat="44.9481633" lon="9.2180967"><ele>330.0</ele><time>2026-04-11T11:53:07.04Z</time></trkpt><trkpt lat="44.9481383" lon="9.2181867"><ele>330.00000000000006</ele><time>2026-04-11T11:53:08.037Z</time></trkpt><trkpt lat="44.9481117" lon="9.2182817"><ele>330.0</ele><time>2026-04-11T11:53:09.041Z</time></trkpt><trkpt lat="44.948085" lon="9.2183817"><ele>328.0</ele><time>2026-04-11T11:53:10.034Z</time></trkpt><trkpt lat="44.9480567" lon="9.21848"><ele>326.0</ele><time>2026-04-11T11:53:11.04Z</time></trkpt><trkpt lat="44.948025" lon="9.218575"><ele>324.0</ele><time>2026-04-11T11:53:12.04Z</time></trkpt><trkpt lat="44.947985" lon="9.2186683"><ele>322.0</ele><time>2026-04-11T11:53:13.031Z</time></trkpt><trkpt lat="44.9479333" lon="9.2187467"><ele>320.0</ele><time>2026-04-11T11:53:14.031Z</time></trkpt><trkpt lat="44.9478733" lon="9.2188167"><ele>318.0</ele><time>2026-04-11T11:53:15.033Z</time></trkpt><trkpt lat="44.947815" lon="9.21888"><ele>318.0</ele><time>2026-04-11T11:53:16.033Z</time></trkpt><trkpt lat="44.9477533" lon="9.218935"><ele>318.0</ele><time>2026-04-11T11:53:17.037Z</time></trkpt><trkpt lat="44.94769" lon="9.2189883"><ele>318.0</ele><time>2026-04-11T11:53:18.033Z</time></trkpt><trkpt lat="44.9476283" lon="9.2190383"><ele>318.0</ele><time>2026-04-11T11:53:19.031Z</time></trkpt><trkpt lat="44.947545" lon="9.219115"><ele>318.0</ele><time>2026-04-11T11:53:21.039Z</time></trkpt><trkpt lat="44.9475383" lon="9.21921"><ele>318.0</ele><time>2026-04-11T11:53:24.04Z</time></trkpt><trkpt lat="44.947595" lon="9.219295"><ele>315.1666666666667</ele><time>2026-04-11T11:53:27.042Z</time></trkpt><trkpt lat="44.947685" lon="9.2193083"><ele>312.3333333333333</ele><time>2026-04-11T11:53:30.038Z</time></trkpt><trkpt lat="44.947735" lon="9.2193717"><ele>309.5</ele><time>2026-04-11T11:53:32.039Z</time></trkpt><trkpt lat="44.9477867" lon="9.2194667"><ele>306.66666666666663</ele><time>2026-04-11T11:53:34.037Z</time></trkpt><trkpt lat="44.9478567" lon="9.2196067"><ele>303.8333333333333</ele><time>2026-04-11T11:53:36.039Z</time></trkpt><trkpt lat="44.9479" lon="9.2196933"><ele>301.0</ele><time>2026-04-11T11:53:37.037Z</time></trkpt><trkpt lat="44.9479517" lon="9.2197867"><ele>298.2</ele><time>2026-04-11T11:53:38.039Z</time></trkpt><trkpt lat="44.9480117" lon="9.2198883"><ele>295.40000000000003</ele><time>2026-04-11T11:53:39.036Z</time></trkpt><trkpt lat="44.9480783" lon="9.2199983"><ele>292.6</ele><time>2026-04-11T11:53:40.038Z</time></trkpt><trkpt lat="44.9481483" lon="9.2201117"><ele>289.8</ele><time>2026-04-11T11:53:41.033Z</time></trkpt><trkpt lat="44.9482233" lon="9.22022"><ele>287.0</ele><time>2026-04-11T11:53:42.03Z</time></trkpt><trkpt lat="44.9482983" lon="9.220325"><ele>287.0</ele><time>2026-04-11T11:53:43.032Z</time></trkpt><trkpt lat="44.948375" lon="9.220435"><ele>287.0</ele><time>2026-04-11T11:53:44.033Z</time></trkpt><trkpt lat="44.9484467" lon="9.220535"><ele>287.0</ele><time>2026-04-11T11:53:45.043Z</time></trkpt><trkpt lat="44.9485067" lon="9.2206283"><ele>287.0</ele><time>2026-04-11T11:53:46.037Z</time></trkpt><trkpt lat="44.948555" lon="9.2207317"><ele>287.0</ele><time>2026-04-11T11:53:47.039Z</time></trkpt><trkpt lat="44.9485983" lon="9.2208433"><ele>282.6</ele><time>2026-04-11T11:53:48.038Z</time></trkpt><trkpt lat="44.9486483" lon="9.2209467"><ele>278.2</ele><time>2026-04-11T11:53:49.037Z</time></trkpt><trkpt lat="44.94871" lon="9.22104"><ele>273.8</ele><time>2026-04-11T11:53:50.037Z</time></trkpt><trkpt lat="44.9487817" lon="9.221115"><ele>269.4</ele><time>2026-04-11T11:53:51.03Z</time></trkpt><trkpt lat="44.9488667" lon="9.2211867"><ele>265.0</ele><time>2026-04-11T11:53:52.04Z</time></trkpt><trkpt lat="44.9489617" lon="9.2212517"><ele>265.0</ele><time>2026-04-11T11:53:53.035Z</time></trkpt><trkpt lat="44.9490633" lon="9.2213133"><ele>265.0</ele><time>2026-04-11T11:53:54.036Z</time></trkpt><trkpt lat="44.9491517" lon="9.22136"><ele>265.0</ele><time>2026-04-11T11:53:55.041Z</time></trkpt><trkpt lat="44.9492367" lon="9.2213917"><ele>265.0</ele><time>2026-04-11T11:53:56.034Z</time></trkpt><trkpt lat="44.9493133" lon="9.2213933"><ele>265.0</ele><time>2026-04-11T11:53:57.042Z</time></trkpt><trkpt lat="44.9493767" lon="9.2213533"><ele>265.0</ele><time>2026-04-11T11:53:58.038Z</time></trkpt><trkpt lat="44.9494317" lon="9.2212767"><ele>262.6</ele><time>2026-04-11T11:53:59.034Z</time></trkpt><trkpt lat="44.9494883" lon="9.2211867"><ele>260.2</ele><time>2026-04-11T11:54:00.039Z</time></trkpt><trkpt lat="44.9495567" lon="9.2211167"><ele>257.8</ele><time>2026-04-11T11:54:01.037Z</time></trkpt><trkpt lat="44.9496517" lon="9.221075"><ele>255.4</ele><time>2026-04-11T11:54:02.042Z</time></trkpt><trkpt lat="44.94977" lon="9.2210583"><ele>253.0</ele><time>2026-04-11T11:54:03.043Z</time></trkpt><trkpt lat="44.9498933" lon="9.2210633"><ele>253.0</ele><time>2026-04-11T11:54:04.038Z</time></trkpt><trkpt lat="44.9500183" lon="9.2210783"><ele>253.0</ele><time>2026-04-11T11:54:05.04Z</time></trkpt><trkpt lat="44.9501467" lon="9.2210867"><ele>253.0</ele><time>2026-04-11T11:54:06.037Z</time></trkpt><trkpt lat="44.9502783" lon="9.2210883"><ele>253.0</ele><time>2026-04-11T11:54:07.031Z</time></trkpt><trkpt lat="44.95041" lon="9.2210867"><ele>250.0</ele><time>2026-04-11T11:54:08.037Z</time></trkpt><trkpt lat="44.95054" lon="9.22108"><ele>247.0</ele><time>2026-04-11T11:54:09.041Z</time></trkpt><trkpt lat="44.95067" lon="9.2210667"><ele>244.0</ele><time>2026-04-11T11:54:10.038Z</time></trkpt><trkpt lat="44.9508033" lon="9.22104"><ele>241.0</ele><time>2026-04-11T11:54:11.029Z</time></trkpt><trkpt lat="44.95093" lon="9.2210017"><ele>238.25</ele><time>2026-04-11T11:54:12.036Z</time></trkpt><trkpt lat="44.9510467" lon="9.2209583"><ele>235.5</ele><time>2026-04-11T11:54:13.034Z</time></trkpt><trkpt lat="44.951155" lon="9.220925"><ele>232.75</ele><time>2026-04-11T11:54:14.03Z</time></trkpt><trkpt lat="44.95126" lon="9.2209167"><ele>230.0</ele><time>2026-04-11T11:54:15.034Z</time></trkpt><trkpt lat="44.9513733" lon="9.2209483"><ele>230.0</ele><time>2026-04-11T11:54:16.033Z</time></trkpt><trkpt lat="44.9514833" lon="9.2210167"><ele>230.0</ele><time>2026-04-11T11:54:17.031Z</time></trkpt><trkpt lat="44.9515917" lon="9.2210983"><ele>230.0</ele><time>2026-04-11T11:54:18.033Z</time></trkpt><trkpt lat="44.95169" lon="9.2211667"><ele>230.0</ele><time>2026-04-11T11:54:19.034Z</time></trkpt><trkpt lat="44.9517733" lon="9.2212283"><ele>230.0</ele><time>2026-04-11T11:54:20.035Z</time></trkpt><trkpt lat="44.9518383" lon="9.2212933"><ele>230.16666666666669</ele><time>2026-04-11T11:54:21.037Z</time></trkpt><trkpt lat="44.95187" lon="9.22138"><ele>230.33333333333334</ele><time>2026-04-11T11:54:22.038Z</time></trkpt><trkpt lat="44.9518633" lon="9.221485"><ele>230.5</ele><time>2026-04-11T11:54:23.03Z</time></trkpt><trkpt lat="44.9518283" lon="9.221605"><ele>230.66666666666669</ele><time>2026-04-11T11:54:24.039Z</time></trkpt><trkpt lat="44.9517833" lon="9.2217267"><ele>230.83333333333334</ele><time>2026-04-11T11:54:25.035Z</time></trkpt><trkpt lat="44.9517333" lon="9.2218567"><ele>231.0</ele><time>2026-04-11T11:54:26.039Z</time></trkpt><trkpt lat="44.9516867" lon="9.221995"><ele>230.25</ele><time>2026-04-11T11:54:27.038Z</time></trkpt><trkpt lat="44.95165" lon="9.2221533"><ele>229.5</ele><time>2026-04-11T11:54:28.041Z</time></trkpt><trkpt lat="44.9516183" lon="9.2223283"><ele>228.75</ele><time>2026-04-11T11:54:29.041Z</time></trkpt><trkpt lat="44.9515767" lon="9.2225067"><ele>228.0</ele><time>2026-04-11T11:54:30.04Z</time></trkpt><trkpt lat="44.9515233" lon="9.2226767"><ele>228.0</ele><time>2026-04-11T11:54:31.039Z</time></trkpt><trkpt lat="44.9514617" lon="9.222835"><ele>228.0</ele><time>2026-04-11T11:54:32.038Z</time></trkpt><trkpt lat="44.9514033" lon="9.22298"><ele>228.0</ele><time>2026-04-11T11:54:33.039Z</time></trkpt><trkpt lat="44.9513533" lon="9.2231217"><ele>228.0</ele><time>2026-04-11T11:54:34.038Z</time></trkpt><trkpt lat="44.9513267" lon="9.223255"><ele>228.33333333333334</ele><time>2026-04-11T11:54:35.039Z</time></trkpt><trkpt lat="44.9513267" lon="9.2233767"><ele>228.66666666666669</ele><time>2026-04-11T11:54:36.037Z</time></trkpt><trkpt lat="44.9513433" lon="9.223485"><ele>229.0</ele><time>2026-04-11T11:54:37.039Z</time></trkpt><trkpt lat="44.95137" lon="9.2235767"><ele>229.33333333333334</ele><time>2026-04-11T11:54:38.034Z</time></trkpt><trkpt lat="44.9514483" lon="9.2236433"><ele>229.66666666666669</ele><time>2026-04-11T11:54:40.037Z</time></trkpt><trkpt lat="44.9515433" lon="9.2235933"><ele>230.0</ele><time>2026-04-11T11:54:42.037Z</time></trkpt><trkpt lat="44.9516083" lon="9.22355"><ele>230.0</ele><time>2026-04-11T11:54:43.035Z</time></trkpt><trkpt lat="44.9516883" lon="9.223495"><ele>230.0</ele><time>2026-04-11T11:54:44.037Z</time></trkpt><trkpt lat="44.9517817" lon="9.2234333"><ele>230.0</ele><time>2026-04-11T11:54:45.038Z</time></trkpt><trkpt lat="44.95188" lon="9.2233667"><ele>230.0</ele><time>2026-04-11T11:54:46.036Z</time></trkpt><trkpt lat="44.95198" lon="9.2232883"><ele>230.0</ele><time>2026-04-11T11:54:47.035Z</time></trkpt><trkpt lat="44.9520783" lon="9.223205"><ele>230.83333333333334</ele><time>2026-04-11T11:54:48.035Z</time></trkpt><trkpt lat="44.95217" lon="9.2231267"><ele>231.66666666666669</ele><time>2026-04-11T11:54:49.038Z</time></trkpt><trkpt lat="44.9522533" lon="9.22306"><ele>232.5</ele><time>2026-04-11T11:54:50.036Z</time></trkpt><trkpt lat="44.9523333" lon="9.2230233"><ele>233.33333333333331</ele><time>2026-04-11T11:54:51.037Z</time></trkpt><trkpt lat="44.9524017" lon="9.2230267"><ele>234.16666666666666</ele><time>2026-04-11T11:54:52.038Z</time></trkpt><trkpt lat="44.95247" lon="9.2230533"><ele>235.0</ele><time>2026-04-11T11:54:53.035Z</time></trkpt><trkpt lat="44.9525367" lon="9.2230917"><ele>237.99999999999997</ele><time>2026-04-11T11:54:54.038Z</time></trkpt><trkpt lat="44.9525967" lon="9.2231383"><ele>241.0</ele><time>2026-04-11T11:54:55.032Z</time></trkpt><trkpt lat="44.9526633" lon="9.223175"><ele>244.0</ele><time>2026-04-11T11:54:56.037Z</time></trkpt><trkpt lat="44.9527383" lon="9.223215"><ele>247.0</ele><time>2026-04-11T11:54:57.038Z</time></trkpt><trkpt lat="44.9528317" lon="9.22326"><ele>249.99999999999997</ele><time>2026-04-11T11:54:58.038Z</time></trkpt><trkpt lat="44.95294" lon="9.223315"><ele>253.0</ele><time>2026-04-11T11:54:59.041Z</time></trkpt><trkpt lat="44.9530583" lon="9.223375"><ele>253.5</ele><time>2026-04-11T11:55:00.031Z</time></trkpt><trkpt lat="44.9531817" lon="9.2234367"><ele>254.0</ele><time>2026-04-11T11:55:01.035Z</time></trkpt><trkpt lat="44.95331" lon="9.2235"><ele>254.5</ele><time>2026-04-11T11:55:02.039Z</time></trkpt><trkpt lat="44.9534433" lon="9.2235667"><ele>255.0</ele><time>2026-04-11T11:55:03.037Z</time></trkpt><trkpt lat="44.953575" lon="9.22363"><ele>258.6</ele><time>2026-04-11T11:55:04.042Z</time></trkpt><trkpt lat="44.95369" lon="9.2236817"><ele>262.2</ele><time>2026-04-11T11:55:05.037Z</time></trkpt><trkpt lat="44.953785" lon="9.2237267"><ele>265.8</ele><time>2026-04-11T11:55:06.041Z</time></trkpt><trkpt lat="44.953865" lon="9.223765"><ele>269.4</ele><time>2026-04-11T11:55:07.033Z</time></trkpt><trkpt lat="44.9539317" lon="9.2237833"><ele>273.0</ele><time>2026-04-11T11:55:08.038Z</time></trkpt><trkpt lat="44.9540183" lon="9.223735"><ele>273.0</ele><time>2026-04-11T11:55:10.035Z</time></trkpt><trkpt lat="44.9540483" lon="9.2236417"><ele>273.0</ele><time>2026-04-11T11:55:11.037Z</time></trkpt><trkpt lat="44.9540833" lon="9.2235083"><ele>273.0</ele><time>2026-04-11T11:55:12.037Z</time></trkpt><trkpt lat="44.95412" lon="9.2233633"><ele>273.0</ele><time>2026-04-11T11:55:13.038Z</time></trkpt><trkpt lat="44.95416" lon="9.2232217"><ele>273.0</ele><time>2026-04-11T11:55:14.039Z</time></trkpt><trkpt lat="44.9541983" lon="9.2230883"><ele>273.8</ele><time>2026-04-11T11:55:15.037Z</time></trkpt><trkpt lat="44.9542383" lon="9.222975"><ele>274.6</ele><time>2026-04-11T11:55:16.038Z</time></trkpt><trkpt lat="44.95429" lon="9.2228717"><ele>275.4</ele><time>2026-04-11T11:55:17.032Z</time></trkpt><trkpt lat="44.9543517" lon="9.2227783"><ele>276.2</ele><time>2026-04-11T11:55:18.041Z</time></trkpt><trkpt lat="44.9544283" lon="9.2226967"><ele>277.0</ele><time>2026-04-11T11:55:19.038Z</time></trkpt><trkpt lat="44.954505" lon="9.2226467"><ele>277.0</ele><time>2026-04-11T11:55:20.038Z</time></trkpt><trkpt lat="44.9545783" lon="9.22263"><ele>277.0</ele><time>2026-04-11T11:55:21.032Z</time></trkpt><trkpt lat="44.9546583" lon="9.222645"><ele>277.0</ele><time>2026-04-11T11:55:22.037Z</time></trkpt><trkpt lat="44.9547433" lon="9.2226833"><ele>277.0</ele><time>2026-04-11T11:55:23.037Z</time></trkpt><trkpt lat="44.9548283" lon="9.2227483"><ele>277.0</ele><time>2026-04-11T11:55:24.033Z</time></trkpt><trkpt lat="44.954915" lon="9.2228367"><ele>277.0</ele><time>2026-04-11T11:55:25.038Z</time></trkpt><trkpt lat="44.9550017" lon="9.2229317"><ele>278.0</ele><time>2026-04-11T11:55:26.041Z</time></trkpt><trkpt lat="44.9550733" lon="9.2230183"><ele>279.0</ele><time>2026-04-11T11:55:27.039Z</time></trkpt><trkpt lat="44.9551233" lon="9.2231033"><ele>280.0</ele><time>2026-04-11T11:55:28.039Z</time></trkpt><trkpt lat="44.955145" lon="9.2231983"><ele>281.0</ele><time>2026-04-11T11:55:29.034Z</time></trkpt><trkpt lat="44.9551383" lon="9.2233"><ele>282.0</ele><time>2026-04-11T11:55:30.037Z</time></trkpt><trkpt lat="44.9551167" lon="9.2234167"><ele>283.0</ele><time>2026-04-11T11:55:31.04Z</time></trkpt><trkpt lat="44.9550967" lon="9.2235467"><ele>284.66666666666663</ele><time>2026-04-11T11:55:32.036Z</time></trkpt><trkpt lat="44.9550883" lon="9.2236817"><ele>286.3333333333333</ele><time>2026-04-11T11:55:33.042Z</time></trkpt><trkpt lat="44.9550733" lon="9.223805"><ele>288.0</ele><time>2026-04-11T11:55:34.037Z</time></trkpt><trkpt lat="44.9550383" lon="9.2239083"><ele>289.6666666666667</ele><time>2026-04-11T11:55:35.039Z</time></trkpt><trkpt lat="44.9549783" lon="9.2239983"><ele>291.33333333333337</ele><time>2026-04-11T11:55:36.037Z</time></trkpt><trkpt lat="44.9549083" lon="9.22407"><ele>293.0</ele><time>2026-04-11T11:55:37.038Z</time></trkpt><trkpt lat="44.9548383" lon="9.224125"><ele>293.1428571428571</ele><time>2026-04-11T11:55:38.037Z</time></trkpt><trkpt lat="44.95478" lon="9.2241633"><ele>293.2857142857143</ele><time>2026-04-11T11:55:39.038Z</time></trkpt><trkpt lat="44.9547033" lon="9.224215"><ele>293.42857142857144</ele><time>2026-04-11T11:55:41.038Z</time></trkpt><trkpt lat="44.9546467" lon="9.22426"><ele>293.57142857142856</ele><time>2026-04-11T11:55:43.035Z</time></trkpt><trkpt lat="44.9545783" lon="9.2243333"><ele>293.7142857142857</ele><time>2026-04-11T11:55:46.041Z</time></trkpt><trkpt lat="44.9545317" lon="9.22442"><ele>293.85714285714283</ele><time>2026-04-11T11:55:49.037Z</time></trkpt><trkpt lat="44.954515" lon="9.2245117"><ele>294.0</ele><time>2026-04-11T11:55:52.036Z</time></trkpt><trkpt lat="44.9545217" lon="9.22462"><ele>294.0</ele><time>2026-04-11T11:55:55.036Z</time></trkpt><trkpt lat="44.9545117" lon="9.22473"><ele>294.0</ele><time>2026-04-11T11:55:58.037Z</time></trkpt><trkpt lat="44.95449" lon="9.2248367"><ele>294.0</ele><time>2026-04-11T11:56:01.035Z</time></trkpt><trkpt lat="44.9544783" lon="9.2249617"><ele>294.0</ele><time>2026-04-11T11:56:04.035Z</time></trkpt><trkpt lat="44.954465" lon="9.2250733"><ele>294.0</ele><time>2026-04-11T11:56:06.031Z</time></trkpt><trkpt lat="44.9544533" lon="9.2251633"><ele>294.0</ele><time>2026-04-11T11:56:08.035Z</time></trkpt><trkpt lat="44.9544617" lon="9.2252817"><ele>295.8333333333333</ele><time>2026-04-11T11:56:11.035Z</time></trkpt><trkpt lat="44.9544917" lon="9.2253833"><ele>297.6666666666667</ele><time>2026-04-11T11:56:14.034Z</time></trkpt><trkpt lat="44.954555" lon="9.2254467"><ele>299.5</ele><time>2026-04-11T11:56:17.035Z</time></trkpt><trkpt lat="44.954635" lon="9.2254733"><ele>301.33333333333337</ele><time>2026-04-11T11:56:20.037Z</time></trkpt><trkpt lat="44.9547033" lon="9.2254867"><ele>303.1666666666667</ele><time>2026-04-11T11:56:23.04Z</time></trkpt><trkpt lat="44.95478" lon="9.2254683"><ele>305.0</ele><time>2026-04-11T11:56:26.036Z</time></trkpt><trkpt lat="44.9548683" lon="9.225425"><ele>305.0</ele><time>2026-04-11T11:56:29.03Z</time></trkpt><trkpt lat="44.9549533" lon="9.2254333"><ele>305.0</ele><time>2026-04-11T11:56:31.036Z</time></trkpt><trkpt lat="44.9550367" lon="9.225425"><ele>305.0</ele><time>2026-04-11T11:56:33.04Z</time></trkpt><trkpt lat="44.9551367" lon="9.2253333"><ele>305.0</ele><time>2026-04-11T11:56:35.037Z</time></trkpt><trkpt lat="44.9551983" lon="9.22528"><ele>305.0</ele><time>2026-04-11T11:56:36.036Z</time></trkpt><trkpt lat="44.9552633" lon="9.2252267"><ele>305.0</ele><time>2026-04-11T11:56:37.032Z</time></trkpt><trkpt lat="44.95533" lon="9.2251717"><ele>306.0</ele><time>2026-04-11T11:56:38.04Z</time></trkpt><trkpt lat="44.9554133" lon="9.2251433"><ele>307.0</ele><time>2026-04-11T11:56:39.034Z</time></trkpt><trkpt lat="44.9555" lon="9.2251517"><ele>308.0</ele><time>2026-04-11T11:56:40.029Z</time></trkpt><trkpt lat="44.9555967" lon="9.2251917"><ele>309.0</ele><time>2026-04-11T11:56:41.03Z</time></trkpt><trkpt lat="44.955705" lon="9.2252483"><ele>310.0</ele><time>2026-04-11T11:56:42.03Z</time></trkpt><trkpt lat="44.9558167" lon="9.2253083"><ele>310.5</ele><time>2026-04-11T11:56:43.032Z</time></trkpt><trkpt lat="44.955935" lon="9.2253667"><ele>311.0</ele><time>2026-04-11T11:56:44.03Z</time></trkpt><trkpt lat="44.9560533" lon="9.2254233"><ele>311.5</ele><time>2026-04-11T11:56:45.031Z</time></trkpt><trkpt lat="44.956175" lon="9.22549"><ele>312.0</ele><time>2026-04-11T11:56:46.034Z</time></trkpt><trkpt lat="44.9562983" lon="9.2255633"><ele>312.0</ele><time>2026-04-11T11:56:47.032Z</time></trkpt><trkpt lat="44.9564217" lon="9.225635"><ele>312.0</ele><time>2026-04-11T11:56:48.033Z</time></trkpt><trkpt lat="44.956535" lon="9.2256983"><ele>312.0</ele><time>2026-04-11T11:56:49.032Z</time></trkpt><trkpt lat="44.9566433" lon="9.2257533"><ele>312.0</ele><time>2026-04-11T11:56:50.037Z</time></trkpt><trkpt lat="44.9567517" lon="9.225795"><ele>316.0</ele><time>2026-04-11T11:56:51.04Z</time></trkpt><trkpt lat="44.9568583" lon="9.2258467"><ele>320.0</ele><time>2026-04-11T11:56:52.035Z</time></trkpt><trkpt lat="44.9569533" lon="9.2259283"><ele>324.0</ele><time>2026-04-11T11:56:53.033Z</time></trkpt><trkpt lat="44.9570317" lon="9.2260267"><ele>328.0</ele><time>2026-04-11T11:56:54.031Z</time></trkpt><trkpt lat="44.957115" lon="9.2261333"><ele>332.0</ele><time>2026-04-11T11:56:55.032Z</time></trkpt><trkpt lat="44.9572033" lon="9.2262417"><ele>332.0</ele><time>2026-04-11T11:56:56.031Z</time></trkpt><trkpt lat="44.9572967" lon="9.2263533"><ele>332.0</ele><time>2026-04-11T11:56:57.032Z</time></trkpt><trkpt lat="44.95739" lon="9.2264683"><ele>332.0</ele><time>2026-04-11T11:56:58.03Z</time></trkpt><trkpt lat="44.957485" lon="9.2265833"><ele>332.0</ele><time>2026-04-11T11:56:59.03Z</time></trkpt><trkpt lat="44.957575" lon="9.22669"><ele>334.8</ele><time>2026-04-11T11:57:00.035Z</time></trkpt><trkpt lat="44.957655" lon="9.2267867"><ele>337.6</ele><time>2026-04-11T11:57:01.032Z</time></trkpt><trkpt lat="44.95773" lon="9.2268517"><ele>340.40000000000003</ele><time>2026-04-11T11:57:02.033Z</time></trkpt><trkpt lat="44.9578017" lon="9.2268967"><ele>343.20000000000005</ele><time>2026-04-11T11:57:03.03Z</time></trkpt><trkpt lat="44.9578933" lon="9.2269283"><ele>346.0</ele><time>2026-04-11T11:57:04.036Z</time></trkpt><trkpt lat="44.9579917" lon="9.226965"><ele>346.0</ele><time>2026-04-11T11:57:05.033Z</time></trkpt><trkpt lat="44.95809" lon="9.227005"><ele>346.0</ele><time>2026-04-11T11:57:06.037Z</time></trkpt><trkpt lat="44.9581883" lon="9.2270633"><ele>346.0</ele><time>2026-04-11T11:57:07.031Z</time></trkpt><trkpt lat="44.9582867" lon="9.2271333"><ele>346.0</ele><time>2026-04-11T11:57:08.032Z</time></trkpt><trkpt lat="44.9583867" lon="9.22721"><ele>346.0</ele><time>2026-04-11T11:57:09.033Z</time></trkpt><trkpt lat="44.9584833" lon="9.227285"><ele>349.6</ele><time>2026-04-11T11:57:10.032Z</time></trkpt><trkpt lat="44.958575" lon="9.2273567"><ele>353.20000000000005</ele><time>2026-04-11T11:57:11.032Z</time></trkpt><trkpt lat="44.9586533" lon="9.22742"><ele>356.79999999999995</ele><time>2026-04-11T11:57:12.032Z</time></trkpt><trkpt lat="44.9587217" lon="9.22748"><ele>360.4</ele><time>2026-04-11T11:57:13.037Z</time></trkpt><trkpt lat="44.9587767" lon="9.2275417"><ele>364.0</ele><time>2026-04-11T11:57:14.037Z</time></trkpt><trkpt lat="44.95887" lon="9.22762"><ele>364.0</ele><time>2026-04-11T11:57:16.037Z</time></trkpt><trkpt lat="44.9589367" lon="9.2276033"><ele>364.0</ele><time>2026-04-11T11:57:18.032Z</time></trkpt><trkpt lat="44.9590217" lon="9.2275867"><ele>364.0</ele><time>2026-04-11T11:57:21.033Z</time></trkpt><trkpt lat="44.9590817" lon="9.227665"><ele>364.0</ele><time>2026-04-11T11:57:23.03Z</time></trkpt><trkpt lat="44.95915" lon="9.2277017"><ele>364.0</ele><time>2026-04-11T11:57:25.03Z</time></trkpt><trkpt lat="44.959235" lon="9.2277017"><ele>364.0</ele><time>2026-04-11T11:57:27.032Z</time></trkpt><trkpt lat="44.9593633" lon="9.2277183"><ele>367.0</ele><time>2026-04-11T11:57:29.028Z</time></trkpt><trkpt lat="44.9594417" lon="9.2277383"><ele>370.0</ele><time>2026-04-11T11:57:30.031Z</time></trkpt><trkpt lat="44.95951" lon="9.2277717"><ele>373.0</ele><time>2026-04-11T11:57:31.032Z</time></trkpt><trkpt lat="44.9595767" lon="9.227815"><ele>376.0</ele><time>2026-04-11T11:57:32.03Z</time></trkpt><trkpt lat="44.9596317" lon="9.22787"><ele>379.0</ele><time>2026-04-11T11:57:33.03Z</time></trkpt><trkpt lat="44.95969" lon="9.2279133"><ele>382.0</ele><time>2026-04-11T11:57:34.03Z</time></trkpt><trkpt lat="44.9597533" lon="9.2279483"><ele>385.0</ele><time>2026-04-11T11:57:35.03Z</time></trkpt><trkpt lat="44.9598233" lon="9.22797"><ele>385.00000000000006</ele><time>2026-04-11T11:57:36.03Z</time></trkpt><trkpt lat="44.9598933" lon="9.2279867"><ele>385.0</ele><time>2026-04-11T11:57:37.033Z</time></trkpt><trkpt lat="44.9599767" lon="9.2280067"><ele>385.0</ele><time>2026-04-11T11:57:38.032Z</time></trkpt><trkpt lat="44.9600667" lon="9.2280383"><ele>385.0</ele><time>2026-04-11T11:57:39.033Z</time></trkpt><trkpt lat="44.9601567" lon="9.2280617"><ele>385.00000000000006</ele><time>2026-04-11T11:57:40.03Z</time></trkpt><trkpt lat="44.96024" lon="9.228075"><ele>385.0</ele><time>2026-04-11T11:57:41.03Z</time></trkpt><trkpt lat="44.9603233" lon="9.2280967"><ele>387.50000000000006</ele><time>2026-04-11T11:57:42.03Z</time></trkpt><trkpt lat="44.9604083" lon="9.2281233"><ele>390.0</ele><time>2026-04-11T11:57:43.029Z</time></trkpt><trkpt lat="44.96049" lon="9.2281667"><ele>392.5</ele><time>2026-04-11T11:57:44.03Z</time></trkpt><trkpt lat="44.960565" lon="9.2282333"><ele>395.0</ele><time>2026-04-11T11:57:45.031Z</time></trkpt><trkpt lat="44.9606317" lon="9.2283117"><ele>397.50000000000006</ele><time>2026-04-11T11:57:46.03Z</time></trkpt><trkpt lat="44.9606933" lon="9.228395"><ele>400.0</ele><time>2026-04-11T11:57:47.029Z</time></trkpt><trkpt lat="44.96075" lon="9.2284783"><ele>401.83333333333337</ele><time>2026-04-11T11:57:48.031Z</time></trkpt><trkpt lat="44.9608017" lon="9.2285683"><ele>403.6666666666667</ele><time>2026-04-11T11:57:49.03Z</time></trkpt><trkpt lat="44.9608483" lon="9.2286617"><ele>405.5</ele><time>2026-04-11T11:57:50.03Z</time></trkpt><trkpt lat="44.960895" lon="9.228755"><ele>407.33333333333337</ele><time>2026-04-11T11:57:51.031Z</time></trkpt><trkpt lat="44.9609467" lon="9.2288417"><ele>409.1666666666667</ele><time>2026-04-11T11:57:52.029Z</time></trkpt><trkpt lat="44.9609967" lon="9.2289217"><ele>411.0</ele><time>2026-04-11T11:57:53.032Z</time></trkpt><trkpt lat="44.96105" lon="9.229005"><ele>413.8333333333333</ele><time>2026-04-11T11:57:54.03Z</time></trkpt><trkpt lat="44.961105" lon="9.229085"><ele>416.66666666666663</ele><time>2026-04-11T11:57:55.033Z</time></trkpt><trkpt lat="44.96117" lon="9.2291683"><ele>419.5</ele><time>2026-04-11T11:57:56.03Z</time></trkpt><trkpt lat="44.961235" lon="9.22925"><ele>422.3333333333333</ele><time>2026-04-11T11:57:57.031Z</time></trkpt><trkpt lat="44.9613033" lon="9.2293133"><ele>425.16666666666663</ele><time>2026-04-11T11:57:58.031Z</time></trkpt><trkpt lat="44.961375" lon="9.22936"><ele>428.0</ele><time>2026-04-11T11:57:59.03Z</time></trkpt><trkpt lat="44.9614567" lon="9.2293967"><ele>427.99999999999994</ele><time>2026-04-11T11:58:00.031Z</time></trkpt><trkpt lat="44.9615367" lon="9.2294333"><ele>428.0</ele><time>2026-04-11T11:58:01.03Z</time></trkpt><trkpt lat="44.9616167" lon="9.2294667"><ele>428.0</ele><time>2026-04-11T11:58:02.031Z</time></trkpt><trkpt lat="44.9616983" lon="9.2295033"><ele>428.0</ele><time>2026-04-11T11:58:03.03Z</time></trkpt><trkpt lat="44.9617767" lon="9.2295383"><ele>427.99999999999994</ele><time>2026-04-11T11:58:04.03Z</time></trkpt><trkpt lat="44.9618483" lon="9.22958"><ele>428.0</ele><time>2026-04-11T11:58:05.031Z</time></trkpt><trkpt lat="44.961925" lon="9.22963"><ele>427.3333333333333</ele><time>2026-04-11T11:58:06.031Z</time></trkpt><trkpt lat="44.9620033" lon="9.2296833"><ele>426.66666666666663</ele><time>2026-04-11T11:58:07.03Z</time></trkpt><trkpt lat="44.9620833" lon="9.2297383"><ele>426.0</ele><time>2026-04-11T11:58:08.03Z</time></trkpt><trkpt lat="44.9621583" lon="9.229785"><ele>425.33333333333337</ele><time>2026-04-11T11:58:09.03Z</time></trkpt><trkpt lat="44.9622383" lon="9.2298367"><ele>424.6666666666667</ele><time>2026-04-11T11:58:10.031Z</time></trkpt><trkpt lat="44.9623133" lon="9.2299033"><ele>424.0</ele><time>2026-04-11T11:58:11.029Z</time></trkpt><trkpt lat="44.9623917" lon="9.2299717"><ele>426.79999999999995</ele><time>2026-04-11T11:58:12.028Z</time></trkpt><trkpt lat="44.962475" lon="9.2300417"><ele>429.59999999999997</ele><time>2026-04-11T11:58:13.034Z</time></trkpt><trkpt lat="44.962575" lon="9.23011"><ele>432.4</ele><time>2026-04-11T11:58:14.035Z</time></trkpt><trkpt lat="44.9626767" lon="9.2301783"><ele>435.2</ele><time>2026-04-11T11:58:15.031Z</time></trkpt><trkpt lat="44.9627833" lon="9.2302383"><ele>438.0</ele><time>2026-04-11T11:58:16.03Z</time></trkpt><trkpt lat="44.9628917" lon="9.2302983"><ele>438.79999999999995</ele><time>2026-04-11T11:58:17.034Z</time></trkpt><trkpt lat="44.963" lon="9.2303583"><ele>439.59999999999997</ele><time>2026-04-11T11:58:18.032Z</time></trkpt><trkpt lat="44.9631133" lon="9.2304167"><ele>440.40000000000003</ele><time>2026-04-11T11:58:19.035Z</time></trkpt><trkpt lat="44.963215" lon="9.2304733"><ele>441.20000000000005</ele><time>2026-04-11T11:58:20.03Z</time></trkpt><trkpt lat="44.9632967" lon="9.23052"><ele>442.0</ele><time>2026-04-11T11:58:21.03Z</time></trkpt><trkpt lat="44.963375" lon="9.2305467"><ele>442.6666666666667</ele><time>2026-04-11T11:58:22.029Z</time></trkpt><trkpt lat="44.9634467" lon="9.23055"><ele>443.33333333333337</ele><time>2026-04-11T11:58:23.031Z</time></trkpt><trkpt lat="44.96352" lon="9.2305117"><ele>444.0</ele><time>2026-04-11T11:58:24.03Z</time></trkpt><trkpt lat="44.9635917" lon="9.23044"><ele>444.66666666666663</ele><time>2026-04-11T11:58:25.03Z</time></trkpt><trkpt lat="44.963665" lon="9.23037"><ele>445.3333333333333</ele><time>2026-04-11T11:58:26.031Z</time></trkpt><trkpt lat="44.9637433" lon="9.23031"><ele>446.0</ele><time>2026-04-11T11:58:27.033Z</time></trkpt><trkpt lat="44.96383" lon="9.23025"><ele>446.0</ele><time>2026-04-11T11:58:28.032Z</time></trkpt><trkpt lat="44.9639167" lon="9.230185"><ele>446.0</ele><time>2026-04-11T11:58:29.031Z</time></trkpt><trkpt lat="44.964" lon="9.2301167"><ele>446.0</ele><time>2026-04-11T11:58:30.029Z</time></trkpt><trkpt lat="44.96408" lon="9.2300517"><ele>446.0</ele><time>2026-04-11T11:58:31.029Z</time></trkpt><trkpt lat="44.9641567" lon="9.230005"><ele>446.0</ele><time>2026-04-11T11:58:32.03Z</time></trkpt><trkpt lat="44.9642417" lon="9.2299567"><ele>446.0</ele><time>2026-04-11T11:58:33.03Z</time></trkpt><trkpt lat="44.9643317" lon="9.22991"><ele>446.0</ele><time>2026-04-11T11:58:34.03Z</time></trkpt><trkpt lat="44.9644225" lon="9.2298768"><ele>446.0</ele><time>2026-04-11T11:58:35.03Z</time></trkpt><trkpt lat="44.9645178" lon="9.2298545"><ele>446.0</ele><time>2026-04-11T11:58:36.03Z</time></trkpt><trkpt lat="44.9646215" lon="9.2298337"><ele>446.0</ele><time>2026-04-11T11:58:37.03Z</time></trkpt><trkpt lat="44.9647438" lon="9.2298218"><ele>446.0</ele><time>2026-04-11T11:58:38.03Z</time></trkpt><trkpt lat="44.964864" lon="9.2298102"><ele>446.0</ele><time>2026-04-11T11:58:39.04Z</time></trkpt><trkpt lat="44.9649823" lon="9.2297857"><ele>446.0</ele><time>2026-04-11T11:58:40.038Z</time></trkpt><trkpt lat="44.9651029" lon="9.2297424"><ele>446.0</ele><time>2026-04-11T11:58:41.032Z</time></trkpt><trkpt lat="44.9652272" lon="9.2296736"><ele>443.75</ele><time>2026-04-11T11:58:42.033Z</time></trkpt><trkpt lat="44.9653598" lon="9.2296026"><ele>441.5</ele><time>2026-04-11T11:58:43.039Z</time></trkpt><trkpt lat="44.9654927" lon="9.2295378"><ele>439.25</ele><time>2026-04-11T11:58:44.039Z</time></trkpt><trkpt lat="44.9656197" lon="9.2294831"><ele>437.0</ele><time>2026-04-11T11:58:45.032Z</time></trkpt><trkpt lat="44.9657418" lon="9.2294308"><ele>437.0</ele><time>2026-04-11T11:58:46.036Z</time></trkpt><trkpt lat="44.9658592" lon="9.2293837"><ele>437.0</ele><time>2026-04-11T11:58:47.033Z</time></trkpt><trkpt lat="44.9659764" lon="9.2293396"><ele>437.0</ele><time>2026-04-11T11:58:48.04Z</time></trkpt><trkpt lat="44.9660912" lon="9.2293048"><ele>437.0</ele><time>2026-04-11T11:58:49.043Z</time></trkpt><trkpt lat="44.9662139" lon="9.2292804"><ele>435.75</ele><time>2026-04-11T11:58:50.039Z</time></trkpt><trkpt lat="44.9663374" lon="9.2292555"><ele>434.5</ele><time>2026-04-11T11:58:51.04Z</time></trkpt><trkpt lat="44.9664579" lon="9.2292175"><ele>433.25</ele><time>2026-04-11T11:58:52.031Z</time></trkpt><trkpt lat="44.9665737" lon="9.2291645"><ele>432.0</ele><time>2026-04-11T11:58:53.031Z</time></trkpt><trkpt lat="44.9666882" lon="9.2291005"><ele>430.25</ele><time>2026-04-11T11:58:54.041Z</time></trkpt><trkpt lat="44.9667976" lon="9.2290436"><ele>428.5</ele><time>2026-04-11T11:58:55.032Z</time></trkpt><trkpt lat="44.9669097" lon="9.229002"><ele>426.75</ele><time>2026-04-11T11:58:56.03Z</time></trkpt><trkpt lat="44.9670294" lon="9.2289677"><ele>425.0</ele><time>2026-04-11T11:58:57.031Z</time></trkpt><trkpt lat="44.9671547" lon="9.2289369"><ele>424.5</ele><time>2026-04-11T11:58:58.032Z</time></trkpt><trkpt lat="44.9672835" lon="9.2289194"><ele>424.0</ele><time>2026-04-11T11:58:59.037Z</time></trkpt><trkpt lat="44.9674074" lon="9.2289034"><ele>423.5</ele><time>2026-04-11T11:59:00.03Z</time></trkpt><trkpt lat="44.9675238" lon="9.2288675"><ele>423.0</ele><time>2026-04-11T11:59:01.032Z</time></trkpt><trkpt lat="44.9676275" lon="9.2288169"><ele>422.4</ele><time>2026-04-11T11:59:02.037Z</time></trkpt><trkpt lat="44.9677245" lon="9.2287724"><ele>421.79999999999995</ele><time>2026-04-11T11:59:03.036Z</time></trkpt><trkpt lat="44.9678264" lon="9.2287419"><ele>421.2</ele><time>2026-04-11T11:59:04.038Z</time></trkpt><trkpt lat="44.9679323" lon="9.2287105"><ele>420.6</ele><time>2026-04-11T11:59:05.033Z</time></trkpt><trkpt lat="44.9680436" lon="9.2286762"><ele>420.0</ele><time>2026-04-11T11:59:06.03Z</time></trkpt><trkpt lat="44.9681652" lon="9.2286337"><ele>420.0</ele><time>2026-04-11T11:59:07.037Z</time></trkpt><trkpt lat="44.9682922" lon="9.2285898"><ele>420.0</ele><time>2026-04-11T11:59:08.037Z</time></trkpt><trkpt lat="44.9684197" lon="9.2285427"><ele>420.0</ele><time>2026-04-11T11:59:09.039Z</time></trkpt><trkpt lat="44.9685484" lon="9.2284845"><ele>420.0</ele><time>2026-04-11T11:59:10.036Z</time></trkpt><trkpt lat="44.9686809" lon="9.2284158"><ele>420.0</ele><time>2026-04-11T11:59:11.039Z</time></trkpt><trkpt lat="44.9688174" lon="9.2283444"><ele>420.0</ele><time>2026-04-11T11:59:12.038Z</time></trkpt><trkpt lat="44.9689534" lon="9.228277"><ele>420.0</ele><time>2026-04-11T11:59:13.036Z</time></trkpt><trkpt lat="44.96909" lon="9.2282117"><ele>420.0</ele><time>2026-04-11T11:59:14.032Z</time></trkpt><trkpt lat="44.9692167" lon="9.22815"><ele>422.0</ele><time>2026-04-11T11:59:15.031Z</time></trkpt><trkpt lat="44.9693317" lon="9.2280933"><ele>424.0</ele><time>2026-04-11T11:59:16.029Z</time></trkpt><trkpt lat="44.9694333" lon="9.2280383"><ele>426.0</ele><time>2026-04-11T11:59:17.031Z</time></trkpt><trkpt lat="44.9695233" lon="9.227985"><ele>428.0</ele><time>2026-04-11T11:59:18.039Z</time></trkpt><trkpt lat="44.9696033" lon="9.2279283"><ele>430.0</ele><time>2026-04-11T11:59:19.042Z</time></trkpt><trkpt lat="44.9696683" lon="9.22787"><ele>430.00000000000006</ele><time>2026-04-11T11:59:20.038Z</time></trkpt><trkpt lat="44.96977" lon="9.227815"><ele>430.0</ele><time>2026-04-11T11:59:22.031Z</time></trkpt><trkpt lat="44.9698867" lon="9.2278517"><ele>430.0</ele><time>2026-04-11T11:59:24.034Z</time></trkpt><trkpt lat="44.9699533" lon="9.2278917"><ele>430.0</ele><time>2026-04-11T11:59:25.032Z</time></trkpt><trkpt lat="44.9700167" lon="9.2279167"><ele>430.00000000000006</ele><time>2026-04-11T11:59:26.028Z</time></trkpt><trkpt lat="44.9700817" lon="9.227935"><ele>430.0</ele><time>2026-04-11T11:59:27.034Z</time></trkpt><trkpt lat="44.9701483" lon="9.22795"><ele>430.0</ele><time>2026-04-11T11:59:28.03Z</time></trkpt><trkpt lat="44.9702217" lon="9.2279683"><ele>430.0</ele><time>2026-04-11T11:59:29.036Z</time></trkpt><trkpt lat="44.970285" lon="9.22799"><ele>430.0</ele><time>2026-04-11T11:59:30.029Z</time></trkpt><trkpt lat="44.9703967" lon="9.2280417"><ele>430.0</ele><time>2026-04-11T11:59:32.034Z</time></trkpt><trkpt lat="44.970515" lon="9.2281017"><ele>430.0</ele><time>2026-04-11T11:59:34.03Z</time></trkpt><trkpt lat="44.9705783" lon="9.2281367"><ele>427.83333333333337</ele><time>2026-04-11T11:59:35.03Z</time></trkpt><trkpt lat="44.9706433" lon="9.2281767"><ele>425.6666666666667</ele><time>2026-04-11T11:59:36.031Z</time></trkpt><trkpt lat="44.9707167" lon="9.2282133"><ele>423.5</ele><time>2026-04-11T11:59:37.031Z</time></trkpt><trkpt lat="44.9707817" lon="9.228245"><ele>421.33333333333337</ele><time>2026-04-11T11:59:38.034Z</time></trkpt><trkpt lat="44.970885" lon="9.22827"><ele>419.1666666666667</ele><time>2026-04-11T11:59:40.035Z</time></trkpt><trkpt lat="44.9709567" lon="9.22829"><ele>417.0</ele><time>2026-04-11T11:59:41.033Z</time></trkpt><trkpt lat="44.97107" lon="9.2282583"><ele>416.0</ele><time>2026-04-11T11:59:43.03Z</time></trkpt><trkpt lat="44.97111" lon="9.2281883"><ele>415.0</ele><time>2026-04-11T11:59:44.034Z</time></trkpt><trkpt lat="44.9711617" lon="9.2280917"><ele>414.0</ele><time>2026-04-11T11:59:45.035Z</time></trkpt><trkpt lat="44.9712167" lon="9.2280017"><ele>413.0</ele><time>2026-04-11T11:59:46.032Z</time></trkpt><trkpt lat="44.9712767" lon="9.22792"><ele>412.0</ele><time>2026-04-11T11:59:47.034Z</time></trkpt><trkpt lat="44.9713383" lon="9.2278333"><ele>411.0</ele><time>2026-04-11T11:59:48.04Z</time></trkpt><trkpt lat="44.9714" lon="9.22775"><ele>413.0</ele><time>2026-04-11T11:59:49.032Z</time></trkpt><trkpt lat="44.9714833" lon="9.22767"><ele>415.0</ele><time>2026-04-11T11:59:50.036Z</time></trkpt><trkpt lat="44.971575" lon="9.2276017"><ele>417.0</ele><time>2026-04-11T11:59:51.039Z</time></trkpt><trkpt lat="44.9716633" lon="9.2275383"><ele>419.0</ele><time>2026-04-11T11:59:52.04Z</time></trkpt><trkpt lat="44.9717583" lon="9.22749"><ele>421.0</ele><time>2026-04-11T11:59:53.043Z</time></trkpt><trkpt lat="44.97184" lon="9.2274683"><ele>421.00000000000006</ele><time>2026-04-11T11:59:54.033Z</time></trkpt><trkpt lat="44.9719233" lon="9.227465"><ele>421.0</ele><time>2026-04-11T11:59:55.033Z</time></trkpt><trkpt lat="44.971995" lon="9.2274633"><ele>421.0</ele><time>2026-04-11T11:59:56.03Z</time></trkpt><trkpt lat="44.9720683" lon="9.2274817"><ele>421.0</ele><time>2026-04-11T11:59:57.03Z</time></trkpt><trkpt lat="44.9721483" lon="9.2275067"><ele>421.00000000000006</ele><time>2026-04-11T11:59:58.034Z</time></trkpt><trkpt lat="44.972225" lon="9.2275483"><ele>421.0</ele><time>2026-04-11T11:59:59.03Z</time></trkpt><trkpt lat="44.9722917" lon="9.2276017"><ele>421.00000000000006</ele><time>2026-04-11T12:00:00.037Z</time></trkpt><trkpt lat="44.972365" lon="9.2276417"><ele>421.0</ele><time>2026-04-11T12:00:01.032Z</time></trkpt><trkpt lat="44.9724233" lon="9.22775"><ele>421.0</ele><time>2026-04-11T12:00:03.034Z</time></trkpt><trkpt lat="44.97241" lon="9.22784"><ele>421.0</ele><time>2026-04-11T12:00:04.033Z</time></trkpt><trkpt lat="44.972385" lon="9.2279417"><ele>421.00000000000006</ele><time>2026-04-11T12:00:05.032Z</time></trkpt><trkpt lat="44.9723517" lon="9.2280367"><ele>421.0</ele><time>2026-04-11T12:00:06.033Z</time></trkpt><trkpt lat="44.9723267" lon="9.228135"><ele>419.6</ele><time>2026-04-11T12:00:07.033Z</time></trkpt><trkpt lat="44.9723267" lon="9.22827"><ele>418.20000000000005</ele><time>2026-04-11T12:00:09.033Z</time></trkpt><trkpt lat="44.9724317" lon="9.2283483"><ele>416.79999999999995</ele><time>2026-04-11T12:00:11.034Z</time></trkpt><trkpt lat="44.9725067" lon="9.2283717"><ele>415.4</ele><time>2026-04-11T12:00:12.031Z</time></trkpt><trkpt lat="44.9725833" lon="9.2284067"><ele>414.0</ele><time>2026-04-11T12:00:13.03Z</time></trkpt><trkpt lat="44.9726533" lon="9.2284683"><ele>412.0</ele><time>2026-04-11T12:00:14.03Z</time></trkpt><trkpt lat="44.9727283" lon="9.2285433"><ele>410.0</ele><time>2026-04-11T12:00:15.032Z</time></trkpt><trkpt lat="44.9727967" lon="9.2286167"><ele>408.0</ele><time>2026-04-11T12:00:16.032Z</time></trkpt><trkpt lat="44.972855" lon="9.2286833"><ele>406.0</ele><time>2026-04-11T12:00:17.033Z</time></trkpt><trkpt lat="44.9729083" lon="9.2287517"><ele>404.0</ele><time>2026-04-11T12:00:18.034Z</time></trkpt><trkpt lat="44.972955" lon="9.22885"><ele>402.0</ele><time>2026-04-11T12:00:19.031Z</time></trkpt><trkpt lat="44.9729933" lon="9.2289733"><ele>402.20000000000005</ele><time>2026-04-11T12:00:20.033Z</time></trkpt><trkpt lat="44.9730283" lon="9.2291117"><ele>402.4</ele><time>2026-04-11T12:00:21.032Z</time></trkpt><trkpt lat="44.973065" lon="9.2292567"><ele>402.6</ele><time>2026-04-11T12:00:22.03Z</time></trkpt><trkpt lat="44.9731067" lon="9.2294017"><ele>402.79999999999995</ele><time>2026-04-11T12:00:23.031Z</time></trkpt><trkpt lat="44.97315" lon="9.2295483"><ele>403.0</ele><time>2026-04-11T12:00:24.033Z</time></trkpt><trkpt lat="44.9731917" lon="9.2296917"><ele>403.0</ele><time>2026-04-11T12:00:25.032Z</time></trkpt><trkpt lat="44.973225" lon="9.229835"><ele>403.0</ele><time>2026-04-11T12:00:26.034Z</time></trkpt><trkpt lat="44.9732483" lon="9.229975"><ele>403.0</ele><time>2026-04-11T12:00:27.033Z</time></trkpt><trkpt lat="44.9732667" lon="9.2301117"><ele>403.0</ele><time>2026-04-11T12:00:28.031Z</time></trkpt><trkpt lat="44.9732817" lon="9.2302417"><ele>403.0</ele><time>2026-04-11T12:00:29.032Z</time></trkpt><trkpt lat="44.973305" lon="9.2303617"><ele>403.00000000000006</ele><time>2026-04-11T12:00:30.034Z</time></trkpt><trkpt lat="44.9733417" lon="9.2304667"><ele>403.0</ele><time>2026-04-11T12:00:31.03Z</time></trkpt><trkpt lat="44.9733917" lon="9.2305633"><ele>403.0</ele><time>2026-04-11T12:00:32.032Z</time></trkpt><trkpt lat="44.973455" lon="9.230645"><ele>403.0</ele><time>2026-04-11T12:00:33.032Z</time></trkpt><trkpt lat="44.9735233" lon="9.2307017"><ele>403.00000000000006</ele><time>2026-04-11T12:00:34.034Z</time></trkpt><trkpt lat="44.9735933" lon="9.2307567"><ele>403.0</ele><time>2026-04-11T12:00:35.032Z</time></trkpt><trkpt lat="44.9736617" lon="9.230835"><ele>401.33333333333337</ele><time>2026-04-11T12:00:36.033Z</time></trkpt><trkpt lat="44.973735" lon="9.2309167"><ele>399.6666666666667</ele><time>2026-04-11T12:00:37.034Z</time></trkpt><trkpt lat="44.9738" lon="9.2310067"><ele>398.0</ele><time>2026-04-11T12:00:38.032Z</time></trkpt><trkpt lat="44.9738633" lon="9.2310883"><ele>396.33333333333337</ele><time>2026-04-11T12:00:39.033Z</time></trkpt><trkpt lat="44.97391" lon="9.2311867"><ele>394.6666666666667</ele><time>2026-04-11T12:00:40.031Z</time></trkpt><trkpt lat="44.9739517" lon="9.23129"><ele>393.0</ele><time>2026-04-11T12:00:41.033Z</time></trkpt><trkpt lat="44.9739917" lon="9.2313883"><ele>392.0</ele><time>2026-04-11T12:00:42.034Z</time></trkpt><trkpt lat="44.9740433" lon="9.2315"><ele>391.0</ele><time>2026-04-11T12:00:43.03Z</time></trkpt><trkpt lat="44.9740983" lon="9.2316217"><ele>390.0</ele><time>2026-04-11T12:00:44.029Z</time></trkpt><trkpt lat="44.974155" lon="9.2317417"><ele>389.0</ele><time>2026-04-11T12:00:45.031Z</time></trkpt><trkpt lat="44.9742117" lon="9.2318683"><ele>388.0</ele><time>2026-04-11T12:00:46.028Z</time></trkpt><trkpt lat="44.9742633" lon="9.231985"><ele>385.59999999999997</ele><time>2026-04-11T12:00:47.033Z</time></trkpt><trkpt lat="44.97431" lon="9.2321067"><ele>383.2</ele><time>2026-04-11T12:00:48.031Z</time></trkpt><trkpt lat="44.97439" lon="9.2321933"><ele>380.8</ele><time>2026-04-11T12:00:49.031Z</time></trkpt><trkpt lat="44.9744767" lon="9.2322617"><ele>378.4</ele><time>2026-04-11T12:00:50.034Z</time></trkpt><trkpt lat="44.9745633" lon="9.2323033"><ele>376.0</ele><time>2026-04-11T12:00:51.033Z</time></trkpt><trkpt lat="44.9746533" lon="9.232335"><ele>375.4</ele><time>2026-04-11T12:00:52.031Z</time></trkpt><trkpt lat="44.9747467" lon="9.2323667"><ele>374.8</ele><time>2026-04-11T12:00:53.032Z</time></trkpt><trkpt lat="44.974845" lon="9.2324"><ele>374.2</ele><time>2026-04-11T12:00:54.035Z</time></trkpt><trkpt lat="44.974935" lon="9.2324283"><ele>373.59999999999997</ele><time>2026-04-11T12:00:55.03Z</time></trkpt><trkpt lat="44.9750133" lon="9.2324833"><ele>373.0</ele><time>2026-04-11T12:00:56.031Z</time></trkpt><trkpt lat="44.97509" lon="9.2325883"><ele>369.79999999999995</ele><time>2026-04-11T12:00:57.03Z</time></trkpt><trkpt lat="44.9751633" lon="9.232705"><ele>366.6</ele><time>2026-04-11T12:00:58.032Z</time></trkpt><trkpt lat="44.975245" lon="9.2328167"><ele>363.4</ele><time>2026-04-11T12:00:59.032Z</time></trkpt><trkpt lat="44.9753267" lon="9.23292"><ele>360.20000000000005</ele><time>2026-04-11T12:01:00.033Z</time></trkpt><trkpt lat="44.9754083" lon="9.23301"><ele>357.0</ele><time>2026-04-11T12:01:01.033Z</time></trkpt><trkpt lat="44.975485" lon="9.2330917"><ele>357.40000000000003</ele><time>2026-04-11T12:01:02.032Z</time></trkpt><trkpt lat="44.975545" lon="9.23318"><ele>357.8</ele><time>2026-04-11T12:01:03.032Z</time></trkpt><trkpt lat="44.9756033" lon="9.233285"><ele>358.2</ele><time>2026-04-11T12:01:04.03Z</time></trkpt><trkpt lat="44.9756583" lon="9.233395"><ele>358.6</ele><time>2026-04-11T12:01:05.034Z</time></trkpt><trkpt lat="44.97572" lon="9.2334983"><ele>359.0</ele><time>2026-04-11T12:01:06.031Z</time></trkpt><trkpt lat="44.97579" lon="9.2335783"><ele>356.2</ele><time>2026-04-11T12:01:07.031Z</time></trkpt><trkpt lat="44.9758617" lon="9.2336467"><ele>353.4</ele><time>2026-04-11T12:01:08.031Z</time></trkpt><trkpt lat="44.97594" lon="9.233705"><ele>350.6</ele><time>2026-04-11T12:01:09.032Z</time></trkpt><trkpt lat="44.9760333" lon="9.2337417"><ele>347.8</ele><time>2026-04-11T12:01:10.031Z</time></trkpt><trkpt lat="44.976125" lon="9.2337933"><ele>345.0</ele><time>2026-04-11T12:01:11.03Z</time></trkpt><trkpt lat="44.97621" lon="9.2338933"><ele>346.5</ele><time>2026-04-11T12:01:12.033Z</time></trkpt><trkpt lat="44.9762883" lon="9.2340133"><ele>348.0</ele><time>2026-04-11T12:01:13.033Z</time></trkpt><trkpt lat="44.976365" lon="9.2341667"><ele>349.5</ele><time>2026-04-11T12:01:14.03Z</time></trkpt><trkpt lat="44.9764467" lon="9.2343283"><ele>351.0</ele><time>2026-04-11T12:01:15.031Z</time></trkpt><trkpt lat="44.976535" lon="9.234495"><ele>351.0</ele><time>2026-04-11T12:01:16.032Z</time></trkpt><trkpt lat="44.9766283" lon="9.23467"><ele>351.0</ele><time>2026-04-11T12:01:17.035Z</time></trkpt><trkpt lat="44.9767217" lon="9.2348417"><ele>351.0</ele><time>2026-04-11T12:01:18.03Z</time></trkpt><trkpt lat="44.97681" lon="9.2350067"><ele>349.5</ele><time>2026-04-11T12:01:19.031Z</time></trkpt><trkpt lat="44.9768983" lon="9.235165"><ele>348.0</ele><time>2026-04-11T12:01:20.031Z</time></trkpt><trkpt lat="44.9769867" lon="9.2353117"><ele>346.5</ele><time>2026-04-11T12:01:21.031Z</time></trkpt><trkpt lat="44.977075" lon="9.23544"><ele>345.0</ele><time>2026-04-11T12:01:22.033Z</time></trkpt><trkpt lat="44.9771567" lon="9.23555"><ele>345.0</ele><time>2026-04-11T12:01:23.031Z</time></trkpt><trkpt lat="44.97723" lon="9.2356317"><ele>345.0</ele><time>2026-04-11T12:01:24.032Z</time></trkpt><trkpt lat="44.9773" lon="9.2356867"><ele>345.0</ele><time>2026-04-11T12:01:25.033Z</time></trkpt><trkpt lat="44.977375" lon="9.235725"><ele>345.0</ele><time>2026-04-11T12:01:26.03Z</time></trkpt><trkpt lat="44.97747" lon="9.235775"><ele>345.0</ele><time>2026-04-11T12:01:27.031Z</time></trkpt><trkpt lat="44.977565" lon="9.2358483"><ele>345.75</ele><time>2026-04-11T12:01:28.03Z</time></trkpt><trkpt lat="44.9776633" lon="9.235955"><ele>346.5</ele><time>2026-04-11T12:01:29.032Z</time></trkpt><trkpt lat="44.9777683" lon="9.236055"><ele>347.25</ele><time>2026-04-11T12:01:30.031Z</time></trkpt><trkpt lat="44.9778917" lon="9.2361467"><ele>348.0</ele><time>2026-04-11T12:01:31.035Z</time></trkpt><trkpt lat="44.9780083" lon="9.23623"><ele>348.0</ele><time>2026-04-11T12:01:32.031Z</time></trkpt><trkpt lat="44.9781167" lon="9.2363"><ele>348.0</ele><time>2026-04-11T12:01:33.033Z</time></trkpt><trkpt lat="44.9782233" lon="9.236375"><ele>348.0</ele><time>2026-04-11T12:01:34.032Z</time></trkpt><trkpt lat="44.978315" lon="9.236465"><ele>348.0</ele><time>2026-04-11T12:01:35.033Z</time></trkpt><trkpt lat="44.9783983" lon="9.23657"><ele>345.79999999999995</ele><time>2026-04-11T12:01:36.032Z</time></trkpt><trkpt lat="44.9784683" lon="9.2366817"><ele>343.6</ele><time>2026-04-11T12:01:37.033Z</time></trkpt><trkpt lat="44.9785333" lon="9.2368033"><ele>341.4</ele><time>2026-04-11T12:01:38.033Z</time></trkpt><trkpt lat="44.9785983" lon="9.236935"><ele>339.20000000000005</ele><time>2026-04-11T12:01:39.031Z</time></trkpt><trkpt lat="44.978665" lon="9.2370683"><ele>337.0</ele><time>2026-04-11T12:01:40.031Z</time></trkpt><trkpt lat="44.9787417" lon="9.2371967"><ele>338.6</ele><time>2026-04-11T12:01:41.03Z</time></trkpt><trkpt lat="44.9788283" lon="9.23731"><ele>340.20000000000005</ele><time>2026-04-11T12:01:42.03Z</time></trkpt><trkpt lat="44.978915" lon="9.2374"><ele>341.8</ele><time>2026-04-11T12:01:43.03Z</time></trkpt><trkpt lat="44.9790017" lon="9.2374783"><ele>343.4</ele><time>2026-04-11T12:01:44.03Z</time></trkpt><trkpt lat="44.97909" lon="9.2375617"><ele>345.0</ele><time>2026-04-11T12:01:45.031Z</time></trkpt><trkpt lat="44.9791783" lon="9.2376533"><ele>344.4</ele><time>2026-04-11T12:01:46.03Z</time></trkpt><trkpt lat="44.9792633" lon="9.2377567"><ele>343.8</ele><time>2026-04-11T12:01:47.03Z</time></trkpt><trkpt lat="44.9793417" lon="9.237865"><ele>343.20000000000005</ele><time>2026-04-11T12:01:48.03Z</time></trkpt><trkpt lat="44.97942" lon="9.2379817"><ele>342.6</ele><time>2026-04-11T12:01:49.03Z</time></trkpt><trkpt lat="44.9794867" lon="9.238105"><ele>342.0</ele><time>2026-04-11T12:01:50.03Z</time></trkpt><trkpt lat="44.9795283" lon="9.238235"><ele>342.0</ele><time>2026-04-11T12:01:51.032Z</time></trkpt><trkpt lat="44.9795583" lon="9.2383617"><ele>342.0</ele><time>2026-04-11T12:01:52.03Z</time></trkpt><trkpt lat="44.9795917" lon="9.2384767"><ele>342.0</ele><time>2026-04-11T12:01:53.03Z</time></trkpt><trkpt lat="44.9796333" lon="9.2385933"><ele>342.0</ele><time>2026-04-11T12:01:54.031Z</time></trkpt><trkpt lat="44.979685" lon="9.2387267"><ele>342.0</ele><time>2026-04-11T12:01:55.03Z</time></trkpt><trkpt lat="44.9797467" lon="9.238865"><ele>340.25</ele><time>2026-04-11T12:01:56.031Z</time></trkpt><trkpt lat="44.979815" lon="9.2390083"><ele>338.5</ele><time>2026-04-11T12:01:57.029Z</time></trkpt><trkpt lat="44.979885" lon="9.2391583"><ele>336.75</ele><time>2026-04-11T12:01:58.032Z</time></trkpt><trkpt lat="44.979965" lon="9.2393"><ele>335.0</ele><time>2026-04-11T12:01:59.032Z</time></trkpt><trkpt lat="44.9800583" lon="9.239435"><ele>328.5</ele><time>2026-04-11T12:02:00.031Z</time></trkpt><trkpt lat="44.9801667" lon="9.2395517"><ele>322.0</ele><time>2026-04-11T12:02:01.03Z</time></trkpt><trkpt lat="44.9802783" lon="9.2396583"><ele>315.5</ele><time>2026-04-11T12:02:02.032Z</time></trkpt><trkpt lat="44.98039" lon="9.23978"><ele>309.0</ele><time>2026-04-11T12:02:03.031Z</time></trkpt><trkpt lat="44.98049" lon="9.2399233"><ele>308.5</ele><time>2026-04-11T12:02:04.031Z</time></trkpt><trkpt lat="44.9805817" lon="9.2400817"><ele>308.0</ele><time>2026-04-11T12:02:05.03Z</time></trkpt><trkpt lat="44.9806717" lon="9.2402383"><ele>307.5</ele><time>2026-04-11T12:02:06.03Z</time></trkpt><trkpt lat="44.9807633" lon="9.2403917"><ele>307.0</ele><time>2026-04-11T12:02:07.031Z</time></trkpt><trkpt lat="44.98085" lon="9.24054"><ele>302.0</ele><time>2026-04-11T12:02:08.029Z</time></trkpt><trkpt lat="44.9809267" lon="9.2406833"><ele>297.0</ele><time>2026-04-11T12:02:09.03Z</time></trkpt><trkpt lat="44.9809917" lon="9.2408217"><ele>292.0</ele><time>2026-04-11T12:02:10.031Z</time></trkpt><trkpt lat="44.981045" lon="9.2409733"><ele>287.0</ele><time>2026-04-11T12:02:11.03Z</time></trkpt><trkpt lat="44.98108" lon="9.2411333"><ele>287.0</ele><time>2026-04-11T12:02:12.035Z</time></trkpt><trkpt lat="44.98111" lon="9.2412933"><ele>287.0</ele><time>2026-04-11T12:02:13.029Z</time></trkpt><trkpt lat="44.9811517" lon="9.2414467"><ele>287.0</ele><time>2026-04-11T12:02:14.031Z</time></trkpt><trkpt lat="44.9811983" lon="9.2415983"><ele>287.0</ele><time>2026-04-11T12:02:15.031Z</time></trkpt><trkpt lat="44.9812433" lon="9.2417483"><ele>288.2</ele><time>2026-04-11T12:02:16.03Z</time></trkpt><trkpt lat="44.9812817" lon="9.2418883"><ele>289.4</ele><time>2026-04-11T12:02:17.03Z</time></trkpt><trkpt lat="44.9813167" lon="9.242025"><ele>290.6</ele><time>2026-04-11T12:02:18.03Z</time></trkpt><trkpt lat="44.9813517" lon="9.2421433"><ele>291.8</ele><time>2026-04-11T12:02:19.029Z</time></trkpt><trkpt lat="44.98139" lon="9.2422583"><ele>293.0</ele><time>2026-04-11T12:02:20.03Z</time></trkpt><trkpt lat="44.9814367" lon="9.2423667"><ele>293.0</ele><time>2026-04-11T12:02:21.03Z</time></trkpt><trkpt lat="44.98148" lon="9.2424717"><ele>293.0</ele><time>2026-04-11T12:02:22.033Z</time></trkpt><trkpt lat="44.9815133" lon="9.2425733"><ele>293.0</ele><time>2026-04-11T12:02:23.03Z</time></trkpt><trkpt lat="44.9815217" lon="9.2426967"><ele>293.0</ele><time>2026-04-11T12:02:24.031Z</time></trkpt><trkpt lat="44.9815217" lon="9.2428217"><ele>293.0</ele><time>2026-04-11T12:02:25.03Z</time></trkpt><trkpt lat="44.9815217" lon="9.2429533"><ele>293.0</ele><time>2026-04-11T12:02:26.031Z</time></trkpt><trkpt lat="44.9815283" lon="9.2430933"><ele>291.6</ele><time>2026-04-11T12:02:27.03Z</time></trkpt><trkpt lat="44.9815467" lon="9.2432467"><ele>290.20000000000005</ele><time>2026-04-11T12:02:28.036Z</time></trkpt><trkpt lat="44.9815833" lon="9.2433867"><ele>288.8</ele><time>2026-04-11T12:02:29.032Z</time></trkpt><trkpt lat="44.9816333" lon="9.2435267"><ele>287.40000000000003</ele><time>2026-04-11T12:02:30.031Z</time></trkpt><trkpt lat="44.9816883" lon="9.24366"><ele>286.0</ele><time>2026-04-11T12:02:31.03Z</time></trkpt><trkpt lat="44.981745" lon="9.2437917"><ele>283.40000000000003</ele><time>2026-04-11T12:02:32.03Z</time></trkpt><trkpt lat="44.9817983" lon="9.2439283"><ele>280.8</ele><time>2026-04-11T12:02:33.033Z</time></trkpt><trkpt lat="44.9818483" lon="9.2440433"><ele>278.20000000000005</ele><time>2026-04-11T12:02:34.031Z</time></trkpt><trkpt lat="44.9818867" lon="9.24416"><ele>275.6</ele><time>2026-04-11T12:02:35.034Z</time></trkpt><trkpt lat="44.9819217" lon="9.2442617"><ele>273.0</ele><time>2026-04-11T12:02:36.032Z</time></trkpt><trkpt lat="44.9819467" lon="9.2443683"><ele>272.0</ele><time>2026-04-11T12:02:37.031Z</time></trkpt><trkpt lat="44.9819583" lon="9.24447"><ele>271.0</ele><time>2026-04-11T12:02:38.031Z</time></trkpt><trkpt lat="44.98195" lon="9.2445683"><ele>270.0</ele><time>2026-04-11T12:02:39.038Z</time></trkpt><trkpt lat="44.98193" lon="9.2446567"><ele>269.0</ele><time>2026-04-11T12:02:40.029Z</time></trkpt><trkpt lat="44.98185" lon="9.244795"><ele>268.0</ele><time>2026-04-11T12:02:42.03Z</time></trkpt><trkpt lat="44.9817883" lon="9.24485"><ele>267.0</ele><time>2026-04-11T12:02:43.03Z</time></trkpt><trkpt lat="44.981715" lon="9.244905"><ele>264.4</ele><time>2026-04-11T12:02:44.031Z</time></trkpt><trkpt lat="44.981635" lon="9.244965"><ele>261.79999999999995</ele><time>2026-04-11T12:02:45.03Z</time></trkpt><trkpt lat="44.9815417" lon="9.2450267"><ele>259.2</ele><time>2026-04-11T12:02:46.03Z</time></trkpt><trkpt lat="44.9814433" lon="9.2450833"><ele>256.59999999999997</ele><time>2026-04-11T12:02:47.031Z</time></trkpt><trkpt lat="44.9813533" lon="9.2451533"><ele>254.0</ele><time>2026-04-11T12:02:48.032Z</time></trkpt><trkpt lat="44.9812633" lon="9.2452267"><ele>254.00000000000003</ele><time>2026-04-11T12:02:49.031Z</time></trkpt><trkpt lat="44.9811683" lon="9.2453067"><ele>254.0</ele><time>2026-04-11T12:02:50.03Z</time></trkpt><trkpt lat="44.9810917" lon="9.2453333"><ele>254.0</ele><time>2026-04-11T12:02:51.033Z</time></trkpt><trkpt lat="44.981005" lon="9.2453767"><ele>254.0</ele><time>2026-04-11T12:02:52.03Z</time></trkpt><trkpt lat="44.9809333" lon="9.2454267"><ele>254.00000000000003</ele><time>2026-04-11T12:02:53.031Z</time></trkpt><trkpt lat="44.9808767" lon="9.24548"><ele>254.0</ele><time>2026-04-11T12:02:54.031Z</time></trkpt><trkpt lat="44.9808233" lon="9.2455483"><ele>250.00000000000003</ele><time>2026-04-11T12:02:55.03Z</time></trkpt><trkpt lat="44.9807533" lon="9.2456783"><ele>246.0</ele><time>2026-04-11T12:02:57.032Z</time></trkpt><trkpt lat="44.9807467" lon="9.2457717"><ele>242.0</ele><time>2026-04-11T12:02:58.033Z</time></trkpt><trkpt lat="44.9808" lon="9.24586"><ele>238.0</ele><time>2026-04-11T12:03:00.033Z</time></trkpt><trkpt lat="44.9808883" lon="9.2458867"><ele>234.00000000000003</ele><time>2026-04-11T12:03:02.035Z</time></trkpt><trkpt lat="44.980965" lon="9.2459317"><ele>230.0</ele><time>2026-04-11T12:03:04.035Z</time></trkpt><trkpt lat="44.9810167" lon="9.2460317"><ele>230.00000000000003</ele><time>2026-04-11T12:03:06.034Z</time></trkpt><trkpt lat="44.98112" lon="9.2461433"><ele>230.0</ele><time>2026-04-11T12:03:08.033Z</time></trkpt><trkpt lat="44.9811867" lon="9.2461783"><ele>230.0</ele><time>2026-04-11T12:03:09.034Z</time></trkpt><trkpt lat="44.981255" lon="9.2462183"><ele>230.0</ele><time>2026-04-11T12:03:10.031Z</time></trkpt><trkpt lat="44.9813167" lon="9.2462683"><ele>230.00000000000003</ele><time>2026-04-11T12:03:11.032Z</time></trkpt><trkpt lat="44.9813683" lon="9.2463283"><ele>230.0</ele><time>2026-04-11T12:03:12.031Z</time></trkpt><trkpt lat="44.98144" lon="9.2464633"><ele>225.2</ele><time>2026-04-11T12:03:14.03Z</time></trkpt><trkpt lat="44.98139" lon="9.246645"><ele>220.4</ele><time>2026-04-11T12:03:16.031Z</time></trkpt><trkpt lat="44.981345" lon="9.2467417"><ele>215.60000000000002</ele><time>2026-04-11T12:03:17.03Z</time></trkpt><trkpt lat="44.9813333" lon="9.2468883"><ele>210.8</ele><time>2026-04-11T12:03:19.033Z</time></trkpt><trkpt lat="44.9813967" lon="9.2469283"><ele>206.0</ele><time>2026-04-11T12:03:21.032Z</time></trkpt><trkpt lat="44.9814667" lon="9.24695"><ele>206.0</ele><time>2026-04-11T12:03:22.033Z</time></trkpt><trkpt lat="44.98155" lon="9.2469683"><ele>206.0</ele><time>2026-04-11T12:03:23.032Z</time></trkpt><trkpt lat="44.98165" lon="9.24698"><ele>206.0</ele><time>2026-04-11T12:03:24.032Z</time></trkpt><trkpt lat="44.98176" lon="9.246995"><ele>206.0</ele><time>2026-04-11T12:03:25.029Z</time></trkpt><trkpt lat="44.98187" lon="9.2470133"><ele>206.0</ele><time>2026-04-11T12:03:26.032Z</time></trkpt><trkpt lat="44.98198" lon="9.2470483"><ele>205.75</ele><time>2026-04-11T12:03:27.034Z</time></trkpt><trkpt lat="44.9820917" lon="9.2470967"><ele>205.5</ele><time>2026-04-11T12:03:28.033Z</time></trkpt><trkpt lat="44.9821933" lon="9.24715"><ele>205.25</ele><time>2026-04-11T12:03:29.032Z</time></trkpt><trkpt lat="44.9822917" lon="9.2472233"><ele>205.0</ele><time>2026-04-11T12:03:30.032Z</time></trkpt><trkpt lat="44.9823967" lon="9.2473"><ele>202.25</ele><time>2026-04-11T12:03:31.033Z</time></trkpt><trkpt lat="44.9825067" lon="9.2473917"><ele>199.5</ele><time>2026-04-11T12:03:32.034Z</time></trkpt><trkpt lat="44.98263" lon="9.24749"><ele>196.75</ele><time>2026-04-11T12:03:33.033Z</time></trkpt><trkpt lat="44.9827583" lon="9.2475883"><ele>194.0</ele><time>2026-04-11T12:03:34.033Z</time></trkpt><trkpt lat="44.982895" lon="9.2476883"><ele>194.0</ele><time>2026-04-11T12:03:35.034Z</time></trkpt><trkpt lat="44.9830233" lon="9.2477833"><ele>194.0</ele><time>2026-04-11T12:03:36.031Z</time></trkpt><trkpt lat="44.9831483" lon="9.2478733"><ele>194.0</ele><time>2026-04-11T12:03:37.033Z</time></trkpt><trkpt lat="44.9832667" lon="9.2479617"><ele>194.0</ele><time>2026-04-11T12:03:38.031Z</time></trkpt><trkpt lat="44.9833767" lon="9.2480433"><ele>194.16666666666669</ele><time>2026-04-11T12:03:39.034Z</time></trkpt><trkpt lat="44.983475" lon="9.2481183"><ele>194.33333333333334</ele><time>2026-04-11T12:03:40.033Z</time></trkpt><trkpt lat="44.98356" lon="9.2481833"><ele>194.5</ele><time>2026-04-11T12:03:41.035Z</time></trkpt><trkpt lat="44.9836317" lon="9.24824"><ele>194.66666666666669</ele><time>2026-04-11T12:03:42.032Z</time></trkpt><trkpt lat="44.9836967" lon="9.24829"><ele>194.83333333333334</ele><time>2026-04-11T12:03:43.03Z</time></trkpt><trkpt lat="44.9837633" lon="9.24834"><ele>195.0</ele><time>2026-04-11T12:03:44.033Z</time></trkpt><trkpt lat="44.9838333" lon="9.24839"><ele>195.0</ele><time>2026-04-11T12:03:45.031Z</time></trkpt><trkpt lat="44.9839033" lon="9.2484533"><ele>195.0</ele><time>2026-04-11T12:03:46.031Z</time></trkpt><trkpt lat="44.9839683" lon="9.2485367"><ele>195.0</ele><time>2026-04-11T12:03:47.034Z</time></trkpt><trkpt lat="44.9840333" lon="9.2486467"><ele>195.0</ele><time>2026-04-11T12:03:48.034Z</time></trkpt><trkpt lat="44.9840983" lon="9.248785"><ele>195.0</ele><time>2026-04-11T12:03:49.032Z</time></trkpt><trkpt lat="44.9841583" lon="9.2489367"><ele>197.5</ele><time>2026-04-11T12:03:50.032Z</time></trkpt><trkpt lat="44.9842183" lon="9.2491033"><ele>200.0</ele><time>2026-04-11T12:03:51.034Z</time></trkpt><trkpt lat="44.9842867" lon="9.249285"><ele>202.5</ele><time>2026-04-11T12:03:52.032Z</time></trkpt><trkpt lat="44.98436" lon="9.2494717"><ele>205.0</ele><time>2026-04-11T12:03:53.034Z</time></trkpt><trkpt lat="44.98444" lon="9.2496567"><ele>202.0</ele><time>2026-04-11T12:03:54.034Z</time></trkpt><trkpt lat="44.984535" lon="9.24985"><ele>199.0</ele><time>2026-04-11T12:03:55.032Z</time></trkpt><trkpt lat="44.9846383" lon="9.2500533"><ele>196.0</ele><time>2026-04-11T12:03:56.031Z</time></trkpt><trkpt lat="44.984745" lon="9.2502567"><ele>196.0</ele><time>2026-04-11T12:03:57.03Z</time></trkpt><trkpt lat="44.98485" lon="9.25045"><ele>196.0</ele><time>2026-04-11T12:03:58.035Z</time></trkpt><trkpt lat="44.9849467" lon="9.250635"><ele>196.0</ele><time>2026-04-11T12:03:59.032Z</time></trkpt><trkpt lat="44.985035" lon="9.2508117"><ele>195.25</ele><time>2026-04-11T12:04:00.032Z</time></trkpt><trkpt lat="44.9851217" lon="9.2509783"><ele>194.5</ele><time>2026-04-11T12:04:01.034Z</time></trkpt><trkpt lat="44.9852083" lon="9.2511417"><ele>193.75</ele><time>2026-04-11T12:04:02.031Z</time></trkpt><trkpt lat="44.9853" lon="9.2513083"><ele>193.0</ele><time>2026-04-11T12:04:03.034Z</time></trkpt><trkpt lat="44.9854017" lon="9.2514967"><ele>193.0</ele><time>2026-04-11T12:04:04.031Z</time></trkpt><trkpt lat="44.985505" lon="9.2516917"><ele>193.0</ele><time>2026-04-11T12:04:05.033Z</time></trkpt><trkpt lat="44.9856" lon="9.2518783"><ele>193.0</ele><time>2026-04-11T12:04:06.032Z</time></trkpt><trkpt lat="44.9856917" lon="9.252055"><ele>193.0</ele><time>2026-04-11T12:04:07.032Z</time></trkpt><trkpt lat="44.9857767" lon="9.2522283"><ele>193.0</ele><time>2026-04-11T12:04:08.034Z</time></trkpt><trkpt lat="44.9858417" lon="9.2524033"><ele>193.0</ele><time>2026-04-11T12:04:09.032Z</time></trkpt><trkpt lat="44.9858817" lon="9.2525883"><ele>193.0</ele><time>2026-04-11T12:04:10.032Z</time></trkpt><trkpt lat="44.985905" lon="9.2527883"><ele>192.66666666666666</ele><time>2026-04-11T12:04:11.034Z</time></trkpt><trkpt lat="44.985925" lon="9.25301"><ele>192.33333333333331</ele><time>2026-04-11T12:04:12.033Z</time></trkpt><trkpt lat="44.985945" lon="9.2532467"><ele>192.0</ele><time>2026-04-11T12:04:13.034Z</time></trkpt><trkpt lat="44.9859717" lon="9.25347"><ele>192.0</ele><time>2026-04-11T12:04:14.031Z</time></trkpt><trkpt lat="44.9860117" lon="9.2536783"><ele>192.0</ele><time>2026-04-11T12:04:15.033Z</time></trkpt><trkpt lat="44.9860617" lon="9.2538683"><ele>192.0</ele><time>2026-04-11T12:04:16.032Z</time></trkpt><trkpt lat="44.9861283" lon="9.2540433"><ele>192.0</ele><time>2026-04-11T12:04:17.033Z</time></trkpt><trkpt lat="44.9862167" lon="9.2542033"><ele>190.66666666666666</ele><time>2026-04-11T12:04:18.031Z</time></trkpt><trkpt lat="44.9863233" lon="9.2543467"><ele>189.33333333333331</ele><time>2026-04-11T12:04:19.031Z</time></trkpt><trkpt lat="44.986445" lon="9.254475"><ele>188.0</ele><time>2026-04-11T12:04:20.03Z</time></trkpt><trkpt lat="44.9865833" lon="9.2546"><ele>188.0</ele><time>2026-04-11T12:04:21.033Z</time></trkpt><trkpt lat="44.9867383" lon="9.2547233"><ele>188.0</ele><time>2026-04-11T12:04:22.033Z</time></trkpt><trkpt lat="44.9868833" lon="9.2548467"><ele>188.0</ele><time>2026-04-11T12:04:23.032Z</time></trkpt><trkpt lat="44.9870183" lon="9.2549667"><ele>188.0</ele><time>2026-04-11T12:04:24.032Z</time></trkpt><trkpt lat="44.9871433" lon="9.255085"><ele>188.0</ele><time>2026-04-11T12:04:25.032Z</time></trkpt><trkpt lat="44.98726" lon="9.2552117"><ele>188.0</ele><time>2026-04-11T12:04:26.032Z</time></trkpt><trkpt lat="44.9873717" lon="9.2553517"><ele>188.0</ele><time>2026-04-11T12:04:27.034Z</time></trkpt><trkpt lat="44.9874683" lon="9.255515"><ele>188.0</ele><time>2026-04-11T12:04:28.031Z</time></trkpt><trkpt lat="44.9875433" lon="9.2556983"><ele>188.0</ele><time>2026-04-11T12:04:29.032Z</time></trkpt><trkpt lat="44.98761" lon="9.2558917"><ele>188.0</ele><time>2026-04-11T12:04:30.032Z</time></trkpt><trkpt lat="44.9876817" lon="9.25608"><ele>188.0</ele><time>2026-04-11T12:04:31.032Z</time></trkpt><trkpt lat="44.9877683" lon="9.25625"><ele>188.0</ele><time>2026-04-11T12:04:32.034Z</time></trkpt><trkpt lat="44.9878683" lon="9.2564133"><ele>188.0</ele><time>2026-04-11T12:04:33.033Z</time></trkpt><trkpt lat="44.9879817" lon="9.25658"><ele>186.0</ele><time>2026-04-11T12:04:34.032Z</time></trkpt><trkpt lat="44.988105" lon="9.25675"><ele>184.0</ele><time>2026-04-11T12:04:35.03Z</time></trkpt><trkpt lat="44.9882233" lon="9.2569133"><ele>182.0</ele><time>2026-04-11T12:04:36.033Z</time></trkpt><trkpt lat="44.98834" lon="9.257075"><ele>181.66666666666666</ele><time>2026-04-11T12:04:37.032Z</time></trkpt><trkpt lat="44.9884567" lon="9.2572383"><ele>181.33333333333334</ele><time>2026-04-11T12:04:38.033Z</time></trkpt><trkpt lat="44.9885683" lon="9.2573917"><ele>181.0</ele><time>2026-04-11T12:04:39.032Z</time></trkpt><trkpt lat="44.9886783" lon="9.2575333"><ele>181.0</ele><time>2026-04-11T12:04:40.029Z</time></trkpt><trkpt lat="44.98879" lon="9.2576633"><ele>181.0</ele><time>2026-04-11T12:04:41.031Z</time></trkpt><trkpt lat="44.9889067" lon="9.257775"><ele>181.0</ele><time>2026-04-11T12:04:42.032Z</time></trkpt><trkpt lat="44.98903" lon="9.25787"><ele>181.0</ele><time>2026-04-11T12:04:43.034Z</time></trkpt><trkpt lat="44.9891633" lon="9.2579417"><ele>180.5</ele><time>2026-04-11T12:04:44.034Z</time></trkpt><trkpt lat="44.9893033" lon="9.25799"><ele>180.0</ele><time>2026-04-11T12:04:45.034Z</time></trkpt><trkpt lat="44.98944" lon="9.25803"><ele>179.5</ele><time>2026-04-11T12:04:46.033Z</time></trkpt><trkpt lat="44.989575" lon="9.2580733"><ele>179.0</ele><time>2026-04-11T12:04:47.032Z</time></trkpt><trkpt lat="44.9897067" lon="9.258125"><ele>179.0</ele><time>2026-04-11T12:04:48.032Z</time></trkpt><trkpt lat="44.9898333" lon="9.2581883"><ele>179.0</ele><time>2026-04-11T12:04:49.033Z</time></trkpt><trkpt lat="44.989955" lon="9.2582617"><ele>179.0</ele><time>2026-04-11T12:04:50.031Z</time></trkpt><trkpt lat="44.9900717" lon="9.2583483"><ele>179.0</ele><time>2026-04-11T12:04:51.033Z</time></trkpt><trkpt lat="44.9901867" lon="9.2584517"><ele>178.0</ele><time>2026-04-11T12:04:52.032Z</time></trkpt><trkpt lat="44.9903067" lon="9.2585817"><ele>177.0</ele><time>2026-04-11T12:04:53.033Z</time></trkpt><trkpt lat="44.9904183" lon="9.25872"><ele>176.0</ele><time>2026-04-11T12:04:54.033Z</time></trkpt><trkpt lat="44.990525" lon="9.2588583"><ele>175.0</ele><time>2026-04-11T12:04:55.033Z</time></trkpt><trkpt lat="44.99063" lon="9.2589917"><ele>175.0</ele><time>2026-04-11T12:04:56.033Z</time></trkpt><trkpt lat="44.9907333" lon="9.2591183"><ele>175.0</ele><time>2026-04-11T12:04:57.034Z</time></trkpt><trkpt lat="44.99084" lon="9.25924"><ele>175.0</ele><time>2026-04-11T12:04:58.033Z</time></trkpt><trkpt lat="44.990955" lon="9.2593417"><ele>175.0</ele><time>2026-04-11T12:04:59.032Z</time></trkpt><trkpt lat="44.9910833" lon="9.2594133"><ele>178.66666666666669</ele><time>2026-04-11T12:05:00.033Z</time></trkpt><trkpt lat="44.9912233" lon="9.2594567"><ele>182.33333333333334</ele><time>2026-04-11T12:05:01.033Z</time></trkpt><trkpt lat="44.9913733" lon="9.2594767"><ele>186.0</ele><time>2026-04-11T12:05:02.033Z</time></trkpt><trkpt lat="44.9915283" lon="9.2594967"><ele>189.66666666666669</ele><time>2026-04-11T12:05:03.034Z</time></trkpt><trkpt lat="44.9916883" lon="9.25953"><ele>193.33333333333334</ele><time>2026-04-11T12:05:04.032Z</time></trkpt><trkpt lat="44.9918467" lon="9.2595817"><ele>197.0</ele><time>2026-04-11T12:05:05.032Z</time></trkpt><trkpt lat="44.9920017" lon="9.25965"><ele>197.0</ele><time>2026-04-11T12:05:06.033Z</time></trkpt><trkpt lat="44.9921517" lon="9.259725"><ele>197.0</ele><time>2026-04-11T12:05:07.031Z</time></trkpt><trkpt lat="44.9922967" lon="9.2598083"><ele>197.0</ele><time>2026-04-11T12:05:08.031Z</time></trkpt><trkpt lat="44.99244" lon="9.2598867"><ele>191.66666666666669</ele><time>2026-04-11T12:05:09.033Z</time></trkpt><trkpt lat="44.9925883" lon="9.259965"><ele>186.33333333333334</ele><time>2026-04-11T12:05:10.032Z</time></trkpt><trkpt lat="44.9927333" lon="9.26004"><ele>181.0</ele><time>2026-04-11T12:05:11.034Z</time></trkpt><trkpt lat="44.99288" lon="9.2601017"><ele>181.0</ele><time>2026-04-11T12:05:12.032Z</time></trkpt><trkpt lat="44.9930283" lon="9.2601433"><ele>181.0</ele><time>2026-04-11T12:05:13.032Z</time></trkpt><trkpt lat="44.9931767" lon="9.26017"><ele>181.0</ele><time>2026-04-11T12:05:14.031Z</time></trkpt><trkpt lat="44.9933183" lon="9.260195"><ele>181.0</ele><time>2026-04-11T12:05:15.034Z</time></trkpt><trkpt lat="44.993455" lon="9.260225"><ele>182.25</ele><time>2026-04-11T12:05:16.034Z</time></trkpt><trkpt lat="44.9935867" lon="9.2602733"><ele>183.5</ele><time>2026-04-11T12:05:17.034Z</time></trkpt><trkpt lat="44.9937067" lon="9.2603483"><ele>184.75</ele><time>2026-04-11T12:05:18.03Z</time></trkpt><trkpt lat="44.993815" lon="9.2604617"><ele>186.0</ele><time>2026-04-11T12:05:19.034Z</time></trkpt><trkpt lat="44.993905" lon="9.2606033"><ele>185.5</ele><time>2026-04-11T12:05:20.03Z</time></trkpt><trkpt lat="44.9939767" lon="9.2607683"><ele>185.0</ele><time>2026-04-11T12:05:21.034Z</time></trkpt><trkpt lat="44.99404" lon="9.2609417"><ele>184.5</ele><time>2026-04-11T12:05:22.034Z</time></trkpt><trkpt lat="44.9941133" lon="9.26111"><ele>184.0</ele><time>2026-04-11T12:05:23.034Z</time></trkpt><trkpt lat="44.9942" lon="9.2612567"><ele>184.0</ele><time>2026-04-11T12:05:24.034Z</time></trkpt><trkpt lat="44.9943" lon="9.2613933"><ele>184.0</ele><time>2026-04-11T12:05:25.033Z</time></trkpt><trkpt lat="44.9944083" lon="9.2615317"><ele>184.0</ele><time>2026-04-11T12:05:26.03Z</time></trkpt><trkpt lat="44.99452" lon="9.2616717"><ele>184.0</ele><time>2026-04-11T12:05:27.034Z</time></trkpt><trkpt lat="44.9946317" lon="9.2618183"><ele>181.0</ele><time>2026-04-11T12:05:28.031Z</time></trkpt><trkpt lat="44.9947433" lon="9.2619733"><ele>178.0</ele><time>2026-04-11T12:05:29.032Z</time></trkpt><trkpt lat="44.9948517" lon="9.26213"><ele>175.0</ele><time>2026-04-11T12:05:30.03Z</time></trkpt><trkpt lat="44.9949617" lon="9.2622817"><ele>175.0</ele><time>2026-04-11T12:05:31.033Z</time></trkpt><trkpt lat="44.9950833" lon="9.2624267"><ele>175.0</ele><time>2026-04-11T12:05:32.033Z</time></trkpt><trkpt lat="44.9952133" lon="9.2625617"><ele>175.0</ele><time>2026-04-11T12:05:33.031Z</time></trkpt><trkpt lat="44.9953433" lon="9.2626883"><ele>175.0</ele><time>2026-04-11T12:05:34.033Z</time></trkpt><trkpt lat="44.9954733" lon="9.2628033"><ele>175.0</ele><time>2026-04-11T12:05:35.032Z</time></trkpt><trkpt lat="44.9956117" lon="9.2629"><ele>175.0</ele><time>2026-04-11T12:05:36.031Z</time></trkpt><trkpt lat="44.9957533" lon="9.2629683"><ele>176.0</ele><time>2026-04-11T12:05:37.031Z</time></trkpt><trkpt lat="44.9958933" lon="9.2630117"><ele>177.0</ele><time>2026-04-11T12:05:38.031Z</time></trkpt><trkpt lat="44.996045" lon="9.2630417"><ele>178.0</ele><time>2026-04-11T12:05:39.036Z</time></trkpt><trkpt lat="44.9962033" lon="9.263075"><ele>178.0</ele><time>2026-04-11T12:05:40.032Z</time></trkpt><trkpt lat="44.9963617" lon="9.2631117"><ele>178.0</ele><time>2026-04-11T12:05:41.033Z</time></trkpt><trkpt lat="44.9965117" lon="9.2631533"><ele>178.0</ele><time>2026-04-11T12:05:42.033Z</time></trkpt><trkpt lat="44.996655" lon="9.2631933"><ele>176.0</ele><time>2026-04-11T12:05:43.033Z</time></trkpt><trkpt lat="44.9967917" lon="9.2632133"><ele>174.0</ele><time>2026-04-11T12:05:44.032Z</time></trkpt><trkpt lat="44.9969233" lon="9.2631967"><ele>172.0</ele><time>2026-04-11T12:05:45.034Z</time></trkpt><trkpt lat="44.9970483" lon="9.263135"><ele>170.0</ele><time>2026-04-11T12:05:46.032Z</time></trkpt><trkpt lat="44.9971633" lon="9.2630333"><ele>170.0</ele><time>2026-04-11T12:05:47.034Z</time></trkpt><trkpt lat="44.9972683" lon="9.2628967"><ele>170.0</ele><time>2026-04-11T12:05:48.034Z</time></trkpt><trkpt lat="44.99736" lon="9.2627533"><ele>170.0</ele><time>2026-04-11T12:05:49.034Z</time></trkpt><trkpt lat="44.9974533" lon="9.2626283"><ele>170.0</ele><time>2026-04-11T12:05:50.032Z</time></trkpt><trkpt lat="44.99755" lon="9.26253"><ele>167.0</ele><time>2026-04-11T12:05:51.03Z</time></trkpt><trkpt lat="44.9976517" lon="9.262455"><ele>164.0</ele><time>2026-04-11T12:05:52.034Z</time></trkpt><trkpt lat="44.9977617" lon="9.2624033"><ele>161.0</ele><time>2026-04-11T12:05:53.032Z</time></trkpt><trkpt lat="44.997875" lon="9.2623683"><ele>158.0</ele><time>2026-04-11T12:05:54.034Z</time></trkpt><trkpt lat="44.9980033" lon="9.2623483"><ele>158.0</ele><time>2026-04-11T12:05:55.033Z</time></trkpt><trkpt lat="44.9981433" lon="9.262345"><ele>158.0</ele><time>2026-04-11T12:05:56.033Z</time></trkpt><trkpt lat="44.9982933" lon="9.26235"><ele>158.0</ele><time>2026-04-11T12:05:57.034Z</time></trkpt><trkpt lat="44.998455" lon="9.2623617"><ele>157.66666666666666</ele><time>2026-04-11T12:05:58.033Z</time></trkpt><trkpt lat="44.9986233" lon="9.262375"><ele>157.33333333333334</ele><time>2026-04-11T12:05:59.032Z</time></trkpt><trkpt lat="44.9987983" lon="9.262385"><ele>157.0</ele><time>2026-04-11T12:06:00.032Z</time></trkpt><trkpt lat="44.9989767" lon="9.2623883"><ele>157.0</ele><time>2026-04-11T12:06:01.033Z</time></trkpt><trkpt lat="44.9991533" lon="9.2623867"><ele>157.0</ele><time>2026-04-11T12:06:02.032Z</time></trkpt><trkpt lat="44.9993283" lon="9.26239"><ele>157.0</ele><time>2026-04-11T12:06:03.033Z</time></trkpt><trkpt lat="44.9995033" lon="9.2623933"><ele>156.66666666666669</ele><time>2026-04-11T12:06:04.031Z</time></trkpt><trkpt lat="44.9996733" lon="9.2623967"><ele>156.33333333333334</ele><time>2026-04-11T12:06:05.033Z</time></trkpt><trkpt lat="44.9998417" lon="9.2624033"><ele>156.0</ele><time>2026-04-11T12:06:06.033Z</time></trkpt><trkpt lat="45.0000033" lon="9.2624067"><ele>156.0</ele><time>2026-04-11T12:06:07.034Z</time></trkpt><trkpt lat="45.00016" lon="9.2624"><ele>156.0</ele><time>2026-04-11T12:06:08.033Z</time></trkpt><trkpt lat="45.0003167" lon="9.2623833"><ele>156.0</ele><time>2026-04-11T12:06:09.033Z</time></trkpt><trkpt lat="45.0004717" lon="9.2623467"><ele>156.0</ele><time>2026-04-11T12:06:10.032Z</time></trkpt><trkpt lat="45.0006217" lon="9.2622867"><ele>156.0</ele><time>2026-04-11T12:06:11.031Z</time></trkpt><trkpt lat="45.0007633" lon="9.2622133"><ele>156.0</ele><time>2026-04-11T12:06:12.034Z</time></trkpt><trkpt lat="45.0008933" lon="9.262135"><ele>156.0</ele><time>2026-04-11T12:06:13.03Z</time></trkpt><trkpt lat="45.0010183" lon="9.262055"><ele>156.0</ele><time>2026-04-11T12:06:14.034Z</time></trkpt><trkpt lat="45.0011367" lon="9.2619767"><ele>156.0</ele><time>2026-04-11T12:06:15.033Z</time></trkpt><trkpt lat="45.0012483" lon="9.2618983"><ele>156.0</ele><time>2026-04-11T12:06:16.03Z</time></trkpt><trkpt lat="45.00136" lon="9.2618217"><ele>156.0</ele><time>2026-04-11T12:06:17.032Z</time></trkpt><trkpt lat="45.0014583" lon="9.26175"><ele>156.0</ele><time>2026-04-11T12:06:18.034Z</time></trkpt><trkpt lat="45.0015367" lon="9.2616933"><ele>156.0</ele><time>2026-04-11T12:06:19.031Z</time></trkpt><trkpt lat="45.0016033" lon="9.2616567"><ele>156.0</ele><time>2026-04-11T12:06:20.033Z</time></trkpt><trkpt lat="45.0017233" lon="9.2616633"><ele>156.0</ele><time>2026-04-11T12:06:22.033Z</time></trkpt><trkpt lat="45.001835" lon="9.26171"><ele>156.0</ele><time>2026-04-11T12:06:24.032Z</time></trkpt><trkpt lat="45.0019283" lon="9.26175"><ele>154.8</ele><time>2026-04-11T12:06:26.031Z</time></trkpt><trkpt lat="45.0020333" lon="9.26181"><ele>153.6</ele><time>2026-04-11T12:06:28.03Z</time></trkpt><trkpt lat="45.0020983" lon="9.2617817"><ele>152.4</ele><time>2026-04-11T12:06:29.034Z</time></trkpt><trkpt lat="45.0021817" lon="9.26173"><ele>151.2</ele><time>2026-04-11T12:06:30.031Z</time></trkpt><trkpt lat="45.002285" lon="9.2616683"><ele>150.0</ele><time>2026-04-11T12:06:31.033Z</time></trkpt><trkpt lat="45.0023983" lon="9.26163"><ele>149.5</ele><time>2026-04-11T12:06:32.034Z</time></trkpt><trkpt lat="45.0025067" lon="9.26162"><ele>149.0</ele><time>2026-04-11T12:06:33.032Z</time></trkpt><trkpt lat="45.0025967" lon="9.2616283"><ele>148.5</ele><time>2026-04-11T12:06:34.031Z</time></trkpt><trkpt lat="45.0026667" lon="9.26165"><ele>148.0</ele><time>2026-04-11T12:06:35.031Z</time></trkpt><trkpt lat="45.0027467" lon="9.2617533"><ele>147.5</ele><time>2026-04-11T12:06:37.033Z</time></trkpt><trkpt lat="45.0027383" lon="9.2618467"><ele>147.0</ele><time>2026-04-11T12:06:38.03Z</time></trkpt><trkpt lat="45.002725" lon="9.2619817"><ele>147.0</ele><time>2026-04-11T12:06:39.031Z</time></trkpt><trkpt lat="45.0027183" lon="9.262145"><ele>147.0</ele><time>2026-04-11T12:06:40.03Z</time></trkpt><trkpt lat="45.00273" lon="9.2623117"><ele>147.0</ele><time>2026-04-11T12:06:41.029Z</time></trkpt><trkpt lat="45.0027517" lon="9.262455"><ele>147.0</ele><time>2026-04-11T12:06:42.03Z</time></trkpt><trkpt lat="45.0027817" lon="9.2626"><ele>147.0</ele><time>2026-04-11T12:06:43.03Z</time></trkpt><trkpt lat="45.0028183" lon="9.2627517"><ele>148.0</ele><time>2026-04-11T12:06:44.03Z</time></trkpt><trkpt lat="45.0028567" lon="9.262915"><ele>149.0</ele><time>2026-04-11T12:06:45.03Z</time></trkpt><trkpt lat="45.002895" lon="9.2630767"><ele>150.0</ele><time>2026-04-11T12:06:46.03Z</time></trkpt><trkpt lat="45.00293" lon="9.263235"><ele>151.0</ele><time>2026-04-11T12:06:47.03Z</time></trkpt><trkpt lat="45.00297" lon="9.2633867"><ele>152.75</ele><time>2026-04-11T12:06:48.03Z</time></trkpt><trkpt lat="45.003015" lon="9.2635317"><ele>154.5</ele><time>2026-04-11T12:06:49.03Z</time></trkpt><trkpt lat="45.003065" lon="9.2636667"><ele>156.25</ele><time>2026-04-11T12:06:50.031Z</time></trkpt><trkpt lat="45.0031283" lon="9.2638017"><ele>158.0</ele><time>2026-04-11T12:06:51.031Z</time></trkpt><trkpt lat="45.0032033" lon="9.2639333"><ele>159.75</ele><time>2026-04-11T12:06:52.031Z</time></trkpt><trkpt lat="45.0032883" lon="9.26406"><ele>161.5</ele><time>2026-04-11T12:06:53.03Z</time></trkpt><trkpt lat="45.0033683" lon="9.2641533"><ele>163.25</ele><time>2026-04-11T12:06:54.03Z</time></trkpt><trkpt lat="45.003465" lon="9.2642333"><ele>165.0</ele><time>2026-04-11T12:06:55.03Z</time></trkpt><trkpt lat="45.0035733" lon="9.2643083"><ele>165.75</ele><time>2026-04-11T12:06:56.03Z</time></trkpt><trkpt lat="45.0036833" lon="9.2643867"><ele>166.5</ele><time>2026-04-11T12:06:57.032Z</time></trkpt><trkpt lat="45.0037983" lon="9.264465"><ele>167.25</ele><time>2026-04-11T12:06:58.031Z</time></trkpt><trkpt lat="45.0039183" lon="9.2645367"><ele>168.0</ele><time>2026-04-11T12:06:59.033Z</time></trkpt><trkpt lat="45.0040383" lon="9.264605"><ele>168.0</ele><time>2026-04-11T12:07:00.03Z</time></trkpt><trkpt lat="45.0041617" lon="9.2646717"><ele>168.0</ele><time>2026-04-11T12:07:01.03Z</time></trkpt><trkpt lat="45.00428" lon="9.2647367"><ele>168.0</ele><time>2026-04-11T12:07:02.032Z</time></trkpt><trkpt lat="45.0043967" lon="9.2648067"><ele>168.0</ele><time>2026-04-11T12:07:03.033Z</time></trkpt><trkpt lat="45.0045167" lon="9.2648817"><ele>172.25</ele><time>2026-04-11T12:07:04.031Z</time></trkpt><trkpt lat="45.004655" lon="9.2649683"><ele>176.5</ele><time>2026-04-11T12:07:05.032Z</time></trkpt><trkpt lat="45.004785" lon="9.2650517"><ele>180.75</ele><time>2026-04-11T12:07:06.032Z</time></trkpt><trkpt lat="45.004895" lon="9.2651233"><ele>185.0</ele><time>2026-04-11T12:07:07.032Z</time></trkpt><trkpt lat="45.004995" lon="9.26519"><ele>187.25</ele><time>2026-04-11T12:07:08.034Z</time></trkpt><trkpt lat="45.0050933" lon="9.2652617"><ele>189.5</ele><time>2026-04-11T12:07:09.034Z</time></trkpt><trkpt lat="45.00519" lon="9.2653367"><ele>191.75</ele><time>2026-04-11T12:07:10.033Z</time></trkpt><trkpt lat="45.0052933" lon="9.2654233"><ele>194.0</ele><time>2026-04-11T12:07:11.032Z</time></trkpt><trkpt lat="45.0053983" lon="9.2655117"><ele>194.0</ele><time>2026-04-11T12:07:12.03Z</time></trkpt><trkpt lat="45.0054983" lon="9.2656"><ele>194.0</ele><time>2026-04-11T12:07:13.03Z</time></trkpt><trkpt lat="45.0055883" lon="9.26568"><ele>194.0</ele><time>2026-04-11T12:07:14.033Z</time></trkpt><trkpt lat="45.00567" lon="9.2657583"><ele>194.0</ele><time>2026-04-11T12:07:15.03Z</time></trkpt><trkpt lat="45.00575" lon="9.2658367"><ele>194.0</ele><time>2026-04-11T12:07:16.031Z</time></trkpt><trkpt lat="45.0058267" lon="9.2659183"><ele>197.2</ele><time>2026-04-11T12:07:17.031Z</time></trkpt><trkpt lat="45.0058983" lon="9.266"><ele>200.39999999999998</ele><time>2026-04-11T12:07:18.031Z</time></trkpt><trkpt lat="45.0059683" lon="9.2660783"><ele>203.6</ele><time>2026-04-11T12:07:19.03Z</time></trkpt><trkpt lat="45.00604" lon="9.2661617"><ele>206.8</ele><time>2026-04-11T12:07:20.036Z</time></trkpt><trkpt lat="45.0061083" lon="9.266245"><ele>210.0</ele><time>2026-04-11T12:07:21.03Z</time></trkpt><trkpt lat="45.0061817" lon="9.2663133"><ele>210.0</ele><time>2026-04-11T12:07:22.031Z</time></trkpt><trkpt lat="45.0062567" lon="9.266375"><ele>210.0</ele><time>2026-04-11T12:07:23.032Z</time></trkpt><trkpt lat="45.006335" lon="9.26644"><ele>210.0</ele><time>2026-04-11T12:07:24.033Z</time></trkpt><trkpt lat="45.00641" lon="9.266515"><ele>210.0</ele><time>2026-04-11T12:07:25.03Z</time></trkpt><trkpt lat="45.0064683" lon="9.2666067"><ele>210.0</ele><time>2026-04-11T12:07:26.035Z</time></trkpt><trkpt lat="45.006525" lon="9.2667083"><ele>210.0</ele><time>2026-04-11T12:07:27.033Z</time></trkpt><trkpt lat="45.00658" lon="9.26681"><ele>211.4</ele><time>2026-04-11T12:07:28.033Z</time></trkpt><trkpt lat="45.0066367" lon="9.2669183"><ele>212.8</ele><time>2026-04-11T12:07:29.032Z</time></trkpt><trkpt lat="45.0066983" lon="9.2670283"><ele>214.2</ele><time>2026-04-11T12:07:30.032Z</time></trkpt><trkpt lat="45.0067667" lon="9.267145"><ele>215.6</ele><time>2026-04-11T12:07:31.032Z</time></trkpt><trkpt lat="45.0068433" lon="9.2672683"><ele>217.0</ele><time>2026-04-11T12:07:32.031Z</time></trkpt><trkpt lat="45.006915" lon="9.2673817"><ele>219.75</ele><time>2026-04-11T12:07:33.033Z</time></trkpt><trkpt lat="45.0069833" lon="9.267495"><ele>222.5</ele><time>2026-04-11T12:07:34.031Z</time></trkpt><trkpt lat="45.00705" lon="9.26762"><ele>225.25</ele><time>2026-04-11T12:07:35.031Z</time></trkpt><trkpt lat="45.007125" lon="9.2677533"><ele>228.0</ele><time>2026-04-11T12:07:36.034Z</time></trkpt><trkpt lat="45.0072017" lon="9.267895"><ele>228.0</ele><time>2026-04-11T12:07:37.032Z</time></trkpt><trkpt lat="45.0072783" lon="9.2680333"><ele>228.0</ele><time>2026-04-11T12:07:38.031Z</time></trkpt><trkpt lat="45.007355" lon="9.26817"><ele>228.0</ele><time>2026-04-11T12:07:39.032Z</time></trkpt><trkpt lat="45.0074317" lon="9.268305"><ele>228.0</ele><time>2026-04-11T12:07:40.031Z</time></trkpt><trkpt lat="45.0075083" lon="9.26844"><ele>231.25</ele><time>2026-04-11T12:07:41.028Z</time></trkpt><trkpt lat="45.007585" lon="9.268575"><ele>234.5</ele><time>2026-04-11T12:07:42.03Z</time></trkpt><trkpt lat="45.0076617" lon="9.2687183"><ele>237.75</ele><time>2026-04-11T12:07:43.033Z</time></trkpt><trkpt lat="45.007735" lon="9.26887"><ele>241.0</ele><time>2026-04-11T12:07:44.029Z</time></trkpt><trkpt lat="45.0078067" lon="9.2690267"><ele>242.5</ele><time>2026-04-11T12:07:45.033Z</time></trkpt><trkpt lat="45.0078733" lon="9.26918"><ele>244.0</ele><time>2026-04-11T12:07:46.031Z</time></trkpt><trkpt lat="45.00794" lon="9.269335"><ele>245.5</ele><time>2026-04-11T12:07:47.033Z</time></trkpt><trkpt lat="45.0080133" lon="9.2695"><ele>247.0</ele><time>2026-04-11T12:07:48.032Z</time></trkpt><trkpt lat="45.0080783" lon="9.26967"><ele>248.25</ele><time>2026-04-11T12:07:49.033Z</time></trkpt><trkpt lat="45.008145" lon="9.2698417"><ele>249.5</ele><time>2026-04-11T12:07:50.033Z</time></trkpt><trkpt lat="45.00822" lon="9.270015"><ele>250.75</ele><time>2026-04-11T12:07:51.033Z</time></trkpt><trkpt lat="45.0082983" lon="9.27019"><ele>252.0</ele><time>2026-04-11T12:07:52.033Z</time></trkpt><trkpt lat="45.0083833" lon="9.2703683"><ele>252.66666666666669</ele><time>2026-04-11T12:07:53.033Z</time></trkpt><trkpt lat="45.0084683" lon="9.27055"><ele>253.33333333333334</ele><time>2026-04-11T12:07:54.033Z</time></trkpt><trkpt lat="45.0085567" lon="9.2707383"><ele>254.0</ele><time>2026-04-11T12:07:55.033Z</time></trkpt><trkpt lat="45.0086483" lon="9.27093"><ele>255.33333333333334</ele><time>2026-04-11T12:07:56.032Z</time></trkpt><trkpt lat="45.00874" lon="9.27112"><ele>256.6666666666667</ele><time>2026-04-11T12:07:57.032Z</time></trkpt><trkpt lat="45.008825" lon="9.2713017"><ele>258.0</ele><time>2026-04-11T12:07:58.033Z</time></trkpt><trkpt lat="45.008905" lon="9.271485"><ele>259.75</ele><time>2026-04-11T12:07:59.033Z</time></trkpt><trkpt lat="45.0089833" lon="9.2716667"><ele>261.5</ele><time>2026-04-11T12:08:00.033Z</time></trkpt><trkpt lat="45.0090567" lon="9.2718417"><ele>263.25</ele><time>2026-04-11T12:08:01.037Z</time></trkpt><trkpt lat="45.0091283" lon="9.2720033"><ele>265.0</ele><time>2026-04-11T12:08:02.034Z</time></trkpt><trkpt lat="45.0092067" lon="9.272145"><ele>267.5</ele><time>2026-04-11T12:08:03.033Z</time></trkpt><trkpt lat="45.0092867" lon="9.2722733"><ele>270.0</ele><time>2026-04-11T12:08:04.034Z</time></trkpt><trkpt lat="45.0093667" lon="9.2723967"><ele>272.5</ele><time>2026-04-11T12:08:05.033Z</time></trkpt><trkpt lat="45.0094433" lon="9.27252"><ele>275.0</ele><time>2026-04-11T12:08:06.029Z</time></trkpt><trkpt lat="45.00951" lon="9.2726383"><ele>275.0</ele><time>2026-04-11T12:08:07.033Z</time></trkpt><trkpt lat="45.0095633" lon="9.2727467"><ele>275.0</ele><time>2026-04-11T12:08:08.033Z</time></trkpt><trkpt lat="45.0096067" lon="9.2728383"><ele>275.0</ele><time>2026-04-11T12:08:09.034Z</time></trkpt><trkpt lat="45.009665" lon="9.27297"><ele>275.0</ele><time>2026-04-11T12:08:11.033Z</time></trkpt><trkpt lat="45.0097133" lon="9.2730717"><ele>275.0</ele><time>2026-04-11T12:08:13.031Z</time></trkpt><trkpt lat="45.0097467" lon="9.27315"><ele>275.0</ele><time>2026-04-11T12:08:14.033Z</time></trkpt><trkpt lat="45.0097883" lon="9.2732467"><ele>276.25</ele><time>2026-04-11T12:08:15.034Z</time></trkpt><trkpt lat="45.00985" lon="9.2733533"><ele>277.5</ele><time>2026-04-11T12:08:16.032Z</time></trkpt><trkpt lat="45.0099317" lon="9.2734983"><ele>278.75</ele><time>2026-04-11T12:08:17.033Z</time></trkpt><trkpt lat="45.0100133" lon="9.2736583"><ele>280.0</ele><time>2026-04-11T12:08:18.033Z</time></trkpt><trkpt lat="45.0100917" lon="9.2738167"><ele>283.25</ele><time>2026-04-11T12:08:19.033Z</time></trkpt><trkpt lat="45.010165" lon="9.27398"><ele>286.5</ele><time>2026-04-11T12:08:20.033Z</time></trkpt><trkpt lat="45.0102283" lon="9.2741383"><ele>289.75</ele><time>2026-04-11T12:08:21.034Z</time></trkpt><trkpt lat="45.010285" lon="9.274295"><ele>293.0</ele><time>2026-04-11T12:08:22.032Z</time></trkpt><trkpt lat="45.0103317" lon="9.2744383"><ele>293.0</ele><time>2026-04-11T12:08:23.032Z</time></trkpt><trkpt lat="45.01037" lon="9.2745667"><ele>293.0</ele><time>2026-04-11T12:08:24.031Z</time></trkpt><trkpt lat="45.0104017" lon="9.2746717"><ele>293.0</ele><time>2026-04-11T12:08:25.029Z</time></trkpt><trkpt lat="45.01044" lon="9.2748167"><ele>293.0</ele><time>2026-04-11T12:08:27.033Z</time></trkpt><trkpt lat="45.0104783" lon="9.274935"><ele>293.0</ele><time>2026-04-11T12:08:40.029Z</time></trkpt><trkpt lat="45.0105133" lon="9.2750417"><ele>293.1666666666667</ele><time>2026-04-11T12:08:46.033Z</time></trkpt><trkpt lat="45.0105283" lon="9.27513"><ele>293.33333333333337</ele><time>2026-04-11T12:08:47.031Z</time></trkpt><trkpt lat="45.01052" lon="9.2752367"><ele>293.5</ele><time>2026-04-11T12:08:48.033Z</time></trkpt><trkpt lat="45.0104967" lon="9.2753567"><ele>293.6666666666667</ele><time>2026-04-11T12:08:49.032Z</time></trkpt><trkpt lat="45.01047" lon="9.27549"><ele>293.8333333333333</ele><time>2026-04-11T12:08:50.033Z</time></trkpt><trkpt lat="45.0104583" lon="9.2756417"><ele>294.0</ele><time>2026-04-11T12:08:51.033Z</time></trkpt><trkpt lat="45.0104617" lon="9.2757983"><ele>294.0</ele><time>2026-04-11T12:08:52.032Z</time></trkpt><trkpt lat="45.010475" lon="9.27595"><ele>294.0</ele><time>2026-04-11T12:08:53.032Z</time></trkpt><trkpt lat="45.0104983" lon="9.276085"><ele>294.0</ele><time>2026-04-11T12:08:54.032Z</time></trkpt><trkpt lat="45.010545" lon="9.2761967"><ele>294.0</ele><time>2026-04-11T12:08:55.032Z</time></trkpt><trkpt lat="45.0106117" lon="9.2762933"><ele>294.0</ele><time>2026-04-11T12:08:56.032Z</time></trkpt><trkpt lat="45.0106983" lon="9.2763833"><ele>293.25</ele><time>2026-04-11T12:08:57.034Z</time></trkpt><trkpt lat="45.0107933" lon="9.27648"><ele>292.5</ele><time>2026-04-11T12:08:58.033Z</time></trkpt><trkpt lat="45.01089" lon="9.276595"><ele>291.75</ele><time>2026-04-11T12:08:59.032Z</time></trkpt><trkpt lat="45.010975" lon="9.27673"><ele>291.0</ele><time>2026-04-11T12:09:00.033Z</time></trkpt><trkpt lat="45.011055" lon="9.276875"><ele>291.25</ele><time>2026-04-11T12:09:01.033Z</time></trkpt><trkpt lat="45.0111317" lon="9.277025"><ele>291.5</ele><time>2026-04-11T12:09:02.031Z</time></trkpt><trkpt lat="45.0112067" lon="9.2771667"><ele>291.75</ele><time>2026-04-11T12:09:03.034Z</time></trkpt><trkpt lat="45.01128" lon="9.277305"><ele>292.0</ele><time>2026-04-11T12:09:04.033Z</time></trkpt><trkpt lat="45.0113517" lon="9.2774367"><ele>292.0</ele><time>2026-04-11T12:09:05.033Z</time></trkpt><trkpt lat="45.0114183" lon="9.2775667"><ele>292.0</ele><time>2026-04-11T12:09:06.032Z</time></trkpt><trkpt lat="45.0114817" lon="9.2776917"><ele>292.0</ele><time>2026-04-11T12:09:07.03Z</time></trkpt><trkpt lat="45.01154" lon="9.277815"><ele>292.0</ele><time>2026-04-11T12:09:08.032Z</time></trkpt><trkpt lat="45.0115883" lon="9.2779383"><ele>292.0</ele><time>2026-04-11T12:09:09.033Z</time></trkpt><trkpt lat="45.01163" lon="9.278055"><ele>291.6</ele><time>2026-04-11T12:09:10.034Z</time></trkpt><trkpt lat="45.0116617" lon="9.27817"><ele>291.2</ele><time>2026-04-11T12:09:11.033Z</time></trkpt><trkpt lat="45.01168" lon="9.2782883"><ele>290.8</ele><time>2026-04-11T12:09:12.033Z</time></trkpt><trkpt lat="45.0116867" lon="9.2784067"><ele>290.4</ele><time>2026-04-11T12:09:13.031Z</time></trkpt><trkpt lat="45.011675" lon="9.2785383"><ele>290.0</ele><time>2026-04-11T12:09:14.032Z</time></trkpt><trkpt lat="45.011655" lon="9.2786867"><ele>290.0</ele><time>2026-04-11T12:09:15.033Z</time></trkpt><trkpt lat="45.0116317" lon="9.27885"><ele>290.0</ele><time>2026-04-11T12:09:16.032Z</time></trkpt><trkpt lat="45.0116033" lon="9.279025"><ele>290.0</ele><time>2026-04-11T12:09:17.033Z</time></trkpt><trkpt lat="45.0115667" lon="9.2791767"><ele>290.0</ele><time>2026-04-11T12:09:18.033Z</time></trkpt><trkpt lat="45.01152" lon="9.279325"><ele>287.8</ele><time>2026-04-11T12:09:19.033Z</time></trkpt><trkpt lat="45.011465" lon="9.2794633"><ele>285.6</ele><time>2026-04-11T12:09:20.033Z</time></trkpt><trkpt lat="45.01141" lon="9.2796033"><ele>283.4</ele><time>2026-04-11T12:09:21.034Z</time></trkpt><trkpt lat="45.0113617" lon="9.2797417"><ele>281.2</ele><time>2026-04-11T12:09:22.032Z</time></trkpt><trkpt lat="45.01132" lon="9.27989"><ele>279.0</ele><time>2026-04-11T12:09:23.032Z</time></trkpt><trkpt lat="45.01129" lon="9.2800467"><ele>277.5</ele><time>2026-04-11T12:09:24.033Z</time></trkpt><trkpt lat="45.0112767" lon="9.2802083"><ele>276.0</ele><time>2026-04-11T12:09:25.031Z</time></trkpt><trkpt lat="45.0112717" lon="9.2803817"><ele>274.5</ele><time>2026-04-11T12:09:26.033Z</time></trkpt><trkpt lat="45.011265" lon="9.2805517"><ele>273.0</ele><time>2026-04-11T12:09:27.033Z</time></trkpt><trkpt lat="45.0112467" lon="9.2807167"><ele>272.4</ele><time>2026-04-11T12:09:28.032Z</time></trkpt><trkpt lat="45.0112183" lon="9.2808717"><ele>271.8</ele><time>2026-04-11T12:09:29.034Z</time></trkpt><trkpt lat="45.0111817" lon="9.2810183"><ele>271.2</ele><time>2026-04-11T12:09:30.029Z</time></trkpt><trkpt lat="45.0111367" lon="9.2811567"><ele>270.6</ele><time>2026-04-11T12:09:31.03Z</time></trkpt><trkpt lat="45.0110917" lon="9.281295"><ele>270.0</ele><time>2026-04-11T12:09:32.032Z</time></trkpt><trkpt lat="45.01104" lon="9.2814283"><ele>268.6</ele><time>2026-04-11T12:09:33.03Z</time></trkpt><trkpt lat="45.0109817" lon="9.2815583"><ele>267.2</ele><time>2026-04-11T12:09:34.029Z</time></trkpt><trkpt lat="45.0109267" lon="9.2816867"><ele>265.8</ele><time>2026-04-11T12:09:35.029Z</time></trkpt><trkpt lat="45.0108667" lon="9.2818"><ele>264.4</ele><time>2026-04-11T12:09:36.028Z</time></trkpt><trkpt lat="45.0108033" lon="9.2819333"><ele>263.0</ele><time>2026-04-11T12:09:37.029Z</time></trkpt><trkpt lat="45.01074" lon="9.2820717"><ele>261.8</ele><time>2026-04-11T12:09:38.029Z</time></trkpt><trkpt lat="45.01068" lon="9.2822167"><ele>260.6</ele><time>2026-04-11T12:09:39.03Z</time></trkpt><trkpt lat="45.0106183" lon="9.2823533"><ele>259.4</ele><time>2026-04-11T12:09:40.032Z</time></trkpt><trkpt lat="45.0105583" lon="9.28248"><ele>258.2</ele><time>2026-04-11T12:09:41.03Z</time></trkpt><trkpt lat="45.0105" lon="9.282605"><ele>257.0</ele><time>2026-04-11T12:09:42.031Z</time></trkpt><trkpt lat="45.010445" lon="9.28272"><ele>256.2</ele><time>2026-04-11T12:09:43.029Z</time></trkpt><trkpt lat="45.0103917" lon="9.282835"><ele>255.39999999999998</ele><time>2026-04-11T12:09:44.031Z</time></trkpt><trkpt lat="45.0103383" lon="9.2829567"><ele>254.60000000000002</ele><time>2026-04-11T12:09:45.032Z</time></trkpt><trkpt lat="45.0102867" lon="9.28308"><ele>253.8</ele><time>2026-04-11T12:09:46.033Z</time></trkpt><trkpt lat="45.01024" lon="9.2832083"><ele>253.0</ele><time>2026-04-11T12:09:47.033Z</time></trkpt><trkpt lat="45.0101967" lon="9.2833317"><ele>252.33333333333331</ele><time>2026-04-11T12:09:48.031Z</time></trkpt><trkpt lat="45.010155" lon="9.28345"><ele>251.66666666666666</ele><time>2026-04-11T12:09:49.032Z</time></trkpt><trkpt lat="45.010115" lon="9.2835517"><ele>251.0</ele><time>2026-04-11T12:09:50.032Z</time></trkpt><trkpt lat="45.0100733" lon="9.2836433"><ele>250.33333333333331</ele><time>2026-04-11T12:09:51.032Z</time></trkpt><trkpt lat="45.0100333" lon="9.28373"><ele>249.66666666666666</ele><time>2026-04-11T12:09:52.03Z</time></trkpt><trkpt lat="45.010005" lon="9.2838133"><ele>249.0</ele><time>2026-04-11T12:09:53.032Z</time></trkpt><trkpt lat="45.0099467" lon="9.28397"><ele>247.16666666666666</ele><time>2026-04-11T12:09:55.033Z</time></trkpt><trkpt lat="45.00991" lon="9.2840467"><ele>245.33333333333331</ele><time>2026-04-11T12:09:56.029Z</time></trkpt><trkpt lat="45.0098717" lon="9.28413"><ele>243.5</ele><time>2026-04-11T12:09:57.03Z</time></trkpt><trkpt lat="45.0098183" lon="9.284215"><ele>241.66666666666666</ele><time>2026-04-11T12:09:58.03Z</time></trkpt><trkpt lat="45.00977" lon="9.28431"><ele>239.83333333333331</ele><time>2026-04-11T12:09:59.031Z</time></trkpt><trkpt lat="45.00972" lon="9.284415"><ele>238.0</ele><time>2026-04-11T12:10:00.029Z</time></trkpt><trkpt lat="45.00967" lon="9.28452"><ele>238.0</ele><time>2026-04-11T12:10:01.03Z</time></trkpt><trkpt lat="45.0096233" lon="9.2846367"><ele>238.0</ele><time>2026-04-11T12:10:02.032Z</time></trkpt><trkpt lat="45.0095683" lon="9.28476"><ele>238.0</ele><time>2026-04-11T12:10:03.031Z</time></trkpt><trkpt lat="45.0095167" lon="9.2848833"><ele>238.0</ele><time>2026-04-11T12:10:04.033Z</time></trkpt><trkpt lat="45.0094733" lon="9.2850033"><ele>238.0</ele><time>2026-04-11T12:10:05.028Z</time></trkpt><trkpt lat="45.009425" lon="9.2851183"><ele>237.0</ele><time>2026-04-11T12:10:06.031Z</time></trkpt><trkpt lat="45.0093833" lon="9.2852217"><ele>236.0</ele><time>2026-04-11T12:10:07.029Z</time></trkpt><trkpt lat="45.009345" lon="9.2853283"><ele>235.0</ele><time>2026-04-11T12:10:08.029Z</time></trkpt><trkpt lat="45.0093" lon="9.2854433"><ele>234.0</ele><time>2026-04-11T12:10:09.031Z</time></trkpt><trkpt lat="45.0092433" lon="9.2855617"><ele>233.0</ele><time>2026-04-11T12:10:10.033Z</time></trkpt><trkpt lat="45.00918" lon="9.28568"><ele>230.2</ele><time>2026-04-11T12:10:11.032Z</time></trkpt><trkpt lat="45.009115" lon="9.285795"><ele>227.4</ele><time>2026-04-11T12:10:12.029Z</time></trkpt><trkpt lat="45.00904" lon="9.2859017"><ele>224.59999999999997</ele><time>2026-04-11T12:10:13.029Z</time></trkpt><trkpt lat="45.00896" lon="9.2860033"><ele>221.79999999999998</ele><time>2026-04-11T12:10:14.029Z</time></trkpt><trkpt lat="45.0088767" lon="9.2861017"><ele>219.0</ele><time>2026-04-11T12:10:15.029Z</time></trkpt><trkpt lat="45.008795" lon="9.286205"><ele>219.0</ele><time>2026-04-11T12:10:16.03Z</time></trkpt><trkpt lat="45.0087183" lon="9.28632"><ele>218.99999999999997</ele><time>2026-04-11T12:10:17.033Z</time></trkpt><trkpt lat="45.0086517" lon="9.2864417"><ele>218.99999999999997</ele><time>2026-04-11T12:10:18.029Z</time></trkpt><trkpt lat="45.0085833" lon="9.2865617"><ele>219.0</ele><time>2026-04-11T12:10:19.029Z</time></trkpt><trkpt lat="45.0085083" lon="9.2866667"><ele>219.0</ele><time>2026-04-11T12:10:20.03Z</time></trkpt><trkpt lat="45.00844" lon="9.286765"><ele>218.0</ele><time>2026-04-11T12:10:21.03Z</time></trkpt><trkpt lat="45.0083833" lon="9.2868783"><ele>216.99999999999997</ele><time>2026-04-11T12:10:22.029Z</time></trkpt><trkpt lat="45.0083317" lon="9.2869983"><ele>215.99999999999997</ele><time>2026-04-11T12:10:23.029Z</time></trkpt><trkpt lat="45.0082783" lon="9.2871083"><ele>215.0</ele><time>2026-04-11T12:10:24.029Z</time></trkpt><trkpt lat="45.0082217" lon="9.2872167"><ele>214.0</ele><time>2026-04-11T12:10:25.029Z</time></trkpt><trkpt lat="45.00816" lon="9.28733"><ele>211.75</ele><time>2026-04-11T12:10:26.029Z</time></trkpt><trkpt lat="45.008085" lon="9.2874533"><ele>209.5</ele><time>2026-04-11T12:10:27.03Z</time></trkpt><trkpt lat="45.0080033" lon="9.28759"><ele>207.25</ele><time>2026-04-11T12:10:28.03Z</time></trkpt><trkpt lat="45.007925" lon="9.287735"><ele>205.0</ele><time>2026-04-11T12:10:29.029Z</time></trkpt><trkpt lat="45.0078533" lon="9.2878733"><ele>205.0</ele><time>2026-04-11T12:10:30.029Z</time></trkpt><trkpt lat="45.00779" lon="9.2880133"><ele>205.0</ele><time>2026-04-11T12:10:31.029Z</time></trkpt><trkpt lat="45.0077283" lon="9.28815"><ele>205.0</ele><time>2026-04-11T12:10:32.029Z</time></trkpt><trkpt lat="45.0076817" lon="9.28828"><ele>205.0</ele><time>2026-04-11T12:10:33.03Z</time></trkpt><trkpt lat="45.0076617" lon="9.2884117"><ele>205.0</ele><time>2026-04-11T12:10:34.03Z</time></trkpt><trkpt lat="45.0076783" lon="9.2885367"><ele>204.25</ele><time>2026-04-11T12:10:35.03Z</time></trkpt><trkpt lat="45.0077267" lon="9.2886633"><ele>203.5</ele><time>2026-04-11T12:10:36.029Z</time></trkpt><trkpt lat="45.007795" lon="9.288785"><ele>202.75</ele><time>2026-04-11T12:10:37.029Z</time></trkpt><trkpt lat="45.0078733" lon="9.28891"><ele>202.0</ele><time>2026-04-11T12:10:38.029Z</time></trkpt><trkpt lat="45.0079717" lon="9.2890367"><ele>202.0</ele><time>2026-04-11T12:10:39.03Z</time></trkpt><trkpt lat="45.008075" lon="9.2891683"><ele>202.0</ele><time>2026-04-11T12:10:40.029Z</time></trkpt><trkpt lat="45.008175" lon="9.2893017"><ele>202.0</ele><time>2026-04-11T12:10:41.033Z</time></trkpt><trkpt lat="45.0082817" lon="9.28944"><ele>202.0</ele><time>2026-04-11T12:10:42.031Z</time></trkpt><trkpt lat="45.008375" lon="9.289565"><ele>202.0</ele><time>2026-04-11T12:10:43.03Z</time></trkpt><trkpt lat="45.0084633" lon="9.28968"><ele>202.0</ele><time>2026-04-11T12:10:44.029Z</time></trkpt><trkpt lat="45.0085533" lon="9.2897833"><ele>202.0</ele><time>2026-04-11T12:10:45.034Z</time></trkpt><trkpt lat="45.0086533" lon="9.2899"><ele>202.0</ele><time>2026-04-11T12:10:46.029Z</time></trkpt><trkpt lat="45.0087617" lon="9.2900217"><ele>202.0</ele><time>2026-04-11T12:10:47.029Z</time></trkpt><trkpt lat="45.008865" lon="9.29014"><ele>202.0</ele><time>2026-04-11T12:10:48.029Z</time></trkpt><trkpt lat="45.0089817" lon="9.2902133"><ele>202.0</ele><time>2026-04-11T12:10:49.03Z</time></trkpt><trkpt lat="45.0091083" lon="9.290265"><ele>202.0</ele><time>2026-04-11T12:10:50.032Z</time></trkpt><trkpt lat="45.0092367" lon="9.2903033"><ele>202.0</ele><time>2026-04-11T12:10:51.033Z</time></trkpt><trkpt lat="45.009365" lon="9.2903383"><ele>202.0</ele><time>2026-04-11T12:10:52.03Z</time></trkpt><trkpt lat="45.0094817" lon="9.2903783"><ele>202.0</ele><time>2026-04-11T12:10:53.03Z</time></trkpt><trkpt lat="45.0095933" lon="9.2904283"><ele>202.0</ele><time>2026-04-11T12:10:54.03Z</time></trkpt><trkpt lat="45.00968" lon="9.2905033"><ele>200.75</ele><time>2026-04-11T12:10:55.03Z</time></trkpt><trkpt lat="45.0097517" lon="9.2906083"><ele>199.5</ele><time>2026-04-11T12:10:56.03Z</time></trkpt><trkpt lat="45.0098033" lon="9.2907617"><ele>198.25</ele><time>2026-04-11T12:10:57.03Z</time></trkpt><trkpt lat="45.0098167" lon="9.2909267"><ele>197.0</ele><time>2026-04-11T12:10:58.029Z</time></trkpt><trkpt lat="45.0097967" lon="9.2911"><ele>197.0</ele><time>2026-04-11T12:10:59.033Z</time></trkpt><trkpt lat="45.0097633" lon="9.291265"><ele>197.0</ele><time>2026-04-11T12:11:00.032Z</time></trkpt><trkpt lat="45.0097417" lon="9.291415"><ele>197.0</ele><time>2026-04-11T12:11:01.029Z</time></trkpt><trkpt lat="45.0097467" lon="9.29156"><ele>197.0</ele><time>2026-04-11T12:11:02.029Z</time></trkpt><trkpt lat="45.0097833" lon="9.2917083"><ele>197.0</ele><time>2026-04-11T12:11:03.03Z</time></trkpt><trkpt lat="45.0098317" lon="9.2918367"><ele>196.50000000000003</ele><time>2026-04-11T12:11:04.029Z</time></trkpt><trkpt lat="45.0098783" lon="9.2919483"><ele>196.0</ele><time>2026-04-11T12:11:05.029Z</time></trkpt><trkpt lat="45.0099067" lon="9.2920283"><ele>195.5</ele><time>2026-04-11T12:11:06.029Z</time></trkpt><trkpt lat="45.0099617" lon="9.29208"><ele>195.0</ele><time>2026-04-11T12:11:08.03Z</time></trkpt><trkpt lat="45.0100383" lon="9.2919817"><ele>194.50000000000003</ele><time>2026-04-11T12:11:10.03Z</time></trkpt><trkpt lat="45.0100883" lon="9.2919017"><ele>194.0</ele><time>2026-04-11T12:11:11.035Z</time></trkpt><trkpt lat="45.0101533" lon="9.2918217"><ele>195.2</ele><time>2026-04-11T12:11:12.033Z</time></trkpt><trkpt lat="45.010235" lon="9.2917617"><ele>196.39999999999998</ele><time>2026-04-11T12:11:13.037Z</time></trkpt><trkpt lat="45.0103233" lon="9.291735"><ele>197.6</ele><time>2026-04-11T12:11:14.034Z</time></trkpt><trkpt lat="45.010415" lon="9.2917617"><ele>198.8</ele><time>2026-04-11T12:11:15.034Z</time></trkpt><trkpt lat="45.010505" lon="9.2917933"><ele>200.0</ele><time>2026-04-11T12:11:16.034Z</time></trkpt><trkpt lat="45.0106" lon="9.2918183"><ele>200.00000000000003</ele><time>2026-04-11T12:11:17.034Z</time></trkpt><trkpt lat="45.0106933" lon="9.29185"><ele>200.0</ele><time>2026-04-11T12:11:18.032Z</time></trkpt><trkpt lat="45.0107767" lon="9.2918817"><ele>200.0</ele><time>2026-04-11T12:11:19.035Z</time></trkpt><trkpt lat="45.0108533" lon="9.2918933"><ele>200.0</ele><time>2026-04-11T12:11:20.034Z</time></trkpt><trkpt lat="45.0109133" lon="9.29186"><ele>200.00000000000003</ele><time>2026-04-11T12:11:21.037Z</time></trkpt><trkpt lat="45.0109683" lon="9.2917933"><ele>200.0</ele><time>2026-04-11T12:11:22.034Z</time></trkpt><trkpt lat="45.0110217" lon="9.291745"><ele>200.66666666666669</ele><time>2026-04-11T12:11:23.036Z</time></trkpt><trkpt lat="45.0110883" lon="9.2917317"><ele>201.33333333333334</ele><time>2026-04-11T12:11:24.034Z</time></trkpt><trkpt lat="45.0111633" lon="9.2917517"><ele>202.0</ele><time>2026-04-11T12:11:25.035Z</time></trkpt><trkpt lat="45.0112533" lon="9.2917517"><ele>202.66666666666669</ele><time>2026-04-11T12:11:26.033Z</time></trkpt><trkpt lat="45.0113383" lon="9.2916983"><ele>203.33333333333334</ele><time>2026-04-11T12:11:27.034Z</time></trkpt><trkpt lat="45.0114067" lon="9.2916117"><ele>204.0</ele><time>2026-04-11T12:11:28.033Z</time></trkpt><trkpt lat="45.01146" lon="9.2915133"><ele>204.2</ele><time>2026-04-11T12:11:29.034Z</time></trkpt><trkpt lat="45.0115" lon="9.2913933"><ele>204.39999999999998</ele><time>2026-04-11T12:11:30.031Z</time></trkpt><trkpt lat="45.011515" lon="9.29125"><ele>204.6</ele><time>2026-04-11T12:11:31.031Z</time></trkpt><trkpt lat="45.01152" lon="9.2910983"><ele>204.8</ele><time>2026-04-11T12:11:32.032Z</time></trkpt><trkpt lat="45.0115167" lon="9.290935"><ele>205.0</ele><time>2026-04-11T12:11:33.032Z</time></trkpt><trkpt lat="45.0115067" lon="9.290765"><ele>206.0</ele><time>2026-04-11T12:11:34.033Z</time></trkpt><trkpt lat="45.0114983" lon="9.29059"><ele>207.0</ele><time>2026-04-11T12:11:35.032Z</time></trkpt><trkpt lat="45.01149" lon="9.29041"><ele>208.0</ele><time>2026-04-11T12:11:36.031Z</time></trkpt><trkpt lat="45.01148" lon="9.2902333"><ele>209.0</ele><time>2026-04-11T12:11:37.032Z</time></trkpt><trkpt lat="45.01147" lon="9.2900617"><ele>209.0</ele><time>2026-04-11T12:11:38.031Z</time></trkpt><trkpt lat="45.0114617" lon="9.2898917"><ele>209.0</ele><time>2026-04-11T12:11:39.03Z</time></trkpt><trkpt lat="45.01146" lon="9.2897317"><ele>209.0</ele><time>2026-04-11T12:11:40.031Z</time></trkpt><trkpt lat="45.011465" lon="9.2895883"><ele>209.0</ele><time>2026-04-11T12:11:41.029Z</time></trkpt><trkpt lat="45.0114933" lon="9.289465"><ele>209.0</ele><time>2026-04-11T12:11:42.029Z</time></trkpt><trkpt lat="45.01154" lon="9.28938"><ele>210.0</ele><time>2026-04-11T12:11:43.03Z</time></trkpt><trkpt lat="45.011605" lon="9.289345"><ele>211.0</ele><time>2026-04-11T12:11:44.032Z</time></trkpt><trkpt lat="45.011685" lon="9.2893433"><ele>211.99999999999997</ele><time>2026-04-11T12:11:45.03Z</time></trkpt><trkpt lat="45.0117783" lon="9.2893633"><ele>213.0</ele><time>2026-04-11T12:11:46.032Z</time></trkpt><trkpt lat="45.0118833" lon="9.2893783"><ele>214.0</ele><time>2026-04-11T12:11:47.029Z</time></trkpt><trkpt lat="45.0120033" lon="9.2893917"><ele>214.6</ele><time>2026-04-11T12:11:48.029Z</time></trkpt><trkpt lat="45.01212" lon="9.2894233"><ele>215.2</ele><time>2026-04-11T12:11:49.03Z</time></trkpt><trkpt lat="45.0122283" lon="9.2894767"><ele>215.79999999999998</ele><time>2026-04-11T12:11:50.03Z</time></trkpt><trkpt lat="45.012325" lon="9.2895317"><ele>216.39999999999998</ele><time>2026-04-11T12:11:51.031Z</time></trkpt><trkpt lat="45.012415" lon="9.2895667"><ele>217.0</ele><time>2026-04-11T12:11:52.03Z</time></trkpt><trkpt lat="45.0125" lon="9.2895767"><ele>217.16666666666666</ele><time>2026-04-11T12:11:53.029Z</time></trkpt><trkpt lat="45.0125833" lon="9.28956"><ele>217.33333333333331</ele><time>2026-04-11T12:11:54.031Z</time></trkpt><trkpt lat="45.0126533" lon="9.2895083"><ele>217.5</ele><time>2026-04-11T12:11:55.033Z</time></trkpt><trkpt lat="45.01273" lon="9.2894617"><ele>217.66666666666669</ele><time>2026-04-11T12:11:56.031Z</time></trkpt><trkpt lat="45.0128133" lon="9.2894417"><ele>217.83333333333334</ele><time>2026-04-11T12:11:57.03Z</time></trkpt><trkpt lat="45.0129067" lon="9.2894767"><ele>218.0</ele><time>2026-04-11T12:11:58.03Z</time></trkpt><trkpt lat="45.0130083" lon="9.2895133"><ele>218.0</ele><time>2026-04-11T12:11:59.03Z</time></trkpt><trkpt lat="45.0131167" lon="9.2895383"><ele>218.0</ele><time>2026-04-11T12:12:00.028Z</time></trkpt><trkpt lat="45.0132283" lon="9.2895383"><ele>218.0</ele><time>2026-04-11T12:12:01.029Z</time></trkpt><trkpt lat="45.0133317" lon="9.2895"><ele>218.0</ele><time>2026-04-11T12:12:02.03Z</time></trkpt><trkpt lat="45.0134283" lon="9.28942"><ele>218.0</ele><time>2026-04-11T12:12:03.032Z</time></trkpt><trkpt lat="45.0135117" lon="9.2893117"><ele>219.75</ele><time>2026-04-11T12:12:04.03Z</time></trkpt><trkpt lat="45.0135967" lon="9.2891833"><ele>221.5</ele><time>2026-04-11T12:12:05.033Z</time></trkpt><trkpt lat="45.0136867" lon="9.2890417"><ele>223.25</ele><time>2026-04-11T12:12:06.033Z</time></trkpt><trkpt lat="45.0137817" lon="9.2888933"><ele>225.0</ele><time>2026-04-11T12:12:07.034Z</time></trkpt><trkpt lat="45.0138667" lon="9.288745"><ele>227.0</ele><time>2026-04-11T12:12:08.033Z</time></trkpt><trkpt lat="45.01395" lon="9.288595"><ele>229.0</ele><time>2026-04-11T12:12:09.033Z</time></trkpt><trkpt lat="45.0140333" lon="9.288465"><ele>231.0</ele><time>2026-04-11T12:12:10.031Z</time></trkpt><trkpt lat="45.0141233" lon="9.2883333"><ele>233.0</ele><time>2026-04-11T12:12:11.033Z</time></trkpt><trkpt lat="45.0142183" lon="9.2882233"><ele>233.25</ele><time>2026-04-11T12:12:12.029Z</time></trkpt><trkpt lat="45.0143317" lon="9.2881483"><ele>233.5</ele><time>2026-04-11T12:12:13.031Z</time></trkpt><trkpt lat="45.0144467" lon="9.288115"><ele>233.75</ele><time>2026-04-11T12:12:14.033Z</time></trkpt><trkpt lat="45.0145517" lon="9.2880617"><ele>234.0</ele><time>2026-04-11T12:12:15.034Z</time></trkpt><trkpt lat="45.0146233" lon="9.2879633"><ele>235.75</ele><time>2026-04-11T12:12:16.032Z</time></trkpt><trkpt lat="45.0146633" lon="9.28782"><ele>237.5</ele><time>2026-04-11T12:12:17.034Z</time></trkpt><trkpt lat="45.014675" lon="9.2876533"><ele>239.25</ele><time>2026-04-11T12:12:18.033Z</time></trkpt><trkpt lat="45.0146733" lon="9.2874683"><ele>241.0</ele><time>2026-04-11T12:12:19.034Z</time></trkpt><trkpt lat="45.0146733" lon="9.2872883"><ele>242.5</ele><time>2026-04-11T12:12:20.033Z</time></trkpt><trkpt lat="45.0146783" lon="9.2871033"><ele>244.0</ele><time>2026-04-11T12:12:21.033Z</time></trkpt><trkpt lat="45.0146933" lon="9.286925"><ele>245.5</ele><time>2026-04-11T12:12:22.034Z</time></trkpt><trkpt lat="45.01473" lon="9.2867633"><ele>247.0</ele><time>2026-04-11T12:12:23.033Z</time></trkpt><trkpt lat="45.0147917" lon="9.28664"><ele>247.0</ele><time>2026-04-11T12:12:24.034Z</time></trkpt><trkpt lat="45.01487" lon="9.2865567"><ele>247.0</ele><time>2026-04-11T12:12:25.034Z</time></trkpt><trkpt lat="45.0149533" lon="9.28649"><ele>247.0</ele><time>2026-04-11T12:12:26.033Z</time></trkpt><trkpt lat="45.0150317" lon="9.286425"><ele>247.0</ele><time>2026-04-11T12:12:27.034Z</time></trkpt><trkpt lat="45.0151117" lon="9.28636"><ele>247.0</ele><time>2026-04-11T12:12:28.033Z</time></trkpt><trkpt lat="45.0152017" lon="9.2862983"><ele>247.2</ele><time>2026-04-11T12:12:29.031Z</time></trkpt><trkpt lat="45.0153" lon="9.2862367"><ele>247.39999999999998</ele><time>2026-04-11T12:12:30.032Z</time></trkpt><trkpt lat="45.0154017" lon="9.2861833"><ele>247.60000000000002</ele><time>2026-04-11T12:12:31.033Z</time></trkpt><trkpt lat="45.0155017" lon="9.28612"><ele>247.8</ele><time>2026-04-11T12:12:32.029Z</time></trkpt><trkpt lat="45.0155983" lon="9.2860433"><ele>248.0</ele><time>2026-04-11T12:12:33.03Z</time></trkpt><trkpt lat="45.0157017" lon="9.2859533"><ele>248.0</ele><time>2026-04-11T12:12:34.033Z</time></trkpt><trkpt lat="45.0157967" lon="9.28586"><ele>248.0</ele><time>2026-04-11T12:12:35.033Z</time></trkpt><trkpt lat="45.015885" lon="9.2857767"><ele>248.0</ele><time>2026-04-11T12:12:36.028Z</time></trkpt><trkpt lat="45.0159633" lon="9.285695"><ele>248.0</ele><time>2026-04-11T12:12:37.032Z</time></trkpt><trkpt lat="45.01603" lon="9.2856183"><ele>248.0</ele><time>2026-04-11T12:12:38.034Z</time></trkpt><trkpt lat="45.0160917" lon="9.2855517"><ele>248.2</ele><time>2026-04-11T12:12:39.035Z</time></trkpt><trkpt lat="45.0161667" lon="9.285515"><ele>248.4</ele><time>2026-04-11T12:12:40.031Z</time></trkpt><trkpt lat="45.0162583" lon="9.2854917"><ele>248.59999999999997</ele><time>2026-04-11T12:12:41.031Z</time></trkpt><trkpt lat="45.01637" lon="9.2854833"><ele>248.79999999999998</ele><time>2026-04-11T12:12:42.03Z</time></trkpt><trkpt lat="45.0164883" lon="9.2854483"><ele>249.0</ele><time>2026-04-11T12:12:43.03Z</time></trkpt><trkpt lat="45.016605" lon="9.28542"><ele>248.0</ele><time>2026-04-11T12:12:44.03Z</time></trkpt><trkpt lat="45.01672" lon="9.2853933"><ele>246.99999999999997</ele><time>2026-04-11T12:12:45.031Z</time></trkpt><trkpt lat="45.0168167" lon="9.285355"><ele>245.99999999999997</ele><time>2026-04-11T12:12:46.029Z</time></trkpt><trkpt lat="45.016895" lon="9.2853067"><ele>245.0</ele><time>2026-04-11T12:12:47.03Z</time></trkpt><trkpt lat="45.0169717" lon="9.2852433"><ele>244.0</ele><time>2026-04-11T12:12:48.03Z</time></trkpt><trkpt lat="45.0170417" lon="9.2851467"><ele>244.0</ele><time>2026-04-11T12:12:49.029Z</time></trkpt><trkpt lat="45.017105" lon="9.285035"><ele>243.99999999999997</ele><time>2026-04-11T12:12:50.032Z</time></trkpt><trkpt lat="45.0171717" lon="9.2849217"><ele>243.99999999999997</ele><time>2026-04-11T12:12:51.031Z</time></trkpt><trkpt lat="45.0172367" lon="9.2848167"><ele>244.0</ele><time>2026-04-11T12:12:52.031Z</time></trkpt><trkpt lat="45.017315" lon="9.2847283"><ele>244.0</ele><time>2026-04-11T12:12:53.029Z</time></trkpt><trkpt lat="45.0174067" lon="9.2846767"><ele>244.25</ele><time>2026-04-11T12:12:54.031Z</time></trkpt><trkpt lat="45.017505" lon="9.2846367"><ele>244.5</ele><time>2026-04-11T12:12:55.03Z</time></trkpt><trkpt lat="45.0176183" lon="9.2845967"><ele>244.75</ele><time>2026-04-11T12:12:56.03Z</time></trkpt><trkpt lat="45.01774" lon="9.284555"><ele>245.0</ele><time>2026-04-11T12:12:57.03Z</time></trkpt><trkpt lat="45.0178617" lon="9.2845067"><ele>245.0</ele><time>2026-04-11T12:12:58.03Z</time></trkpt><trkpt lat="45.0179867" lon="9.28446"><ele>245.0</ele><time>2026-04-11T12:12:59.03Z</time></trkpt><trkpt lat="45.018115" lon="9.2844167"><ele>245.0</ele><time>2026-04-11T12:13:00.03Z</time></trkpt><trkpt lat="45.0182517" lon="9.284375"><ele>245.0</ele><time>2026-04-11T12:13:01.03Z</time></trkpt><trkpt lat="45.018385" lon="9.2843367"><ele>245.0</ele><time>2026-04-11T12:13:02.03Z</time></trkpt><trkpt lat="45.018515" lon="9.2842917"><ele>245.0</ele><time>2026-04-11T12:13:03.035Z</time></trkpt><trkpt lat="45.018635" lon="9.2842483"><ele>245.0</ele><time>2026-04-11T12:13:04.029Z</time></trkpt><trkpt lat="45.0187533" lon="9.2842183"><ele>245.0</ele><time>2026-04-11T12:13:05.028Z</time></trkpt><trkpt lat="45.01887" lon="9.28421"><ele>245.0</ele><time>2026-04-11T12:13:06.03Z</time></trkpt><trkpt lat="45.0189883" lon="9.2842233"><ele>245.0</ele><time>2026-04-11T12:13:07.031Z</time></trkpt><trkpt lat="45.0191217" lon="9.2842467"><ele>245.0</ele><time>2026-04-11T12:13:08.03Z</time></trkpt><trkpt lat="45.019265" lon="9.28426"><ele>245.0</ele><time>2026-04-11T12:13:09.031Z</time></trkpt><trkpt lat="45.0194" lon="9.2842583"><ele>245.5</ele><time>2026-04-11T12:13:10.031Z</time></trkpt><trkpt lat="45.0195267" lon="9.2842533"><ele>246.0</ele><time>2026-04-11T12:13:11.033Z</time></trkpt><trkpt lat="45.01965" lon="9.2842533"><ele>246.5</ele><time>2026-04-11T12:13:12.033Z</time></trkpt><trkpt lat="45.01977" lon="9.28426"><ele>247.0</ele><time>2026-04-11T12:13:13.029Z</time></trkpt><trkpt lat="45.0198933" lon="9.28428"><ele>247.25</ele><time>2026-04-11T12:13:14.029Z</time></trkpt><trkpt lat="45.0200183" lon="9.2843133"><ele>247.5</ele><time>2026-04-11T12:13:15.031Z</time></trkpt><trkpt lat="45.0201533" lon="9.2843467"><ele>247.75</ele><time>2026-04-11T12:13:16.03Z</time></trkpt><trkpt lat="45.0202817" lon="9.2843733"><ele>248.0</ele><time>2026-04-11T12:13:17.036Z</time></trkpt><trkpt lat="45.020405" lon="9.2843883"><ele>248.0</ele><time>2026-04-11T12:13:18.029Z</time></trkpt><trkpt lat="45.0205233" lon="9.2844083"><ele>248.0</ele><time>2026-04-11T12:13:19.031Z</time></trkpt><trkpt lat="45.02063" lon="9.284445"><ele>248.0</ele><time>2026-04-11T12:13:20.03Z</time></trkpt><trkpt lat="45.0207217" lon="9.2845033"><ele>248.0</ele><time>2026-04-11T12:13:21.03Z</time></trkpt><trkpt lat="45.0208183" lon="9.2845833"><ele>248.0</ele><time>2026-04-11T12:13:22.03Z</time></trkpt><trkpt lat="45.0209167" lon="9.2846617"><ele>248.60000000000002</ele><time>2026-04-11T12:13:23.03Z</time></trkpt><trkpt lat="45.021" lon="9.2847433"><ele>249.20000000000002</ele><time>2026-04-11T12:13:24.03Z</time></trkpt><trkpt lat="45.02107" lon="9.2848367"><ele>249.8</ele><time>2026-04-11T12:13:25.03Z</time></trkpt><trkpt lat="45.0211317" lon="9.2849483"><ele>250.4</ele><time>2026-04-11T12:13:26.029Z</time></trkpt><trkpt lat="45.0212" lon="9.2850633"><ele>251.0</ele><time>2026-04-11T12:13:27.03Z</time></trkpt><trkpt lat="45.0212817" lon="9.2851567"><ele>250.4</ele><time>2026-04-11T12:13:28.029Z</time></trkpt><trkpt lat="45.0213733" lon="9.28522"><ele>249.8</ele><time>2026-04-11T12:13:29.03Z</time></trkpt><trkpt lat="45.0214733" lon="9.285255"><ele>249.20000000000002</ele><time>2026-04-11T12:13:30.03Z</time></trkpt><trkpt lat="45.021575" lon="9.2852767"><ele>248.60000000000002</ele><time>2026-04-11T12:13:31.029Z</time></trkpt><trkpt lat="45.0216833" lon="9.2852933"><ele>248.0</ele><time>2026-04-11T12:13:32.031Z</time></trkpt><trkpt lat="45.0217883" lon="9.28532"><ele>248.0</ele><time>2026-04-11T12:13:33.032Z</time></trkpt><trkpt lat="45.0218917" lon="9.28536"><ele>248.0</ele><time>2026-04-11T12:13:34.036Z</time></trkpt><trkpt lat="45.0219967" lon="9.28542"><ele>248.0</ele><time>2026-04-11T12:13:35.03Z</time></trkpt><trkpt lat="45.0220967" lon="9.2854967"><ele>248.0</ele><time>2026-04-11T12:13:36.032Z</time></trkpt><trkpt lat="45.02219" lon="9.2855767"><ele>248.0</ele><time>2026-04-11T12:13:37.031Z</time></trkpt><trkpt lat="45.0222933" lon="9.2856433"><ele>247.75</ele><time>2026-04-11T12:13:38.03Z</time></trkpt><trkpt lat="45.0224067" lon="9.285705"><ele>247.5</ele><time>2026-04-11T12:13:39.029Z</time></trkpt><trkpt lat="45.022525" lon="9.28576"><ele>247.25</ele><time>2026-04-11T12:13:40.033Z</time></trkpt><trkpt lat="45.0226467" lon="9.2858167"><ele>247.0</ele><time>2026-04-11T12:13:41.032Z</time></trkpt><trkpt lat="45.0227683" lon="9.285865"><ele>247.0</ele><time>2026-04-11T12:13:42.033Z</time></trkpt><trkpt lat="45.022885" lon="9.2859017"><ele>247.0</ele><time>2026-04-11T12:13:43.031Z</time></trkpt><trkpt lat="45.02299" lon="9.2859217"><ele>247.0</ele><time>2026-04-11T12:13:44.031Z</time></trkpt><trkpt lat="45.0230817" lon="9.285925"><ele>247.0</ele><time>2026-04-11T12:13:45.034Z</time></trkpt><trkpt lat="45.0231633" lon="9.285925"><ele>247.0</ele><time>2026-04-11T12:13:46.031Z</time></trkpt><trkpt lat="45.02323" lon="9.28593"><ele>247.0</ele><time>2026-04-11T12:13:47.032Z</time></trkpt><trkpt lat="45.023295" lon="9.28597"><ele>247.0</ele><time>2026-04-11T12:13:49.031Z</time></trkpt><trkpt lat="45.0232067" lon="9.2860483"><ele>247.0</ele><time>2026-04-11T12:13:52.033Z</time></trkpt><trkpt lat="45.0230983" lon="9.2861417"><ele>247.0</ele><time>2026-04-11T12:13:54.032Z</time></trkpt><trkpt lat="45.02305" lon="9.286235"><ele>247.0</ele><time>2026-04-11T12:13:55.031Z</time></trkpt><trkpt lat="45.0230133" lon="9.2863483"><ele>245.0</ele><time>2026-04-11T12:13:56.032Z</time></trkpt><trkpt lat="45.022995" lon="9.2864917"><ele>243.0</ele><time>2026-04-11T12:13:57.032Z</time></trkpt><trkpt lat="45.0229867" lon="9.28665"><ele>241.0</ele><time>2026-04-11T12:13:58.031Z</time></trkpt><trkpt lat="45.0229817" lon="9.2868183"><ele>239.0</ele><time>2026-04-11T12:13:59.033Z</time></trkpt><trkpt lat="45.0229683" lon="9.28699"><ele>239.0</ele><time>2026-04-11T12:14:00.033Z</time></trkpt><trkpt lat="45.0229367" lon="9.2871533"><ele>239.0</ele><time>2026-04-11T12:14:01.033Z</time></trkpt><trkpt lat="45.0228867" lon="9.2873033"><ele>239.0</ele><time>2026-04-11T12:14:02.031Z</time></trkpt><trkpt lat="45.0228217" lon="9.2874383"><ele>239.0</ele><time>2026-04-11T12:14:03.033Z</time></trkpt><trkpt lat="45.0227433" lon="9.2875483"><ele>237.0</ele><time>2026-04-11T12:14:04.032Z</time></trkpt><trkpt lat="45.0226583" lon="9.287625"><ele>234.99999999999997</ele><time>2026-04-11T12:14:05.031Z</time></trkpt><trkpt lat="45.0225583" lon="9.2876717"><ele>232.99999999999997</ele><time>2026-04-11T12:14:06.032Z</time></trkpt><trkpt lat="45.02245" lon="9.2877117"><ele>231.0</ele><time>2026-04-11T12:14:07.031Z</time></trkpt><trkpt lat="45.02234" lon="9.28776"><ele>229.0</ele><time>2026-04-11T12:14:08.033Z</time></trkpt><trkpt lat="45.0222367" lon="9.28782"><ele>229.0</ele><time>2026-04-11T12:14:09.033Z</time></trkpt><trkpt lat="45.022145" lon="9.2878933"><ele>228.99999999999997</ele><time>2026-04-11T12:14:10.031Z</time></trkpt><trkpt lat="45.0220717" lon="9.2879817"><ele>228.99999999999997</ele><time>2026-04-11T12:14:11.033Z</time></trkpt><trkpt lat="45.022015" lon="9.2880883"><ele>229.0</ele><time>2026-04-11T12:14:12.033Z</time></trkpt><trkpt lat="45.0219783" lon="9.2882167"><ele>229.0</ele><time>2026-04-11T12:14:13.034Z</time></trkpt><trkpt lat="45.02196" lon="9.28836"><ele>227.79999999999998</ele><time>2026-04-11T12:14:14.033Z</time></trkpt><trkpt lat="45.0219467" lon="9.2885117"><ele>226.59999999999997</ele><time>2026-04-11T12:14:15.033Z</time></trkpt><trkpt lat="45.0219317" lon="9.28866"><ele>225.4</ele><time>2026-04-11T12:14:16.034Z</time></trkpt><trkpt lat="45.0219133" lon="9.2888017"><ele>224.2</ele><time>2026-04-11T12:14:17.032Z</time></trkpt><trkpt lat="45.0219" lon="9.2889367"><ele>223.0</ele><time>2026-04-11T12:14:18.032Z</time></trkpt><trkpt lat="45.0218917" lon="9.28908"><ele>222.0</ele><time>2026-04-11T12:14:19.031Z</time></trkpt><trkpt lat="45.021885" lon="9.28922"><ele>221.0</ele><time>2026-04-11T12:14:20.032Z</time></trkpt><trkpt lat="45.0218733" lon="9.2893617"><ele>220.0</ele><time>2026-04-11T12:14:21.034Z</time></trkpt><trkpt lat="45.0218533" lon="9.28951"><ele>219.0</ele><time>2026-04-11T12:14:22.029Z</time></trkpt><trkpt lat="45.02182" lon="9.2896517"><ele>218.0</ele><time>2026-04-11T12:14:23.031Z</time></trkpt><trkpt lat="45.021775" lon="9.2897883"><ele>216.0</ele><time>2026-04-11T12:14:24.03Z</time></trkpt><trkpt lat="45.0217233" lon="9.2899233"><ele>214.0</ele><time>2026-04-11T12:14:25.031Z</time></trkpt><trkpt lat="45.02167" lon="9.2900617"><ele>212.0</ele><time>2026-04-11T12:14:26.032Z</time></trkpt><trkpt lat="45.0216133" lon="9.2902067"><ele>210.0</ele><time>2026-04-11T12:14:27.034Z</time></trkpt><trkpt lat="45.0215583" lon="9.29035"><ele>208.8</ele><time>2026-04-11T12:14:28.031Z</time></trkpt><trkpt lat="45.0215083" lon="9.2904917"><ele>207.6</ele><time>2026-04-11T12:14:29.031Z</time></trkpt><trkpt lat="45.0214667" lon="9.29063"><ele>206.39999999999998</ele><time>2026-04-11T12:14:30.034Z</time></trkpt><trkpt lat="45.0214383" lon="9.2907717"><ele>205.2</ele><time>2026-04-11T12:14:31.032Z</time></trkpt><trkpt lat="45.0214217" lon="9.2909183"><ele>204.0</ele><time>2026-04-11T12:14:32.033Z</time></trkpt><trkpt lat="45.02141" lon="9.29107"><ele>203.0</ele><time>2026-04-11T12:14:33.032Z</time></trkpt><trkpt lat="45.0214033" lon="9.2912217"><ele>202.0</ele><time>2026-04-11T12:14:34.034Z</time></trkpt><trkpt lat="45.0214" lon="9.291375"><ele>201.0</ele><time>2026-04-11T12:14:35.032Z</time></trkpt><trkpt lat="45.0213983" lon="9.29153"><ele>200.0</ele><time>2026-04-11T12:14:36.033Z</time></trkpt><trkpt lat="45.0213967" lon="9.291685"><ele>199.0</ele><time>2026-04-11T12:14:37.033Z</time></trkpt><trkpt lat="45.02139" lon="9.29184"><ele>197.79999999999998</ele><time>2026-04-11T12:14:38.034Z</time></trkpt><trkpt lat="45.02138" lon="9.2919917"><ele>196.6</ele><time>2026-04-11T12:14:39.032Z</time></trkpt><trkpt lat="45.0213717" lon="9.2921417"><ele>195.4</ele><time>2026-04-11T12:14:40.032Z</time></trkpt><trkpt lat="45.0213667" lon="9.2922883"><ele>194.2</ele><time>2026-04-11T12:14:41.033Z</time></trkpt><trkpt lat="45.021365" lon="9.2924367"><ele>193.0</ele><time>2026-04-11T12:14:42.034Z</time></trkpt><trkpt lat="45.0213617" lon="9.2925917"><ele>192.0</ele><time>2026-04-11T12:14:43.032Z</time></trkpt><trkpt lat="45.021355" lon="9.2927533"><ele>191.0</ele><time>2026-04-11T12:14:44.033Z</time></trkpt><trkpt lat="45.0213467" lon="9.2929183"><ele>190.0</ele><time>2026-04-11T12:14:45.033Z</time></trkpt><trkpt lat="45.0213383" lon="9.2930883"><ele>189.0</ele><time>2026-04-11T12:14:46.032Z</time></trkpt><trkpt lat="45.021325" lon="9.2932583"><ele>187.0</ele><time>2026-04-11T12:14:47.032Z</time></trkpt><trkpt lat="45.0213083" lon="9.2934283"><ele>185.0</ele><time>2026-04-11T12:14:48.034Z</time></trkpt><trkpt lat="45.0212833" lon="9.2935983"><ele>183.0</ele><time>2026-04-11T12:14:49.032Z</time></trkpt><trkpt lat="45.0212533" lon="9.2937633"><ele>181.0</ele><time>2026-04-11T12:14:50.033Z</time></trkpt><trkpt lat="45.0212217" lon="9.2939283"><ele>179.5</ele><time>2026-04-11T12:14:51.034Z</time></trkpt><trkpt lat="45.0211883" lon="9.2940917"><ele>178.0</ele><time>2026-04-11T12:14:52.032Z</time></trkpt><trkpt lat="45.0211533" lon="9.2942583"><ele>176.5</ele><time>2026-04-11T12:14:53.033Z</time></trkpt><trkpt lat="45.0211167" lon="9.2944183"><ele>175.0</ele><time>2026-04-11T12:14:54.032Z</time></trkpt><trkpt lat="45.0210867" lon="9.2945717"><ele>175.0</ele><time>2026-04-11T12:14:55.034Z</time></trkpt><trkpt lat="45.0210633" lon="9.294725"><ele>175.0</ele><time>2026-04-11T12:14:56.033Z</time></trkpt><trkpt lat="45.021035" lon="9.294875"><ele>175.0</ele><time>2026-04-11T12:14:57.034Z</time></trkpt><trkpt lat="45.0209933" lon="9.2950067"><ele>175.0</ele><time>2026-04-11T12:14:58.031Z</time></trkpt><trkpt lat="45.020935" lon="9.295085"><ele>175.0</ele><time>2026-04-11T12:14:59.033Z</time></trkpt><trkpt lat="45.0208683" lon="9.2951283"><ele>174.0</ele><time>2026-04-11T12:15:00.032Z</time></trkpt><trkpt lat="45.020795" lon="9.2951717"><ele>173.0</ele><time>2026-04-11T12:15:01.033Z</time></trkpt><trkpt lat="45.0207267" lon="9.29524"><ele>172.0</ele><time>2026-04-11T12:15:02.032Z</time></trkpt><trkpt lat="45.0206633" lon="9.2953317"><ele>171.0</ele><time>2026-04-11T12:15:03.032Z</time></trkpt><trkpt lat="45.0206083" lon="9.295435"><ele>170.0</ele><time>2026-04-11T12:15:04.032Z</time></trkpt><trkpt lat="45.0205583" lon="9.2955417"><ele>169.0</ele><time>2026-04-11T12:15:05.031Z</time></trkpt><trkpt lat="45.0205083" lon="9.2956433"><ele>167.79999999999998</ele><time>2026-04-11T12:15:06.032Z</time></trkpt><trkpt lat="45.0204633" lon="9.2957417"><ele>166.6</ele><time>2026-04-11T12:15:07.03Z</time></trkpt><trkpt lat="45.02042" lon="9.2958433"><ele>165.4</ele><time>2026-04-11T12:15:08.032Z</time></trkpt><trkpt lat="45.0203667" lon="9.2959467"><ele>164.2</ele><time>2026-04-11T12:15:09.035Z</time></trkpt><trkpt lat="45.0203067" lon="9.2960517"><ele>163.0</ele><time>2026-04-11T12:15:10.03Z</time></trkpt><trkpt lat="45.0202417" lon="9.296165"><ele>163.0</ele><time>2026-04-11T12:15:11.034Z</time></trkpt><trkpt lat="45.0201733" lon="9.296275"><ele>163.0</ele><time>2026-04-11T12:15:12.031Z</time></trkpt><trkpt lat="45.0201067" lon="9.29638"><ele>163.0</ele><time>2026-04-11T12:15:13.034Z</time></trkpt><trkpt lat="45.02004" lon="9.2964867"><ele>163.0</ele><time>2026-04-11T12:15:14.031Z</time></trkpt><trkpt lat="45.019975" lon="9.2965917"><ele>163.0</ele><time>2026-04-11T12:15:15.033Z</time></trkpt><trkpt lat="45.0199083" lon="9.2967"><ele>159.6</ele><time>2026-04-11T12:15:16.033Z</time></trkpt><trkpt lat="45.0198433" lon="9.29681"><ele>156.20000000000002</ele><time>2026-04-11T12:15:17.03Z</time></trkpt><trkpt lat="45.0197783" lon="9.29692"><ele>152.8</ele><time>2026-04-11T12:15:18.033Z</time></trkpt><trkpt lat="45.0197083" lon="9.2970183"><ele>149.4</ele><time>2026-04-11T12:15:19.032Z</time></trkpt><trkpt lat="45.0196333" lon="9.2971017"><ele>146.0</ele><time>2026-04-11T12:15:20.033Z</time></trkpt><trkpt lat="45.019555" lon="9.2971733"><ele>146.0</ele><time>2026-04-11T12:15:21.031Z</time></trkpt><trkpt lat="45.01947" lon="9.2972317"><ele>146.0</ele><time>2026-04-11T12:15:22.032Z</time></trkpt><trkpt lat="45.0193767" lon="9.2972783"><ele>146.0</ele><time>2026-04-11T12:15:23.032Z</time></trkpt><trkpt lat="45.0192817" lon="9.29732"><ele>146.0</ele><time>2026-04-11T12:15:24.031Z</time></trkpt><trkpt lat="45.0191883" lon="9.2973683"><ele>146.0</ele><time>2026-04-11T12:15:25.032Z</time></trkpt><trkpt lat="45.0190933" lon="9.297425"><ele>144.8</ele><time>2026-04-11T12:15:26.033Z</time></trkpt><trkpt lat="45.019" lon="9.2974883"><ele>143.6</ele><time>2026-04-11T12:15:27.032Z</time></trkpt><trkpt lat="45.01891" lon="9.29755"><ele>142.4</ele><time>2026-04-11T12:15:28.032Z</time></trkpt><trkpt lat="45.0188333" lon="9.2976217"><ele>141.2</ele><time>2026-04-11T12:15:29.032Z</time></trkpt><trkpt lat="45.0187717" lon="9.29771"><ele>140.0</ele><time>2026-04-11T12:15:30.033Z</time></trkpt><trkpt lat="45.0187267" lon="9.2978"><ele>140.0</ele><time>2026-04-11T12:15:31.034Z</time></trkpt><trkpt lat="45.0186683" lon="9.2979267"><ele>140.0</ele><time>2026-04-11T12:15:33.034Z</time></trkpt><trkpt lat="45.0185717" lon="9.2980233"><ele>140.0</ele><time>2026-04-11T12:15:42.033Z</time></trkpt><trkpt lat="45.0185633" lon="9.2981583"><ele>140.0</ele><time>2026-04-11T12:15:44.03Z</time></trkpt><trkpt lat="45.0185733" lon="9.2983383"><ele>140.0</ele><time>2026-04-11T12:15:46.03Z</time></trkpt><trkpt lat="45.0185767" lon="9.29844"><ele>139.5</ele><time>2026-04-11T12:15:47.032Z</time></trkpt><trkpt lat="45.018575" lon="9.29855"><ele>139.0</ele><time>2026-04-11T12:15:48.032Z</time></trkpt><trkpt lat="45.0185717" lon="9.2986617"><ele>138.5</ele><time>2026-04-11T12:15:49.033Z</time></trkpt><trkpt lat="45.01857" lon="9.2987717"><ele>138.0</ele><time>2026-04-11T12:15:50.031Z</time></trkpt><trkpt lat="45.0185683" lon="9.2988767"><ele>137.5</ele><time>2026-04-11T12:15:51.033Z</time></trkpt><trkpt lat="45.01857" lon="9.298975"><ele>137.0</ele><time>2026-04-11T12:15:52.032Z</time></trkpt><trkpt lat="45.0185683" lon="9.299125"><ele>136.79999999999998</ele><time>2026-04-11T12:15:54.032Z</time></trkpt><trkpt lat="45.0185983" lon="9.299235"><ele>136.6</ele><time>2026-04-11T12:15:56.031Z</time></trkpt><trkpt lat="45.0186833" lon="9.2993167"><ele>136.39999999999998</ele><time>2026-04-11T12:15:58.033Z</time></trkpt><trkpt lat="45.01879" lon="9.299325"><ele>136.2</ele><time>2026-04-11T12:16:00.033Z</time></trkpt><trkpt lat="45.0189033" lon="9.299305"><ele>136.0</ele><time>2026-04-11T12:16:02.031Z</time></trkpt><trkpt lat="45.019015" lon="9.2993017"><ele>136.0</ele><time>2026-04-11T12:16:04.031Z</time></trkpt><trkpt lat="45.0190883" lon="9.299355"><ele>136.0</ele><time>2026-04-11T12:16:06.033Z</time></trkpt><trkpt lat="45.0191033" lon="9.2994417"><ele>136.0</ele><time>2026-04-11T12:16:08.031Z</time></trkpt></trkseg></trk></gpx>